<?xml version="1.0" encoding="UTF-8" standalone="no" ?>
<gpx xmlns="http://www.topografix.com/GPX/1/1" xmlns:xsi="http://www.w3.org/2001/XMLSchema-instance" xsi:schemaLocation="http://www.topografix.com/GPX/1/1 http://www.topografix.com/GPX/1/1/gpx.xsd" version="1.1" creator="VisuGPX - https://www.visugpx.com">
  <metadata>
    <name>Parcours du siècle</name>
    <desc><![CDATA[Parcours du siècle]]></desc>
  </metadata>
  <trk>
    <name><![CDATA[t]]></name>
    <desc><![CDATA[]]></desc>
    <trkseg>
      <trkpt lat="47.49127" lon="6.76506">
        <ele>275.5</ele>
        <time>2014-11-09T08:37:30.000Z</time>
      </trkpt>
      <trkpt lat="47.49149" lon="6.76499">
        <ele>293.5</ele>
        <time>2014-11-09T08:37:31.000Z</time>
      </trkpt>
      <trkpt lat="47.49158" lon="6.76499">
        <ele>292.7</ele>
        <time>2014-11-09T08:37:32.000Z</time>
      </trkpt>
      <trkpt lat="47.49161" lon="6.76497">
        <ele>298.3</ele>
        <time>2014-11-09T08:37:33.000Z</time>
      </trkpt>
      <trkpt lat="47.49164" lon="6.76496">
        <ele>299.8</ele>
        <time>2014-11-09T08:37:34.000Z</time>
      </trkpt>
      <trkpt lat="47.49168" lon="6.76496">
        <ele>301</ele>
        <time>2014-11-09T08:37:35.000Z</time>
      </trkpt>
      <trkpt lat="47.49169" lon="6.76497">
        <ele>299.8</ele>
        <time>2014-11-09T08:37:36.000Z</time>
      </trkpt>
      <trkpt lat="47.49168" lon="6.76495">
        <ele>304.2</ele>
        <time>2014-11-09T08:37:39.000Z</time>
      </trkpt>
      <trkpt lat="47.49182" lon="6.76491">
        <ele>316.7</ele>
        <time>2014-11-09T08:37:40.000Z</time>
      </trkpt>
      <trkpt lat="47.49184" lon="6.76487">
        <ele>328.7</ele>
        <time>2014-11-09T08:37:55.000Z</time>
      </trkpt>
      <trkpt lat="47.49177" lon="6.76492">
        <ele>303</ele>
        <time>2014-11-09T08:37:58.000Z</time>
      </trkpt>
      <trkpt lat="47.49173" lon="6.76494">
        <ele>304.6</ele>
        <time>2014-11-09T08:38:39.000Z</time>
      </trkpt>
      <trkpt lat="47.49173" lon="6.76501">
        <ele>304.5</ele>
        <time>2014-11-09T08:38:40.000Z</time>
      </trkpt>
      <trkpt lat="47.49172" lon="6.76505">
        <ele>305.6</ele>
        <time>2014-11-09T08:38:41.000Z</time>
      </trkpt>
      <trkpt lat="47.49171" lon="6.76508">
        <ele>305.6</ele>
        <time>2014-11-09T08:38:42.000Z</time>
      </trkpt>
      <trkpt lat="47.49169" lon="6.76513">
        <ele>307</ele>
        <time>2014-11-09T08:38:44.000Z</time>
      </trkpt>
      <trkpt lat="47.49168" lon="6.76514">
        <ele>310.4</ele>
        <time>2014-11-09T08:38:45.000Z</time>
      </trkpt>
      <trkpt lat="47.49166" lon="6.76515">
        <ele>312</ele>
        <time>2014-11-09T08:38:46.000Z</time>
      </trkpt>
      <trkpt lat="47.49163" lon="6.76517">
        <ele>311.1</ele>
        <time>2014-11-09T08:38:47.000Z</time>
      </trkpt>
      <trkpt lat="47.49159" lon="6.76518">
        <ele>310.5</ele>
        <time>2014-11-09T08:38:48.000Z</time>
      </trkpt>
      <trkpt lat="47.49155" lon="6.7652">
        <ele>310.7</ele>
        <time>2014-11-09T08:38:49.000Z</time>
      </trkpt>
      <trkpt lat="47.4915" lon="6.76522">
        <ele>311.8</ele>
        <time>2014-11-09T08:38:50.000Z</time>
      </trkpt>
      <trkpt lat="47.4914" lon="6.76521">
        <ele>312.4</ele>
        <time>2014-11-09T08:38:51.000Z</time>
      </trkpt>
      <trkpt lat="47.49135" lon="6.76521">
        <ele>312.6</ele>
        <time>2014-11-09T08:38:52.000Z</time>
      </trkpt>
      <trkpt lat="47.49129" lon="6.76521">
        <ele>312.1</ele>
        <time>2014-11-09T08:38:53.000Z</time>
      </trkpt>
      <trkpt lat="47.49123" lon="6.7652">
        <ele>311.5</ele>
        <time>2014-11-09T08:38:54.000Z</time>
      </trkpt>
      <trkpt lat="47.49121" lon="6.76514">
        <ele>313.8</ele>
        <time>2014-11-09T08:38:55.000Z</time>
      </trkpt>
      <trkpt lat="47.49113" lon="6.76499">
        <ele>310.3</ele>
        <time>2014-11-09T08:38:58.000Z</time>
      </trkpt>
      <trkpt lat="47.49119" lon="6.76498">
        <ele>312.3</ele>
        <time>2014-11-09T08:38:59.000Z</time>
      </trkpt>
      <trkpt lat="47.4912" lon="6.76494">
        <ele>312.3</ele>
        <time>2014-11-09T08:39:00.106Z</time>
      </trkpt>
      <trkpt lat="47.4912" lon="6.76487">
        <ele>312.1</ele>
        <time>2014-11-09T08:39:02.000Z</time>
      </trkpt>
      <trkpt lat="47.49121" lon="6.76483">
        <ele>314.5</ele>
        <time>2014-11-09T08:39:04.000Z</time>
      </trkpt>
      <trkpt lat="47.49121" lon="6.76478">
        <ele>315.5</ele>
        <time>2014-11-09T08:39:05.000Z</time>
      </trkpt>
      <trkpt lat="47.49122" lon="6.76474">
        <ele>316.6</ele>
        <time>2014-11-09T08:39:06.000Z</time>
      </trkpt>
      <trkpt lat="47.49122" lon="6.7647">
        <ele>317.3</ele>
        <time>2014-11-09T08:39:07.000Z</time>
      </trkpt>
      <trkpt lat="47.49122" lon="6.76465">
        <ele>317.6</ele>
        <time>2014-11-09T08:39:08.000Z</time>
      </trkpt>
      <trkpt lat="47.49123" lon="6.76461">
        <ele>317.6</ele>
        <time>2014-11-09T08:39:09.000Z</time>
      </trkpt>
      <trkpt lat="47.49122" lon="6.76455">
        <ele>316.7</ele>
        <time>2014-11-09T08:39:11.000Z</time>
      </trkpt>
      <trkpt lat="47.49121" lon="6.76453">
        <ele>316.5</ele>
        <time>2014-11-09T08:39:12.000Z</time>
      </trkpt>
      <trkpt lat="47.4912" lon="6.76447">
        <ele>317.3</ele>
        <time>2014-11-09T08:39:15.000Z</time>
      </trkpt>
      <trkpt lat="47.49119" lon="6.76445">
        <ele>317.6</ele>
        <time>2014-11-09T08:39:16.000Z</time>
      </trkpt>
      <trkpt lat="47.4912" lon="6.76439">
        <ele>322.4</ele>
        <time>2014-11-09T08:39:20.000Z</time>
      </trkpt>
      <trkpt lat="47.4912" lon="6.76436">
        <ele>320.4</ele>
        <time>2014-11-09T08:39:21.000Z</time>
      </trkpt>
      <trkpt lat="47.4912" lon="6.76431">
        <ele>322.5</ele>
        <time>2014-11-09T08:39:23.000Z</time>
      </trkpt>
      <trkpt lat="47.49121" lon="6.76428">
        <ele>323.3</ele>
        <time>2014-11-09T08:39:24.000Z</time>
      </trkpt>
      <trkpt lat="47.49121" lon="6.76425">
        <ele>323.3</ele>
        <time>2014-11-09T08:39:25.000Z</time>
      </trkpt>
      <trkpt lat="47.49121" lon="6.76421">
        <ele>323.1</ele>
        <time>2014-11-09T08:39:26.000Z</time>
      </trkpt>
      <trkpt lat="47.4912" lon="6.76416">
        <ele>322.2</ele>
        <time>2014-11-09T08:39:27.000Z</time>
      </trkpt>
      <trkpt lat="47.4912" lon="6.76411">
        <ele>321</ele>
        <time>2014-11-09T08:39:28.000Z</time>
      </trkpt>
      <trkpt lat="47.49119" lon="6.76406">
        <ele>320.6</ele>
        <time>2014-11-09T08:39:29.000Z</time>
      </trkpt>
      <trkpt lat="47.49118" lon="6.76402">
        <ele>320.5</ele>
        <time>2014-11-09T08:39:30.000Z</time>
      </trkpt>
      <trkpt lat="47.49118" lon="6.76397">
        <ele>323.1</ele>
        <time>2014-11-09T08:39:31.000Z</time>
      </trkpt>
      <trkpt lat="47.49118" lon="6.76392">
        <ele>321.1</ele>
        <time>2014-11-09T08:39:32.000Z</time>
      </trkpt>
      <trkpt lat="47.49118" lon="6.76387">
        <ele>320.7</ele>
        <time>2014-11-09T08:39:33.000Z</time>
      </trkpt>
      <trkpt lat="47.49119" lon="6.76381">
        <ele>321.1</ele>
        <time>2014-11-09T08:39:34.000Z</time>
      </trkpt>
      <trkpt lat="47.49119" lon="6.76376">
        <ele>321.6</ele>
        <time>2014-11-09T08:39:35.000Z</time>
      </trkpt>
      <trkpt lat="47.4912" lon="6.76371">
        <ele>321.5</ele>
        <time>2014-11-09T08:39:36.000Z</time>
      </trkpt>
      <trkpt lat="47.4912" lon="6.76367">
        <ele>321.2</ele>
        <time>2014-11-09T08:39:37.000Z</time>
      </trkpt>
      <trkpt lat="47.4912" lon="6.76363">
        <ele>321.4</ele>
        <time>2014-11-09T08:39:38.000Z</time>
      </trkpt>
      <trkpt lat="47.4912" lon="6.76359">
        <ele>321.4</ele>
        <time>2014-11-09T08:39:39.000Z</time>
      </trkpt>
      <trkpt lat="47.49121" lon="6.76354">
        <ele>321.5</ele>
        <time>2014-11-09T08:39:40.000Z</time>
      </trkpt>
      <trkpt lat="47.49121" lon="6.76349">
        <ele>321.7</ele>
        <time>2014-11-09T08:39:41.000Z</time>
      </trkpt>
      <trkpt lat="47.49122" lon="6.76344">
        <ele>321.2</ele>
        <time>2014-11-09T08:39:42.000Z</time>
      </trkpt>
      <trkpt lat="47.49122" lon="6.76339">
        <ele>319.8</ele>
        <time>2014-11-09T08:39:43.000Z</time>
      </trkpt>
      <trkpt lat="47.49123" lon="6.76334">
        <ele>319.3</ele>
        <time>2014-11-09T08:39:44.000Z</time>
      </trkpt>
      <trkpt lat="47.49123" lon="6.7633">
        <ele>319.2</ele>
        <time>2014-11-09T08:39:45.000Z</time>
      </trkpt>
      <trkpt lat="47.49124" lon="6.76325">
        <ele>318</ele>
        <time>2014-11-09T08:39:46.000Z</time>
      </trkpt>
      <trkpt lat="47.49124" lon="6.7632">
        <ele>314.5</ele>
        <time>2014-11-09T08:39:47.000Z</time>
      </trkpt>
      <trkpt lat="47.49124" lon="6.76314">
        <ele>313.2</ele>
        <time>2014-11-09T08:39:48.000Z</time>
      </trkpt>
      <trkpt lat="47.49125" lon="6.76307">
        <ele>312.6</ele>
        <time>2014-11-09T08:39:49.000Z</time>
      </trkpt>
      <trkpt lat="47.49124" lon="6.76301">
        <ele>312.9</ele>
        <time>2014-11-09T08:39:50.000Z</time>
      </trkpt>
      <trkpt lat="47.49124" lon="6.76295">
        <ele>313.5</ele>
        <time>2014-11-09T08:39:51.000Z</time>
      </trkpt>
      <trkpt lat="47.49124" lon="6.7629">
        <ele>313.5</ele>
        <time>2014-11-09T08:39:52.000Z</time>
      </trkpt>
      <trkpt lat="47.49124" lon="6.76285">
        <ele>314.3</ele>
        <time>2014-11-09T08:39:53.000Z</time>
      </trkpt>
      <trkpt lat="47.49123" lon="6.76279">
        <ele>312.7</ele>
        <time>2014-11-09T08:39:54.000Z</time>
      </trkpt>
      <trkpt lat="47.49122" lon="6.76272">
        <ele>310.4</ele>
        <time>2014-11-09T08:39:55.000Z</time>
      </trkpt>
      <trkpt lat="47.49121" lon="6.76264">
        <ele>309.7</ele>
        <time>2014-11-09T08:39:56.000Z</time>
      </trkpt>
      <trkpt lat="47.4912" lon="6.76248">
        <ele>260.9</ele>
        <time>2014-11-09T08:39:59.000Z</time>
      </trkpt>
      <trkpt lat="47.49121" lon="6.76241">
        <ele>261.4</ele>
        <time>2014-11-09T08:40:00.000Z</time>
      </trkpt>
      <trkpt lat="47.49121" lon="6.76234">
        <ele>261.9</ele>
        <time>2014-11-09T08:40:01.000Z</time>
      </trkpt>
      <trkpt lat="47.49121" lon="6.76227">
        <ele>262.9</ele>
        <time>2014-11-09T08:40:02.000Z</time>
      </trkpt>
      <trkpt lat="47.49119" lon="6.76214">
        <ele>263.6</ele>
        <time>2014-11-09T08:40:03.000Z</time>
      </trkpt>
      <trkpt lat="47.49118" lon="6.76206">
        <ele>264.3</ele>
        <time>2014-11-09T08:40:04.000Z</time>
      </trkpt>
      <trkpt lat="47.49116" lon="6.76195">
        <ele>267.9</ele>
        <time>2014-11-09T08:40:05.000Z</time>
      </trkpt>
      <trkpt lat="47.49117" lon="6.76188">
        <ele>269.1</ele>
        <time>2014-11-09T08:40:06.000Z</time>
      </trkpt>
      <trkpt lat="47.49117" lon="6.76179">
        <ele>270.9</ele>
        <time>2014-11-09T08:40:07.000Z</time>
      </trkpt>
      <trkpt lat="47.49117" lon="6.7617">
        <ele>271.7</ele>
        <time>2014-11-09T08:40:08.000Z</time>
      </trkpt>
      <trkpt lat="47.49118" lon="6.76164">
        <ele>272.7</ele>
        <time>2014-11-09T08:40:09.000Z</time>
      </trkpt>
      <trkpt lat="47.4912" lon="6.76156">
        <ele>273.4</ele>
        <time>2014-11-09T08:40:10.000Z</time>
      </trkpt>
      <trkpt lat="47.4912" lon="6.76147">
        <ele>274.4</ele>
        <time>2014-11-09T08:40:11.000Z</time>
      </trkpt>
      <trkpt lat="47.49119" lon="6.76138">
        <ele>276</ele>
        <time>2014-11-09T08:40:12.000Z</time>
      </trkpt>
      <trkpt lat="47.49121" lon="6.76131">
        <ele>276.9</ele>
        <time>2014-11-09T08:40:13.000Z</time>
      </trkpt>
      <trkpt lat="47.49123" lon="6.76124">
        <ele>277.8</ele>
        <time>2014-11-09T08:40:14.000Z</time>
      </trkpt>
      <trkpt lat="47.49126" lon="6.76117">
        <ele>278.9</ele>
        <time>2014-11-09T08:40:15.000Z</time>
      </trkpt>
      <trkpt lat="47.49129" lon="6.76108">
        <ele>279.3</ele>
        <time>2014-11-09T08:40:16.000Z</time>
      </trkpt>
      <trkpt lat="47.49132" lon="6.76101">
        <ele>281.3</ele>
        <time>2014-11-09T08:40:17.000Z</time>
      </trkpt>
      <trkpt lat="47.49135" lon="6.76094">
        <ele>283.1</ele>
        <time>2014-11-09T08:40:18.000Z</time>
      </trkpt>
      <trkpt lat="47.49138" lon="6.76087">
        <ele>284.8</ele>
        <time>2014-11-09T08:40:19.000Z</time>
      </trkpt>
      <trkpt lat="47.49141" lon="6.7608">
        <ele>285.5</ele>
        <time>2014-11-09T08:40:20.000Z</time>
      </trkpt>
      <trkpt lat="47.49144" lon="6.76073">
        <ele>286.1</ele>
        <time>2014-11-09T08:40:21.000Z</time>
      </trkpt>
      <trkpt lat="47.49147" lon="6.76066">
        <ele>286.8</ele>
        <time>2014-11-09T08:40:22.000Z</time>
      </trkpt>
      <trkpt lat="47.4915" lon="6.76059">
        <ele>287.4</ele>
        <time>2014-11-09T08:40:23.000Z</time>
      </trkpt>
      <trkpt lat="47.49153" lon="6.76055">
        <ele>289.1</ele>
        <time>2014-11-09T08:40:24.000Z</time>
      </trkpt>
      <trkpt lat="47.49155" lon="6.76048">
        <ele>290.7</ele>
        <time>2014-11-09T08:40:25.000Z</time>
      </trkpt>
      <trkpt lat="47.49157" lon="6.76041">
        <ele>292.7</ele>
        <time>2014-11-09T08:40:26.000Z</time>
      </trkpt>
      <trkpt lat="47.49159" lon="6.76033">
        <ele>293.8</ele>
        <time>2014-11-09T08:40:27.000Z</time>
      </trkpt>
      <trkpt lat="47.49162" lon="6.76026">
        <ele>294.7</ele>
        <time>2014-11-09T08:40:28.000Z</time>
      </trkpt>
      <trkpt lat="47.49166" lon="6.76019">
        <ele>295.2</ele>
        <time>2014-11-09T08:40:29.000Z</time>
      </trkpt>
      <trkpt lat="47.49169" lon="6.76013">
        <ele>296</ele>
        <time>2014-11-09T08:40:30.000Z</time>
      </trkpt>
      <trkpt lat="47.4917" lon="6.76007">
        <ele>296.8</ele>
        <time>2014-11-09T08:40:31.000Z</time>
      </trkpt>
      <trkpt lat="47.49173" lon="6.76003">
        <ele>297.1</ele>
        <time>2014-11-09T08:40:32.000Z</time>
      </trkpt>
      <trkpt lat="47.49177" lon="6.75997">
        <ele>299.3</ele>
        <time>2014-11-09T08:40:33.000Z</time>
      </trkpt>
      <trkpt lat="47.49179" lon="6.75991">
        <ele>300.8</ele>
        <time>2014-11-09T08:40:34.000Z</time>
      </trkpt>
      <trkpt lat="47.49182" lon="6.75986">
        <ele>302.1</ele>
        <time>2014-11-09T08:40:35.000Z</time>
      </trkpt>
      <trkpt lat="47.49184" lon="6.75976">
        <ele>302.5</ele>
        <time>2014-11-09T08:40:36.000Z</time>
      </trkpt>
      <trkpt lat="47.49188" lon="6.75971">
        <ele>302.6</ele>
        <time>2014-11-09T08:40:37.000Z</time>
      </trkpt>
      <trkpt lat="47.49191" lon="6.75968">
        <ele>303.6</ele>
        <time>2014-11-09T08:40:38.000Z</time>
      </trkpt>
      <trkpt lat="47.49193" lon="6.75964">
        <ele>304.3</ele>
        <time>2014-11-09T08:40:39.000Z</time>
      </trkpt>
      <trkpt lat="47.49197" lon="6.7596">
        <ele>306</ele>
        <time>2014-11-09T08:40:40.000Z</time>
      </trkpt>
      <trkpt lat="47.49201" lon="6.75956">
        <ele>305.9</ele>
        <time>2014-11-09T08:40:41.000Z</time>
      </trkpt>
      <trkpt lat="47.49204" lon="6.75952">
        <ele>306.3</ele>
        <time>2014-11-09T08:40:42.000Z</time>
      </trkpt>
      <trkpt lat="47.49207" lon="6.75948">
        <ele>306.5</ele>
        <time>2014-11-09T08:40:43.000Z</time>
      </trkpt>
      <trkpt lat="47.49211" lon="6.75942">
        <ele>307.6</ele>
        <time>2014-11-09T08:40:44.000Z</time>
      </trkpt>
      <trkpt lat="47.49214" lon="6.75939">
        <ele>307.9</ele>
        <time>2014-11-09T08:40:45.000Z</time>
      </trkpt>
      <trkpt lat="47.49216" lon="6.75931">
        <ele>307.6</ele>
        <time>2014-11-09T08:40:46.000Z</time>
      </trkpt>
      <trkpt lat="47.49218" lon="6.75927">
        <ele>307.2</ele>
        <time>2014-11-09T08:40:47.000Z</time>
      </trkpt>
      <trkpt lat="47.49222" lon="6.75922">
        <ele>308.9</ele>
        <time>2014-11-09T08:40:48.000Z</time>
      </trkpt>
      <trkpt lat="47.49225" lon="6.75917">
        <ele>310.5</ele>
        <time>2014-11-09T08:40:49.000Z</time>
      </trkpt>
      <trkpt lat="47.49228" lon="6.75912">
        <ele>310.4</ele>
        <time>2014-11-09T08:40:50.000Z</time>
      </trkpt>
      <trkpt lat="47.49231" lon="6.75906">
        <ele>311.1</ele>
        <time>2014-11-09T08:40:51.000Z</time>
      </trkpt>
      <trkpt lat="47.49234" lon="6.759">
        <ele>312.1</ele>
        <time>2014-11-09T08:40:52.000Z</time>
      </trkpt>
      <trkpt lat="47.49238" lon="6.75895">
        <ele>313.2</ele>
        <time>2014-11-09T08:40:53.000Z</time>
      </trkpt>
      <trkpt lat="47.49242" lon="6.75892">
        <ele>314.8</ele>
        <time>2014-11-09T08:40:54.000Z</time>
      </trkpt>
      <trkpt lat="47.49245" lon="6.75887">
        <ele>314.9</ele>
        <time>2014-11-09T08:40:55.000Z</time>
      </trkpt>
      <trkpt lat="47.49255" lon="6.75875">
        <ele>308.3</ele>
        <time>2014-11-09T08:40:58.000Z</time>
      </trkpt>
      <trkpt lat="47.49257" lon="6.75866">
        <ele>307.7</ele>
        <time>2014-11-09T08:40:59.000Z</time>
      </trkpt>
      <trkpt lat="47.49261" lon="6.7586">
        <ele>308.6</ele>
        <time>2014-11-09T08:41:00.000Z</time>
      </trkpt>
      <trkpt lat="47.49264" lon="6.75853">
        <ele>308.9</ele>
        <time>2014-11-09T08:41:01.000Z</time>
      </trkpt>
      <trkpt lat="47.49267" lon="6.75847">
        <ele>309.6</ele>
        <time>2014-11-09T08:41:02.000Z</time>
      </trkpt>
      <trkpt lat="47.49271" lon="6.75842">
        <ele>310.5</ele>
        <time>2014-11-09T08:41:03.000Z</time>
      </trkpt>
      <trkpt lat="47.49274" lon="6.75836">
        <ele>310.8</ele>
        <time>2014-11-09T08:41:04.000Z</time>
      </trkpt>
      <trkpt lat="47.49277" lon="6.75831">
        <ele>311.5</ele>
        <time>2014-11-09T08:41:05.000Z</time>
      </trkpt>
      <trkpt lat="47.49281" lon="6.75825">
        <ele>311.9</ele>
        <time>2014-11-09T08:41:06.000Z</time>
      </trkpt>
      <trkpt lat="47.49284" lon="6.7582">
        <ele>312.2</ele>
        <time>2014-11-09T08:41:07.000Z</time>
      </trkpt>
      <trkpt lat="47.49287" lon="6.75815">
        <ele>312.4</ele>
        <time>2014-11-09T08:41:08.000Z</time>
      </trkpt>
      <trkpt lat="47.49291" lon="6.7581">
        <ele>312.8</ele>
        <time>2014-11-09T08:41:09.000Z</time>
      </trkpt>
      <trkpt lat="47.49295" lon="6.75806">
        <ele>312.7</ele>
        <time>2014-11-09T08:41:10.000Z</time>
      </trkpt>
      <trkpt lat="47.49298" lon="6.758">
        <ele>313</ele>
        <time>2014-11-09T08:41:11.000Z</time>
      </trkpt>
      <trkpt lat="47.49302" lon="6.75795">
        <ele>313.1</ele>
        <time>2014-11-09T08:41:12.000Z</time>
      </trkpt>
      <trkpt lat="47.49306" lon="6.7579">
        <ele>313.1</ele>
        <time>2014-11-09T08:41:13.000Z</time>
      </trkpt>
      <trkpt lat="47.4931" lon="6.75785">
        <ele>313.2</ele>
        <time>2014-11-09T08:41:14.000Z</time>
      </trkpt>
      <trkpt lat="47.49314" lon="6.7578">
        <ele>312.7</ele>
        <time>2014-11-09T08:41:15.000Z</time>
      </trkpt>
      <trkpt lat="47.49318" lon="6.75775">
        <ele>312.8</ele>
        <time>2014-11-09T08:41:16.000Z</time>
      </trkpt>
      <trkpt lat="47.49319" lon="6.75766">
        <ele>311.3</ele>
        <time>2014-11-09T08:41:17.000Z</time>
      </trkpt>
      <trkpt lat="47.49322" lon="6.75763">
        <ele>311.2</ele>
        <time>2014-11-09T08:41:18.000Z</time>
      </trkpt>
      <trkpt lat="47.49329" lon="6.75763">
        <ele>314.7</ele>
        <time>2014-11-09T08:41:19.000Z</time>
      </trkpt>
      <trkpt lat="47.49333" lon="6.75757">
        <ele>315.4</ele>
        <time>2014-11-09T08:41:20.000Z</time>
      </trkpt>
      <trkpt lat="47.49336" lon="6.75754">
        <ele>316.5</ele>
        <time>2014-11-09T08:41:21.000Z</time>
      </trkpt>
      <trkpt lat="47.49338" lon="6.75753">
        <ele>316.3</ele>
        <time>2014-11-09T08:41:22.000Z</time>
      </trkpt>
      <trkpt lat="47.49339" lon="6.75748">
        <ele>315.7</ele>
        <time>2014-11-09T08:41:24.000Z</time>
      </trkpt>
      <trkpt lat="47.4934" lon="6.75746">
        <ele>316</ele>
        <time>2014-11-09T08:41:25.000Z</time>
      </trkpt>
      <trkpt lat="47.49341" lon="6.75745">
        <ele>319.4</ele>
        <time>2014-11-09T08:41:27.000Z</time>
      </trkpt>
      <trkpt lat="47.49344" lon="6.75743">
        <ele>319.2</ele>
        <time>2014-11-09T08:41:28.000Z</time>
      </trkpt>
      <trkpt lat="47.49347" lon="6.75742">
        <ele>319.7</ele>
        <time>2014-11-09T08:41:29.000Z</time>
      </trkpt>
      <trkpt lat="47.4935" lon="6.7574">
        <ele>319.3</ele>
        <time>2014-11-09T08:41:30.000Z</time>
      </trkpt>
      <trkpt lat="47.49353" lon="6.75738">
        <ele>320.1</ele>
        <time>2014-11-09T08:41:31.000Z</time>
      </trkpt>
      <trkpt lat="47.49356" lon="6.75736">
        <ele>319.8</ele>
        <time>2014-11-09T08:41:32.000Z</time>
      </trkpt>
      <trkpt lat="47.49359" lon="6.75734">
        <ele>320.3</ele>
        <time>2014-11-09T08:41:33.000Z</time>
      </trkpt>
      <trkpt lat="47.49363" lon="6.75731">
        <ele>319.9</ele>
        <time>2014-11-09T08:41:34.000Z</time>
      </trkpt>
      <trkpt lat="47.49367" lon="6.7573">
        <ele>319.5</ele>
        <time>2014-11-09T08:41:35.000Z</time>
      </trkpt>
      <trkpt lat="47.49371" lon="6.75728">
        <ele>319.4</ele>
        <time>2014-11-09T08:41:36.000Z</time>
      </trkpt>
      <trkpt lat="47.49378" lon="6.7572">
        <ele>320.3</ele>
        <time>2014-11-09T08:41:37.000Z</time>
      </trkpt>
      <trkpt lat="47.49383" lon="6.75717">
        <ele>320.6</ele>
        <time>2014-11-09T08:41:38.000Z</time>
      </trkpt>
      <trkpt lat="47.49387" lon="6.75715">
        <ele>321.4</ele>
        <time>2014-11-09T08:41:39.000Z</time>
      </trkpt>
      <trkpt lat="47.49392" lon="6.75711">
        <ele>321</ele>
        <time>2014-11-09T08:41:40.000Z</time>
      </trkpt>
      <trkpt lat="47.49396" lon="6.75708">
        <ele>320.8</ele>
        <time>2014-11-09T08:41:41.000Z</time>
      </trkpt>
      <trkpt lat="47.49399" lon="6.75704">
        <ele>322.5</ele>
        <time>2014-11-09T08:41:42.000Z</time>
      </trkpt>
      <trkpt lat="47.49403" lon="6.75701">
        <ele>323.8</ele>
        <time>2014-11-09T08:41:43.000Z</time>
      </trkpt>
      <trkpt lat="47.49406" lon="6.75699">
        <ele>324</ele>
        <time>2014-11-09T08:41:44.000Z</time>
      </trkpt>
      <trkpt lat="47.49411" lon="6.75696">
        <ele>323.6</ele>
        <time>2014-11-09T08:41:45.000Z</time>
      </trkpt>
      <trkpt lat="47.49416" lon="6.75695">
        <ele>322.1</ele>
        <time>2014-11-09T08:41:46.000Z</time>
      </trkpt>
      <trkpt lat="47.49418" lon="6.75698">
        <ele>324.4</ele>
        <time>2014-11-09T08:41:47.000Z</time>
      </trkpt>
      <trkpt lat="47.4942" lon="6.75701">
        <ele>325.1</ele>
        <time>2014-11-09T08:41:48.000Z</time>
      </trkpt>
      <trkpt lat="47.49421" lon="6.75706">
        <ele>324.4</ele>
        <time>2014-11-09T08:41:49.000Z</time>
      </trkpt>
      <trkpt lat="47.49423" lon="6.75709">
        <ele>323.4</ele>
        <time>2014-11-09T08:41:50.000Z</time>
      </trkpt>
      <trkpt lat="47.49424" lon="6.75714">
        <ele>322.8</ele>
        <time>2014-11-09T08:41:52.000Z</time>
      </trkpt>
      <trkpt lat="47.49428" lon="6.75715">
        <ele>321.7</ele>
        <time>2014-11-09T08:41:53.000Z</time>
      </trkpt>
      <trkpt lat="47.49432" lon="6.75714">
        <ele>321.2</ele>
        <time>2014-11-09T08:41:54.000Z</time>
      </trkpt>
      <trkpt lat="47.49436" lon="6.75713">
        <ele>320.4</ele>
        <time>2014-11-09T08:41:55.000Z</time>
      </trkpt>
      <trkpt lat="47.49447" lon="6.75706">
        <ele>315.6</ele>
        <time>2014-11-09T08:41:58.000Z</time>
      </trkpt>
      <trkpt lat="47.49451" lon="6.75704">
        <ele>315.6</ele>
        <time>2014-11-09T08:41:59.000Z</time>
      </trkpt>
      <trkpt lat="47.49453" lon="6.75705">
        <ele>315</ele>
        <time>2014-11-09T08:42:00.000Z</time>
      </trkpt>
      <trkpt lat="47.49455" lon="6.75708">
        <ele>314.9</ele>
        <time>2014-11-09T08:42:01.000Z</time>
      </trkpt>
      <trkpt lat="47.49455" lon="6.75712">
        <ele>314</ele>
        <time>2014-11-09T08:42:02.000Z</time>
      </trkpt>
      <trkpt lat="47.49456" lon="6.75718">
        <ele>313.3</ele>
        <time>2014-11-09T08:42:03.000Z</time>
      </trkpt>
      <trkpt lat="47.49457" lon="6.75725">
        <ele>313.1</ele>
        <time>2014-11-09T08:42:04.000Z</time>
      </trkpt>
      <trkpt lat="47.49458" lon="6.75731">
        <ele>312.6</ele>
        <time>2014-11-09T08:42:05.000Z</time>
      </trkpt>
      <trkpt lat="47.4946" lon="6.75737">
        <ele>312.7</ele>
        <time>2014-11-09T08:42:06.000Z</time>
      </trkpt>
      <trkpt lat="47.49462" lon="6.75742">
        <ele>311.7</ele>
        <time>2014-11-09T08:42:07.000Z</time>
      </trkpt>
      <trkpt lat="47.49464" lon="6.75748">
        <ele>312.2</ele>
        <time>2014-11-09T08:42:08.000Z</time>
      </trkpt>
      <trkpt lat="47.49467" lon="6.75752">
        <ele>312.7</ele>
        <time>2014-11-09T08:42:09.000Z</time>
      </trkpt>
      <trkpt lat="47.49471" lon="6.75755">
        <ele>312.5</ele>
        <time>2014-11-09T08:42:10.000Z</time>
      </trkpt>
      <trkpt lat="47.49475" lon="6.75756">
        <ele>312.3</ele>
        <time>2014-11-09T08:42:11.000Z</time>
      </trkpt>
      <trkpt lat="47.49479" lon="6.75755">
        <ele>312.1</ele>
        <time>2014-11-09T08:42:12.000Z</time>
      </trkpt>
      <trkpt lat="47.49484" lon="6.75753">
        <ele>312.4</ele>
        <time>2014-11-09T08:42:13.000Z</time>
      </trkpt>
      <trkpt lat="47.49488" lon="6.7575">
        <ele>313</ele>
        <time>2014-11-09T08:42:14.000Z</time>
      </trkpt>
      <trkpt lat="47.49492" lon="6.75747">
        <ele>312.8</ele>
        <time>2014-11-09T08:42:15.000Z</time>
      </trkpt>
      <trkpt lat="47.49496" lon="6.75744">
        <ele>312.1</ele>
        <time>2014-11-09T08:42:16.000Z</time>
      </trkpt>
      <trkpt lat="47.495" lon="6.75741">
        <ele>311.5</ele>
        <time>2014-11-09T08:42:17.000Z</time>
      </trkpt>
      <trkpt lat="47.49504" lon="6.75738">
        <ele>309.4</ele>
        <time>2014-11-09T08:42:18.000Z</time>
      </trkpt>
      <trkpt lat="47.49509" lon="6.75735">
        <ele>309.3</ele>
        <time>2014-11-09T08:42:19.000Z</time>
      </trkpt>
      <trkpt lat="47.49513" lon="6.75732">
        <ele>309.7</ele>
        <time>2014-11-09T08:42:20.000Z</time>
      </trkpt>
      <trkpt lat="47.49517" lon="6.75729">
        <ele>309.7</ele>
        <time>2014-11-09T08:42:21.000Z</time>
      </trkpt>
      <trkpt lat="47.49521" lon="6.75725">
        <ele>309.6</ele>
        <time>2014-11-09T08:42:22.000Z</time>
      </trkpt>
      <trkpt lat="47.49525" lon="6.75722">
        <ele>309.2</ele>
        <time>2014-11-09T08:42:23.000Z</time>
      </trkpt>
      <trkpt lat="47.49529" lon="6.75715">
        <ele>309</ele>
        <time>2014-11-09T08:42:24.000Z</time>
      </trkpt>
      <trkpt lat="47.49532" lon="6.7571">
        <ele>309.5</ele>
        <time>2014-11-09T08:42:25.000Z</time>
      </trkpt>
      <trkpt lat="47.49536" lon="6.75706">
        <ele>309.7</ele>
        <time>2014-11-09T08:42:26.000Z</time>
      </trkpt>
      <trkpt lat="47.49539" lon="6.75702">
        <ele>310.1</ele>
        <time>2014-11-09T08:42:27.000Z</time>
      </trkpt>
      <trkpt lat="47.49542" lon="6.75697">
        <ele>310.2</ele>
        <time>2014-11-09T08:42:28.000Z</time>
      </trkpt>
      <trkpt lat="47.49546" lon="6.75692">
        <ele>309.7</ele>
        <time>2014-11-09T08:42:29.000Z</time>
      </trkpt>
      <trkpt lat="47.49549" lon="6.75687">
        <ele>309.2</ele>
        <time>2014-11-09T08:42:30.000Z</time>
      </trkpt>
      <trkpt lat="47.49552" lon="6.75682">
        <ele>309.2</ele>
        <time>2014-11-09T08:42:31.000Z</time>
      </trkpt>
      <trkpt lat="47.49555" lon="6.75678">
        <ele>309.2</ele>
        <time>2014-11-09T08:42:32.000Z</time>
      </trkpt>
      <trkpt lat="47.4956" lon="6.75677">
        <ele>310.2</ele>
        <time>2014-11-09T08:42:33.000Z</time>
      </trkpt>
      <trkpt lat="47.49564" lon="6.75679">
        <ele>311.5</ele>
        <time>2014-11-09T08:42:34.000Z</time>
      </trkpt>
      <trkpt lat="47.49567" lon="6.75683">
        <ele>313.5</ele>
        <time>2014-11-09T08:42:35.000Z</time>
      </trkpt>
      <trkpt lat="47.4957" lon="6.75686">
        <ele>313.8</ele>
        <time>2014-11-09T08:42:36.000Z</time>
      </trkpt>
      <trkpt lat="47.49572" lon="6.75691">
        <ele>314.1</ele>
        <time>2014-11-09T08:42:37.000Z</time>
      </trkpt>
      <trkpt lat="47.49574" lon="6.75693">
        <ele>313.6</ele>
        <time>2014-11-09T08:42:38.000Z</time>
      </trkpt>
      <trkpt lat="47.49576" lon="6.75696">
        <ele>314.5</ele>
        <time>2014-11-09T08:42:39.000Z</time>
      </trkpt>
      <trkpt lat="47.49578" lon="6.75699">
        <ele>314.9</ele>
        <time>2014-11-09T08:42:40.000Z</time>
      </trkpt>
      <trkpt lat="47.4958" lon="6.75701">
        <ele>314.2</ele>
        <time>2014-11-09T08:42:41.000Z</time>
      </trkpt>
      <trkpt lat="47.49582" lon="6.75703">
        <ele>314.7</ele>
        <time>2014-11-09T08:42:42.000Z</time>
      </trkpt>
      <trkpt lat="47.49585" lon="6.75705">
        <ele>316.7</ele>
        <time>2014-11-09T08:42:43.000Z</time>
      </trkpt>
      <trkpt lat="47.49588" lon="6.75705">
        <ele>316.1</ele>
        <time>2014-11-09T08:42:44.000Z</time>
      </trkpt>
      <trkpt lat="47.49592" lon="6.75704">
        <ele>316</ele>
        <time>2014-11-09T08:42:45.000Z</time>
      </trkpt>
      <trkpt lat="47.49598" lon="6.75696">
        <ele>314.9</ele>
        <time>2014-11-09T08:42:46.000Z</time>
      </trkpt>
      <trkpt lat="47.49602" lon="6.75693">
        <ele>315.5</ele>
        <time>2014-11-09T08:42:47.000Z</time>
      </trkpt>
      <trkpt lat="47.49606" lon="6.75688">
        <ele>315.5</ele>
        <time>2014-11-09T08:42:48.000Z</time>
      </trkpt>
      <trkpt lat="47.49611" lon="6.75685">
        <ele>315.2</ele>
        <time>2014-11-09T08:42:49.000Z</time>
      </trkpt>
      <trkpt lat="47.49615" lon="6.7568">
        <ele>315.2</ele>
        <time>2014-11-09T08:42:50.000Z</time>
      </trkpt>
      <trkpt lat="47.49619" lon="6.75678">
        <ele>317.4</ele>
        <time>2014-11-09T08:42:51.000Z</time>
      </trkpt>
      <trkpt lat="47.49623" lon="6.75674">
        <ele>317.7</ele>
        <time>2014-11-09T08:42:52.000Z</time>
      </trkpt>
      <trkpt lat="47.49627" lon="6.75672">
        <ele>318.9</ele>
        <time>2014-11-09T08:42:53.000Z</time>
      </trkpt>
      <trkpt lat="47.49631" lon="6.75669">
        <ele>319.7</ele>
        <time>2014-11-09T08:42:54.000Z</time>
      </trkpt>
      <trkpt lat="47.49636" lon="6.75667">
        <ele>320.1</ele>
        <time>2014-11-09T08:42:55.000Z</time>
      </trkpt>
      <trkpt lat="47.4964" lon="6.75664">
        <ele>320.2</ele>
        <time>2014-11-09T08:42:56.000Z</time>
      </trkpt>
      <trkpt lat="47.49676" lon="6.7565">
        <ele>316.5</ele>
        <time>2014-11-09T08:43:04.000Z</time>
      </trkpt>
      <trkpt lat="47.49682" lon="6.75648">
        <ele>317.1</ele>
        <time>2014-11-09T08:43:05.000Z</time>
      </trkpt>
      <trkpt lat="47.49687" lon="6.75646">
        <ele>315.8</ele>
        <time>2014-11-09T08:43:06.000Z</time>
      </trkpt>
      <trkpt lat="47.49692" lon="6.75645">
        <ele>315.5</ele>
        <time>2014-11-09T08:43:07.000Z</time>
      </trkpt>
      <trkpt lat="47.49697" lon="6.75643">
        <ele>315.6</ele>
        <time>2014-11-09T08:43:08.000Z</time>
      </trkpt>
      <trkpt lat="47.49701" lon="6.75641">
        <ele>315.3</ele>
        <time>2014-11-09T08:43:09.000Z</time>
      </trkpt>
      <trkpt lat="47.49706" lon="6.75639">
        <ele>315.7</ele>
        <time>2014-11-09T08:43:10.000Z</time>
      </trkpt>
      <trkpt lat="47.4971" lon="6.75637">
        <ele>315.4</ele>
        <time>2014-11-09T08:43:11.000Z</time>
      </trkpt>
      <trkpt lat="47.49714" lon="6.75635">
        <ele>314.9</ele>
        <time>2014-11-09T08:43:12.000Z</time>
      </trkpt>
      <trkpt lat="47.49717" lon="6.75633">
        <ele>314.6</ele>
        <time>2014-11-09T08:43:13.000Z</time>
      </trkpt>
      <trkpt lat="47.4972" lon="6.75631">
        <ele>315</ele>
        <time>2014-11-09T08:43:14.000Z</time>
      </trkpt>
      <trkpt lat="47.49723" lon="6.75627">
        <ele>320.3</ele>
        <time>2014-11-09T08:43:15.000Z</time>
      </trkpt>
      <trkpt lat="47.49727" lon="6.75625">
        <ele>321.8</ele>
        <time>2014-11-09T08:43:16.000Z</time>
      </trkpt>
      <trkpt lat="47.49731" lon="6.75623">
        <ele>325.2</ele>
        <time>2014-11-09T08:43:17.000Z</time>
      </trkpt>
      <trkpt lat="47.49736" lon="6.75619">
        <ele>327.2</ele>
        <time>2014-11-09T08:43:18.000Z</time>
      </trkpt>
      <trkpt lat="47.4974" lon="6.75615">
        <ele>328.2</ele>
        <time>2014-11-09T08:43:19.000Z</time>
      </trkpt>
      <trkpt lat="47.49744" lon="6.75614">
        <ele>328.5</ele>
        <time>2014-11-09T08:43:20.000Z</time>
      </trkpt>
      <trkpt lat="47.49746" lon="6.7561">
        <ele>332.6</ele>
        <time>2014-11-09T08:43:21.000Z</time>
      </trkpt>
      <trkpt lat="47.4975" lon="6.75606">
        <ele>333.4</ele>
        <time>2014-11-09T08:43:22.000Z</time>
      </trkpt>
      <trkpt lat="47.49754" lon="6.75602">
        <ele>333.5</ele>
        <time>2014-11-09T08:43:23.000Z</time>
      </trkpt>
      <trkpt lat="47.49758" lon="6.75598">
        <ele>333.7</ele>
        <time>2014-11-09T08:43:24.000Z</time>
      </trkpt>
      <trkpt lat="47.49762" lon="6.75593">
        <ele>333</ele>
        <time>2014-11-09T08:43:25.000Z</time>
      </trkpt>
      <trkpt lat="47.49767" lon="6.75588">
        <ele>334.8</ele>
        <time>2014-11-09T08:43:26.000Z</time>
      </trkpt>
      <trkpt lat="47.49771" lon="6.75584">
        <ele>334.2</ele>
        <time>2014-11-09T08:43:27.000Z</time>
      </trkpt>
      <trkpt lat="47.49775" lon="6.75578">
        <ele>334</ele>
        <time>2014-11-09T08:43:28.000Z</time>
      </trkpt>
      <trkpt lat="47.4978" lon="6.75573">
        <ele>334.7</ele>
        <time>2014-11-09T08:43:29.000Z</time>
      </trkpt>
      <trkpt lat="47.49784" lon="6.75569">
        <ele>334.1</ele>
        <time>2014-11-09T08:43:30.000Z</time>
      </trkpt>
      <trkpt lat="47.49788" lon="6.75565">
        <ele>333.1</ele>
        <time>2014-11-09T08:43:31.000Z</time>
      </trkpt>
      <trkpt lat="47.4979" lon="6.75557">
        <ele>333.5</ele>
        <time>2014-11-09T08:43:32.000Z</time>
      </trkpt>
      <trkpt lat="47.49794" lon="6.75551">
        <ele>333</ele>
        <time>2014-11-09T08:43:33.000Z</time>
      </trkpt>
      <trkpt lat="47.49798" lon="6.75547">
        <ele>332.3</ele>
        <time>2014-11-09T08:43:34.000Z</time>
      </trkpt>
      <trkpt lat="47.49803" lon="6.75543">
        <ele>332.5</ele>
        <time>2014-11-09T08:43:35.000Z</time>
      </trkpt>
      <trkpt lat="47.49806" lon="6.75539">
        <ele>335.1</ele>
        <time>2014-11-09T08:43:36.000Z</time>
      </trkpt>
      <trkpt lat="47.4981" lon="6.75535">
        <ele>335.8</ele>
        <time>2014-11-09T08:43:37.000Z</time>
      </trkpt>
      <trkpt lat="47.49813" lon="6.75531">
        <ele>336.5</ele>
        <time>2014-11-09T08:43:38.000Z</time>
      </trkpt>
      <trkpt lat="47.49818" lon="6.75525">
        <ele>336.9</ele>
        <time>2014-11-09T08:43:39.000Z</time>
      </trkpt>
      <trkpt lat="47.49822" lon="6.75519">
        <ele>336.2</ele>
        <time>2014-11-09T08:43:40.000Z</time>
      </trkpt>
      <trkpt lat="47.49826" lon="6.75514">
        <ele>336.3</ele>
        <time>2014-11-09T08:43:41.000Z</time>
      </trkpt>
      <trkpt lat="47.49829" lon="6.75509">
        <ele>336.8</ele>
        <time>2014-11-09T08:43:42.000Z</time>
      </trkpt>
      <trkpt lat="47.49833" lon="6.75504">
        <ele>336.3</ele>
        <time>2014-11-09T08:43:43.000Z</time>
      </trkpt>
      <trkpt lat="47.49837" lon="6.75499">
        <ele>335.9</ele>
        <time>2014-11-09T08:43:44.000Z</time>
      </trkpt>
      <trkpt lat="47.49839" lon="6.75495">
        <ele>336.8</ele>
        <time>2014-11-09T08:43:45.000Z</time>
      </trkpt>
      <trkpt lat="47.49841" lon="6.7549">
        <ele>338.4</ele>
        <time>2014-11-09T08:43:46.000Z</time>
      </trkpt>
      <trkpt lat="47.49845" lon="6.75485">
        <ele>339.7</ele>
        <time>2014-11-09T08:43:47.000Z</time>
      </trkpt>
      <trkpt lat="47.49848" lon="6.7548">
        <ele>339.3</ele>
        <time>2014-11-09T08:43:48.000Z</time>
      </trkpt>
      <trkpt lat="47.49852" lon="6.75475">
        <ele>338.6</ele>
        <time>2014-11-09T08:43:49.000Z</time>
      </trkpt>
      <trkpt lat="47.49855" lon="6.75469">
        <ele>338</ele>
        <time>2014-11-09T08:43:50.000Z</time>
      </trkpt>
      <trkpt lat="47.49859" lon="6.75464">
        <ele>337</ele>
        <time>2014-11-09T08:43:51.000Z</time>
      </trkpt>
      <trkpt lat="47.49862" lon="6.7546">
        <ele>336.9</ele>
        <time>2014-11-09T08:43:52.000Z</time>
      </trkpt>
      <trkpt lat="47.49866" lon="6.75454">
        <ele>336.5</ele>
        <time>2014-11-09T08:43:53.000Z</time>
      </trkpt>
      <trkpt lat="47.49869" lon="6.75449">
        <ele>335.1</ele>
        <time>2014-11-09T08:43:54.000Z</time>
      </trkpt>
      <trkpt lat="47.49873" lon="6.75444">
        <ele>334</ele>
        <time>2014-11-09T08:43:55.000Z</time>
      </trkpt>
      <trkpt lat="47.49884" lon="6.75432">
        <ele>326.3</ele>
        <time>2014-11-09T08:43:58.000Z</time>
      </trkpt>
      <trkpt lat="47.49888" lon="6.75429">
        <ele>326.5</ele>
        <time>2014-11-09T08:43:59.000Z</time>
      </trkpt>
      <trkpt lat="47.49896" lon="6.75431">
        <ele>328.3</ele>
        <time>2014-11-09T08:44:00.000Z</time>
      </trkpt>
      <trkpt lat="47.499" lon="6.75428">
        <ele>326.2</ele>
        <time>2014-11-09T08:44:01.000Z</time>
      </trkpt>
      <trkpt lat="47.49905" lon="6.75428">
        <ele>325.9</ele>
        <time>2014-11-09T08:44:02.000Z</time>
      </trkpt>
      <trkpt lat="47.4991" lon="6.75428">
        <ele>326.1</ele>
        <time>2014-11-09T08:44:03.000Z</time>
      </trkpt>
      <trkpt lat="47.49914" lon="6.75428">
        <ele>325.3</ele>
        <time>2014-11-09T08:44:04.000Z</time>
      </trkpt>
      <trkpt lat="47.49919" lon="6.75428">
        <ele>326.5</ele>
        <time>2014-11-09T08:44:05.000Z</time>
      </trkpt>
      <trkpt lat="47.49923" lon="6.75428">
        <ele>326.9</ele>
        <time>2014-11-09T08:44:06.000Z</time>
      </trkpt>
      <trkpt lat="47.49927" lon="6.75427">
        <ele>327.3</ele>
        <time>2014-11-09T08:44:07.000Z</time>
      </trkpt>
      <trkpt lat="47.49931" lon="6.75428">
        <ele>327.6</ele>
        <time>2014-11-09T08:44:08.000Z</time>
      </trkpt>
      <trkpt lat="47.49934" lon="6.75427">
        <ele>327.6</ele>
        <time>2014-11-09T08:44:09.000Z</time>
      </trkpt>
      <trkpt lat="47.49938" lon="6.75427">
        <ele>327.5</ele>
        <time>2014-11-09T08:44:10.000Z</time>
      </trkpt>
      <trkpt lat="47.49941" lon="6.75427">
        <ele>328</ele>
        <time>2014-11-09T08:44:11.000Z</time>
      </trkpt>
      <trkpt lat="47.49944" lon="6.75427">
        <ele>328.1</ele>
        <time>2014-11-09T08:44:12.000Z</time>
      </trkpt>
      <trkpt lat="47.49948" lon="6.75426">
        <ele>326</ele>
        <time>2014-11-09T08:44:13.000Z</time>
      </trkpt>
      <trkpt lat="47.49952" lon="6.75425">
        <ele>324.6</ele>
        <time>2014-11-09T08:44:14.000Z</time>
      </trkpt>
      <trkpt lat="47.49956" lon="6.75424">
        <ele>324.3</ele>
        <time>2014-11-09T08:44:15.000Z</time>
      </trkpt>
      <trkpt lat="47.4996" lon="6.75422">
        <ele>325.1</ele>
        <time>2014-11-09T08:44:15.998Z</time>
      </trkpt>
      <trkpt lat="47.4997" lon="6.75416">
        <ele>324.5</ele>
        <time>2014-11-09T08:44:17.000Z</time>
      </trkpt>
      <trkpt lat="47.49974" lon="6.75411">
        <ele>324.6</ele>
        <time>2014-11-09T08:44:18.000Z</time>
      </trkpt>
      <trkpt lat="47.49978" lon="6.75406">
        <ele>324.8</ele>
        <time>2014-11-09T08:44:19.000Z</time>
      </trkpt>
      <trkpt lat="47.49983" lon="6.75401">
        <ele>324.6</ele>
        <time>2014-11-09T08:44:20.000Z</time>
      </trkpt>
      <trkpt lat="47.49987" lon="6.75395">
        <ele>325.2</ele>
        <time>2014-11-09T08:44:21.000Z</time>
      </trkpt>
      <trkpt lat="47.49989" lon="6.75387">
        <ele>325.7</ele>
        <time>2014-11-09T08:44:22.000Z</time>
      </trkpt>
      <trkpt lat="47.49992" lon="6.7538">
        <ele>325.1</ele>
        <time>2014-11-09T08:44:23.000Z</time>
      </trkpt>
      <trkpt lat="47.49994" lon="6.7537">
        <ele>324.8</ele>
        <time>2014-11-09T08:44:24.000Z</time>
      </trkpt>
      <trkpt lat="47.49995" lon="6.75361">
        <ele>324.3</ele>
        <time>2014-11-09T08:44:25.000Z</time>
      </trkpt>
      <trkpt lat="47.49996" lon="6.75352">
        <ele>323.5</ele>
        <time>2014-11-09T08:44:26.000Z</time>
      </trkpt>
      <trkpt lat="47.49996" lon="6.75343">
        <ele>323.3</ele>
        <time>2014-11-09T08:44:27.000Z</time>
      </trkpt>
      <trkpt lat="47.49996" lon="6.75334">
        <ele>322.9</ele>
        <time>2014-11-09T08:44:28.000Z</time>
      </trkpt>
      <trkpt lat="47.49996" lon="6.75322">
        <ele>320.4</ele>
        <time>2014-11-09T08:44:29.000Z</time>
      </trkpt>
      <trkpt lat="47.49996" lon="6.75314">
        <ele>320</ele>
        <time>2014-11-09T08:44:30.000Z</time>
      </trkpt>
      <trkpt lat="47.49996" lon="6.75305">
        <ele>319.8</ele>
        <time>2014-11-09T08:44:31.000Z</time>
      </trkpt>
      <trkpt lat="47.49996" lon="6.75294">
        <ele>318.4</ele>
        <time>2014-11-09T08:44:32.000Z</time>
      </trkpt>
      <trkpt lat="47.49996" lon="6.75285">
        <ele>317.8</ele>
        <time>2014-11-09T08:44:33.000Z</time>
      </trkpt>
      <trkpt lat="47.49996" lon="6.75276">
        <ele>317.4</ele>
        <time>2014-11-09T08:44:34.000Z</time>
      </trkpt>
      <trkpt lat="47.49997" lon="6.75267">
        <ele>317</ele>
        <time>2014-11-09T08:44:35.000Z</time>
      </trkpt>
      <trkpt lat="47.49999" lon="6.75258">
        <ele>316.6</ele>
        <time>2014-11-09T08:44:36.000Z</time>
      </trkpt>
      <trkpt lat="47.50001" lon="6.75249">
        <ele>316.5</ele>
        <time>2014-11-09T08:44:37.000Z</time>
      </trkpt>
      <trkpt lat="47.50005" lon="6.75241">
        <ele>316.1</ele>
        <time>2014-11-09T08:44:38.000Z</time>
      </trkpt>
      <trkpt lat="47.50009" lon="6.75235">
        <ele>315.5</ele>
        <time>2014-11-09T08:44:39.000Z</time>
      </trkpt>
      <trkpt lat="47.50014" lon="6.75227">
        <ele>316.1</ele>
        <time>2014-11-09T08:44:40.000Z</time>
      </trkpt>
      <trkpt lat="47.50019" lon="6.75222">
        <ele>316.7</ele>
        <time>2014-11-09T08:44:41.000Z</time>
      </trkpt>
      <trkpt lat="47.50025" lon="6.75217">
        <ele>316.6</ele>
        <time>2014-11-09T08:44:42.000Z</time>
      </trkpt>
      <trkpt lat="47.50031" lon="6.75214">
        <ele>316.5</ele>
        <time>2014-11-09T08:44:43.000Z</time>
      </trkpt>
      <trkpt lat="47.50037" lon="6.75213">
        <ele>316.8</ele>
        <time>2014-11-09T08:44:44.000Z</time>
      </trkpt>
      <trkpt lat="47.50042" lon="6.75211">
        <ele>316.3</ele>
        <time>2014-11-09T08:44:45.000Z</time>
      </trkpt>
      <trkpt lat="47.50048" lon="6.75211">
        <ele>316.6</ele>
        <time>2014-11-09T08:44:46.000Z</time>
      </trkpt>
      <trkpt lat="47.50053" lon="6.7521">
        <ele>316.5</ele>
        <time>2014-11-09T08:44:47.000Z</time>
      </trkpt>
      <trkpt lat="47.50059" lon="6.75209">
        <ele>316.4</ele>
        <time>2014-11-09T08:44:48.000Z</time>
      </trkpt>
      <trkpt lat="47.50063" lon="6.75207">
        <ele>316.7</ele>
        <time>2014-11-09T08:44:49.000Z</time>
      </trkpt>
      <trkpt lat="47.50068" lon="6.75206">
        <ele>316.7</ele>
        <time>2014-11-09T08:44:50.000Z</time>
      </trkpt>
      <trkpt lat="47.50074" lon="6.75204">
        <ele>316.5</ele>
        <time>2014-11-09T08:44:51.000Z</time>
      </trkpt>
      <trkpt lat="47.50078" lon="6.75201">
        <ele>315.8</ele>
        <time>2014-11-09T08:44:52.000Z</time>
      </trkpt>
      <trkpt lat="47.50084" lon="6.75198">
        <ele>316.2</ele>
        <time>2014-11-09T08:44:53.000Z</time>
      </trkpt>
      <trkpt lat="47.50088" lon="6.75195">
        <ele>316.3</ele>
        <time>2014-11-09T08:44:54.000Z</time>
      </trkpt>
      <trkpt lat="47.50094" lon="6.75192">
        <ele>317.4</ele>
        <time>2014-11-09T08:44:55.000Z</time>
      </trkpt>
      <trkpt lat="47.50098" lon="6.75189">
        <ele>316.9</ele>
        <time>2014-11-09T08:44:56.000Z</time>
      </trkpt>
      <trkpt lat="47.50132" lon="6.75163">
        <ele>311.5</ele>
        <time>2014-11-09T08:45:03.434Z</time>
      </trkpt>
      <trkpt lat="47.50138" lon="6.75157">
        <ele>311.4</ele>
        <time>2014-11-09T08:45:05.000Z</time>
      </trkpt>
      <trkpt lat="47.50158" lon="6.75144">
        <ele>311.6</ele>
        <time>2014-11-09T08:45:09.000Z</time>
      </trkpt>
      <trkpt lat="47.50163" lon="6.75139">
        <ele>311.8</ele>
        <time>2014-11-09T08:45:10.000Z</time>
      </trkpt>
      <trkpt lat="47.50166" lon="6.75136">
        <ele>312.7</ele>
        <time>2014-11-09T08:45:11.000Z</time>
      </trkpt>
      <trkpt lat="47.50167" lon="6.75133">
        <ele>312.4</ele>
        <time>2014-11-09T08:45:12.000Z</time>
      </trkpt>
      <trkpt lat="47.50171" lon="6.75128">
        <ele>312.9</ele>
        <time>2014-11-09T08:45:13.000Z</time>
      </trkpt>
      <trkpt lat="47.50176" lon="6.75124">
        <ele>313</ele>
        <time>2014-11-09T08:45:14.000Z</time>
      </trkpt>
      <trkpt lat="47.50179" lon="6.75118">
        <ele>313.3</ele>
        <time>2014-11-09T08:45:15.000Z</time>
      </trkpt>
      <trkpt lat="47.5018" lon="6.75112">
        <ele>313.7</ele>
        <time>2014-11-09T08:45:16.000Z</time>
      </trkpt>
      <trkpt lat="47.5018" lon="6.75106">
        <ele>313.9</ele>
        <time>2014-11-09T08:45:17.000Z</time>
      </trkpt>
      <trkpt lat="47.5018" lon="6.751">
        <ele>314.1</ele>
        <time>2014-11-09T08:45:18.000Z</time>
      </trkpt>
      <trkpt lat="47.50181" lon="6.75094">
        <ele>312.7</ele>
        <time>2014-11-09T08:45:19.000Z</time>
      </trkpt>
      <trkpt lat="47.50181" lon="6.75088">
        <ele>311.9</ele>
        <time>2014-11-09T08:45:20.000Z</time>
      </trkpt>
      <trkpt lat="47.50181" lon="6.75083">
        <ele>313.7</ele>
        <time>2014-11-09T08:45:21.000Z</time>
      </trkpt>
      <trkpt lat="47.50181" lon="6.75077">
        <ele>314.4</ele>
        <time>2014-11-09T08:45:22.000Z</time>
      </trkpt>
      <trkpt lat="47.50181" lon="6.75072">
        <ele>315.6</ele>
        <time>2014-11-09T08:45:23.000Z</time>
      </trkpt>
      <trkpt lat="47.50182" lon="6.75067">
        <ele>316.3</ele>
        <time>2014-11-09T08:45:24.000Z</time>
      </trkpt>
      <trkpt lat="47.50182" lon="6.75062">
        <ele>316.1</ele>
        <time>2014-11-09T08:45:25.000Z</time>
      </trkpt>
      <trkpt lat="47.50182" lon="6.75056">
        <ele>316.8</ele>
        <time>2014-11-09T08:45:26.000Z</time>
      </trkpt>
      <trkpt lat="47.50183" lon="6.75051">
        <ele>316.3</ele>
        <time>2014-11-09T08:45:27.000Z</time>
      </trkpt>
      <trkpt lat="47.50183" lon="6.75046">
        <ele>318.4</ele>
        <time>2014-11-09T08:45:28.000Z</time>
      </trkpt>
      <trkpt lat="47.50184" lon="6.75041">
        <ele>320</ele>
        <time>2014-11-09T08:45:29.000Z</time>
      </trkpt>
      <trkpt lat="47.50184" lon="6.75036">
        <ele>319.9</ele>
        <time>2014-11-09T08:45:30.000Z</time>
      </trkpt>
      <trkpt lat="47.50185" lon="6.75031">
        <ele>320.3</ele>
        <time>2014-11-09T08:45:31.000Z</time>
      </trkpt>
      <trkpt lat="47.50185" lon="6.75026">
        <ele>320.8</ele>
        <time>2014-11-09T08:45:32.000Z</time>
      </trkpt>
      <trkpt lat="47.50186" lon="6.75021">
        <ele>321.2</ele>
        <time>2014-11-09T08:45:33.000Z</time>
      </trkpt>
      <trkpt lat="47.50187" lon="6.75016">
        <ele>321.6</ele>
        <time>2014-11-09T08:45:34.000Z</time>
      </trkpt>
      <trkpt lat="47.50188" lon="6.75012">
        <ele>321.9</ele>
        <time>2014-11-09T08:45:35.000Z</time>
      </trkpt>
      <trkpt lat="47.50189" lon="6.75007">
        <ele>322.5</ele>
        <time>2014-11-09T08:45:36.000Z</time>
      </trkpt>
      <trkpt lat="47.50191" lon="6.75003">
        <ele>322.8</ele>
        <time>2014-11-09T08:45:37.000Z</time>
      </trkpt>
      <trkpt lat="47.50192" lon="6.74998">
        <ele>325</ele>
        <time>2014-11-09T08:45:38.000Z</time>
      </trkpt>
      <trkpt lat="47.50194" lon="6.74994">
        <ele>325.7</ele>
        <time>2014-11-09T08:45:39.000Z</time>
      </trkpt>
      <trkpt lat="47.50196" lon="6.7499">
        <ele>323.4</ele>
        <time>2014-11-09T08:45:40.000Z</time>
      </trkpt>
      <trkpt lat="47.50198" lon="6.74986">
        <ele>322.9</ele>
        <time>2014-11-09T08:45:41.000Z</time>
      </trkpt>
      <trkpt lat="47.50201" lon="6.74982">
        <ele>323.9</ele>
        <time>2014-11-09T08:45:42.000Z</time>
      </trkpt>
      <trkpt lat="47.50204" lon="6.7498">
        <ele>324.7</ele>
        <time>2014-11-09T08:45:43.000Z</time>
      </trkpt>
      <trkpt lat="47.50206" lon="6.74978">
        <ele>325</ele>
        <time>2014-11-09T08:45:44.000Z</time>
      </trkpt>
      <trkpt lat="47.50209" lon="6.74976">
        <ele>325.4</ele>
        <time>2014-11-09T08:45:45.000Z</time>
      </trkpt>
      <trkpt lat="47.50211" lon="6.74973">
        <ele>326.3</ele>
        <time>2014-11-09T08:45:46.000Z</time>
      </trkpt>
      <trkpt lat="47.50214" lon="6.74971">
        <ele>326.9</ele>
        <time>2014-11-09T08:45:47.000Z</time>
      </trkpt>
      <trkpt lat="47.50216" lon="6.74968">
        <ele>326.9</ele>
        <time>2014-11-09T08:45:48.000Z</time>
      </trkpt>
      <trkpt lat="47.50219" lon="6.74967">
        <ele>327.3</ele>
        <time>2014-11-09T08:45:49.000Z</time>
      </trkpt>
      <trkpt lat="47.50221" lon="6.74967">
        <ele>328.2</ele>
        <time>2014-11-09T08:45:50.000Z</time>
      </trkpt>
      <trkpt lat="47.50224" lon="6.74968">
        <ele>327.8</ele>
        <time>2014-11-09T08:45:51.000Z</time>
      </trkpt>
      <trkpt lat="47.50226" lon="6.7497">
        <ele>327.3</ele>
        <time>2014-11-09T08:45:52.000Z</time>
      </trkpt>
      <trkpt lat="47.50228" lon="6.74973">
        <ele>327.6</ele>
        <time>2014-11-09T08:45:53.000Z</time>
      </trkpt>
      <trkpt lat="47.5023" lon="6.74976">
        <ele>328.2</ele>
        <time>2014-11-09T08:45:54.000Z</time>
      </trkpt>
      <trkpt lat="47.50231" lon="6.74978">
        <ele>327.5</ele>
        <time>2014-11-09T08:45:55.000Z</time>
      </trkpt>
      <trkpt lat="47.50235" lon="6.74985">
        <ele>324.3</ele>
        <time>2014-11-09T08:45:58.000Z</time>
      </trkpt>
      <trkpt lat="47.50237" lon="6.74989">
        <ele>323.3</ele>
        <time>2014-11-09T08:46:00.000Z</time>
      </trkpt>
      <trkpt lat="47.50237" lon="6.74992">
        <ele>323.5</ele>
        <time>2014-11-09T08:46:01.000Z</time>
      </trkpt>
      <trkpt lat="47.50238" lon="6.74998">
        <ele>323.6</ele>
        <time>2014-11-09T08:46:03.000Z</time>
      </trkpt>
      <trkpt lat="47.50238" lon="6.75001">
        <ele>323.7</ele>
        <time>2014-11-09T08:46:04.000Z</time>
      </trkpt>
      <trkpt lat="47.50239" lon="6.75006">
        <ele>324.7</ele>
        <time>2014-11-09T08:46:06.000Z</time>
      </trkpt>
      <trkpt lat="47.50239" lon="6.75008">
        <ele>325.1</ele>
        <time>2014-11-09T08:46:07.000Z</time>
      </trkpt>
      <trkpt lat="47.50239" lon="6.75012">
        <ele>326.1</ele>
        <time>2014-11-09T08:46:09.000Z</time>
      </trkpt>
      <trkpt lat="47.50239" lon="6.75015">
        <ele>326.7</ele>
        <time>2014-11-09T08:46:10.000Z</time>
      </trkpt>
      <trkpt lat="47.5024" lon="6.7502">
        <ele>328.5</ele>
        <time>2014-11-09T08:46:13.000Z</time>
      </trkpt>
      <trkpt lat="47.50241" lon="6.75022">
        <ele>328.6</ele>
        <time>2014-11-09T08:46:14.000Z</time>
      </trkpt>
      <trkpt lat="47.50245" lon="6.75025">
        <ele>330.9</ele>
        <time>2014-11-09T08:46:17.000Z</time>
      </trkpt>
      <trkpt lat="47.50247" lon="6.75025">
        <ele>330.9</ele>
        <time>2014-11-09T08:46:18.000Z</time>
      </trkpt>
      <trkpt lat="47.5025" lon="6.75024">
        <ele>336.8</ele>
        <time>2014-11-09T08:46:20.000Z</time>
      </trkpt>
      <trkpt lat="47.50252" lon="6.75024">
        <ele>338</ele>
        <time>2014-11-09T08:46:21.000Z</time>
      </trkpt>
      <trkpt lat="47.50256" lon="6.75022">
        <ele>339.5</ele>
        <time>2014-11-09T08:46:23.000Z</time>
      </trkpt>
      <trkpt lat="47.50258" lon="6.75021">
        <ele>339.6</ele>
        <time>2014-11-09T08:46:24.000Z</time>
      </trkpt>
      <trkpt lat="47.50261" lon="6.75019">
        <ele>340.3</ele>
        <time>2014-11-09T08:46:26.000Z</time>
      </trkpt>
      <trkpt lat="47.50262" lon="6.75018">
        <ele>340.4</ele>
        <time>2014-11-09T08:46:27.000Z</time>
      </trkpt>
      <trkpt lat="47.50266" lon="6.75018">
        <ele>343.1</ele>
        <time>2014-11-09T08:46:30.000Z</time>
      </trkpt>
      <trkpt lat="47.50268" lon="6.75018">
        <ele>343.9</ele>
        <time>2014-11-09T08:46:31.000Z</time>
      </trkpt>
      <trkpt lat="47.50272" lon="6.75017">
        <ele>344.3</ele>
        <time>2014-11-09T08:46:33.000Z</time>
      </trkpt>
      <trkpt lat="47.50274" lon="6.75016">
        <ele>344.4</ele>
        <time>2014-11-09T08:46:34.000Z</time>
      </trkpt>
      <trkpt lat="47.50277" lon="6.75013">
        <ele>344.9</ele>
        <time>2014-11-09T08:46:36.000Z</time>
      </trkpt>
      <trkpt lat="47.50279" lon="6.75012">
        <ele>343.9</ele>
        <time>2014-11-09T08:46:37.000Z</time>
      </trkpt>
      <trkpt lat="47.50281" lon="6.7501">
        <ele>343.1</ele>
        <time>2014-11-09T08:46:38.000Z</time>
      </trkpt>
      <trkpt lat="47.50283" lon="6.75008">
        <ele>343.9</ele>
        <time>2014-11-09T08:46:39.000Z</time>
      </trkpt>
      <trkpt lat="47.50286" lon="6.75004">
        <ele>347.5</ele>
        <time>2014-11-09T08:46:41.000Z</time>
      </trkpt>
      <trkpt lat="47.50288" lon="6.75002">
        <ele>348.6</ele>
        <time>2014-11-09T08:46:42.000Z</time>
      </trkpt>
      <trkpt lat="47.5029" lon="6.74998">
        <ele>349.5</ele>
        <time>2014-11-09T08:46:44.000Z</time>
      </trkpt>
      <trkpt lat="47.50291" lon="6.74996">
        <ele>349.7</ele>
        <time>2014-11-09T08:46:45.000Z</time>
      </trkpt>
      <trkpt lat="47.50294" lon="6.74992">
        <ele>348.8</ele>
        <time>2014-11-09T08:46:47.000Z</time>
      </trkpt>
      <trkpt lat="47.50295" lon="6.74989">
        <ele>349</ele>
        <time>2014-11-09T08:46:48.000Z</time>
      </trkpt>
      <trkpt lat="47.50298" lon="6.74984">
        <ele>351.6</ele>
        <time>2014-11-09T08:46:50.000Z</time>
      </trkpt>
      <trkpt lat="47.50299" lon="6.74982">
        <ele>351.8</ele>
        <time>2014-11-09T08:46:51.000Z</time>
      </trkpt>
      <trkpt lat="47.50301" lon="6.74977">
        <ele>353.7</ele>
        <time>2014-11-09T08:46:53.000Z</time>
      </trkpt>
      <trkpt lat="47.50302" lon="6.74974">
        <ele>354.6</ele>
        <time>2014-11-09T08:46:54.000Z</time>
      </trkpt>
      <trkpt lat="47.50302" lon="6.74972">
        <ele>356</ele>
        <time>2014-11-09T08:46:55.000Z</time>
      </trkpt>
      <trkpt lat="47.50305" lon="6.74963">
        <ele>350.6</ele>
        <time>2014-11-09T08:46:58.000Z</time>
      </trkpt>
      <trkpt lat="47.50306" lon="6.7496">
        <ele>350.8</ele>
        <time>2014-11-09T08:46:59.000Z</time>
      </trkpt>
      <trkpt lat="47.50307" lon="6.74957">
        <ele>351.1</ele>
        <time>2014-11-09T08:47:00.000Z</time>
      </trkpt>
      <trkpt lat="47.50308" lon="6.74953">
        <ele>351.1</ele>
        <time>2014-11-09T08:47:01.000Z</time>
      </trkpt>
      <trkpt lat="47.50309" lon="6.74949">
        <ele>351</ele>
        <time>2014-11-09T08:47:02.000Z</time>
      </trkpt>
      <trkpt lat="47.5031" lon="6.74945">
        <ele>351</ele>
        <time>2014-11-09T08:47:03.000Z</time>
      </trkpt>
      <trkpt lat="47.50312" lon="6.74942">
        <ele>351.9</ele>
        <time>2014-11-09T08:47:04.000Z</time>
      </trkpt>
      <trkpt lat="47.50313" lon="6.74938">
        <ele>351.9</ele>
        <time>2014-11-09T08:47:05.000Z</time>
      </trkpt>
      <trkpt lat="47.50314" lon="6.74934">
        <ele>351.9</ele>
        <time>2014-11-09T08:47:06.000Z</time>
      </trkpt>
      <trkpt lat="47.50315" lon="6.7493">
        <ele>352.6</ele>
        <time>2014-11-09T08:47:07.000Z</time>
      </trkpt>
      <trkpt lat="47.50316" lon="6.74926">
        <ele>352.5</ele>
        <time>2014-11-09T08:47:08.000Z</time>
      </trkpt>
      <trkpt lat="47.50317" lon="6.74923">
        <ele>352.9</ele>
        <time>2014-11-09T08:47:09.000Z</time>
      </trkpt>
      <trkpt lat="47.50319" lon="6.74919">
        <ele>353.3</ele>
        <time>2014-11-09T08:47:10.000Z</time>
      </trkpt>
      <trkpt lat="47.5032" lon="6.74915">
        <ele>353.1</ele>
        <time>2014-11-09T08:47:11.000Z</time>
      </trkpt>
      <trkpt lat="47.50321" lon="6.74912">
        <ele>353.5</ele>
        <time>2014-11-09T08:47:12.000Z</time>
      </trkpt>
      <trkpt lat="47.50323" lon="6.74908">
        <ele>353.7</ele>
        <time>2014-11-09T08:47:13.000Z</time>
      </trkpt>
      <trkpt lat="47.50324" lon="6.74905">
        <ele>353.9</ele>
        <time>2014-11-09T08:47:14.000Z</time>
      </trkpt>
      <trkpt lat="47.50326" lon="6.74901">
        <ele>354.1</ele>
        <time>2014-11-09T08:47:15.000Z</time>
      </trkpt>
      <trkpt lat="47.50327" lon="6.74898">
        <ele>354.2</ele>
        <time>2014-11-09T08:47:16.000Z</time>
      </trkpt>
      <trkpt lat="47.50328" lon="6.74894">
        <ele>354.3</ele>
        <time>2014-11-09T08:47:17.000Z</time>
      </trkpt>
      <trkpt lat="47.5033" lon="6.7489">
        <ele>354.3</ele>
        <time>2014-11-09T08:47:18.000Z</time>
      </trkpt>
      <trkpt lat="47.50331" lon="6.74886">
        <ele>354.6</ele>
        <time>2014-11-09T08:47:19.000Z</time>
      </trkpt>
      <trkpt lat="47.50332" lon="6.74882">
        <ele>355.2</ele>
        <time>2014-11-09T08:47:20.000Z</time>
      </trkpt>
      <trkpt lat="47.50333" lon="6.74879">
        <ele>354.8</ele>
        <time>2014-11-09T08:47:21.000Z</time>
      </trkpt>
      <trkpt lat="47.50334" lon="6.74875">
        <ele>356</ele>
        <time>2014-11-09T08:47:22.000Z</time>
      </trkpt>
      <trkpt lat="47.50335" lon="6.74872">
        <ele>356.6</ele>
        <time>2014-11-09T08:47:23.000Z</time>
      </trkpt>
      <trkpt lat="47.50336" lon="6.74868">
        <ele>356.2</ele>
        <time>2014-11-09T08:47:24.000Z</time>
      </trkpt>
      <trkpt lat="47.50336" lon="6.74864">
        <ele>357</ele>
        <time>2014-11-09T08:47:25.000Z</time>
      </trkpt>
      <trkpt lat="47.50337" lon="6.7486">
        <ele>357.3</ele>
        <time>2014-11-09T08:47:26.000Z</time>
      </trkpt>
      <trkpt lat="47.50338" lon="6.74856">
        <ele>357.2</ele>
        <time>2014-11-09T08:47:27.000Z</time>
      </trkpt>
      <trkpt lat="47.50339" lon="6.74852">
        <ele>357.4</ele>
        <time>2014-11-09T08:47:28.000Z</time>
      </trkpt>
      <trkpt lat="47.5034" lon="6.74849">
        <ele>356.4</ele>
        <time>2014-11-09T08:47:29.000Z</time>
      </trkpt>
      <trkpt lat="47.50342" lon="6.74845">
        <ele>355.4</ele>
        <time>2014-11-09T08:47:30.000Z</time>
      </trkpt>
      <trkpt lat="47.50343" lon="6.74842">
        <ele>355.2</ele>
        <time>2014-11-09T08:47:31.000Z</time>
      </trkpt>
      <trkpt lat="47.50344" lon="6.74839">
        <ele>354</ele>
        <time>2014-11-09T08:47:32.000Z</time>
      </trkpt>
      <trkpt lat="47.50345" lon="6.74833">
        <ele>356</ele>
        <time>2014-11-09T08:47:34.000Z</time>
      </trkpt>
      <trkpt lat="47.50346" lon="6.7483">
        <ele>355.7</ele>
        <time>2014-11-09T08:47:35.000Z</time>
      </trkpt>
      <trkpt lat="47.50347" lon="6.74827">
        <ele>355.8</ele>
        <time>2014-11-09T08:47:36.000Z</time>
      </trkpt>
      <trkpt lat="47.50349" lon="6.74823">
        <ele>355.8</ele>
        <time>2014-11-09T08:47:37.000Z</time>
      </trkpt>
      <trkpt lat="47.5035" lon="6.74819">
        <ele>355.9</ele>
        <time>2014-11-09T08:47:38.000Z</time>
      </trkpt>
      <trkpt lat="47.50351" lon="6.74815">
        <ele>355.8</ele>
        <time>2014-11-09T08:47:39.000Z</time>
      </trkpt>
      <trkpt lat="47.50352" lon="6.74812">
        <ele>356.8</ele>
        <time>2014-11-09T08:47:40.000Z</time>
      </trkpt>
      <trkpt lat="47.50353" lon="6.74808">
        <ele>354.6</ele>
        <time>2014-11-09T08:47:41.000Z</time>
      </trkpt>
      <trkpt lat="47.50354" lon="6.74804">
        <ele>354.1</ele>
        <time>2014-11-09T08:47:42.000Z</time>
      </trkpt>
      <trkpt lat="47.50355" lon="6.748">
        <ele>353.3</ele>
        <time>2014-11-09T08:47:43.000Z</time>
      </trkpt>
      <trkpt lat="47.50356" lon="6.74796">
        <ele>353.4</ele>
        <time>2014-11-09T08:47:44.000Z</time>
      </trkpt>
      <trkpt lat="47.50357" lon="6.74791">
        <ele>353.8</ele>
        <time>2014-11-09T08:47:45.000Z</time>
      </trkpt>
      <trkpt lat="47.50359" lon="6.74787">
        <ele>353.6</ele>
        <time>2014-11-09T08:47:46.000Z</time>
      </trkpt>
      <trkpt lat="47.5036" lon="6.74783">
        <ele>352.7</ele>
        <time>2014-11-09T08:47:47.000Z</time>
      </trkpt>
      <trkpt lat="47.50362" lon="6.74778">
        <ele>352.3</ele>
        <time>2014-11-09T08:47:48.000Z</time>
      </trkpt>
      <trkpt lat="47.50363" lon="6.74774">
        <ele>351.9</ele>
        <time>2014-11-09T08:47:49.000Z</time>
      </trkpt>
      <trkpt lat="47.50365" lon="6.7477">
        <ele>351</ele>
        <time>2014-11-09T08:47:50.000Z</time>
      </trkpt>
      <trkpt lat="47.50366" lon="6.74766">
        <ele>350.6</ele>
        <time>2014-11-09T08:47:51.000Z</time>
      </trkpt>
      <trkpt lat="47.50368" lon="6.74762">
        <ele>352</ele>
        <time>2014-11-09T08:47:52.000Z</time>
      </trkpt>
      <trkpt lat="47.50369" lon="6.74758">
        <ele>352.3</ele>
        <time>2014-11-09T08:47:53.000Z</time>
      </trkpt>
      <trkpt lat="47.50371" lon="6.74754">
        <ele>352.7</ele>
        <time>2014-11-09T08:47:54.000Z</time>
      </trkpt>
      <trkpt lat="47.50372" lon="6.7475">
        <ele>351.2</ele>
        <time>2014-11-09T08:47:55.000Z</time>
      </trkpt>
      <trkpt lat="47.50374" lon="6.74746">
        <ele>350.2</ele>
        <time>2014-11-09T08:47:56.000Z</time>
      </trkpt>
      <trkpt lat="47.50375" lon="6.74742">
        <ele>349.8</ele>
        <time>2014-11-09T08:47:57.000Z</time>
      </trkpt>
      <trkpt lat="47.50388" lon="6.74719">
        <ele>344.4</ele>
        <time>2014-11-09T08:48:05.000Z</time>
      </trkpt>
      <trkpt lat="47.5039" lon="6.74715">
        <ele>344.6</ele>
        <time>2014-11-09T08:48:06.000Z</time>
      </trkpt>
      <trkpt lat="47.50391" lon="6.74711">
        <ele>345.1</ele>
        <time>2014-11-09T08:48:07.000Z</time>
      </trkpt>
      <trkpt lat="47.50392" lon="6.74707">
        <ele>344.4</ele>
        <time>2014-11-09T08:48:08.000Z</time>
      </trkpt>
      <trkpt lat="47.50393" lon="6.74703">
        <ele>344.4</ele>
        <time>2014-11-09T08:48:09.000Z</time>
      </trkpt>
      <trkpt lat="47.50394" lon="6.74698">
        <ele>344.5</ele>
        <time>2014-11-09T08:48:10.000Z</time>
      </trkpt>
      <trkpt lat="47.50395" lon="6.74694">
        <ele>343.9</ele>
        <time>2014-11-09T08:48:11.000Z</time>
      </trkpt>
      <trkpt lat="47.50396" lon="6.74691">
        <ele>345.7</ele>
        <time>2014-11-09T08:48:12.000Z</time>
      </trkpt>
      <trkpt lat="47.50397" lon="6.74687">
        <ele>345.8</ele>
        <time>2014-11-09T08:48:13.000Z</time>
      </trkpt>
      <trkpt lat="47.504" lon="6.74684">
        <ele>347.2</ele>
        <time>2014-11-09T08:48:15.000Z</time>
      </trkpt>
      <trkpt lat="47.50402" lon="6.74683">
        <ele>346.8</ele>
        <time>2014-11-09T08:48:16.000Z</time>
      </trkpt>
      <trkpt lat="47.50407" lon="6.74684">
        <ele>347.5</ele>
        <time>2014-11-09T08:48:18.000Z</time>
      </trkpt>
      <trkpt lat="47.50409" lon="6.74684">
        <ele>347.5</ele>
        <time>2014-11-09T08:48:19.000Z</time>
      </trkpt>
      <trkpt lat="47.50413" lon="6.74683">
        <ele>349.6</ele>
        <time>2014-11-09T08:48:21.000Z</time>
      </trkpt>
      <trkpt lat="47.50415" lon="6.74681">
        <ele>349.6</ele>
        <time>2014-11-09T08:48:22.000Z</time>
      </trkpt>
      <trkpt lat="47.50417" lon="6.7468">
        <ele>348.6</ele>
        <time>2014-11-09T08:48:23.000Z</time>
      </trkpt>
      <trkpt lat="47.50419" lon="6.74677">
        <ele>349.1</ele>
        <time>2014-11-09T08:48:24.000Z</time>
      </trkpt>
      <trkpt lat="47.5042" lon="6.74675">
        <ele>350.5</ele>
        <time>2014-11-09T08:48:25.000Z</time>
      </trkpt>
      <trkpt lat="47.50421" lon="6.74672">
        <ele>351</ele>
        <time>2014-11-09T08:48:26.000Z</time>
      </trkpt>
      <trkpt lat="47.50423" lon="6.74668">
        <ele>350.3</ele>
        <time>2014-11-09T08:48:27.000Z</time>
      </trkpt>
      <trkpt lat="47.50424" lon="6.74665">
        <ele>350.4</ele>
        <time>2014-11-09T08:48:28.000Z</time>
      </trkpt>
      <trkpt lat="47.50426" lon="6.74662">
        <ele>350.3</ele>
        <time>2014-11-09T08:48:29.000Z</time>
      </trkpt>
      <trkpt lat="47.50428" lon="6.7466">
        <ele>350.9</ele>
        <time>2014-11-09T08:48:30.000Z</time>
      </trkpt>
      <trkpt lat="47.50431" lon="6.74659">
        <ele>350.3</ele>
        <time>2014-11-09T08:48:31.000Z</time>
      </trkpt>
      <trkpt lat="47.50434" lon="6.74659">
        <ele>350.8</ele>
        <time>2014-11-09T08:48:32.000Z</time>
      </trkpt>
      <trkpt lat="47.50437" lon="6.7466">
        <ele>351.3</ele>
        <time>2014-11-09T08:48:33.000Z</time>
      </trkpt>
      <trkpt lat="47.5044" lon="6.7466">
        <ele>351.4</ele>
        <time>2014-11-09T08:48:34.000Z</time>
      </trkpt>
      <trkpt lat="47.50442" lon="6.7466">
        <ele>351.3</ele>
        <time>2014-11-09T08:48:35.000Z</time>
      </trkpt>
      <trkpt lat="47.50445" lon="6.74659">
        <ele>351.4</ele>
        <time>2014-11-09T08:48:36.000Z</time>
      </trkpt>
      <trkpt lat="47.50447" lon="6.74658">
        <ele>352.3</ele>
        <time>2014-11-09T08:48:37.000Z</time>
      </trkpt>
      <trkpt lat="47.5045" lon="6.74656">
        <ele>351</ele>
        <time>2014-11-09T08:48:38.000Z</time>
      </trkpt>
      <trkpt lat="47.50452" lon="6.74654">
        <ele>350.8</ele>
        <time>2014-11-09T08:48:39.000Z</time>
      </trkpt>
      <trkpt lat="47.50454" lon="6.74651">
        <ele>350.7</ele>
        <time>2014-11-09T08:48:40.000Z</time>
      </trkpt>
      <trkpt lat="47.50454" lon="6.74647">
        <ele>351.2</ele>
        <time>2014-11-09T08:48:41.000Z</time>
      </trkpt>
      <trkpt lat="47.50454" lon="6.74643">
        <ele>351.5</ele>
        <time>2014-11-09T08:48:42.000Z</time>
      </trkpt>
      <trkpt lat="47.50453" lon="6.74638">
        <ele>351</ele>
        <time>2014-11-09T08:48:43.000Z</time>
      </trkpt>
      <trkpt lat="47.50453" lon="6.74632">
        <ele>350.2</ele>
        <time>2014-11-09T08:48:44.000Z</time>
      </trkpt>
      <trkpt lat="47.50452" lon="6.74627">
        <ele>350.2</ele>
        <time>2014-11-09T08:48:45.000Z</time>
      </trkpt>
      <trkpt lat="47.50452" lon="6.74621">
        <ele>350.4</ele>
        <time>2014-11-09T08:48:46.000Z</time>
      </trkpt>
      <trkpt lat="47.50451" lon="6.74615">
        <ele>347.7</ele>
        <time>2014-11-09T08:48:47.000Z</time>
      </trkpt>
      <trkpt lat="47.50451" lon="6.74609">
        <ele>346.4</ele>
        <time>2014-11-09T08:48:48.000Z</time>
      </trkpt>
      <trkpt lat="47.5045" lon="6.74604">
        <ele>346.6</ele>
        <time>2014-11-09T08:48:49.000Z</time>
      </trkpt>
      <trkpt lat="47.5045" lon="6.74598">
        <ele>346.5</ele>
        <time>2014-11-09T08:48:50.000Z</time>
      </trkpt>
      <trkpt lat="47.50449" lon="6.74594">
        <ele>346.8</ele>
        <time>2014-11-09T08:48:51.000Z</time>
      </trkpt>
      <trkpt lat="47.50449" lon="6.74589">
        <ele>346.9</ele>
        <time>2014-11-09T08:48:52.000Z</time>
      </trkpt>
      <trkpt lat="47.50448" lon="6.74586">
        <ele>346.3</ele>
        <time>2014-11-09T08:48:53.000Z</time>
      </trkpt>
      <trkpt lat="47.50447" lon="6.74582">
        <ele>345.4</ele>
        <time>2014-11-09T08:48:54.000Z</time>
      </trkpt>
      <trkpt lat="47.50447" lon="6.74578">
        <ele>344.7</ele>
        <time>2014-11-09T08:48:55.000Z</time>
      </trkpt>
      <trkpt lat="47.50446" lon="6.74573">
        <ele>345</ele>
        <time>2014-11-09T08:48:56.000Z</time>
      </trkpt>
      <trkpt lat="47.50446" lon="6.7456">
        <ele>341.6</ele>
        <time>2014-11-09T08:48:59.000Z</time>
      </trkpt>
      <trkpt lat="47.50446" lon="6.74555">
        <ele>341.5</ele>
        <time>2014-11-09T08:49:00.000Z</time>
      </trkpt>
      <trkpt lat="47.50445" lon="6.7455">
        <ele>341.7</ele>
        <time>2014-11-09T08:49:01.000Z</time>
      </trkpt>
      <trkpt lat="47.50445" lon="6.74545">
        <ele>341.3</ele>
        <time>2014-11-09T08:49:02.000Z</time>
      </trkpt>
      <trkpt lat="47.50445" lon="6.7454">
        <ele>341.6</ele>
        <time>2014-11-09T08:49:03.000Z</time>
      </trkpt>
      <trkpt lat="47.50444" lon="6.74534">
        <ele>342.9</ele>
        <time>2014-11-09T08:49:04.000Z</time>
      </trkpt>
      <trkpt lat="47.50444" lon="6.74529">
        <ele>343</ele>
        <time>2014-11-09T08:49:05.000Z</time>
      </trkpt>
      <trkpt lat="47.50443" lon="6.74523">
        <ele>342.4</ele>
        <time>2014-11-09T08:49:06.000Z</time>
      </trkpt>
      <trkpt lat="47.50443" lon="6.74518">
        <ele>343.1</ele>
        <time>2014-11-09T08:49:07.000Z</time>
      </trkpt>
      <trkpt lat="47.50443" lon="6.74512">
        <ele>343</ele>
        <time>2014-11-09T08:49:08.000Z</time>
      </trkpt>
      <trkpt lat="47.50442" lon="6.74507">
        <ele>343</ele>
        <time>2014-11-09T08:49:09.000Z</time>
      </trkpt>
      <trkpt lat="47.50442" lon="6.74501">
        <ele>343.6</ele>
        <time>2014-11-09T08:49:10.000Z</time>
      </trkpt>
      <trkpt lat="47.50441" lon="6.74495">
        <ele>344.2</ele>
        <time>2014-11-09T08:49:11.000Z</time>
      </trkpt>
      <trkpt lat="47.50441" lon="6.7449">
        <ele>344</ele>
        <time>2014-11-09T08:49:12.000Z</time>
      </trkpt>
      <trkpt lat="47.5044" lon="6.74485">
        <ele>344.7</ele>
        <time>2014-11-09T08:49:13.000Z</time>
      </trkpt>
      <trkpt lat="47.5044" lon="6.74479">
        <ele>343.8</ele>
        <time>2014-11-09T08:49:14.000Z</time>
      </trkpt>
      <trkpt lat="47.50439" lon="6.74473">
        <ele>343.4</ele>
        <time>2014-11-09T08:49:15.000Z</time>
      </trkpt>
      <trkpt lat="47.50439" lon="6.74468">
        <ele>343.3</ele>
        <time>2014-11-09T08:49:16.000Z</time>
      </trkpt>
      <trkpt lat="47.50438" lon="6.74462">
        <ele>343.2</ele>
        <time>2014-11-09T08:49:17.000Z</time>
      </trkpt>
      <trkpt lat="47.50438" lon="6.74457">
        <ele>342.9</ele>
        <time>2014-11-09T08:49:18.000Z</time>
      </trkpt>
      <trkpt lat="47.50437" lon="6.74452">
        <ele>342.8</ele>
        <time>2014-11-09T08:49:19.000Z</time>
      </trkpt>
      <trkpt lat="47.50437" lon="6.74447">
        <ele>343</ele>
        <time>2014-11-09T08:49:19.999Z</time>
      </trkpt>
      <trkpt lat="47.50435" lon="6.74442">
        <ele>343</ele>
        <time>2014-11-09T08:49:21.000Z</time>
      </trkpt>
      <trkpt lat="47.50432" lon="6.74439">
        <ele>344</ele>
        <time>2014-11-09T08:49:22.000Z</time>
      </trkpt>
      <trkpt lat="47.50429" lon="6.74437">
        <ele>344</ele>
        <time>2014-11-09T08:49:23.000Z</time>
      </trkpt>
      <trkpt lat="47.50426" lon="6.74435">
        <ele>344.6</ele>
        <time>2014-11-09T08:49:24.000Z</time>
      </trkpt>
      <trkpt lat="47.50423" lon="6.74434">
        <ele>344.7</ele>
        <time>2014-11-09T08:49:25.000Z</time>
      </trkpt>
      <trkpt lat="47.5042" lon="6.74434">
        <ele>345.5</ele>
        <time>2014-11-09T08:49:26.000Z</time>
      </trkpt>
      <trkpt lat="47.50416" lon="6.74433">
        <ele>345.6</ele>
        <time>2014-11-09T08:49:27.000Z</time>
      </trkpt>
      <trkpt lat="47.50413" lon="6.74432">
        <ele>346.9</ele>
        <time>2014-11-09T08:49:28.000Z</time>
      </trkpt>
      <trkpt lat="47.5041" lon="6.74431">
        <ele>347.6</ele>
        <time>2014-11-09T08:49:29.000Z</time>
      </trkpt>
      <trkpt lat="47.50408" lon="6.7443">
        <ele>349.1</ele>
        <time>2014-11-09T08:49:30.000Z</time>
      </trkpt>
      <trkpt lat="47.50405" lon="6.74429">
        <ele>349.9</ele>
        <time>2014-11-09T08:49:31.000Z</time>
      </trkpt>
      <trkpt lat="47.50402" lon="6.74428">
        <ele>348.7</ele>
        <time>2014-11-09T08:49:32.000Z</time>
      </trkpt>
      <trkpt lat="47.50398" lon="6.74426">
        <ele>348.2</ele>
        <time>2014-11-09T08:49:33.000Z</time>
      </trkpt>
      <trkpt lat="47.50395" lon="6.74424">
        <ele>349.7</ele>
        <time>2014-11-09T08:49:34.000Z</time>
      </trkpt>
      <trkpt lat="47.50392" lon="6.7442">
        <ele>348.9</ele>
        <time>2014-11-09T08:49:35.000Z</time>
      </trkpt>
      <trkpt lat="47.50391" lon="6.74415">
        <ele>348.8</ele>
        <time>2014-11-09T08:49:36.000Z</time>
      </trkpt>
      <trkpt lat="47.50391" lon="6.7441">
        <ele>348.9</ele>
        <time>2014-11-09T08:49:37.000Z</time>
      </trkpt>
      <trkpt lat="47.50392" lon="6.74403">
        <ele>349.3</ele>
        <time>2014-11-09T08:49:38.000Z</time>
      </trkpt>
      <trkpt lat="47.50395" lon="6.74398">
        <ele>349.5</ele>
        <time>2014-11-09T08:49:39.000Z</time>
      </trkpt>
      <trkpt lat="47.50398" lon="6.74392">
        <ele>349.7</ele>
        <time>2014-11-09T08:49:40.000Z</time>
      </trkpt>
      <trkpt lat="47.504" lon="6.74388">
        <ele>349.6</ele>
        <time>2014-11-09T08:49:41.000Z</time>
      </trkpt>
      <trkpt lat="47.50403" lon="6.74384">
        <ele>349.5</ele>
        <time>2014-11-09T08:49:42.000Z</time>
      </trkpt>
      <trkpt lat="47.50405" lon="6.7438">
        <ele>350</ele>
        <time>2014-11-09T08:49:43.000Z</time>
      </trkpt>
      <trkpt lat="47.50407" lon="6.74376">
        <ele>349.3</ele>
        <time>2014-11-09T08:49:44.000Z</time>
      </trkpt>
      <trkpt lat="47.5041" lon="6.74371">
        <ele>349.2</ele>
        <time>2014-11-09T08:49:45.000Z</time>
      </trkpt>
      <trkpt lat="47.50412" lon="6.74367">
        <ele>349.9</ele>
        <time>2014-11-09T08:49:46.000Z</time>
      </trkpt>
      <trkpt lat="47.50415" lon="6.74362">
        <ele>350.9</ele>
        <time>2014-11-09T08:49:47.000Z</time>
      </trkpt>
      <trkpt lat="47.50416" lon="6.74358">
        <ele>351.5</ele>
        <time>2014-11-09T08:49:48.000Z</time>
      </trkpt>
      <trkpt lat="47.50418" lon="6.74354">
        <ele>352.1</ele>
        <time>2014-11-09T08:49:49.000Z</time>
      </trkpt>
      <trkpt lat="47.50419" lon="6.74352">
        <ele>352.7</ele>
        <time>2014-11-09T08:49:50.000Z</time>
      </trkpt>
      <trkpt lat="47.50421" lon="6.74347">
        <ele>354.2</ele>
        <time>2014-11-09T08:49:52.000Z</time>
      </trkpt>
      <trkpt lat="47.50423" lon="6.74345">
        <ele>355.5</ele>
        <time>2014-11-09T08:49:53.000Z</time>
      </trkpt>
      <trkpt lat="47.50425" lon="6.74341">
        <ele>355.5</ele>
        <time>2014-11-09T08:49:54.000Z</time>
      </trkpt>
      <trkpt lat="47.50427" lon="6.74337">
        <ele>355.4</ele>
        <time>2014-11-09T08:49:55.000Z</time>
      </trkpt>
      <trkpt lat="47.5043" lon="6.74331">
        <ele>355.6</ele>
        <time>2014-11-09T08:49:56.000Z</time>
      </trkpt>
      <trkpt lat="47.50433" lon="6.74325">
        <ele>356.1</ele>
        <time>2014-11-09T08:49:57.000Z</time>
      </trkpt>
      <trkpt lat="47.5045" lon="6.74287">
        <ele>354</ele>
        <time>2014-11-09T08:50:05.000Z</time>
      </trkpt>
      <trkpt lat="47.50452" lon="6.74284">
        <ele>354.6</ele>
        <time>2014-11-09T08:50:06.000Z</time>
      </trkpt>
      <trkpt lat="47.50453" lon="6.74282">
        <ele>355</ele>
        <time>2014-11-09T08:50:07.000Z</time>
      </trkpt>
      <trkpt lat="47.50455" lon="6.74277">
        <ele>360.5</ele>
        <time>2014-11-09T08:50:09.000Z</time>
      </trkpt>
      <trkpt lat="47.50456" lon="6.74273">
        <ele>362.6</ele>
        <time>2014-11-09T08:50:10.000Z</time>
      </trkpt>
      <trkpt lat="47.50458" lon="6.7427">
        <ele>363.8</ele>
        <time>2014-11-09T08:50:11.000Z</time>
      </trkpt>
      <trkpt lat="47.5046" lon="6.74266">
        <ele>364</ele>
        <time>2014-11-09T08:50:12.000Z</time>
      </trkpt>
      <trkpt lat="47.50461" lon="6.74262">
        <ele>364</ele>
        <time>2014-11-09T08:50:13.000Z</time>
      </trkpt>
      <trkpt lat="47.50463" lon="6.74258">
        <ele>365.6</ele>
        <time>2014-11-09T08:50:14.000Z</time>
      </trkpt>
      <trkpt lat="47.50465" lon="6.74253">
        <ele>366.2</ele>
        <time>2014-11-09T08:50:15.000Z</time>
      </trkpt>
      <trkpt lat="47.50467" lon="6.74249">
        <ele>366.8</ele>
        <time>2014-11-09T08:50:16.000Z</time>
      </trkpt>
      <trkpt lat="47.50469" lon="6.74244">
        <ele>366.6</ele>
        <time>2014-11-09T08:50:17.000Z</time>
      </trkpt>
      <trkpt lat="47.50472" lon="6.74241">
        <ele>366.4</ele>
        <time>2014-11-09T08:50:18.000Z</time>
      </trkpt>
      <trkpt lat="47.50474" lon="6.74237">
        <ele>365.9</ele>
        <time>2014-11-09T08:50:19.000Z</time>
      </trkpt>
      <trkpt lat="47.50476" lon="6.74233">
        <ele>365.6</ele>
        <time>2014-11-09T08:50:20.000Z</time>
      </trkpt>
      <trkpt lat="47.50478" lon="6.74229">
        <ele>366.3</ele>
        <time>2014-11-09T08:50:21.000Z</time>
      </trkpt>
      <trkpt lat="47.5048" lon="6.74225">
        <ele>367</ele>
        <time>2014-11-09T08:50:22.000Z</time>
      </trkpt>
      <trkpt lat="47.50482" lon="6.7422">
        <ele>367.3</ele>
        <time>2014-11-09T08:50:23.000Z</time>
      </trkpt>
      <trkpt lat="47.50484" lon="6.74216">
        <ele>368</ele>
        <time>2014-11-09T08:50:24.000Z</time>
      </trkpt>
      <trkpt lat="47.50486" lon="6.74212">
        <ele>367.7</ele>
        <time>2014-11-09T08:50:25.000Z</time>
      </trkpt>
      <trkpt lat="47.50489" lon="6.74208">
        <ele>366.4</ele>
        <time>2014-11-09T08:50:26.000Z</time>
      </trkpt>
      <trkpt lat="47.50493" lon="6.74205">
        <ele>365.8</ele>
        <time>2014-11-09T08:50:27.000Z</time>
      </trkpt>
      <trkpt lat="47.50497" lon="6.74202">
        <ele>366.8</ele>
        <time>2014-11-09T08:50:28.000Z</time>
      </trkpt>
      <trkpt lat="47.50501" lon="6.74199">
        <ele>369.1</ele>
        <time>2014-11-09T08:50:29.000Z</time>
      </trkpt>
      <trkpt lat="47.50504" lon="6.74194">
        <ele>371.8</ele>
        <time>2014-11-09T08:50:30.000Z</time>
      </trkpt>
      <trkpt lat="47.50506" lon="6.74189">
        <ele>372.7</ele>
        <time>2014-11-09T08:50:31.000Z</time>
      </trkpt>
      <trkpt lat="47.50508" lon="6.74183">
        <ele>373</ele>
        <time>2014-11-09T08:50:32.000Z</time>
      </trkpt>
      <trkpt lat="47.50512" lon="6.74176">
        <ele>374.2</ele>
        <time>2014-11-09T08:50:33.000Z</time>
      </trkpt>
      <trkpt lat="47.50516" lon="6.74167">
        <ele>374</ele>
        <time>2014-11-09T08:50:34.000Z</time>
      </trkpt>
      <trkpt lat="47.5052" lon="6.74158">
        <ele>374.9</ele>
        <time>2014-11-09T08:50:35.000Z</time>
      </trkpt>
      <trkpt lat="47.50524" lon="6.7415">
        <ele>374.3</ele>
        <time>2014-11-09T08:50:36.000Z</time>
      </trkpt>
      <trkpt lat="47.50528" lon="6.74141">
        <ele>373.9</ele>
        <time>2014-11-09T08:50:37.000Z</time>
      </trkpt>
      <trkpt lat="47.50531" lon="6.74134">
        <ele>373.8</ele>
        <time>2014-11-09T08:50:38.000Z</time>
      </trkpt>
      <trkpt lat="47.50534" lon="6.74127">
        <ele>373.3</ele>
        <time>2014-11-09T08:50:39.000Z</time>
      </trkpt>
      <trkpt lat="47.50538" lon="6.7412">
        <ele>373.7</ele>
        <time>2014-11-09T08:50:40.000Z</time>
      </trkpt>
      <trkpt lat="47.50541" lon="6.74112">
        <ele>373.1</ele>
        <time>2014-11-09T08:50:41.000Z</time>
      </trkpt>
      <trkpt lat="47.50545" lon="6.74104">
        <ele>372.9</ele>
        <time>2014-11-09T08:50:42.000Z</time>
      </trkpt>
      <trkpt lat="47.50558" lon="6.74076">
        <ele>371.9</ele>
        <time>2014-11-09T08:50:43.000Z</time>
      </trkpt>
      <trkpt lat="47.50564" lon="6.74066">
        <ele>370.5</ele>
        <time>2014-11-09T08:50:44.000Z</time>
      </trkpt>
      <trkpt lat="47.50567" lon="6.74044">
        <ele>369.2</ele>
        <time>2014-11-09T08:50:45.000Z</time>
      </trkpt>
      <trkpt lat="47.50571" lon="6.74033">
        <ele>369</ele>
        <time>2014-11-09T08:50:46.000Z</time>
      </trkpt>
      <trkpt lat="47.50573" lon="6.74025">
        <ele>368.9</ele>
        <time>2014-11-09T08:50:47.000Z</time>
      </trkpt>
      <trkpt lat="47.50576" lon="6.74014">
        <ele>367.7</ele>
        <time>2014-11-09T08:50:48.000Z</time>
      </trkpt>
      <trkpt lat="47.50577" lon="6.74008">
        <ele>366.9</ele>
        <time>2014-11-09T08:50:49.000Z</time>
      </trkpt>
      <trkpt lat="47.50579" lon="6.74002">
        <ele>367.8</ele>
        <time>2014-11-09T08:50:50.000Z</time>
      </trkpt>
      <trkpt lat="47.5058" lon="6.73998">
        <ele>368.2</ele>
        <time>2014-11-09T08:50:51.000Z</time>
      </trkpt>
      <trkpt lat="47.50581" lon="6.73995">
        <ele>368.2</ele>
        <time>2014-11-09T08:50:52.000Z</time>
      </trkpt>
      <trkpt lat="47.50582" lon="6.73993">
        <ele>367.6</ele>
        <time>2014-11-09T08:50:53.000Z</time>
      </trkpt>
      <trkpt lat="47.50584" lon="6.7399">
        <ele>369.2</ele>
        <time>2014-11-09T08:50:54.000Z</time>
      </trkpt>
      <trkpt lat="47.50586" lon="6.73986">
        <ele>369.4</ele>
        <time>2014-11-09T08:50:55.000Z</time>
      </trkpt>
      <trkpt lat="47.50591" lon="6.73971">
        <ele>365.2</ele>
        <time>2014-11-09T08:50:58.000Z</time>
      </trkpt>
      <trkpt lat="47.50593" lon="6.73965">
        <ele>365.5</ele>
        <time>2014-11-09T08:50:59.000Z</time>
      </trkpt>
      <trkpt lat="47.50596" lon="6.7396">
        <ele>366.1</ele>
        <time>2014-11-09T08:51:00.000Z</time>
      </trkpt>
      <trkpt lat="47.50598" lon="6.73955">
        <ele>366.4</ele>
        <time>2014-11-09T08:51:01.000Z</time>
      </trkpt>
      <trkpt lat="47.50601" lon="6.73949">
        <ele>365.7</ele>
        <time>2014-11-09T08:51:02.000Z</time>
      </trkpt>
      <trkpt lat="47.50604" lon="6.73942">
        <ele>363.7</ele>
        <time>2014-11-09T08:51:03.000Z</time>
      </trkpt>
      <trkpt lat="47.50607" lon="6.73934">
        <ele>363.8</ele>
        <time>2014-11-09T08:51:04.000Z</time>
      </trkpt>
      <trkpt lat="47.5061" lon="6.73927">
        <ele>362.9</ele>
        <time>2014-11-09T08:51:05.000Z</time>
      </trkpt>
      <trkpt lat="47.50612" lon="6.7392">
        <ele>362.6</ele>
        <time>2014-11-09T08:51:06.000Z</time>
      </trkpt>
      <trkpt lat="47.50615" lon="6.73913">
        <ele>362.5</ele>
        <time>2014-11-09T08:51:07.000Z</time>
      </trkpt>
      <trkpt lat="47.50618" lon="6.73906">
        <ele>362.7</ele>
        <time>2014-11-09T08:51:08.000Z</time>
      </trkpt>
      <trkpt lat="47.5062" lon="6.73899">
        <ele>363</ele>
        <time>2014-11-09T08:51:09.000Z</time>
      </trkpt>
      <trkpt lat="47.50623" lon="6.7389">
        <ele>360.7</ele>
        <time>2014-11-09T08:51:10.000Z</time>
      </trkpt>
      <trkpt lat="47.50629" lon="6.73865">
        <ele>358.1</ele>
        <time>2014-11-09T08:51:11.000Z</time>
      </trkpt>
      <trkpt lat="47.50631" lon="6.73858">
        <ele>358</ele>
        <time>2014-11-09T08:51:12.000Z</time>
      </trkpt>
      <trkpt lat="47.50632" lon="6.73851">
        <ele>358.4</ele>
        <time>2014-11-09T08:51:13.000Z</time>
      </trkpt>
      <trkpt lat="47.50632" lon="6.73843">
        <ele>357.7</ele>
        <time>2014-11-09T08:51:14.000Z</time>
      </trkpt>
      <trkpt lat="47.50633" lon="6.73836">
        <ele>358.1</ele>
        <time>2014-11-09T08:51:15.000Z</time>
      </trkpt>
      <trkpt lat="47.50634" lon="6.73828">
        <ele>357.5</ele>
        <time>2014-11-09T08:51:16.000Z</time>
      </trkpt>
      <trkpt lat="47.50635" lon="6.73821">
        <ele>357.4</ele>
        <time>2014-11-09T08:51:17.000Z</time>
      </trkpt>
      <trkpt lat="47.50636" lon="6.73813">
        <ele>356.8</ele>
        <time>2014-11-09T08:51:18.000Z</time>
      </trkpt>
      <trkpt lat="47.50638" lon="6.73808">
        <ele>357.7</ele>
        <time>2014-11-09T08:51:19.000Z</time>
      </trkpt>
      <trkpt lat="47.50638" lon="6.73804">
        <ele>358.4</ele>
        <time>2014-11-09T08:51:20.000Z</time>
      </trkpt>
      <trkpt lat="47.50639" lon="6.73798">
        <ele>358.7</ele>
        <time>2014-11-09T08:51:21.000Z</time>
      </trkpt>
      <trkpt lat="47.50639" lon="6.73793">
        <ele>358.9</ele>
        <time>2014-11-09T08:51:22.000Z</time>
      </trkpt>
      <trkpt lat="47.5064" lon="6.73788">
        <ele>359</ele>
        <time>2014-11-09T08:51:23.000Z</time>
      </trkpt>
      <trkpt lat="47.5064" lon="6.73783">
        <ele>358.4</ele>
        <time>2014-11-09T08:51:24.000Z</time>
      </trkpt>
      <trkpt lat="47.50641" lon="6.73778">
        <ele>358.7</ele>
        <time>2014-11-09T08:51:25.000Z</time>
      </trkpt>
      <trkpt lat="47.50641" lon="6.73774">
        <ele>359</ele>
        <time>2014-11-09T08:51:26.000Z</time>
      </trkpt>
      <trkpt lat="47.50642" lon="6.73769">
        <ele>360.1</ele>
        <time>2014-11-09T08:51:27.000Z</time>
      </trkpt>
      <trkpt lat="47.50642" lon="6.73764">
        <ele>359.4</ele>
        <time>2014-11-09T08:51:28.000Z</time>
      </trkpt>
      <trkpt lat="47.50643" lon="6.73758">
        <ele>358.3</ele>
        <time>2014-11-09T08:51:29.000Z</time>
      </trkpt>
      <trkpt lat="47.50643" lon="6.73751">
        <ele>358.7</ele>
        <time>2014-11-09T08:51:30.000Z</time>
      </trkpt>
      <trkpt lat="47.50643" lon="6.73744">
        <ele>359.1</ele>
        <time>2014-11-09T08:51:31.000Z</time>
      </trkpt>
      <trkpt lat="47.50643" lon="6.73737">
        <ele>358.7</ele>
        <time>2014-11-09T08:51:32.000Z</time>
      </trkpt>
      <trkpt lat="47.50644" lon="6.7373">
        <ele>358.9</ele>
        <time>2014-11-09T08:51:33.000Z</time>
      </trkpt>
      <trkpt lat="47.50644" lon="6.73722">
        <ele>358.5</ele>
        <time>2014-11-09T08:51:34.000Z</time>
      </trkpt>
      <trkpt lat="47.50644" lon="6.73715">
        <ele>358.4</ele>
        <time>2014-11-09T08:51:35.000Z</time>
      </trkpt>
      <trkpt lat="47.50644" lon="6.73709">
        <ele>359</ele>
        <time>2014-11-09T08:51:36.000Z</time>
      </trkpt>
      <trkpt lat="47.50644" lon="6.73702">
        <ele>358.8</ele>
        <time>2014-11-09T08:51:37.000Z</time>
      </trkpt>
      <trkpt lat="47.50644" lon="6.73696">
        <ele>359.6</ele>
        <time>2014-11-09T08:51:38.000Z</time>
      </trkpt>
      <trkpt lat="47.50644" lon="6.73689">
        <ele>359.6</ele>
        <time>2014-11-09T08:51:39.000Z</time>
      </trkpt>
      <trkpt lat="47.50645" lon="6.73683">
        <ele>359.8</ele>
        <time>2014-11-09T08:51:40.000Z</time>
      </trkpt>
      <trkpt lat="47.50645" lon="6.73677">
        <ele>359.1</ele>
        <time>2014-11-09T08:51:41.000Z</time>
      </trkpt>
      <trkpt lat="47.50644" lon="6.73671">
        <ele>359.2</ele>
        <time>2014-11-09T08:51:42.000Z</time>
      </trkpt>
      <trkpt lat="47.50644" lon="6.73665">
        <ele>359.2</ele>
        <time>2014-11-09T08:51:43.000Z</time>
      </trkpt>
      <trkpt lat="47.50645" lon="6.73659">
        <ele>358.9</ele>
        <time>2014-11-09T08:51:44.000Z</time>
      </trkpt>
      <trkpt lat="47.50645" lon="6.73653">
        <ele>358.6</ele>
        <time>2014-11-09T08:51:45.000Z</time>
      </trkpt>
      <trkpt lat="47.50645" lon="6.73647">
        <ele>357.1</ele>
        <time>2014-11-09T08:51:46.000Z</time>
      </trkpt>
      <trkpt lat="47.50645" lon="6.73641">
        <ele>356.2</ele>
        <time>2014-11-09T08:51:47.000Z</time>
      </trkpt>
      <trkpt lat="47.50646" lon="6.73635">
        <ele>356.9</ele>
        <time>2014-11-09T08:51:48.000Z</time>
      </trkpt>
      <trkpt lat="47.50648" lon="6.73629">
        <ele>356.3</ele>
        <time>2014-11-09T08:51:49.000Z</time>
      </trkpt>
      <trkpt lat="47.50651" lon="6.73623">
        <ele>355.8</ele>
        <time>2014-11-09T08:51:50.000Z</time>
      </trkpt>
      <trkpt lat="47.50654" lon="6.73618">
        <ele>355.7</ele>
        <time>2014-11-09T08:51:51.000Z</time>
      </trkpt>
      <trkpt lat="47.50661" lon="6.73613">
        <ele>355</ele>
        <time>2014-11-09T08:51:52.000Z</time>
      </trkpt>
      <trkpt lat="47.50664" lon="6.7361">
        <ele>354.8</ele>
        <time>2014-11-09T08:51:53.000Z</time>
      </trkpt>
      <trkpt lat="47.50667" lon="6.73606">
        <ele>354.4</ele>
        <time>2014-11-09T08:51:54.000Z</time>
      </trkpt>
      <trkpt lat="47.5067" lon="6.73603">
        <ele>354.7</ele>
        <time>2014-11-09T08:51:55.000Z</time>
      </trkpt>
      <trkpt lat="47.5068" lon="6.73592">
        <ele>353</ele>
        <time>2014-11-09T08:51:58.000Z</time>
      </trkpt>
      <trkpt lat="47.50686" lon="6.73588">
        <ele>353.2</ele>
        <time>2014-11-09T08:51:59.000Z</time>
      </trkpt>
      <trkpt lat="47.5069" lon="6.73584">
        <ele>353</ele>
        <time>2014-11-09T08:52:00.000Z</time>
      </trkpt>
      <trkpt lat="47.50695" lon="6.7358">
        <ele>353</ele>
        <time>2014-11-09T08:52:01.000Z</time>
      </trkpt>
      <trkpt lat="47.507" lon="6.73577">
        <ele>352.7</ele>
        <time>2014-11-09T08:52:02.000Z</time>
      </trkpt>
      <trkpt lat="47.50704" lon="6.73574">
        <ele>352.4</ele>
        <time>2014-11-09T08:52:03.000Z</time>
      </trkpt>
      <trkpt lat="47.50709" lon="6.7357">
        <ele>352.5</ele>
        <time>2014-11-09T08:52:04.000Z</time>
      </trkpt>
      <trkpt lat="47.50713" lon="6.73568">
        <ele>352.3</ele>
        <time>2014-11-09T08:52:05.000Z</time>
      </trkpt>
      <trkpt lat="47.50718" lon="6.73565">
        <ele>352.1</ele>
        <time>2014-11-09T08:52:06.000Z</time>
      </trkpt>
      <trkpt lat="47.50722" lon="6.73561">
        <ele>352</ele>
        <time>2014-11-09T08:52:07.000Z</time>
      </trkpt>
      <trkpt lat="47.50727" lon="6.73558">
        <ele>351.8</ele>
        <time>2014-11-09T08:52:08.000Z</time>
      </trkpt>
      <trkpt lat="47.50732" lon="6.73555">
        <ele>351.7</ele>
        <time>2014-11-09T08:52:09.000Z</time>
      </trkpt>
      <trkpt lat="47.50737" lon="6.73552">
        <ele>352.2</ele>
        <time>2014-11-09T08:52:10.000Z</time>
      </trkpt>
      <trkpt lat="47.50742" lon="6.73549">
        <ele>352.3</ele>
        <time>2014-11-09T08:52:11.000Z</time>
      </trkpt>
      <trkpt lat="47.50748" lon="6.73547">
        <ele>351.7</ele>
        <time>2014-11-09T08:52:12.000Z</time>
      </trkpt>
      <trkpt lat="47.50753" lon="6.73544">
        <ele>351.4</ele>
        <time>2014-11-09T08:52:13.000Z</time>
      </trkpt>
      <trkpt lat="47.50758" lon="6.73541">
        <ele>351.2</ele>
        <time>2014-11-09T08:52:14.000Z</time>
      </trkpt>
      <trkpt lat="47.50763" lon="6.73538">
        <ele>350.8</ele>
        <time>2014-11-09T08:52:15.000Z</time>
      </trkpt>
      <trkpt lat="47.50769" lon="6.73536">
        <ele>350.7</ele>
        <time>2014-11-09T08:52:16.000Z</time>
      </trkpt>
      <trkpt lat="47.50774" lon="6.73534">
        <ele>350.8</ele>
        <time>2014-11-09T08:52:17.000Z</time>
      </trkpt>
      <trkpt lat="47.5078" lon="6.73533">
        <ele>350.7</ele>
        <time>2014-11-09T08:52:18.000Z</time>
      </trkpt>
      <trkpt lat="47.50786" lon="6.73534">
        <ele>350.5</ele>
        <time>2014-11-09T08:52:19.000Z</time>
      </trkpt>
      <trkpt lat="47.50792" lon="6.73533">
        <ele>351</ele>
        <time>2014-11-09T08:52:20.000Z</time>
      </trkpt>
      <trkpt lat="47.50798" lon="6.73531">
        <ele>351.6</ele>
        <time>2014-11-09T08:52:21.000Z</time>
      </trkpt>
      <trkpt lat="47.50803" lon="6.73532">
        <ele>351.6</ele>
        <time>2014-11-09T08:52:22.000Z</time>
      </trkpt>
      <trkpt lat="47.50808" lon="6.73534">
        <ele>351.4</ele>
        <time>2014-11-09T08:52:23.000Z</time>
      </trkpt>
      <trkpt lat="47.50813" lon="6.73536">
        <ele>351.3</ele>
        <time>2014-11-09T08:52:24.000Z</time>
      </trkpt>
      <trkpt lat="47.50818" lon="6.73539">
        <ele>352</ele>
        <time>2014-11-09T08:52:25.000Z</time>
      </trkpt>
      <trkpt lat="47.50823" lon="6.73543">
        <ele>351.9</ele>
        <time>2014-11-09T08:52:26.000Z</time>
      </trkpt>
      <trkpt lat="47.50829" lon="6.73548">
        <ele>352.3</ele>
        <time>2014-11-09T08:52:27.000Z</time>
      </trkpt>
      <trkpt lat="47.50833" lon="6.73552">
        <ele>351.9</ele>
        <time>2014-11-09T08:52:28.000Z</time>
      </trkpt>
      <trkpt lat="47.50835" lon="6.73554">
        <ele>352.2</ele>
        <time>2014-11-09T08:52:29.000Z</time>
      </trkpt>
      <trkpt lat="47.50838" lon="6.73558">
        <ele>352.5</ele>
        <time>2014-11-09T08:52:30.000Z</time>
      </trkpt>
      <trkpt lat="47.5084" lon="6.73559">
        <ele>352.5</ele>
        <time>2014-11-09T08:52:31.000Z</time>
      </trkpt>
      <trkpt lat="47.50843" lon="6.73565">
        <ele>352.6</ele>
        <time>2014-11-09T08:52:32.000Z</time>
      </trkpt>
      <trkpt lat="47.50847" lon="6.73571">
        <ele>352.1</ele>
        <time>2014-11-09T08:52:33.000Z</time>
      </trkpt>
      <trkpt lat="47.50853" lon="6.73577">
        <ele>351.8</ele>
        <time>2014-11-09T08:52:34.000Z</time>
      </trkpt>
      <trkpt lat="47.50857" lon="6.73584">
        <ele>351.3</ele>
        <time>2014-11-09T08:52:35.000Z</time>
      </trkpt>
      <trkpt lat="47.5086" lon="6.73591">
        <ele>350.6</ele>
        <time>2014-11-09T08:52:36.000Z</time>
      </trkpt>
      <trkpt lat="47.50864" lon="6.73597">
        <ele>350</ele>
        <time>2014-11-09T08:52:37.000Z</time>
      </trkpt>
      <trkpt lat="47.50867" lon="6.73604">
        <ele>350.1</ele>
        <time>2014-11-09T08:52:38.000Z</time>
      </trkpt>
      <trkpt lat="47.50871" lon="6.7361">
        <ele>349.6</ele>
        <time>2014-11-09T08:52:39.000Z</time>
      </trkpt>
      <trkpt lat="47.50874" lon="6.73615">
        <ele>349.8</ele>
        <time>2014-11-09T08:52:40.000Z</time>
      </trkpt>
      <trkpt lat="47.50876" lon="6.73616">
        <ele>349.7</ele>
        <time>2014-11-09T08:52:41.000Z</time>
      </trkpt>
      <trkpt lat="47.50882" lon="6.73621">
        <ele>349.5</ele>
        <time>2014-11-09T08:52:42.000Z</time>
      </trkpt>
      <trkpt lat="47.50888" lon="6.73625">
        <ele>348.9</ele>
        <time>2014-11-09T08:52:43.000Z</time>
      </trkpt>
      <trkpt lat="47.50896" lon="6.73628">
        <ele>349</ele>
        <time>2014-11-09T08:52:44.000Z</time>
      </trkpt>
      <trkpt lat="47.50902" lon="6.7363">
        <ele>349.6</ele>
        <time>2014-11-09T08:52:45.000Z</time>
      </trkpt>
      <trkpt lat="47.50908" lon="6.7363">
        <ele>349.6</ele>
        <time>2014-11-09T08:52:46.000Z</time>
      </trkpt>
      <trkpt lat="47.50914" lon="6.73632">
        <ele>350.4</ele>
        <time>2014-11-09T08:52:47.000Z</time>
      </trkpt>
      <trkpt lat="47.5092" lon="6.73633">
        <ele>349.8</ele>
        <time>2014-11-09T08:52:48.000Z</time>
      </trkpt>
      <trkpt lat="47.50927" lon="6.73636">
        <ele>349.8</ele>
        <time>2014-11-09T08:52:49.000Z</time>
      </trkpt>
      <trkpt lat="47.50933" lon="6.73641">
        <ele>349.1</ele>
        <time>2014-11-09T08:52:50.000Z</time>
      </trkpt>
      <trkpt lat="47.50938" lon="6.73645">
        <ele>348.7</ele>
        <time>2014-11-09T08:52:51.000Z</time>
      </trkpt>
      <trkpt lat="47.50943" lon="6.73648">
        <ele>348.7</ele>
        <time>2014-11-09T08:52:52.000Z</time>
      </trkpt>
      <trkpt lat="47.50948" lon="6.7365">
        <ele>348.3</ele>
        <time>2014-11-09T08:52:53.000Z</time>
      </trkpt>
      <trkpt lat="47.50952" lon="6.73652">
        <ele>348.2</ele>
        <time>2014-11-09T08:52:54.000Z</time>
      </trkpt>
      <trkpt lat="47.50956" lon="6.73654">
        <ele>348.4</ele>
        <time>2014-11-09T08:52:55.000Z</time>
      </trkpt>
      <trkpt lat="47.50959" lon="6.73655">
        <ele>348.5</ele>
        <time>2014-11-09T08:52:56.000Z</time>
      </trkpt>
      <trkpt lat="47.50969" lon="6.73658">
        <ele>344.3</ele>
        <time>2014-11-09T08:52:59.000Z</time>
      </trkpt>
      <trkpt lat="47.50972" lon="6.7366">
        <ele>344.4</ele>
        <time>2014-11-09T08:53:00.000Z</time>
      </trkpt>
      <trkpt lat="47.50976" lon="6.73659">
        <ele>343.9</ele>
        <time>2014-11-09T08:53:01.000Z</time>
      </trkpt>
      <trkpt lat="47.50979" lon="6.73661">
        <ele>344.3</ele>
        <time>2014-11-09T08:53:02.000Z</time>
      </trkpt>
      <trkpt lat="47.50982" lon="6.73663">
        <ele>344.8</ele>
        <time>2014-11-09T08:53:03.000Z</time>
      </trkpt>
      <trkpt lat="47.50984" lon="6.73664">
        <ele>345.6</ele>
        <time>2014-11-09T08:53:04.000Z</time>
      </trkpt>
      <trkpt lat="47.50987" lon="6.73666">
        <ele>346.6</ele>
        <time>2014-11-09T08:53:05.000Z</time>
      </trkpt>
      <trkpt lat="47.50989" lon="6.73667">
        <ele>346.6</ele>
        <time>2014-11-09T08:53:06.000Z</time>
      </trkpt>
      <trkpt lat="47.50991" lon="6.73669">
        <ele>347</ele>
        <time>2014-11-09T08:53:07.000Z</time>
      </trkpt>
      <trkpt lat="47.50994" lon="6.7367">
        <ele>346.9</ele>
        <time>2014-11-09T08:53:08.000Z</time>
      </trkpt>
      <trkpt lat="47.50996" lon="6.73671">
        <ele>346.7</ele>
        <time>2014-11-09T08:53:09.000Z</time>
      </trkpt>
      <trkpt lat="47.51" lon="6.73673">
        <ele>348.1</ele>
        <time>2014-11-09T08:53:11.000Z</time>
      </trkpt>
      <trkpt lat="47.51002" lon="6.73674">
        <ele>348.4</ele>
        <time>2014-11-09T08:53:12.000Z</time>
      </trkpt>
      <trkpt lat="47.51005" lon="6.73676">
        <ele>350.2</ele>
        <time>2014-11-09T08:53:14.000Z</time>
      </trkpt>
      <trkpt lat="47.51006" lon="6.73677">
        <ele>351.1</ele>
        <time>2014-11-09T08:53:15.000Z</time>
      </trkpt>
      <trkpt lat="47.5101" lon="6.73679">
        <ele>352.9</ele>
        <time>2014-11-09T08:53:19.000Z</time>
      </trkpt>
      <trkpt lat="47.51011" lon="6.7368">
        <ele>354.2</ele>
        <time>2014-11-09T08:53:20.000Z</time>
      </trkpt>
      <trkpt lat="47.51014" lon="6.73683">
        <ele>361.2</ele>
        <time>2014-11-09T08:53:27.000Z</time>
      </trkpt>
      <trkpt lat="47.51015" lon="6.73684">
        <ele>361.5</ele>
        <time>2014-11-09T08:53:28.000Z</time>
      </trkpt>
      <trkpt lat="47.51019" lon="6.73685">
        <ele>361.2</ele>
        <time>2014-11-09T08:53:31.000Z</time>
      </trkpt>
      <trkpt lat="47.5102" lon="6.73686">
        <ele>360.7</ele>
        <time>2014-11-09T08:53:32.000Z</time>
      </trkpt>
      <trkpt lat="47.51024" lon="6.73688">
        <ele>363.9</ele>
        <time>2014-11-09T08:53:35.000Z</time>
      </trkpt>
      <trkpt lat="47.51025" lon="6.73689">
        <ele>364.3</ele>
        <time>2014-11-09T08:53:36.000Z</time>
      </trkpt>
      <trkpt lat="47.51028" lon="6.7369">
        <ele>364.4</ele>
        <time>2014-11-09T08:53:38.000Z</time>
      </trkpt>
      <trkpt lat="47.5103" lon="6.7369">
        <ele>364.4</ele>
        <time>2014-11-09T08:53:39.000Z</time>
      </trkpt>
      <trkpt lat="47.51034" lon="6.7369">
        <ele>365.1</ele>
        <time>2014-11-09T08:53:41.000Z</time>
      </trkpt>
      <trkpt lat="47.51036" lon="6.7369">
        <ele>365.3</ele>
        <time>2014-11-09T08:53:42.000Z</time>
      </trkpt>
      <trkpt lat="47.51039" lon="6.73692">
        <ele>365.4</ele>
        <time>2014-11-09T08:53:44.000Z</time>
      </trkpt>
      <trkpt lat="47.5104" lon="6.73692">
        <ele>365.4</ele>
        <time>2014-11-09T08:53:45.000Z</time>
      </trkpt>
      <trkpt lat="47.51044" lon="6.73693">
        <ele>366.2</ele>
        <time>2014-11-09T08:53:48.000Z</time>
      </trkpt>
      <trkpt lat="47.51045" lon="6.73693">
        <ele>366.6</ele>
        <time>2014-11-09T08:53:49.000Z</time>
      </trkpt>
      <trkpt lat="47.51048" lon="6.73694">
        <ele>362.8</ele>
        <time>2014-11-09T08:53:51.000Z</time>
      </trkpt>
      <trkpt lat="47.51049" lon="6.73694">
        <ele>362.2</ele>
        <time>2014-11-09T08:53:52.000Z</time>
      </trkpt>
      <trkpt lat="47.51053" lon="6.73695">
        <ele>362</ele>
        <time>2014-11-09T08:53:55.000Z</time>
      </trkpt>
      <trkpt lat="47.51055" lon="6.73695">
        <ele>362.1</ele>
        <time>2014-11-09T08:53:56.000Z</time>
      </trkpt>
      <trkpt lat="47.51056" lon="6.73695">
        <ele>363.3</ele>
        <time>2014-11-09T08:53:57.000Z</time>
      </trkpt>
      <trkpt lat="47.51065" lon="6.73704">
        <ele>345.7</ele>
        <time>2014-11-09T08:54:05.000Z</time>
      </trkpt>
      <trkpt lat="47.51068" lon="6.73706">
        <ele>344.6</ele>
        <time>2014-11-09T08:54:09.000Z</time>
      </trkpt>
      <trkpt lat="47.51069" lon="6.73707">
        <ele>346.1</ele>
        <time>2014-11-09T08:54:10.000Z</time>
      </trkpt>
      <trkpt lat="47.51072" lon="6.7371">
        <ele>346.6</ele>
        <time>2014-11-09T08:54:12.000Z</time>
      </trkpt>
      <trkpt lat="47.51073" lon="6.73712">
        <ele>345.1</ele>
        <time>2014-11-09T08:54:13.000Z</time>
      </trkpt>
      <trkpt lat="47.51074" lon="6.73716">
        <ele>345</ele>
        <time>2014-11-09T08:54:15.000Z</time>
      </trkpt>
      <trkpt lat="47.51075" lon="6.73718">
        <ele>345.3</ele>
        <time>2014-11-09T08:54:16.000Z</time>
      </trkpt>
      <trkpt lat="47.51077" lon="6.73723">
        <ele>346.1</ele>
        <time>2014-11-09T08:54:18.000Z</time>
      </trkpt>
      <trkpt lat="47.51078" lon="6.73725">
        <ele>345.6</ele>
        <time>2014-11-09T08:54:19.000Z</time>
      </trkpt>
      <trkpt lat="47.51081" lon="6.7373">
        <ele>344.3</ele>
        <time>2014-11-09T08:54:21.000Z</time>
      </trkpt>
      <trkpt lat="47.51084" lon="6.73732">
        <ele>344.7</ele>
        <time>2014-11-09T08:54:22.000Z</time>
      </trkpt>
      <trkpt lat="47.51086" lon="6.73733">
        <ele>345.7</ele>
        <time>2014-11-09T08:54:23.000Z</time>
      </trkpt>
      <trkpt lat="47.51089" lon="6.73735">
        <ele>346.6</ele>
        <time>2014-11-09T08:54:24.000Z</time>
      </trkpt>
      <trkpt lat="47.51091" lon="6.73737">
        <ele>346.4</ele>
        <time>2014-11-09T08:54:25.000Z</time>
      </trkpt>
      <trkpt lat="47.51093" lon="6.73739">
        <ele>346.9</ele>
        <time>2014-11-09T08:54:26.000Z</time>
      </trkpt>
      <trkpt lat="47.51095" lon="6.73743">
        <ele>349.4</ele>
        <time>2014-11-09T08:54:28.000Z</time>
      </trkpt>
      <trkpt lat="47.51096" lon="6.73745">
        <ele>350</ele>
        <time>2014-11-09T08:54:29.000Z</time>
      </trkpt>
      <trkpt lat="47.51099" lon="6.73749">
        <ele>351.9</ele>
        <time>2014-11-09T08:54:32.000Z</time>
      </trkpt>
      <trkpt lat="47.511" lon="6.7375">
        <ele>354.1</ele>
        <time>2014-11-09T08:54:33.000Z</time>
      </trkpt>
      <trkpt lat="47.51103" lon="6.73755">
        <ele>358.1</ele>
        <time>2014-11-09T08:54:36.000Z</time>
      </trkpt>
      <trkpt lat="47.51104" lon="6.73757">
        <ele>358.7</ele>
        <time>2014-11-09T08:54:37.000Z</time>
      </trkpt>
      <trkpt lat="47.51106" lon="6.73761">
        <ele>358.2</ele>
        <time>2014-11-09T08:54:40.000Z</time>
      </trkpt>
      <trkpt lat="47.51107" lon="6.73762">
        <ele>358.3</ele>
        <time>2014-11-09T08:54:41.000Z</time>
      </trkpt>
      <trkpt lat="47.51109" lon="6.73766">
        <ele>359.8</ele>
        <time>2014-11-09T08:54:44.000Z</time>
      </trkpt>
      <trkpt lat="47.5111" lon="6.73767">
        <ele>359.9</ele>
        <time>2014-11-09T08:54:45.000Z</time>
      </trkpt>
      <trkpt lat="47.51113" lon="6.73771">
        <ele>361.1</ele>
        <time>2014-11-09T08:54:48.000Z</time>
      </trkpt>
      <trkpt lat="47.51114" lon="6.73772">
        <ele>361.3</ele>
        <time>2014-11-09T08:54:49.000Z</time>
      </trkpt>
      <trkpt lat="47.51117" lon="6.73774">
        <ele>361.9</ele>
        <time>2014-11-09T08:54:52.000Z</time>
      </trkpt>
      <trkpt lat="47.51119" lon="6.73775">
        <ele>362.3</ele>
        <time>2014-11-09T08:54:53.000Z</time>
      </trkpt>
      <trkpt lat="47.51121" lon="6.73778">
        <ele>365</ele>
        <time>2014-11-09T08:54:55.000Z</time>
      </trkpt>
      <trkpt lat="47.51124" lon="6.73781">
        <ele>356.4</ele>
        <time>2014-11-09T08:54:58.000Z</time>
      </trkpt>
      <trkpt lat="47.51128" lon="6.73781">
        <ele>357.7</ele>
        <time>2014-11-09T08:55:01.000Z</time>
      </trkpt>
      <trkpt lat="47.5113" lon="6.73782">
        <ele>358.5</ele>
        <time>2014-11-09T08:55:02.000Z</time>
      </trkpt>
      <trkpt lat="47.51132" lon="6.73784">
        <ele>360.9</ele>
        <time>2014-11-09T08:55:04.000Z</time>
      </trkpt>
      <trkpt lat="47.51134" lon="6.73785">
        <ele>361.8</ele>
        <time>2014-11-09T08:55:05.000Z</time>
      </trkpt>
      <trkpt lat="47.51138" lon="6.73787">
        <ele>362</ele>
        <time>2014-11-09T08:55:09.000Z</time>
      </trkpt>
      <trkpt lat="47.51138" lon="6.73787">
        <ele>362.2</ele>
        <time>2014-11-09T08:55:10.000Z</time>
      </trkpt>
      <trkpt lat="47.51142" lon="6.73789">
        <ele>363.7</ele>
        <time>2014-11-09T08:55:20.000Z</time>
      </trkpt>
      <trkpt lat="47.51142" lon="6.7379">
        <ele>364.9</ele>
        <time>2014-11-09T08:55:21.000Z</time>
      </trkpt>
      <trkpt lat="47.51146" lon="6.73794">
        <ele>366.6</ele>
        <time>2014-11-09T08:55:24.000Z</time>
      </trkpt>
      <trkpt lat="47.51147" lon="6.73795">
        <ele>368.5</ele>
        <time>2014-11-09T08:55:25.000Z</time>
      </trkpt>
      <trkpt lat="47.5115" lon="6.73798">
        <ele>369.1</ele>
        <time>2014-11-09T08:55:28.000Z</time>
      </trkpt>
      <trkpt lat="47.51151" lon="6.73799">
        <ele>370.4</ele>
        <time>2014-11-09T08:55:29.000Z</time>
      </trkpt>
      <trkpt lat="47.51154" lon="6.73801">
        <ele>372</ele>
        <time>2014-11-09T08:55:31.000Z</time>
      </trkpt>
      <trkpt lat="47.51156" lon="6.73803">
        <ele>374.2</ele>
        <time>2014-11-09T08:55:32.000Z</time>
      </trkpt>
      <trkpt lat="47.51158" lon="6.73806">
        <ele>374.6</ele>
        <time>2014-11-09T08:55:34.000Z</time>
      </trkpt>
      <trkpt lat="47.5116" lon="6.73807">
        <ele>375.7</ele>
        <time>2014-11-09T08:55:35.000Z</time>
      </trkpt>
      <trkpt lat="47.51163" lon="6.73811">
        <ele>376</ele>
        <time>2014-11-09T08:55:38.000Z</time>
      </trkpt>
      <trkpt lat="47.51164" lon="6.73811">
        <ele>377.9</ele>
        <time>2014-11-09T08:55:39.000Z</time>
      </trkpt>
      <trkpt lat="47.51166" lon="6.73814">
        <ele>379.4</ele>
        <time>2014-11-09T08:55:42.000Z</time>
      </trkpt>
      <trkpt lat="47.51168" lon="6.73815">
        <ele>379.2</ele>
        <time>2014-11-09T08:55:43.000Z</time>
      </trkpt>
      <trkpt lat="47.51171" lon="6.73818">
        <ele>382.4</ele>
        <time>2014-11-09T08:55:45.000Z</time>
      </trkpt>
      <trkpt lat="47.51172" lon="6.73819">
        <ele>383.1</ele>
        <time>2014-11-09T08:55:46.000Z</time>
      </trkpt>
      <trkpt lat="47.51175" lon="6.73823">
        <ele>386.4</ele>
        <time>2014-11-09T08:55:48.000Z</time>
      </trkpt>
      <trkpt lat="47.51176" lon="6.73825">
        <ele>387.5</ele>
        <time>2014-11-09T08:55:49.000Z</time>
      </trkpt>
      <trkpt lat="47.51178" lon="6.73828">
        <ele>389.8</ele>
        <time>2014-11-09T08:55:51.000Z</time>
      </trkpt>
      <trkpt lat="47.5118" lon="6.7383">
        <ele>389.9</ele>
        <time>2014-11-09T08:55:52.000Z</time>
      </trkpt>
      <trkpt lat="47.51183" lon="6.73833">
        <ele>390.8</ele>
        <time>2014-11-09T08:55:54.000Z</time>
      </trkpt>
      <trkpt lat="47.51185" lon="6.73834">
        <ele>391.9</ele>
        <time>2014-11-09T08:55:55.000Z</time>
      </trkpt>
      <trkpt lat="47.51189" lon="6.73833">
        <ele>383.5</ele>
        <time>2014-11-09T08:55:58.000Z</time>
      </trkpt>
      <trkpt lat="47.5119" lon="6.73833">
        <ele>384.4</ele>
        <time>2014-11-09T08:55:59.000Z</time>
      </trkpt>
      <trkpt lat="47.51194" lon="6.73836">
        <ele>386.2</ele>
        <time>2014-11-09T08:56:02.000Z</time>
      </trkpt>
      <trkpt lat="47.51195" lon="6.73837">
        <ele>385.9</ele>
        <time>2014-11-09T08:56:03.000Z</time>
      </trkpt>
      <trkpt lat="47.51199" lon="6.73838">
        <ele>385.1</ele>
        <time>2014-11-09T08:56:06.000Z</time>
      </trkpt>
      <trkpt lat="47.51201" lon="6.73838">
        <ele>385.2</ele>
        <time>2014-11-09T08:56:07.000Z</time>
      </trkpt>
      <trkpt lat="47.51205" lon="6.73838">
        <ele>384.8</ele>
        <time>2014-11-09T08:56:11.000Z</time>
      </trkpt>
      <trkpt lat="47.51206" lon="6.73838">
        <ele>384.5</ele>
        <time>2014-11-09T08:56:12.000Z</time>
      </trkpt>
      <trkpt lat="47.5121" lon="6.7384">
        <ele>389.2</ele>
        <time>2014-11-09T08:56:15.000Z</time>
      </trkpt>
      <trkpt lat="47.51212" lon="6.73841">
        <ele>389.8</ele>
        <time>2014-11-09T08:56:16.000Z</time>
      </trkpt>
      <trkpt lat="47.51216" lon="6.73843">
        <ele>389.1</ele>
        <time>2014-11-09T08:56:19.000Z</time>
      </trkpt>
      <trkpt lat="47.51217" lon="6.73843">
        <ele>388.8</ele>
        <time>2014-11-09T08:56:20.000Z</time>
      </trkpt>
      <trkpt lat="47.51221" lon="6.73845">
        <ele>388.9</ele>
        <time>2014-11-09T08:56:23.000Z</time>
      </trkpt>
      <trkpt lat="47.51222" lon="6.73846">
        <ele>388.5</ele>
        <time>2014-11-09T08:56:24.000Z</time>
      </trkpt>
      <trkpt lat="47.51225" lon="6.73849">
        <ele>387.6</ele>
        <time>2014-11-09T08:56:27.000Z</time>
      </trkpt>
      <trkpt lat="47.51227" lon="6.7385">
        <ele>388</ele>
        <time>2014-11-09T08:56:28.000Z</time>
      </trkpt>
      <trkpt lat="47.5123" lon="6.73853">
        <ele>389.2</ele>
        <time>2014-11-09T08:56:30.000Z</time>
      </trkpt>
      <trkpt lat="47.51232" lon="6.73853">
        <ele>390.9</ele>
        <time>2014-11-09T08:56:31.000Z</time>
      </trkpt>
      <trkpt lat="47.51236" lon="6.73854">
        <ele>389.7</ele>
        <time>2014-11-09T08:56:33.000Z</time>
      </trkpt>
      <trkpt lat="47.51238" lon="6.73854">
        <ele>389.2</ele>
        <time>2014-11-09T08:56:34.000Z</time>
      </trkpt>
      <trkpt lat="47.51241" lon="6.73855">
        <ele>387.8</ele>
        <time>2014-11-09T08:56:36.000Z</time>
      </trkpt>
      <trkpt lat="47.51243" lon="6.73856">
        <ele>387.6</ele>
        <time>2014-11-09T08:56:37.000Z</time>
      </trkpt>
      <trkpt lat="47.51247" lon="6.73858">
        <ele>384.2</ele>
        <time>2014-11-09T08:56:39.000Z</time>
      </trkpt>
      <trkpt lat="47.51248" lon="6.73859">
        <ele>383.9</ele>
        <time>2014-11-09T08:56:40.000Z</time>
      </trkpt>
      <trkpt lat="47.51252" lon="6.73862">
        <ele>383.8</ele>
        <time>2014-11-09T08:56:42.000Z</time>
      </trkpt>
      <trkpt lat="47.51254" lon="6.73863">
        <ele>384.1</ele>
        <time>2014-11-09T08:56:43.000Z</time>
      </trkpt>
      <trkpt lat="47.51257" lon="6.73866">
        <ele>387.4</ele>
        <time>2014-11-09T08:56:45.000Z</time>
      </trkpt>
      <trkpt lat="47.51259" lon="6.73867">
        <ele>387.2</ele>
        <time>2014-11-09T08:56:46.000Z</time>
      </trkpt>
      <trkpt lat="47.51262" lon="6.7387">
        <ele>387.6</ele>
        <time>2014-11-09T08:56:48.000Z</time>
      </trkpt>
      <trkpt lat="47.51264" lon="6.73871">
        <ele>387.2</ele>
        <time>2014-11-09T08:56:49.000Z</time>
      </trkpt>
      <trkpt lat="47.51267" lon="6.73874">
        <ele>382.2</ele>
        <time>2014-11-09T08:56:51.000Z</time>
      </trkpt>
      <trkpt lat="47.51269" lon="6.73876">
        <ele>381.9</ele>
        <time>2014-11-09T08:56:52.000Z</time>
      </trkpt>
      <trkpt lat="47.51272" lon="6.73877">
        <ele>381.6</ele>
        <time>2014-11-09T08:56:53.000Z</time>
      </trkpt>
      <trkpt lat="47.51276" lon="6.7388">
        <ele>381.7</ele>
        <time>2014-11-09T08:56:54.000Z</time>
      </trkpt>
      <trkpt lat="47.5128" lon="6.73883">
        <ele>374.1</ele>
        <time>2014-11-09T08:56:59.000Z</time>
      </trkpt>
      <trkpt lat="47.5128" lon="6.73883">
        <ele>374.1</ele>
        <time>2014-11-09T08:57:00.000Z</time>
      </trkpt>
      <trkpt lat="47.51284" lon="6.73885">
        <ele>375.5</ele>
        <time>2014-11-09T08:57:19.000Z</time>
      </trkpt>
      <trkpt lat="47.51285" lon="6.73884">
        <ele>375.8</ele>
        <time>2014-11-09T08:57:20.000Z</time>
      </trkpt>
      <trkpt lat="47.51288" lon="6.73883">
        <ele>375.6</ele>
        <time>2014-11-09T08:57:22.000Z</time>
      </trkpt>
      <trkpt lat="47.51292" lon="6.73883">
        <ele>374.9</ele>
        <time>2014-11-09T08:57:23.000Z</time>
      </trkpt>
      <trkpt lat="47.51295" lon="6.73883">
        <ele>375.8</ele>
        <time>2014-11-09T08:57:24.000Z</time>
      </trkpt>
      <trkpt lat="47.51297" lon="6.73883">
        <ele>376.3</ele>
        <time>2014-11-09T08:57:25.000Z</time>
      </trkpt>
      <trkpt lat="47.51301" lon="6.73881">
        <ele>376.8</ele>
        <time>2014-11-09T08:57:29.000Z</time>
      </trkpt>
      <trkpt lat="47.51302" lon="6.7388">
        <ele>377.4</ele>
        <time>2014-11-09T08:57:30.000Z</time>
      </trkpt>
      <trkpt lat="47.51304" lon="6.73876">
        <ele>378.6</ele>
        <time>2014-11-09T08:57:34.000Z</time>
      </trkpt>
      <trkpt lat="47.51305" lon="6.73874">
        <ele>378.9</ele>
        <time>2014-11-09T08:57:35.000Z</time>
      </trkpt>
      <trkpt lat="47.51307" lon="6.73868">
        <ele>379.8</ele>
        <time>2014-11-09T08:57:37.000Z</time>
      </trkpt>
      <trkpt lat="47.51308" lon="6.73865">
        <ele>379.8</ele>
        <time>2014-11-09T08:57:38.000Z</time>
      </trkpt>
      <trkpt lat="47.51309" lon="6.73862">
        <ele>380</ele>
        <time>2014-11-09T08:57:39.000Z</time>
      </trkpt>
      <trkpt lat="47.51311" lon="6.7386">
        <ele>380.9</ele>
        <time>2014-11-09T08:57:40.000Z</time>
      </trkpt>
      <trkpt lat="47.51312" lon="6.73857">
        <ele>381.7</ele>
        <time>2014-11-09T08:57:41.000Z</time>
      </trkpt>
      <trkpt lat="47.51314" lon="6.73855">
        <ele>382.1</ele>
        <time>2014-11-09T08:57:42.000Z</time>
      </trkpt>
      <trkpt lat="47.51315" lon="6.73852">
        <ele>382.4</ele>
        <time>2014-11-09T08:57:43.000Z</time>
      </trkpt>
      <trkpt lat="47.51317" lon="6.73849">
        <ele>382.3</ele>
        <time>2014-11-09T08:57:44.000Z</time>
      </trkpt>
      <trkpt lat="47.51318" lon="6.73846">
        <ele>382.3</ele>
        <time>2014-11-09T08:57:45.000Z</time>
      </trkpt>
      <trkpt lat="47.51319" lon="6.73843">
        <ele>381.6</ele>
        <time>2014-11-09T08:57:46.000Z</time>
      </trkpt>
      <trkpt lat="47.51319" lon="6.73837">
        <ele>386.7</ele>
        <time>2014-11-09T08:57:48.000Z</time>
      </trkpt>
      <trkpt lat="47.5132" lon="6.73833">
        <ele>389.1</ele>
        <time>2014-11-09T08:57:49.000Z</time>
      </trkpt>
      <trkpt lat="47.51321" lon="6.7383">
        <ele>394.2</ele>
        <time>2014-11-09T08:57:50.000Z</time>
      </trkpt>
      <trkpt lat="47.51322" lon="6.73826">
        <ele>395.3</ele>
        <time>2014-11-09T08:57:51.000Z</time>
      </trkpt>
      <trkpt lat="47.51323" lon="6.73823">
        <ele>396.2</ele>
        <time>2014-11-09T08:57:52.000Z</time>
      </trkpt>
      <trkpt lat="47.51323" lon="6.7382">
        <ele>396.5</ele>
        <time>2014-11-09T08:57:53.000Z</time>
      </trkpt>
      <trkpt lat="47.51324" lon="6.73814">
        <ele>397.9</ele>
        <time>2014-11-09T08:57:55.000Z</time>
      </trkpt>
      <trkpt lat="47.51325" lon="6.73811">
        <ele>397.8</ele>
        <time>2014-11-09T08:57:56.000Z</time>
      </trkpt>
      <trkpt lat="47.51325" lon="6.73808">
        <ele>384.4</ele>
        <time>2014-11-09T08:57:57.739Z</time>
      </trkpt>
      <trkpt lat="47.51327" lon="6.73799">
        <ele>384.7</ele>
        <time>2014-11-09T08:58:02.000Z</time>
      </trkpt>
      <trkpt lat="47.51329" lon="6.73796">
        <ele>387.9</ele>
        <time>2014-11-09T08:58:03.000Z</time>
      </trkpt>
      <trkpt lat="47.51331" lon="6.73792">
        <ele>393.9</ele>
        <time>2014-11-09T08:58:04.000Z</time>
      </trkpt>
      <trkpt lat="47.51334" lon="6.73788">
        <ele>396</ele>
        <time>2014-11-09T08:58:05.000Z</time>
      </trkpt>
      <trkpt lat="47.51337" lon="6.73785">
        <ele>397.3</ele>
        <time>2014-11-09T08:58:06.000Z</time>
      </trkpt>
      <trkpt lat="47.51339" lon="6.73782">
        <ele>397.3</ele>
        <time>2014-11-09T08:58:07.000Z</time>
      </trkpt>
      <trkpt lat="47.51342" lon="6.73779">
        <ele>396.5</ele>
        <time>2014-11-09T08:58:08.000Z</time>
      </trkpt>
      <trkpt lat="47.51345" lon="6.73776">
        <ele>396.4</ele>
        <time>2014-11-09T08:58:09.000Z</time>
      </trkpt>
      <trkpt lat="47.51347" lon="6.73773">
        <ele>396.9</ele>
        <time>2014-11-09T08:58:10.000Z</time>
      </trkpt>
      <trkpt lat="47.51349" lon="6.73769">
        <ele>397.2</ele>
        <time>2014-11-09T08:58:11.000Z</time>
      </trkpt>
      <trkpt lat="47.51349" lon="6.73765">
        <ele>397.2</ele>
        <time>2014-11-09T08:58:12.000Z</time>
      </trkpt>
      <trkpt lat="47.51349" lon="6.73761">
        <ele>397.2</ele>
        <time>2014-11-09T08:58:13.000Z</time>
      </trkpt>
      <trkpt lat="47.51349" lon="6.73756">
        <ele>396.9</ele>
        <time>2014-11-09T08:58:14.000Z</time>
      </trkpt>
      <trkpt lat="47.51348" lon="6.73752">
        <ele>397</ele>
        <time>2014-11-09T08:58:15.000Z</time>
      </trkpt>
      <trkpt lat="47.51349" lon="6.73749">
        <ele>401.2</ele>
        <time>2014-11-09T08:58:16.000Z</time>
      </trkpt>
      <trkpt lat="47.5135" lon="6.73745">
        <ele>400.6</ele>
        <time>2014-11-09T08:58:17.000Z</time>
      </trkpt>
      <trkpt lat="47.51352" lon="6.73742">
        <ele>402</ele>
        <time>2014-11-09T08:58:18.000Z</time>
      </trkpt>
      <trkpt lat="47.51354" lon="6.73736">
        <ele>402.7</ele>
        <time>2014-11-09T08:58:20.000Z</time>
      </trkpt>
      <trkpt lat="47.51355" lon="6.73734">
        <ele>403.2</ele>
        <time>2014-11-09T08:58:21.000Z</time>
      </trkpt>
      <trkpt lat="47.51356" lon="6.73729">
        <ele>404</ele>
        <time>2014-11-09T08:58:23.000Z</time>
      </trkpt>
      <trkpt lat="47.51357" lon="6.73727">
        <ele>404.2</ele>
        <time>2014-11-09T08:58:24.000Z</time>
      </trkpt>
      <trkpt lat="47.51359" lon="6.73723">
        <ele>404.8</ele>
        <time>2014-11-09T08:58:26.000Z</time>
      </trkpt>
      <trkpt lat="47.51362" lon="6.73721">
        <ele>406.7</ele>
        <time>2014-11-09T08:58:27.000Z</time>
      </trkpt>
      <trkpt lat="47.51364" lon="6.73719">
        <ele>408.1</ele>
        <time>2014-11-09T08:58:28.000Z</time>
      </trkpt>
      <trkpt lat="47.51367" lon="6.73717">
        <ele>408.7</ele>
        <time>2014-11-09T08:58:29.000Z</time>
      </trkpt>
      <trkpt lat="47.51369" lon="6.73716">
        <ele>409.3</ele>
        <time>2014-11-09T08:58:30.000Z</time>
      </trkpt>
      <trkpt lat="47.51372" lon="6.73714">
        <ele>409.5</ele>
        <time>2014-11-09T08:58:31.000Z</time>
      </trkpt>
      <trkpt lat="47.51375" lon="6.7371">
        <ele>409.2</ele>
        <time>2014-11-09T08:58:33.000Z</time>
      </trkpt>
      <trkpt lat="47.51376" lon="6.73708">
        <ele>409.3</ele>
        <time>2014-11-09T08:58:34.000Z</time>
      </trkpt>
      <trkpt lat="47.51377" lon="6.73705">
        <ele>410.5</ele>
        <time>2014-11-09T08:58:35.000Z</time>
      </trkpt>
      <trkpt lat="47.51378" lon="6.73702">
        <ele>408.2</ele>
        <time>2014-11-09T08:58:36.000Z</time>
      </trkpt>
      <trkpt lat="47.51379" lon="6.73698">
        <ele>407.9</ele>
        <time>2014-11-09T08:58:37.000Z</time>
      </trkpt>
      <trkpt lat="47.5138" lon="6.73695">
        <ele>407.4</ele>
        <time>2014-11-09T08:58:38.000Z</time>
      </trkpt>
      <trkpt lat="47.51382" lon="6.73691">
        <ele>404.6</ele>
        <time>2014-11-09T08:58:39.000Z</time>
      </trkpt>
      <trkpt lat="47.51383" lon="6.73687">
        <ele>404</ele>
        <time>2014-11-09T08:58:40.000Z</time>
      </trkpt>
      <trkpt lat="47.51384" lon="6.73683">
        <ele>404.5</ele>
        <time>2014-11-09T08:58:41.000Z</time>
      </trkpt>
      <trkpt lat="47.51385" lon="6.73679">
        <ele>404.5</ele>
        <time>2014-11-09T08:58:42.000Z</time>
      </trkpt>
      <trkpt lat="47.51386" lon="6.73674">
        <ele>406.4</ele>
        <time>2014-11-09T08:58:43.000Z</time>
      </trkpt>
      <trkpt lat="47.51387" lon="6.7367">
        <ele>406.4</ele>
        <time>2014-11-09T08:58:44.000Z</time>
      </trkpt>
      <trkpt lat="47.51388" lon="6.73665">
        <ele>407.9</ele>
        <time>2014-11-09T08:58:45.000Z</time>
      </trkpt>
      <trkpt lat="47.51389" lon="6.73661">
        <ele>407.3</ele>
        <time>2014-11-09T08:58:46.000Z</time>
      </trkpt>
      <trkpt lat="47.5139" lon="6.73657">
        <ele>407</ele>
        <time>2014-11-09T08:58:47.000Z</time>
      </trkpt>
      <trkpt lat="47.5139" lon="6.73653">
        <ele>407.2</ele>
        <time>2014-11-09T08:58:48.000Z</time>
      </trkpt>
      <trkpt lat="47.51391" lon="6.73649">
        <ele>407.3</ele>
        <time>2014-11-09T08:58:49.000Z</time>
      </trkpt>
      <trkpt lat="47.51391" lon="6.73645">
        <ele>405.4</ele>
        <time>2014-11-09T08:58:50.000Z</time>
      </trkpt>
      <trkpt lat="47.51393" lon="6.73641">
        <ele>403.3</ele>
        <time>2014-11-09T08:58:51.000Z</time>
      </trkpt>
      <trkpt lat="47.51395" lon="6.73636">
        <ele>403.9</ele>
        <time>2014-11-09T08:58:52.000Z</time>
      </trkpt>
      <trkpt lat="47.51397" lon="6.73632">
        <ele>403.8</ele>
        <time>2014-11-09T08:58:53.000Z</time>
      </trkpt>
      <trkpt lat="47.51399" lon="6.73628">
        <ele>405.9</ele>
        <time>2014-11-09T08:58:54.000Z</time>
      </trkpt>
      <trkpt lat="47.514" lon="6.73623">
        <ele>406.7</ele>
        <time>2014-11-09T08:58:55.000Z</time>
      </trkpt>
      <trkpt lat="47.51401" lon="6.73618">
        <ele>407.6</ele>
        <time>2014-11-09T08:58:56.000Z</time>
      </trkpt>
      <trkpt lat="47.51401" lon="6.73609">
        <ele>395.7</ele>
        <time>2014-11-09T08:58:59.000Z</time>
      </trkpt>
      <trkpt lat="47.51401" lon="6.73606">
        <ele>395.3</ele>
        <time>2014-11-09T08:59:00.000Z</time>
      </trkpt>
      <trkpt lat="47.51401" lon="6.73602">
        <ele>393.3</ele>
        <time>2014-11-09T08:59:01.000Z</time>
      </trkpt>
      <trkpt lat="47.51401" lon="6.73598">
        <ele>392.9</ele>
        <time>2014-11-09T08:59:02.000Z</time>
      </trkpt>
      <trkpt lat="47.51402" lon="6.73593">
        <ele>394.2</ele>
        <time>2014-11-09T08:59:03.000Z</time>
      </trkpt>
      <trkpt lat="47.51402" lon="6.73589">
        <ele>395.1</ele>
        <time>2014-11-09T08:59:04.000Z</time>
      </trkpt>
      <trkpt lat="47.51402" lon="6.73585">
        <ele>395.6</ele>
        <time>2014-11-09T08:59:05.000Z</time>
      </trkpt>
      <trkpt lat="47.51402" lon="6.7358">
        <ele>398.1</ele>
        <time>2014-11-09T08:59:06.000Z</time>
      </trkpt>
      <trkpt lat="47.51402" lon="6.73575">
        <ele>401.1</ele>
        <time>2014-11-09T08:59:07.000Z</time>
      </trkpt>
      <trkpt lat="47.51402" lon="6.73571">
        <ele>403.3</ele>
        <time>2014-11-09T08:59:08.000Z</time>
      </trkpt>
      <trkpt lat="47.51402" lon="6.73566">
        <ele>406.8</ele>
        <time>2014-11-09T08:59:09.000Z</time>
      </trkpt>
      <trkpt lat="47.51403" lon="6.73562">
        <ele>408.9</ele>
        <time>2014-11-09T08:59:10.000Z</time>
      </trkpt>
      <trkpt lat="47.51403" lon="6.73558">
        <ele>409.4</ele>
        <time>2014-11-09T08:59:11.000Z</time>
      </trkpt>
      <trkpt lat="47.51403" lon="6.73554">
        <ele>409.3</ele>
        <time>2014-11-09T08:59:12.000Z</time>
      </trkpt>
      <trkpt lat="47.51404" lon="6.7355">
        <ele>411</ele>
        <time>2014-11-09T08:59:13.000Z</time>
      </trkpt>
      <trkpt lat="47.51404" lon="6.73546">
        <ele>412.1</ele>
        <time>2014-11-09T08:59:14.000Z</time>
      </trkpt>
      <trkpt lat="47.51405" lon="6.73543">
        <ele>412.8</ele>
        <time>2014-11-09T08:59:15.000Z</time>
      </trkpt>
      <trkpt lat="47.51406" lon="6.73538">
        <ele>414.6</ele>
        <time>2014-11-09T08:59:16.000Z</time>
      </trkpt>
      <trkpt lat="47.51406" lon="6.73534">
        <ele>416.4</ele>
        <time>2014-11-09T08:59:17.000Z</time>
      </trkpt>
      <trkpt lat="47.51407" lon="6.73531">
        <ele>416.4</ele>
        <time>2014-11-09T08:59:18.000Z</time>
      </trkpt>
      <trkpt lat="47.51407" lon="6.73527">
        <ele>415.8</ele>
        <time>2014-11-09T08:59:19.000Z</time>
      </trkpt>
      <trkpt lat="47.51407" lon="6.73524">
        <ele>415.4</ele>
        <time>2014-11-09T08:59:20.000Z</time>
      </trkpt>
      <trkpt lat="47.51408" lon="6.7352">
        <ele>414.6</ele>
        <time>2014-11-09T08:59:21.000Z</time>
      </trkpt>
      <trkpt lat="47.51408" lon="6.73517">
        <ele>414</ele>
        <time>2014-11-09T08:59:22.000Z</time>
      </trkpt>
      <trkpt lat="47.51408" lon="6.73513">
        <ele>413.5</ele>
        <time>2014-11-09T08:59:23.000Z</time>
      </trkpt>
      <trkpt lat="47.51409" lon="6.73509">
        <ele>415.4</ele>
        <time>2014-11-09T08:59:24.000Z</time>
      </trkpt>
      <trkpt lat="47.5141" lon="6.73504">
        <ele>415.7</ele>
        <time>2014-11-09T08:59:25.000Z</time>
      </trkpt>
      <trkpt lat="47.5141" lon="6.73499">
        <ele>418.3</ele>
        <time>2014-11-09T08:59:26.000Z</time>
      </trkpt>
      <trkpt lat="47.51411" lon="6.73494">
        <ele>418.9</ele>
        <time>2014-11-09T08:59:27.000Z</time>
      </trkpt>
      <trkpt lat="47.51412" lon="6.73489">
        <ele>419</ele>
        <time>2014-11-09T08:59:28.000Z</time>
      </trkpt>
      <trkpt lat="47.51413" lon="6.73484">
        <ele>420.2</ele>
        <time>2014-11-09T08:59:29.000Z</time>
      </trkpt>
      <trkpt lat="47.51415" lon="6.73479">
        <ele>419.4</ele>
        <time>2014-11-09T08:59:30.000Z</time>
      </trkpt>
      <trkpt lat="47.51416" lon="6.73474">
        <ele>419.1</ele>
        <time>2014-11-09T08:59:31.000Z</time>
      </trkpt>
      <trkpt lat="47.51418" lon="6.7347">
        <ele>419.4</ele>
        <time>2014-11-09T08:59:32.000Z</time>
      </trkpt>
      <trkpt lat="47.51419" lon="6.73465">
        <ele>419.2</ele>
        <time>2014-11-09T08:59:33.000Z</time>
      </trkpt>
      <trkpt lat="47.5142" lon="6.73461">
        <ele>418.5</ele>
        <time>2014-11-09T08:59:34.000Z</time>
      </trkpt>
      <trkpt lat="47.51421" lon="6.73456">
        <ele>417.4</ele>
        <time>2014-11-09T08:59:35.000Z</time>
      </trkpt>
      <trkpt lat="47.51422" lon="6.73451">
        <ele>418.2</ele>
        <time>2014-11-09T08:59:36.000Z</time>
      </trkpt>
      <trkpt lat="47.51423" lon="6.73447">
        <ele>419</ele>
        <time>2014-11-09T08:59:37.000Z</time>
      </trkpt>
      <trkpt lat="47.51423" lon="6.73443">
        <ele>419.1</ele>
        <time>2014-11-09T08:59:38.000Z</time>
      </trkpt>
      <trkpt lat="47.51424" lon="6.73439">
        <ele>418.9</ele>
        <time>2014-11-09T08:59:39.000Z</time>
      </trkpt>
      <trkpt lat="47.51424" lon="6.73435">
        <ele>418.7</ele>
        <time>2014-11-09T08:59:40.000Z</time>
      </trkpt>
      <trkpt lat="47.51425" lon="6.73431">
        <ele>418.6</ele>
        <time>2014-11-09T08:59:41.000Z</time>
      </trkpt>
      <trkpt lat="47.51426" lon="6.73427">
        <ele>418.8</ele>
        <time>2014-11-09T08:59:42.000Z</time>
      </trkpt>
      <trkpt lat="47.51427" lon="6.73423">
        <ele>419.5</ele>
        <time>2014-11-09T08:59:43.000Z</time>
      </trkpt>
      <trkpt lat="47.51427" lon="6.73419">
        <ele>419.7</ele>
        <time>2014-11-09T08:59:44.000Z</time>
      </trkpt>
      <trkpt lat="47.51428" lon="6.73414">
        <ele>420.4</ele>
        <time>2014-11-09T08:59:45.000Z</time>
      </trkpt>
      <trkpt lat="47.51428" lon="6.73409">
        <ele>420.2</ele>
        <time>2014-11-09T08:59:46.000Z</time>
      </trkpt>
      <trkpt lat="47.51429" lon="6.73404">
        <ele>419.7</ele>
        <time>2014-11-09T08:59:47.000Z</time>
      </trkpt>
      <trkpt lat="47.5143" lon="6.73399">
        <ele>419.5</ele>
        <time>2014-11-09T08:59:48.000Z</time>
      </trkpt>
      <trkpt lat="47.5143" lon="6.73395">
        <ele>419</ele>
        <time>2014-11-09T08:59:49.000Z</time>
      </trkpt>
      <trkpt lat="47.51431" lon="6.73391">
        <ele>420</ele>
        <time>2014-11-09T08:59:50.000Z</time>
      </trkpt>
      <trkpt lat="47.51432" lon="6.73387">
        <ele>418.9</ele>
        <time>2014-11-09T08:59:51.000Z</time>
      </trkpt>
      <trkpt lat="47.51434" lon="6.73383">
        <ele>419.5</ele>
        <time>2014-11-09T08:59:52.000Z</time>
      </trkpt>
      <trkpt lat="47.51436" lon="6.7338">
        <ele>418.5</ele>
        <time>2014-11-09T08:59:53.000Z</time>
      </trkpt>
      <trkpt lat="47.51438" lon="6.73377">
        <ele>417.3</ele>
        <time>2014-11-09T08:59:54.000Z</time>
      </trkpt>
      <trkpt lat="47.51439" lon="6.73374">
        <ele>417</ele>
        <time>2014-11-09T08:59:55.000Z</time>
      </trkpt>
      <trkpt lat="47.51442" lon="6.73365">
        <ele>411.2</ele>
        <time>2014-11-09T08:59:58.000Z</time>
      </trkpt>
      <trkpt lat="47.51443" lon="6.73361">
        <ele>411.3</ele>
        <time>2014-11-09T08:59:59.000Z</time>
      </trkpt>
      <trkpt lat="47.51444" lon="6.73357">
        <ele>410.7</ele>
        <time>2014-11-09T09:00:00.000Z</time>
      </trkpt>
      <trkpt lat="47.51444" lon="6.73353">
        <ele>416.6</ele>
        <time>2014-11-09T09:00:01.000Z</time>
      </trkpt>
      <trkpt lat="47.51444" lon="6.73348">
        <ele>417.2</ele>
        <time>2014-11-09T09:00:02.000Z</time>
      </trkpt>
      <trkpt lat="47.51444" lon="6.73344">
        <ele>417.3</ele>
        <time>2014-11-09T09:00:03.000Z</time>
      </trkpt>
      <trkpt lat="47.51443" lon="6.7334">
        <ele>417.1</ele>
        <time>2014-11-09T09:00:04.000Z</time>
      </trkpt>
      <trkpt lat="47.51443" lon="6.73337">
        <ele>417.3</ele>
        <time>2014-11-09T09:00:05.000Z</time>
      </trkpt>
      <trkpt lat="47.51443" lon="6.73334">
        <ele>417.4</ele>
        <time>2014-11-09T09:00:06.000Z</time>
      </trkpt>
      <trkpt lat="47.51444" lon="6.7333">
        <ele>417.5</ele>
        <time>2014-11-09T09:00:07.000Z</time>
      </trkpt>
      <trkpt lat="47.51444" lon="6.73326">
        <ele>417.4</ele>
        <time>2014-11-09T09:00:08.000Z</time>
      </trkpt>
      <trkpt lat="47.51445" lon="6.73322">
        <ele>417.1</ele>
        <time>2014-11-09T09:00:09.000Z</time>
      </trkpt>
      <trkpt lat="47.51445" lon="6.73317">
        <ele>417.2</ele>
        <time>2014-11-09T09:00:10.000Z</time>
      </trkpt>
      <trkpt lat="47.51446" lon="6.73312">
        <ele>417.9</ele>
        <time>2014-11-09T09:00:11.000Z</time>
      </trkpt>
      <trkpt lat="47.51446" lon="6.73307">
        <ele>418.3</ele>
        <time>2014-11-09T09:00:12.000Z</time>
      </trkpt>
      <trkpt lat="47.51447" lon="6.73302">
        <ele>419.3</ele>
        <time>2014-11-09T09:00:13.000Z</time>
      </trkpt>
      <trkpt lat="47.51448" lon="6.73296">
        <ele>418.7</ele>
        <time>2014-11-09T09:00:14.000Z</time>
      </trkpt>
      <trkpt lat="47.51448" lon="6.73289">
        <ele>420.9</ele>
        <time>2014-11-09T09:00:15.000Z</time>
      </trkpt>
      <trkpt lat="47.51448" lon="6.73282">
        <ele>420.9</ele>
        <time>2014-11-09T09:00:16.000Z</time>
      </trkpt>
      <trkpt lat="47.51448" lon="6.73274">
        <ele>422.3</ele>
        <time>2014-11-09T09:00:17.000Z</time>
      </trkpt>
      <trkpt lat="47.51448" lon="6.73267">
        <ele>422.8</ele>
        <time>2014-11-09T09:00:18.000Z</time>
      </trkpt>
      <trkpt lat="47.51449" lon="6.73259">
        <ele>423.2</ele>
        <time>2014-11-09T09:00:19.000Z</time>
      </trkpt>
      <trkpt lat="47.51449" lon="6.73252">
        <ele>423.7</ele>
        <time>2014-11-09T09:00:20.000Z</time>
      </trkpt>
      <trkpt lat="47.51451" lon="6.73245">
        <ele>425</ele>
        <time>2014-11-09T09:00:21.000Z</time>
      </trkpt>
      <trkpt lat="47.51452" lon="6.73238">
        <ele>425.3</ele>
        <time>2014-11-09T09:00:22.000Z</time>
      </trkpt>
      <trkpt lat="47.51453" lon="6.73231">
        <ele>425.4</ele>
        <time>2014-11-09T09:00:23.000Z</time>
      </trkpt>
      <trkpt lat="47.51454" lon="6.73225">
        <ele>424.9</ele>
        <time>2014-11-09T09:00:24.000Z</time>
      </trkpt>
      <trkpt lat="47.51455" lon="6.73218">
        <ele>423.8</ele>
        <time>2014-11-09T09:00:25.000Z</time>
      </trkpt>
      <trkpt lat="47.51456" lon="6.73212">
        <ele>423.1</ele>
        <time>2014-11-09T09:00:26.000Z</time>
      </trkpt>
      <trkpt lat="47.51456" lon="6.73204">
        <ele>423.3</ele>
        <time>2014-11-09T09:00:27.000Z</time>
      </trkpt>
      <trkpt lat="47.51458" lon="6.73172">
        <ele>422.7</ele>
        <time>2014-11-09T09:00:28.000Z</time>
      </trkpt>
      <trkpt lat="47.51457" lon="6.73166">
        <ele>421.6</ele>
        <time>2014-11-09T09:00:29.000Z</time>
      </trkpt>
      <trkpt lat="47.51457" lon="6.73161">
        <ele>421.4</ele>
        <time>2014-11-09T09:00:30.000Z</time>
      </trkpt>
      <trkpt lat="47.51457" lon="6.73157">
        <ele>422.5</ele>
        <time>2014-11-09T09:00:31.000Z</time>
      </trkpt>
      <trkpt lat="47.51457" lon="6.73153">
        <ele>422.9</ele>
        <time>2014-11-09T09:00:32.000Z</time>
      </trkpt>
      <trkpt lat="47.51458" lon="6.73147">
        <ele>421</ele>
        <time>2014-11-09T09:00:34.000Z</time>
      </trkpt>
      <trkpt lat="47.51459" lon="6.73144">
        <ele>419.9</ele>
        <time>2014-11-09T09:00:35.000Z</time>
      </trkpt>
      <trkpt lat="47.5146" lon="6.73138">
        <ele>418.6</ele>
        <time>2014-11-09T09:00:38.000Z</time>
      </trkpt>
      <trkpt lat="47.5146" lon="6.73137">
        <ele>418.2</ele>
        <time>2014-11-09T09:00:39.000Z</time>
      </trkpt>
      <trkpt lat="47.51462" lon="6.73132">
        <ele>416.3</ele>
        <time>2014-11-09T09:00:44.000Z</time>
      </trkpt>
      <trkpt lat="47.51462" lon="6.7313">
        <ele>415</ele>
        <time>2014-11-09T09:00:45.000Z</time>
      </trkpt>
      <trkpt lat="47.51464" lon="6.73125">
        <ele>414.1</ele>
        <time>2014-11-09T09:00:48.000Z</time>
      </trkpt>
      <trkpt lat="47.51464" lon="6.73123">
        <ele>413.5</ele>
        <time>2014-11-09T09:00:49.000Z</time>
      </trkpt>
      <trkpt lat="47.51463" lon="6.73118">
        <ele>409.2</ele>
        <time>2014-11-09T09:00:55.000Z</time>
      </trkpt>
      <trkpt lat="47.51462" lon="6.73117">
        <ele>394.3</ele>
        <time>2014-11-09T09:00:59.000Z</time>
      </trkpt>
      <trkpt lat="47.51461" lon="6.73111">
        <ele>399.5</ele>
        <time>2014-11-09T09:01:24.000Z</time>
      </trkpt>
      <trkpt lat="47.51461" lon="6.73109">
        <ele>401.7</ele>
        <time>2014-11-09T09:01:25.000Z</time>
      </trkpt>
      <trkpt lat="47.5146" lon="6.73104">
        <ele>407</ele>
        <time>2014-11-09T09:01:27.000Z</time>
      </trkpt>
      <trkpt lat="47.51459" lon="6.73101">
        <ele>409.2</ele>
        <time>2014-11-09T09:01:28.000Z</time>
      </trkpt>
      <trkpt lat="47.51458" lon="6.73098">
        <ele>409.7</ele>
        <time>2014-11-09T09:01:29.000Z</time>
      </trkpt>
      <trkpt lat="47.51457" lon="6.73095">
        <ele>410.2</ele>
        <time>2014-11-09T09:01:30.000Z</time>
      </trkpt>
      <trkpt lat="47.51457" lon="6.73091">
        <ele>410.2</ele>
        <time>2014-11-09T09:01:31.000Z</time>
      </trkpt>
      <trkpt lat="47.51456" lon="6.73088">
        <ele>410.8</ele>
        <time>2014-11-09T09:01:32.000Z</time>
      </trkpt>
      <trkpt lat="47.51456" lon="6.73084">
        <ele>410.9</ele>
        <time>2014-11-09T09:01:33.000Z</time>
      </trkpt>
      <trkpt lat="47.51455" lon="6.73081">
        <ele>411</ele>
        <time>2014-11-09T09:01:34.000Z</time>
      </trkpt>
      <trkpt lat="47.51455" lon="6.73075">
        <ele>410.6</ele>
        <time>2014-11-09T09:01:36.000Z</time>
      </trkpt>
      <trkpt lat="47.51455" lon="6.73072">
        <ele>410</ele>
        <time>2014-11-09T09:01:37.000Z</time>
      </trkpt>
      <trkpt lat="47.51455" lon="6.73069">
        <ele>412.7</ele>
        <time>2014-11-09T09:01:38.000Z</time>
      </trkpt>
      <trkpt lat="47.51455" lon="6.73065">
        <ele>413.5</ele>
        <time>2014-11-09T09:01:39.000Z</time>
      </trkpt>
      <trkpt lat="47.51455" lon="6.73059">
        <ele>414.4</ele>
        <time>2014-11-09T09:01:41.000Z</time>
      </trkpt>
      <trkpt lat="47.51455" lon="6.73057">
        <ele>415.8</ele>
        <time>2014-11-09T09:01:42.000Z</time>
      </trkpt>
      <trkpt lat="47.51455" lon="6.7305">
        <ele>416.4</ele>
        <time>2014-11-09T09:01:45.000Z</time>
      </trkpt>
      <trkpt lat="47.51455" lon="6.73048">
        <ele>415.8</ele>
        <time>2014-11-09T09:01:46.000Z</time>
      </trkpt>
      <trkpt lat="47.51453" lon="6.73043">
        <ele>414.7</ele>
        <time>2014-11-09T09:01:50.000Z</time>
      </trkpt>
      <trkpt lat="47.51452" lon="6.73041">
        <ele>414.9</ele>
        <time>2014-11-09T09:01:51.000Z</time>
      </trkpt>
      <trkpt lat="47.51451" lon="6.73036">
        <ele>396.9</ele>
        <time>2014-11-09T09:01:58.000Z</time>
      </trkpt>
      <trkpt lat="47.5145" lon="6.73035">
        <ele>396.7</ele>
        <time>2014-11-09T09:01:59.000Z</time>
      </trkpt>
      <trkpt lat="47.51449" lon="6.7303">
        <ele>398.8</ele>
        <time>2014-11-09T09:02:05.000Z</time>
      </trkpt>
      <trkpt lat="47.51449" lon="6.73028">
        <ele>399.5</ele>
        <time>2014-11-09T09:02:06.000Z</time>
      </trkpt>
      <trkpt lat="47.51448" lon="6.73024">
        <ele>401.5</ele>
        <time>2014-11-09T09:02:08.000Z</time>
      </trkpt>
      <trkpt lat="47.51448" lon="6.73022">
        <ele>398.9</ele>
        <time>2014-11-09T09:02:09.000Z</time>
      </trkpt>
      <trkpt lat="47.51449" lon="6.73016">
        <ele>399.9</ele>
        <time>2014-11-09T09:02:11.000Z</time>
      </trkpt>
      <trkpt lat="47.51449" lon="6.73013">
        <ele>397.2</ele>
        <time>2014-11-09T09:02:12.000Z</time>
      </trkpt>
      <trkpt lat="47.51449" lon="6.73007">
        <ele>397.7</ele>
        <time>2014-11-09T09:02:14.000Z</time>
      </trkpt>
      <trkpt lat="47.51449" lon="6.73004">
        <ele>398.4</ele>
        <time>2014-11-09T09:02:15.000Z</time>
      </trkpt>
      <trkpt lat="47.51449" lon="6.72999">
        <ele>402.8</ele>
        <time>2014-11-09T09:02:17.000Z</time>
      </trkpt>
      <trkpt lat="47.5145" lon="6.72996">
        <ele>404.7</ele>
        <time>2014-11-09T09:02:18.000Z</time>
      </trkpt>
      <trkpt lat="47.51451" lon="6.72991">
        <ele>407</ele>
        <time>2014-11-09T09:02:21.000Z</time>
      </trkpt>
      <trkpt lat="47.51451" lon="6.72988">
        <ele>407.5</ele>
        <time>2014-11-09T09:02:22.000Z</time>
      </trkpt>
      <trkpt lat="47.5145" lon="6.72983">
        <ele>402.2</ele>
        <time>2014-11-09T09:02:24.000Z</time>
      </trkpt>
      <trkpt lat="47.51449" lon="6.7298">
        <ele>400.8</ele>
        <time>2014-11-09T09:02:25.000Z</time>
      </trkpt>
      <trkpt lat="47.51449" lon="6.72976">
        <ele>403.8</ele>
        <time>2014-11-09T09:02:26.000Z</time>
      </trkpt>
      <trkpt lat="47.51448" lon="6.72973">
        <ele>405</ele>
        <time>2014-11-09T09:02:27.000Z</time>
      </trkpt>
      <trkpt lat="47.51447" lon="6.72967">
        <ele>404.8</ele>
        <time>2014-11-09T09:02:29.000Z</time>
      </trkpt>
      <trkpt lat="47.51447" lon="6.72964">
        <ele>406.2</ele>
        <time>2014-11-09T09:02:30.000Z</time>
      </trkpt>
      <trkpt lat="47.51446" lon="6.72958">
        <ele>407.8</ele>
        <time>2014-11-09T09:02:32.000Z</time>
      </trkpt>
      <trkpt lat="47.51446" lon="6.72955">
        <ele>408.3</ele>
        <time>2014-11-09T09:02:33.000Z</time>
      </trkpt>
      <trkpt lat="47.51444" lon="6.72951">
        <ele>419.9</ele>
        <time>2014-11-09T09:02:35.000Z</time>
      </trkpt>
      <trkpt lat="47.51443" lon="6.72949">
        <ele>422.7</ele>
        <time>2014-11-09T09:02:36.000Z</time>
      </trkpt>
      <trkpt lat="47.51441" lon="6.72944">
        <ele>418.1</ele>
        <time>2014-11-09T09:02:38.000Z</time>
      </trkpt>
      <trkpt lat="47.5144" lon="6.72941">
        <ele>416.4</ele>
        <time>2014-11-09T09:02:39.000Z</time>
      </trkpt>
      <trkpt lat="47.51439" lon="6.72937">
        <ele>415</ele>
        <time>2014-11-09T09:02:40.000Z</time>
      </trkpt>
      <trkpt lat="47.51438" lon="6.72934">
        <ele>414.6</ele>
        <time>2014-11-09T09:02:41.000Z</time>
      </trkpt>
      <trkpt lat="47.51436" lon="6.72928">
        <ele>419.4</ele>
        <time>2014-11-09T09:02:43.000Z</time>
      </trkpt>
      <trkpt lat="47.51436" lon="6.72925">
        <ele>419.6</ele>
        <time>2014-11-09T09:02:44.000Z</time>
      </trkpt>
      <trkpt lat="47.51435" lon="6.7292">
        <ele>420.8</ele>
        <time>2014-11-09T09:02:46.000Z</time>
      </trkpt>
      <trkpt lat="47.51435" lon="6.72917">
        <ele>420.6</ele>
        <time>2014-11-09T09:02:47.000Z</time>
      </trkpt>
      <trkpt lat="47.51434" lon="6.72911">
        <ele>420.5</ele>
        <time>2014-11-09T09:02:49.000Z</time>
      </trkpt>
      <trkpt lat="47.51433" lon="6.72908">
        <ele>420.8</ele>
        <time>2014-11-09T09:02:50.000Z</time>
      </trkpt>
      <trkpt lat="47.51431" lon="6.72903">
        <ele>425.4</ele>
        <time>2014-11-09T09:02:52.000Z</time>
      </trkpt>
      <trkpt lat="47.5143" lon="6.72901">
        <ele>426</ele>
        <time>2014-11-09T09:02:53.000Z</time>
      </trkpt>
      <trkpt lat="47.51429" lon="6.72896">
        <ele>425.2</ele>
        <time>2014-11-09T09:02:55.000Z</time>
      </trkpt>
      <trkpt lat="47.51429" lon="6.72894">
        <ele>425.6</ele>
        <time>2014-11-09T09:02:56.000Z</time>
      </trkpt>
      <trkpt lat="47.51424" lon="6.72872">
        <ele>415.8</ele>
        <time>2014-11-09T09:03:04.000Z</time>
      </trkpt>
      <trkpt lat="47.51423" lon="6.72869">
        <ele>416</ele>
        <time>2014-11-09T09:03:05.000Z</time>
      </trkpt>
      <trkpt lat="47.51422" lon="6.72866">
        <ele>415.5</ele>
        <time>2014-11-09T09:03:06.000Z</time>
      </trkpt>
      <trkpt lat="47.5142" lon="6.72863">
        <ele>416.5</ele>
        <time>2014-11-09T09:03:07.000Z</time>
      </trkpt>
      <trkpt lat="47.51419" lon="6.72859">
        <ele>416.3</ele>
        <time>2014-11-09T09:03:08.000Z</time>
      </trkpt>
      <trkpt lat="47.51418" lon="6.72856">
        <ele>414.3</ele>
        <time>2014-11-09T09:03:09.000Z</time>
      </trkpt>
      <trkpt lat="47.51417" lon="6.72852">
        <ele>413.4</ele>
        <time>2014-11-09T09:03:10.000Z</time>
      </trkpt>
      <trkpt lat="47.51416" lon="6.72849">
        <ele>415.5</ele>
        <time>2014-11-09T09:03:11.000Z</time>
      </trkpt>
      <trkpt lat="47.51415" lon="6.72846">
        <ele>416.1</ele>
        <time>2014-11-09T09:03:12.000Z</time>
      </trkpt>
      <trkpt lat="47.51414" lon="6.7284">
        <ele>417.3</ele>
        <time>2014-11-09T09:03:14.000Z</time>
      </trkpt>
      <trkpt lat="47.51413" lon="6.72838">
        <ele>417.9</ele>
        <time>2014-11-09T09:03:15.000Z</time>
      </trkpt>
      <trkpt lat="47.51412" lon="6.72833">
        <ele>421.6</ele>
        <time>2014-11-09T09:03:17.000Z</time>
      </trkpt>
      <trkpt lat="47.51411" lon="6.72829">
        <ele>422.7</ele>
        <time>2014-11-09T09:03:18.000Z</time>
      </trkpt>
      <trkpt lat="47.5141" lon="6.72826">
        <ele>422.3</ele>
        <time>2014-11-09T09:03:19.000Z</time>
      </trkpt>
      <trkpt lat="47.51409" lon="6.72822">
        <ele>422.7</ele>
        <time>2014-11-09T09:03:20.000Z</time>
      </trkpt>
      <trkpt lat="47.51408" lon="6.72818">
        <ele>422</ele>
        <time>2014-11-09T09:03:21.000Z</time>
      </trkpt>
      <trkpt lat="47.51407" lon="6.72815">
        <ele>423</ele>
        <time>2014-11-09T09:03:22.000Z</time>
      </trkpt>
      <trkpt lat="47.51406" lon="6.72811">
        <ele>422.5</ele>
        <time>2014-11-09T09:03:23.000Z</time>
      </trkpt>
      <trkpt lat="47.51405" lon="6.72807">
        <ele>421.6</ele>
        <time>2014-11-09T09:03:24.000Z</time>
      </trkpt>
      <trkpt lat="47.51404" lon="6.72803">
        <ele>422.7</ele>
        <time>2014-11-09T09:03:25.000Z</time>
      </trkpt>
      <trkpt lat="47.51404" lon="6.72799">
        <ele>423</ele>
        <time>2014-11-09T09:03:26.000Z</time>
      </trkpt>
      <trkpt lat="47.51403" lon="6.72795">
        <ele>423.7</ele>
        <time>2014-11-09T09:03:27.000Z</time>
      </trkpt>
      <trkpt lat="47.51403" lon="6.72792">
        <ele>424.4</ele>
        <time>2014-11-09T09:03:28.000Z</time>
      </trkpt>
      <trkpt lat="47.51402" lon="6.72788">
        <ele>424.6</ele>
        <time>2014-11-09T09:03:29.000Z</time>
      </trkpt>
      <trkpt lat="47.51401" lon="6.72784">
        <ele>424.9</ele>
        <time>2014-11-09T09:03:30.000Z</time>
      </trkpt>
      <trkpt lat="47.514" lon="6.7278">
        <ele>425.8</ele>
        <time>2014-11-09T09:03:31.000Z</time>
      </trkpt>
      <trkpt lat="47.514" lon="6.72776">
        <ele>426.6</ele>
        <time>2014-11-09T09:03:32.000Z</time>
      </trkpt>
      <trkpt lat="47.51399" lon="6.72772">
        <ele>427.5</ele>
        <time>2014-11-09T09:03:33.000Z</time>
      </trkpt>
      <trkpt lat="47.51399" lon="6.72768">
        <ele>427.7</ele>
        <time>2014-11-09T09:03:34.000Z</time>
      </trkpt>
      <trkpt lat="47.51399" lon="6.72765">
        <ele>427.1</ele>
        <time>2014-11-09T09:03:35.000Z</time>
      </trkpt>
      <trkpt lat="47.51398" lon="6.72761">
        <ele>426.8</ele>
        <time>2014-11-09T09:03:36.000Z</time>
      </trkpt>
      <trkpt lat="47.51398" lon="6.72757">
        <ele>426.7</ele>
        <time>2014-11-09T09:03:37.000Z</time>
      </trkpt>
      <trkpt lat="47.51397" lon="6.72754">
        <ele>430.5</ele>
        <time>2014-11-09T09:03:38.000Z</time>
      </trkpt>
      <trkpt lat="47.51397" lon="6.7275">
        <ele>429.9</ele>
        <time>2014-11-09T09:03:39.000Z</time>
      </trkpt>
      <trkpt lat="47.51397" lon="6.72746">
        <ele>427.4</ele>
        <time>2014-11-09T09:03:40.000Z</time>
      </trkpt>
      <trkpt lat="47.51397" lon="6.72742">
        <ele>426.1</ele>
        <time>2014-11-09T09:03:41.000Z</time>
      </trkpt>
      <trkpt lat="47.51397" lon="6.72739">
        <ele>426.3</ele>
        <time>2014-11-09T09:03:42.000Z</time>
      </trkpt>
      <trkpt lat="47.51396" lon="6.72733">
        <ele>426.4</ele>
        <time>2014-11-09T09:03:44.000Z</time>
      </trkpt>
      <trkpt lat="47.51395" lon="6.72729">
        <ele>424.8</ele>
        <time>2014-11-09T09:03:45.000Z</time>
      </trkpt>
      <trkpt lat="47.51393" lon="6.72725">
        <ele>425.9</ele>
        <time>2014-11-09T09:03:46.000Z</time>
      </trkpt>
      <trkpt lat="47.51391" lon="6.72721">
        <ele>426.4</ele>
        <time>2014-11-09T09:03:47.000Z</time>
      </trkpt>
      <trkpt lat="47.5139" lon="6.72717">
        <ele>427</ele>
        <time>2014-11-09T09:03:48.000Z</time>
      </trkpt>
      <trkpt lat="47.51388" lon="6.72714">
        <ele>426.8</ele>
        <time>2014-11-09T09:03:49.000Z</time>
      </trkpt>
      <trkpt lat="47.51387" lon="6.72711">
        <ele>427.1</ele>
        <time>2014-11-09T09:03:50.000Z</time>
      </trkpt>
      <trkpt lat="47.51386" lon="6.72708">
        <ele>427.3</ele>
        <time>2014-11-09T09:03:51.000Z</time>
      </trkpt>
      <trkpt lat="47.51383" lon="6.72703">
        <ele>426.9</ele>
        <time>2014-11-09T09:03:53.000Z</time>
      </trkpt>
      <trkpt lat="47.51382" lon="6.727">
        <ele>427.1</ele>
        <time>2014-11-09T09:03:54.000Z</time>
      </trkpt>
      <trkpt lat="47.51381" lon="6.72696">
        <ele>427.4</ele>
        <time>2014-11-09T09:03:55.000Z</time>
      </trkpt>
      <trkpt lat="47.51381" lon="6.72685">
        <ele>420.3</ele>
        <time>2014-11-09T09:03:58.000Z</time>
      </trkpt>
      <trkpt lat="47.51381" lon="6.72682">
        <ele>420.2</ele>
        <time>2014-11-09T09:03:59.000Z</time>
      </trkpt>
      <trkpt lat="47.5138" lon="6.72678">
        <ele>420.8</ele>
        <time>2014-11-09T09:04:00.000Z</time>
      </trkpt>
      <trkpt lat="47.51378" lon="6.72675">
        <ele>420.9</ele>
        <time>2014-11-09T09:04:01.000Z</time>
      </trkpt>
      <trkpt lat="47.51376" lon="6.72672">
        <ele>420.9</ele>
        <time>2014-11-09T09:04:02.000Z</time>
      </trkpt>
      <trkpt lat="47.51374" lon="6.72669">
        <ele>420.6</ele>
        <time>2014-11-09T09:04:03.000Z</time>
      </trkpt>
      <trkpt lat="47.51372" lon="6.72666">
        <ele>419.8</ele>
        <time>2014-11-09T09:04:04.000Z</time>
      </trkpt>
      <trkpt lat="47.51369" lon="6.72662">
        <ele>419.5</ele>
        <time>2014-11-09T09:04:05.000Z</time>
      </trkpt>
      <trkpt lat="47.51367" lon="6.72658">
        <ele>418.8</ele>
        <time>2014-11-09T09:04:06.000Z</time>
      </trkpt>
      <trkpt lat="47.51365" lon="6.72654">
        <ele>420</ele>
        <time>2014-11-09T09:04:07.000Z</time>
      </trkpt>
      <trkpt lat="47.51363" lon="6.72651">
        <ele>419.9</ele>
        <time>2014-11-09T09:04:08.000Z</time>
      </trkpt>
      <trkpt lat="47.51361" lon="6.72648">
        <ele>422.5</ele>
        <time>2014-11-09T09:04:09.000Z</time>
      </trkpt>
      <trkpt lat="47.51359" lon="6.72645">
        <ele>423.7</ele>
        <time>2014-11-09T09:04:10.000Z</time>
      </trkpt>
      <trkpt lat="47.51358" lon="6.72642">
        <ele>424.1</ele>
        <time>2014-11-09T09:04:11.000Z</time>
      </trkpt>
      <trkpt lat="47.51356" lon="6.72639">
        <ele>424.6</ele>
        <time>2014-11-09T09:04:12.000Z</time>
      </trkpt>
      <trkpt lat="47.51354" lon="6.72636">
        <ele>424.9</ele>
        <time>2014-11-09T09:04:13.000Z</time>
      </trkpt>
      <trkpt lat="47.51352" lon="6.72634">
        <ele>426.9</ele>
        <time>2014-11-09T09:04:14.000Z</time>
      </trkpt>
      <trkpt lat="47.5135" lon="6.72632">
        <ele>428.2</ele>
        <time>2014-11-09T09:04:15.000Z</time>
      </trkpt>
      <trkpt lat="47.51348" lon="6.72629">
        <ele>428.8</ele>
        <time>2014-11-09T09:04:16.000Z</time>
      </trkpt>
      <trkpt lat="47.51346" lon="6.72628">
        <ele>429.8</ele>
        <time>2014-11-09T09:04:17.000Z</time>
      </trkpt>
      <trkpt lat="47.51344" lon="6.72626">
        <ele>429.7</ele>
        <time>2014-11-09T09:04:18.000Z</time>
      </trkpt>
      <trkpt lat="47.5134" lon="6.72624">
        <ele>429.5</ele>
        <time>2014-11-09T09:04:20.000Z</time>
      </trkpt>
      <trkpt lat="47.51338" lon="6.72622">
        <ele>429.8</ele>
        <time>2014-11-09T09:04:21.000Z</time>
      </trkpt>
      <trkpt lat="47.51335" lon="6.72618">
        <ele>429.5</ele>
        <time>2014-11-09T09:04:23.000Z</time>
      </trkpt>
      <trkpt lat="47.51333" lon="6.72616">
        <ele>429.9</ele>
        <time>2014-11-09T09:04:24.000Z</time>
      </trkpt>
      <trkpt lat="47.51331" lon="6.72614">
        <ele>430</ele>
        <time>2014-11-09T09:04:25.000Z</time>
      </trkpt>
      <trkpt lat="47.51329" lon="6.72612">
        <ele>429.8</ele>
        <time>2014-11-09T09:04:26.000Z</time>
      </trkpt>
      <trkpt lat="47.51326" lon="6.72609">
        <ele>430.1</ele>
        <time>2014-11-09T09:04:28.000Z</time>
      </trkpt>
      <trkpt lat="47.51324" lon="6.72607">
        <ele>429.9</ele>
        <time>2014-11-09T09:04:29.000Z</time>
      </trkpt>
      <trkpt lat="47.51322" lon="6.72605">
        <ele>429.6</ele>
        <time>2014-11-09T09:04:30.000Z</time>
      </trkpt>
      <trkpt lat="47.5132" lon="6.72603">
        <ele>430.2</ele>
        <time>2014-11-09T09:04:31.000Z</time>
      </trkpt>
      <trkpt lat="47.51318" lon="6.72601">
        <ele>430</ele>
        <time>2014-11-09T09:04:32.000Z</time>
      </trkpt>
      <trkpt lat="47.51316" lon="6.72599">
        <ele>429.7</ele>
        <time>2014-11-09T09:04:33.000Z</time>
      </trkpt>
      <trkpt lat="47.51312" lon="6.72595">
        <ele>429.9</ele>
        <time>2014-11-09T09:04:35.000Z</time>
      </trkpt>
      <trkpt lat="47.5131" lon="6.72594">
        <ele>429.8</ele>
        <time>2014-11-09T09:04:36.000Z</time>
      </trkpt>
      <trkpt lat="47.51308" lon="6.72592">
        <ele>430</ele>
        <time>2014-11-09T09:04:37.000Z</time>
      </trkpt>
      <trkpt lat="47.51306" lon="6.72591">
        <ele>430.9</ele>
        <time>2014-11-09T09:04:38.000Z</time>
      </trkpt>
      <trkpt lat="47.51304" lon="6.72589">
        <ele>430.8</ele>
        <time>2014-11-09T09:04:39.000Z</time>
      </trkpt>
      <trkpt lat="47.51302" lon="6.72587">
        <ele>431</ele>
        <time>2014-11-09T09:04:40.000Z</time>
      </trkpt>
      <trkpt lat="47.51298" lon="6.72584">
        <ele>430</ele>
        <time>2014-11-09T09:04:42.000Z</time>
      </trkpt>
      <trkpt lat="47.51296" lon="6.72582">
        <ele>429.6</ele>
        <time>2014-11-09T09:04:43.000Z</time>
      </trkpt>
      <trkpt lat="47.51292" lon="6.7258">
        <ele>429.9</ele>
        <time>2014-11-09T09:04:45.000Z</time>
      </trkpt>
      <trkpt lat="47.5129" lon="6.72578">
        <ele>430.6</ele>
        <time>2014-11-09T09:04:46.000Z</time>
      </trkpt>
      <trkpt lat="47.51287" lon="6.72577">
        <ele>431.1</ele>
        <time>2014-11-09T09:04:48.000Z</time>
      </trkpt>
      <trkpt lat="47.51286" lon="6.72576">
        <ele>431.6</ele>
        <time>2014-11-09T09:04:49.000Z</time>
      </trkpt>
      <trkpt lat="47.51283" lon="6.72574">
        <ele>383.6</ele>
        <time>2014-11-09T09:05:13.000Z</time>
      </trkpt>
      <trkpt lat="47.51281" lon="6.72575">
        <ele>386.8</ele>
        <time>2014-11-09T09:05:14.000Z</time>
      </trkpt>
      <trkpt lat="47.51278" lon="6.72576">
        <ele>390.1</ele>
        <time>2014-11-09T09:05:16.000Z</time>
      </trkpt>
      <trkpt lat="47.51276" lon="6.72577">
        <ele>391.1</ele>
        <time>2014-11-09T09:05:17.000Z</time>
      </trkpt>
      <trkpt lat="47.51274" lon="6.72578">
        <ele>392.4</ele>
        <time>2014-11-09T09:05:18.000Z</time>
      </trkpt>
      <trkpt lat="47.5127" lon="6.72578">
        <ele>394.6</ele>
        <time>2014-11-09T09:05:19.000Z</time>
      </trkpt>
      <trkpt lat="47.51267" lon="6.72578">
        <ele>397.2</ele>
        <time>2014-11-09T09:05:20.000Z</time>
      </trkpt>
      <trkpt lat="47.51263" lon="6.72577">
        <ele>398.2</ele>
        <time>2014-11-09T09:05:21.000Z</time>
      </trkpt>
      <trkpt lat="47.51262" lon="6.72576">
        <ele>398.7</ele>
        <time>2014-11-09T09:05:21.998Z</time>
      </trkpt>
      <trkpt lat="47.51256" lon="6.72575">
        <ele>401.5</ele>
        <time>2014-11-09T09:05:23.000Z</time>
      </trkpt>
      <trkpt lat="47.51253" lon="6.72574">
        <ele>403.7</ele>
        <time>2014-11-09T09:05:24.000Z</time>
      </trkpt>
      <trkpt lat="47.5125" lon="6.72573">
        <ele>405.9</ele>
        <time>2014-11-09T09:05:25.000Z</time>
      </trkpt>
      <trkpt lat="47.51247" lon="6.72572">
        <ele>407.1</ele>
        <time>2014-11-09T09:05:26.000Z</time>
      </trkpt>
      <trkpt lat="47.51245" lon="6.72571">
        <ele>408.1</ele>
        <time>2014-11-09T09:05:27.000Z</time>
      </trkpt>
      <trkpt lat="47.51242" lon="6.7257">
        <ele>408.5</ele>
        <time>2014-11-09T09:05:28.000Z</time>
      </trkpt>
      <trkpt lat="47.51239" lon="6.7257">
        <ele>408.5</ele>
        <time>2014-11-09T09:05:29.000Z</time>
      </trkpt>
      <trkpt lat="47.51236" lon="6.72569">
        <ele>408.8</ele>
        <time>2014-11-09T09:05:30.000Z</time>
      </trkpt>
      <trkpt lat="47.51233" lon="6.72568">
        <ele>409.9</ele>
        <time>2014-11-09T09:05:31.000Z</time>
      </trkpt>
      <trkpt lat="47.5123" lon="6.72566">
        <ele>411</ele>
        <time>2014-11-09T09:05:32.000Z</time>
      </trkpt>
      <trkpt lat="47.51228" lon="6.72565">
        <ele>411.7</ele>
        <time>2014-11-09T09:05:33.000Z</time>
      </trkpt>
      <trkpt lat="47.51224" lon="6.72562">
        <ele>413.2</ele>
        <time>2014-11-09T09:05:35.000Z</time>
      </trkpt>
      <trkpt lat="47.51223" lon="6.7256">
        <ele>413.2</ele>
        <time>2014-11-09T09:05:36.000Z</time>
      </trkpt>
      <trkpt lat="47.51219" lon="6.72557">
        <ele>415.2</ele>
        <time>2014-11-09T09:05:38.000Z</time>
      </trkpt>
      <trkpt lat="47.51218" lon="6.72556">
        <ele>415.4</ele>
        <time>2014-11-09T09:05:39.000Z</time>
      </trkpt>
      <trkpt lat="47.51214" lon="6.72555">
        <ele>415.8</ele>
        <time>2014-11-09T09:05:42.000Z</time>
      </trkpt>
      <trkpt lat="47.51213" lon="6.72554">
        <ele>415.1</ele>
        <time>2014-11-09T09:05:43.000Z</time>
      </trkpt>
      <trkpt lat="47.51209" lon="6.72553">
        <ele>415.4</ele>
        <time>2014-11-09T09:05:47.000Z</time>
      </trkpt>
      <trkpt lat="47.51208" lon="6.72554">
        <ele>415.6</ele>
        <time>2014-11-09T09:05:48.000Z</time>
      </trkpt>
      <trkpt lat="47.51204" lon="6.72555">
        <ele>414.4</ele>
        <time>2014-11-09T09:05:53.000Z</time>
      </trkpt>
      <trkpt lat="47.51203" lon="6.72555">
        <ele>414</ele>
        <time>2014-11-09T09:05:54.000Z</time>
      </trkpt>
      <trkpt lat="47.51205" lon="6.72559">
        <ele>400.6</ele>
        <time>2014-11-09T09:06:05.000Z</time>
      </trkpt>
      <trkpt lat="47.51207" lon="6.72561">
        <ele>402.8</ele>
        <time>2014-11-09T09:06:06.000Z</time>
      </trkpt>
      <trkpt lat="47.51209" lon="6.72563">
        <ele>403</ele>
        <time>2014-11-09T09:06:07.000Z</time>
      </trkpt>
      <trkpt lat="47.51211" lon="6.72565">
        <ele>403.5</ele>
        <time>2014-11-09T09:06:08.000Z</time>
      </trkpt>
      <trkpt lat="47.51214" lon="6.72567">
        <ele>404.4</ele>
        <time>2014-11-09T09:06:10.000Z</time>
      </trkpt>
      <trkpt lat="47.51215" lon="6.72568">
        <ele>404.7</ele>
        <time>2014-11-09T09:06:11.000Z</time>
      </trkpt>
      <trkpt lat="47.51219" lon="6.72569">
        <ele>410.2</ele>
        <time>2014-11-09T09:06:13.000Z</time>
      </trkpt>
      <trkpt lat="47.51221" lon="6.7257">
        <ele>410.9</ele>
        <time>2014-11-09T09:06:14.000Z</time>
      </trkpt>
      <trkpt lat="47.51224" lon="6.72571">
        <ele>412</ele>
        <time>2014-11-09T09:06:15.000Z</time>
      </trkpt>
      <trkpt lat="47.51226" lon="6.72572">
        <ele>413.9</ele>
        <time>2014-11-09T09:06:16.000Z</time>
      </trkpt>
      <trkpt lat="47.51229" lon="6.72573">
        <ele>414.6</ele>
        <time>2014-11-09T09:06:17.000Z</time>
      </trkpt>
      <trkpt lat="47.51231" lon="6.72574">
        <ele>415.4</ele>
        <time>2014-11-09T09:06:18.000Z</time>
      </trkpt>
      <trkpt lat="47.51235" lon="6.72575">
        <ele>416.5</ele>
        <time>2014-11-09T09:06:20.000Z</time>
      </trkpt>
      <trkpt lat="47.51236" lon="6.72576">
        <ele>417.1</ele>
        <time>2014-11-09T09:06:21.000Z</time>
      </trkpt>
      <trkpt lat="47.5124" lon="6.72577">
        <ele>417.7</ele>
        <time>2014-11-09T09:06:23.000Z</time>
      </trkpt>
      <trkpt lat="47.51242" lon="6.72578">
        <ele>416.1</ele>
        <time>2014-11-09T09:06:24.000Z</time>
      </trkpt>
      <trkpt lat="47.51245" lon="6.72579">
        <ele>418.9</ele>
        <time>2014-11-09T09:06:25.000Z</time>
      </trkpt>
      <trkpt lat="47.51248" lon="6.72581">
        <ele>420.7</ele>
        <time>2014-11-09T09:06:26.000Z</time>
      </trkpt>
      <trkpt lat="47.51251" lon="6.72582">
        <ele>421.7</ele>
        <time>2014-11-09T09:06:27.000Z</time>
      </trkpt>
      <trkpt lat="47.51254" lon="6.72582">
        <ele>422.2</ele>
        <time>2014-11-09T09:06:28.000Z</time>
      </trkpt>
      <trkpt lat="47.51257" lon="6.72583">
        <ele>422.3</ele>
        <time>2014-11-09T09:06:29.000Z</time>
      </trkpt>
      <trkpt lat="47.5126" lon="6.72585">
        <ele>427.3</ele>
        <time>2014-11-09T09:06:30.000Z</time>
      </trkpt>
      <trkpt lat="47.51264" lon="6.72586">
        <ele>429.2</ele>
        <time>2014-11-09T09:06:31.000Z</time>
      </trkpt>
      <trkpt lat="47.51267" lon="6.72588">
        <ele>428.7</ele>
        <time>2014-11-09T09:06:32.000Z</time>
      </trkpt>
      <trkpt lat="47.5127" lon="6.72591">
        <ele>430.6</ele>
        <time>2014-11-09T09:06:33.000Z</time>
      </trkpt>
      <trkpt lat="47.51274" lon="6.72593">
        <ele>433.3</ele>
        <time>2014-11-09T09:06:34.000Z</time>
      </trkpt>
      <trkpt lat="47.51278" lon="6.72595">
        <ele>433.9</ele>
        <time>2014-11-09T09:06:35.000Z</time>
      </trkpt>
      <trkpt lat="47.51281" lon="6.72598">
        <ele>434.8</ele>
        <time>2014-11-09T09:06:36.000Z</time>
      </trkpt>
      <trkpt lat="47.51284" lon="6.726">
        <ele>435.8</ele>
        <time>2014-11-09T09:06:37.000Z</time>
      </trkpt>
      <trkpt lat="47.51286" lon="6.72602">
        <ele>436.2</ele>
        <time>2014-11-09T09:06:38.000Z</time>
      </trkpt>
      <trkpt lat="47.5129" lon="6.72605">
        <ele>434.7</ele>
        <time>2014-11-09T09:06:40.000Z</time>
      </trkpt>
      <trkpt lat="47.51291" lon="6.72607">
        <ele>434.5</ele>
        <time>2014-11-09T09:06:41.000Z</time>
      </trkpt>
      <trkpt lat="47.51294" lon="6.72612">
        <ele>434.3</ele>
        <time>2014-11-09T09:06:43.000Z</time>
      </trkpt>
      <trkpt lat="47.51296" lon="6.72614">
        <ele>435.3</ele>
        <time>2014-11-09T09:06:44.000Z</time>
      </trkpt>
      <trkpt lat="47.51298" lon="6.72617">
        <ele>435.2</ele>
        <time>2014-11-09T09:06:46.000Z</time>
      </trkpt>
      <trkpt lat="47.51299" lon="6.7262">
        <ele>436.4</ele>
        <time>2014-11-09T09:06:47.000Z</time>
      </trkpt>
      <trkpt lat="47.51302" lon="6.72624">
        <ele>437</ele>
        <time>2014-11-09T09:06:49.000Z</time>
      </trkpt>
      <trkpt lat="47.51303" lon="6.72626">
        <ele>437</ele>
        <time>2014-11-09T09:06:50.000Z</time>
      </trkpt>
      <trkpt lat="47.51305" lon="6.7263">
        <ele>437</ele>
        <time>2014-11-09T09:06:52.000Z</time>
      </trkpt>
      <trkpt lat="47.51306" lon="6.72632">
        <ele>436.6</ele>
        <time>2014-11-09T09:06:53.000Z</time>
      </trkpt>
      <trkpt lat="47.51308" lon="6.72637">
        <ele>437.4</ele>
        <time>2014-11-09T09:06:56.000Z</time>
      </trkpt>
      <trkpt lat="47.51312" lon="6.72653">
        <ele>426.7</ele>
        <time>2014-11-09T09:07:05.000Z</time>
      </trkpt>
      <trkpt lat="47.51314" lon="6.72655">
        <ele>427</ele>
        <time>2014-11-09T09:07:06.000Z</time>
      </trkpt>
      <trkpt lat="47.51317" lon="6.72658">
        <ele>426.1</ele>
        <time>2014-11-09T09:07:07.000Z</time>
      </trkpt>
      <trkpt lat="47.5132" lon="6.72661">
        <ele>426.9</ele>
        <time>2014-11-09T09:07:08.000Z</time>
      </trkpt>
      <trkpt lat="47.51323" lon="6.72664">
        <ele>427.5</ele>
        <time>2014-11-09T09:07:09.000Z</time>
      </trkpt>
      <trkpt lat="47.51327" lon="6.72668">
        <ele>428.3</ele>
        <time>2014-11-09T09:07:10.000Z</time>
      </trkpt>
      <trkpt lat="47.51331" lon="6.72672">
        <ele>427.4</ele>
        <time>2014-11-09T09:07:11.000Z</time>
      </trkpt>
      <trkpt lat="47.51335" lon="6.72676">
        <ele>426.1</ele>
        <time>2014-11-09T09:07:12.000Z</time>
      </trkpt>
      <trkpt lat="47.5134" lon="6.7268">
        <ele>428</ele>
        <time>2014-11-09T09:07:13.000Z</time>
      </trkpt>
      <trkpt lat="47.51345" lon="6.72684">
        <ele>428.6</ele>
        <time>2014-11-09T09:07:14.000Z</time>
      </trkpt>
      <trkpt lat="47.51349" lon="6.72688">
        <ele>429.8</ele>
        <time>2014-11-09T09:07:15.000Z</time>
      </trkpt>
      <trkpt lat="47.51353" lon="6.72692">
        <ele>430.2</ele>
        <time>2014-11-09T09:07:16.000Z</time>
      </trkpt>
      <trkpt lat="47.51357" lon="6.72695">
        <ele>432.4</ele>
        <time>2014-11-09T09:07:17.000Z</time>
      </trkpt>
      <trkpt lat="47.5136" lon="6.72699">
        <ele>433.2</ele>
        <time>2014-11-09T09:07:18.000Z</time>
      </trkpt>
      <trkpt lat="47.51363" lon="6.72703">
        <ele>434.9</ele>
        <time>2014-11-09T09:07:19.000Z</time>
      </trkpt>
      <trkpt lat="47.51367" lon="6.72707">
        <ele>432</ele>
        <time>2014-11-09T09:07:20.000Z</time>
      </trkpt>
      <trkpt lat="47.51372" lon="6.7271">
        <ele>432.3</ele>
        <time>2014-11-09T09:07:21.000Z</time>
      </trkpt>
      <trkpt lat="47.51376" lon="6.72714">
        <ele>433.2</ele>
        <time>2014-11-09T09:07:22.000Z</time>
      </trkpt>
      <trkpt lat="47.51381" lon="6.72716">
        <ele>433.5</ele>
        <time>2014-11-09T09:07:23.000Z</time>
      </trkpt>
      <trkpt lat="47.51385" lon="6.72719">
        <ele>435.8</ele>
        <time>2014-11-09T09:07:24.000Z</time>
      </trkpt>
      <trkpt lat="47.51389" lon="6.72722">
        <ele>435.7</ele>
        <time>2014-11-09T09:07:25.000Z</time>
      </trkpt>
      <trkpt lat="47.51394" lon="6.72724">
        <ele>438.4</ele>
        <time>2014-11-09T09:07:26.000Z</time>
      </trkpt>
      <trkpt lat="47.51398" lon="6.72727">
        <ele>439.4</ele>
        <time>2014-11-09T09:07:27.000Z</time>
      </trkpt>
      <trkpt lat="47.51402" lon="6.72729">
        <ele>439.4</ele>
        <time>2014-11-09T09:07:28.000Z</time>
      </trkpt>
      <trkpt lat="47.51405" lon="6.72732">
        <ele>440</ele>
        <time>2014-11-09T09:07:29.000Z</time>
      </trkpt>
      <trkpt lat="47.51409" lon="6.72734">
        <ele>438.2</ele>
        <time>2014-11-09T09:07:30.000Z</time>
      </trkpt>
      <trkpt lat="47.51413" lon="6.72737">
        <ele>438.1</ele>
        <time>2014-11-09T09:07:31.000Z</time>
      </trkpt>
      <trkpt lat="47.51416" lon="6.7274">
        <ele>438.2</ele>
        <time>2014-11-09T09:07:32.000Z</time>
      </trkpt>
      <trkpt lat="47.5142" lon="6.72742">
        <ele>440.3</ele>
        <time>2014-11-09T09:07:33.000Z</time>
      </trkpt>
      <trkpt lat="47.51423" lon="6.72744">
        <ele>443.2</ele>
        <time>2014-11-09T09:07:34.000Z</time>
      </trkpt>
      <trkpt lat="47.51425" lon="6.72745">
        <ele>444.3</ele>
        <time>2014-11-09T09:07:35.000Z</time>
      </trkpt>
      <trkpt lat="47.51428" lon="6.72746">
        <ele>445.8</ele>
        <time>2014-11-09T09:07:36.000Z</time>
      </trkpt>
      <trkpt lat="47.51431" lon="6.72747">
        <ele>446.3</ele>
        <time>2014-11-09T09:07:37.000Z</time>
      </trkpt>
      <trkpt lat="47.51433" lon="6.72749">
        <ele>446.1</ele>
        <time>2014-11-09T09:07:38.000Z</time>
      </trkpt>
      <trkpt lat="47.51435" lon="6.7275">
        <ele>446.8</ele>
        <time>2014-11-09T09:07:39.000Z</time>
      </trkpt>
      <trkpt lat="47.51437" lon="6.72752">
        <ele>447.2</ele>
        <time>2014-11-09T09:07:40.000Z</time>
      </trkpt>
      <trkpt lat="47.51439" lon="6.72754">
        <ele>447.6</ele>
        <time>2014-11-09T09:07:41.000Z</time>
      </trkpt>
      <trkpt lat="47.51442" lon="6.72755">
        <ele>448.3</ele>
        <time>2014-11-09T09:07:42.000Z</time>
      </trkpt>
      <trkpt lat="47.51445" lon="6.72756">
        <ele>449.4</ele>
        <time>2014-11-09T09:07:43.000Z</time>
      </trkpt>
      <trkpt lat="47.51448" lon="6.72757">
        <ele>449.6</ele>
        <time>2014-11-09T09:07:44.000Z</time>
      </trkpt>
      <trkpt lat="47.51451" lon="6.72759">
        <ele>453.8</ele>
        <time>2014-11-09T09:07:45.000Z</time>
      </trkpt>
      <trkpt lat="47.51454" lon="6.7276">
        <ele>452.2</ele>
        <time>2014-11-09T09:07:46.000Z</time>
      </trkpt>
      <trkpt lat="47.51457" lon="6.7276">
        <ele>452.4</ele>
        <time>2014-11-09T09:07:47.000Z</time>
      </trkpt>
      <trkpt lat="47.51461" lon="6.72762">
        <ele>453.3</ele>
        <time>2014-11-09T09:07:49.000Z</time>
      </trkpt>
      <trkpt lat="47.51463" lon="6.72763">
        <ele>453.7</ele>
        <time>2014-11-09T09:07:50.000Z</time>
      </trkpt>
      <trkpt lat="47.51467" lon="6.72764">
        <ele>453</ele>
        <time>2014-11-09T09:07:53.000Z</time>
      </trkpt>
      <trkpt lat="47.51469" lon="6.72764">
        <ele>453.8</ele>
        <time>2014-11-09T09:07:54.000Z</time>
      </trkpt>
      <trkpt lat="47.51472" lon="6.72764">
        <ele>454.3</ele>
        <time>2014-11-09T09:07:55.000Z</time>
      </trkpt>
      <trkpt lat="47.51474" lon="6.72765">
        <ele>454.3</ele>
        <time>2014-11-09T09:07:56.000Z</time>
      </trkpt>
      <trkpt lat="47.51484" lon="6.72768">
        <ele>451.6</ele>
        <time>2014-11-09T09:08:00.000Z</time>
      </trkpt>
      <trkpt lat="47.51487" lon="6.72769">
        <ele>452.2</ele>
        <time>2014-11-09T09:08:01.000Z</time>
      </trkpt>
      <trkpt lat="47.51491" lon="6.72771">
        <ele>452.1</ele>
        <time>2014-11-09T09:08:02.000Z</time>
      </trkpt>
      <trkpt lat="47.51494" lon="6.72773">
        <ele>454.3</ele>
        <time>2014-11-09T09:08:03.000Z</time>
      </trkpt>
      <trkpt lat="47.51498" lon="6.72775">
        <ele>455.3</ele>
        <time>2014-11-09T09:08:04.000Z</time>
      </trkpt>
      <trkpt lat="47.51501" lon="6.72776">
        <ele>455.8</ele>
        <time>2014-11-09T09:08:05.000Z</time>
      </trkpt>
      <trkpt lat="47.51504" lon="6.72777">
        <ele>456</ele>
        <time>2014-11-09T09:08:06.000Z</time>
      </trkpt>
      <trkpt lat="47.51507" lon="6.72778">
        <ele>456.3</ele>
        <time>2014-11-09T09:08:07.000Z</time>
      </trkpt>
      <trkpt lat="47.5151" lon="6.7278">
        <ele>456.7</ele>
        <time>2014-11-09T09:08:08.000Z</time>
      </trkpt>
      <trkpt lat="47.51514" lon="6.72781">
        <ele>457.4</ele>
        <time>2014-11-09T09:08:09.000Z</time>
      </trkpt>
      <trkpt lat="47.51517" lon="6.72781">
        <ele>457.9</ele>
        <time>2014-11-09T09:08:10.000Z</time>
      </trkpt>
      <trkpt lat="47.5152" lon="6.72782">
        <ele>458.7</ele>
        <time>2014-11-09T09:08:11.000Z</time>
      </trkpt>
      <trkpt lat="47.51523" lon="6.72782">
        <ele>458.9</ele>
        <time>2014-11-09T09:08:12.000Z</time>
      </trkpt>
      <trkpt lat="47.51527" lon="6.72783">
        <ele>459.2</ele>
        <time>2014-11-09T09:08:13.000Z</time>
      </trkpt>
      <trkpt lat="47.51531" lon="6.72784">
        <ele>459.5</ele>
        <time>2014-11-09T09:08:14.000Z</time>
      </trkpt>
      <trkpt lat="47.51535" lon="6.72785">
        <ele>459.5</ele>
        <time>2014-11-09T09:08:15.000Z</time>
      </trkpt>
      <trkpt lat="47.5154" lon="6.72787">
        <ele>459.3</ele>
        <time>2014-11-09T09:08:16.000Z</time>
      </trkpt>
      <trkpt lat="47.51545" lon="6.72788">
        <ele>459.7</ele>
        <time>2014-11-09T09:08:17.000Z</time>
      </trkpt>
      <trkpt lat="47.51551" lon="6.7279">
        <ele>460.9</ele>
        <time>2014-11-09T09:08:18.000Z</time>
      </trkpt>
      <trkpt lat="47.51556" lon="6.72792">
        <ele>460.9</ele>
        <time>2014-11-09T09:08:19.000Z</time>
      </trkpt>
      <trkpt lat="47.51578" lon="6.72803">
        <ele>467.8</ele>
        <time>2014-11-09T09:08:20.000Z</time>
      </trkpt>
      <trkpt lat="47.51584" lon="6.72808">
        <ele>468.1</ele>
        <time>2014-11-09T09:08:21.000Z</time>
      </trkpt>
      <trkpt lat="47.5159" lon="6.72811">
        <ele>468.4</ele>
        <time>2014-11-09T09:08:22.000Z</time>
      </trkpt>
      <trkpt lat="47.51599" lon="6.72815">
        <ele>472.9</ele>
        <time>2014-11-09T09:08:23.000Z</time>
      </trkpt>
      <trkpt lat="47.51608" lon="6.72816">
        <ele>473.2</ele>
        <time>2014-11-09T09:08:24.000Z</time>
      </trkpt>
      <trkpt lat="47.51615" lon="6.72817">
        <ele>473.3</ele>
        <time>2014-11-09T09:08:25.000Z</time>
      </trkpt>
      <trkpt lat="47.51621" lon="6.72818">
        <ele>472.7</ele>
        <time>2014-11-09T09:08:26.000Z</time>
      </trkpt>
      <trkpt lat="47.51629" lon="6.7282">
        <ele>471</ele>
        <time>2014-11-09T09:08:27.000Z</time>
      </trkpt>
      <trkpt lat="47.51637" lon="6.72822">
        <ele>469.8</ele>
        <time>2014-11-09T09:08:28.000Z</time>
      </trkpt>
      <trkpt lat="47.51645" lon="6.72824">
        <ele>466.8</ele>
        <time>2014-11-09T09:08:29.000Z</time>
      </trkpt>
      <trkpt lat="47.51652" lon="6.72824">
        <ele>465.2</ele>
        <time>2014-11-09T09:08:30.000Z</time>
      </trkpt>
      <trkpt lat="47.51658" lon="6.72821">
        <ele>464.3</ele>
        <time>2014-11-09T09:08:31.000Z</time>
      </trkpt>
      <trkpt lat="47.51665" lon="6.7282">
        <ele>464.1</ele>
        <time>2014-11-09T09:08:32.000Z</time>
      </trkpt>
      <trkpt lat="47.51672" lon="6.72821">
        <ele>463</ele>
        <time>2014-11-09T09:08:33.000Z</time>
      </trkpt>
      <trkpt lat="47.51681" lon="6.72824">
        <ele>461.3</ele>
        <time>2014-11-09T09:08:34.000Z</time>
      </trkpt>
      <trkpt lat="47.51686" lon="6.72826">
        <ele>461.4</ele>
        <time>2014-11-09T09:08:34.998Z</time>
      </trkpt>
      <trkpt lat="47.51696" lon="6.72825">
        <ele>458.1</ele>
        <time>2014-11-09T09:08:36.000Z</time>
      </trkpt>
      <trkpt lat="47.51704" lon="6.72827">
        <ele>457.4</ele>
        <time>2014-11-09T09:08:37.000Z</time>
      </trkpt>
      <trkpt lat="47.51711" lon="6.72826">
        <ele>457</ele>
        <time>2014-11-09T09:08:38.000Z</time>
      </trkpt>
      <trkpt lat="47.51718" lon="6.72825">
        <ele>457.7</ele>
        <time>2014-11-09T09:08:39.000Z</time>
      </trkpt>
      <trkpt lat="47.51723" lon="6.72823">
        <ele>458.9</ele>
        <time>2014-11-09T09:08:40.000Z</time>
      </trkpt>
      <trkpt lat="47.5173" lon="6.7282">
        <ele>459.1</ele>
        <time>2014-11-09T09:08:41.000Z</time>
      </trkpt>
      <trkpt lat="47.51735" lon="6.7282">
        <ele>458.3</ele>
        <time>2014-11-09T09:08:42.000Z</time>
      </trkpt>
      <trkpt lat="47.51743" lon="6.72818">
        <ele>457.8</ele>
        <time>2014-11-09T09:08:43.000Z</time>
      </trkpt>
      <trkpt lat="47.51749" lon="6.72816">
        <ele>457.5</ele>
        <time>2014-11-09T09:08:44.000Z</time>
      </trkpt>
      <trkpt lat="47.51755" lon="6.72815">
        <ele>457.2</ele>
        <time>2014-11-09T09:08:45.000Z</time>
      </trkpt>
      <trkpt lat="47.51761" lon="6.72814">
        <ele>457.2</ele>
        <time>2014-11-09T09:08:46.000Z</time>
      </trkpt>
      <trkpt lat="47.51767" lon="6.72815">
        <ele>456.5</ele>
        <time>2014-11-09T09:08:47.000Z</time>
      </trkpt>
      <trkpt lat="47.51771" lon="6.72815">
        <ele>457.3</ele>
        <time>2014-11-09T09:08:48.000Z</time>
      </trkpt>
      <trkpt lat="47.51775" lon="6.72816">
        <ele>456.4</ele>
        <time>2014-11-09T09:08:49.000Z</time>
      </trkpt>
      <trkpt lat="47.51779" lon="6.72817">
        <ele>456</ele>
        <time>2014-11-09T09:08:50.000Z</time>
      </trkpt>
      <trkpt lat="47.51782" lon="6.72818">
        <ele>456.5</ele>
        <time>2014-11-09T09:08:51.000Z</time>
      </trkpt>
      <trkpt lat="47.51785" lon="6.72818">
        <ele>455.6</ele>
        <time>2014-11-09T09:08:52.000Z</time>
      </trkpt>
      <trkpt lat="47.51788" lon="6.72819">
        <ele>454.9</ele>
        <time>2014-11-09T09:08:53.000Z</time>
      </trkpt>
      <trkpt lat="47.51791" lon="6.72821">
        <ele>455</ele>
        <time>2014-11-09T09:08:54.000Z</time>
      </trkpt>
      <trkpt lat="47.51795" lon="6.72823">
        <ele>455.1</ele>
        <time>2014-11-09T09:08:55.000Z</time>
      </trkpt>
      <trkpt lat="47.5183" lon="6.72827">
        <ele>450.9</ele>
        <time>2014-11-09T09:08:59.000Z</time>
      </trkpt>
      <trkpt lat="47.5184" lon="6.72831">
        <ele>448.9</ele>
        <time>2014-11-09T09:09:00.000Z</time>
      </trkpt>
      <trkpt lat="47.51846" lon="6.72832">
        <ele>448.2</ele>
        <time>2014-11-09T09:09:01.000Z</time>
      </trkpt>
      <trkpt lat="47.51853" lon="6.72833">
        <ele>449.3</ele>
        <time>2014-11-09T09:09:02.000Z</time>
      </trkpt>
      <trkpt lat="47.51863" lon="6.72835">
        <ele>451.7</ele>
        <time>2014-11-09T09:09:03.000Z</time>
      </trkpt>
      <trkpt lat="47.51873" lon="6.72835">
        <ele>451.5</ele>
        <time>2014-11-09T09:09:04.000Z</time>
      </trkpt>
      <trkpt lat="47.5188" lon="6.72835">
        <ele>450.7</ele>
        <time>2014-11-09T09:09:05.000Z</time>
      </trkpt>
      <trkpt lat="47.51888" lon="6.72835">
        <ele>450.5</ele>
        <time>2014-11-09T09:09:06.000Z</time>
      </trkpt>
      <trkpt lat="47.51895" lon="6.72837">
        <ele>449.7</ele>
        <time>2014-11-09T09:09:07.000Z</time>
      </trkpt>
      <trkpt lat="47.51901" lon="6.72837">
        <ele>448.2</ele>
        <time>2014-11-09T09:09:08.000Z</time>
      </trkpt>
      <trkpt lat="47.51907" lon="6.72838">
        <ele>447.1</ele>
        <time>2014-11-09T09:09:09.000Z</time>
      </trkpt>
      <trkpt lat="47.51913" lon="6.72839">
        <ele>445.5</ele>
        <time>2014-11-09T09:09:10.000Z</time>
      </trkpt>
      <trkpt lat="47.51919" lon="6.72842">
        <ele>444.5</ele>
        <time>2014-11-09T09:09:11.000Z</time>
      </trkpt>
      <trkpt lat="47.51927" lon="6.72841">
        <ele>442.8</ele>
        <time>2014-11-09T09:09:12.000Z</time>
      </trkpt>
      <trkpt lat="47.51932" lon="6.72842">
        <ele>442</ele>
        <time>2014-11-09T09:09:13.000Z</time>
      </trkpt>
      <trkpt lat="47.51938" lon="6.72842">
        <ele>441.3</ele>
        <time>2014-11-09T09:09:14.000Z</time>
      </trkpt>
      <trkpt lat="47.51943" lon="6.72844">
        <ele>440.5</ele>
        <time>2014-11-09T09:09:15.000Z</time>
      </trkpt>
      <trkpt lat="47.51949" lon="6.72846">
        <ele>448.3</ele>
        <time>2014-11-09T09:09:16.000Z</time>
      </trkpt>
      <trkpt lat="47.51954" lon="6.72848">
        <ele>448.4</ele>
        <time>2014-11-09T09:09:17.000Z</time>
      </trkpt>
      <trkpt lat="47.51962" lon="6.72849">
        <ele>448.1</ele>
        <time>2014-11-09T09:09:18.000Z</time>
      </trkpt>
      <trkpt lat="47.51969" lon="6.72848">
        <ele>447.6</ele>
        <time>2014-11-09T09:09:19.000Z</time>
      </trkpt>
      <trkpt lat="47.51976" lon="6.72848">
        <ele>446.1</ele>
        <time>2014-11-09T09:09:20.000Z</time>
      </trkpt>
      <trkpt lat="47.51982" lon="6.72847">
        <ele>448.2</ele>
        <time>2014-11-09T09:09:21.000Z</time>
      </trkpt>
      <trkpt lat="47.51988" lon="6.72846">
        <ele>446.9</ele>
        <time>2014-11-09T09:09:22.000Z</time>
      </trkpt>
      <trkpt lat="47.51993" lon="6.72848">
        <ele>446.6</ele>
        <time>2014-11-09T09:09:23.000Z</time>
      </trkpt>
      <trkpt lat="47.51997" lon="6.72849">
        <ele>447.3</ele>
        <time>2014-11-09T09:09:24.000Z</time>
      </trkpt>
      <trkpt lat="47.52002" lon="6.72849">
        <ele>447</ele>
        <time>2014-11-09T09:09:25.000Z</time>
      </trkpt>
      <trkpt lat="47.52007" lon="6.72849">
        <ele>447.1</ele>
        <time>2014-11-09T09:09:26.000Z</time>
      </trkpt>
      <trkpt lat="47.52011" lon="6.72848">
        <ele>446.1</ele>
        <time>2014-11-09T09:09:27.000Z</time>
      </trkpt>
      <trkpt lat="47.52015" lon="6.7285">
        <ele>445.6</ele>
        <time>2014-11-09T09:09:28.000Z</time>
      </trkpt>
      <trkpt lat="47.52019" lon="6.72851">
        <ele>449.5</ele>
        <time>2014-11-09T09:09:29.000Z</time>
      </trkpt>
      <trkpt lat="47.52024" lon="6.72852">
        <ele>449.7</ele>
        <time>2014-11-09T09:09:30.000Z</time>
      </trkpt>
      <trkpt lat="47.52028" lon="6.72853">
        <ele>449.5</ele>
        <time>2014-11-09T09:09:31.000Z</time>
      </trkpt>
      <trkpt lat="47.52033" lon="6.72857">
        <ele>448.3</ele>
        <time>2014-11-09T09:09:32.000Z</time>
      </trkpt>
      <trkpt lat="47.52039" lon="6.72859">
        <ele>447.8</ele>
        <time>2014-11-09T09:09:33.000Z</time>
      </trkpt>
      <trkpt lat="47.52043" lon="6.72861">
        <ele>447.8</ele>
        <time>2014-11-09T09:09:34.000Z</time>
      </trkpt>
      <trkpt lat="47.52051" lon="6.72864">
        <ele>449.7</ele>
        <time>2014-11-09T09:09:35.000Z</time>
      </trkpt>
      <trkpt lat="47.52057" lon="6.72865">
        <ele>448.7</ele>
        <time>2014-11-09T09:09:36.000Z</time>
      </trkpt>
      <trkpt lat="47.52063" lon="6.72867">
        <ele>447.8</ele>
        <time>2014-11-09T09:09:37.000Z</time>
      </trkpt>
      <trkpt lat="47.52068" lon="6.72868">
        <ele>447.4</ele>
        <time>2014-11-09T09:09:38.000Z</time>
      </trkpt>
      <trkpt lat="47.52073" lon="6.72868">
        <ele>447.2</ele>
        <time>2014-11-09T09:09:39.000Z</time>
      </trkpt>
      <trkpt lat="47.52077" lon="6.7287">
        <ele>446.6</ele>
        <time>2014-11-09T09:09:40.000Z</time>
      </trkpt>
      <trkpt lat="47.52082" lon="6.7287">
        <ele>446.1</ele>
        <time>2014-11-09T09:09:41.000Z</time>
      </trkpt>
      <trkpt lat="47.52086" lon="6.7287">
        <ele>445.8</ele>
        <time>2014-11-09T09:09:42.000Z</time>
      </trkpt>
      <trkpt lat="47.52091" lon="6.72868">
        <ele>445.6</ele>
        <time>2014-11-09T09:09:43.000Z</time>
      </trkpt>
      <trkpt lat="47.52095" lon="6.72867">
        <ele>445.2</ele>
        <time>2014-11-09T09:09:44.000Z</time>
      </trkpt>
      <trkpt lat="47.52107" lon="6.72868">
        <ele>450.8</ele>
        <time>2014-11-09T09:09:45.000Z</time>
      </trkpt>
      <trkpt lat="47.52114" lon="6.72869">
        <ele>449.9</ele>
        <time>2014-11-09T09:09:46.000Z</time>
      </trkpt>
      <trkpt lat="47.5212" lon="6.72871">
        <ele>449.3</ele>
        <time>2014-11-09T09:09:47.000Z</time>
      </trkpt>
      <trkpt lat="47.52125" lon="6.72872">
        <ele>448.2</ele>
        <time>2014-11-09T09:09:48.000Z</time>
      </trkpt>
      <trkpt lat="47.52131" lon="6.72872">
        <ele>446.7</ele>
        <time>2014-11-09T09:09:49.000Z</time>
      </trkpt>
      <trkpt lat="47.52137" lon="6.72875">
        <ele>445.6</ele>
        <time>2014-11-09T09:09:50.000Z</time>
      </trkpt>
      <trkpt lat="47.52142" lon="6.72875">
        <ele>445.3</ele>
        <time>2014-11-09T09:09:51.000Z</time>
      </trkpt>
      <trkpt lat="47.52148" lon="6.72877">
        <ele>443.6</ele>
        <time>2014-11-09T09:09:52.000Z</time>
      </trkpt>
      <trkpt lat="47.52152" lon="6.72878">
        <ele>442.8</ele>
        <time>2014-11-09T09:09:53.000Z</time>
      </trkpt>
      <trkpt lat="47.52158" lon="6.72878">
        <ele>441.8</ele>
        <time>2014-11-09T09:09:54.000Z</time>
      </trkpt>
      <trkpt lat="47.52165" lon="6.72877">
        <ele>440.6</ele>
        <time>2014-11-09T09:09:55.000Z</time>
      </trkpt>
      <trkpt lat="47.5217" lon="6.72878">
        <ele>439.4</ele>
        <time>2014-11-09T09:09:56.000Z</time>
      </trkpt>
      <trkpt lat="47.52182" lon="6.72882">
        <ele>428.1</ele>
        <time>2014-11-09T09:09:59.000Z</time>
      </trkpt>
      <trkpt lat="47.52185" lon="6.72883">
        <ele>426.7</ele>
        <time>2014-11-09T09:10:00.000Z</time>
      </trkpt>
      <trkpt lat="47.52189" lon="6.72884">
        <ele>425.5</ele>
        <time>2014-11-09T09:10:01.000Z</time>
      </trkpt>
      <trkpt lat="47.52191" lon="6.72885">
        <ele>425.6</ele>
        <time>2014-11-09T09:10:02.000Z</time>
      </trkpt>
      <trkpt lat="47.52194" lon="6.72884">
        <ele>424</ele>
        <time>2014-11-09T09:10:03.000Z</time>
      </trkpt>
      <trkpt lat="47.52196" lon="6.72883">
        <ele>418.3</ele>
        <time>2014-11-09T09:10:04.000Z</time>
      </trkpt>
      <trkpt lat="47.52199" lon="6.72882">
        <ele>413.5</ele>
        <time>2014-11-09T09:10:05.000Z</time>
      </trkpt>
      <trkpt lat="47.52202" lon="6.7288">
        <ele>411.5</ele>
        <time>2014-11-09T09:10:06.000Z</time>
      </trkpt>
      <trkpt lat="47.52205" lon="6.72879">
        <ele>412.3</ele>
        <time>2014-11-09T09:10:07.000Z</time>
      </trkpt>
      <trkpt lat="47.5221" lon="6.72877">
        <ele>411.9</ele>
        <time>2014-11-09T09:10:11.000Z</time>
      </trkpt>
      <trkpt lat="47.5221" lon="6.72877">
        <ele>410.6</ele>
        <time>2014-11-09T09:10:12.000Z</time>
      </trkpt>
      <trkpt lat="47.52211" lon="6.72871">
        <ele>393.5</ele>
        <time>2014-11-09T09:11:07.000Z</time>
      </trkpt>
      <trkpt lat="47.52213" lon="6.72869">
        <ele>393.5</ele>
        <time>2014-11-09T09:11:08.000Z</time>
      </trkpt>
      <trkpt lat="47.52216" lon="6.72866">
        <ele>393.3</ele>
        <time>2014-11-09T09:11:09.000Z</time>
      </trkpt>
      <trkpt lat="47.52218" lon="6.72864">
        <ele>393.6</ele>
        <time>2014-11-09T09:11:10.000Z</time>
      </trkpt>
      <trkpt lat="47.52225" lon="6.7286">
        <ele>387.5</ele>
        <time>2014-11-09T09:11:11.000Z</time>
      </trkpt>
      <trkpt lat="47.5223" lon="6.72856">
        <ele>383.4</ele>
        <time>2014-11-09T09:11:12.000Z</time>
      </trkpt>
      <trkpt lat="47.52233" lon="6.72855">
        <ele>380.5</ele>
        <time>2014-11-09T09:11:13.000Z</time>
      </trkpt>
      <trkpt lat="47.52236" lon="6.72855">
        <ele>381.6</ele>
        <time>2014-11-09T09:11:14.000Z</time>
      </trkpt>
      <trkpt lat="47.5224" lon="6.72856">
        <ele>382.2</ele>
        <time>2014-11-09T09:11:15.000Z</time>
      </trkpt>
      <trkpt lat="47.52244" lon="6.72854">
        <ele>382.1</ele>
        <time>2014-11-09T09:11:16.000Z</time>
      </trkpt>
      <trkpt lat="47.52248" lon="6.72854">
        <ele>382</ele>
        <time>2014-11-09T09:11:17.000Z</time>
      </trkpt>
      <trkpt lat="47.52251" lon="6.72856">
        <ele>383.9</ele>
        <time>2014-11-09T09:11:18.000Z</time>
      </trkpt>
      <trkpt lat="47.52255" lon="6.72856">
        <ele>385.4</ele>
        <time>2014-11-09T09:11:19.000Z</time>
      </trkpt>
      <trkpt lat="47.52258" lon="6.72856">
        <ele>386.3</ele>
        <time>2014-11-09T09:11:20.000Z</time>
      </trkpt>
      <trkpt lat="47.52261" lon="6.72857">
        <ele>387.2</ele>
        <time>2014-11-09T09:11:21.000Z</time>
      </trkpt>
      <trkpt lat="47.52264" lon="6.72858">
        <ele>388.1</ele>
        <time>2014-11-09T09:11:22.000Z</time>
      </trkpt>
      <trkpt lat="47.52268" lon="6.72861">
        <ele>392.5</ele>
        <time>2014-11-09T09:11:24.000Z</time>
      </trkpt>
      <trkpt lat="47.52267" lon="6.7287">
        <ele>400.9</ele>
        <time>2014-11-09T09:11:25.000Z</time>
      </trkpt>
      <trkpt lat="47.52269" lon="6.72874">
        <ele>403.9</ele>
        <time>2014-11-09T09:11:26.000Z</time>
      </trkpt>
      <trkpt lat="47.52272" lon="6.72876">
        <ele>405.7</ele>
        <time>2014-11-09T09:11:27.000Z</time>
      </trkpt>
      <trkpt lat="47.52275" lon="6.7288">
        <ele>408.9</ele>
        <time>2014-11-09T09:11:28.000Z</time>
      </trkpt>
      <trkpt lat="47.52277" lon="6.72884">
        <ele>410.6</ele>
        <time>2014-11-09T09:11:29.000Z</time>
      </trkpt>
      <trkpt lat="47.52282" lon="6.72882">
        <ele>409</ele>
        <time>2014-11-09T09:11:30.000Z</time>
      </trkpt>
      <trkpt lat="47.52285" lon="6.72882">
        <ele>409.3</ele>
        <time>2014-11-09T09:11:31.000Z</time>
      </trkpt>
      <trkpt lat="47.52288" lon="6.72886">
        <ele>411.6</ele>
        <time>2014-11-09T09:11:32.000Z</time>
      </trkpt>
      <trkpt lat="47.52291" lon="6.72887">
        <ele>413.1</ele>
        <time>2014-11-09T09:11:33.000Z</time>
      </trkpt>
      <trkpt lat="47.52295" lon="6.72887">
        <ele>413.7</ele>
        <time>2014-11-09T09:11:34.000Z</time>
      </trkpt>
      <trkpt lat="47.52299" lon="6.72886">
        <ele>412.8</ele>
        <time>2014-11-09T09:11:35.000Z</time>
      </trkpt>
      <trkpt lat="47.52303" lon="6.72884">
        <ele>412.8</ele>
        <time>2014-11-09T09:11:36.000Z</time>
      </trkpt>
      <trkpt lat="47.52307" lon="6.72883">
        <ele>412.8</ele>
        <time>2014-11-09T09:11:37.000Z</time>
      </trkpt>
      <trkpt lat="47.5231" lon="6.72881">
        <ele>412.7</ele>
        <time>2014-11-09T09:11:38.000Z</time>
      </trkpt>
      <trkpt lat="47.52314" lon="6.72881">
        <ele>413.8</ele>
        <time>2014-11-09T09:11:39.000Z</time>
      </trkpt>
      <trkpt lat="47.52317" lon="6.7288">
        <ele>414.1</ele>
        <time>2014-11-09T09:11:40.000Z</time>
      </trkpt>
      <trkpt lat="47.5232" lon="6.7288">
        <ele>413.8</ele>
        <time>2014-11-09T09:11:41.000Z</time>
      </trkpt>
      <trkpt lat="47.52323" lon="6.72879">
        <ele>408.7</ele>
        <time>2014-11-09T09:11:42.000Z</time>
      </trkpt>
      <trkpt lat="47.52326" lon="6.72878">
        <ele>406.7</ele>
        <time>2014-11-09T09:11:43.000Z</time>
      </trkpt>
      <trkpt lat="47.52329" lon="6.72876">
        <ele>403.5</ele>
        <time>2014-11-09T09:11:44.000Z</time>
      </trkpt>
      <trkpt lat="47.52332" lon="6.72874">
        <ele>401.7</ele>
        <time>2014-11-09T09:11:45.000Z</time>
      </trkpt>
      <trkpt lat="47.52336" lon="6.72874">
        <ele>398.3</ele>
        <time>2014-11-09T09:11:46.000Z</time>
      </trkpt>
      <trkpt lat="47.52339" lon="6.72873">
        <ele>401.3</ele>
        <time>2014-11-09T09:11:47.000Z</time>
      </trkpt>
      <trkpt lat="47.52342" lon="6.72872">
        <ele>400.1</ele>
        <time>2014-11-09T09:11:48.000Z</time>
      </trkpt>
      <trkpt lat="47.52344" lon="6.72872">
        <ele>399.4</ele>
        <time>2014-11-09T09:11:49.000Z</time>
      </trkpt>
      <trkpt lat="47.52347" lon="6.72872">
        <ele>398.4</ele>
        <time>2014-11-09T09:11:50.000Z</time>
      </trkpt>
      <trkpt lat="47.5235" lon="6.72873">
        <ele>397.1</ele>
        <time>2014-11-09T09:11:51.000Z</time>
      </trkpt>
      <trkpt lat="47.52353" lon="6.72873">
        <ele>395</ele>
        <time>2014-11-09T09:11:52.000Z</time>
      </trkpt>
      <trkpt lat="47.52355" lon="6.72873">
        <ele>393.8</ele>
        <time>2014-11-09T09:11:53.000Z</time>
      </trkpt>
      <trkpt lat="47.52358" lon="6.72873">
        <ele>393.4</ele>
        <time>2014-11-09T09:11:54.000Z</time>
      </trkpt>
      <trkpt lat="47.52362" lon="6.72874">
        <ele>393.2</ele>
        <time>2014-11-09T09:11:56.000Z</time>
      </trkpt>
      <trkpt lat="47.52365" lon="6.72876">
        <ele>383.9</ele>
        <time>2014-11-09T09:11:59.000Z</time>
      </trkpt>
      <trkpt lat="47.52367" lon="6.72877">
        <ele>386.2</ele>
        <time>2014-11-09T09:12:00.000Z</time>
      </trkpt>
      <trkpt lat="47.5237" lon="6.72877">
        <ele>385.5</ele>
        <time>2014-11-09T09:12:01.000Z</time>
      </trkpt>
      <trkpt lat="47.52373" lon="6.72877">
        <ele>385.4</ele>
        <time>2014-11-09T09:12:02.000Z</time>
      </trkpt>
      <trkpt lat="47.52377" lon="6.72877">
        <ele>382.6</ele>
        <time>2014-11-09T09:12:03.000Z</time>
      </trkpt>
      <trkpt lat="47.5238" lon="6.72877">
        <ele>382.5</ele>
        <time>2014-11-09T09:12:04.000Z</time>
      </trkpt>
      <trkpt lat="47.52383" lon="6.72877">
        <ele>385.5</ele>
        <time>2014-11-09T09:12:05.000Z</time>
      </trkpt>
      <trkpt lat="47.52387" lon="6.72877">
        <ele>386</ele>
        <time>2014-11-09T09:12:06.000Z</time>
      </trkpt>
      <trkpt lat="47.5239" lon="6.72877">
        <ele>386.2</ele>
        <time>2014-11-09T09:12:07.000Z</time>
      </trkpt>
      <trkpt lat="47.52394" lon="6.72877">
        <ele>386.6</ele>
        <time>2014-11-09T09:12:08.000Z</time>
      </trkpt>
      <trkpt lat="47.52398" lon="6.72877">
        <ele>386.1</ele>
        <time>2014-11-09T09:12:09.000Z</time>
      </trkpt>
      <trkpt lat="47.52403" lon="6.72877">
        <ele>386.5</ele>
        <time>2014-11-09T09:12:10.000Z</time>
      </trkpt>
      <trkpt lat="47.52408" lon="6.72877">
        <ele>386.9</ele>
        <time>2014-11-09T09:12:11.000Z</time>
      </trkpt>
      <trkpt lat="47.52413" lon="6.72878">
        <ele>387.1</ele>
        <time>2014-11-09T09:12:12.000Z</time>
      </trkpt>
      <trkpt lat="47.52417" lon="6.72879">
        <ele>387.3</ele>
        <time>2014-11-09T09:12:13.000Z</time>
      </trkpt>
      <trkpt lat="47.52422" lon="6.72879">
        <ele>387.7</ele>
        <time>2014-11-09T09:12:14.000Z</time>
      </trkpt>
      <trkpt lat="47.52426" lon="6.72879">
        <ele>388</ele>
        <time>2014-11-09T09:12:15.000Z</time>
      </trkpt>
      <trkpt lat="47.52431" lon="6.72878">
        <ele>387.4</ele>
        <time>2014-11-09T09:12:16.000Z</time>
      </trkpt>
      <trkpt lat="47.52435" lon="6.72878">
        <ele>388.3</ele>
        <time>2014-11-09T09:12:17.000Z</time>
      </trkpt>
      <trkpt lat="47.5244" lon="6.72878">
        <ele>387.7</ele>
        <time>2014-11-09T09:12:18.000Z</time>
      </trkpt>
      <trkpt lat="47.52444" lon="6.72877">
        <ele>380.2</ele>
        <time>2014-11-09T09:12:19.000Z</time>
      </trkpt>
      <trkpt lat="47.52449" lon="6.72876">
        <ele>380</ele>
        <time>2014-11-09T09:12:20.000Z</time>
      </trkpt>
      <trkpt lat="47.52453" lon="6.72875">
        <ele>375.9</ele>
        <time>2014-11-09T09:12:21.000Z</time>
      </trkpt>
      <trkpt lat="47.52458" lon="6.72874">
        <ele>374.6</ele>
        <time>2014-11-09T09:12:22.000Z</time>
      </trkpt>
      <trkpt lat="47.52463" lon="6.7287">
        <ele>370.1</ele>
        <time>2014-11-09T09:12:23.000Z</time>
      </trkpt>
      <trkpt lat="47.52468" lon="6.7287">
        <ele>370.1</ele>
        <time>2014-11-09T09:12:24.000Z</time>
      </trkpt>
      <trkpt lat="47.52472" lon="6.72867">
        <ele>367.8</ele>
        <time>2014-11-09T09:12:25.000Z</time>
      </trkpt>
      <trkpt lat="47.52477" lon="6.72864">
        <ele>364.1</ele>
        <time>2014-11-09T09:12:26.000Z</time>
      </trkpt>
      <trkpt lat="47.52481" lon="6.7286">
        <ele>363.5</ele>
        <time>2014-11-09T09:12:27.000Z</time>
      </trkpt>
      <trkpt lat="47.52485" lon="6.72857">
        <ele>361.7</ele>
        <time>2014-11-09T09:12:28.000Z</time>
      </trkpt>
      <trkpt lat="47.52488" lon="6.72855">
        <ele>360.1</ele>
        <time>2014-11-09T09:12:29.000Z</time>
      </trkpt>
      <trkpt lat="47.52492" lon="6.72847">
        <ele>359.2</ele>
        <time>2014-11-09T09:12:30.000Z</time>
      </trkpt>
      <trkpt lat="47.52497" lon="6.72842">
        <ele>356.4</ele>
        <time>2014-11-09T09:12:31.000Z</time>
      </trkpt>
      <trkpt lat="47.525" lon="6.72836">
        <ele>355.1</ele>
        <time>2014-11-09T09:12:32.000Z</time>
      </trkpt>
      <trkpt lat="47.52505" lon="6.7283">
        <ele>353.4</ele>
        <time>2014-11-09T09:12:33.000Z</time>
      </trkpt>
      <trkpt lat="47.52509" lon="6.72825">
        <ele>353.7</ele>
        <time>2014-11-09T09:12:34.000Z</time>
      </trkpt>
      <trkpt lat="47.52514" lon="6.7282">
        <ele>353.1</ele>
        <time>2014-11-09T09:12:35.000Z</time>
      </trkpt>
      <trkpt lat="47.5252" lon="6.72815">
        <ele>352.4</ele>
        <time>2014-11-09T09:12:36.000Z</time>
      </trkpt>
      <trkpt lat="47.52526" lon="6.72812">
        <ele>351.4</ele>
        <time>2014-11-09T09:12:37.000Z</time>
      </trkpt>
      <trkpt lat="47.52531" lon="6.72809">
        <ele>351.8</ele>
        <time>2014-11-09T09:12:38.000Z</time>
      </trkpt>
      <trkpt lat="47.52537" lon="6.72807">
        <ele>351.4</ele>
        <time>2014-11-09T09:12:39.000Z</time>
      </trkpt>
      <trkpt lat="47.52544" lon="6.72804">
        <ele>350.4</ele>
        <time>2014-11-09T09:12:40.000Z</time>
      </trkpt>
      <trkpt lat="47.5255" lon="6.72802">
        <ele>349.4</ele>
        <time>2014-11-09T09:12:41.000Z</time>
      </trkpt>
      <trkpt lat="47.52559" lon="6.72797">
        <ele>349.7</ele>
        <time>2014-11-09T09:12:42.000Z</time>
      </trkpt>
      <trkpt lat="47.52566" lon="6.72794">
        <ele>350.3</ele>
        <time>2014-11-09T09:12:43.000Z</time>
      </trkpt>
      <trkpt lat="47.52573" lon="6.72792">
        <ele>350.7</ele>
        <time>2014-11-09T09:12:44.000Z</time>
      </trkpt>
      <trkpt lat="47.52578" lon="6.7279">
        <ele>350.4</ele>
        <time>2014-11-09T09:12:45.000Z</time>
      </trkpt>
      <trkpt lat="47.52583" lon="6.72788">
        <ele>349.7</ele>
        <time>2014-11-09T09:12:46.000Z</time>
      </trkpt>
      <trkpt lat="47.52587" lon="6.72786">
        <ele>349.7</ele>
        <time>2014-11-09T09:12:47.000Z</time>
      </trkpt>
      <trkpt lat="47.52593" lon="6.72788">
        <ele>349.8</ele>
        <time>2014-11-09T09:12:48.000Z</time>
      </trkpt>
      <trkpt lat="47.526" lon="6.7279">
        <ele>349.8</ele>
        <time>2014-11-09T09:12:49.000Z</time>
      </trkpt>
      <trkpt lat="47.52608" lon="6.7279">
        <ele>350.2</ele>
        <time>2014-11-09T09:12:50.000Z</time>
      </trkpt>
      <trkpt lat="47.52615" lon="6.72791">
        <ele>348.6</ele>
        <time>2014-11-09T09:12:51.000Z</time>
      </trkpt>
      <trkpt lat="47.52621" lon="6.72793">
        <ele>349</ele>
        <time>2014-11-09T09:12:52.000Z</time>
      </trkpt>
      <trkpt lat="47.52627" lon="6.72796">
        <ele>349.2</ele>
        <time>2014-11-09T09:12:53.000Z</time>
      </trkpt>
      <trkpt lat="47.5263" lon="6.72804">
        <ele>350.3</ele>
        <time>2014-11-09T09:12:54.000Z</time>
      </trkpt>
      <trkpt lat="47.52633" lon="6.72807">
        <ele>350.4</ele>
        <time>2014-11-09T09:12:55.000Z</time>
      </trkpt>
      <trkpt lat="47.52633" lon="6.72814">
        <ele>350</ele>
        <time>2014-11-09T09:12:56.000Z</time>
      </trkpt>
      <trkpt lat="47.52634" lon="6.72819">
        <ele>349.3</ele>
        <time>2014-11-09T09:12:57.000Z</time>
      </trkpt>
      <trkpt lat="47.52658" lon="6.72849">
        <ele>344.8</ele>
        <time>2014-11-09T09:13:05.000Z</time>
      </trkpt>
      <trkpt lat="47.52665" lon="6.72851">
        <ele>349.8</ele>
        <time>2014-11-09T09:13:06.000Z</time>
      </trkpt>
      <trkpt lat="47.52672" lon="6.72857">
        <ele>348.2</ele>
        <time>2014-11-09T09:13:07.000Z</time>
      </trkpt>
      <trkpt lat="47.52676" lon="6.72861">
        <ele>348.1</ele>
        <time>2014-11-09T09:13:08.000Z</time>
      </trkpt>
      <trkpt lat="47.52681" lon="6.72864">
        <ele>346.7</ele>
        <time>2014-11-09T09:13:09.000Z</time>
      </trkpt>
      <trkpt lat="47.52683" lon="6.72867">
        <ele>345</ele>
        <time>2014-11-09T09:13:10.000Z</time>
      </trkpt>
      <trkpt lat="47.52685" lon="6.72875">
        <ele>344.1</ele>
        <time>2014-11-09T09:13:11.000Z</time>
      </trkpt>
      <trkpt lat="47.52687" lon="6.72879">
        <ele>343.5</ele>
        <time>2014-11-09T09:13:12.000Z</time>
      </trkpt>
      <trkpt lat="47.52686" lon="6.72882">
        <ele>343.6</ele>
        <time>2014-11-09T09:13:13.000Z</time>
      </trkpt>
      <trkpt lat="47.52687" lon="6.72888">
        <ele>343.8</ele>
        <time>2014-11-09T09:13:16.000Z</time>
      </trkpt>
      <trkpt lat="47.52687" lon="6.7289">
        <ele>343.5</ele>
        <time>2014-11-09T09:13:17.000Z</time>
      </trkpt>
      <trkpt lat="47.52687" lon="6.72897">
        <ele>343.8</ele>
        <time>2014-11-09T09:13:22.000Z</time>
      </trkpt>
      <trkpt lat="47.52686" lon="6.72897">
        <ele>344.3</ele>
        <time>2014-11-09T09:13:23.000Z</time>
      </trkpt>
      <trkpt lat="47.52687" lon="6.72893">
        <ele>343.8</ele>
        <time>2014-11-09T09:13:32.000Z</time>
      </trkpt>
      <trkpt lat="47.52687" lon="6.7289">
        <ele>344.1</ele>
        <time>2014-11-09T09:13:33.000Z</time>
      </trkpt>
      <trkpt lat="47.52687" lon="6.72886">
        <ele>344.6</ele>
        <time>2014-11-09T09:13:34.000Z</time>
      </trkpt>
      <trkpt lat="47.52688" lon="6.72882">
        <ele>345.2</ele>
        <time>2014-11-09T09:13:35.000Z</time>
      </trkpt>
      <trkpt lat="47.52688" lon="6.72878">
        <ele>345.7</ele>
        <time>2014-11-09T09:13:36.000Z</time>
      </trkpt>
      <trkpt lat="47.52688" lon="6.72873">
        <ele>344.4</ele>
        <time>2014-11-09T09:13:37.000Z</time>
      </trkpt>
      <trkpt lat="47.52687" lon="6.72866">
        <ele>343.7</ele>
        <time>2014-11-09T09:13:38.000Z</time>
      </trkpt>
      <trkpt lat="47.52687" lon="6.7286">
        <ele>344</ele>
        <time>2014-11-09T09:13:39.000Z</time>
      </trkpt>
      <trkpt lat="47.52687" lon="6.72855">
        <ele>343</ele>
        <time>2014-11-09T09:13:40.000Z</time>
      </trkpt>
      <trkpt lat="47.52687" lon="6.7285">
        <ele>342.6</ele>
        <time>2014-11-09T09:13:41.000Z</time>
      </trkpt>
      <trkpt lat="47.52689" lon="6.72847">
        <ele>341.5</ele>
        <time>2014-11-09T09:13:42.000Z</time>
      </trkpt>
      <trkpt lat="47.52692" lon="6.72844">
        <ele>340.7</ele>
        <time>2014-11-09T09:13:43.000Z</time>
      </trkpt>
      <trkpt lat="47.52695" lon="6.72843">
        <ele>340.1</ele>
        <time>2014-11-09T09:13:44.000Z</time>
      </trkpt>
      <trkpt lat="47.52698" lon="6.72842">
        <ele>340</ele>
        <time>2014-11-09T09:13:45.000Z</time>
      </trkpt>
      <trkpt lat="47.527" lon="6.72841">
        <ele>342</ele>
        <time>2014-11-09T09:13:46.000Z</time>
      </trkpt>
      <trkpt lat="47.52702" lon="6.7284">
        <ele>344.6</ele>
        <time>2014-11-09T09:13:47.000Z</time>
      </trkpt>
      <trkpt lat="47.52705" lon="6.72837">
        <ele>347.9</ele>
        <time>2014-11-09T09:13:49.000Z</time>
      </trkpt>
      <trkpt lat="47.52707" lon="6.72835">
        <ele>348.2</ele>
        <time>2014-11-09T09:13:50.000Z</time>
      </trkpt>
      <trkpt lat="47.5271" lon="6.72833">
        <ele>349.1</ele>
        <time>2014-11-09T09:13:51.000Z</time>
      </trkpt>
      <trkpt lat="47.52713" lon="6.72832">
        <ele>349.5</ele>
        <time>2014-11-09T09:13:52.000Z</time>
      </trkpt>
      <trkpt lat="47.52716" lon="6.7283">
        <ele>349.9</ele>
        <time>2014-11-09T09:13:53.000Z</time>
      </trkpt>
      <trkpt lat="47.52719" lon="6.72829">
        <ele>351.7</ele>
        <time>2014-11-09T09:13:54.000Z</time>
      </trkpt>
      <trkpt lat="47.52723" lon="6.72827">
        <ele>351.9</ele>
        <time>2014-11-09T09:13:55.000Z</time>
      </trkpt>
      <trkpt lat="47.52735" lon="6.72818">
        <ele>347.8</ele>
        <time>2014-11-09T09:13:59.000Z</time>
      </trkpt>
      <trkpt lat="47.52739" lon="6.72816">
        <ele>346.9</ele>
        <time>2014-11-09T09:14:00.000Z</time>
      </trkpt>
      <trkpt lat="47.52742" lon="6.72813">
        <ele>345.6</ele>
        <time>2014-11-09T09:14:01.000Z</time>
      </trkpt>
      <trkpt lat="47.52745" lon="6.7281">
        <ele>345.1</ele>
        <time>2014-11-09T09:14:02.000Z</time>
      </trkpt>
      <trkpt lat="47.52749" lon="6.72807">
        <ele>346.1</ele>
        <time>2014-11-09T09:14:03.000Z</time>
      </trkpt>
      <trkpt lat="47.52752" lon="6.72804">
        <ele>346.8</ele>
        <time>2014-11-09T09:14:04.000Z</time>
      </trkpt>
      <trkpt lat="47.52755" lon="6.72801">
        <ele>347.5</ele>
        <time>2014-11-09T09:14:05.000Z</time>
      </trkpt>
      <trkpt lat="47.52759" lon="6.72798">
        <ele>348</ele>
        <time>2014-11-09T09:14:06.000Z</time>
      </trkpt>
      <trkpt lat="47.52763" lon="6.72796">
        <ele>346.5</ele>
        <time>2014-11-09T09:14:07.000Z</time>
      </trkpt>
      <trkpt lat="47.52766" lon="6.72793">
        <ele>345.8</ele>
        <time>2014-11-09T09:14:08.000Z</time>
      </trkpt>
      <trkpt lat="47.5277" lon="6.7279">
        <ele>345.8</ele>
        <time>2014-11-09T09:14:09.000Z</time>
      </trkpt>
      <trkpt lat="47.52774" lon="6.72788">
        <ele>346.2</ele>
        <time>2014-11-09T09:14:10.000Z</time>
      </trkpt>
      <trkpt lat="47.52778" lon="6.72785">
        <ele>346.2</ele>
        <time>2014-11-09T09:14:11.000Z</time>
      </trkpt>
      <trkpt lat="47.52781" lon="6.72783">
        <ele>346</ele>
        <time>2014-11-09T09:14:12.000Z</time>
      </trkpt>
      <trkpt lat="47.52785" lon="6.72781">
        <ele>345.6</ele>
        <time>2014-11-09T09:14:13.000Z</time>
      </trkpt>
      <trkpt lat="47.52789" lon="6.72779">
        <ele>344.7</ele>
        <time>2014-11-09T09:14:14.000Z</time>
      </trkpt>
      <trkpt lat="47.52793" lon="6.72777">
        <ele>343.9</ele>
        <time>2014-11-09T09:14:15.000Z</time>
      </trkpt>
      <trkpt lat="47.52798" lon="6.72775">
        <ele>344.7</ele>
        <time>2014-11-09T09:14:16.000Z</time>
      </trkpt>
      <trkpt lat="47.52803" lon="6.72775">
        <ele>346.4</ele>
        <time>2014-11-09T09:14:17.000Z</time>
      </trkpt>
      <trkpt lat="47.52807" lon="6.72774">
        <ele>348.2</ele>
        <time>2014-11-09T09:14:18.000Z</time>
      </trkpt>
      <trkpt lat="47.5281" lon="6.72774">
        <ele>349.1</ele>
        <time>2014-11-09T09:14:19.000Z</time>
      </trkpt>
      <trkpt lat="47.52816" lon="6.72777">
        <ele>349.6</ele>
        <time>2014-11-09T09:14:20.000Z</time>
      </trkpt>
      <trkpt lat="47.52821" lon="6.72778">
        <ele>349.9</ele>
        <time>2014-11-09T09:14:21.000Z</time>
      </trkpt>
      <trkpt lat="47.52826" lon="6.72782">
        <ele>349.9</ele>
        <time>2014-11-09T09:14:22.000Z</time>
      </trkpt>
      <trkpt lat="47.5283" lon="6.72785">
        <ele>349.8</ele>
        <time>2014-11-09T09:14:23.000Z</time>
      </trkpt>
      <trkpt lat="47.52835" lon="6.72789">
        <ele>350.3</ele>
        <time>2014-11-09T09:14:24.000Z</time>
      </trkpt>
      <trkpt lat="47.5284" lon="6.72794">
        <ele>350.5</ele>
        <time>2014-11-09T09:14:25.000Z</time>
      </trkpt>
      <trkpt lat="47.52845" lon="6.72798">
        <ele>350.8</ele>
        <time>2014-11-09T09:14:26.000Z</time>
      </trkpt>
      <trkpt lat="47.52849" lon="6.72802">
        <ele>351.3</ele>
        <time>2014-11-09T09:14:27.000Z</time>
      </trkpt>
      <trkpt lat="47.52854" lon="6.72807">
        <ele>351.4</ele>
        <time>2014-11-09T09:14:28.000Z</time>
      </trkpt>
      <trkpt lat="47.52859" lon="6.7281">
        <ele>350.8</ele>
        <time>2014-11-09T09:14:29.000Z</time>
      </trkpt>
      <trkpt lat="47.52864" lon="6.72812">
        <ele>352.1</ele>
        <time>2014-11-09T09:14:30.000Z</time>
      </trkpt>
      <trkpt lat="47.52869" lon="6.72816">
        <ele>352.4</ele>
        <time>2014-11-09T09:14:31.000Z</time>
      </trkpt>
      <trkpt lat="47.52873" lon="6.72817">
        <ele>351.5</ele>
        <time>2014-11-09T09:14:32.000Z</time>
      </trkpt>
      <trkpt lat="47.52878" lon="6.72818">
        <ele>352</ele>
        <time>2014-11-09T09:14:33.000Z</time>
      </trkpt>
      <trkpt lat="47.52882" lon="6.72821">
        <ele>352.4</ele>
        <time>2014-11-09T09:14:34.000Z</time>
      </trkpt>
      <trkpt lat="47.52886" lon="6.72824">
        <ele>352.7</ele>
        <time>2014-11-09T09:14:35.000Z</time>
      </trkpt>
      <trkpt lat="47.5289" lon="6.72825">
        <ele>351.8</ele>
        <time>2014-11-09T09:14:36.000Z</time>
      </trkpt>
      <trkpt lat="47.52892" lon="6.72831">
        <ele>351.2</ele>
        <time>2014-11-09T09:14:37.000Z</time>
      </trkpt>
      <trkpt lat="47.52895" lon="6.72836">
        <ele>351.7</ele>
        <time>2014-11-09T09:14:38.000Z</time>
      </trkpt>
      <trkpt lat="47.52898" lon="6.7284">
        <ele>350.9</ele>
        <time>2014-11-09T09:14:39.000Z</time>
      </trkpt>
      <trkpt lat="47.52902" lon="6.72842">
        <ele>348</ele>
        <time>2014-11-09T09:14:40.000Z</time>
      </trkpt>
      <trkpt lat="47.52905" lon="6.72843">
        <ele>344.1</ele>
        <time>2014-11-09T09:14:41.000Z</time>
      </trkpt>
      <trkpt lat="47.52907" lon="6.72844">
        <ele>342</ele>
        <time>2014-11-09T09:14:42.000Z</time>
      </trkpt>
      <trkpt lat="47.52909" lon="6.72847">
        <ele>340.1</ele>
        <time>2014-11-09T09:14:43.000Z</time>
      </trkpt>
      <trkpt lat="47.5291" lon="6.7285">
        <ele>339.8</ele>
        <time>2014-11-09T09:14:44.000Z</time>
      </trkpt>
      <trkpt lat="47.52912" lon="6.72855">
        <ele>340.1</ele>
        <time>2014-11-09T09:14:46.000Z</time>
      </trkpt>
      <trkpt lat="47.52912" lon="6.72858">
        <ele>339.9</ele>
        <time>2014-11-09T09:14:47.000Z</time>
      </trkpt>
      <trkpt lat="47.52913" lon="6.72864">
        <ele>338.7</ele>
        <time>2014-11-09T09:14:49.000Z</time>
      </trkpt>
      <trkpt lat="47.52913" lon="6.72867">
        <ele>338.7</ele>
        <time>2014-11-09T09:14:50.000Z</time>
      </trkpt>
      <trkpt lat="47.52913" lon="6.72871">
        <ele>338.1</ele>
        <time>2014-11-09T09:14:51.000Z</time>
      </trkpt>
      <trkpt lat="47.52914" lon="6.72876">
        <ele>338.1</ele>
        <time>2014-11-09T09:14:52.000Z</time>
      </trkpt>
      <trkpt lat="47.52916" lon="6.7288">
        <ele>338.1</ele>
        <time>2014-11-09T09:14:53.000Z</time>
      </trkpt>
      <trkpt lat="47.52917" lon="6.72886">
        <ele>339.4</ele>
        <time>2014-11-09T09:14:54.000Z</time>
      </trkpt>
      <trkpt lat="47.52918" lon="6.72891">
        <ele>340.8</ele>
        <time>2014-11-09T09:14:55.000Z</time>
      </trkpt>
      <trkpt lat="47.52918" lon="6.72906">
        <ele>339.2</ele>
        <time>2014-11-09T09:14:59.000Z</time>
      </trkpt>
      <trkpt lat="47.52917" lon="6.72912">
        <ele>334.7</ele>
        <time>2014-11-09T09:15:01.000Z</time>
      </trkpt>
      <trkpt lat="47.52916" lon="6.72913">
        <ele>334.9</ele>
        <time>2014-11-09T09:15:02.000Z</time>
      </trkpt>
      <trkpt lat="47.52915" lon="6.72919">
        <ele>333.8</ele>
        <time>2014-11-09T09:15:05.000Z</time>
      </trkpt>
      <trkpt lat="47.52914" lon="6.72921">
        <ele>335.4</ele>
        <time>2014-11-09T09:15:06.000Z</time>
      </trkpt>
      <trkpt lat="47.52913" lon="6.72925">
        <ele>339.2</ele>
        <time>2014-11-09T09:15:08.000Z</time>
      </trkpt>
      <trkpt lat="47.52912" lon="6.72927">
        <ele>339.7</ele>
        <time>2014-11-09T09:15:09.000Z</time>
      </trkpt>
      <trkpt lat="47.5291" lon="6.72932">
        <ele>342.2</ele>
        <time>2014-11-09T09:15:12.000Z</time>
      </trkpt>
      <trkpt lat="47.52909" lon="6.72934">
        <ele>342</ele>
        <time>2014-11-09T09:15:13.000Z</time>
      </trkpt>
      <trkpt lat="47.52907" lon="6.72938">
        <ele>341.8</ele>
        <time>2014-11-09T09:15:15.000Z</time>
      </trkpt>
      <trkpt lat="47.52907" lon="6.72941">
        <ele>342.8</ele>
        <time>2014-11-09T09:15:16.000Z</time>
      </trkpt>
      <trkpt lat="47.52906" lon="6.72945">
        <ele>342.8</ele>
        <time>2014-11-09T09:15:18.000Z</time>
      </trkpt>
      <trkpt lat="47.52905" lon="6.72947">
        <ele>343.1</ele>
        <time>2014-11-09T09:15:19.000Z</time>
      </trkpt>
      <trkpt lat="47.52902" lon="6.72952">
        <ele>347.2</ele>
        <time>2014-11-09T09:15:23.000Z</time>
      </trkpt>
      <trkpt lat="47.52901" lon="6.72953">
        <ele>348.7</ele>
        <time>2014-11-09T09:15:24.000Z</time>
      </trkpt>
      <trkpt lat="47.52899" lon="6.72956">
        <ele>347.6</ele>
        <time>2014-11-09T09:15:28.000Z</time>
      </trkpt>
      <trkpt lat="47.52898" lon="6.72958">
        <ele>347</ele>
        <time>2014-11-09T09:15:29.000Z</time>
      </trkpt>
      <trkpt lat="47.52895" lon="6.72962">
        <ele>348.9</ele>
        <time>2014-11-09T09:15:33.000Z</time>
      </trkpt>
      <trkpt lat="47.52894" lon="6.72963">
        <ele>349</ele>
        <time>2014-11-09T09:15:34.000Z</time>
      </trkpt>
      <trkpt lat="47.52891" lon="6.72966">
        <ele>350.1</ele>
        <time>2014-11-09T09:15:37.000Z</time>
      </trkpt>
      <trkpt lat="47.5289" lon="6.72967">
        <ele>350.1</ele>
        <time>2014-11-09T09:15:38.000Z</time>
      </trkpt>
      <trkpt lat="47.52887" lon="6.72972">
        <ele>350.3</ele>
        <time>2014-11-09T09:15:42.000Z</time>
      </trkpt>
      <trkpt lat="47.52886" lon="6.72974">
        <ele>350.7</ele>
        <time>2014-11-09T09:15:43.000Z</time>
      </trkpt>
      <trkpt lat="47.52883" lon="6.72978">
        <ele>352.5</ele>
        <time>2014-11-09T09:15:47.000Z</time>
      </trkpt>
      <trkpt lat="47.52882" lon="6.72978">
        <ele>352.7</ele>
        <time>2014-11-09T09:15:48.000Z</time>
      </trkpt>
      <trkpt lat="47.52879" lon="6.72982">
        <ele>353.4</ele>
        <time>2014-11-09T09:15:52.000Z</time>
      </trkpt>
      <trkpt lat="47.52879" lon="6.72983">
        <ele>354.1</ele>
        <time>2014-11-09T09:15:53.000Z</time>
      </trkpt>
      <trkpt lat="47.52877" lon="6.72986">
        <ele>354.8</ele>
        <time>2014-11-09T09:15:55.000Z</time>
      </trkpt>
      <trkpt lat="47.52873" lon="6.72996">
        <ele>348.7</ele>
        <time>2014-11-09T09:16:04.000Z</time>
      </trkpt>
      <trkpt lat="47.52871" lon="6.73001">
        <ele>348.6</ele>
        <time>2014-11-09T09:16:06.000Z</time>
      </trkpt>
      <trkpt lat="47.5287" lon="6.73003">
        <ele>349.7</ele>
        <time>2014-11-09T09:16:07.000Z</time>
      </trkpt>
      <trkpt lat="47.52868" lon="6.73008">
        <ele>350.1</ele>
        <time>2014-11-09T09:16:09.000Z</time>
      </trkpt>
      <trkpt lat="47.52867" lon="6.7301">
        <ele>351.3</ele>
        <time>2014-11-09T09:16:10.000Z</time>
      </trkpt>
      <trkpt lat="47.52866" lon="6.73015">
        <ele>351.9</ele>
        <time>2014-11-09T09:16:12.000Z</time>
      </trkpt>
      <trkpt lat="47.52865" lon="6.73018">
        <ele>352.8</ele>
        <time>2014-11-09T09:16:13.000Z</time>
      </trkpt>
      <trkpt lat="47.52863" lon="6.73022">
        <ele>352.8</ele>
        <time>2014-11-09T09:16:15.000Z</time>
      </trkpt>
      <trkpt lat="47.52862" lon="6.73024">
        <ele>352.7</ele>
        <time>2014-11-09T09:16:16.000Z</time>
      </trkpt>
      <trkpt lat="47.52861" lon="6.73029">
        <ele>352.7</ele>
        <time>2014-11-09T09:16:18.000Z</time>
      </trkpt>
      <trkpt lat="47.5286" lon="6.73032">
        <ele>352.3</ele>
        <time>2014-11-09T09:16:19.000Z</time>
      </trkpt>
      <trkpt lat="47.52859" lon="6.73036">
        <ele>352.3</ele>
        <time>2014-11-09T09:16:21.000Z</time>
      </trkpt>
      <trkpt lat="47.52858" lon="6.73038">
        <ele>352.5</ele>
        <time>2014-11-09T09:16:22.000Z</time>
      </trkpt>
      <trkpt lat="47.52856" lon="6.73044">
        <ele>352.8</ele>
        <time>2014-11-09T09:16:25.000Z</time>
      </trkpt>
      <trkpt lat="47.52855" lon="6.73046">
        <ele>352.9</ele>
        <time>2014-11-09T09:16:26.000Z</time>
      </trkpt>
      <trkpt lat="47.52854" lon="6.73051">
        <ele>354.2</ele>
        <time>2014-11-09T09:16:29.000Z</time>
      </trkpt>
      <trkpt lat="47.52854" lon="6.73052">
        <ele>354.7</ele>
        <time>2014-11-09T09:16:30.000Z</time>
      </trkpt>
      <trkpt lat="47.52853" lon="6.73058">
        <ele>356.5</ele>
        <time>2014-11-09T09:16:34.000Z</time>
      </trkpt>
      <trkpt lat="47.52853" lon="6.7306">
        <ele>356.6</ele>
        <time>2014-11-09T09:16:35.000Z</time>
      </trkpt>
      <trkpt lat="47.52854" lon="6.73065">
        <ele>355</ele>
        <time>2014-11-09T09:16:37.000Z</time>
      </trkpt>
      <trkpt lat="47.52855" lon="6.73067">
        <ele>354.9</ele>
        <time>2014-11-09T09:16:38.000Z</time>
      </trkpt>
      <trkpt lat="47.52856" lon="6.7307">
        <ele>354</ele>
        <time>2014-11-09T09:16:39.000Z</time>
      </trkpt>
      <trkpt lat="47.52858" lon="6.73073">
        <ele>353.1</ele>
        <time>2014-11-09T09:16:40.000Z</time>
      </trkpt>
      <trkpt lat="47.52859" lon="6.73076">
        <ele>353.1</ele>
        <time>2014-11-09T09:16:41.000Z</time>
      </trkpt>
      <trkpt lat="47.52861" lon="6.73079">
        <ele>352.9</ele>
        <time>2014-11-09T09:16:42.000Z</time>
      </trkpt>
      <trkpt lat="47.52862" lon="6.73085">
        <ele>352.6</ele>
        <time>2014-11-09T09:16:44.000Z</time>
      </trkpt>
      <trkpt lat="47.52863" lon="6.73088">
        <ele>352.6</ele>
        <time>2014-11-09T09:16:45.000Z</time>
      </trkpt>
      <trkpt lat="47.52864" lon="6.73094">
        <ele>352.4</ele>
        <time>2014-11-09T09:16:47.000Z</time>
      </trkpt>
      <trkpt lat="47.52865" lon="6.73097">
        <ele>353.5</ele>
        <time>2014-11-09T09:16:48.000Z</time>
      </trkpt>
      <trkpt lat="47.52865" lon="6.73102">
        <ele>354.7</ele>
        <time>2014-11-09T09:16:50.000Z</time>
      </trkpt>
      <trkpt lat="47.52866" lon="6.73105">
        <ele>354.6</ele>
        <time>2014-11-09T09:16:51.000Z</time>
      </trkpt>
      <trkpt lat="47.52867" lon="6.73111">
        <ele>353.7</ele>
        <time>2014-11-09T09:16:53.000Z</time>
      </trkpt>
      <trkpt lat="47.52868" lon="6.73114">
        <ele>353.5</ele>
        <time>2014-11-09T09:16:54.000Z</time>
      </trkpt>
      <trkpt lat="47.52869" lon="6.7312">
        <ele>353.4</ele>
        <time>2014-11-09T09:16:56.000Z</time>
      </trkpt>
      <trkpt lat="47.52871" lon="6.73127">
        <ele>350.9</ele>
        <time>2014-11-09T09:16:59.000Z</time>
      </trkpt>
      <trkpt lat="47.52873" lon="6.73132">
        <ele>351.3</ele>
        <time>2014-11-09T09:17:01.000Z</time>
      </trkpt>
      <trkpt lat="47.52873" lon="6.73134">
        <ele>351.7</ele>
        <time>2014-11-09T09:17:02.000Z</time>
      </trkpt>
      <trkpt lat="47.52875" lon="6.73141">
        <ele>352.3</ele>
        <time>2014-11-09T09:17:04.000Z</time>
      </trkpt>
      <trkpt lat="47.52875" lon="6.73144">
        <ele>353</ele>
        <time>2014-11-09T09:17:05.000Z</time>
      </trkpt>
      <trkpt lat="47.52877" lon="6.73149">
        <ele>353.7</ele>
        <time>2014-11-09T09:17:07.000Z</time>
      </trkpt>
      <trkpt lat="47.52878" lon="6.73152">
        <ele>354</ele>
        <time>2014-11-09T09:17:08.000Z</time>
      </trkpt>
      <trkpt lat="47.52879" lon="6.73157">
        <ele>355.1</ele>
        <time>2014-11-09T09:17:10.000Z</time>
      </trkpt>
      <trkpt lat="47.5288" lon="6.7316">
        <ele>356.8</ele>
        <time>2014-11-09T09:17:11.000Z</time>
      </trkpt>
      <trkpt lat="47.52882" lon="6.73165">
        <ele>358.4</ele>
        <time>2014-11-09T09:17:13.000Z</time>
      </trkpt>
      <trkpt lat="47.52883" lon="6.73167">
        <ele>358.8</ele>
        <time>2014-11-09T09:17:14.000Z</time>
      </trkpt>
      <trkpt lat="47.52885" lon="6.73172">
        <ele>360.1</ele>
        <time>2014-11-09T09:17:16.000Z</time>
      </trkpt>
      <trkpt lat="47.52885" lon="6.73174">
        <ele>361.1</ele>
        <time>2014-11-09T09:17:17.000Z</time>
      </trkpt>
      <trkpt lat="47.52887" lon="6.7318">
        <ele>362.2</ele>
        <time>2014-11-09T09:17:19.000Z</time>
      </trkpt>
      <trkpt lat="47.52887" lon="6.73182">
        <ele>362.5</ele>
        <time>2014-11-09T09:17:20.000Z</time>
      </trkpt>
      <trkpt lat="47.52888" lon="6.73188">
        <ele>362.3</ele>
        <time>2014-11-09T09:17:22.000Z</time>
      </trkpt>
      <trkpt lat="47.52889" lon="6.73191">
        <ele>362.3</ele>
        <time>2014-11-09T09:17:23.000Z</time>
      </trkpt>
      <trkpt lat="47.52891" lon="6.73197">
        <ele>362.9</ele>
        <time>2014-11-09T09:17:25.000Z</time>
      </trkpt>
      <trkpt lat="47.52891" lon="6.73199">
        <ele>363.1</ele>
        <time>2014-11-09T09:17:26.000Z</time>
      </trkpt>
      <trkpt lat="47.52893" lon="6.73205">
        <ele>363.5</ele>
        <time>2014-11-09T09:17:28.000Z</time>
      </trkpt>
      <trkpt lat="47.52894" lon="6.73207">
        <ele>363.7</ele>
        <time>2014-11-09T09:17:29.000Z</time>
      </trkpt>
      <trkpt lat="47.52895" lon="6.73213">
        <ele>364.3</ele>
        <time>2014-11-09T09:17:31.000Z</time>
      </trkpt>
      <trkpt lat="47.52896" lon="6.73215">
        <ele>363.9</ele>
        <time>2014-11-09T09:17:32.000Z</time>
      </trkpt>
      <trkpt lat="47.52897" lon="6.7322">
        <ele>363.9</ele>
        <time>2014-11-09T09:17:34.000Z</time>
      </trkpt>
      <trkpt lat="47.52897" lon="6.73223">
        <ele>364</ele>
        <time>2014-11-09T09:17:35.000Z</time>
      </trkpt>
      <trkpt lat="47.52898" lon="6.73228">
        <ele>364.1</ele>
        <time>2014-11-09T09:17:37.000Z</time>
      </trkpt>
      <trkpt lat="47.52899" lon="6.73231">
        <ele>364.3</ele>
        <time>2014-11-09T09:17:38.000Z</time>
      </trkpt>
      <trkpt lat="47.529" lon="6.73236">
        <ele>364.4</ele>
        <time>2014-11-09T09:17:40.000Z</time>
      </trkpt>
      <trkpt lat="47.52901" lon="6.73238">
        <ele>364.6</ele>
        <time>2014-11-09T09:17:41.000Z</time>
      </trkpt>
      <trkpt lat="47.52902" lon="6.73243">
        <ele>364.8</ele>
        <time>2014-11-09T09:17:43.000Z</time>
      </trkpt>
      <trkpt lat="47.52903" lon="6.73246">
        <ele>364.7</ele>
        <time>2014-11-09T09:17:44.000Z</time>
      </trkpt>
      <trkpt lat="47.52904" lon="6.73251">
        <ele>364.6</ele>
        <time>2014-11-09T09:17:46.000Z</time>
      </trkpt>
      <trkpt lat="47.52905" lon="6.73254">
        <ele>364.3</ele>
        <time>2014-11-09T09:17:47.000Z</time>
      </trkpt>
      <trkpt lat="47.52907" lon="6.7326">
        <ele>365</ele>
        <time>2014-11-09T09:17:49.000Z</time>
      </trkpt>
      <trkpt lat="47.52908" lon="6.73263">
        <ele>365.2</ele>
        <time>2014-11-09T09:17:50.000Z</time>
      </trkpt>
      <trkpt lat="47.52909" lon="6.73269">
        <ele>365.3</ele>
        <time>2014-11-09T09:17:52.000Z</time>
      </trkpt>
      <trkpt lat="47.5291" lon="6.73272">
        <ele>365.1</ele>
        <time>2014-11-09T09:17:53.000Z</time>
      </trkpt>
      <trkpt lat="47.52911" lon="6.73275">
        <ele>365.1</ele>
        <time>2014-11-09T09:17:54.000Z</time>
      </trkpt>
      <trkpt lat="47.52912" lon="6.73279">
        <ele>365</ele>
        <time>2014-11-09T09:17:55.000Z</time>
      </trkpt>
      <trkpt lat="47.52918" lon="6.73303">
        <ele>366.9</ele>
        <time>2014-11-09T09:18:02.824Z</time>
      </trkpt>
      <trkpt lat="47.52919" lon="6.73307">
        <ele>366.7</ele>
        <time>2014-11-09T09:18:04.000Z</time>
      </trkpt>
      <trkpt lat="47.5292" lon="6.73311">
        <ele>366.9</ele>
        <time>2014-11-09T09:18:05.000Z</time>
      </trkpt>
      <trkpt lat="47.52921" lon="6.73314">
        <ele>367.9</ele>
        <time>2014-11-09T09:18:06.000Z</time>
      </trkpt>
      <trkpt lat="47.52922" lon="6.73318">
        <ele>367.9</ele>
        <time>2014-11-09T09:18:07.000Z</time>
      </trkpt>
      <trkpt lat="47.52923" lon="6.73321">
        <ele>367.9</ele>
        <time>2014-11-09T09:18:08.000Z</time>
      </trkpt>
      <trkpt lat="47.52924" lon="6.73325">
        <ele>368.1</ele>
        <time>2014-11-09T09:18:09.000Z</time>
      </trkpt>
      <trkpt lat="47.52925" lon="6.73328">
        <ele>367.8</ele>
        <time>2014-11-09T09:18:10.000Z</time>
      </trkpt>
      <trkpt lat="47.52926" lon="6.73331">
        <ele>368.1</ele>
        <time>2014-11-09T09:18:11.000Z</time>
      </trkpt>
      <trkpt lat="47.52927" lon="6.73335">
        <ele>368.6</ele>
        <time>2014-11-09T09:18:12.000Z</time>
      </trkpt>
      <trkpt lat="47.52929" lon="6.73338">
        <ele>369.2</ele>
        <time>2014-11-09T09:18:13.000Z</time>
      </trkpt>
      <trkpt lat="47.5293" lon="6.73341">
        <ele>369.7</ele>
        <time>2014-11-09T09:18:14.000Z</time>
      </trkpt>
      <trkpt lat="47.52931" lon="6.73344">
        <ele>369.9</ele>
        <time>2014-11-09T09:18:15.000Z</time>
      </trkpt>
      <trkpt lat="47.52933" lon="6.73349">
        <ele>370.1</ele>
        <time>2014-11-09T09:18:17.000Z</time>
      </trkpt>
      <trkpt lat="47.52934" lon="6.73352">
        <ele>370.6</ele>
        <time>2014-11-09T09:18:18.000Z</time>
      </trkpt>
      <trkpt lat="47.52936" lon="6.73355">
        <ele>371.1</ele>
        <time>2014-11-09T09:18:19.000Z</time>
      </trkpt>
      <trkpt lat="47.52937" lon="6.73358">
        <ele>371.6</ele>
        <time>2014-11-09T09:18:20.000Z</time>
      </trkpt>
      <trkpt lat="47.52938" lon="6.73361">
        <ele>371.2</ele>
        <time>2014-11-09T09:18:21.000Z</time>
      </trkpt>
      <trkpt lat="47.52939" lon="6.73364">
        <ele>370.9</ele>
        <time>2014-11-09T09:18:22.000Z</time>
      </trkpt>
      <trkpt lat="47.52941" lon="6.73367">
        <ele>370.8</ele>
        <time>2014-11-09T09:18:23.000Z</time>
      </trkpt>
      <trkpt lat="47.52942" lon="6.7337">
        <ele>370.5</ele>
        <time>2014-11-09T09:18:24.000Z</time>
      </trkpt>
      <trkpt lat="47.52943" lon="6.73374">
        <ele>370.3</ele>
        <time>2014-11-09T09:18:25.000Z</time>
      </trkpt>
      <trkpt lat="47.52944" lon="6.73377">
        <ele>370.4</ele>
        <time>2014-11-09T09:18:26.000Z</time>
      </trkpt>
      <trkpt lat="47.52945" lon="6.73381">
        <ele>370.2</ele>
        <time>2014-11-09T09:18:27.000Z</time>
      </trkpt>
      <trkpt lat="47.52946" lon="6.73384">
        <ele>370.2</ele>
        <time>2014-11-09T09:18:28.000Z</time>
      </trkpt>
      <trkpt lat="47.52948" lon="6.73388">
        <ele>370.9</ele>
        <time>2014-11-09T09:18:29.000Z</time>
      </trkpt>
      <trkpt lat="47.52949" lon="6.73391">
        <ele>371.3</ele>
        <time>2014-11-09T09:18:30.000Z</time>
      </trkpt>
      <trkpt lat="47.5295" lon="6.73395">
        <ele>371.2</ele>
        <time>2014-11-09T09:18:31.000Z</time>
      </trkpt>
      <trkpt lat="47.52952" lon="6.73398">
        <ele>371</ele>
        <time>2014-11-09T09:18:32.000Z</time>
      </trkpt>
      <trkpt lat="47.52954" lon="6.73401">
        <ele>369.1</ele>
        <time>2014-11-09T09:18:33.000Z</time>
      </trkpt>
      <trkpt lat="47.52955" lon="6.73404">
        <ele>369.4</ele>
        <time>2014-11-09T09:18:34.000Z</time>
      </trkpt>
      <trkpt lat="47.52957" lon="6.73407">
        <ele>369</ele>
        <time>2014-11-09T09:18:35.000Z</time>
      </trkpt>
      <trkpt lat="47.52958" lon="6.73409">
        <ele>369.2</ele>
        <time>2014-11-09T09:18:36.000Z</time>
      </trkpt>
      <trkpt lat="47.52961" lon="6.73414">
        <ele>369.9</ele>
        <time>2014-11-09T09:18:38.000Z</time>
      </trkpt>
      <trkpt lat="47.52962" lon="6.73415">
        <ele>369.5</ele>
        <time>2014-11-09T09:18:39.000Z</time>
      </trkpt>
      <trkpt lat="47.52966" lon="6.73417">
        <ele>372.9</ele>
        <time>2014-11-09T09:18:43.000Z</time>
      </trkpt>
      <trkpt lat="47.52967" lon="6.73416">
        <ele>374.5</ele>
        <time>2014-11-09T09:18:44.000Z</time>
      </trkpt>
      <trkpt lat="47.52968" lon="6.7341">
        <ele>375.9</ele>
        <time>2014-11-09T09:18:52.000Z</time>
      </trkpt>
      <trkpt lat="47.52968" lon="6.7341">
        <ele>375.7</ele>
        <time>2014-11-09T09:18:53.000Z</time>
      </trkpt>
      <trkpt lat="47.52964" lon="6.73409">
        <ele>328.1</ele>
        <time>2014-11-09T09:20:05.000Z</time>
      </trkpt>
      <trkpt lat="47.52964" lon="6.73409">
        <ele>327.9</ele>
        <time>2014-11-09T09:20:06.000Z</time>
      </trkpt>
      <trkpt lat="47.52967" lon="6.73405">
        <ele>339.5</ele>
        <time>2014-11-09T09:20:12.000Z</time>
      </trkpt>
      <trkpt lat="47.52969" lon="6.73402">
        <ele>341</ele>
        <time>2014-11-09T09:20:13.000Z</time>
      </trkpt>
      <trkpt lat="47.52971" lon="6.73399">
        <ele>342.9</ele>
        <time>2014-11-09T09:20:14.000Z</time>
      </trkpt>
      <trkpt lat="47.52973" lon="6.73395">
        <ele>345</ele>
        <time>2014-11-09T09:20:15.000Z</time>
      </trkpt>
      <trkpt lat="47.52975" lon="6.73392">
        <ele>347.2</ele>
        <time>2014-11-09T09:20:16.000Z</time>
      </trkpt>
      <trkpt lat="47.52977" lon="6.73387">
        <ele>349.8</ele>
        <time>2014-11-09T09:20:17.000Z</time>
      </trkpt>
      <trkpt lat="47.5298" lon="6.73383">
        <ele>351.7</ele>
        <time>2014-11-09T09:20:18.000Z</time>
      </trkpt>
      <trkpt lat="47.52982" lon="6.73379">
        <ele>352.8</ele>
        <time>2014-11-09T09:20:19.000Z</time>
      </trkpt>
      <trkpt lat="47.52985" lon="6.73375">
        <ele>353.4</ele>
        <time>2014-11-09T09:20:20.000Z</time>
      </trkpt>
      <trkpt lat="47.52987" lon="6.73371">
        <ele>354</ele>
        <time>2014-11-09T09:20:21.000Z</time>
      </trkpt>
      <trkpt lat="47.5299" lon="6.73367">
        <ele>355.3</ele>
        <time>2014-11-09T09:20:22.000Z</time>
      </trkpt>
      <trkpt lat="47.52992" lon="6.73363">
        <ele>355.7</ele>
        <time>2014-11-09T09:20:23.000Z</time>
      </trkpt>
      <trkpt lat="47.52995" lon="6.73358">
        <ele>356.5</ele>
        <time>2014-11-09T09:20:24.000Z</time>
      </trkpt>
      <trkpt lat="47.52998" lon="6.73354">
        <ele>357.1</ele>
        <time>2014-11-09T09:20:25.000Z</time>
      </trkpt>
      <trkpt lat="47.53001" lon="6.7335">
        <ele>356.6</ele>
        <time>2014-11-09T09:20:26.000Z</time>
      </trkpt>
      <trkpt lat="47.53003" lon="6.73345">
        <ele>357.3</ele>
        <time>2014-11-09T09:20:27.000Z</time>
      </trkpt>
      <trkpt lat="47.53007" lon="6.7334">
        <ele>358.5</ele>
        <time>2014-11-09T09:20:28.000Z</time>
      </trkpt>
      <trkpt lat="47.5301" lon="6.73335">
        <ele>358.3</ele>
        <time>2014-11-09T09:20:29.000Z</time>
      </trkpt>
      <trkpt lat="47.53016" lon="6.73325">
        <ele>358.9</ele>
        <time>2014-11-09T09:20:30.000Z</time>
      </trkpt>
      <trkpt lat="47.53019" lon="6.73319">
        <ele>359.1</ele>
        <time>2014-11-09T09:20:31.000Z</time>
      </trkpt>
      <trkpt lat="47.53022" lon="6.73314">
        <ele>359.5</ele>
        <time>2014-11-09T09:20:32.000Z</time>
      </trkpt>
      <trkpt lat="47.53024" lon="6.73309">
        <ele>359.1</ele>
        <time>2014-11-09T09:20:33.000Z</time>
      </trkpt>
      <trkpt lat="47.53027" lon="6.73306">
        <ele>359.1</ele>
        <time>2014-11-09T09:20:34.000Z</time>
      </trkpt>
      <trkpt lat="47.5303" lon="6.73303">
        <ele>359.5</ele>
        <time>2014-11-09T09:20:35.000Z</time>
      </trkpt>
      <trkpt lat="47.53032" lon="6.733">
        <ele>360.2</ele>
        <time>2014-11-09T09:20:36.000Z</time>
      </trkpt>
      <trkpt lat="47.53035" lon="6.73294">
        <ele>360.3</ele>
        <time>2014-11-09T09:20:37.000Z</time>
      </trkpt>
      <trkpt lat="47.53038" lon="6.73288">
        <ele>361</ele>
        <time>2014-11-09T09:20:38.000Z</time>
      </trkpt>
      <trkpt lat="47.53041" lon="6.73283">
        <ele>361.4</ele>
        <time>2014-11-09T09:20:39.000Z</time>
      </trkpt>
      <trkpt lat="47.53044" lon="6.73277">
        <ele>362</ele>
        <time>2014-11-09T09:20:40.000Z</time>
      </trkpt>
      <trkpt lat="47.53047" lon="6.73271">
        <ele>362.9</ele>
        <time>2014-11-09T09:20:41.000Z</time>
      </trkpt>
      <trkpt lat="47.5305" lon="6.73266">
        <ele>364.5</ele>
        <time>2014-11-09T09:20:42.000Z</time>
      </trkpt>
      <trkpt lat="47.53053" lon="6.73261">
        <ele>364.8</ele>
        <time>2014-11-09T09:20:43.000Z</time>
      </trkpt>
      <trkpt lat="47.53055" lon="6.73257">
        <ele>366.9</ele>
        <time>2014-11-09T09:20:44.000Z</time>
      </trkpt>
      <trkpt lat="47.53058" lon="6.73253">
        <ele>368.1</ele>
        <time>2014-11-09T09:20:45.000Z</time>
      </trkpt>
      <trkpt lat="47.53061" lon="6.73249">
        <ele>368.9</ele>
        <time>2014-11-09T09:20:46.000Z</time>
      </trkpt>
      <trkpt lat="47.53063" lon="6.73245">
        <ele>369.7</ele>
        <time>2014-11-09T09:20:47.000Z</time>
      </trkpt>
      <trkpt lat="47.53065" lon="6.73241">
        <ele>369.7</ele>
        <time>2014-11-09T09:20:48.000Z</time>
      </trkpt>
      <trkpt lat="47.53067" lon="6.73238">
        <ele>369.1</ele>
        <time>2014-11-09T09:20:49.000Z</time>
      </trkpt>
      <trkpt lat="47.53069" lon="6.73234">
        <ele>370.2</ele>
        <time>2014-11-09T09:20:50.000Z</time>
      </trkpt>
      <trkpt lat="47.53071" lon="6.73231">
        <ele>370.1</ele>
        <time>2014-11-09T09:20:51.000Z</time>
      </trkpt>
      <trkpt lat="47.53073" lon="6.73227">
        <ele>370.7</ele>
        <time>2014-11-09T09:20:52.000Z</time>
      </trkpt>
      <trkpt lat="47.53075" lon="6.73223">
        <ele>371.6</ele>
        <time>2014-11-09T09:20:53.000Z</time>
      </trkpt>
      <trkpt lat="47.53077" lon="6.73219">
        <ele>371.8</ele>
        <time>2014-11-09T09:20:54.000Z</time>
      </trkpt>
      <trkpt lat="47.53079" lon="6.73214">
        <ele>372.1</ele>
        <time>2014-11-09T09:20:55.000Z</time>
      </trkpt>
      <trkpt lat="47.53098" lon="6.7318">
        <ele>369.7</ele>
        <time>2014-11-09T09:21:04.000Z</time>
      </trkpt>
      <trkpt lat="47.531" lon="6.73177">
        <ele>369.3</ele>
        <time>2014-11-09T09:21:05.000Z</time>
      </trkpt>
      <trkpt lat="47.53101" lon="6.73174">
        <ele>368.6</ele>
        <time>2014-11-09T09:21:06.000Z</time>
      </trkpt>
      <trkpt lat="47.53103" lon="6.73171">
        <ele>371.5</ele>
        <time>2014-11-09T09:21:07.000Z</time>
      </trkpt>
      <trkpt lat="47.53105" lon="6.73168">
        <ele>372.2</ele>
        <time>2014-11-09T09:21:08.000Z</time>
      </trkpt>
      <trkpt lat="47.53107" lon="6.73164">
        <ele>372.3</ele>
        <time>2014-11-09T09:21:09.000Z</time>
      </trkpt>
      <trkpt lat="47.53109" lon="6.7316">
        <ele>372.9</ele>
        <time>2014-11-09T09:21:10.000Z</time>
      </trkpt>
      <trkpt lat="47.53111" lon="6.73156">
        <ele>374</ele>
        <time>2014-11-09T09:21:11.000Z</time>
      </trkpt>
      <trkpt lat="47.53113" lon="6.73152">
        <ele>373.9</ele>
        <time>2014-11-09T09:21:12.000Z</time>
      </trkpt>
      <trkpt lat="47.53115" lon="6.73148">
        <ele>373.1</ele>
        <time>2014-11-09T09:21:13.000Z</time>
      </trkpt>
      <trkpt lat="47.53118" lon="6.73144">
        <ele>372.9</ele>
        <time>2014-11-09T09:21:14.000Z</time>
      </trkpt>
      <trkpt lat="47.5312" lon="6.7314">
        <ele>372.5</ele>
        <time>2014-11-09T09:21:15.000Z</time>
      </trkpt>
      <trkpt lat="47.53127" lon="6.73133">
        <ele>372.9</ele>
        <time>2014-11-09T09:21:16.000Z</time>
      </trkpt>
      <trkpt lat="47.5313" lon="6.73127">
        <ele>373.7</ele>
        <time>2014-11-09T09:21:17.000Z</time>
      </trkpt>
      <trkpt lat="47.53133" lon="6.73123">
        <ele>374.1</ele>
        <time>2014-11-09T09:21:18.000Z</time>
      </trkpt>
      <trkpt lat="47.53136" lon="6.73118">
        <ele>373.5</ele>
        <time>2014-11-09T09:21:19.000Z</time>
      </trkpt>
      <trkpt lat="47.53138" lon="6.73114">
        <ele>373.3</ele>
        <time>2014-11-09T09:21:20.000Z</time>
      </trkpt>
      <trkpt lat="47.53142" lon="6.73109">
        <ele>373.4</ele>
        <time>2014-11-09T09:21:21.000Z</time>
      </trkpt>
      <trkpt lat="47.53144" lon="6.73106">
        <ele>372.7</ele>
        <time>2014-11-09T09:21:22.000Z</time>
      </trkpt>
      <trkpt lat="47.53147" lon="6.73101">
        <ele>373.1</ele>
        <time>2014-11-09T09:21:23.000Z</time>
      </trkpt>
      <trkpt lat="47.5315" lon="6.73097">
        <ele>373.2</ele>
        <time>2014-11-09T09:21:24.000Z</time>
      </trkpt>
      <trkpt lat="47.53154" lon="6.73091">
        <ele>374.1</ele>
        <time>2014-11-09T09:21:25.000Z</time>
      </trkpt>
      <trkpt lat="47.53157" lon="6.73085">
        <ele>375</ele>
        <time>2014-11-09T09:21:26.000Z</time>
      </trkpt>
      <trkpt lat="47.53161" lon="6.7308">
        <ele>374.7</ele>
        <time>2014-11-09T09:21:27.000Z</time>
      </trkpt>
      <trkpt lat="47.53165" lon="6.73074">
        <ele>375.2</ele>
        <time>2014-11-09T09:21:28.000Z</time>
      </trkpt>
      <trkpt lat="47.53169" lon="6.7307">
        <ele>376</ele>
        <time>2014-11-09T09:21:29.000Z</time>
      </trkpt>
      <trkpt lat="47.53173" lon="6.73064">
        <ele>376.4</ele>
        <time>2014-11-09T09:21:30.000Z</time>
      </trkpt>
      <trkpt lat="47.53177" lon="6.73059">
        <ele>377.2</ele>
        <time>2014-11-09T09:21:31.000Z</time>
      </trkpt>
      <trkpt lat="47.53182" lon="6.73054">
        <ele>377.5</ele>
        <time>2014-11-09T09:21:32.000Z</time>
      </trkpt>
      <trkpt lat="47.53186" lon="6.73049">
        <ele>378.8</ele>
        <time>2014-11-09T09:21:33.000Z</time>
      </trkpt>
      <trkpt lat="47.5319" lon="6.73046">
        <ele>378</ele>
        <time>2014-11-09T09:21:34.000Z</time>
      </trkpt>
      <trkpt lat="47.53194" lon="6.73043">
        <ele>377.9</ele>
        <time>2014-11-09T09:21:35.000Z</time>
      </trkpt>
      <trkpt lat="47.53199" lon="6.7304">
        <ele>376.9</ele>
        <time>2014-11-09T09:21:36.000Z</time>
      </trkpt>
      <trkpt lat="47.53204" lon="6.73037">
        <ele>376.8</ele>
        <time>2014-11-09T09:21:37.000Z</time>
      </trkpt>
      <trkpt lat="47.53208" lon="6.73035">
        <ele>375.6</ele>
        <time>2014-11-09T09:21:38.000Z</time>
      </trkpt>
      <trkpt lat="47.53212" lon="6.7303">
        <ele>374.1</ele>
        <time>2014-11-09T09:21:39.000Z</time>
      </trkpt>
      <trkpt lat="47.53217" lon="6.73025">
        <ele>373</ele>
        <time>2014-11-09T09:21:40.000Z</time>
      </trkpt>
      <trkpt lat="47.53221" lon="6.73021">
        <ele>372.4</ele>
        <time>2014-11-09T09:21:41.000Z</time>
      </trkpt>
      <trkpt lat="47.53226" lon="6.73017">
        <ele>372.5</ele>
        <time>2014-11-09T09:21:42.000Z</time>
      </trkpt>
      <trkpt lat="47.53231" lon="6.73013">
        <ele>372.9</ele>
        <time>2014-11-09T09:21:43.000Z</time>
      </trkpt>
      <trkpt lat="47.53237" lon="6.73008">
        <ele>374</ele>
        <time>2014-11-09T09:21:44.000Z</time>
      </trkpt>
      <trkpt lat="47.53244" lon="6.73003">
        <ele>373.5</ele>
        <time>2014-11-09T09:21:45.000Z</time>
      </trkpt>
      <trkpt lat="47.53249" lon="6.72997">
        <ele>371.1</ele>
        <time>2014-11-09T09:21:46.000Z</time>
      </trkpt>
      <trkpt lat="47.53254" lon="6.72993">
        <ele>371.5</ele>
        <time>2014-11-09T09:21:47.000Z</time>
      </trkpt>
      <trkpt lat="47.5326" lon="6.72989">
        <ele>371.2</ele>
        <time>2014-11-09T09:21:48.000Z</time>
      </trkpt>
      <trkpt lat="47.53267" lon="6.72984">
        <ele>371.5</ele>
        <time>2014-11-09T09:21:49.000Z</time>
      </trkpt>
      <trkpt lat="47.53273" lon="6.72981">
        <ele>371.5</ele>
        <time>2014-11-09T09:21:50.000Z</time>
      </trkpt>
      <trkpt lat="47.53278" lon="6.72979">
        <ele>372.2</ele>
        <time>2014-11-09T09:21:51.000Z</time>
      </trkpt>
      <trkpt lat="47.53282" lon="6.72977">
        <ele>372.4</ele>
        <time>2014-11-09T09:21:52.000Z</time>
      </trkpt>
      <trkpt lat="47.53287" lon="6.72974">
        <ele>372.5</ele>
        <time>2014-11-09T09:21:53.000Z</time>
      </trkpt>
      <trkpt lat="47.53291" lon="6.72971">
        <ele>371.9</ele>
        <time>2014-11-09T09:21:54.000Z</time>
      </trkpt>
      <trkpt lat="47.53296" lon="6.72966">
        <ele>371.7</ele>
        <time>2014-11-09T09:21:55.000Z</time>
      </trkpt>
      <trkpt lat="47.53301" lon="6.72963">
        <ele>371.2</ele>
        <time>2014-11-09T09:21:56.000Z</time>
      </trkpt>
      <trkpt lat="47.53313" lon="6.72951">
        <ele>368</ele>
        <time>2014-11-09T09:21:59.000Z</time>
      </trkpt>
      <trkpt lat="47.53318" lon="6.72944">
        <ele>368</ele>
        <time>2014-11-09T09:22:00.000Z</time>
      </trkpt>
      <trkpt lat="47.53322" lon="6.72942">
        <ele>368.4</ele>
        <time>2014-11-09T09:22:01.000Z</time>
      </trkpt>
      <trkpt lat="47.53326" lon="6.72938">
        <ele>368.7</ele>
        <time>2014-11-09T09:22:02.000Z</time>
      </trkpt>
      <trkpt lat="47.53331" lon="6.72934">
        <ele>368.6</ele>
        <time>2014-11-09T09:22:03.000Z</time>
      </trkpt>
      <trkpt lat="47.53335" lon="6.7293">
        <ele>368.6</ele>
        <time>2014-11-09T09:22:04.000Z</time>
      </trkpt>
      <trkpt lat="47.5334" lon="6.72925">
        <ele>368.8</ele>
        <time>2014-11-09T09:22:05.000Z</time>
      </trkpt>
      <trkpt lat="47.53345" lon="6.72922">
        <ele>369</ele>
        <time>2014-11-09T09:22:06.000Z</time>
      </trkpt>
      <trkpt lat="47.5335" lon="6.72918">
        <ele>369</ele>
        <time>2014-11-09T09:22:07.000Z</time>
      </trkpt>
      <trkpt lat="47.53355" lon="6.72911">
        <ele>368</ele>
        <time>2014-11-09T09:22:08.000Z</time>
      </trkpt>
      <trkpt lat="47.5336" lon="6.72906">
        <ele>367</ele>
        <time>2014-11-09T09:22:09.000Z</time>
      </trkpt>
      <trkpt lat="47.53365" lon="6.729">
        <ele>366.8</ele>
        <time>2014-11-09T09:22:10.000Z</time>
      </trkpt>
      <trkpt lat="47.5337" lon="6.72895">
        <ele>366.1</ele>
        <time>2014-11-09T09:22:11.000Z</time>
      </trkpt>
      <trkpt lat="47.53374" lon="6.72889">
        <ele>365.6</ele>
        <time>2014-11-09T09:22:12.000Z</time>
      </trkpt>
      <trkpt lat="47.53377" lon="6.72883">
        <ele>365.4</ele>
        <time>2014-11-09T09:22:13.000Z</time>
      </trkpt>
      <trkpt lat="47.5338" lon="6.72878">
        <ele>364.2</ele>
        <time>2014-11-09T09:22:14.000Z</time>
      </trkpt>
      <trkpt lat="47.53382" lon="6.72872">
        <ele>364.2</ele>
        <time>2014-11-09T09:22:15.000Z</time>
      </trkpt>
      <trkpt lat="47.53384" lon="6.7287">
        <ele>364.4</ele>
        <time>2014-11-09T09:22:16.000Z</time>
      </trkpt>
      <trkpt lat="47.53387" lon="6.72863">
        <ele>364.4</ele>
        <time>2014-11-09T09:22:17.000Z</time>
      </trkpt>
      <trkpt lat="47.53391" lon="6.72854">
        <ele>363.2</ele>
        <time>2014-11-09T09:22:18.000Z</time>
      </trkpt>
      <trkpt lat="47.53394" lon="6.72847">
        <ele>362.9</ele>
        <time>2014-11-09T09:22:19.000Z</time>
      </trkpt>
      <trkpt lat="47.53397" lon="6.72842">
        <ele>363.1</ele>
        <time>2014-11-09T09:22:20.000Z</time>
      </trkpt>
      <trkpt lat="47.53401" lon="6.72834">
        <ele>363.4</ele>
        <time>2014-11-09T09:22:21.000Z</time>
      </trkpt>
      <trkpt lat="47.53406" lon="6.72829">
        <ele>363.5</ele>
        <time>2014-11-09T09:22:22.000Z</time>
      </trkpt>
      <trkpt lat="47.5341" lon="6.72826">
        <ele>364.1</ele>
        <time>2014-11-09T09:22:23.000Z</time>
      </trkpt>
      <trkpt lat="47.53416" lon="6.72823">
        <ele>363.8</ele>
        <time>2014-11-09T09:22:24.000Z</time>
      </trkpt>
      <trkpt lat="47.53427" lon="6.72814">
        <ele>361.4</ele>
        <time>2014-11-09T09:22:25.000Z</time>
      </trkpt>
      <trkpt lat="47.53436" lon="6.72808">
        <ele>360.5</ele>
        <time>2014-11-09T09:22:26.000Z</time>
      </trkpt>
      <trkpt lat="47.53443" lon="6.72799">
        <ele>359.2</ele>
        <time>2014-11-09T09:22:27.000Z</time>
      </trkpt>
      <trkpt lat="47.5345" lon="6.7279">
        <ele>359.1</ele>
        <time>2014-11-09T09:22:28.000Z</time>
      </trkpt>
      <trkpt lat="47.53455" lon="6.72782">
        <ele>357.9</ele>
        <time>2014-11-09T09:22:29.000Z</time>
      </trkpt>
      <trkpt lat="47.5346" lon="6.72777">
        <ele>357.6</ele>
        <time>2014-11-09T09:22:30.000Z</time>
      </trkpt>
      <trkpt lat="47.53466" lon="6.72774">
        <ele>357.6</ele>
        <time>2014-11-09T09:22:31.000Z</time>
      </trkpt>
      <trkpt lat="47.5347" lon="6.72772">
        <ele>357.5</ele>
        <time>2014-11-09T09:22:32.000Z</time>
      </trkpt>
      <trkpt lat="47.53475" lon="6.72768">
        <ele>358</ele>
        <time>2014-11-09T09:22:33.000Z</time>
      </trkpt>
      <trkpt lat="47.5348" lon="6.72765">
        <ele>357.6</ele>
        <time>2014-11-09T09:22:34.000Z</time>
      </trkpt>
      <trkpt lat="47.53485" lon="6.72761">
        <ele>357.1</ele>
        <time>2014-11-09T09:22:35.000Z</time>
      </trkpt>
      <trkpt lat="47.53489" lon="6.72759">
        <ele>357.9</ele>
        <time>2014-11-09T09:22:36.000Z</time>
      </trkpt>
      <trkpt lat="47.53493" lon="6.72755">
        <ele>358.6</ele>
        <time>2014-11-09T09:22:37.000Z</time>
      </trkpt>
      <trkpt lat="47.53498" lon="6.72749">
        <ele>359.1</ele>
        <time>2014-11-09T09:22:38.000Z</time>
      </trkpt>
      <trkpt lat="47.53501" lon="6.72745">
        <ele>359</ele>
        <time>2014-11-09T09:22:39.000Z</time>
      </trkpt>
      <trkpt lat="47.53506" lon="6.7274">
        <ele>358.9</ele>
        <time>2014-11-09T09:22:40.000Z</time>
      </trkpt>
      <trkpt lat="47.53509" lon="6.72738">
        <ele>359.1</ele>
        <time>2014-11-09T09:22:41.000Z</time>
      </trkpt>
      <trkpt lat="47.53512" lon="6.72735">
        <ele>359.5</ele>
        <time>2014-11-09T09:22:42.000Z</time>
      </trkpt>
      <trkpt lat="47.53516" lon="6.72732">
        <ele>360.6</ele>
        <time>2014-11-09T09:22:43.000Z</time>
      </trkpt>
      <trkpt lat="47.53518" lon="6.72729">
        <ele>360.7</ele>
        <time>2014-11-09T09:22:44.000Z</time>
      </trkpt>
      <trkpt lat="47.53521" lon="6.72726">
        <ele>362.3</ele>
        <time>2014-11-09T09:22:45.000Z</time>
      </trkpt>
      <trkpt lat="47.53525" lon="6.72723">
        <ele>362.8</ele>
        <time>2014-11-09T09:22:46.000Z</time>
      </trkpt>
      <trkpt lat="47.53527" lon="6.7272">
        <ele>363.9</ele>
        <time>2014-11-09T09:22:47.000Z</time>
      </trkpt>
      <trkpt lat="47.5353" lon="6.72717">
        <ele>366.5</ele>
        <time>2014-11-09T09:22:48.000Z</time>
      </trkpt>
      <trkpt lat="47.53533" lon="6.72713">
        <ele>366.5</ele>
        <time>2014-11-09T09:22:49.000Z</time>
      </trkpt>
      <trkpt lat="47.53536" lon="6.7271">
        <ele>366.1</ele>
        <time>2014-11-09T09:22:50.000Z</time>
      </trkpt>
      <trkpt lat="47.53538" lon="6.72708">
        <ele>366.1</ele>
        <time>2014-11-09T09:22:51.000Z</time>
      </trkpt>
      <trkpt lat="47.53541" lon="6.72707">
        <ele>366</ele>
        <time>2014-11-09T09:22:52.000Z</time>
      </trkpt>
      <trkpt lat="47.53543" lon="6.72706">
        <ele>366.2</ele>
        <time>2014-11-09T09:22:53.000Z</time>
      </trkpt>
      <trkpt lat="47.53546" lon="6.72705">
        <ele>366.4</ele>
        <time>2014-11-09T09:22:54.000Z</time>
      </trkpt>
      <trkpt lat="47.53549" lon="6.72704">
        <ele>365.8</ele>
        <time>2014-11-09T09:22:55.000Z</time>
      </trkpt>
      <trkpt lat="47.53552" lon="6.72705">
        <ele>365.5</ele>
        <time>2014-11-09T09:22:56.000Z</time>
      </trkpt>
      <trkpt lat="47.53572" lon="6.7271">
        <ele>358.4</ele>
        <time>2014-11-09T09:23:04.000Z</time>
      </trkpt>
      <trkpt lat="47.53574" lon="6.7271">
        <ele>358.8</ele>
        <time>2014-11-09T09:23:05.000Z</time>
      </trkpt>
      <trkpt lat="47.53577" lon="6.7271">
        <ele>362</ele>
        <time>2014-11-09T09:23:06.000Z</time>
      </trkpt>
      <trkpt lat="47.5358" lon="6.72709">
        <ele>363.1</ele>
        <time>2014-11-09T09:23:07.000Z</time>
      </trkpt>
      <trkpt lat="47.53583" lon="6.72708">
        <ele>366.3</ele>
        <time>2014-11-09T09:23:08.000Z</time>
      </trkpt>
      <trkpt lat="47.53587" lon="6.72708">
        <ele>365.9</ele>
        <time>2014-11-09T09:23:09.000Z</time>
      </trkpt>
      <trkpt lat="47.5359" lon="6.72708">
        <ele>366.1</ele>
        <time>2014-11-09T09:23:10.000Z</time>
      </trkpt>
      <trkpt lat="47.53594" lon="6.72709">
        <ele>365.6</ele>
        <time>2014-11-09T09:23:11.000Z</time>
      </trkpt>
      <trkpt lat="47.53598" lon="6.72709">
        <ele>366.4</ele>
        <time>2014-11-09T09:23:12.000Z</time>
      </trkpt>
      <trkpt lat="47.53602" lon="6.72709">
        <ele>367.5</ele>
        <time>2014-11-09T09:23:13.000Z</time>
      </trkpt>
      <trkpt lat="47.53606" lon="6.72709">
        <ele>368.3</ele>
        <time>2014-11-09T09:23:14.000Z</time>
      </trkpt>
      <trkpt lat="47.5361" lon="6.72708">
        <ele>370.2</ele>
        <time>2014-11-09T09:23:15.000Z</time>
      </trkpt>
      <trkpt lat="47.53614" lon="6.72708">
        <ele>371</ele>
        <time>2014-11-09T09:23:16.000Z</time>
      </trkpt>
      <trkpt lat="47.53618" lon="6.72708">
        <ele>370.8</ele>
        <time>2014-11-09T09:23:17.000Z</time>
      </trkpt>
      <trkpt lat="47.53621" lon="6.72708">
        <ele>371</ele>
        <time>2014-11-09T09:23:18.000Z</time>
      </trkpt>
      <trkpt lat="47.53625" lon="6.72708">
        <ele>372.8</ele>
        <time>2014-11-09T09:23:19.000Z</time>
      </trkpt>
      <trkpt lat="47.53628" lon="6.72707">
        <ele>373.8</ele>
        <time>2014-11-09T09:23:20.000Z</time>
      </trkpt>
      <trkpt lat="47.53632" lon="6.72707">
        <ele>375.1</ele>
        <time>2014-11-09T09:23:21.000Z</time>
      </trkpt>
      <trkpt lat="47.53635" lon="6.72706">
        <ele>375.8</ele>
        <time>2014-11-09T09:23:22.000Z</time>
      </trkpt>
      <trkpt lat="47.53638" lon="6.72706">
        <ele>376.5</ele>
        <time>2014-11-09T09:23:23.000Z</time>
      </trkpt>
      <trkpt lat="47.53641" lon="6.72707">
        <ele>377.3</ele>
        <time>2014-11-09T09:23:24.000Z</time>
      </trkpt>
      <trkpt lat="47.53644" lon="6.72707">
        <ele>377.3</ele>
        <time>2014-11-09T09:23:25.000Z</time>
      </trkpt>
      <trkpt lat="47.53647" lon="6.72707">
        <ele>377.9</ele>
        <time>2014-11-09T09:23:26.000Z</time>
      </trkpt>
      <trkpt lat="47.5365" lon="6.72708">
        <ele>378</ele>
        <time>2014-11-09T09:23:27.000Z</time>
      </trkpt>
      <trkpt lat="47.53653" lon="6.72709">
        <ele>376.7</ele>
        <time>2014-11-09T09:23:28.000Z</time>
      </trkpt>
      <trkpt lat="47.53655" lon="6.7271">
        <ele>375.2</ele>
        <time>2014-11-09T09:23:29.000Z</time>
      </trkpt>
      <trkpt lat="47.53658" lon="6.72713">
        <ele>373.4</ele>
        <time>2014-11-09T09:23:30.000Z</time>
      </trkpt>
      <trkpt lat="47.53661" lon="6.72717">
        <ele>372.6</ele>
        <time>2014-11-09T09:23:31.000Z</time>
      </trkpt>
      <trkpt lat="47.53665" lon="6.7272">
        <ele>374.4</ele>
        <time>2014-11-09T09:23:32.000Z</time>
      </trkpt>
      <trkpt lat="47.53676" lon="6.72728">
        <ele>373.8</ele>
        <time>2014-11-09T09:23:33.000Z</time>
      </trkpt>
      <trkpt lat="47.53682" lon="6.7273">
        <ele>373.6</ele>
        <time>2014-11-09T09:23:34.000Z</time>
      </trkpt>
      <trkpt lat="47.53689" lon="6.72731">
        <ele>372.2</ele>
        <time>2014-11-09T09:23:35.000Z</time>
      </trkpt>
      <trkpt lat="47.53695" lon="6.7273">
        <ele>371.5</ele>
        <time>2014-11-09T09:23:36.000Z</time>
      </trkpt>
      <trkpt lat="47.53701" lon="6.7273">
        <ele>370.9</ele>
        <time>2014-11-09T09:23:37.000Z</time>
      </trkpt>
      <trkpt lat="47.53707" lon="6.7273">
        <ele>370.7</ele>
        <time>2014-11-09T09:23:38.000Z</time>
      </trkpt>
      <trkpt lat="47.53712" lon="6.7273">
        <ele>369.1</ele>
        <time>2014-11-09T09:23:39.000Z</time>
      </trkpt>
      <trkpt lat="47.53718" lon="6.72728">
        <ele>368.9</ele>
        <time>2014-11-09T09:23:40.000Z</time>
      </trkpt>
      <trkpt lat="47.53723" lon="6.72727">
        <ele>368.8</ele>
        <time>2014-11-09T09:23:41.000Z</time>
      </trkpt>
      <trkpt lat="47.53728" lon="6.72726">
        <ele>368.9</ele>
        <time>2014-11-09T09:23:42.000Z</time>
      </trkpt>
      <trkpt lat="47.53732" lon="6.72724">
        <ele>369.2</ele>
        <time>2014-11-09T09:23:43.000Z</time>
      </trkpt>
      <trkpt lat="47.53735" lon="6.72723">
        <ele>369.4</ele>
        <time>2014-11-09T09:23:44.000Z</time>
      </trkpt>
      <trkpt lat="47.53739" lon="6.72723">
        <ele>372.2</ele>
        <time>2014-11-09T09:23:46.000Z</time>
      </trkpt>
      <trkpt lat="47.53741" lon="6.72723">
        <ele>372.4</ele>
        <time>2014-11-09T09:23:47.000Z</time>
      </trkpt>
      <trkpt lat="47.53744" lon="6.72725">
        <ele>371.6</ele>
        <time>2014-11-09T09:23:49.000Z</time>
      </trkpt>
      <trkpt lat="47.53745" lon="6.72725">
        <ele>371.7</ele>
        <time>2014-11-09T09:23:50.000Z</time>
      </trkpt>
      <trkpt lat="47.53748" lon="6.72727">
        <ele>371.4</ele>
        <time>2014-11-09T09:23:52.000Z</time>
      </trkpt>
      <trkpt lat="47.5375" lon="6.72728">
        <ele>371.4</ele>
        <time>2014-11-09T09:23:53.000Z</time>
      </trkpt>
      <trkpt lat="47.53754" lon="6.7273">
        <ele>373.3</ele>
        <time>2014-11-09T09:23:56.000Z</time>
      </trkpt>
      <trkpt lat="47.53765" lon="6.72744">
        <ele>376.3</ele>
        <time>2014-11-09T09:24:04.000Z</time>
      </trkpt>
      <trkpt lat="47.53768" lon="6.72744">
        <ele>380.5</ele>
        <time>2014-11-09T09:24:06.000Z</time>
      </trkpt>
      <trkpt lat="47.5377" lon="6.72743">
        <ele>381.1</ele>
        <time>2014-11-09T09:24:07.000Z</time>
      </trkpt>
      <trkpt lat="47.53773" lon="6.72742">
        <ele>384.4</ele>
        <time>2014-11-09T09:24:09.000Z</time>
      </trkpt>
      <trkpt lat="47.53775" lon="6.72742">
        <ele>386.7</ele>
        <time>2014-11-09T09:24:10.000Z</time>
      </trkpt>
      <trkpt lat="47.53779" lon="6.72741">
        <ele>386.2</ele>
        <time>2014-11-09T09:24:12.000Z</time>
      </trkpt>
      <trkpt lat="47.53781" lon="6.7274">
        <ele>385.9</ele>
        <time>2014-11-09T09:24:13.000Z</time>
      </trkpt>
      <trkpt lat="47.53784" lon="6.7274">
        <ele>385.7</ele>
        <time>2014-11-09T09:24:15.000Z</time>
      </trkpt>
      <trkpt lat="47.53785" lon="6.7274">
        <ele>386.2</ele>
        <time>2014-11-09T09:24:16.000Z</time>
      </trkpt>
      <trkpt lat="47.5379" lon="6.72738">
        <ele>387.4</ele>
        <time>2014-11-09T09:24:19.000Z</time>
      </trkpt>
      <trkpt lat="47.53791" lon="6.72738">
        <ele>388.2</ele>
        <time>2014-11-09T09:24:20.000Z</time>
      </trkpt>
      <trkpt lat="47.53796" lon="6.72738">
        <ele>388</ele>
        <time>2014-11-09T09:24:22.000Z</time>
      </trkpt>
      <trkpt lat="47.53798" lon="6.72738">
        <ele>390.5</ele>
        <time>2014-11-09T09:24:23.000Z</time>
      </trkpt>
      <trkpt lat="47.53801" lon="6.72738">
        <ele>391.8</ele>
        <time>2014-11-09T09:24:25.000Z</time>
      </trkpt>
      <trkpt lat="47.53803" lon="6.72738">
        <ele>392.2</ele>
        <time>2014-11-09T09:24:26.000Z</time>
      </trkpt>
      <trkpt lat="47.53807" lon="6.72738">
        <ele>392.6</ele>
        <time>2014-11-09T09:24:28.000Z</time>
      </trkpt>
      <trkpt lat="47.53809" lon="6.72738">
        <ele>392.2</ele>
        <time>2014-11-09T09:24:29.000Z</time>
      </trkpt>
      <trkpt lat="47.53814" lon="6.72738">
        <ele>392.2</ele>
        <time>2014-11-09T09:24:31.000Z</time>
      </trkpt>
      <trkpt lat="47.53816" lon="6.72738">
        <ele>391.5</ele>
        <time>2014-11-09T09:24:32.000Z</time>
      </trkpt>
      <trkpt lat="47.53819" lon="6.72738">
        <ele>390.6</ele>
        <time>2014-11-09T09:24:33.000Z</time>
      </trkpt>
      <trkpt lat="47.53822" lon="6.72739">
        <ele>389.3</ele>
        <time>2014-11-09T09:24:34.000Z</time>
      </trkpt>
      <trkpt lat="47.53825" lon="6.72739">
        <ele>389.3</ele>
        <time>2014-11-09T09:24:35.000Z</time>
      </trkpt>
      <trkpt lat="47.53828" lon="6.72739">
        <ele>389.1</ele>
        <time>2014-11-09T09:24:36.000Z</time>
      </trkpt>
      <trkpt lat="47.5383" lon="6.72739">
        <ele>393.2</ele>
        <time>2014-11-09T09:24:37.000Z</time>
      </trkpt>
      <trkpt lat="47.53833" lon="6.72738">
        <ele>394</ele>
        <time>2014-11-09T09:24:38.000Z</time>
      </trkpt>
      <trkpt lat="47.53837" lon="6.72738">
        <ele>395.9</ele>
        <time>2014-11-09T09:24:39.000Z</time>
      </trkpt>
      <trkpt lat="47.5384" lon="6.72737">
        <ele>396.1</ele>
        <time>2014-11-09T09:24:40.000Z</time>
      </trkpt>
      <trkpt lat="47.53843" lon="6.72737">
        <ele>395.9</ele>
        <time>2014-11-09T09:24:41.000Z</time>
      </trkpt>
      <trkpt lat="47.53847" lon="6.72736">
        <ele>395.3</ele>
        <time>2014-11-09T09:24:42.000Z</time>
      </trkpt>
      <trkpt lat="47.5385" lon="6.72736">
        <ele>395.7</ele>
        <time>2014-11-09T09:24:43.000Z</time>
      </trkpt>
      <trkpt lat="47.53853" lon="6.72736">
        <ele>394.9</ele>
        <time>2014-11-09T09:24:44.000Z</time>
      </trkpt>
      <trkpt lat="47.53856" lon="6.72736">
        <ele>394.3</ele>
        <time>2014-11-09T09:24:45.000Z</time>
      </trkpt>
      <trkpt lat="47.53858" lon="6.72736">
        <ele>395.4</ele>
        <time>2014-11-09T09:24:46.000Z</time>
      </trkpt>
      <trkpt lat="47.53861" lon="6.72736">
        <ele>397.4</ele>
        <time>2014-11-09T09:24:47.000Z</time>
      </trkpt>
      <trkpt lat="47.53863" lon="6.72735">
        <ele>397.5</ele>
        <time>2014-11-09T09:24:48.000Z</time>
      </trkpt>
      <trkpt lat="47.53867" lon="6.72735">
        <ele>397.9</ele>
        <time>2014-11-09T09:24:50.000Z</time>
      </trkpt>
      <trkpt lat="47.53869" lon="6.72734">
        <ele>397.8</ele>
        <time>2014-11-09T09:24:51.000Z</time>
      </trkpt>
      <trkpt lat="47.53873" lon="6.72734">
        <ele>399.7</ele>
        <time>2014-11-09T09:24:53.000Z</time>
      </trkpt>
      <trkpt lat="47.53875" lon="6.72734">
        <ele>399.2</ele>
        <time>2014-11-09T09:24:54.000Z</time>
      </trkpt>
      <trkpt lat="47.53877" lon="6.72734">
        <ele>400.1</ele>
        <time>2014-11-09T09:24:55.000Z</time>
      </trkpt>
      <trkpt lat="47.5388" lon="6.72734">
        <ele>401.7</ele>
        <time>2014-11-09T09:24:56.000Z</time>
      </trkpt>
      <trkpt lat="47.539" lon="6.72737">
        <ele>400.5</ele>
        <time>2014-11-09T09:25:04.000Z</time>
      </trkpt>
      <trkpt lat="47.53902" lon="6.72738">
        <ele>402.7</ele>
        <time>2014-11-09T09:25:05.000Z</time>
      </trkpt>
      <trkpt lat="47.53905" lon="6.72739">
        <ele>403</ele>
        <time>2014-11-09T09:25:06.000Z</time>
      </trkpt>
      <trkpt lat="47.53908" lon="6.72741">
        <ele>404.2</ele>
        <time>2014-11-09T09:25:07.000Z</time>
      </trkpt>
      <trkpt lat="47.5391" lon="6.72742">
        <ele>405.6</ele>
        <time>2014-11-09T09:25:08.000Z</time>
      </trkpt>
      <trkpt lat="47.53913" lon="6.72744">
        <ele>406.3</ele>
        <time>2014-11-09T09:25:09.000Z</time>
      </trkpt>
      <trkpt lat="47.53915" lon="6.72746">
        <ele>406.3</ele>
        <time>2014-11-09T09:25:10.000Z</time>
      </trkpt>
      <trkpt lat="47.53918" lon="6.72748">
        <ele>406.2</ele>
        <time>2014-11-09T09:25:11.000Z</time>
      </trkpt>
      <trkpt lat="47.5392" lon="6.7275">
        <ele>408</ele>
        <time>2014-11-09T09:25:12.000Z</time>
      </trkpt>
      <trkpt lat="47.53923" lon="6.72752">
        <ele>408.9</ele>
        <time>2014-11-09T09:25:13.000Z</time>
      </trkpt>
      <trkpt lat="47.53925" lon="6.72754">
        <ele>407.6</ele>
        <time>2014-11-09T09:25:14.000Z</time>
      </trkpt>
      <trkpt lat="47.53928" lon="6.72755">
        <ele>407.8</ele>
        <time>2014-11-09T09:25:15.000Z</time>
      </trkpt>
      <trkpt lat="47.5393" lon="6.72756">
        <ele>408.6</ele>
        <time>2014-11-09T09:25:16.000Z</time>
      </trkpt>
      <trkpt lat="47.53932" lon="6.72757">
        <ele>410.7</ele>
        <time>2014-11-09T09:25:17.000Z</time>
      </trkpt>
      <trkpt lat="47.53935" lon="6.72757">
        <ele>410.5</ele>
        <time>2014-11-09T09:25:18.000Z</time>
      </trkpt>
      <trkpt lat="47.53937" lon="6.72758">
        <ele>410.7</ele>
        <time>2014-11-09T09:25:19.000Z</time>
      </trkpt>
      <trkpt lat="47.53939" lon="6.72759">
        <ele>410.9</ele>
        <time>2014-11-09T09:25:20.000Z</time>
      </trkpt>
      <trkpt lat="47.53943" lon="6.72759">
        <ele>412.7</ele>
        <time>2014-11-09T09:25:22.000Z</time>
      </trkpt>
      <trkpt lat="47.53945" lon="6.72759">
        <ele>415.4</ele>
        <time>2014-11-09T09:25:23.000Z</time>
      </trkpt>
      <trkpt lat="47.53947" lon="6.7276">
        <ele>415.9</ele>
        <time>2014-11-09T09:25:24.000Z</time>
      </trkpt>
      <trkpt lat="47.5395" lon="6.72761">
        <ele>418.4</ele>
        <time>2014-11-09T09:25:25.000Z</time>
      </trkpt>
      <trkpt lat="47.53953" lon="6.72764">
        <ele>425.3</ele>
        <time>2014-11-09T09:25:27.000Z</time>
      </trkpt>
      <trkpt lat="47.53955" lon="6.72765">
        <ele>424.1</ele>
        <time>2014-11-09T09:25:28.000Z</time>
      </trkpt>
      <trkpt lat="47.53959" lon="6.72767">
        <ele>426.1</ele>
        <time>2014-11-09T09:25:30.000Z</time>
      </trkpt>
      <trkpt lat="47.53961" lon="6.72767">
        <ele>431.4</ele>
        <time>2014-11-09T09:25:31.000Z</time>
      </trkpt>
      <trkpt lat="47.53965" lon="6.72769">
        <ele>430.2</ele>
        <time>2014-11-09T09:25:33.000Z</time>
      </trkpt>
      <trkpt lat="47.53966" lon="6.72771">
        <ele>432.3</ele>
        <time>2014-11-09T09:25:34.000Z</time>
      </trkpt>
      <trkpt lat="47.53969" lon="6.72773">
        <ele>436.5</ele>
        <time>2014-11-09T09:25:36.000Z</time>
      </trkpt>
      <trkpt lat="47.5397" lon="6.72774">
        <ele>438.2</ele>
        <time>2014-11-09T09:25:37.000Z</time>
      </trkpt>
      <trkpt lat="47.53974" lon="6.72776">
        <ele>438.2</ele>
        <time>2014-11-09T09:25:39.000Z</time>
      </trkpt>
      <trkpt lat="47.53976" lon="6.72778">
        <ele>437.5</ele>
        <time>2014-11-09T09:25:40.000Z</time>
      </trkpt>
      <trkpt lat="47.53979" lon="6.72781">
        <ele>436.5</ele>
        <time>2014-11-09T09:25:42.000Z</time>
      </trkpt>
      <trkpt lat="47.5398" lon="6.72782">
        <ele>436</ele>
        <time>2014-11-09T09:25:43.000Z</time>
      </trkpt>
      <trkpt lat="47.53983" lon="6.72785">
        <ele>439.4</ele>
        <time>2014-11-09T09:25:46.000Z</time>
      </trkpt>
      <trkpt lat="47.53984" lon="6.72786">
        <ele>437.8</ele>
        <time>2014-11-09T09:25:47.000Z</time>
      </trkpt>
      <trkpt lat="47.53987" lon="6.72791">
        <ele>433.4</ele>
        <time>2014-11-09T09:25:55.000Z</time>
      </trkpt>
      <trkpt lat="47.53988" lon="6.72792">
        <ele>432.5</ele>
        <time>2014-11-09T09:25:56.000Z</time>
      </trkpt>
      <trkpt lat="47.53994" lon="6.72808">
        <ele>419.8</ele>
        <time>2014-11-09T09:26:04.000Z</time>
      </trkpt>
      <trkpt lat="47.53995" lon="6.72812">
        <ele>419</ele>
        <time>2014-11-09T09:26:06.000Z</time>
      </trkpt>
      <trkpt lat="47.53996" lon="6.72817">
        <ele>423.7</ele>
        <time>2014-11-09T09:26:07.000Z</time>
      </trkpt>
      <trkpt lat="47.53997" lon="6.72822">
        <ele>424.2</ele>
        <time>2014-11-09T09:26:08.000Z</time>
      </trkpt>
      <trkpt lat="47.53999" lon="6.72829">
        <ele>426.4</ele>
        <time>2014-11-09T09:26:09.000Z</time>
      </trkpt>
      <trkpt lat="47.54001" lon="6.72835">
        <ele>426.8</ele>
        <time>2014-11-09T09:26:10.000Z</time>
      </trkpt>
      <trkpt lat="47.54003" lon="6.72842">
        <ele>427.3</ele>
        <time>2014-11-09T09:26:11.000Z</time>
      </trkpt>
      <trkpt lat="47.54005" lon="6.72848">
        <ele>427.1</ele>
        <time>2014-11-09T09:26:12.000Z</time>
      </trkpt>
      <trkpt lat="47.54006" lon="6.72854">
        <ele>427.2</ele>
        <time>2014-11-09T09:26:13.000Z</time>
      </trkpt>
      <trkpt lat="47.54009" lon="6.7286">
        <ele>426.3</ele>
        <time>2014-11-09T09:26:14.000Z</time>
      </trkpt>
      <trkpt lat="47.54011" lon="6.72865">
        <ele>426.7</ele>
        <time>2014-11-09T09:26:15.000Z</time>
      </trkpt>
      <trkpt lat="47.54014" lon="6.7287">
        <ele>426.8</ele>
        <time>2014-11-09T09:26:16.000Z</time>
      </trkpt>
      <trkpt lat="47.54018" lon="6.72874">
        <ele>426.9</ele>
        <time>2014-11-09T09:26:17.000Z</time>
      </trkpt>
      <trkpt lat="47.54021" lon="6.72879">
        <ele>428.4</ele>
        <time>2014-11-09T09:26:18.000Z</time>
      </trkpt>
      <trkpt lat="47.54023" lon="6.72883">
        <ele>428.6</ele>
        <time>2014-11-09T09:26:19.000Z</time>
      </trkpt>
      <trkpt lat="47.54026" lon="6.72887">
        <ele>429.5</ele>
        <time>2014-11-09T09:26:20.000Z</time>
      </trkpt>
      <trkpt lat="47.54029" lon="6.72891">
        <ele>430.8</ele>
        <time>2014-11-09T09:26:21.000Z</time>
      </trkpt>
      <trkpt lat="47.54032" lon="6.72895">
        <ele>431.4</ele>
        <time>2014-11-09T09:26:22.000Z</time>
      </trkpt>
      <trkpt lat="47.54034" lon="6.72898">
        <ele>432.4</ele>
        <time>2014-11-09T09:26:22.971Z</time>
      </trkpt>
      <trkpt lat="47.54035" lon="6.72903">
        <ele>430.4</ele>
        <time>2014-11-09T09:26:24.000Z</time>
      </trkpt>
      <trkpt lat="47.54037" lon="6.72907">
        <ele>428.1</ele>
        <time>2014-11-09T09:26:25.000Z</time>
      </trkpt>
      <trkpt lat="47.54039" lon="6.72911">
        <ele>427.8</ele>
        <time>2014-11-09T09:26:26.000Z</time>
      </trkpt>
      <trkpt lat="47.54042" lon="6.72914">
        <ele>427.7</ele>
        <time>2014-11-09T09:26:27.000Z</time>
      </trkpt>
      <trkpt lat="47.54044" lon="6.72918">
        <ele>427.8</ele>
        <time>2014-11-09T09:26:28.000Z</time>
      </trkpt>
      <trkpt lat="47.54047" lon="6.72921">
        <ele>428.5</ele>
        <time>2014-11-09T09:26:29.000Z</time>
      </trkpt>
      <trkpt lat="47.54049" lon="6.72925">
        <ele>428.1</ele>
        <time>2014-11-09T09:26:30.000Z</time>
      </trkpt>
      <trkpt lat="47.54051" lon="6.72928">
        <ele>426.8</ele>
        <time>2014-11-09T09:26:31.000Z</time>
      </trkpt>
      <trkpt lat="47.54054" lon="6.72931">
        <ele>427.3</ele>
        <time>2014-11-09T09:26:32.000Z</time>
      </trkpt>
      <trkpt lat="47.54056" lon="6.72934">
        <ele>426.3</ele>
        <time>2014-11-09T09:26:33.000Z</time>
      </trkpt>
      <trkpt lat="47.54059" lon="6.72937">
        <ele>425.9</ele>
        <time>2014-11-09T09:26:34.000Z</time>
      </trkpt>
      <trkpt lat="47.54061" lon="6.7294">
        <ele>425.9</ele>
        <time>2014-11-09T09:26:35.000Z</time>
      </trkpt>
      <trkpt lat="47.54064" lon="6.72943">
        <ele>425</ele>
        <time>2014-11-09T09:26:36.000Z</time>
      </trkpt>
      <trkpt lat="47.54066" lon="6.72946">
        <ele>424.7</ele>
        <time>2014-11-09T09:26:37.000Z</time>
      </trkpt>
      <trkpt lat="47.54068" lon="6.72949">
        <ele>426.8</ele>
        <time>2014-11-09T09:26:38.000Z</time>
      </trkpt>
      <trkpt lat="47.5407" lon="6.72952">
        <ele>431.2</ele>
        <time>2014-11-09T09:26:39.000Z</time>
      </trkpt>
      <trkpt lat="47.54073" lon="6.72956">
        <ele>432.4</ele>
        <time>2014-11-09T09:26:40.000Z</time>
      </trkpt>
      <trkpt lat="47.54075" lon="6.72959">
        <ele>433.5</ele>
        <time>2014-11-09T09:26:41.000Z</time>
      </trkpt>
      <trkpt lat="47.54078" lon="6.72962">
        <ele>433.7</ele>
        <time>2014-11-09T09:26:42.000Z</time>
      </trkpt>
      <trkpt lat="47.5408" lon="6.72965">
        <ele>433.1</ele>
        <time>2014-11-09T09:26:43.000Z</time>
      </trkpt>
      <trkpt lat="47.54083" lon="6.72967">
        <ele>439.5</ele>
        <time>2014-11-09T09:26:44.000Z</time>
      </trkpt>
      <trkpt lat="47.54086" lon="6.7297">
        <ele>439.7</ele>
        <time>2014-11-09T09:26:45.000Z</time>
      </trkpt>
      <trkpt lat="47.54088" lon="6.72973">
        <ele>440.7</ele>
        <time>2014-11-09T09:26:46.000Z</time>
      </trkpt>
      <trkpt lat="47.54091" lon="6.72975">
        <ele>440.8</ele>
        <time>2014-11-09T09:26:47.000Z</time>
      </trkpt>
      <trkpt lat="47.54093" lon="6.72977">
        <ele>439.9</ele>
        <time>2014-11-09T09:26:48.000Z</time>
      </trkpt>
      <trkpt lat="47.54096" lon="6.72979">
        <ele>439.7</ele>
        <time>2014-11-09T09:26:49.000Z</time>
      </trkpt>
      <trkpt lat="47.54099" lon="6.72981">
        <ele>438.2</ele>
        <time>2014-11-09T09:26:50.000Z</time>
      </trkpt>
      <trkpt lat="47.54102" lon="6.72983">
        <ele>438.5</ele>
        <time>2014-11-09T09:26:51.000Z</time>
      </trkpt>
      <trkpt lat="47.54105" lon="6.72984">
        <ele>438.3</ele>
        <time>2014-11-09T09:26:52.000Z</time>
      </trkpt>
      <trkpt lat="47.54108" lon="6.72986">
        <ele>438.1</ele>
        <time>2014-11-09T09:26:53.000Z</time>
      </trkpt>
      <trkpt lat="47.54111" lon="6.72987">
        <ele>437.3</ele>
        <time>2014-11-09T09:26:54.000Z</time>
      </trkpt>
      <trkpt lat="47.54113" lon="6.72989">
        <ele>438.6</ele>
        <time>2014-11-09T09:26:55.000Z</time>
      </trkpt>
      <trkpt lat="47.54115" lon="6.72991">
        <ele>439.2</ele>
        <time>2014-11-09T09:26:56.000Z</time>
      </trkpt>
      <trkpt lat="47.54136" lon="6.73006">
        <ele>431</ele>
        <time>2014-11-09T09:27:04.000Z</time>
      </trkpt>
      <trkpt lat="47.54139" lon="6.73007">
        <ele>430.3</ele>
        <time>2014-11-09T09:27:05.000Z</time>
      </trkpt>
      <trkpt lat="47.54143" lon="6.73009">
        <ele>429.6</ele>
        <time>2014-11-09T09:27:06.000Z</time>
      </trkpt>
      <trkpt lat="47.54146" lon="6.73012">
        <ele>432.8</ele>
        <time>2014-11-09T09:27:07.000Z</time>
      </trkpt>
      <trkpt lat="47.54149" lon="6.73014">
        <ele>432.2</ele>
        <time>2014-11-09T09:27:08.000Z</time>
      </trkpt>
      <trkpt lat="47.54152" lon="6.73016">
        <ele>433.7</ele>
        <time>2014-11-09T09:27:09.000Z</time>
      </trkpt>
      <trkpt lat="47.54156" lon="6.73017">
        <ele>433.6</ele>
        <time>2014-11-09T09:27:10.000Z</time>
      </trkpt>
      <trkpt lat="47.54159" lon="6.73018">
        <ele>433.4</ele>
        <time>2014-11-09T09:27:11.000Z</time>
      </trkpt>
      <trkpt lat="47.54162" lon="6.73019">
        <ele>433.9</ele>
        <time>2014-11-09T09:27:12.000Z</time>
      </trkpt>
      <trkpt lat="47.54165" lon="6.7302">
        <ele>433.4</ele>
        <time>2014-11-09T09:27:13.000Z</time>
      </trkpt>
      <trkpt lat="47.54169" lon="6.73021">
        <ele>435.4</ele>
        <time>2014-11-09T09:27:14.000Z</time>
      </trkpt>
      <trkpt lat="47.54172" lon="6.73021">
        <ele>434</ele>
        <time>2014-11-09T09:27:15.000Z</time>
      </trkpt>
      <trkpt lat="47.54174" lon="6.73021">
        <ele>434.6</ele>
        <time>2014-11-09T09:27:16.000Z</time>
      </trkpt>
      <trkpt lat="47.54177" lon="6.73021">
        <ele>434.9</ele>
        <time>2014-11-09T09:27:17.000Z</time>
      </trkpt>
      <trkpt lat="47.5418" lon="6.73022">
        <ele>435.1</ele>
        <time>2014-11-09T09:27:18.000Z</time>
      </trkpt>
      <trkpt lat="47.54183" lon="6.73022">
        <ele>436.1</ele>
        <time>2014-11-09T09:27:19.000Z</time>
      </trkpt>
      <trkpt lat="47.54186" lon="6.73023">
        <ele>436.3</ele>
        <time>2014-11-09T09:27:20.000Z</time>
      </trkpt>
      <trkpt lat="47.54189" lon="6.73024">
        <ele>436.5</ele>
        <time>2014-11-09T09:27:21.000Z</time>
      </trkpt>
      <trkpt lat="47.54192" lon="6.73026">
        <ele>435.4</ele>
        <time>2014-11-09T09:27:22.000Z</time>
      </trkpt>
      <trkpt lat="47.54195" lon="6.73027">
        <ele>435</ele>
        <time>2014-11-09T09:27:23.000Z</time>
      </trkpt>
      <trkpt lat="47.54198" lon="6.73029">
        <ele>434.2</ele>
        <time>2014-11-09T09:27:24.000Z</time>
      </trkpt>
      <trkpt lat="47.542" lon="6.73031">
        <ele>437.3</ele>
        <time>2014-11-09T09:27:25.000Z</time>
      </trkpt>
      <trkpt lat="47.54203" lon="6.73032">
        <ele>436.9</ele>
        <time>2014-11-09T09:27:26.000Z</time>
      </trkpt>
      <trkpt lat="47.54207" lon="6.73033">
        <ele>438.1</ele>
        <time>2014-11-09T09:27:27.000Z</time>
      </trkpt>
      <trkpt lat="47.5421" lon="6.73034">
        <ele>438.5</ele>
        <time>2014-11-09T09:27:28.000Z</time>
      </trkpt>
      <trkpt lat="47.54213" lon="6.73035">
        <ele>438.5</ele>
        <time>2014-11-09T09:27:29.000Z</time>
      </trkpt>
      <trkpt lat="47.54216" lon="6.73036">
        <ele>435.8</ele>
        <time>2014-11-09T09:27:30.000Z</time>
      </trkpt>
      <trkpt lat="47.54219" lon="6.73038">
        <ele>433.9</ele>
        <time>2014-11-09T09:27:31.000Z</time>
      </trkpt>
      <trkpt lat="47.54222" lon="6.7304">
        <ele>433.3</ele>
        <time>2014-11-09T09:27:32.000Z</time>
      </trkpt>
      <trkpt lat="47.54225" lon="6.73041">
        <ele>432</ele>
        <time>2014-11-09T09:27:33.000Z</time>
      </trkpt>
      <trkpt lat="47.54228" lon="6.73042">
        <ele>430.5</ele>
        <time>2014-11-09T09:27:34.000Z</time>
      </trkpt>
      <trkpt lat="47.54231" lon="6.73043">
        <ele>428.7</ele>
        <time>2014-11-09T09:27:35.000Z</time>
      </trkpt>
      <trkpt lat="47.54234" lon="6.73043">
        <ele>428</ele>
        <time>2014-11-09T09:27:36.000Z</time>
      </trkpt>
      <trkpt lat="47.54236" lon="6.73044">
        <ele>429.4</ele>
        <time>2014-11-09T09:27:37.000Z</time>
      </trkpt>
      <trkpt lat="47.54239" lon="6.73044">
        <ele>428</ele>
        <time>2014-11-09T09:27:38.000Z</time>
      </trkpt>
      <trkpt lat="47.54242" lon="6.73044">
        <ele>427.8</ele>
        <time>2014-11-09T09:27:39.000Z</time>
      </trkpt>
      <trkpt lat="47.54244" lon="6.73045">
        <ele>427.6</ele>
        <time>2014-11-09T09:27:40.000Z</time>
      </trkpt>
      <trkpt lat="47.54247" lon="6.73046">
        <ele>428.1</ele>
        <time>2014-11-09T09:27:41.000Z</time>
      </trkpt>
      <trkpt lat="47.5425" lon="6.73046">
        <ele>428.3</ele>
        <time>2014-11-09T09:27:42.000Z</time>
      </trkpt>
      <trkpt lat="47.54253" lon="6.73047">
        <ele>429</ele>
        <time>2014-11-09T09:27:43.000Z</time>
      </trkpt>
      <trkpt lat="47.54256" lon="6.73048">
        <ele>430.1</ele>
        <time>2014-11-09T09:27:43.998Z</time>
      </trkpt>
      <trkpt lat="47.54259" lon="6.73048">
        <ele>428.3</ele>
        <time>2014-11-09T09:27:45.000Z</time>
      </trkpt>
      <trkpt lat="47.54262" lon="6.73049">
        <ele>428.6</ele>
        <time>2014-11-09T09:27:46.000Z</time>
      </trkpt>
      <trkpt lat="47.54265" lon="6.73049">
        <ele>429.7</ele>
        <time>2014-11-09T09:27:47.000Z</time>
      </trkpt>
      <trkpt lat="47.54267" lon="6.7305">
        <ele>430.8</ele>
        <time>2014-11-09T09:27:48.000Z</time>
      </trkpt>
      <trkpt lat="47.5427" lon="6.7305">
        <ele>431.8</ele>
        <time>2014-11-09T09:27:49.000Z</time>
      </trkpt>
      <trkpt lat="47.54273" lon="6.7305">
        <ele>430.8</ele>
        <time>2014-11-09T09:27:50.000Z</time>
      </trkpt>
      <trkpt lat="47.54275" lon="6.73051">
        <ele>429.5</ele>
        <time>2014-11-09T09:27:51.000Z</time>
      </trkpt>
      <trkpt lat="47.54278" lon="6.73052">
        <ele>429.1</ele>
        <time>2014-11-09T09:27:52.000Z</time>
      </trkpt>
      <trkpt lat="47.5428" lon="6.73053">
        <ele>429.7</ele>
        <time>2014-11-09T09:27:53.000Z</time>
      </trkpt>
      <trkpt lat="47.54283" lon="6.73053">
        <ele>430.3</ele>
        <time>2014-11-09T09:27:54.000Z</time>
      </trkpt>
      <trkpt lat="47.54287" lon="6.73053">
        <ele>431.6</ele>
        <time>2014-11-09T09:27:56.000Z</time>
      </trkpt>
      <trkpt lat="47.54305" lon="6.73057">
        <ele>434.1</ele>
        <time>2014-11-09T09:28:04.000Z</time>
      </trkpt>
      <trkpt lat="47.54307" lon="6.73058">
        <ele>433.4</ele>
        <time>2014-11-09T09:28:05.000Z</time>
      </trkpt>
      <trkpt lat="47.5431" lon="6.73059">
        <ele>432.7</ele>
        <time>2014-11-09T09:28:06.000Z</time>
      </trkpt>
      <trkpt lat="47.54313" lon="6.7306">
        <ele>433.7</ele>
        <time>2014-11-09T09:28:07.000Z</time>
      </trkpt>
      <trkpt lat="47.54316" lon="6.73061">
        <ele>433.4</ele>
        <time>2014-11-09T09:28:08.000Z</time>
      </trkpt>
      <trkpt lat="47.54318" lon="6.73062">
        <ele>433</ele>
        <time>2014-11-09T09:28:09.000Z</time>
      </trkpt>
      <trkpt lat="47.54321" lon="6.73063">
        <ele>430.7</ele>
        <time>2014-11-09T09:28:10.000Z</time>
      </trkpt>
      <trkpt lat="47.54324" lon="6.73065">
        <ele>428.3</ele>
        <time>2014-11-09T09:28:11.000Z</time>
      </trkpt>
      <trkpt lat="47.54326" lon="6.73066">
        <ele>426.4</ele>
        <time>2014-11-09T09:28:12.000Z</time>
      </trkpt>
      <trkpt lat="47.54329" lon="6.73067">
        <ele>426</ele>
        <time>2014-11-09T09:28:13.000Z</time>
      </trkpt>
      <trkpt lat="47.54331" lon="6.73069">
        <ele>425.7</ele>
        <time>2014-11-09T09:28:14.000Z</time>
      </trkpt>
      <trkpt lat="47.54334" lon="6.7307">
        <ele>424.9</ele>
        <time>2014-11-09T09:28:15.000Z</time>
      </trkpt>
      <trkpt lat="47.54337" lon="6.73071">
        <ele>424.3</ele>
        <time>2014-11-09T09:28:16.000Z</time>
      </trkpt>
      <trkpt lat="47.5434" lon="6.73072">
        <ele>424.9</ele>
        <time>2014-11-09T09:28:17.000Z</time>
      </trkpt>
      <trkpt lat="47.54343" lon="6.73074">
        <ele>424.4</ele>
        <time>2014-11-09T09:28:18.000Z</time>
      </trkpt>
      <trkpt lat="47.54346" lon="6.73074">
        <ele>423.3</ele>
        <time>2014-11-09T09:28:19.000Z</time>
      </trkpt>
      <trkpt lat="47.54349" lon="6.73075">
        <ele>421.8</ele>
        <time>2014-11-09T09:28:20.000Z</time>
      </trkpt>
      <trkpt lat="47.54352" lon="6.73076">
        <ele>421.2</ele>
        <time>2014-11-09T09:28:21.000Z</time>
      </trkpt>
      <trkpt lat="47.54354" lon="6.73077">
        <ele>421.2</ele>
        <time>2014-11-09T09:28:22.000Z</time>
      </trkpt>
      <trkpt lat="47.54357" lon="6.73078">
        <ele>421.3</ele>
        <time>2014-11-09T09:28:23.000Z</time>
      </trkpt>
      <trkpt lat="47.54359" lon="6.73079">
        <ele>421</ele>
        <time>2014-11-09T09:28:24.000Z</time>
      </trkpt>
      <trkpt lat="47.54361" lon="6.7308">
        <ele>420.9</ele>
        <time>2014-11-09T09:28:25.000Z</time>
      </trkpt>
      <trkpt lat="47.54363" lon="6.73082">
        <ele>420.8</ele>
        <time>2014-11-09T09:28:26.000Z</time>
      </trkpt>
      <trkpt lat="47.54365" lon="6.73083">
        <ele>420.5</ele>
        <time>2014-11-09T09:28:27.000Z</time>
      </trkpt>
      <trkpt lat="47.54367" lon="6.73084">
        <ele>420</ele>
        <time>2014-11-09T09:28:28.000Z</time>
      </trkpt>
      <trkpt lat="47.5437" lon="6.73085">
        <ele>419.6</ele>
        <time>2014-11-09T09:28:29.000Z</time>
      </trkpt>
      <trkpt lat="47.54372" lon="6.73086">
        <ele>420</ele>
        <time>2014-11-09T09:28:30.000Z</time>
      </trkpt>
      <trkpt lat="47.54375" lon="6.73087">
        <ele>420.9</ele>
        <time>2014-11-09T09:28:31.000Z</time>
      </trkpt>
      <trkpt lat="47.54378" lon="6.73088">
        <ele>420.9</ele>
        <time>2014-11-09T09:28:32.000Z</time>
      </trkpt>
      <trkpt lat="47.54381" lon="6.73089">
        <ele>419.8</ele>
        <time>2014-11-09T09:28:33.000Z</time>
      </trkpt>
      <trkpt lat="47.54383" lon="6.7309">
        <ele>420.8</ele>
        <time>2014-11-09T09:28:34.000Z</time>
      </trkpt>
      <trkpt lat="47.54386" lon="6.7309">
        <ele>421.2</ele>
        <time>2014-11-09T09:28:35.000Z</time>
      </trkpt>
      <trkpt lat="47.54389" lon="6.73091">
        <ele>422.5</ele>
        <time>2014-11-09T09:28:36.000Z</time>
      </trkpt>
      <trkpt lat="47.54391" lon="6.73092">
        <ele>423.9</ele>
        <time>2014-11-09T09:28:37.000Z</time>
      </trkpt>
      <trkpt lat="47.54394" lon="6.73093">
        <ele>423.1</ele>
        <time>2014-11-09T09:28:38.000Z</time>
      </trkpt>
      <trkpt lat="47.54397" lon="6.73093">
        <ele>421.7</ele>
        <time>2014-11-09T09:28:39.000Z</time>
      </trkpt>
      <trkpt lat="47.54399" lon="6.73094">
        <ele>421.8</ele>
        <time>2014-11-09T09:28:40.000Z</time>
      </trkpt>
      <trkpt lat="47.54402" lon="6.73095">
        <ele>421.8</ele>
        <time>2014-11-09T09:28:41.000Z</time>
      </trkpt>
      <trkpt lat="47.54404" lon="6.73096">
        <ele>422.1</ele>
        <time>2014-11-09T09:28:42.000Z</time>
      </trkpt>
      <trkpt lat="47.54408" lon="6.73097">
        <ele>422.4</ele>
        <time>2014-11-09T09:28:44.000Z</time>
      </trkpt>
      <trkpt lat="47.5441" lon="6.73097">
        <ele>422.3</ele>
        <time>2014-11-09T09:28:45.000Z</time>
      </trkpt>
      <trkpt lat="47.54414" lon="6.73099">
        <ele>422.8</ele>
        <time>2014-11-09T09:28:47.000Z</time>
      </trkpt>
      <trkpt lat="47.54415" lon="6.731">
        <ele>422.7</ele>
        <time>2014-11-09T09:28:48.000Z</time>
      </trkpt>
      <trkpt lat="47.54419" lon="6.73103">
        <ele>422.4</ele>
        <time>2014-11-09T09:28:51.000Z</time>
      </trkpt>
      <trkpt lat="47.5442" lon="6.73104">
        <ele>422.2</ele>
        <time>2014-11-09T09:28:52.000Z</time>
      </trkpt>
      <trkpt lat="47.54423" lon="6.73107">
        <ele>423.7</ele>
        <time>2014-11-09T09:28:56.000Z</time>
      </trkpt>
      <trkpt lat="47.54432" lon="6.73112">
        <ele>416.8</ele>
        <time>2014-11-09T09:29:04.000Z</time>
      </trkpt>
      <trkpt lat="47.54435" lon="6.73113">
        <ele>422.1</ele>
        <time>2014-11-09T09:29:07.000Z</time>
      </trkpt>
      <trkpt lat="47.54436" lon="6.73113">
        <ele>423.4</ele>
        <time>2014-11-09T09:29:07.999Z</time>
      </trkpt>
      <trkpt lat="47.54439" lon="6.73115">
        <ele>421.6</ele>
        <time>2014-11-09T09:29:09.000Z</time>
      </trkpt>
      <trkpt lat="47.5444" lon="6.73117">
        <ele>421.5</ele>
        <time>2014-11-09T09:29:10.000Z</time>
      </trkpt>
      <trkpt lat="47.54443" lon="6.73119">
        <ele>428.5</ele>
        <time>2014-11-09T09:29:12.000Z</time>
      </trkpt>
      <trkpt lat="47.54445" lon="6.7312">
        <ele>429.9</ele>
        <time>2014-11-09T09:29:13.000Z</time>
      </trkpt>
      <trkpt lat="47.54448" lon="6.7312">
        <ele>431.8</ele>
        <time>2014-11-09T09:29:15.000Z</time>
      </trkpt>
      <trkpt lat="47.54451" lon="6.73119">
        <ele>433.4</ele>
        <time>2014-11-09T09:29:16.000Z</time>
      </trkpt>
      <trkpt lat="47.54454" lon="6.73118">
        <ele>432</ele>
        <time>2014-11-09T09:29:18.000Z</time>
      </trkpt>
      <trkpt lat="47.54457" lon="6.73117">
        <ele>432.8</ele>
        <time>2014-11-09T09:29:19.000Z</time>
      </trkpt>
      <trkpt lat="47.5446" lon="6.73117">
        <ele>432.3</ele>
        <time>2014-11-09T09:29:21.000Z</time>
      </trkpt>
      <trkpt lat="47.54462" lon="6.73118">
        <ele>432.2</ele>
        <time>2014-11-09T09:29:22.000Z</time>
      </trkpt>
      <trkpt lat="47.54465" lon="6.73119">
        <ele>431.5</ele>
        <time>2014-11-09T09:29:24.000Z</time>
      </trkpt>
      <trkpt lat="47.54467" lon="6.7312">
        <ele>431.3</ele>
        <time>2014-11-09T09:29:25.000Z</time>
      </trkpt>
      <trkpt lat="47.5447" lon="6.73121">
        <ele>432.1</ele>
        <time>2014-11-09T09:29:27.000Z</time>
      </trkpt>
      <trkpt lat="47.54472" lon="6.73121">
        <ele>434.9</ele>
        <time>2014-11-09T09:29:28.000Z</time>
      </trkpt>
      <trkpt lat="47.54475" lon="6.73119">
        <ele>436.9</ele>
        <time>2014-11-09T09:29:30.000Z</time>
      </trkpt>
      <trkpt lat="47.54476" lon="6.73118">
        <ele>436.7</ele>
        <time>2014-11-09T09:29:31.000Z</time>
      </trkpt>
      <trkpt lat="47.54479" lon="6.73118">
        <ele>437.1</ele>
        <time>2014-11-09T09:29:33.000Z</time>
      </trkpt>
      <trkpt lat="47.54481" lon="6.73118">
        <ele>437.6</ele>
        <time>2014-11-09T09:29:34.000Z</time>
      </trkpt>
      <trkpt lat="47.54484" lon="6.73118">
        <ele>437.8</ele>
        <time>2014-11-09T09:29:35.000Z</time>
      </trkpt>
      <trkpt lat="47.54487" lon="6.73118">
        <ele>438.4</ele>
        <time>2014-11-09T09:29:36.000Z</time>
      </trkpt>
      <trkpt lat="47.54489" lon="6.73117">
        <ele>439.8</ele>
        <time>2014-11-09T09:29:37.000Z</time>
      </trkpt>
      <trkpt lat="47.54492" lon="6.73117">
        <ele>439.2</ele>
        <time>2014-11-09T09:29:38.000Z</time>
      </trkpt>
      <trkpt lat="47.54496" lon="6.73118">
        <ele>439.7</ele>
        <time>2014-11-09T09:29:40.000Z</time>
      </trkpt>
      <trkpt lat="47.54498" lon="6.73118">
        <ele>439.8</ele>
        <time>2014-11-09T09:29:41.000Z</time>
      </trkpt>
      <trkpt lat="47.54501" lon="6.73118">
        <ele>443.2</ele>
        <time>2014-11-09T09:29:43.000Z</time>
      </trkpt>
      <trkpt lat="47.54504" lon="6.73118">
        <ele>442.9</ele>
        <time>2014-11-09T09:29:44.000Z</time>
      </trkpt>
      <trkpt lat="47.54508" lon="6.73119">
        <ele>440.2</ele>
        <time>2014-11-09T09:29:46.000Z</time>
      </trkpt>
      <trkpt lat="47.5451" lon="6.7312">
        <ele>440.5</ele>
        <time>2014-11-09T09:29:47.000Z</time>
      </trkpt>
      <trkpt lat="47.54514" lon="6.73121">
        <ele>444.7</ele>
        <time>2014-11-09T09:29:49.000Z</time>
      </trkpt>
      <trkpt lat="47.54516" lon="6.73121">
        <ele>446.7</ele>
        <time>2014-11-09T09:29:50.000Z</time>
      </trkpt>
      <trkpt lat="47.54519" lon="6.73121">
        <ele>446.5</ele>
        <time>2014-11-09T09:29:51.000Z</time>
      </trkpt>
      <trkpt lat="47.54521" lon="6.7312">
        <ele>446.1</ele>
        <time>2014-11-09T09:29:52.000Z</time>
      </trkpt>
      <trkpt lat="47.54524" lon="6.73119">
        <ele>445.7</ele>
        <time>2014-11-09T09:29:53.000Z</time>
      </trkpt>
      <trkpt lat="47.54526" lon="6.73118">
        <ele>445.5</ele>
        <time>2014-11-09T09:29:54.000Z</time>
      </trkpt>
      <trkpt lat="47.54529" lon="6.73118">
        <ele>445.4</ele>
        <time>2014-11-09T09:29:55.000Z</time>
      </trkpt>
      <trkpt lat="47.54531" lon="6.73119">
        <ele>445.9</ele>
        <time>2014-11-09T09:29:56.000Z</time>
      </trkpt>
      <trkpt lat="47.54552" lon="6.73112">
        <ele>455.8</ele>
        <time>2014-11-09T09:30:04.000Z</time>
      </trkpt>
      <trkpt lat="47.54555" lon="6.7311">
        <ele>453.9</ele>
        <time>2014-11-09T09:30:05.000Z</time>
      </trkpt>
      <trkpt lat="47.54558" lon="6.73109">
        <ele>454.6</ele>
        <time>2014-11-09T09:30:06.000Z</time>
      </trkpt>
      <trkpt lat="47.54561" lon="6.73107">
        <ele>451.6</ele>
        <time>2014-11-09T09:30:08.000Z</time>
      </trkpt>
      <trkpt lat="47.54563" lon="6.73105">
        <ele>451.3</ele>
        <time>2014-11-09T09:30:09.000Z</time>
      </trkpt>
      <trkpt lat="47.54566" lon="6.73104">
        <ele>449.9</ele>
        <time>2014-11-09T09:30:10.000Z</time>
      </trkpt>
      <trkpt lat="47.54568" lon="6.73103">
        <ele>449.9</ele>
        <time>2014-11-09T09:30:11.000Z</time>
      </trkpt>
      <trkpt lat="47.54572" lon="6.73101">
        <ele>449.1</ele>
        <time>2014-11-09T09:30:13.000Z</time>
      </trkpt>
      <trkpt lat="47.54575" lon="6.73101">
        <ele>453.1</ele>
        <time>2014-11-09T09:30:14.000Z</time>
      </trkpt>
      <trkpt lat="47.54579" lon="6.73099">
        <ele>453.3</ele>
        <time>2014-11-09T09:30:16.000Z</time>
      </trkpt>
      <trkpt lat="47.5458" lon="6.73097">
        <ele>453</ele>
        <time>2014-11-09T09:30:17.000Z</time>
      </trkpt>
      <trkpt lat="47.54581" lon="6.73093">
        <ele>453.8</ele>
        <time>2014-11-09T09:30:19.000Z</time>
      </trkpt>
      <trkpt lat="47.54583" lon="6.73091">
        <ele>457.1</ele>
        <time>2014-11-09T09:30:20.000Z</time>
      </trkpt>
      <trkpt lat="47.54586" lon="6.73088">
        <ele>457.8</ele>
        <time>2014-11-09T09:30:22.000Z</time>
      </trkpt>
      <trkpt lat="47.54589" lon="6.73087">
        <ele>457.9</ele>
        <time>2014-11-09T09:30:23.000Z</time>
      </trkpt>
      <trkpt lat="47.54591" lon="6.73086">
        <ele>457.8</ele>
        <time>2014-11-09T09:30:24.000Z</time>
      </trkpt>
      <trkpt lat="47.54593" lon="6.73086">
        <ele>458.4</ele>
        <time>2014-11-09T09:30:25.000Z</time>
      </trkpt>
      <trkpt lat="47.54596" lon="6.73086">
        <ele>457.5</ele>
        <time>2014-11-09T09:30:26.000Z</time>
      </trkpt>
      <trkpt lat="47.54599" lon="6.73086">
        <ele>457.5</ele>
        <time>2014-11-09T09:30:27.000Z</time>
      </trkpt>
      <trkpt lat="47.54602" lon="6.73085">
        <ele>457.4</ele>
        <time>2014-11-09T09:30:28.000Z</time>
      </trkpt>
      <trkpt lat="47.54606" lon="6.73084">
        <ele>457.7</ele>
        <time>2014-11-09T09:30:29.000Z</time>
      </trkpt>
      <trkpt lat="47.54609" lon="6.73084">
        <ele>457.8</ele>
        <time>2014-11-09T09:30:30.000Z</time>
      </trkpt>
      <trkpt lat="47.54612" lon="6.73083">
        <ele>457.5</ele>
        <time>2014-11-09T09:30:31.000Z</time>
      </trkpt>
      <trkpt lat="47.54614" lon="6.73083">
        <ele>457.3</ele>
        <time>2014-11-09T09:30:32.000Z</time>
      </trkpt>
      <trkpt lat="47.54617" lon="6.73082">
        <ele>457.2</ele>
        <time>2014-11-09T09:30:33.000Z</time>
      </trkpt>
      <trkpt lat="47.54619" lon="6.73082">
        <ele>457.6</ele>
        <time>2014-11-09T09:30:34.000Z</time>
      </trkpt>
      <trkpt lat="47.54622" lon="6.73083">
        <ele>458.1</ele>
        <time>2014-11-09T09:30:35.000Z</time>
      </trkpt>
      <trkpt lat="47.54625" lon="6.73084">
        <ele>459.2</ele>
        <time>2014-11-09T09:30:36.000Z</time>
      </trkpt>
      <trkpt lat="47.54628" lon="6.73085">
        <ele>459.3</ele>
        <time>2014-11-09T09:30:37.000Z</time>
      </trkpt>
      <trkpt lat="47.54631" lon="6.73087">
        <ele>459.1</ele>
        <time>2014-11-09T09:30:38.000Z</time>
      </trkpt>
      <trkpt lat="47.54633" lon="6.73088">
        <ele>460.2</ele>
        <time>2014-11-09T09:30:39.000Z</time>
      </trkpt>
      <trkpt lat="47.54637" lon="6.73087">
        <ele>457.9</ele>
        <time>2014-11-09T09:30:45.000Z</time>
      </trkpt>
      <trkpt lat="47.54638" lon="6.73087">
        <ele>456.3</ele>
        <time>2014-11-09T09:30:46.000Z</time>
      </trkpt>
      <trkpt lat="47.54639" lon="6.73081">
        <ele>454.6</ele>
        <time>2014-11-09T09:30:51.000Z</time>
      </trkpt>
      <trkpt lat="47.54639" lon="6.7308">
        <ele>454.3</ele>
        <time>2014-11-09T09:30:52.000Z</time>
      </trkpt>
      <trkpt lat="47.54641" lon="6.73078">
        <ele>453.2</ele>
        <time>2014-11-09T09:31:39.000Z</time>
      </trkpt>
      <trkpt lat="47.54644" lon="6.73079">
        <ele>449.8</ele>
        <time>2014-11-09T09:31:40.000Z</time>
      </trkpt>
      <trkpt lat="47.54647" lon="6.7308">
        <ele>450.1</ele>
        <time>2014-11-09T09:31:41.000Z</time>
      </trkpt>
      <trkpt lat="47.54651" lon="6.73081">
        <ele>449.2</ele>
        <time>2014-11-09T09:31:42.000Z</time>
      </trkpt>
      <trkpt lat="47.54655" lon="6.73082">
        <ele>448.8</ele>
        <time>2014-11-09T09:31:43.000Z</time>
      </trkpt>
      <trkpt lat="47.54658" lon="6.73083">
        <ele>448.3</ele>
        <time>2014-11-09T09:31:44.000Z</time>
      </trkpt>
      <trkpt lat="47.54661" lon="6.73084">
        <ele>447.4</ele>
        <time>2014-11-09T09:31:45.000Z</time>
      </trkpt>
      <trkpt lat="47.54664" lon="6.73084">
        <ele>445.7</ele>
        <time>2014-11-09T09:31:46.000Z</time>
      </trkpt>
      <trkpt lat="47.54666" lon="6.73085">
        <ele>444.6</ele>
        <time>2014-11-09T09:31:47.000Z</time>
      </trkpt>
      <trkpt lat="47.54669" lon="6.73085">
        <ele>446.4</ele>
        <time>2014-11-09T09:31:48.000Z</time>
      </trkpt>
      <trkpt lat="47.54671" lon="6.73086">
        <ele>446.9</ele>
        <time>2014-11-09T09:31:49.000Z</time>
      </trkpt>
      <trkpt lat="47.54674" lon="6.73087">
        <ele>446.5</ele>
        <time>2014-11-09T09:31:50.000Z</time>
      </trkpt>
      <trkpt lat="47.54677" lon="6.73088">
        <ele>445.7</ele>
        <time>2014-11-09T09:31:51.000Z</time>
      </trkpt>
      <trkpt lat="47.54679" lon="6.73089">
        <ele>445.6</ele>
        <time>2014-11-09T09:31:52.000Z</time>
      </trkpt>
      <trkpt lat="47.54681" lon="6.7309">
        <ele>444.6</ele>
        <time>2014-11-09T09:31:53.000Z</time>
      </trkpt>
      <trkpt lat="47.54683" lon="6.73091">
        <ele>441.9</ele>
        <time>2014-11-09T09:31:54.000Z</time>
      </trkpt>
      <trkpt lat="47.54687" lon="6.73094">
        <ele>438.9</ele>
        <time>2014-11-09T09:31:56.000Z</time>
      </trkpt>
      <trkpt lat="47.54694" lon="6.73098">
        <ele>435.4</ele>
        <time>2014-11-09T09:32:04.000Z</time>
      </trkpt>
      <trkpt lat="47.54697" lon="6.73095">
        <ele>430.3</ele>
        <time>2014-11-09T09:34:39.000Z</time>
      </trkpt>
      <trkpt lat="47.54697" lon="6.73094">
        <ele>431.2</ele>
        <time>2014-11-09T09:34:40.000Z</time>
      </trkpt>
      <trkpt lat="47.547" lon="6.73092">
        <ele>429</ele>
        <time>2014-11-09T09:34:56.000Z</time>
      </trkpt>
      <trkpt lat="47.54691" lon="6.73091">
        <ele>427.5</ele>
        <time>2014-11-09T09:35:04.000Z</time>
      </trkpt>
      <trkpt lat="47.54689" lon="6.73095">
        <ele>428.5</ele>
        <time>2014-11-09T09:35:07.000Z</time>
      </trkpt>
      <trkpt lat="47.54688" lon="6.73097">
        <ele>428.6</ele>
        <time>2014-11-09T09:35:08.000Z</time>
      </trkpt>
      <trkpt lat="47.54685" lon="6.73101">
        <ele>428.8</ele>
        <time>2014-11-09T09:35:10.000Z</time>
      </trkpt>
      <trkpt lat="47.54683" lon="6.73103">
        <ele>429.4</ele>
        <time>2014-11-09T09:35:11.000Z</time>
      </trkpt>
      <trkpt lat="47.54681" lon="6.73105">
        <ele>428.1</ele>
        <time>2014-11-09T09:35:12.000Z</time>
      </trkpt>
      <trkpt lat="47.54679" lon="6.73107">
        <ele>428.8</ele>
        <time>2014-11-09T09:35:13.000Z</time>
      </trkpt>
      <trkpt lat="47.54675" lon="6.73109">
        <ele>430.1</ele>
        <time>2014-11-09T09:35:15.000Z</time>
      </trkpt>
      <trkpt lat="47.54673" lon="6.73109">
        <ele>430.3</ele>
        <time>2014-11-09T09:35:16.000Z</time>
      </trkpt>
      <trkpt lat="47.5467" lon="6.7311">
        <ele>432.5</ele>
        <time>2014-11-09T09:35:18.000Z</time>
      </trkpt>
      <trkpt lat="47.54668" lon="6.73111">
        <ele>433.7</ele>
        <time>2014-11-09T09:35:19.000Z</time>
      </trkpt>
      <trkpt lat="47.54664" lon="6.73114">
        <ele>434.3</ele>
        <time>2014-11-09T09:35:21.000Z</time>
      </trkpt>
      <trkpt lat="47.54663" lon="6.73115">
        <ele>434.3</ele>
        <time>2014-11-09T09:35:22.000Z</time>
      </trkpt>
      <trkpt lat="47.54659" lon="6.73119">
        <ele>435.2</ele>
        <time>2014-11-09T09:35:24.000Z</time>
      </trkpt>
      <trkpt lat="47.54658" lon="6.73122">
        <ele>433.4</ele>
        <time>2014-11-09T09:35:25.000Z</time>
      </trkpt>
      <trkpt lat="47.54656" lon="6.73125">
        <ele>434.9</ele>
        <time>2014-11-09T09:35:26.000Z</time>
      </trkpt>
      <trkpt lat="47.54654" lon="6.73129">
        <ele>436</ele>
        <time>2014-11-09T09:35:27.000Z</time>
      </trkpt>
      <trkpt lat="47.54652" lon="6.73132">
        <ele>436.2</ele>
        <time>2014-11-09T09:35:28.000Z</time>
      </trkpt>
      <trkpt lat="47.5465" lon="6.73136">
        <ele>436.3</ele>
        <time>2014-11-09T09:35:29.000Z</time>
      </trkpt>
      <trkpt lat="47.54648" lon="6.7314">
        <ele>436.2</ele>
        <time>2014-11-09T09:35:30.000Z</time>
      </trkpt>
      <trkpt lat="47.54645" lon="6.73143">
        <ele>436.8</ele>
        <time>2014-11-09T09:35:31.000Z</time>
      </trkpt>
      <trkpt lat="47.54643" lon="6.73147">
        <ele>436.5</ele>
        <time>2014-11-09T09:35:32.000Z</time>
      </trkpt>
      <trkpt lat="47.54642" lon="6.73149">
        <ele>436</ele>
        <time>2014-11-09T09:35:33.000Z</time>
      </trkpt>
      <trkpt lat="47.54639" lon="6.73154">
        <ele>435.3</ele>
        <time>2014-11-09T09:35:35.000Z</time>
      </trkpt>
      <trkpt lat="47.54638" lon="6.73156">
        <ele>435.2</ele>
        <time>2014-11-09T09:35:36.000Z</time>
      </trkpt>
      <trkpt lat="47.54636" lon="6.73159">
        <ele>435.3</ele>
        <time>2014-11-09T09:35:38.000Z</time>
      </trkpt>
      <trkpt lat="47.54635" lon="6.73161">
        <ele>434.8</ele>
        <time>2014-11-09T09:35:39.000Z</time>
      </trkpt>
      <trkpt lat="47.54633" lon="6.73165">
        <ele>433.6</ele>
        <time>2014-11-09T09:35:41.000Z</time>
      </trkpt>
      <trkpt lat="47.54632" lon="6.73167">
        <ele>433.7</ele>
        <time>2014-11-09T09:35:42.000Z</time>
      </trkpt>
      <trkpt lat="47.5463" lon="6.73172">
        <ele>433.1</ele>
        <time>2014-11-09T09:35:44.000Z</time>
      </trkpt>
      <trkpt lat="47.54628" lon="6.73174">
        <ele>433.3</ele>
        <time>2014-11-09T09:35:45.000Z</time>
      </trkpt>
      <trkpt lat="47.54627" lon="6.73177">
        <ele>432.6</ele>
        <time>2014-11-09T09:35:46.000Z</time>
      </trkpt>
      <trkpt lat="47.54625" lon="6.7318">
        <ele>431.9</ele>
        <time>2014-11-09T09:35:47.000Z</time>
      </trkpt>
      <trkpt lat="47.54623" lon="6.73182">
        <ele>431.5</ele>
        <time>2014-11-09T09:35:48.000Z</time>
      </trkpt>
      <trkpt lat="47.54619" lon="6.73185">
        <ele>432</ele>
        <time>2014-11-09T09:35:49.000Z</time>
      </trkpt>
      <trkpt lat="47.54616" lon="6.73189">
        <ele>431.4</ele>
        <time>2014-11-09T09:35:50.000Z</time>
      </trkpt>
      <trkpt lat="47.54614" lon="6.73193">
        <ele>431</ele>
        <time>2014-11-09T09:35:51.000Z</time>
      </trkpt>
      <trkpt lat="47.54612" lon="6.73197">
        <ele>430.6</ele>
        <time>2014-11-09T09:35:52.000Z</time>
      </trkpt>
      <trkpt lat="47.5461" lon="6.73201">
        <ele>432.7</ele>
        <time>2014-11-09T09:35:53.000Z</time>
      </trkpt>
      <trkpt lat="47.54608" lon="6.73204">
        <ele>432.2</ele>
        <time>2014-11-09T09:35:54.000Z</time>
      </trkpt>
      <trkpt lat="47.54605" lon="6.73207">
        <ele>431.5</ele>
        <time>2014-11-09T09:35:55.000Z</time>
      </trkpt>
      <trkpt lat="47.54603" lon="6.7321">
        <ele>431</ele>
        <time>2014-11-09T09:35:56.000Z</time>
      </trkpt>
      <trkpt lat="47.54599" lon="6.73219">
        <ele>429.9</ele>
        <time>2014-11-09T09:35:59.000Z</time>
      </trkpt>
      <trkpt lat="47.54596" lon="6.73223">
        <ele>429.4</ele>
        <time>2014-11-09T09:36:01.000Z</time>
      </trkpt>
      <trkpt lat="47.54595" lon="6.73224">
        <ele>429.2</ele>
        <time>2014-11-09T09:36:02.000Z</time>
      </trkpt>
      <trkpt lat="47.54591" lon="6.73227">
        <ele>428.1</ele>
        <time>2014-11-09T09:36:04.000Z</time>
      </trkpt>
      <trkpt lat="47.54589" lon="6.73228">
        <ele>427.3</ele>
        <time>2014-11-09T09:36:05.000Z</time>
      </trkpt>
      <trkpt lat="47.54587" lon="6.73229">
        <ele>426.6</ele>
        <time>2014-11-09T09:36:06.000Z</time>
      </trkpt>
      <trkpt lat="47.54585" lon="6.7323">
        <ele>426.6</ele>
        <time>2014-11-09T09:36:07.000Z</time>
      </trkpt>
      <trkpt lat="47.54581" lon="6.73233">
        <ele>427.2</ele>
        <time>2014-11-09T09:36:09.000Z</time>
      </trkpt>
      <trkpt lat="47.54579" lon="6.73235">
        <ele>427.8</ele>
        <time>2014-11-09T09:36:10.000Z</time>
      </trkpt>
      <trkpt lat="47.54577" lon="6.73239">
        <ele>429.3</ele>
        <time>2014-11-09T09:36:12.000Z</time>
      </trkpt>
      <trkpt lat="47.54577" lon="6.7324">
        <ele>429.4</ele>
        <time>2014-11-09T09:36:13.000Z</time>
      </trkpt>
      <trkpt lat="47.54574" lon="6.73246">
        <ele>429.7</ele>
        <time>2014-11-09T09:36:17.000Z</time>
      </trkpt>
      <trkpt lat="47.54574" lon="6.73247">
        <ele>429.6</ele>
        <time>2014-11-09T09:36:18.000Z</time>
      </trkpt>
      <trkpt lat="47.54572" lon="6.73253">
        <ele>429.6</ele>
        <time>2014-11-09T09:36:30.000Z</time>
      </trkpt>
      <trkpt lat="47.54572" lon="6.73253">
        <ele>429.6</ele>
        <time>2014-11-09T09:36:31.000Z</time>
      </trkpt>
      <trkpt lat="47.54569" lon="6.73255">
        <ele>429.6</ele>
        <time>2014-11-09T09:36:34.000Z</time>
      </trkpt>
      <trkpt lat="47.54567" lon="6.73257">
        <ele>429.2</ele>
        <time>2014-11-09T09:36:35.000Z</time>
      </trkpt>
      <trkpt lat="47.54565" lon="6.73259">
        <ele>428</ele>
        <time>2014-11-09T09:36:36.000Z</time>
      </trkpt>
      <trkpt lat="47.54562" lon="6.73262">
        <ele>426.1</ele>
        <time>2014-11-09T09:36:37.000Z</time>
      </trkpt>
      <trkpt lat="47.5456" lon="6.73265">
        <ele>425.3</ele>
        <time>2014-11-09T09:36:38.000Z</time>
      </trkpt>
      <trkpt lat="47.54558" lon="6.73269">
        <ele>424.9</ele>
        <time>2014-11-09T09:36:39.000Z</time>
      </trkpt>
      <trkpt lat="47.54557" lon="6.73272">
        <ele>424.6</ele>
        <time>2014-11-09T09:36:40.000Z</time>
      </trkpt>
      <trkpt lat="47.54555" lon="6.73276">
        <ele>423.6</ele>
        <time>2014-11-09T09:36:41.000Z</time>
      </trkpt>
      <trkpt lat="47.54554" lon="6.73281">
        <ele>422.2</ele>
        <time>2014-11-09T09:36:42.000Z</time>
      </trkpt>
      <trkpt lat="47.54554" lon="6.73285">
        <ele>422</ele>
        <time>2014-11-09T09:36:43.000Z</time>
      </trkpt>
      <trkpt lat="47.54553" lon="6.7329">
        <ele>422.5</ele>
        <time>2014-11-09T09:36:44.000Z</time>
      </trkpt>
      <trkpt lat="47.54552" lon="6.73294">
        <ele>422.3</ele>
        <time>2014-11-09T09:36:45.000Z</time>
      </trkpt>
      <trkpt lat="47.54551" lon="6.73299">
        <ele>423.3</ele>
        <time>2014-11-09T09:36:46.000Z</time>
      </trkpt>
      <trkpt lat="47.54551" lon="6.73304">
        <ele>426</ele>
        <time>2014-11-09T09:36:47.000Z</time>
      </trkpt>
      <trkpt lat="47.54551" lon="6.73309">
        <ele>428.4</ele>
        <time>2014-11-09T09:36:48.000Z</time>
      </trkpt>
      <trkpt lat="47.54552" lon="6.73313">
        <ele>428.1</ele>
        <time>2014-11-09T09:36:49.000Z</time>
      </trkpt>
      <trkpt lat="47.54552" lon="6.73317">
        <ele>428.5</ele>
        <time>2014-11-09T09:36:50.000Z</time>
      </trkpt>
      <trkpt lat="47.54552" lon="6.73321">
        <ele>428.7</ele>
        <time>2014-11-09T09:36:51.000Z</time>
      </trkpt>
      <trkpt lat="47.54552" lon="6.73326">
        <ele>430.8</ele>
        <time>2014-11-09T09:36:53.000Z</time>
      </trkpt>
      <trkpt lat="47.54553" lon="6.73329">
        <ele>431.3</ele>
        <time>2014-11-09T09:36:54.000Z</time>
      </trkpt>
      <trkpt lat="47.54554" lon="6.73333">
        <ele>431.5</ele>
        <time>2014-11-09T09:36:56.000Z</time>
      </trkpt>
      <trkpt lat="47.54559" lon="6.73346">
        <ele>430.8</ele>
        <time>2014-11-09T09:37:04.000Z</time>
      </trkpt>
      <trkpt lat="47.54563" lon="6.73348">
        <ele>431.9</ele>
        <time>2014-11-09T09:37:19.000Z</time>
      </trkpt>
      <trkpt lat="47.54564" lon="6.7335">
        <ele>434.1</ele>
        <time>2014-11-09T09:37:20.000Z</time>
      </trkpt>
      <trkpt lat="47.54565" lon="6.73356">
        <ele>439.4</ele>
        <time>2014-11-09T09:37:22.000Z</time>
      </trkpt>
      <trkpt lat="47.54566" lon="6.73359">
        <ele>439.8</ele>
        <time>2014-11-09T09:37:23.000Z</time>
      </trkpt>
      <trkpt lat="47.54568" lon="6.73363">
        <ele>440.6</ele>
        <time>2014-11-09T09:37:25.000Z</time>
      </trkpt>
      <trkpt lat="47.54569" lon="6.73365">
        <ele>440.1</ele>
        <time>2014-11-09T09:37:26.000Z</time>
      </trkpt>
      <trkpt lat="47.54571" lon="6.73369">
        <ele>440.8</ele>
        <time>2014-11-09T09:37:29.000Z</time>
      </trkpt>
      <trkpt lat="47.54571" lon="6.7337">
        <ele>440.6</ele>
        <time>2014-11-09T09:37:30.000Z</time>
      </trkpt>
      <trkpt lat="47.54574" lon="6.73374">
        <ele>440.3</ele>
        <time>2014-11-09T09:37:33.000Z</time>
      </trkpt>
      <trkpt lat="47.54574" lon="6.73376">
        <ele>440.3</ele>
        <time>2014-11-09T09:37:34.000Z</time>
      </trkpt>
      <trkpt lat="47.54575" lon="6.73382">
        <ele>442.9</ele>
        <time>2014-11-09T09:37:37.000Z</time>
      </trkpt>
      <trkpt lat="47.54576" lon="6.73384">
        <ele>441.7</ele>
        <time>2014-11-09T09:37:38.000Z</time>
      </trkpt>
      <trkpt lat="47.54577" lon="6.7339">
        <ele>443.1</ele>
        <time>2014-11-09T09:37:41.029Z</time>
      </trkpt>
      <trkpt lat="47.54578" lon="6.73393">
        <ele>444.1</ele>
        <time>2014-11-09T09:37:42.000Z</time>
      </trkpt>
      <trkpt lat="47.5458" lon="6.73397">
        <ele>445.9</ele>
        <time>2014-11-09T09:37:44.000Z</time>
      </trkpt>
      <trkpt lat="47.54581" lon="6.73399">
        <ele>447.5</ele>
        <time>2014-11-09T09:37:45.000Z</time>
      </trkpt>
      <trkpt lat="47.54582" lon="6.73402">
        <ele>448.6</ele>
        <time>2014-11-09T09:37:47.000Z</time>
      </trkpt>
      <trkpt lat="47.54584" lon="6.73404">
        <ele>447.1</ele>
        <time>2014-11-09T09:37:48.000Z</time>
      </trkpt>
      <trkpt lat="47.54587" lon="6.73408">
        <ele>443.5</ele>
        <time>2014-11-09T09:37:50.000Z</time>
      </trkpt>
      <trkpt lat="47.54588" lon="6.73409">
        <ele>443</ele>
        <time>2014-11-09T09:37:51.000Z</time>
      </trkpt>
      <trkpt lat="47.5459" lon="6.73414">
        <ele>447.3</ele>
        <time>2014-11-09T09:37:54.000Z</time>
      </trkpt>
      <trkpt lat="47.5459" lon="6.73415">
        <ele>447.5</ele>
        <time>2014-11-09T09:37:55.000Z</time>
      </trkpt>
      <trkpt lat="47.54591" lon="6.7342">
        <ele>448.4</ele>
        <time>2014-11-09T09:38:00.000Z</time>
      </trkpt>
      <trkpt lat="47.54592" lon="6.73421">
        <ele>451</ele>
        <time>2014-11-09T09:38:01.000Z</time>
      </trkpt>
      <trkpt lat="47.54594" lon="6.73426">
        <ele>451.4</ele>
        <time>2014-11-09T09:38:04.000Z</time>
      </trkpt>
      <trkpt lat="47.54594" lon="6.73428">
        <ele>451.5</ele>
        <time>2014-11-09T09:38:05.000Z</time>
      </trkpt>
      <trkpt lat="47.54599" lon="6.73428">
        <ele>447.9</ele>
        <time>2014-11-09T09:38:36.000Z</time>
      </trkpt>
      <trkpt lat="47.54599" lon="6.73428">
        <ele>448.2</ele>
        <time>2014-11-09T09:38:37.000Z</time>
      </trkpt>
      <trkpt lat="47.54601" lon="6.73433">
        <ele>453.5</ele>
        <time>2014-11-09T09:38:41.000Z</time>
      </trkpt>
      <trkpt lat="47.54603" lon="6.73435">
        <ele>453</ele>
        <time>2014-11-09T09:38:42.000Z</time>
      </trkpt>
      <trkpt lat="47.54604" lon="6.73438">
        <ele>454.7</ele>
        <time>2014-11-09T09:38:43.000Z</time>
      </trkpt>
      <trkpt lat="47.54605" lon="6.73441">
        <ele>454.1</ele>
        <time>2014-11-09T09:38:44.000Z</time>
      </trkpt>
      <trkpt lat="47.54606" lon="6.73447">
        <ele>453.7</ele>
        <time>2014-11-09T09:38:46.000Z</time>
      </trkpt>
      <trkpt lat="47.54607" lon="6.73449">
        <ele>453.7</ele>
        <time>2014-11-09T09:38:47.000Z</time>
      </trkpt>
      <trkpt lat="47.54609" lon="6.73454">
        <ele>452</ele>
        <time>2014-11-09T09:38:50.000Z</time>
      </trkpt>
      <trkpt lat="47.5461" lon="6.73456">
        <ele>451.7</ele>
        <time>2014-11-09T09:38:51.000Z</time>
      </trkpt>
      <trkpt lat="47.54611" lon="6.73462">
        <ele>450.6</ele>
        <time>2014-11-09T09:38:54.000Z</time>
      </trkpt>
      <trkpt lat="47.54611" lon="6.73464">
        <ele>450.9</ele>
        <time>2014-11-09T09:38:55.000Z</time>
      </trkpt>
      <trkpt lat="47.54614" lon="6.73469">
        <ele>451</ele>
        <time>2014-11-09T09:38:59.000Z</time>
      </trkpt>
      <trkpt lat="47.54614" lon="6.73471">
        <ele>450.7</ele>
        <time>2014-11-09T09:39:00.000Z</time>
      </trkpt>
      <trkpt lat="47.54615" lon="6.73476">
        <ele>453.5</ele>
        <time>2014-11-09T09:39:03.000Z</time>
      </trkpt>
      <trkpt lat="47.54615" lon="6.73478">
        <ele>454.3</ele>
        <time>2014-11-09T09:39:04.000Z</time>
      </trkpt>
      <trkpt lat="47.54617" lon="6.73484">
        <ele>452.9</ele>
        <time>2014-11-09T09:39:07.000Z</time>
      </trkpt>
      <trkpt lat="47.54617" lon="6.73486">
        <ele>452.4</ele>
        <time>2014-11-09T09:39:08.000Z</time>
      </trkpt>
      <trkpt lat="47.54618" lon="6.73491">
        <ele>453</ele>
        <time>2014-11-09T09:39:11.000Z</time>
      </trkpt>
      <trkpt lat="47.54619" lon="6.73493">
        <ele>453.1</ele>
        <time>2014-11-09T09:39:12.000Z</time>
      </trkpt>
      <trkpt lat="47.54621" lon="6.73497">
        <ele>453</ele>
        <time>2014-11-09T09:39:15.000Z</time>
      </trkpt>
      <trkpt lat="47.54621" lon="6.73499">
        <ele>455</ele>
        <time>2014-11-09T09:39:16.000Z</time>
      </trkpt>
      <trkpt lat="47.54624" lon="6.73504">
        <ele>456.1</ele>
        <time>2014-11-09T09:39:21.000Z</time>
      </trkpt>
      <trkpt lat="47.54624" lon="6.73505">
        <ele>455.4</ele>
        <time>2014-11-09T09:39:22.000Z</time>
      </trkpt>
      <trkpt lat="47.54625" lon="6.73511">
        <ele>455.2</ele>
        <time>2014-11-09T09:39:33.000Z</time>
      </trkpt>
      <trkpt lat="47.54626" lon="6.73511">
        <ele>455</ele>
        <time>2014-11-09T09:39:34.000Z</time>
      </trkpt>
      <trkpt lat="47.54625" lon="6.73517">
        <ele>457.3</ele>
        <time>2014-11-09T09:39:43.000Z</time>
      </trkpt>
      <trkpt lat="47.54625" lon="6.7352">
        <ele>456.8</ele>
        <time>2014-11-09T09:39:44.000Z</time>
      </trkpt>
      <trkpt lat="47.54625" lon="6.73523">
        <ele>456.9</ele>
        <time>2014-11-09T09:39:45.000Z</time>
      </trkpt>
      <trkpt lat="47.54625" lon="6.73526">
        <ele>456.6</ele>
        <time>2014-11-09T09:39:46.000Z</time>
      </trkpt>
      <trkpt lat="47.54626" lon="6.73533">
        <ele>456.2</ele>
        <time>2014-11-09T09:39:48.000Z</time>
      </trkpt>
      <trkpt lat="47.54626" lon="6.73535">
        <ele>455.1</ele>
        <time>2014-11-09T09:39:49.000Z</time>
      </trkpt>
      <trkpt lat="47.54628" lon="6.73541">
        <ele>454.9</ele>
        <time>2014-11-09T09:39:51.000Z</time>
      </trkpt>
      <trkpt lat="47.54629" lon="6.73545">
        <ele>454.3</ele>
        <time>2014-11-09T09:39:52.000Z</time>
      </trkpt>
      <trkpt lat="47.5463" lon="6.73549">
        <ele>455</ele>
        <time>2014-11-09T09:39:53.000Z</time>
      </trkpt>
      <trkpt lat="47.5463" lon="6.73552">
        <ele>454.8</ele>
        <time>2014-11-09T09:39:54.000Z</time>
      </trkpt>
      <trkpt lat="47.54631" lon="6.73558">
        <ele>454.4</ele>
        <time>2014-11-09T09:39:56.000Z</time>
      </trkpt>
      <trkpt lat="47.5464" lon="6.73568">
        <ele>438.4</ele>
        <time>2014-11-09T09:40:04.000Z</time>
      </trkpt>
      <trkpt lat="47.54643" lon="6.73569">
        <ele>431.8</ele>
        <time>2014-11-09T09:40:06.000Z</time>
      </trkpt>
      <trkpt lat="47.54645" lon="6.73569">
        <ele>428.3</ele>
        <time>2014-11-09T09:40:07.000Z</time>
      </trkpt>
      <trkpt lat="47.54649" lon="6.73571">
        <ele>425.5</ele>
        <time>2014-11-09T09:40:09.000Z</time>
      </trkpt>
      <trkpt lat="47.54651" lon="6.73571">
        <ele>424.7</ele>
        <time>2014-11-09T09:40:10.000Z</time>
      </trkpt>
      <trkpt lat="47.54654" lon="6.73572">
        <ele>423.9</ele>
        <time>2014-11-09T09:40:12.000Z</time>
      </trkpt>
      <trkpt lat="47.54655" lon="6.73573">
        <ele>423</ele>
        <time>2014-11-09T09:40:13.000Z</time>
      </trkpt>
      <trkpt lat="47.5466" lon="6.73573">
        <ele>422.2</ele>
        <time>2014-11-09T09:40:16.000Z</time>
      </trkpt>
      <trkpt lat="47.54661" lon="6.73573">
        <ele>422.3</ele>
        <time>2014-11-09T09:40:17.000Z</time>
      </trkpt>
      <trkpt lat="47.54665" lon="6.73575">
        <ele>421.4</ele>
        <time>2014-11-09T09:40:20.000Z</time>
      </trkpt>
      <trkpt lat="47.54666" lon="6.73575">
        <ele>421.8</ele>
        <time>2014-11-09T09:40:21.000Z</time>
      </trkpt>
      <trkpt lat="47.5467" lon="6.73577">
        <ele>420.8</ele>
        <time>2014-11-09T09:40:24.000Z</time>
      </trkpt>
      <trkpt lat="47.54671" lon="6.73577">
        <ele>419.4</ele>
        <time>2014-11-09T09:40:25.000Z</time>
      </trkpt>
      <trkpt lat="47.54676" lon="6.73576">
        <ele>418.6</ele>
        <time>2014-11-09T09:40:29.000Z</time>
      </trkpt>
      <trkpt lat="47.54677" lon="6.73576">
        <ele>418.6</ele>
        <time>2014-11-09T09:40:30.000Z</time>
      </trkpt>
      <trkpt lat="47.5468" lon="6.73574">
        <ele>417</ele>
        <time>2014-11-09T09:40:32.000Z</time>
      </trkpt>
      <trkpt lat="47.54681" lon="6.73573">
        <ele>417.4</ele>
        <time>2014-11-09T09:40:33.000Z</time>
      </trkpt>
      <trkpt lat="47.54684" lon="6.7357">
        <ele>418</ele>
        <time>2014-11-09T09:40:35.000Z</time>
      </trkpt>
      <trkpt lat="47.54686" lon="6.73568">
        <ele>418.3</ele>
        <time>2014-11-09T09:40:36.000Z</time>
      </trkpt>
      <trkpt lat="47.5469" lon="6.73565">
        <ele>419.3</ele>
        <time>2014-11-09T09:40:38.000Z</time>
      </trkpt>
      <trkpt lat="47.54692" lon="6.73565">
        <ele>419.4</ele>
        <time>2014-11-09T09:40:39.000Z</time>
      </trkpt>
      <trkpt lat="47.54695" lon="6.73564">
        <ele>417.9</ele>
        <time>2014-11-09T09:40:41.000Z</time>
      </trkpt>
      <trkpt lat="47.54697" lon="6.73563">
        <ele>417.2</ele>
        <time>2014-11-09T09:40:42.000Z</time>
      </trkpt>
      <trkpt lat="47.54701" lon="6.73562">
        <ele>421</ele>
        <time>2014-11-09T09:40:44.000Z</time>
      </trkpt>
      <trkpt lat="47.54703" lon="6.73561">
        <ele>421.8</ele>
        <time>2014-11-09T09:40:45.000Z</time>
      </trkpt>
      <trkpt lat="47.54705" lon="6.7356">
        <ele>422.2</ele>
        <time>2014-11-09T09:40:46.000Z</time>
      </trkpt>
      <trkpt lat="47.54708" lon="6.73558">
        <ele>421.4</ele>
        <time>2014-11-09T09:40:47.000Z</time>
      </trkpt>
      <trkpt lat="47.5471" lon="6.73556">
        <ele>421.5</ele>
        <time>2014-11-09T09:40:48.000Z</time>
      </trkpt>
      <trkpt lat="47.54713" lon="6.73553">
        <ele>421.5</ele>
        <time>2014-11-09T09:40:49.000Z</time>
      </trkpt>
      <trkpt lat="47.54715" lon="6.73551">
        <ele>422.1</ele>
        <time>2014-11-09T09:40:50.000Z</time>
      </trkpt>
      <trkpt lat="47.54718" lon="6.73548">
        <ele>422.7</ele>
        <time>2014-11-09T09:40:51.000Z</time>
      </trkpt>
      <trkpt lat="47.54721" lon="6.73545">
        <ele>423.4</ele>
        <time>2014-11-09T09:40:52.000Z</time>
      </trkpt>
      <trkpt lat="47.54723" lon="6.73542">
        <ele>423</ele>
        <time>2014-11-09T09:40:53.000Z</time>
      </trkpt>
      <trkpt lat="47.54726" lon="6.7354">
        <ele>421</ele>
        <time>2014-11-09T09:40:54.000Z</time>
      </trkpt>
      <trkpt lat="47.54728" lon="6.73537">
        <ele>423.5</ele>
        <time>2014-11-09T09:40:55.000Z</time>
      </trkpt>
      <trkpt lat="47.5473" lon="6.73535">
        <ele>422.8</ele>
        <time>2014-11-09T09:40:56.000Z</time>
      </trkpt>
      <trkpt lat="47.54744" lon="6.73513">
        <ele>422.4</ele>
        <time>2014-11-09T09:41:04.000Z</time>
      </trkpt>
      <trkpt lat="47.54746" lon="6.7351">
        <ele>422.6</ele>
        <time>2014-11-09T09:41:05.000Z</time>
      </trkpt>
      <trkpt lat="47.54749" lon="6.73506">
        <ele>422.7</ele>
        <time>2014-11-09T09:41:06.000Z</time>
      </trkpt>
      <trkpt lat="47.54751" lon="6.73503">
        <ele>422.5</ele>
        <time>2014-11-09T09:41:07.000Z</time>
      </trkpt>
      <trkpt lat="47.54753" lon="6.73498">
        <ele>422.5</ele>
        <time>2014-11-09T09:41:08.000Z</time>
      </trkpt>
      <trkpt lat="47.54755" lon="6.73495">
        <ele>422.2</ele>
        <time>2014-11-09T09:41:09.000Z</time>
      </trkpt>
      <trkpt lat="47.54756" lon="6.73491">
        <ele>422.1</ele>
        <time>2014-11-09T09:41:10.000Z</time>
      </trkpt>
      <trkpt lat="47.54758" lon="6.73487">
        <ele>422.2</ele>
        <time>2014-11-09T09:41:11.000Z</time>
      </trkpt>
      <trkpt lat="47.5476" lon="6.73482">
        <ele>421.9</ele>
        <time>2014-11-09T09:41:12.000Z</time>
      </trkpt>
      <trkpt lat="47.54762" lon="6.73478">
        <ele>421.6</ele>
        <time>2014-11-09T09:41:13.000Z</time>
      </trkpt>
      <trkpt lat="47.54765" lon="6.73474">
        <ele>421.4</ele>
        <time>2014-11-09T09:41:14.000Z</time>
      </trkpt>
      <trkpt lat="47.54767" lon="6.7347">
        <ele>421.6</ele>
        <time>2014-11-09T09:41:15.000Z</time>
      </trkpt>
      <trkpt lat="47.54769" lon="6.73468">
        <ele>421.2</ele>
        <time>2014-11-09T09:41:16.000Z</time>
      </trkpt>
      <trkpt lat="47.54772" lon="6.73465">
        <ele>421.3</ele>
        <time>2014-11-09T09:41:17.000Z</time>
      </trkpt>
      <trkpt lat="47.54774" lon="6.73463">
        <ele>421.8</ele>
        <time>2014-11-09T09:41:18.000Z</time>
      </trkpt>
      <trkpt lat="47.54777" lon="6.73461">
        <ele>423.8</ele>
        <time>2014-11-09T09:41:19.000Z</time>
      </trkpt>
      <trkpt lat="47.54779" lon="6.7346">
        <ele>425.2</ele>
        <time>2014-11-09T09:41:20.000Z</time>
      </trkpt>
      <trkpt lat="47.54782" lon="6.73459">
        <ele>426.8</ele>
        <time>2014-11-09T09:41:21.000Z</time>
      </trkpt>
      <trkpt lat="47.54785" lon="6.73458">
        <ele>425.9</ele>
        <time>2014-11-09T09:41:22.000Z</time>
      </trkpt>
      <trkpt lat="47.54788" lon="6.73457">
        <ele>425.8</ele>
        <time>2014-11-09T09:41:23.000Z</time>
      </trkpt>
      <trkpt lat="47.5479" lon="6.73454">
        <ele>424.3</ele>
        <time>2014-11-09T09:41:24.000Z</time>
      </trkpt>
      <trkpt lat="47.54793" lon="6.73451">
        <ele>424.3</ele>
        <time>2014-11-09T09:41:25.000Z</time>
      </trkpt>
      <trkpt lat="47.54796" lon="6.73447">
        <ele>423.9</ele>
        <time>2014-11-09T09:41:26.000Z</time>
      </trkpt>
      <trkpt lat="47.54798" lon="6.73443">
        <ele>423.5</ele>
        <time>2014-11-09T09:41:27.000Z</time>
      </trkpt>
      <trkpt lat="47.54801" lon="6.73439">
        <ele>422.6</ele>
        <time>2014-11-09T09:41:28.000Z</time>
      </trkpt>
      <trkpt lat="47.54803" lon="6.73435">
        <ele>421.9</ele>
        <time>2014-11-09T09:41:29.000Z</time>
      </trkpt>
      <trkpt lat="47.54804" lon="6.73432">
        <ele>421.6</ele>
        <time>2014-11-09T09:41:30.000Z</time>
      </trkpt>
      <trkpt lat="47.54806" lon="6.73429">
        <ele>421.4</ele>
        <time>2014-11-09T09:41:31.000Z</time>
      </trkpt>
      <trkpt lat="47.54807" lon="6.73426">
        <ele>421.1</ele>
        <time>2014-11-09T09:41:32.000Z</time>
      </trkpt>
      <trkpt lat="47.54808" lon="6.73421">
        <ele>421.2</ele>
        <time>2014-11-09T09:41:43.000Z</time>
      </trkpt>
      <trkpt lat="47.54808" lon="6.73418">
        <ele>421.1</ele>
        <time>2014-11-09T09:41:44.000Z</time>
      </trkpt>
      <trkpt lat="47.54809" lon="6.73412">
        <ele>421.3</ele>
        <time>2014-11-09T09:41:47.000Z</time>
      </trkpt>
      <trkpt lat="47.54809" lon="6.7341">
        <ele>422</ele>
        <time>2014-11-09T09:41:48.000Z</time>
      </trkpt>
      <trkpt lat="47.54808" lon="6.73405">
        <ele>422.3</ele>
        <time>2014-11-09T09:41:50.000Z</time>
      </trkpt>
      <trkpt lat="47.54807" lon="6.73402">
        <ele>423.2</ele>
        <time>2014-11-09T09:41:51.000Z</time>
      </trkpt>
      <trkpt lat="47.54806" lon="6.73396">
        <ele>423.4</ele>
        <time>2014-11-09T09:41:54.000Z</time>
      </trkpt>
      <trkpt lat="47.54806" lon="6.73394">
        <ele>424.1</ele>
        <time>2014-11-09T09:41:55.000Z</time>
      </trkpt>
      <trkpt lat="47.54805" lon="6.73392">
        <ele>423.9</ele>
        <time>2014-11-09T09:41:56.000Z</time>
      </trkpt>
      <trkpt lat="47.54803" lon="6.73376">
        <ele>426.9</ele>
        <time>2014-11-09T09:42:04.000Z</time>
      </trkpt>
      <trkpt lat="47.54803" lon="6.73372">
        <ele>427.1</ele>
        <time>2014-11-09T09:42:06.000Z</time>
      </trkpt>
      <trkpt lat="47.54803" lon="6.73369">
        <ele>426.8</ele>
        <time>2014-11-09T09:42:07.000Z</time>
      </trkpt>
      <trkpt lat="47.54803" lon="6.73365">
        <ele>427.3</ele>
        <time>2014-11-09T09:42:08.000Z</time>
      </trkpt>
      <trkpt lat="47.54803" lon="6.73362">
        <ele>428.2</ele>
        <time>2014-11-09T09:42:09.000Z</time>
      </trkpt>
      <trkpt lat="47.54803" lon="6.73358">
        <ele>428.3</ele>
        <time>2014-11-09T09:42:10.000Z</time>
      </trkpt>
      <trkpt lat="47.54803" lon="6.73355">
        <ele>429.4</ele>
        <time>2014-11-09T09:42:11.000Z</time>
      </trkpt>
      <trkpt lat="47.54803" lon="6.73351">
        <ele>430.5</ele>
        <time>2014-11-09T09:42:12.000Z</time>
      </trkpt>
      <trkpt lat="47.54803" lon="6.73348">
        <ele>431.1</ele>
        <time>2014-11-09T09:42:13.000Z</time>
      </trkpt>
      <trkpt lat="47.54803" lon="6.73341">
        <ele>432</ele>
        <time>2014-11-09T09:42:15.000Z</time>
      </trkpt>
      <trkpt lat="47.54803" lon="6.73338">
        <ele>431.8</ele>
        <time>2014-11-09T09:42:16.000Z</time>
      </trkpt>
      <trkpt lat="47.54803" lon="6.73332">
        <ele>432.5</ele>
        <time>2014-11-09T09:42:18.000Z</time>
      </trkpt>
      <trkpt lat="47.54802" lon="6.73329">
        <ele>432.4</ele>
        <time>2014-11-09T09:42:19.000Z</time>
      </trkpt>
      <trkpt lat="47.54801" lon="6.73323">
        <ele>432.6</ele>
        <time>2014-11-09T09:42:21.000Z</time>
      </trkpt>
      <trkpt lat="47.54801" lon="6.73319">
        <ele>433.5</ele>
        <time>2014-11-09T09:42:22.000Z</time>
      </trkpt>
      <trkpt lat="47.548" lon="6.73313">
        <ele>434</ele>
        <time>2014-11-09T09:42:24.000Z</time>
      </trkpt>
      <trkpt lat="47.548" lon="6.7331">
        <ele>435.5</ele>
        <time>2014-11-09T09:42:25.000Z</time>
      </trkpt>
      <trkpt lat="47.548" lon="6.73304">
        <ele>436.8</ele>
        <time>2014-11-09T09:42:27.000Z</time>
      </trkpt>
      <trkpt lat="47.548" lon="6.73301">
        <ele>436.8</ele>
        <time>2014-11-09T09:42:28.000Z</time>
      </trkpt>
      <trkpt lat="47.54799" lon="6.73297">
        <ele>437.1</ele>
        <time>2014-11-09T09:42:29.000Z</time>
      </trkpt>
      <trkpt lat="47.54799" lon="6.73294">
        <ele>437.5</ele>
        <time>2014-11-09T09:42:30.000Z</time>
      </trkpt>
      <trkpt lat="47.54798" lon="6.73288">
        <ele>438.8</ele>
        <time>2014-11-09T09:42:32.000Z</time>
      </trkpt>
      <trkpt lat="47.54797" lon="6.73285">
        <ele>438.8</ele>
        <time>2014-11-09T09:42:33.000Z</time>
      </trkpt>
      <trkpt lat="47.54796" lon="6.73279">
        <ele>439.6</ele>
        <time>2014-11-09T09:42:35.000Z</time>
      </trkpt>
      <trkpt lat="47.54795" lon="6.73276">
        <ele>439.9</ele>
        <time>2014-11-09T09:42:36.000Z</time>
      </trkpt>
      <trkpt lat="47.54793" lon="6.73271">
        <ele>439.8</ele>
        <time>2014-11-09T09:42:38.000Z</time>
      </trkpt>
      <trkpt lat="47.54792" lon="6.73269">
        <ele>440.6</ele>
        <time>2014-11-09T09:42:39.000Z</time>
      </trkpt>
      <trkpt lat="47.54791" lon="6.73263">
        <ele>441.2</ele>
        <time>2014-11-09T09:42:41.000Z</time>
      </trkpt>
      <trkpt lat="47.5479" lon="6.7326">
        <ele>441.8</ele>
        <time>2014-11-09T09:42:42.000Z</time>
      </trkpt>
      <trkpt lat="47.54789" lon="6.73257">
        <ele>441</ele>
        <time>2014-11-09T09:42:43.000Z</time>
      </trkpt>
      <trkpt lat="47.54788" lon="6.73254">
        <ele>440</ele>
        <time>2014-11-09T09:42:44.000Z</time>
      </trkpt>
      <trkpt lat="47.54786" lon="6.73251">
        <ele>440.5</ele>
        <time>2014-11-09T09:42:45.000Z</time>
      </trkpt>
      <trkpt lat="47.54785" lon="6.73248">
        <ele>440.5</ele>
        <time>2014-11-09T09:42:46.000Z</time>
      </trkpt>
      <trkpt lat="47.54783" lon="6.73243">
        <ele>441.6</ele>
        <time>2014-11-09T09:42:48.000Z</time>
      </trkpt>
      <trkpt lat="47.54782" lon="6.7324">
        <ele>442</ele>
        <time>2014-11-09T09:42:49.000Z</time>
      </trkpt>
      <trkpt lat="47.54781" lon="6.73236">
        <ele>441</ele>
        <time>2014-11-09T09:42:51.000Z</time>
      </trkpt>
      <trkpt lat="47.5478" lon="6.73233">
        <ele>440.9</ele>
        <time>2014-11-09T09:42:52.000Z</time>
      </trkpt>
      <trkpt lat="47.54778" lon="6.73228">
        <ele>440.6</ele>
        <time>2014-11-09T09:42:54.000Z</time>
      </trkpt>
      <trkpt lat="47.54777" lon="6.73226">
        <ele>440.4</ele>
        <time>2014-11-09T09:42:55.000Z</time>
      </trkpt>
      <trkpt lat="47.54775" lon="6.73223">
        <ele>439.4</ele>
        <time>2014-11-09T09:42:56.000Z</time>
      </trkpt>
      <trkpt lat="47.5477" lon="6.73207">
        <ele>442.5</ele>
        <time>2014-11-09T09:43:04.000Z</time>
      </trkpt>
      <trkpt lat="47.54768" lon="6.73203">
        <ele>442.8</ele>
        <time>2014-11-09T09:43:06.000Z</time>
      </trkpt>
      <trkpt lat="47.54766" lon="6.732">
        <ele>443.4</ele>
        <time>2014-11-09T09:43:07.000Z</time>
      </trkpt>
      <trkpt lat="47.54765" lon="6.73196">
        <ele>444.3</ele>
        <time>2014-11-09T09:43:08.000Z</time>
      </trkpt>
      <trkpt lat="47.54764" lon="6.73193">
        <ele>443.8</ele>
        <time>2014-11-09T09:43:09.000Z</time>
      </trkpt>
      <trkpt lat="47.54763" lon="6.7319">
        <ele>443.6</ele>
        <time>2014-11-09T09:43:10.000Z</time>
      </trkpt>
      <trkpt lat="47.54762" lon="6.73187">
        <ele>443.4</ele>
        <time>2014-11-09T09:43:11.000Z</time>
      </trkpt>
      <trkpt lat="47.5476" lon="6.73182">
        <ele>442.1</ele>
        <time>2014-11-09T09:43:13.000Z</time>
      </trkpt>
      <trkpt lat="47.54758" lon="6.73179">
        <ele>442.2</ele>
        <time>2014-11-09T09:43:14.000Z</time>
      </trkpt>
      <trkpt lat="47.54756" lon="6.73175">
        <ele>441.3</ele>
        <time>2014-11-09T09:43:16.000Z</time>
      </trkpt>
      <trkpt lat="47.54755" lon="6.73173">
        <ele>441.3</ele>
        <time>2014-11-09T09:43:17.000Z</time>
      </trkpt>
      <trkpt lat="47.54753" lon="6.73168">
        <ele>441.3</ele>
        <time>2014-11-09T09:43:19.000Z</time>
      </trkpt>
      <trkpt lat="47.54752" lon="6.73165">
        <ele>441</ele>
        <time>2014-11-09T09:43:20.000Z</time>
      </trkpt>
      <trkpt lat="47.5475" lon="6.73158">
        <ele>441.3</ele>
        <time>2014-11-09T09:43:22.000Z</time>
      </trkpt>
      <trkpt lat="47.54749" lon="6.73155">
        <ele>440.9</ele>
        <time>2014-11-09T09:43:23.000Z</time>
      </trkpt>
      <trkpt lat="47.54747" lon="6.7315">
        <ele>442</ele>
        <time>2014-11-09T09:43:25.000Z</time>
      </trkpt>
      <trkpt lat="47.54747" lon="6.73148">
        <ele>441.8</ele>
        <time>2014-11-09T09:43:26.000Z</time>
      </trkpt>
      <trkpt lat="47.54746" lon="6.73143">
        <ele>443.6</ele>
        <time>2014-11-09T09:43:28.000Z</time>
      </trkpt>
      <trkpt lat="47.54745" lon="6.73141">
        <ele>443.8</ele>
        <time>2014-11-09T09:43:29.000Z</time>
      </trkpt>
      <trkpt lat="47.54745" lon="6.73137">
        <ele>445.5</ele>
        <time>2014-11-09T09:43:31.000Z</time>
      </trkpt>
      <trkpt lat="47.54744" lon="6.73134">
        <ele>445.6</ele>
        <time>2014-11-09T09:43:32.000Z</time>
      </trkpt>
      <trkpt lat="47.54743" lon="6.73128">
        <ele>446.6</ele>
        <time>2014-11-09T09:43:34.000Z</time>
      </trkpt>
      <trkpt lat="47.54742" lon="6.73124">
        <ele>447.7</ele>
        <time>2014-11-09T09:43:35.000Z</time>
      </trkpt>
      <trkpt lat="47.54742" lon="6.73118">
        <ele>448.9</ele>
        <time>2014-11-09T09:43:37.000Z</time>
      </trkpt>
      <trkpt lat="47.54741" lon="6.73115">
        <ele>448.4</ele>
        <time>2014-11-09T09:43:38.000Z</time>
      </trkpt>
      <trkpt lat="47.54738" lon="6.73111">
        <ele>446.1</ele>
        <time>2014-11-09T09:43:41.000Z</time>
      </trkpt>
      <trkpt lat="47.54738" lon="6.7311">
        <ele>446</ele>
        <time>2014-11-09T09:43:42.000Z</time>
      </trkpt>
      <trkpt lat="47.54742" lon="6.73108">
        <ele>445.6</ele>
        <time>2014-11-09T09:43:46.000Z</time>
      </trkpt>
      <trkpt lat="47.54744" lon="6.73109">
        <ele>446.1</ele>
        <time>2014-11-09T09:43:47.000Z</time>
      </trkpt>
      <trkpt lat="47.54747" lon="6.7311">
        <ele>445.8</ele>
        <time>2014-11-09T09:43:49.000Z</time>
      </trkpt>
      <trkpt lat="47.54749" lon="6.7311">
        <ele>445.8</ele>
        <time>2014-11-09T09:43:50.000Z</time>
      </trkpt>
      <trkpt lat="47.54751" lon="6.73112">
        <ele>445.4</ele>
        <time>2014-11-09T09:43:51.000Z</time>
      </trkpt>
      <trkpt lat="47.54753" lon="6.73113">
        <ele>444.2</ele>
        <time>2014-11-09T09:43:52.000Z</time>
      </trkpt>
      <trkpt lat="47.54756" lon="6.73115">
        <ele>444.2</ele>
        <time>2014-11-09T09:43:53.000Z</time>
      </trkpt>
      <trkpt lat="47.54759" lon="6.73117">
        <ele>444.9</ele>
        <time>2014-11-09T09:43:54.000Z</time>
      </trkpt>
      <trkpt lat="47.54759" lon="6.73117">
        <ele>442.4</ele>
        <time>2014-11-09T09:43:55.000Z</time>
      </trkpt>
      <trkpt lat="47.54763" lon="6.73119">
        <ele>441.6</ele>
        <time>2014-11-09T09:43:56.000Z</time>
      </trkpt>
      <trkpt lat="47.54792" lon="6.7314">
        <ele>440.2</ele>
        <time>2014-11-09T09:44:04.000Z</time>
      </trkpt>
      <trkpt lat="47.548" lon="6.73141">
        <ele>438.6</ele>
        <time>2014-11-09T09:44:05.000Z</time>
      </trkpt>
      <trkpt lat="47.54805" lon="6.73142">
        <ele>435.9</ele>
        <time>2014-11-09T09:44:06.000Z</time>
      </trkpt>
      <trkpt lat="47.5481" lon="6.73144">
        <ele>435.1</ele>
        <time>2014-11-09T09:44:07.000Z</time>
      </trkpt>
      <trkpt lat="47.54815" lon="6.73146">
        <ele>432.9</ele>
        <time>2014-11-09T09:44:08.000Z</time>
      </trkpt>
      <trkpt lat="47.54821" lon="6.73148">
        <ele>432.6</ele>
        <time>2014-11-09T09:44:09.001Z</time>
      </trkpt>
      <trkpt lat="47.54826" lon="6.73149">
        <ele>429.4</ele>
        <time>2014-11-09T09:44:10.000Z</time>
      </trkpt>
      <trkpt lat="47.54832" lon="6.73149">
        <ele>428.3</ele>
        <time>2014-11-09T09:44:11.000Z</time>
      </trkpt>
      <trkpt lat="47.54839" lon="6.7315">
        <ele>426</ele>
        <time>2014-11-09T09:44:12.000Z</time>
      </trkpt>
      <trkpt lat="47.54845" lon="6.73152">
        <ele>423.1</ele>
        <time>2014-11-09T09:44:13.000Z</time>
      </trkpt>
      <trkpt lat="47.54853" lon="6.73153">
        <ele>421.7</ele>
        <time>2014-11-09T09:44:14.000Z</time>
      </trkpt>
      <trkpt lat="47.54859" lon="6.73153">
        <ele>420</ele>
        <time>2014-11-09T09:44:15.000Z</time>
      </trkpt>
      <trkpt lat="47.54866" lon="6.73153">
        <ele>418.9</ele>
        <time>2014-11-09T09:44:16.000Z</time>
      </trkpt>
      <trkpt lat="47.54872" lon="6.73153">
        <ele>416.8</ele>
        <time>2014-11-09T09:44:17.000Z</time>
      </trkpt>
      <trkpt lat="47.54879" lon="6.73155">
        <ele>416.3</ele>
        <time>2014-11-09T09:44:18.000Z</time>
      </trkpt>
      <trkpt lat="47.54887" lon="6.73156">
        <ele>416.3</ele>
        <time>2014-11-09T09:44:19.000Z</time>
      </trkpt>
      <trkpt lat="47.54894" lon="6.73157">
        <ele>414.5</ele>
        <time>2014-11-09T09:44:20.000Z</time>
      </trkpt>
      <trkpt lat="47.54901" lon="6.7316">
        <ele>413.1</ele>
        <time>2014-11-09T09:44:21.000Z</time>
      </trkpt>
      <trkpt lat="47.54908" lon="6.73162">
        <ele>412.4</ele>
        <time>2014-11-09T09:44:21.999Z</time>
      </trkpt>
      <trkpt lat="47.54914" lon="6.73164">
        <ele>409</ele>
        <time>2014-11-09T09:44:23.000Z</time>
      </trkpt>
      <trkpt lat="47.5492" lon="6.73166">
        <ele>407.9</ele>
        <time>2014-11-09T09:44:24.000Z</time>
      </trkpt>
      <trkpt lat="47.54924" lon="6.73174">
        <ele>407.1</ele>
        <time>2014-11-09T09:44:25.000Z</time>
      </trkpt>
      <trkpt lat="47.54929" lon="6.73181">
        <ele>406.1</ele>
        <time>2014-11-09T09:44:26.000Z</time>
      </trkpt>
      <trkpt lat="47.54934" lon="6.73186">
        <ele>405.8</ele>
        <time>2014-11-09T09:44:27.000Z</time>
      </trkpt>
      <trkpt lat="47.5494" lon="6.73192">
        <ele>405.2</ele>
        <time>2014-11-09T09:44:28.000Z</time>
      </trkpt>
      <trkpt lat="47.54945" lon="6.73198">
        <ele>405.2</ele>
        <time>2014-11-09T09:44:29.000Z</time>
      </trkpt>
      <trkpt lat="47.54951" lon="6.73203">
        <ele>403.4</ele>
        <time>2014-11-09T09:44:30.000Z</time>
      </trkpt>
      <trkpt lat="47.54958" lon="6.73208">
        <ele>402.4</ele>
        <time>2014-11-09T09:44:31.000Z</time>
      </trkpt>
      <trkpt lat="47.54963" lon="6.73215">
        <ele>401.1</ele>
        <time>2014-11-09T09:44:32.000Z</time>
      </trkpt>
      <trkpt lat="47.54967" lon="6.73224">
        <ele>399.7</ele>
        <time>2014-11-09T09:44:33.000Z</time>
      </trkpt>
      <trkpt lat="47.5497" lon="6.73234">
        <ele>398.8</ele>
        <time>2014-11-09T09:44:34.000Z</time>
      </trkpt>
      <trkpt lat="47.54972" lon="6.73242">
        <ele>398</ele>
        <time>2014-11-09T09:44:35.000Z</time>
      </trkpt>
      <trkpt lat="47.54974" lon="6.7325">
        <ele>397.3</ele>
        <time>2014-11-09T09:44:36.000Z</time>
      </trkpt>
      <trkpt lat="47.54976" lon="6.73257">
        <ele>397.1</ele>
        <time>2014-11-09T09:44:37.000Z</time>
      </trkpt>
      <trkpt lat="47.54978" lon="6.73261">
        <ele>393.7</ele>
        <time>2014-11-09T09:44:38.000Z</time>
      </trkpt>
      <trkpt lat="47.5498" lon="6.73264">
        <ele>393.4</ele>
        <time>2014-11-09T09:44:39.000Z</time>
      </trkpt>
      <trkpt lat="47.54983" lon="6.7327">
        <ele>392.5</ele>
        <time>2014-11-09T09:44:41.000Z</time>
      </trkpt>
      <trkpt lat="47.54983" lon="6.7327">
        <ele>392.6</ele>
        <time>2014-11-09T09:44:42.000Z</time>
      </trkpt>
      <trkpt lat="47.54986" lon="6.73273">
        <ele>391.2</ele>
        <time>2014-11-09T09:44:47.000Z</time>
      </trkpt>
      <trkpt lat="47.54987" lon="6.73272">
        <ele>391.2</ele>
        <time>2014-11-09T09:44:48.000Z</time>
      </trkpt>
      <trkpt lat="47.54989" lon="6.7327">
        <ele>393.2</ele>
        <time>2014-11-09T09:44:50.000Z</time>
      </trkpt>
      <trkpt lat="47.54991" lon="6.73268">
        <ele>393.9</ele>
        <time>2014-11-09T09:44:51.000Z</time>
      </trkpt>
      <trkpt lat="47.54992" lon="6.73266">
        <ele>393.2</ele>
        <time>2014-11-09T09:44:52.000Z</time>
      </trkpt>
      <trkpt lat="47.54994" lon="6.73264">
        <ele>392.4</ele>
        <time>2014-11-09T09:44:53.000Z</time>
      </trkpt>
      <trkpt lat="47.54996" lon="6.73262">
        <ele>392</ele>
        <time>2014-11-09T09:44:54.000Z</time>
      </trkpt>
      <trkpt lat="47.54999" lon="6.73259">
        <ele>396.2</ele>
        <time>2014-11-09T09:44:55.000Z</time>
      </trkpt>
      <trkpt lat="47.55002" lon="6.73256">
        <ele>397.3</ele>
        <time>2014-11-09T09:44:56.000Z</time>
      </trkpt>
      <trkpt lat="47.55031" lon="6.73257">
        <ele>404.2</ele>
        <time>2014-11-09T09:45:04.000Z</time>
      </trkpt>
      <trkpt lat="47.55034" lon="6.73257">
        <ele>403.5</ele>
        <time>2014-11-09T09:45:05.000Z</time>
      </trkpt>
      <trkpt lat="47.55038" lon="6.73256">
        <ele>401.4</ele>
        <time>2014-11-09T09:45:06.000Z</time>
      </trkpt>
      <trkpt lat="47.55042" lon="6.73254">
        <ele>401.3</ele>
        <time>2014-11-09T09:45:07.000Z</time>
      </trkpt>
      <trkpt lat="47.55046" lon="6.73252">
        <ele>400.9</ele>
        <time>2014-11-09T09:45:08.000Z</time>
      </trkpt>
      <trkpt lat="47.55049" lon="6.7325">
        <ele>400.3</ele>
        <time>2014-11-09T09:45:09.000Z</time>
      </trkpt>
      <trkpt lat="47.5505" lon="6.73248">
        <ele>405.3</ele>
        <time>2014-11-09T09:45:10.000Z</time>
      </trkpt>
      <trkpt lat="47.55052" lon="6.73242">
        <ele>404.8</ele>
        <time>2014-11-09T09:45:12.000Z</time>
      </trkpt>
      <trkpt lat="47.55052" lon="6.7324">
        <ele>405.2</ele>
        <time>2014-11-09T09:45:13.000Z</time>
      </trkpt>
      <trkpt lat="47.55056" lon="6.73238">
        <ele>402.8</ele>
        <time>2014-11-09T09:45:17.000Z</time>
      </trkpt>
      <trkpt lat="47.55058" lon="6.73239">
        <ele>402.3</ele>
        <time>2014-11-09T09:45:18.000Z</time>
      </trkpt>
      <trkpt lat="47.55061" lon="6.73243">
        <ele>404.8</ele>
        <time>2014-11-09T09:45:21.000Z</time>
      </trkpt>
      <trkpt lat="47.55061" lon="6.73245">
        <ele>406.1</ele>
        <time>2014-11-09T09:45:22.000Z</time>
      </trkpt>
      <trkpt lat="47.55059" lon="6.73251">
        <ele>405.4</ele>
        <time>2014-11-09T09:45:25.000Z</time>
      </trkpt>
      <trkpt lat="47.55058" lon="6.73254">
        <ele>405.1</ele>
        <time>2014-11-09T09:45:26.000Z</time>
      </trkpt>
      <trkpt lat="47.55057" lon="6.73257">
        <ele>405.3</ele>
        <time>2014-11-09T09:45:27.000Z</time>
      </trkpt>
      <trkpt lat="47.55055" lon="6.7326">
        <ele>405.6</ele>
        <time>2014-11-09T09:45:28.000Z</time>
      </trkpt>
      <trkpt lat="47.55054" lon="6.73263">
        <ele>406.4</ele>
        <time>2014-11-09T09:45:29.000Z</time>
      </trkpt>
      <trkpt lat="47.55053" lon="6.73266">
        <ele>405.1</ele>
        <time>2014-11-09T09:45:30.000Z</time>
      </trkpt>
      <trkpt lat="47.55052" lon="6.73269">
        <ele>404.8</ele>
        <time>2014-11-09T09:45:31.000Z</time>
      </trkpt>
      <trkpt lat="47.55051" lon="6.73272">
        <ele>405.2</ele>
        <time>2014-11-09T09:45:32.000Z</time>
      </trkpt>
      <trkpt lat="47.55049" lon="6.73277">
        <ele>405</ele>
        <time>2014-11-09T09:45:34.000Z</time>
      </trkpt>
      <trkpt lat="47.55048" lon="6.73279">
        <ele>404.5</ele>
        <time>2014-11-09T09:45:35.000Z</time>
      </trkpt>
      <trkpt lat="47.55045" lon="6.73284">
        <ele>404.2</ele>
        <time>2014-11-09T09:45:37.000Z</time>
      </trkpt>
      <trkpt lat="47.55043" lon="6.73286">
        <ele>403.6</ele>
        <time>2014-11-09T09:45:38.000Z</time>
      </trkpt>
      <trkpt lat="47.5504" lon="6.7329">
        <ele>401.9</ele>
        <time>2014-11-09T09:45:40.000Z</time>
      </trkpt>
      <trkpt lat="47.55039" lon="6.73292">
        <ele>401.7</ele>
        <time>2014-11-09T09:45:41.000Z</time>
      </trkpt>
      <trkpt lat="47.55035" lon="6.73294">
        <ele>403.2</ele>
        <time>2014-11-09T09:45:43.000Z</time>
      </trkpt>
      <trkpt lat="47.55034" lon="6.73296">
        <ele>403.5</ele>
        <time>2014-11-09T09:45:44.000Z</time>
      </trkpt>
      <trkpt lat="47.5503" lon="6.733">
        <ele>403.2</ele>
        <time>2014-11-09T09:45:46.000Z</time>
      </trkpt>
      <trkpt lat="47.55028" lon="6.73302">
        <ele>403.9</ele>
        <time>2014-11-09T09:45:46.998Z</time>
      </trkpt>
      <trkpt lat="47.55027" lon="6.73305">
        <ele>402.9</ele>
        <time>2014-11-09T09:45:48.000Z</time>
      </trkpt>
      <trkpt lat="47.55025" lon="6.73307">
        <ele>403.6</ele>
        <time>2014-11-09T09:45:49.000Z</time>
      </trkpt>
      <trkpt lat="47.55024" lon="6.7331">
        <ele>403.6</ele>
        <time>2014-11-09T09:45:50.000Z</time>
      </trkpt>
      <trkpt lat="47.55022" lon="6.73312">
        <ele>403.2</ele>
        <time>2014-11-09T09:45:51.000Z</time>
      </trkpt>
      <trkpt lat="47.55021" lon="6.73315">
        <ele>402.8</ele>
        <time>2014-11-09T09:45:52.000Z</time>
      </trkpt>
      <trkpt lat="47.5502" lon="6.73318">
        <ele>402.9</ele>
        <time>2014-11-09T09:45:53.000Z</time>
      </trkpt>
      <trkpt lat="47.55018" lon="6.73324">
        <ele>403.3</ele>
        <time>2014-11-09T09:45:55.000Z</time>
      </trkpt>
      <trkpt lat="47.55018" lon="6.73326">
        <ele>405</ele>
        <time>2014-11-09T09:45:56.000Z</time>
      </trkpt>
      <trkpt lat="47.55017" lon="6.73332">
        <ele>406.9</ele>
        <time>2014-11-09T09:45:59.000Z</time>
      </trkpt>
      <trkpt lat="47.55018" lon="6.73338">
        <ele>406.4</ele>
        <time>2014-11-09T09:46:01.000Z</time>
      </trkpt>
      <trkpt lat="47.55019" lon="6.73342">
        <ele>406.1</ele>
        <time>2014-11-09T09:46:02.000Z</time>
      </trkpt>
      <trkpt lat="47.55021" lon="6.73345">
        <ele>405.7</ele>
        <time>2014-11-09T09:46:03.000Z</time>
      </trkpt>
      <trkpt lat="47.55023" lon="6.73348">
        <ele>406.1</ele>
        <time>2014-11-09T09:46:04.000Z</time>
      </trkpt>
      <trkpt lat="47.55025" lon="6.7335">
        <ele>406.1</ele>
        <time>2014-11-09T09:46:05.000Z</time>
      </trkpt>
      <trkpt lat="47.55027" lon="6.73353">
        <ele>405.4</ele>
        <time>2014-11-09T09:46:06.000Z</time>
      </trkpt>
      <trkpt lat="47.5503" lon="6.73356">
        <ele>407.1</ele>
        <time>2014-11-09T09:46:08.000Z</time>
      </trkpt>
      <trkpt lat="47.55032" lon="6.73358">
        <ele>405.5</ele>
        <time>2014-11-09T09:46:09.000Z</time>
      </trkpt>
      <trkpt lat="47.55036" lon="6.73361">
        <ele>405.3</ele>
        <time>2014-11-09T09:46:11.001Z</time>
      </trkpt>
      <trkpt lat="47.55037" lon="6.73364">
        <ele>404.3</ele>
        <time>2014-11-09T09:46:12.000Z</time>
      </trkpt>
      <trkpt lat="47.5504" lon="6.73368">
        <ele>404</ele>
        <time>2014-11-09T09:46:14.000Z</time>
      </trkpt>
      <trkpt lat="47.55042" lon="6.7337">
        <ele>403.7</ele>
        <time>2014-11-09T09:46:15.000Z</time>
      </trkpt>
      <trkpt lat="47.55045" lon="6.73374">
        <ele>403.4</ele>
        <time>2014-11-09T09:46:17.000Z</time>
      </trkpt>
      <trkpt lat="47.55047" lon="6.73376">
        <ele>403.4</ele>
        <time>2014-11-09T09:46:18.000Z</time>
      </trkpt>
      <trkpt lat="47.5505" lon="6.73381">
        <ele>403.6</ele>
        <time>2014-11-09T09:46:20.000Z</time>
      </trkpt>
      <trkpt lat="47.55051" lon="6.73383">
        <ele>403.4</ele>
        <time>2014-11-09T09:46:21.000Z</time>
      </trkpt>
      <trkpt lat="47.55053" lon="6.73386">
        <ele>402.9</ele>
        <time>2014-11-09T09:46:22.000Z</time>
      </trkpt>
      <trkpt lat="47.55054" lon="6.73388">
        <ele>402.8</ele>
        <time>2014-11-09T09:46:23.000Z</time>
      </trkpt>
      <trkpt lat="47.55056" lon="6.73391">
        <ele>404</ele>
        <time>2014-11-09T09:46:24.000Z</time>
      </trkpt>
      <trkpt lat="47.55058" lon="6.73393">
        <ele>403.1</ele>
        <time>2014-11-09T09:46:25.000Z</time>
      </trkpt>
      <trkpt lat="47.55061" lon="6.73397">
        <ele>402.9</ele>
        <time>2014-11-09T09:46:27.000Z</time>
      </trkpt>
      <trkpt lat="47.55062" lon="6.73399">
        <ele>403.1</ele>
        <time>2014-11-09T09:46:28.000Z</time>
      </trkpt>
      <trkpt lat="47.55065" lon="6.73403">
        <ele>403.6</ele>
        <time>2014-11-09T09:46:30.000Z</time>
      </trkpt>
      <trkpt lat="47.55067" lon="6.73405">
        <ele>403.8</ele>
        <time>2014-11-09T09:46:31.000Z</time>
      </trkpt>
      <trkpt lat="47.5507" lon="6.73409">
        <ele>405.1</ele>
        <time>2014-11-09T09:46:33.000Z</time>
      </trkpt>
      <trkpt lat="47.55071" lon="6.73411">
        <ele>405.6</ele>
        <time>2014-11-09T09:46:34.000Z</time>
      </trkpt>
      <trkpt lat="47.55074" lon="6.73414">
        <ele>406.6</ele>
        <time>2014-11-09T09:46:36.000Z</time>
      </trkpt>
      <trkpt lat="47.55075" lon="6.73415">
        <ele>407.4</ele>
        <time>2014-11-09T09:46:37.000Z</time>
      </trkpt>
      <trkpt lat="47.55078" lon="6.73419">
        <ele>407.8</ele>
        <time>2014-11-09T09:46:39.000Z</time>
      </trkpt>
      <trkpt lat="47.55079" lon="6.7342">
        <ele>408.9</ele>
        <time>2014-11-09T09:46:40.000Z</time>
      </trkpt>
      <trkpt lat="47.55082" lon="6.73424">
        <ele>408.8</ele>
        <time>2014-11-09T09:46:42.000Z</time>
      </trkpt>
      <trkpt lat="47.55083" lon="6.73426">
        <ele>408.7</ele>
        <time>2014-11-09T09:46:43.000Z</time>
      </trkpt>
      <trkpt lat="47.55086" lon="6.7343">
        <ele>407.7</ele>
        <time>2014-11-09T09:46:45.000Z</time>
      </trkpt>
      <trkpt lat="47.55087" lon="6.73433">
        <ele>407.7</ele>
        <time>2014-11-09T09:46:46.000Z</time>
      </trkpt>
      <trkpt lat="47.55089" lon="6.73435">
        <ele>407.6</ele>
        <time>2014-11-09T09:46:47.000Z</time>
      </trkpt>
      <trkpt lat="47.55091" lon="6.73438">
        <ele>408</ele>
        <time>2014-11-09T09:46:48.000Z</time>
      </trkpt>
      <trkpt lat="47.55092" lon="6.73441">
        <ele>408</ele>
        <time>2014-11-09T09:46:49.000Z</time>
      </trkpt>
      <trkpt lat="47.55094" lon="6.73444">
        <ele>407.8</ele>
        <time>2014-11-09T09:46:50.000Z</time>
      </trkpt>
      <trkpt lat="47.55096" lon="6.73449">
        <ele>408.3</ele>
        <time>2014-11-09T09:46:52.000Z</time>
      </trkpt>
      <trkpt lat="47.55098" lon="6.73451">
        <ele>408.3</ele>
        <time>2014-11-09T09:46:53.000Z</time>
      </trkpt>
      <trkpt lat="47.55101" lon="6.73455">
        <ele>408.9</ele>
        <time>2014-11-09T09:46:55.000Z</time>
      </trkpt>
      <trkpt lat="47.55103" lon="6.73457">
        <ele>409.1</ele>
        <time>2014-11-09T09:46:56.000Z</time>
      </trkpt>
      <trkpt lat="47.55105" lon="6.73459">
        <ele>409.6</ele>
        <time>2014-11-09T09:46:57.000Z</time>
      </trkpt>
      <trkpt lat="47.5511" lon="6.73466">
        <ele>411.3</ele>
        <time>2014-11-09T09:47:00.000Z</time>
      </trkpt>
      <trkpt lat="47.55112" lon="6.73468">
        <ele>411.2</ele>
        <time>2014-11-09T09:47:01.000Z</time>
      </trkpt>
      <trkpt lat="47.55114" lon="6.7347">
        <ele>411.6</ele>
        <time>2014-11-09T09:47:02.000Z</time>
      </trkpt>
      <trkpt lat="47.55117" lon="6.73471">
        <ele>410.5</ele>
        <time>2014-11-09T09:47:03.000Z</time>
      </trkpt>
      <trkpt lat="47.5512" lon="6.73472">
        <ele>410.1</ele>
        <time>2014-11-09T09:47:04.000Z</time>
      </trkpt>
      <trkpt lat="47.55123" lon="6.73473">
        <ele>409.6</ele>
        <time>2014-11-09T09:47:05.000Z</time>
      </trkpt>
      <trkpt lat="47.55126" lon="6.73473">
        <ele>409.5</ele>
        <time>2014-11-09T09:47:06.000Z</time>
      </trkpt>
      <trkpt lat="47.5513" lon="6.73474">
        <ele>409.9</ele>
        <time>2014-11-09T09:47:07.000Z</time>
      </trkpt>
      <trkpt lat="47.55133" lon="6.73474">
        <ele>409.8</ele>
        <time>2014-11-09T09:47:08.000Z</time>
      </trkpt>
      <trkpt lat="47.55136" lon="6.73476">
        <ele>409.4</ele>
        <time>2014-11-09T09:47:10.000Z</time>
      </trkpt>
      <trkpt lat="47.55137" lon="6.73478">
        <ele>409.9</ele>
        <time>2014-11-09T09:47:11.000Z</time>
      </trkpt>
      <trkpt lat="47.55139" lon="6.73482">
        <ele>408.1</ele>
        <time>2014-11-09T09:47:29.000Z</time>
      </trkpt>
      <trkpt lat="47.55141" lon="6.73483">
        <ele>408</ele>
        <time>2014-11-09T09:47:30.000Z</time>
      </trkpt>
      <trkpt lat="47.55143" lon="6.73485">
        <ele>407.2</ele>
        <time>2014-11-09T09:47:32.000Z</time>
      </trkpt>
      <trkpt lat="47.55144" lon="6.73487">
        <ele>406.6</ele>
        <time>2014-11-09T09:47:33.000Z</time>
      </trkpt>
      <trkpt lat="47.55146" lon="6.73488">
        <ele>406.5</ele>
        <time>2014-11-09T09:47:34.000Z</time>
      </trkpt>
      <trkpt lat="47.55148" lon="6.7349">
        <ele>407.4</ele>
        <time>2014-11-09T09:47:35.000Z</time>
      </trkpt>
      <trkpt lat="47.5515" lon="6.73492">
        <ele>407.7</ele>
        <time>2014-11-09T09:47:36.000Z</time>
      </trkpt>
      <trkpt lat="47.55153" lon="6.73493">
        <ele>407.6</ele>
        <time>2014-11-09T09:47:37.000Z</time>
      </trkpt>
      <trkpt lat="47.55156" lon="6.73494">
        <ele>408.1</ele>
        <time>2014-11-09T09:47:38.000Z</time>
      </trkpt>
      <trkpt lat="47.55159" lon="6.73496">
        <ele>405.5</ele>
        <time>2014-11-09T09:47:39.000Z</time>
      </trkpt>
      <trkpt lat="47.55163" lon="6.73498">
        <ele>404.2</ele>
        <time>2014-11-09T09:47:40.000Z</time>
      </trkpt>
      <trkpt lat="47.55166" lon="6.73499">
        <ele>402.1</ele>
        <time>2014-11-09T09:47:41.000Z</time>
      </trkpt>
      <trkpt lat="47.5517" lon="6.73501">
        <ele>402.6</ele>
        <time>2014-11-09T09:47:42.000Z</time>
      </trkpt>
      <trkpt lat="47.55173" lon="6.73502">
        <ele>402.2</ele>
        <time>2014-11-09T09:47:43.000Z</time>
      </trkpt>
      <trkpt lat="47.55176" lon="6.73503">
        <ele>400.7</ele>
        <time>2014-11-09T09:47:44.000Z</time>
      </trkpt>
      <trkpt lat="47.55179" lon="6.73504">
        <ele>400.6</ele>
        <time>2014-11-09T09:47:45.000Z</time>
      </trkpt>
      <trkpt lat="47.55181" lon="6.73506">
        <ele>400.4</ele>
        <time>2014-11-09T09:47:46.000Z</time>
      </trkpt>
      <trkpt lat="47.55183" lon="6.73507">
        <ele>400.4</ele>
        <time>2014-11-09T09:47:47.000Z</time>
      </trkpt>
      <trkpt lat="47.55186" lon="6.73509">
        <ele>399.2</ele>
        <time>2014-11-09T09:48:36.000Z</time>
      </trkpt>
      <trkpt lat="47.55188" lon="6.7351">
        <ele>399.2</ele>
        <time>2014-11-09T09:48:37.000Z</time>
      </trkpt>
      <trkpt lat="47.55191" lon="6.73511">
        <ele>400.9</ele>
        <time>2014-11-09T09:48:39.000Z</time>
      </trkpt>
      <trkpt lat="47.55194" lon="6.73512">
        <ele>401.1</ele>
        <time>2014-11-09T09:48:40.000Z</time>
      </trkpt>
      <trkpt lat="47.55198" lon="6.73513">
        <ele>399.8</ele>
        <time>2014-11-09T09:48:42.000Z</time>
      </trkpt>
      <trkpt lat="47.552" lon="6.73513">
        <ele>400.2</ele>
        <time>2014-11-09T09:48:43.000Z</time>
      </trkpt>
      <trkpt lat="47.55202" lon="6.73514">
        <ele>400.7</ele>
        <time>2014-11-09T09:48:44.000Z</time>
      </trkpt>
      <trkpt lat="47.55204" lon="6.73516">
        <ele>401.6</ele>
        <time>2014-11-09T09:48:45.000Z</time>
      </trkpt>
      <trkpt lat="47.55207" lon="6.73518">
        <ele>403.2</ele>
        <time>2014-11-09T09:48:46.000Z</time>
      </trkpt>
      <trkpt lat="47.55209" lon="6.73519">
        <ele>404</ele>
        <time>2014-11-09T09:48:47.000Z</time>
      </trkpt>
      <trkpt lat="47.55213" lon="6.73521">
        <ele>404.2</ele>
        <time>2014-11-09T09:48:49.000Z</time>
      </trkpt>
      <trkpt lat="47.55214" lon="6.73521">
        <ele>404.1</ele>
        <time>2014-11-09T09:48:50.000Z</time>
      </trkpt>
      <trkpt lat="47.55218" lon="6.73521">
        <ele>404.5</ele>
        <time>2014-11-09T09:48:52.000Z</time>
      </trkpt>
      <trkpt lat="47.5522" lon="6.73521">
        <ele>404.5</ele>
        <time>2014-11-09T09:48:53.000Z</time>
      </trkpt>
      <trkpt lat="47.55222" lon="6.73522">
        <ele>403.3</ele>
        <time>2014-11-09T09:48:54.000Z</time>
      </trkpt>
      <trkpt lat="47.55224" lon="6.73524">
        <ele>403.8</ele>
        <time>2014-11-09T09:48:55.000Z</time>
      </trkpt>
      <trkpt lat="47.55227" lon="6.73525">
        <ele>404.2</ele>
        <time>2014-11-09T09:48:56.000Z</time>
      </trkpt>
      <trkpt lat="47.55232" lon="6.73529">
        <ele>405.1</ele>
        <time>2014-11-09T09:48:59.000Z</time>
      </trkpt>
      <trkpt lat="47.55234" lon="6.73531">
        <ele>405.7</ele>
        <time>2014-11-09T09:49:00.000Z</time>
      </trkpt>
      <trkpt lat="47.55236" lon="6.73534">
        <ele>405.1</ele>
        <time>2014-11-09T09:49:01.000Z</time>
      </trkpt>
      <trkpt lat="47.55237" lon="6.73537">
        <ele>405.9</ele>
        <time>2014-11-09T09:49:02.000Z</time>
      </trkpt>
      <trkpt lat="47.55239" lon="6.73539">
        <ele>406.4</ele>
        <time>2014-11-09T09:49:03.000Z</time>
      </trkpt>
      <trkpt lat="47.55242" lon="6.73543">
        <ele>406</ele>
        <time>2014-11-09T09:49:05.000Z</time>
      </trkpt>
      <trkpt lat="47.55244" lon="6.73544">
        <ele>405.9</ele>
        <time>2014-11-09T09:49:06.000Z</time>
      </trkpt>
      <trkpt lat="47.55247" lon="6.73548">
        <ele>405.9</ele>
        <time>2014-11-09T09:49:08.000Z</time>
      </trkpt>
      <trkpt lat="47.55249" lon="6.7355">
        <ele>405.7</ele>
        <time>2014-11-09T09:49:09.000Z</time>
      </trkpt>
      <trkpt lat="47.5525" lon="6.73552">
        <ele>405.3</ele>
        <time>2014-11-09T09:49:10.000Z</time>
      </trkpt>
      <trkpt lat="47.55252" lon="6.73554">
        <ele>405</ele>
        <time>2014-11-09T09:49:11.000Z</time>
      </trkpt>
      <trkpt lat="47.55255" lon="6.73555">
        <ele>405</ele>
        <time>2014-11-09T09:49:12.000Z</time>
      </trkpt>
      <trkpt lat="47.55257" lon="6.73557">
        <ele>405</ele>
        <time>2014-11-09T09:49:13.000Z</time>
      </trkpt>
      <trkpt lat="47.5526" lon="6.73559">
        <ele>406.8</ele>
        <time>2014-11-09T09:49:14.000Z</time>
      </trkpt>
      <trkpt lat="47.55262" lon="6.7356">
        <ele>410</ele>
        <time>2014-11-09T09:49:15.000Z</time>
      </trkpt>
      <trkpt lat="47.55265" lon="6.73562">
        <ele>413</ele>
        <time>2014-11-09T09:49:16.000Z</time>
      </trkpt>
      <trkpt lat="47.55267" lon="6.73564">
        <ele>415.1</ele>
        <time>2014-11-09T09:49:17.000Z</time>
      </trkpt>
      <trkpt lat="47.55269" lon="6.73566">
        <ele>416.1</ele>
        <time>2014-11-09T09:49:18.000Z</time>
      </trkpt>
      <trkpt lat="47.55271" lon="6.73568">
        <ele>416.3</ele>
        <time>2014-11-09T09:49:19.000Z</time>
      </trkpt>
      <trkpt lat="47.55273" lon="6.73571">
        <ele>416.9</ele>
        <time>2014-11-09T09:49:21.000Z</time>
      </trkpt>
      <trkpt lat="47.55275" lon="6.73572">
        <ele>417</ele>
        <time>2014-11-09T09:49:22.000Z</time>
      </trkpt>
      <trkpt lat="47.55279" lon="6.73575">
        <ele>420.4</ele>
        <time>2014-11-09T09:49:24.000Z</time>
      </trkpt>
      <trkpt lat="47.55281" lon="6.73576">
        <ele>420.8</ele>
        <time>2014-11-09T09:49:25.000Z</time>
      </trkpt>
      <trkpt lat="47.55283" lon="6.73577">
        <ele>421</ele>
        <time>2014-11-09T09:49:26.000Z</time>
      </trkpt>
      <trkpt lat="47.55285" lon="6.73578">
        <ele>423.6</ele>
        <time>2014-11-09T09:49:27.000Z</time>
      </trkpt>
      <trkpt lat="47.55288" lon="6.73582">
        <ele>429.9</ele>
        <time>2014-11-09T09:49:29.000Z</time>
      </trkpt>
      <trkpt lat="47.5529" lon="6.73584">
        <ele>431.9</ele>
        <time>2014-11-09T09:49:30.000Z</time>
      </trkpt>
      <trkpt lat="47.55291" lon="6.73587">
        <ele>434.2</ele>
        <time>2014-11-09T09:49:31.000Z</time>
      </trkpt>
      <trkpt lat="47.55293" lon="6.73591">
        <ele>434.4</ele>
        <time>2014-11-09T09:49:32.000Z</time>
      </trkpt>
      <trkpt lat="47.55295" lon="6.73594">
        <ele>434.1</ele>
        <time>2014-11-09T09:49:33.000Z</time>
      </trkpt>
      <trkpt lat="47.55297" lon="6.73596">
        <ele>433.7</ele>
        <time>2014-11-09T09:49:34.000Z</time>
      </trkpt>
      <trkpt lat="47.553" lon="6.73599">
        <ele>433.1</ele>
        <time>2014-11-09T09:49:36.000Z</time>
      </trkpt>
      <trkpt lat="47.55302" lon="6.73601">
        <ele>433.3</ele>
        <time>2014-11-09T09:49:37.000Z</time>
      </trkpt>
      <trkpt lat="47.55305" lon="6.73603">
        <ele>431.8</ele>
        <time>2014-11-09T09:49:39.000Z</time>
      </trkpt>
      <trkpt lat="47.55308" lon="6.73605">
        <ele>431</ele>
        <time>2014-11-09T09:49:40.000Z</time>
      </trkpt>
      <trkpt lat="47.55311" lon="6.73606">
        <ele>431</ele>
        <time>2014-11-09T09:49:41.000Z</time>
      </trkpt>
      <trkpt lat="47.55314" lon="6.73608">
        <ele>430.1</ele>
        <time>2014-11-09T09:49:42.000Z</time>
      </trkpt>
      <trkpt lat="47.55317" lon="6.73612">
        <ele>430.6</ele>
        <time>2014-11-09T09:49:43.000Z</time>
      </trkpt>
      <trkpt lat="47.55319" lon="6.73616">
        <ele>430</ele>
        <time>2014-11-09T09:49:44.000Z</time>
      </trkpt>
      <trkpt lat="47.55321" lon="6.7362">
        <ele>431.5</ele>
        <time>2014-11-09T09:49:45.000Z</time>
      </trkpt>
      <trkpt lat="47.55323" lon="6.73623">
        <ele>429.7</ele>
        <time>2014-11-09T09:49:46.000Z</time>
      </trkpt>
      <trkpt lat="47.55325" lon="6.73626">
        <ele>430</ele>
        <time>2014-11-09T09:49:47.000Z</time>
      </trkpt>
      <trkpt lat="47.55328" lon="6.73629">
        <ele>430.2</ele>
        <time>2014-11-09T09:49:48.000Z</time>
      </trkpt>
      <trkpt lat="47.55331" lon="6.73631">
        <ele>430.5</ele>
        <time>2014-11-09T09:49:49.000Z</time>
      </trkpt>
      <trkpt lat="47.55333" lon="6.73633">
        <ele>433.9</ele>
        <time>2014-11-09T09:49:50.000Z</time>
      </trkpt>
      <trkpt lat="47.55335" lon="6.73636">
        <ele>433.8</ele>
        <time>2014-11-09T09:49:51.000Z</time>
      </trkpt>
      <trkpt lat="47.55337" lon="6.73639">
        <ele>433.8</ele>
        <time>2014-11-09T09:49:52.000Z</time>
      </trkpt>
      <trkpt lat="47.5534" lon="6.73641">
        <ele>434.1</ele>
        <time>2014-11-09T09:49:53.000Z</time>
      </trkpt>
      <trkpt lat="47.55342" lon="6.73644">
        <ele>438.3</ele>
        <time>2014-11-09T09:49:54.000Z</time>
      </trkpt>
      <trkpt lat="47.55344" lon="6.73647">
        <ele>439</ele>
        <time>2014-11-09T09:49:55.000Z</time>
      </trkpt>
      <trkpt lat="47.55347" lon="6.7365">
        <ele>438.8</ele>
        <time>2014-11-09T09:49:56.000Z</time>
      </trkpt>
      <trkpt lat="47.55348" lon="6.73652">
        <ele>438.7</ele>
        <time>2014-11-09T09:49:57.000Z</time>
      </trkpt>
      <trkpt lat="47.55353" lon="6.73658">
        <ele>439.5</ele>
        <time>2014-11-09T09:50:00.000Z</time>
      </trkpt>
      <trkpt lat="47.55355" lon="6.7366">
        <ele>438.5</ele>
        <time>2014-11-09T09:50:01.000Z</time>
      </trkpt>
      <trkpt lat="47.55357" lon="6.73663">
        <ele>436.3</ele>
        <time>2014-11-09T09:50:02.000Z</time>
      </trkpt>
      <trkpt lat="47.5536" lon="6.73667">
        <ele>434</ele>
        <time>2014-11-09T09:50:03.000Z</time>
      </trkpt>
      <trkpt lat="47.55363" lon="6.7367">
        <ele>434.2</ele>
        <time>2014-11-09T09:50:04.000Z</time>
      </trkpt>
      <trkpt lat="47.55365" lon="6.73674">
        <ele>437</ele>
        <time>2014-11-09T09:50:05.000Z</time>
      </trkpt>
      <trkpt lat="47.55368" lon="6.73677">
        <ele>437.1</ele>
        <time>2014-11-09T09:50:06.000Z</time>
      </trkpt>
      <trkpt lat="47.5537" lon="6.73678">
        <ele>437.4</ele>
        <time>2014-11-09T09:50:07.000Z</time>
      </trkpt>
      <trkpt lat="47.55372" lon="6.7368">
        <ele>437</ele>
        <time>2014-11-09T09:50:08.000Z</time>
      </trkpt>
      <trkpt lat="47.55376" lon="6.73682">
        <ele>439.6</ele>
        <time>2014-11-09T09:50:10.000Z</time>
      </trkpt>
      <trkpt lat="47.55378" lon="6.73684">
        <ele>440.2</ele>
        <time>2014-11-09T09:50:11.000Z</time>
      </trkpt>
      <trkpt lat="47.5538" lon="6.73686">
        <ele>440.4</ele>
        <time>2014-11-09T09:50:12.000Z</time>
      </trkpt>
      <trkpt lat="47.55382" lon="6.73688">
        <ele>439.4</ele>
        <time>2014-11-09T09:50:13.000Z</time>
      </trkpt>
      <trkpt lat="47.55384" lon="6.73691">
        <ele>440.9</ele>
        <time>2014-11-09T09:50:14.000Z</time>
      </trkpt>
      <trkpt lat="47.55387" lon="6.73695">
        <ele>439.4</ele>
        <time>2014-11-09T09:50:15.000Z</time>
      </trkpt>
      <trkpt lat="47.55389" lon="6.737">
        <ele>439.8</ele>
        <time>2014-11-09T09:50:16.000Z</time>
      </trkpt>
      <trkpt lat="47.55392" lon="6.73704">
        <ele>439.2</ele>
        <time>2014-11-09T09:50:17.000Z</time>
      </trkpt>
      <trkpt lat="47.55395" lon="6.73709">
        <ele>444</ele>
        <time>2014-11-09T09:50:18.000Z</time>
      </trkpt>
      <trkpt lat="47.55397" lon="6.73713">
        <ele>446</ele>
        <time>2014-11-09T09:50:19.000Z</time>
      </trkpt>
      <trkpt lat="47.55399" lon="6.73718">
        <ele>446.8</ele>
        <time>2014-11-09T09:50:20.000Z</time>
      </trkpt>
      <trkpt lat="47.55401" lon="6.73723">
        <ele>447.5</ele>
        <time>2014-11-09T09:50:21.000Z</time>
      </trkpt>
      <trkpt lat="47.55403" lon="6.73726">
        <ele>447</ele>
        <time>2014-11-09T09:50:22.000Z</time>
      </trkpt>
      <trkpt lat="47.55406" lon="6.73729">
        <ele>446.4</ele>
        <time>2014-11-09T09:50:23.000Z</time>
      </trkpt>
      <trkpt lat="47.55409" lon="6.73731">
        <ele>446.1</ele>
        <time>2014-11-09T09:50:24.000Z</time>
      </trkpt>
      <trkpt lat="47.55412" lon="6.73734">
        <ele>443.5</ele>
        <time>2014-11-09T09:50:25.000Z</time>
      </trkpt>
      <trkpt lat="47.55415" lon="6.73737">
        <ele>441.1</ele>
        <time>2014-11-09T09:50:26.000Z</time>
      </trkpt>
      <trkpt lat="47.55417" lon="6.7374">
        <ele>442.7</ele>
        <time>2014-11-09T09:50:27.000Z</time>
      </trkpt>
      <trkpt lat="47.5542" lon="6.73743">
        <ele>444.9</ele>
        <time>2014-11-09T09:50:28.000Z</time>
      </trkpt>
      <trkpt lat="47.55423" lon="6.73746">
        <ele>446.6</ele>
        <time>2014-11-09T09:50:29.000Z</time>
      </trkpt>
      <trkpt lat="47.55425" lon="6.73749">
        <ele>448.3</ele>
        <time>2014-11-09T09:50:30.000Z</time>
      </trkpt>
      <trkpt lat="47.55427" lon="6.73752">
        <ele>448.2</ele>
        <time>2014-11-09T09:50:31.000Z</time>
      </trkpt>
      <trkpt lat="47.55429" lon="6.73754">
        <ele>448.3</ele>
        <time>2014-11-09T09:50:32.000Z</time>
      </trkpt>
      <trkpt lat="47.55432" lon="6.73757">
        <ele>452.6</ele>
        <time>2014-11-09T09:50:33.000Z</time>
      </trkpt>
      <trkpt lat="47.55435" lon="6.7376">
        <ele>453.3</ele>
        <time>2014-11-09T09:50:34.000Z</time>
      </trkpt>
      <trkpt lat="47.55437" lon="6.73762">
        <ele>453.3</ele>
        <time>2014-11-09T09:50:35.000Z</time>
      </trkpt>
      <trkpt lat="47.5544" lon="6.73765">
        <ele>452.7</ele>
        <time>2014-11-09T09:50:36.000Z</time>
      </trkpt>
      <trkpt lat="47.55443" lon="6.73767">
        <ele>451.8</ele>
        <time>2014-11-09T09:50:37.000Z</time>
      </trkpt>
      <trkpt lat="47.55446" lon="6.73769">
        <ele>451.4</ele>
        <time>2014-11-09T09:50:38.000Z</time>
      </trkpt>
      <trkpt lat="47.5545" lon="6.73772">
        <ele>450.1</ele>
        <time>2014-11-09T09:50:39.000Z</time>
      </trkpt>
      <trkpt lat="47.55454" lon="6.73774">
        <ele>449.3</ele>
        <time>2014-11-09T09:50:40.000Z</time>
      </trkpt>
      <trkpt lat="47.55458" lon="6.73776">
        <ele>447.4</ele>
        <time>2014-11-09T09:50:41.000Z</time>
      </trkpt>
      <trkpt lat="47.55461" lon="6.73778">
        <ele>446.9</ele>
        <time>2014-11-09T09:50:42.000Z</time>
      </trkpt>
      <trkpt lat="47.55464" lon="6.73781">
        <ele>445.1</ele>
        <time>2014-11-09T09:50:43.000Z</time>
      </trkpt>
      <trkpt lat="47.55467" lon="6.73784">
        <ele>448.4</ele>
        <time>2014-11-09T09:50:44.000Z</time>
      </trkpt>
      <trkpt lat="47.5547" lon="6.73788">
        <ele>448.2</ele>
        <time>2014-11-09T09:50:45.000Z</time>
      </trkpt>
      <trkpt lat="47.55473" lon="6.73792">
        <ele>449.2</ele>
        <time>2014-11-09T09:50:46.000Z</time>
      </trkpt>
      <trkpt lat="47.55476" lon="6.73795">
        <ele>448.6</ele>
        <time>2014-11-09T09:50:47.000Z</time>
      </trkpt>
      <trkpt lat="47.55478" lon="6.73799">
        <ele>448.6</ele>
        <time>2014-11-09T09:50:48.000Z</time>
      </trkpt>
      <trkpt lat="47.55481" lon="6.73803">
        <ele>448.4</ele>
        <time>2014-11-09T09:50:49.000Z</time>
      </trkpt>
      <trkpt lat="47.55483" lon="6.73806">
        <ele>449.9</ele>
        <time>2014-11-09T09:50:50.000Z</time>
      </trkpt>
      <trkpt lat="47.55485" lon="6.73809">
        <ele>451</ele>
        <time>2014-11-09T09:50:51.000Z</time>
      </trkpt>
      <trkpt lat="47.55486" lon="6.73812">
        <ele>451.1</ele>
        <time>2014-11-09T09:50:52.000Z</time>
      </trkpt>
      <trkpt lat="47.55487" lon="6.73815">
        <ele>451</ele>
        <time>2014-11-09T09:50:53.000Z</time>
      </trkpt>
      <trkpt lat="47.55488" lon="6.73818">
        <ele>451</ele>
        <time>2014-11-09T09:50:54.000Z</time>
      </trkpt>
      <trkpt lat="47.55489" lon="6.73822">
        <ele>451.7</ele>
        <time>2014-11-09T09:50:55.000Z</time>
      </trkpt>
      <trkpt lat="47.5549" lon="6.73825">
        <ele>452.3</ele>
        <time>2014-11-09T09:50:56.000Z</time>
      </trkpt>
      <trkpt lat="47.55494" lon="6.73833">
        <ele>455.5</ele>
        <time>2014-11-09T09:50:59.000Z</time>
      </trkpt>
      <trkpt lat="47.55495" lon="6.73837">
        <ele>456.3</ele>
        <time>2014-11-09T09:51:00.000Z</time>
      </trkpt>
      <trkpt lat="47.55497" lon="6.7384">
        <ele>456.6</ele>
        <time>2014-11-09T09:51:01.000Z</time>
      </trkpt>
      <trkpt lat="47.55499" lon="6.73843">
        <ele>455.7</ele>
        <time>2014-11-09T09:51:02.000Z</time>
      </trkpt>
      <trkpt lat="47.55501" lon="6.73846">
        <ele>455.1</ele>
        <time>2014-11-09T09:51:03.000Z</time>
      </trkpt>
      <trkpt lat="47.55503" lon="6.73849">
        <ele>454.7</ele>
        <time>2014-11-09T09:51:04.000Z</time>
      </trkpt>
      <trkpt lat="47.55505" lon="6.73852">
        <ele>454.4</ele>
        <time>2014-11-09T09:51:05.000Z</time>
      </trkpt>
      <trkpt lat="47.55506" lon="6.73854">
        <ele>453.3</ele>
        <time>2014-11-09T09:51:06.000Z</time>
      </trkpt>
      <trkpt lat="47.55508" lon="6.73857">
        <ele>452.3</ele>
        <time>2014-11-09T09:51:07.000Z</time>
      </trkpt>
      <trkpt lat="47.5551" lon="6.73861">
        <ele>455.4</ele>
        <time>2014-11-09T09:51:08.000Z</time>
      </trkpt>
      <trkpt lat="47.55513" lon="6.73864">
        <ele>455.7</ele>
        <time>2014-11-09T09:51:09.000Z</time>
      </trkpt>
      <trkpt lat="47.55515" lon="6.73867">
        <ele>455.6</ele>
        <time>2014-11-09T09:51:10.000Z</time>
      </trkpt>
      <trkpt lat="47.55517" lon="6.7387">
        <ele>455.2</ele>
        <time>2014-11-09T09:51:11.000Z</time>
      </trkpt>
      <trkpt lat="47.5552" lon="6.73872">
        <ele>455.6</ele>
        <time>2014-11-09T09:51:12.000Z</time>
      </trkpt>
      <trkpt lat="47.55522" lon="6.73875">
        <ele>455.5</ele>
        <time>2014-11-09T09:51:13.000Z</time>
      </trkpt>
      <trkpt lat="47.55524" lon="6.73879">
        <ele>453.9</ele>
        <time>2014-11-09T09:51:14.000Z</time>
      </trkpt>
      <trkpt lat="47.55527" lon="6.73883">
        <ele>453.1</ele>
        <time>2014-11-09T09:51:15.000Z</time>
      </trkpt>
      <trkpt lat="47.55529" lon="6.73886">
        <ele>452.9</ele>
        <time>2014-11-09T09:51:16.000Z</time>
      </trkpt>
      <trkpt lat="47.55531" lon="6.7389">
        <ele>453.1</ele>
        <time>2014-11-09T09:51:17.000Z</time>
      </trkpt>
      <trkpt lat="47.55533" lon="6.73893">
        <ele>452.8</ele>
        <time>2014-11-09T09:51:18.000Z</time>
      </trkpt>
      <trkpt lat="47.55535" lon="6.73897">
        <ele>451.9</ele>
        <time>2014-11-09T09:51:19.000Z</time>
      </trkpt>
      <trkpt lat="47.55536" lon="6.739">
        <ele>451.7</ele>
        <time>2014-11-09T09:51:20.000Z</time>
      </trkpt>
      <trkpt lat="47.55538" lon="6.73904">
        <ele>452.3</ele>
        <time>2014-11-09T09:51:21.000Z</time>
      </trkpt>
      <trkpt lat="47.5554" lon="6.73907">
        <ele>453.9</ele>
        <time>2014-11-09T09:51:22.000Z</time>
      </trkpt>
      <trkpt lat="47.55542" lon="6.73911">
        <ele>454.4</ele>
        <time>2014-11-09T09:51:23.000Z</time>
      </trkpt>
      <trkpt lat="47.55544" lon="6.73915">
        <ele>453.9</ele>
        <time>2014-11-09T09:51:24.000Z</time>
      </trkpt>
      <trkpt lat="47.55546" lon="6.73919">
        <ele>453.8</ele>
        <time>2014-11-09T09:51:25.000Z</time>
      </trkpt>
      <trkpt lat="47.55548" lon="6.73923">
        <ele>452.9</ele>
        <time>2014-11-09T09:51:26.000Z</time>
      </trkpt>
      <trkpt lat="47.5555" lon="6.73926">
        <ele>453.2</ele>
        <time>2014-11-09T09:51:27.000Z</time>
      </trkpt>
      <trkpt lat="47.55552" lon="6.7393">
        <ele>457.4</ele>
        <time>2014-11-09T09:51:28.000Z</time>
      </trkpt>
      <trkpt lat="47.55554" lon="6.73933">
        <ele>457.3</ele>
        <time>2014-11-09T09:51:29.000Z</time>
      </trkpt>
      <trkpt lat="47.55556" lon="6.73937">
        <ele>457.5</ele>
        <time>2014-11-09T09:51:30.000Z</time>
      </trkpt>
      <trkpt lat="47.55558" lon="6.7394">
        <ele>456.9</ele>
        <time>2014-11-09T09:51:31.000Z</time>
      </trkpt>
      <trkpt lat="47.5556" lon="6.73943">
        <ele>457.6</ele>
        <time>2014-11-09T09:51:32.000Z</time>
      </trkpt>
      <trkpt lat="47.55561" lon="6.73946">
        <ele>457.5</ele>
        <time>2014-11-09T09:51:33.000Z</time>
      </trkpt>
      <trkpt lat="47.55563" lon="6.7395">
        <ele>459</ele>
        <time>2014-11-09T09:51:34.000Z</time>
      </trkpt>
      <trkpt lat="47.55565" lon="6.73955">
        <ele>459.1</ele>
        <time>2014-11-09T09:51:35.000Z</time>
      </trkpt>
      <trkpt lat="47.55567" lon="6.73959">
        <ele>459.2</ele>
        <time>2014-11-09T09:51:36.000Z</time>
      </trkpt>
      <trkpt lat="47.55569" lon="6.73963">
        <ele>459.1</ele>
        <time>2014-11-09T09:51:37.000Z</time>
      </trkpt>
      <trkpt lat="47.55572" lon="6.73967">
        <ele>459</ele>
        <time>2014-11-09T09:51:38.000Z</time>
      </trkpt>
      <trkpt lat="47.55574" lon="6.7397">
        <ele>462.5</ele>
        <time>2014-11-09T09:51:39.000Z</time>
      </trkpt>
      <trkpt lat="47.55576" lon="6.73974">
        <ele>462.6</ele>
        <time>2014-11-09T09:51:40.000Z</time>
      </trkpt>
      <trkpt lat="47.55578" lon="6.73977">
        <ele>462.9</ele>
        <time>2014-11-09T09:51:41.000Z</time>
      </trkpt>
      <trkpt lat="47.5558" lon="6.7398">
        <ele>464.7</ele>
        <time>2014-11-09T09:51:42.000Z</time>
      </trkpt>
      <trkpt lat="47.55583" lon="6.73983">
        <ele>465.3</ele>
        <time>2014-11-09T09:51:43.000Z</time>
      </trkpt>
      <trkpt lat="47.55585" lon="6.73986">
        <ele>465.3</ele>
        <time>2014-11-09T09:51:44.000Z</time>
      </trkpt>
      <trkpt lat="47.55588" lon="6.73988">
        <ele>465</ele>
        <time>2014-11-09T09:51:45.000Z</time>
      </trkpt>
      <trkpt lat="47.5559" lon="6.7399">
        <ele>464.9</ele>
        <time>2014-11-09T09:51:46.000Z</time>
      </trkpt>
      <trkpt lat="47.55592" lon="6.73994">
        <ele>468.6</ele>
        <time>2014-11-09T09:51:47.000Z</time>
      </trkpt>
      <trkpt lat="47.55593" lon="6.73998">
        <ele>467.9</ele>
        <time>2014-11-09T09:51:48.000Z</time>
      </trkpt>
      <trkpt lat="47.55595" lon="6.74002">
        <ele>467.4</ele>
        <time>2014-11-09T09:51:49.000Z</time>
      </trkpt>
      <trkpt lat="47.55597" lon="6.74006">
        <ele>466.9</ele>
        <time>2014-11-09T09:51:50.000Z</time>
      </trkpt>
      <trkpt lat="47.55598" lon="6.7401">
        <ele>465.7</ele>
        <time>2014-11-09T09:51:51.000Z</time>
      </trkpt>
      <trkpt lat="47.556" lon="6.74014">
        <ele>465</ele>
        <time>2014-11-09T09:51:52.000Z</time>
      </trkpt>
      <trkpt lat="47.55602" lon="6.74019">
        <ele>463.4</ele>
        <time>2014-11-09T09:51:53.000Z</time>
      </trkpt>
      <trkpt lat="47.55604" lon="6.74023">
        <ele>461.7</ele>
        <time>2014-11-09T09:51:54.000Z</time>
      </trkpt>
      <trkpt lat="47.55606" lon="6.74029">
        <ele>460</ele>
        <time>2014-11-09T09:51:55.000Z</time>
      </trkpt>
      <trkpt lat="47.55609" lon="6.74034">
        <ele>457.8</ele>
        <time>2014-11-09T09:51:56.000Z</time>
      </trkpt>
      <trkpt lat="47.55613" lon="6.74045">
        <ele>459.1</ele>
        <time>2014-11-09T09:51:59.000Z</time>
      </trkpt>
      <trkpt lat="47.55615" lon="6.74049">
        <ele>457.4</ele>
        <time>2014-11-09T09:52:00.000Z</time>
      </trkpt>
      <trkpt lat="47.55617" lon="6.74054">
        <ele>455.1</ele>
        <time>2014-11-09T09:52:01.000Z</time>
      </trkpt>
      <trkpt lat="47.5562" lon="6.74061">
        <ele>452.1</ele>
        <time>2014-11-09T09:52:02.000Z</time>
      </trkpt>
      <trkpt lat="47.55623" lon="6.74066">
        <ele>451.3</ele>
        <time>2014-11-09T09:52:03.000Z</time>
      </trkpt>
      <trkpt lat="47.55625" lon="6.74072">
        <ele>452.2</ele>
        <time>2014-11-09T09:52:04.000Z</time>
      </trkpt>
      <trkpt lat="47.55626" lon="6.74077">
        <ele>453.6</ele>
        <time>2014-11-09T09:52:05.000Z</time>
      </trkpt>
      <trkpt lat="47.55627" lon="6.74081">
        <ele>454.3</ele>
        <time>2014-11-09T09:52:06.000Z</time>
      </trkpt>
      <trkpt lat="47.55627" lon="6.74083">
        <ele>454.8</ele>
        <time>2014-11-09T09:52:07.000Z</time>
      </trkpt>
      <trkpt lat="47.55629" lon="6.74088">
        <ele>455.2</ele>
        <time>2014-11-09T09:52:10.000Z</time>
      </trkpt>
      <trkpt lat="47.5563" lon="6.74089">
        <ele>455.4</ele>
        <time>2014-11-09T09:52:11.000Z</time>
      </trkpt>
      <trkpt lat="47.55632" lon="6.74093">
        <ele>453.9</ele>
        <time>2014-11-09T09:52:14.000Z</time>
      </trkpt>
      <trkpt lat="47.55633" lon="6.74094">
        <ele>452.8</ele>
        <time>2014-11-09T09:52:15.000Z</time>
      </trkpt>
      <trkpt lat="47.55636" lon="6.74096">
        <ele>451.3</ele>
        <time>2014-11-09T09:52:18.000Z</time>
      </trkpt>
      <trkpt lat="47.55637" lon="6.74098">
        <ele>451</ele>
        <time>2014-11-09T09:52:19.000Z</time>
      </trkpt>
      <trkpt lat="47.5564" lon="6.74102">
        <ele>452</ele>
        <time>2014-11-09T09:52:23.000Z</time>
      </trkpt>
      <trkpt lat="47.5564" lon="6.74104">
        <ele>452.6</ele>
        <time>2014-11-09T09:52:24.000Z</time>
      </trkpt>
      <trkpt lat="47.55641" lon="6.7411">
        <ele>454.6</ele>
        <time>2014-11-09T09:52:35.000Z</time>
      </trkpt>
      <trkpt lat="47.55641" lon="6.7411">
        <ele>454.5</ele>
        <time>2014-11-09T09:52:36.000Z</time>
      </trkpt>
      <trkpt lat="47.55638" lon="6.74114">
        <ele>451.4</ele>
        <time>2014-11-09T09:52:52.000Z</time>
      </trkpt>
      <trkpt lat="47.55638" lon="6.74114">
        <ele>450.9</ele>
        <time>2014-11-09T09:52:53.000Z</time>
      </trkpt>
      <trkpt lat="47.55641" lon="6.74111">
        <ele>445.2</ele>
        <time>2014-11-09T09:53:34.000Z</time>
      </trkpt>
      <trkpt lat="47.55642" lon="6.74109">
        <ele>443.5</ele>
        <time>2014-11-09T09:53:35.000Z</time>
      </trkpt>
      <trkpt lat="47.55644" lon="6.74108">
        <ele>441.2</ele>
        <time>2014-11-09T09:53:36.000Z</time>
      </trkpt>
      <trkpt lat="47.55646" lon="6.74107">
        <ele>440.4</ele>
        <time>2014-11-09T09:53:37.000Z</time>
      </trkpt>
      <trkpt lat="47.5565" lon="6.74104">
        <ele>440.2</ele>
        <time>2014-11-09T09:53:39.000Z</time>
      </trkpt>
      <trkpt lat="47.55651" lon="6.74102">
        <ele>440.4</ele>
        <time>2014-11-09T09:53:40.000Z</time>
      </trkpt>
      <trkpt lat="47.55653" lon="6.74098">
        <ele>438.3</ele>
        <time>2014-11-09T09:53:42.000Z</time>
      </trkpt>
      <trkpt lat="47.55655" lon="6.74096">
        <ele>439.5</ele>
        <time>2014-11-09T09:53:43.000Z</time>
      </trkpt>
      <trkpt lat="47.55658" lon="6.74093">
        <ele>436.8</ele>
        <time>2014-11-09T09:53:44.000Z</time>
      </trkpt>
      <trkpt lat="47.55661" lon="6.74091">
        <ele>437.9</ele>
        <time>2014-11-09T09:53:45.000Z</time>
      </trkpt>
      <trkpt lat="47.55664" lon="6.74088">
        <ele>440.7</ele>
        <time>2014-11-09T09:53:46.000Z</time>
      </trkpt>
      <trkpt lat="47.55667" lon="6.74086">
        <ele>439.7</ele>
        <time>2014-11-09T09:53:47.000Z</time>
      </trkpt>
      <trkpt lat="47.55669" lon="6.74083">
        <ele>439.2</ele>
        <time>2014-11-09T09:53:48.000Z</time>
      </trkpt>
      <trkpt lat="47.55672" lon="6.7408">
        <ele>442.3</ele>
        <time>2014-11-09T09:53:49.000Z</time>
      </trkpt>
      <trkpt lat="47.55676" lon="6.74076">
        <ele>442.1</ele>
        <time>2014-11-09T09:53:50.000Z</time>
      </trkpt>
      <trkpt lat="47.55682" lon="6.74063">
        <ele>439.8</ele>
        <time>2014-11-09T09:53:51.000Z</time>
      </trkpt>
      <trkpt lat="47.55684" lon="6.74058">
        <ele>436.6</ele>
        <time>2014-11-09T09:53:52.000Z</time>
      </trkpt>
      <trkpt lat="47.55687" lon="6.74053">
        <ele>432.5</ele>
        <time>2014-11-09T09:53:53.000Z</time>
      </trkpt>
      <trkpt lat="47.5569" lon="6.74048">
        <ele>431.5</ele>
        <time>2014-11-09T09:53:54.000Z</time>
      </trkpt>
      <trkpt lat="47.55692" lon="6.74041">
        <ele>429.6</ele>
        <time>2014-11-09T09:53:55.000Z</time>
      </trkpt>
      <trkpt lat="47.55694" lon="6.74035">
        <ele>428</ele>
        <time>2014-11-09T09:53:56.000Z</time>
      </trkpt>
      <trkpt lat="47.55698" lon="6.74022">
        <ele>425.5</ele>
        <time>2014-11-09T09:53:58.019Z</time>
      </trkpt>
      <trkpt lat="47.55702" lon="6.7401">
        <ele>424.4</ele>
        <time>2014-11-09T09:54:00.000Z</time>
      </trkpt>
      <trkpt lat="47.55705" lon="6.74002">
        <ele>423.4</ele>
        <time>2014-11-09T09:54:01.000Z</time>
      </trkpt>
      <trkpt lat="47.55708" lon="6.73995">
        <ele>422.7</ele>
        <time>2014-11-09T09:54:02.000Z</time>
      </trkpt>
      <trkpt lat="47.55711" lon="6.73988">
        <ele>422.5</ele>
        <time>2014-11-09T09:54:03.000Z</time>
      </trkpt>
      <trkpt lat="47.55713" lon="6.73981">
        <ele>422.3</ele>
        <time>2014-11-09T09:54:04.000Z</time>
      </trkpt>
      <trkpt lat="47.55716" lon="6.73975">
        <ele>422.4</ele>
        <time>2014-11-09T09:54:05.000Z</time>
      </trkpt>
      <trkpt lat="47.55718" lon="6.73968">
        <ele>422.1</ele>
        <time>2014-11-09T09:54:06.000Z</time>
      </trkpt>
      <trkpt lat="47.5572" lon="6.73962">
        <ele>421.2</ele>
        <time>2014-11-09T09:54:07.000Z</time>
      </trkpt>
      <trkpt lat="47.55722" lon="6.73955">
        <ele>420.8</ele>
        <time>2014-11-09T09:54:08.000Z</time>
      </trkpt>
      <trkpt lat="47.55726" lon="6.7395">
        <ele>421.3</ele>
        <time>2014-11-09T09:54:09.000Z</time>
      </trkpt>
      <trkpt lat="47.55728" lon="6.73942">
        <ele>419.3</ele>
        <time>2014-11-09T09:54:10.000Z</time>
      </trkpt>
      <trkpt lat="47.5573" lon="6.73937">
        <ele>418.4</ele>
        <time>2014-11-09T09:54:11.000Z</time>
      </trkpt>
      <trkpt lat="47.55733" lon="6.73931">
        <ele>418.5</ele>
        <time>2014-11-09T09:54:12.000Z</time>
      </trkpt>
      <trkpt lat="47.55734" lon="6.73927">
        <ele>417.2</ele>
        <time>2014-11-09T09:54:13.000Z</time>
      </trkpt>
      <trkpt lat="47.55737" lon="6.73922">
        <ele>417.1</ele>
        <time>2014-11-09T09:54:14.000Z</time>
      </trkpt>
      <trkpt lat="47.55739" lon="6.73917">
        <ele>417.1</ele>
        <time>2014-11-09T09:54:15.000Z</time>
      </trkpt>
      <trkpt lat="47.5574" lon="6.73913">
        <ele>415.8</ele>
        <time>2014-11-09T09:54:16.000Z</time>
      </trkpt>
      <trkpt lat="47.55743" lon="6.73909">
        <ele>415.3</ele>
        <time>2014-11-09T09:54:17.000Z</time>
      </trkpt>
      <trkpt lat="47.55745" lon="6.73906">
        <ele>414.6</ele>
        <time>2014-11-09T09:54:18.000Z</time>
      </trkpt>
      <trkpt lat="47.55748" lon="6.73902">
        <ele>414.2</ele>
        <time>2014-11-09T09:54:19.000Z</time>
      </trkpt>
      <trkpt lat="47.55751" lon="6.739">
        <ele>413.8</ele>
        <time>2014-11-09T09:54:20.000Z</time>
      </trkpt>
      <trkpt lat="47.55754" lon="6.73897">
        <ele>413.6</ele>
        <time>2014-11-09T09:54:21.000Z</time>
      </trkpt>
      <trkpt lat="47.55757" lon="6.73894">
        <ele>413</ele>
        <time>2014-11-09T09:54:22.000Z</time>
      </trkpt>
      <trkpt lat="47.5576" lon="6.73891">
        <ele>411.8</ele>
        <time>2014-11-09T09:54:23.000Z</time>
      </trkpt>
      <trkpt lat="47.55764" lon="6.73888">
        <ele>411</ele>
        <time>2014-11-09T09:54:24.000Z</time>
      </trkpt>
      <trkpt lat="47.55767" lon="6.73885">
        <ele>410.9</ele>
        <time>2014-11-09T09:54:25.000Z</time>
      </trkpt>
      <trkpt lat="47.55772" lon="6.7388">
        <ele>411.2</ele>
        <time>2014-11-09T09:54:26.000Z</time>
      </trkpt>
      <trkpt lat="47.55776" lon="6.73878">
        <ele>410.9</ele>
        <time>2014-11-09T09:54:27.000Z</time>
      </trkpt>
      <trkpt lat="47.5578" lon="6.73877">
        <ele>410.1</ele>
        <time>2014-11-09T09:54:28.000Z</time>
      </trkpt>
      <trkpt lat="47.55785" lon="6.73877">
        <ele>410.4</ele>
        <time>2014-11-09T09:54:29.000Z</time>
      </trkpt>
      <trkpt lat="47.55789" lon="6.73876">
        <ele>410.4</ele>
        <time>2014-11-09T09:54:30.000Z</time>
      </trkpt>
      <trkpt lat="47.55793" lon="6.73876">
        <ele>411</ele>
        <time>2014-11-09T09:54:31.000Z</time>
      </trkpt>
      <trkpt lat="47.55796" lon="6.73876">
        <ele>410.8</ele>
        <time>2014-11-09T09:54:32.000Z</time>
      </trkpt>
      <trkpt lat="47.558" lon="6.73876">
        <ele>410.6</ele>
        <time>2014-11-09T09:54:33.000Z</time>
      </trkpt>
      <trkpt lat="47.55802" lon="6.73875">
        <ele>409.9</ele>
        <time>2014-11-09T09:54:34.000Z</time>
      </trkpt>
      <trkpt lat="47.55805" lon="6.73875">
        <ele>410.6</ele>
        <time>2014-11-09T09:54:35.000Z</time>
      </trkpt>
      <trkpt lat="47.55807" lon="6.73874">
        <ele>409.9</ele>
        <time>2014-11-09T09:54:36.000Z</time>
      </trkpt>
      <trkpt lat="47.5581" lon="6.73874">
        <ele>409.3</ele>
        <time>2014-11-09T09:54:37.000Z</time>
      </trkpt>
      <trkpt lat="47.55813" lon="6.73874">
        <ele>408.9</ele>
        <time>2014-11-09T09:54:38.000Z</time>
      </trkpt>
      <trkpt lat="47.55817" lon="6.73873">
        <ele>408.7</ele>
        <time>2014-11-09T09:54:39.000Z</time>
      </trkpt>
      <trkpt lat="47.5582" lon="6.73874">
        <ele>410.7</ele>
        <time>2014-11-09T09:54:40.000Z</time>
      </trkpt>
      <trkpt lat="47.55823" lon="6.73873">
        <ele>409.6</ele>
        <time>2014-11-09T09:54:41.000Z</time>
      </trkpt>
      <trkpt lat="47.55826" lon="6.73873">
        <ele>410.6</ele>
        <time>2014-11-09T09:54:42.000Z</time>
      </trkpt>
      <trkpt lat="47.55829" lon="6.73872">
        <ele>411.9</ele>
        <time>2014-11-09T09:54:43.000Z</time>
      </trkpt>
      <trkpt lat="47.55831" lon="6.73871">
        <ele>412.3</ele>
        <time>2014-11-09T09:54:44.000Z</time>
      </trkpt>
      <trkpt lat="47.55834" lon="6.7387">
        <ele>411.2</ele>
        <time>2014-11-09T09:54:45.000Z</time>
      </trkpt>
      <trkpt lat="47.55838" lon="6.73868">
        <ele>410.2</ele>
        <time>2014-11-09T09:54:47.000Z</time>
      </trkpt>
      <trkpt lat="47.55839" lon="6.73867">
        <ele>410.6</ele>
        <time>2014-11-09T09:54:48.000Z</time>
      </trkpt>
      <trkpt lat="47.55842" lon="6.73871">
        <ele>404.3</ele>
        <time>2014-11-09T09:54:56.000Z</time>
      </trkpt>
      <trkpt lat="47.55846" lon="6.73884">
        <ele>405.1</ele>
        <time>2014-11-09T09:55:04.000Z</time>
      </trkpt>
      <trkpt lat="47.55847" lon="6.7389">
        <ele>406.1</ele>
        <time>2014-11-09T09:55:07.000Z</time>
      </trkpt>
      <trkpt lat="47.55847" lon="6.73892">
        <ele>407.3</ele>
        <time>2014-11-09T09:55:08.000Z</time>
      </trkpt>
      <trkpt lat="47.55848" lon="6.73898">
        <ele>407.4</ele>
        <time>2014-11-09T09:55:10.000Z</time>
      </trkpt>
      <trkpt lat="47.55848" lon="6.73901">
        <ele>407.4</ele>
        <time>2014-11-09T09:55:11.000Z</time>
      </trkpt>
      <trkpt lat="47.55848" lon="6.73906">
        <ele>406.4</ele>
        <time>2014-11-09T09:55:12.000Z</time>
      </trkpt>
      <trkpt lat="47.55848" lon="6.7391">
        <ele>407.2</ele>
        <time>2014-11-09T09:55:13.000Z</time>
      </trkpt>
      <trkpt lat="47.55849" lon="6.73915">
        <ele>407.7</ele>
        <time>2014-11-09T09:55:14.000Z</time>
      </trkpt>
      <trkpt lat="47.55849" lon="6.73919">
        <ele>407.8</ele>
        <time>2014-11-09T09:55:15.000Z</time>
      </trkpt>
      <trkpt lat="47.55849" lon="6.73922">
        <ele>407.8</ele>
        <time>2014-11-09T09:55:16.000Z</time>
      </trkpt>
      <trkpt lat="47.55849" lon="6.73926">
        <ele>407.9</ele>
        <time>2014-11-09T09:55:17.000Z</time>
      </trkpt>
      <trkpt lat="47.5585" lon="6.73929">
        <ele>408.3</ele>
        <time>2014-11-09T09:55:18.000Z</time>
      </trkpt>
      <trkpt lat="47.5585" lon="6.73933">
        <ele>408.9</ele>
        <time>2014-11-09T09:55:19.000Z</time>
      </trkpt>
      <trkpt lat="47.5585" lon="6.73936">
        <ele>409</ele>
        <time>2014-11-09T09:55:20.000Z</time>
      </trkpt>
      <trkpt lat="47.55851" lon="6.7394">
        <ele>408.6</ele>
        <time>2014-11-09T09:55:21.000Z</time>
      </trkpt>
      <trkpt lat="47.55852" lon="6.73945">
        <ele>408.2</ele>
        <time>2014-11-09T09:55:23.000Z</time>
      </trkpt>
      <trkpt lat="47.55853" lon="6.73948">
        <ele>408.2</ele>
        <time>2014-11-09T09:55:24.000Z</time>
      </trkpt>
      <trkpt lat="47.55853" lon="6.73954">
        <ele>408.3</ele>
        <time>2014-11-09T09:55:26.000Z</time>
      </trkpt>
      <trkpt lat="47.55854" lon="6.73957">
        <ele>408.7</ele>
        <time>2014-11-09T09:55:27.000Z</time>
      </trkpt>
      <trkpt lat="47.55854" lon="6.73963">
        <ele>409</ele>
        <time>2014-11-09T09:55:29.000Z</time>
      </trkpt>
      <trkpt lat="47.55854" lon="6.73966">
        <ele>410.1</ele>
        <time>2014-11-09T09:55:30.000Z</time>
      </trkpt>
      <trkpt lat="47.55855" lon="6.73969">
        <ele>409.8</ele>
        <time>2014-11-09T09:55:31.000Z</time>
      </trkpt>
      <trkpt lat="47.55855" lon="6.73973">
        <ele>408.9</ele>
        <time>2014-11-09T09:55:32.000Z</time>
      </trkpt>
      <trkpt lat="47.55856" lon="6.73976">
        <ele>409.5</ele>
        <time>2014-11-09T09:55:33.000Z</time>
      </trkpt>
      <trkpt lat="47.55856" lon="6.7398">
        <ele>409.7</ele>
        <time>2014-11-09T09:55:34.000Z</time>
      </trkpt>
      <trkpt lat="47.55857" lon="6.73983">
        <ele>409.1</ele>
        <time>2014-11-09T09:55:35.000Z</time>
      </trkpt>
      <trkpt lat="47.55857" lon="6.73987">
        <ele>409</ele>
        <time>2014-11-09T09:55:36.000Z</time>
      </trkpt>
      <trkpt lat="47.55858" lon="6.73993">
        <ele>409.3</ele>
        <time>2014-11-09T09:55:38.000Z</time>
      </trkpt>
      <trkpt lat="47.55858" lon="6.73996">
        <ele>409.2</ele>
        <time>2014-11-09T09:55:39.000Z</time>
      </trkpt>
      <trkpt lat="47.55859" lon="6.74002">
        <ele>409.1</ele>
        <time>2014-11-09T09:55:41.000Z</time>
      </trkpt>
      <trkpt lat="47.55859" lon="6.74006">
        <ele>409.1</ele>
        <time>2014-11-09T09:55:42.000Z</time>
      </trkpt>
      <trkpt lat="47.5586" lon="6.74011">
        <ele>411.4</ele>
        <time>2014-11-09T09:55:44.000Z</time>
      </trkpt>
      <trkpt lat="47.55861" lon="6.74014">
        <ele>411.1</ele>
        <time>2014-11-09T09:55:45.000Z</time>
      </trkpt>
      <trkpt lat="47.55862" lon="6.74019">
        <ele>412</ele>
        <time>2014-11-09T09:55:47.000Z</time>
      </trkpt>
      <trkpt lat="47.55862" lon="6.74023">
        <ele>411.7</ele>
        <time>2014-11-09T09:55:48.000Z</time>
      </trkpt>
      <trkpt lat="47.55863" lon="6.74026">
        <ele>411.9</ele>
        <time>2014-11-09T09:55:49.000Z</time>
      </trkpt>
      <trkpt lat="47.55863" lon="6.74029">
        <ele>412</ele>
        <time>2014-11-09T09:55:50.000Z</time>
      </trkpt>
      <trkpt lat="47.55864" lon="6.74033">
        <ele>411.9</ele>
        <time>2014-11-09T09:55:51.000Z</time>
      </trkpt>
      <trkpt lat="47.55865" lon="6.74036">
        <ele>412</ele>
        <time>2014-11-09T09:55:52.000Z</time>
      </trkpt>
      <trkpt lat="47.55866" lon="6.74042">
        <ele>412.1</ele>
        <time>2014-11-09T09:55:54.000Z</time>
      </trkpt>
      <trkpt lat="47.55866" lon="6.74045">
        <ele>412.8</ele>
        <time>2014-11-09T09:55:55.000Z</time>
      </trkpt>
      <trkpt lat="47.55867" lon="6.74047">
        <ele>412.8</ele>
        <time>2014-11-09T09:55:56.000Z</time>
      </trkpt>
      <trkpt lat="47.55868" lon="6.74068">
        <ele>416.4</ele>
        <time>2014-11-09T09:56:04.000Z</time>
      </trkpt>
      <trkpt lat="47.55869" lon="6.74073">
        <ele>418</ele>
        <time>2014-11-09T09:56:06.000Z</time>
      </trkpt>
      <trkpt lat="47.55869" lon="6.74075">
        <ele>418.2</ele>
        <time>2014-11-09T09:56:07.000Z</time>
      </trkpt>
      <trkpt lat="47.55869" lon="6.74081">
        <ele>420.3</ele>
        <time>2014-11-09T09:56:09.000Z</time>
      </trkpt>
      <trkpt lat="47.5587" lon="6.74084">
        <ele>420.2</ele>
        <time>2014-11-09T09:56:10.000Z</time>
      </trkpt>
      <trkpt lat="47.5587" lon="6.7409">
        <ele>421.5</ele>
        <time>2014-11-09T09:56:12.000Z</time>
      </trkpt>
      <trkpt lat="47.55871" lon="6.74093">
        <ele>421.4</ele>
        <time>2014-11-09T09:56:13.000Z</time>
      </trkpt>
      <trkpt lat="47.55872" lon="6.74099">
        <ele>421.4</ele>
        <time>2014-11-09T09:56:15.000Z</time>
      </trkpt>
      <trkpt lat="47.55872" lon="6.74102">
        <ele>421.5</ele>
        <time>2014-11-09T09:56:16.000Z</time>
      </trkpt>
      <trkpt lat="47.55873" lon="6.74106">
        <ele>422.1</ele>
        <time>2014-11-09T09:56:17.000Z</time>
      </trkpt>
      <trkpt lat="47.55873" lon="6.74109">
        <ele>422.4</ele>
        <time>2014-11-09T09:56:18.000Z</time>
      </trkpt>
      <trkpt lat="47.55874" lon="6.74113">
        <ele>422.2</ele>
        <time>2014-11-09T09:56:19.000Z</time>
      </trkpt>
      <trkpt lat="47.55874" lon="6.74116">
        <ele>422.4</ele>
        <time>2014-11-09T09:56:20.000Z</time>
      </trkpt>
      <trkpt lat="47.55874" lon="6.7412">
        <ele>422.6</ele>
        <time>2014-11-09T09:56:21.000Z</time>
      </trkpt>
      <trkpt lat="47.55875" lon="6.74123">
        <ele>422.9</ele>
        <time>2014-11-09T09:56:22.000Z</time>
      </trkpt>
      <trkpt lat="47.55875" lon="6.74129">
        <ele>423.1</ele>
        <time>2014-11-09T09:56:24.000Z</time>
      </trkpt>
      <trkpt lat="47.55876" lon="6.74132">
        <ele>423.3</ele>
        <time>2014-11-09T09:56:25.000Z</time>
      </trkpt>
      <trkpt lat="47.55876" lon="6.74138">
        <ele>423.1</ele>
        <time>2014-11-09T09:56:27.000Z</time>
      </trkpt>
      <trkpt lat="47.55877" lon="6.74142">
        <ele>422.8</ele>
        <time>2014-11-09T09:56:28.000Z</time>
      </trkpt>
      <trkpt lat="47.55877" lon="6.74148">
        <ele>423.1</ele>
        <time>2014-11-09T09:56:30.000Z</time>
      </trkpt>
      <trkpt lat="47.55878" lon="6.74151">
        <ele>423</ele>
        <time>2014-11-09T09:56:31.000Z</time>
      </trkpt>
      <trkpt lat="47.55878" lon="6.74157">
        <ele>424.1</ele>
        <time>2014-11-09T09:56:33.000Z</time>
      </trkpt>
      <trkpt lat="47.55879" lon="6.7416">
        <ele>424.1</ele>
        <time>2014-11-09T09:56:34.000Z</time>
      </trkpt>
      <trkpt lat="47.5588" lon="6.74166">
        <ele>424.3</ele>
        <time>2014-11-09T09:56:36.000Z</time>
      </trkpt>
      <trkpt lat="47.5588" lon="6.7417">
        <ele>424.6</ele>
        <time>2014-11-09T09:56:37.000Z</time>
      </trkpt>
      <trkpt lat="47.55881" lon="6.74173">
        <ele>424.2</ele>
        <time>2014-11-09T09:56:38.000Z</time>
      </trkpt>
      <trkpt lat="47.55881" lon="6.74176">
        <ele>424.5</ele>
        <time>2014-11-09T09:56:39.000Z</time>
      </trkpt>
      <trkpt lat="47.55882" lon="6.74179">
        <ele>424.7</ele>
        <time>2014-11-09T09:56:40.000Z</time>
      </trkpt>
      <trkpt lat="47.55882" lon="6.74183">
        <ele>424.1</ele>
        <time>2014-11-09T09:56:41.000Z</time>
      </trkpt>
      <trkpt lat="47.55882" lon="6.74187">
        <ele>424.1</ele>
        <time>2014-11-09T09:56:42.000Z</time>
      </trkpt>
      <trkpt lat="47.55883" lon="6.7419">
        <ele>424.4</ele>
        <time>2014-11-09T09:56:43.000Z</time>
      </trkpt>
      <trkpt lat="47.55883" lon="6.74194">
        <ele>424</ele>
        <time>2014-11-09T09:56:44.000Z</time>
      </trkpt>
      <trkpt lat="47.55884" lon="6.74197">
        <ele>424.5</ele>
        <time>2014-11-09T09:56:45.000Z</time>
      </trkpt>
      <trkpt lat="47.55885" lon="6.74203">
        <ele>424.7</ele>
        <time>2014-11-09T09:56:47.000Z</time>
      </trkpt>
      <trkpt lat="47.55885" lon="6.74206">
        <ele>424.9</ele>
        <time>2014-11-09T09:56:48.000Z</time>
      </trkpt>
      <trkpt lat="47.55886" lon="6.74213">
        <ele>425.2</ele>
        <time>2014-11-09T09:56:50.000Z</time>
      </trkpt>
      <trkpt lat="47.55886" lon="6.74216">
        <ele>425.5</ele>
        <time>2014-11-09T09:56:51.000Z</time>
      </trkpt>
      <trkpt lat="47.55886" lon="6.74219">
        <ele>425.5</ele>
        <time>2014-11-09T09:56:52.000Z</time>
      </trkpt>
      <trkpt lat="47.55886" lon="6.74223">
        <ele>426.1</ele>
        <time>2014-11-09T09:56:53.000Z</time>
      </trkpt>
      <trkpt lat="47.55887" lon="6.74229">
        <ele>425.7</ele>
        <time>2014-11-09T09:56:55.000Z</time>
      </trkpt>
      <trkpt lat="47.55887" lon="6.74232">
        <ele>425.9</ele>
        <time>2014-11-09T09:56:56.000Z</time>
      </trkpt>
      <trkpt lat="47.55889" lon="6.74259">
        <ele>425.7</ele>
        <time>2014-11-09T09:57:04.000Z</time>
      </trkpt>
      <trkpt lat="47.55891" lon="6.74263">
        <ele>426.2</ele>
        <time>2014-11-09T09:57:06.000Z</time>
      </trkpt>
      <trkpt lat="47.55893" lon="6.74264">
        <ele>425.9</ele>
        <time>2014-11-09T09:57:07.000Z</time>
      </trkpt>
      <trkpt lat="47.55897" lon="6.74264">
        <ele>426.3</ele>
        <time>2014-11-09T09:57:09.000Z</time>
      </trkpt>
      <trkpt lat="47.55899" lon="6.74263">
        <ele>426.4</ele>
        <time>2014-11-09T09:57:10.000Z</time>
      </trkpt>
      <trkpt lat="47.55901" lon="6.74262">
        <ele>426</ele>
        <time>2014-11-09T09:57:11.000Z</time>
      </trkpt>
      <trkpt lat="47.55904" lon="6.74261">
        <ele>427.1</ele>
        <time>2014-11-09T09:57:12.000Z</time>
      </trkpt>
      <trkpt lat="47.55907" lon="6.74261">
        <ele>428</ele>
        <time>2014-11-09T09:57:13.000Z</time>
      </trkpt>
      <trkpt lat="47.5591" lon="6.74261">
        <ele>427.7</ele>
        <time>2014-11-09T09:57:14.000Z</time>
      </trkpt>
      <trkpt lat="47.55913" lon="6.74262">
        <ele>427.3</ele>
        <time>2014-11-09T09:57:15.000Z</time>
      </trkpt>
      <trkpt lat="47.55916" lon="6.74262">
        <ele>426.4</ele>
        <time>2014-11-09T09:57:16.000Z</time>
      </trkpt>
      <trkpt lat="47.5592" lon="6.74262">
        <ele>427.4</ele>
        <time>2014-11-09T09:57:17.000Z</time>
      </trkpt>
      <trkpt lat="47.55923" lon="6.74262">
        <ele>427.4</ele>
        <time>2014-11-09T09:57:18.000Z</time>
      </trkpt>
      <trkpt lat="47.55926" lon="6.74261">
        <ele>427.1</ele>
        <time>2014-11-09T09:57:19.000Z</time>
      </trkpt>
      <trkpt lat="47.55929" lon="6.74261">
        <ele>427.9</ele>
        <time>2014-11-09T09:57:20.000Z</time>
      </trkpt>
      <trkpt lat="47.55932" lon="6.7426">
        <ele>428.3</ele>
        <time>2014-11-09T09:57:21.000Z</time>
      </trkpt>
      <trkpt lat="47.55935" lon="6.7426">
        <ele>427.6</ele>
        <time>2014-11-09T09:57:22.000Z</time>
      </trkpt>
      <trkpt lat="47.55938" lon="6.74259">
        <ele>428</ele>
        <time>2014-11-09T09:57:23.000Z</time>
      </trkpt>
      <trkpt lat="47.55941" lon="6.74258">
        <ele>427.6</ele>
        <time>2014-11-09T09:57:24.000Z</time>
      </trkpt>
      <trkpt lat="47.55944" lon="6.74258">
        <ele>427.7</ele>
        <time>2014-11-09T09:57:25.000Z</time>
      </trkpt>
      <trkpt lat="47.55946" lon="6.74258">
        <ele>428.1</ele>
        <time>2014-11-09T09:57:26.000Z</time>
      </trkpt>
      <trkpt lat="47.55949" lon="6.74257">
        <ele>428.9</ele>
        <time>2014-11-09T09:57:27.000Z</time>
      </trkpt>
      <trkpt lat="47.55952" lon="6.74256">
        <ele>430</ele>
        <time>2014-11-09T09:57:28.000Z</time>
      </trkpt>
      <trkpt lat="47.55954" lon="6.74256">
        <ele>430.7</ele>
        <time>2014-11-09T09:57:29.000Z</time>
      </trkpt>
      <trkpt lat="47.55957" lon="6.74255">
        <ele>431.6</ele>
        <time>2014-11-09T09:57:30.000Z</time>
      </trkpt>
      <trkpt lat="47.5596" lon="6.74254">
        <ele>432</ele>
        <time>2014-11-09T09:57:31.000Z</time>
      </trkpt>
      <trkpt lat="47.55963" lon="6.74253">
        <ele>432.1</ele>
        <time>2014-11-09T09:57:32.000Z</time>
      </trkpt>
      <trkpt lat="47.55967" lon="6.74252">
        <ele>432.5</ele>
        <time>2014-11-09T09:57:33.000Z</time>
      </trkpt>
      <trkpt lat="47.5597" lon="6.74251">
        <ele>432.2</ele>
        <time>2014-11-09T09:57:34.000Z</time>
      </trkpt>
      <trkpt lat="47.55974" lon="6.74251">
        <ele>432.9</ele>
        <time>2014-11-09T09:57:35.000Z</time>
      </trkpt>
      <trkpt lat="47.55977" lon="6.7425">
        <ele>432.6</ele>
        <time>2014-11-09T09:57:36.000Z</time>
      </trkpt>
      <trkpt lat="47.5598" lon="6.7425">
        <ele>432.2</ele>
        <time>2014-11-09T09:57:37.000Z</time>
      </trkpt>
      <trkpt lat="47.55984" lon="6.74251">
        <ele>433</ele>
        <time>2014-11-09T09:57:38.000Z</time>
      </trkpt>
      <trkpt lat="47.55988" lon="6.74252">
        <ele>433.3</ele>
        <time>2014-11-09T09:57:39.000Z</time>
      </trkpt>
      <trkpt lat="47.55992" lon="6.74253">
        <ele>434.1</ele>
        <time>2014-11-09T09:57:40.000Z</time>
      </trkpt>
      <trkpt lat="47.55995" lon="6.74254">
        <ele>434.2</ele>
        <time>2014-11-09T09:57:41.000Z</time>
      </trkpt>
      <trkpt lat="47.55998" lon="6.74254">
        <ele>436.2</ele>
        <time>2014-11-09T09:57:42.000Z</time>
      </trkpt>
      <trkpt lat="47.56001" lon="6.74255">
        <ele>437</ele>
        <time>2014-11-09T09:57:43.000Z</time>
      </trkpt>
      <trkpt lat="47.56003" lon="6.74254">
        <ele>437.3</ele>
        <time>2014-11-09T09:57:44.000Z</time>
      </trkpt>
      <trkpt lat="47.56006" lon="6.74253">
        <ele>436.9</ele>
        <time>2014-11-09T09:57:45.000Z</time>
      </trkpt>
      <trkpt lat="47.56008" lon="6.74251">
        <ele>436.1</ele>
        <time>2014-11-09T09:57:46.000Z</time>
      </trkpt>
      <trkpt lat="47.56012" lon="6.74249">
        <ele>436.9</ele>
        <time>2014-11-09T09:57:48.000Z</time>
      </trkpt>
      <trkpt lat="47.56013" lon="6.74248">
        <ele>437.3</ele>
        <time>2014-11-09T09:57:49.000Z</time>
      </trkpt>
      <trkpt lat="47.56017" lon="6.74247">
        <ele>438.8</ele>
        <time>2014-11-09T09:57:52.000Z</time>
      </trkpt>
      <trkpt lat="47.56018" lon="6.74246">
        <ele>439.6</ele>
        <time>2014-11-09T09:57:53.000Z</time>
      </trkpt>
      <trkpt lat="47.56022" lon="6.74245">
        <ele>440.1</ele>
        <time>2014-11-09T09:57:55.000Z</time>
      </trkpt>
      <trkpt lat="47.56024" lon="6.74245">
        <ele>439.8</ele>
        <time>2014-11-09T09:57:56.000Z</time>
      </trkpt>
      <trkpt lat="47.56026" lon="6.74244">
        <ele>439.2</ele>
        <time>2014-11-09T09:57:57.000Z</time>
      </trkpt>
      <trkpt lat="47.56032" lon="6.74245">
        <ele>439.1</ele>
        <time>2014-11-09T09:58:00.000Z</time>
      </trkpt>
      <trkpt lat="47.56036" lon="6.74246">
        <ele>438.5</ele>
        <time>2014-11-09T09:58:02.000Z</time>
      </trkpt>
      <trkpt lat="47.56038" lon="6.74246">
        <ele>440.2</ele>
        <time>2014-11-09T09:58:03.000Z</time>
      </trkpt>
      <trkpt lat="47.5604" lon="6.74245">
        <ele>441.3</ele>
        <time>2014-11-09T09:58:04.000Z</time>
      </trkpt>
      <trkpt lat="47.56042" lon="6.74244">
        <ele>441</ele>
        <time>2014-11-09T09:58:05.000Z</time>
      </trkpt>
      <trkpt lat="47.56045" lon="6.74242">
        <ele>442.1</ele>
        <time>2014-11-09T09:58:06.000Z</time>
      </trkpt>
      <trkpt lat="47.56048" lon="6.74241">
        <ele>441.9</ele>
        <time>2014-11-09T09:58:07.000Z</time>
      </trkpt>
      <trkpt lat="47.56051" lon="6.7424">
        <ele>441.7</ele>
        <time>2014-11-09T09:58:08.000Z</time>
      </trkpt>
      <trkpt lat="47.56055" lon="6.74239">
        <ele>441.6</ele>
        <time>2014-11-09T09:58:09.000Z</time>
      </trkpt>
      <trkpt lat="47.56058" lon="6.74238">
        <ele>441.7</ele>
        <time>2014-11-09T09:58:10.000Z</time>
      </trkpt>
      <trkpt lat="47.56061" lon="6.74236">
        <ele>441.7</ele>
        <time>2014-11-09T09:58:11.000Z</time>
      </trkpt>
      <trkpt lat="47.56064" lon="6.74235">
        <ele>441.4</ele>
        <time>2014-11-09T09:58:12.000Z</time>
      </trkpt>
      <trkpt lat="47.56067" lon="6.74234">
        <ele>441.2</ele>
        <time>2014-11-09T09:58:13.000Z</time>
      </trkpt>
      <trkpt lat="47.5607" lon="6.74234">
        <ele>440.9</ele>
        <time>2014-11-09T09:58:14.000Z</time>
      </trkpt>
      <trkpt lat="47.56072" lon="6.74233">
        <ele>441.1</ele>
        <time>2014-11-09T09:58:15.000Z</time>
      </trkpt>
      <trkpt lat="47.56075" lon="6.74233">
        <ele>440.7</ele>
        <time>2014-11-09T09:58:16.000Z</time>
      </trkpt>
      <trkpt lat="47.56078" lon="6.74232">
        <ele>440.2</ele>
        <time>2014-11-09T09:58:17.000Z</time>
      </trkpt>
      <trkpt lat="47.56081" lon="6.74231">
        <ele>440.4</ele>
        <time>2014-11-09T09:58:18.000Z</time>
      </trkpt>
      <trkpt lat="47.56084" lon="6.74229">
        <ele>439.8</ele>
        <time>2014-11-09T09:58:19.000Z</time>
      </trkpt>
      <trkpt lat="47.56086" lon="6.74228">
        <ele>440.7</ele>
        <time>2014-11-09T09:58:20.000Z</time>
      </trkpt>
      <trkpt lat="47.56089" lon="6.74227">
        <ele>440</ele>
        <time>2014-11-09T09:58:21.000Z</time>
      </trkpt>
      <trkpt lat="47.56093" lon="6.74226">
        <ele>439.8</ele>
        <time>2014-11-09T09:58:22.000Z</time>
      </trkpt>
      <trkpt lat="47.56096" lon="6.74225">
        <ele>439.9</ele>
        <time>2014-11-09T09:58:23.000Z</time>
      </trkpt>
      <trkpt lat="47.56099" lon="6.74223">
        <ele>439.3</ele>
        <time>2014-11-09T09:58:24.000Z</time>
      </trkpt>
      <trkpt lat="47.56102" lon="6.74222">
        <ele>438.4</ele>
        <time>2014-11-09T09:58:25.000Z</time>
      </trkpt>
      <trkpt lat="47.56105" lon="6.7422">
        <ele>438.9</ele>
        <time>2014-11-09T09:58:26.000Z</time>
      </trkpt>
      <trkpt lat="47.56107" lon="6.74219">
        <ele>438.8</ele>
        <time>2014-11-09T09:58:27.000Z</time>
      </trkpt>
      <trkpt lat="47.5611" lon="6.74218">
        <ele>438.5</ele>
        <time>2014-11-09T09:58:28.000Z</time>
      </trkpt>
      <trkpt lat="47.56113" lon="6.74215">
        <ele>439.8</ele>
        <time>2014-11-09T09:58:29.000Z</time>
      </trkpt>
      <trkpt lat="47.56117" lon="6.74213">
        <ele>440.5</ele>
        <time>2014-11-09T09:58:30.000Z</time>
      </trkpt>
      <trkpt lat="47.5612" lon="6.74211">
        <ele>441.5</ele>
        <time>2014-11-09T09:58:31.000Z</time>
      </trkpt>
      <trkpt lat="47.56124" lon="6.74208">
        <ele>442.1</ele>
        <time>2014-11-09T09:58:32.000Z</time>
      </trkpt>
      <trkpt lat="47.56127" lon="6.74207">
        <ele>442.1</ele>
        <time>2014-11-09T09:58:33.000Z</time>
      </trkpt>
      <trkpt lat="47.56131" lon="6.74205">
        <ele>442.2</ele>
        <time>2014-11-09T09:58:35.000Z</time>
      </trkpt>
      <trkpt lat="47.56131" lon="6.74205">
        <ele>441.1</ele>
        <time>2014-11-09T09:58:36.000Z</time>
      </trkpt>
      <trkpt lat="47.56135" lon="6.74202">
        <ele>431.3</ele>
        <time>2014-11-09T09:59:22.000Z</time>
      </trkpt>
      <trkpt lat="47.56135" lon="6.742">
        <ele>430.4</ele>
        <time>2014-11-09T09:59:23.000Z</time>
      </trkpt>
      <trkpt lat="47.56136" lon="6.74195">
        <ele>429.8</ele>
        <time>2014-11-09T09:59:25.000Z</time>
      </trkpt>
      <trkpt lat="47.56136" lon="6.74193">
        <ele>429.5</ele>
        <time>2014-11-09T09:59:26.000Z</time>
      </trkpt>
      <trkpt lat="47.56138" lon="6.74187">
        <ele>426.3</ele>
        <time>2014-11-09T09:59:35.000Z</time>
      </trkpt>
      <trkpt lat="47.56138" lon="6.74186">
        <ele>424.9</ele>
        <time>2014-11-09T09:59:36.000Z</time>
      </trkpt>
      <trkpt lat="47.5614" lon="6.7418">
        <ele>420.4</ele>
        <time>2014-11-09T09:59:43.000Z</time>
      </trkpt>
      <trkpt lat="47.5614" lon="6.7418">
        <ele>420.4</ele>
        <time>2014-11-09T09:59:44.000Z</time>
      </trkpt>
      <trkpt lat="47.56144" lon="6.74179">
        <ele>420.3</ele>
        <time>2014-11-09T10:00:42.000Z</time>
      </trkpt>
      <trkpt lat="47.56145" lon="6.74179">
        <ele>420.6</ele>
        <time>2014-11-09T10:00:43.000Z</time>
      </trkpt>
      <trkpt lat="47.56146" lon="6.74173">
        <ele>418.9</ele>
        <time>2014-11-09T10:00:48.000Z</time>
      </trkpt>
      <trkpt lat="47.56146" lon="6.74172">
        <ele>418.9</ele>
        <time>2014-11-09T10:00:49.000Z</time>
      </trkpt>
      <trkpt lat="47.56149" lon="6.74171">
        <ele>418.8</ele>
        <time>2014-11-09T10:00:54.000Z</time>
      </trkpt>
      <trkpt lat="47.56151" lon="6.74171">
        <ele>418.6</ele>
        <time>2014-11-09T10:00:55.000Z</time>
      </trkpt>
      <trkpt lat="47.56153" lon="6.7417">
        <ele>418.8</ele>
        <time>2014-11-09T10:00:56.000Z</time>
      </trkpt>
      <trkpt lat="47.56157" lon="6.7417">
        <ele>418.4</ele>
        <time>2014-11-09T10:00:59.000Z</time>
      </trkpt>
      <trkpt lat="47.56161" lon="6.7417">
        <ele>419.5</ele>
        <time>2014-11-09T10:01:01.000Z</time>
      </trkpt>
      <trkpt lat="47.56163" lon="6.7417">
        <ele>420.2</ele>
        <time>2014-11-09T10:01:02.000Z</time>
      </trkpt>
      <trkpt lat="47.56166" lon="6.7417">
        <ele>422</ele>
        <time>2014-11-09T10:01:04.000Z</time>
      </trkpt>
      <trkpt lat="47.56167" lon="6.7417">
        <ele>421.6</ele>
        <time>2014-11-09T10:01:05.000Z</time>
      </trkpt>
      <trkpt lat="47.56171" lon="6.74172">
        <ele>419.2</ele>
        <time>2014-11-09T10:01:12.000Z</time>
      </trkpt>
      <trkpt lat="47.56173" lon="6.74172">
        <ele>420.7</ele>
        <time>2014-11-09T10:01:13.000Z</time>
      </trkpt>
      <trkpt lat="47.56176" lon="6.74172">
        <ele>422.4</ele>
        <time>2014-11-09T10:01:14.000Z</time>
      </trkpt>
      <trkpt lat="47.56179" lon="6.74171">
        <ele>421.3</ele>
        <time>2014-11-09T10:01:15.000Z</time>
      </trkpt>
      <trkpt lat="47.56183" lon="6.7417">
        <ele>422.2</ele>
        <time>2014-11-09T10:01:16.000Z</time>
      </trkpt>
      <trkpt lat="47.56186" lon="6.7417">
        <ele>421.8</ele>
        <time>2014-11-09T10:01:17.000Z</time>
      </trkpt>
      <trkpt lat="47.56189" lon="6.7417">
        <ele>421.6</ele>
        <time>2014-11-09T10:01:18.000Z</time>
      </trkpt>
      <trkpt lat="47.56191" lon="6.7417">
        <ele>421.4</ele>
        <time>2014-11-09T10:01:19.000Z</time>
      </trkpt>
      <trkpt lat="47.56195" lon="6.7417">
        <ele>421.8</ele>
        <time>2014-11-09T10:01:20.000Z</time>
      </trkpt>
      <trkpt lat="47.56198" lon="6.74169">
        <ele>421.6</ele>
        <time>2014-11-09T10:01:21.000Z</time>
      </trkpt>
      <trkpt lat="47.56202" lon="6.74169">
        <ele>421.3</ele>
        <time>2014-11-09T10:01:22.000Z</time>
      </trkpt>
      <trkpt lat="47.56207" lon="6.74168">
        <ele>421.5</ele>
        <time>2014-11-09T10:01:23.000Z</time>
      </trkpt>
      <trkpt lat="47.56211" lon="6.74166">
        <ele>424.2</ele>
        <time>2014-11-09T10:01:24.000Z</time>
      </trkpt>
      <trkpt lat="47.56215" lon="6.74165">
        <ele>426.1</ele>
        <time>2014-11-09T10:01:25.000Z</time>
      </trkpt>
      <trkpt lat="47.56218" lon="6.74162">
        <ele>427.4</ele>
        <time>2014-11-09T10:01:26.000Z</time>
      </trkpt>
      <trkpt lat="47.56221" lon="6.7416">
        <ele>427</ele>
        <time>2014-11-09T10:01:27.000Z</time>
      </trkpt>
      <trkpt lat="47.56225" lon="6.74157">
        <ele>426.8</ele>
        <time>2014-11-09T10:01:28.000Z</time>
      </trkpt>
      <trkpt lat="47.56228" lon="6.74155">
        <ele>426.1</ele>
        <time>2014-11-09T10:01:29.000Z</time>
      </trkpt>
      <trkpt lat="47.56233" lon="6.74152">
        <ele>428.2</ele>
        <time>2014-11-09T10:01:30.000Z</time>
      </trkpt>
      <trkpt lat="47.56238" lon="6.7415">
        <ele>428.9</ele>
        <time>2014-11-09T10:01:31.000Z</time>
      </trkpt>
      <trkpt lat="47.56243" lon="6.74148">
        <ele>428.7</ele>
        <time>2014-11-09T10:01:32.000Z</time>
      </trkpt>
      <trkpt lat="47.56248" lon="6.74146">
        <ele>428.9</ele>
        <time>2014-11-09T10:01:33.000Z</time>
      </trkpt>
      <trkpt lat="47.56252" lon="6.74144">
        <ele>429</ele>
        <time>2014-11-09T10:01:34.000Z</time>
      </trkpt>
      <trkpt lat="47.56262" lon="6.74134">
        <ele>429.7</ele>
        <time>2014-11-09T10:01:35.000Z</time>
      </trkpt>
      <trkpt lat="47.56266" lon="6.74131">
        <ele>428.5</ele>
        <time>2014-11-09T10:01:36.000Z</time>
      </trkpt>
      <trkpt lat="47.56271" lon="6.74129">
        <ele>426.2</ele>
        <time>2014-11-09T10:01:37.000Z</time>
      </trkpt>
      <trkpt lat="47.56276" lon="6.74127">
        <ele>426</ele>
        <time>2014-11-09T10:01:38.000Z</time>
      </trkpt>
      <trkpt lat="47.56281" lon="6.74124">
        <ele>425</ele>
        <time>2014-11-09T10:01:39.000Z</time>
      </trkpt>
      <trkpt lat="47.56286" lon="6.74122">
        <ele>423.2</ele>
        <time>2014-11-09T10:01:40.000Z</time>
      </trkpt>
      <trkpt lat="47.56289" lon="6.7412">
        <ele>422.8</ele>
        <time>2014-11-09T10:01:41.000Z</time>
      </trkpt>
      <trkpt lat="47.56293" lon="6.74118">
        <ele>422</ele>
        <time>2014-11-09T10:01:42.000Z</time>
      </trkpt>
      <trkpt lat="47.56296" lon="6.74116">
        <ele>422</ele>
        <time>2014-11-09T10:01:43.000Z</time>
      </trkpt>
      <trkpt lat="47.56298" lon="6.74115">
        <ele>421</ele>
        <time>2014-11-09T10:01:44.000Z</time>
      </trkpt>
      <trkpt lat="47.563" lon="6.74113">
        <ele>420.2</ele>
        <time>2014-11-09T10:01:45.000Z</time>
      </trkpt>
      <trkpt lat="47.56302" lon="6.74112">
        <ele>419.5</ele>
        <time>2014-11-09T10:01:46.000Z</time>
      </trkpt>
      <trkpt lat="47.56304" lon="6.74113">
        <ele>418.7</ele>
        <time>2014-11-09T10:01:47.000Z</time>
      </trkpt>
      <trkpt lat="47.56307" lon="6.74113">
        <ele>418.8</ele>
        <time>2014-11-09T10:01:48.000Z</time>
      </trkpt>
      <trkpt lat="47.5631" lon="6.74114">
        <ele>418.3</ele>
        <time>2014-11-09T10:01:49.000Z</time>
      </trkpt>
      <trkpt lat="47.56312" lon="6.74114">
        <ele>418.7</ele>
        <time>2014-11-09T10:01:50.000Z</time>
      </trkpt>
      <trkpt lat="47.56315" lon="6.74114">
        <ele>418.6</ele>
        <time>2014-11-09T10:01:51.000Z</time>
      </trkpt>
      <trkpt lat="47.56318" lon="6.74112">
        <ele>418.1</ele>
        <time>2014-11-09T10:01:52.000Z</time>
      </trkpt>
      <trkpt lat="47.56321" lon="6.7411">
        <ele>417.7</ele>
        <time>2014-11-09T10:01:53.000Z</time>
      </trkpt>
      <trkpt lat="47.56323" lon="6.74106">
        <ele>414.9</ele>
        <time>2014-11-09T10:01:54.000Z</time>
      </trkpt>
      <trkpt lat="47.56326" lon="6.74102">
        <ele>412.1</ele>
        <time>2014-11-09T10:01:55.000Z</time>
      </trkpt>
      <trkpt lat="47.56328" lon="6.74096">
        <ele>410</ele>
        <time>2014-11-09T10:01:56.000Z</time>
      </trkpt>
      <trkpt lat="47.56336" lon="6.74083">
        <ele>408.6</ele>
        <time>2014-11-09T10:01:59.000Z</time>
      </trkpt>
      <trkpt lat="47.56345" lon="6.74076">
        <ele>407.1</ele>
        <time>2014-11-09T10:02:00.000Z</time>
      </trkpt>
      <trkpt lat="47.56351" lon="6.74071">
        <ele>406.2</ele>
        <time>2014-11-09T10:02:01.000Z</time>
      </trkpt>
      <trkpt lat="47.56357" lon="6.74066">
        <ele>405.3</ele>
        <time>2014-11-09T10:02:02.000Z</time>
      </trkpt>
      <trkpt lat="47.56363" lon="6.74062">
        <ele>405.1</ele>
        <time>2014-11-09T10:02:03.000Z</time>
      </trkpt>
      <trkpt lat="47.56368" lon="6.74057">
        <ele>404.8</ele>
        <time>2014-11-09T10:02:04.000Z</time>
      </trkpt>
      <trkpt lat="47.56374" lon="6.7405">
        <ele>403.6</ele>
        <time>2014-11-09T10:02:05.000Z</time>
      </trkpt>
      <trkpt lat="47.5638" lon="6.74044">
        <ele>403.2</ele>
        <time>2014-11-09T10:02:06.000Z</time>
      </trkpt>
      <trkpt lat="47.56386" lon="6.74039">
        <ele>403.2</ele>
        <time>2014-11-09T10:02:07.000Z</time>
      </trkpt>
      <trkpt lat="47.56392" lon="6.74035">
        <ele>403</ele>
        <time>2014-11-09T10:02:08.000Z</time>
      </trkpt>
      <trkpt lat="47.56397" lon="6.74028">
        <ele>400.3</ele>
        <time>2014-11-09T10:02:09.000Z</time>
      </trkpt>
      <trkpt lat="47.56401" lon="6.74021">
        <ele>397</ele>
        <time>2014-11-09T10:02:10.000Z</time>
      </trkpt>
      <trkpt lat="47.56405" lon="6.74018">
        <ele>396.8</ele>
        <time>2014-11-09T10:02:11.000Z</time>
      </trkpt>
      <trkpt lat="47.56409" lon="6.74016">
        <ele>397.1</ele>
        <time>2014-11-09T10:02:12.000Z</time>
      </trkpt>
      <trkpt lat="47.56412" lon="6.74015">
        <ele>396.7</ele>
        <time>2014-11-09T10:02:13.000Z</time>
      </trkpt>
      <trkpt lat="47.56416" lon="6.74015">
        <ele>397.6</ele>
        <time>2014-11-09T10:02:16.000Z</time>
      </trkpt>
      <trkpt lat="47.56419" lon="6.74011">
        <ele>395.5</ele>
        <time>2014-11-09T10:02:17.000Z</time>
      </trkpt>
      <trkpt lat="47.56421" lon="6.74006">
        <ele>394.8</ele>
        <time>2014-11-09T10:02:18.000Z</time>
      </trkpt>
      <trkpt lat="47.56423" lon="6.74001">
        <ele>394.7</ele>
        <time>2014-11-09T10:02:19.000Z</time>
      </trkpt>
      <trkpt lat="47.56426" lon="6.73997">
        <ele>395</ele>
        <time>2014-11-09T10:02:20.000Z</time>
      </trkpt>
      <trkpt lat="47.56427" lon="6.7399">
        <ele>393.4</ele>
        <time>2014-11-09T10:02:21.000Z</time>
      </trkpt>
      <trkpt lat="47.56431" lon="6.73981">
        <ele>394.5</ele>
        <time>2014-11-09T10:02:22.000Z</time>
      </trkpt>
      <trkpt lat="47.56435" lon="6.73975">
        <ele>393.2</ele>
        <time>2014-11-09T10:02:23.000Z</time>
      </trkpt>
      <trkpt lat="47.56441" lon="6.7397">
        <ele>391.3</ele>
        <time>2014-11-09T10:02:24.000Z</time>
      </trkpt>
      <trkpt lat="47.56447" lon="6.73967">
        <ele>390.5</ele>
        <time>2014-11-09T10:02:25.000Z</time>
      </trkpt>
      <trkpt lat="47.56453" lon="6.73962">
        <ele>389.2</ele>
        <time>2014-11-09T10:02:26.000Z</time>
      </trkpt>
      <trkpt lat="47.56458" lon="6.73954">
        <ele>385.4</ele>
        <time>2014-11-09T10:02:27.000Z</time>
      </trkpt>
      <trkpt lat="47.56463" lon="6.73948">
        <ele>381.4</ele>
        <time>2014-11-09T10:02:28.000Z</time>
      </trkpt>
      <trkpt lat="47.5647" lon="6.73947">
        <ele>380.7</ele>
        <time>2014-11-09T10:02:29.000Z</time>
      </trkpt>
      <trkpt lat="47.56477" lon="6.73948">
        <ele>379.5</ele>
        <time>2014-11-09T10:02:30.000Z</time>
      </trkpt>
      <trkpt lat="47.56483" lon="6.73951">
        <ele>379.4</ele>
        <time>2014-11-09T10:02:31.000Z</time>
      </trkpt>
      <trkpt lat="47.5649" lon="6.73954">
        <ele>379.6</ele>
        <time>2014-11-09T10:02:32.000Z</time>
      </trkpt>
      <trkpt lat="47.56496" lon="6.73958">
        <ele>379.9</ele>
        <time>2014-11-09T10:02:33.000Z</time>
      </trkpt>
      <trkpt lat="47.56502" lon="6.73961">
        <ele>379.7</ele>
        <time>2014-11-09T10:02:34.000Z</time>
      </trkpt>
      <trkpt lat="47.56507" lon="6.73962">
        <ele>378</ele>
        <time>2014-11-09T10:02:35.000Z</time>
      </trkpt>
      <trkpt lat="47.56512" lon="6.73963">
        <ele>378.1</ele>
        <time>2014-11-09T10:02:36.000Z</time>
      </trkpt>
      <trkpt lat="47.56517" lon="6.73963">
        <ele>378</ele>
        <time>2014-11-09T10:02:37.000Z</time>
      </trkpt>
      <trkpt lat="47.56521" lon="6.73963">
        <ele>377.3</ele>
        <time>2014-11-09T10:02:38.000Z</time>
      </trkpt>
      <trkpt lat="47.56521" lon="6.73961">
        <ele>377.2</ele>
        <time>2014-11-09T10:02:39.000Z</time>
      </trkpt>
      <trkpt lat="47.56524" lon="6.73961">
        <ele>377.7</ele>
        <time>2014-11-09T10:02:45.000Z</time>
      </trkpt>
      <trkpt lat="47.56527" lon="6.73959">
        <ele>376.4</ele>
        <time>2014-11-09T10:02:46.000Z</time>
      </trkpt>
      <trkpt lat="47.56531" lon="6.73958">
        <ele>377.2</ele>
        <time>2014-11-09T10:02:47.000Z</time>
      </trkpt>
      <trkpt lat="47.56535" lon="6.73957">
        <ele>377.7</ele>
        <time>2014-11-09T10:02:48.000Z</time>
      </trkpt>
      <trkpt lat="47.56538" lon="6.73955">
        <ele>377.4</ele>
        <time>2014-11-09T10:02:49.000Z</time>
      </trkpt>
      <trkpt lat="47.5654" lon="6.73954">
        <ele>377.4</ele>
        <time>2014-11-09T10:02:50.000Z</time>
      </trkpt>
      <trkpt lat="47.56543" lon="6.73953">
        <ele>377.9</ele>
        <time>2014-11-09T10:02:51.000Z</time>
      </trkpt>
      <trkpt lat="47.56546" lon="6.73953">
        <ele>377.8</ele>
        <time>2014-11-09T10:02:52.000Z</time>
      </trkpt>
      <trkpt lat="47.56549" lon="6.73954">
        <ele>378.4</ele>
        <time>2014-11-09T10:02:53.000Z</time>
      </trkpt>
      <trkpt lat="47.56559" lon="6.73948">
        <ele>375.3</ele>
        <time>2014-11-09T10:02:54.000Z</time>
      </trkpt>
      <trkpt lat="47.56564" lon="6.73948">
        <ele>373.4</ele>
        <time>2014-11-09T10:02:55.000Z</time>
      </trkpt>
      <trkpt lat="47.56569" lon="6.73949">
        <ele>372.9</ele>
        <time>2014-11-09T10:02:56.000Z</time>
      </trkpt>
      <trkpt lat="47.566" lon="6.73952">
        <ele>369.6</ele>
        <time>2014-11-09T10:03:04.000Z</time>
      </trkpt>
      <trkpt lat="47.56603" lon="6.73955">
        <ele>370.2</ele>
        <time>2014-11-09T10:03:05.000Z</time>
      </trkpt>
      <trkpt lat="47.56606" lon="6.73959">
        <ele>370.6</ele>
        <time>2014-11-09T10:03:06.000Z</time>
      </trkpt>
      <trkpt lat="47.56611" lon="6.73961">
        <ele>370.6</ele>
        <time>2014-11-09T10:03:07.000Z</time>
      </trkpt>
      <trkpt lat="47.56619" lon="6.73952">
        <ele>368.9</ele>
        <time>2014-11-09T10:03:08.000Z</time>
      </trkpt>
      <trkpt lat="47.56625" lon="6.73951">
        <ele>369.4</ele>
        <time>2014-11-09T10:03:09.000Z</time>
      </trkpt>
      <trkpt lat="47.56632" lon="6.73947">
        <ele>369.8</ele>
        <time>2014-11-09T10:03:10.000Z</time>
      </trkpt>
      <trkpt lat="47.56639" lon="6.73945">
        <ele>369.2</ele>
        <time>2014-11-09T10:03:11.000Z</time>
      </trkpt>
      <trkpt lat="47.56647" lon="6.73942">
        <ele>368.3</ele>
        <time>2014-11-09T10:03:12.000Z</time>
      </trkpt>
      <trkpt lat="47.56655" lon="6.73939">
        <ele>366.6</ele>
        <time>2014-11-09T10:03:13.000Z</time>
      </trkpt>
      <trkpt lat="47.56662" lon="6.73938">
        <ele>364.8</ele>
        <time>2014-11-09T10:03:14.000Z</time>
      </trkpt>
      <trkpt lat="47.56669" lon="6.73938">
        <ele>364.4</ele>
        <time>2014-11-09T10:03:15.000Z</time>
      </trkpt>
      <trkpt lat="47.56676" lon="6.73934">
        <ele>364.3</ele>
        <time>2014-11-09T10:03:16.000Z</time>
      </trkpt>
      <trkpt lat="47.56683" lon="6.73931">
        <ele>364.7</ele>
        <time>2014-11-09T10:03:17.000Z</time>
      </trkpt>
      <trkpt lat="47.56689" lon="6.73928">
        <ele>364.9</ele>
        <time>2014-11-09T10:03:18.000Z</time>
      </trkpt>
      <trkpt lat="47.56693" lon="6.73927">
        <ele>365</ele>
        <time>2014-11-09T10:03:19.000Z</time>
      </trkpt>
      <trkpt lat="47.56698" lon="6.73926">
        <ele>365.8</ele>
        <time>2014-11-09T10:03:20.000Z</time>
      </trkpt>
      <trkpt lat="47.56702" lon="6.73926">
        <ele>365.9</ele>
        <time>2014-11-09T10:03:21.000Z</time>
      </trkpt>
      <trkpt lat="47.56706" lon="6.73925">
        <ele>365.2</ele>
        <time>2014-11-09T10:03:22.000Z</time>
      </trkpt>
      <trkpt lat="47.5671" lon="6.73923">
        <ele>363.9</ele>
        <time>2014-11-09T10:03:23.000Z</time>
      </trkpt>
      <trkpt lat="47.56713" lon="6.73923">
        <ele>363.2</ele>
        <time>2014-11-09T10:03:24.000Z</time>
      </trkpt>
      <trkpt lat="47.56717" lon="6.73923">
        <ele>362.5</ele>
        <time>2014-11-09T10:03:25.000Z</time>
      </trkpt>
      <trkpt lat="47.56723" lon="6.73918">
        <ele>360.7</ele>
        <time>2014-11-09T10:03:26.000Z</time>
      </trkpt>
      <trkpt lat="47.56728" lon="6.73916">
        <ele>360.2</ele>
        <time>2014-11-09T10:03:27.000Z</time>
      </trkpt>
      <trkpt lat="47.56732" lon="6.73916">
        <ele>360.4</ele>
        <time>2014-11-09T10:03:28.000Z</time>
      </trkpt>
      <trkpt lat="47.56734" lon="6.73916">
        <ele>360.4</ele>
        <time>2014-11-09T10:03:29.000Z</time>
      </trkpt>
      <trkpt lat="47.56738" lon="6.73912">
        <ele>358.3</ele>
        <time>2014-11-09T10:03:31.000Z</time>
      </trkpt>
      <trkpt lat="47.56741" lon="6.73914">
        <ele>358.8</ele>
        <time>2014-11-09T10:03:32.000Z</time>
      </trkpt>
      <trkpt lat="47.56744" lon="6.73913">
        <ele>358.8</ele>
        <time>2014-11-09T10:03:33.000Z</time>
      </trkpt>
      <trkpt lat="47.56749" lon="6.73911">
        <ele>358.1</ele>
        <time>2014-11-09T10:03:34.000Z</time>
      </trkpt>
      <trkpt lat="47.56752" lon="6.73909">
        <ele>356.5</ele>
        <time>2014-11-09T10:03:35.000Z</time>
      </trkpt>
      <trkpt lat="47.56756" lon="6.73908">
        <ele>356.2</ele>
        <time>2014-11-09T10:03:36.000Z</time>
      </trkpt>
      <trkpt lat="47.5676" lon="6.73906">
        <ele>355.2</ele>
        <time>2014-11-09T10:03:37.000Z</time>
      </trkpt>
      <trkpt lat="47.56764" lon="6.73905">
        <ele>354.9</ele>
        <time>2014-11-09T10:03:38.000Z</time>
      </trkpt>
      <trkpt lat="47.56768" lon="6.73904">
        <ele>353.9</ele>
        <time>2014-11-09T10:03:39.000Z</time>
      </trkpt>
      <trkpt lat="47.56773" lon="6.73902">
        <ele>353.4</ele>
        <time>2014-11-09T10:03:40.000Z</time>
      </trkpt>
      <trkpt lat="47.56777" lon="6.73901">
        <ele>352.7</ele>
        <time>2014-11-09T10:03:41.000Z</time>
      </trkpt>
      <trkpt lat="47.56781" lon="6.739">
        <ele>351.8</ele>
        <time>2014-11-09T10:03:42.000Z</time>
      </trkpt>
      <trkpt lat="47.56786" lon="6.73899">
        <ele>350.9</ele>
        <time>2014-11-09T10:03:43.000Z</time>
      </trkpt>
      <trkpt lat="47.5679" lon="6.73897">
        <ele>350.6</ele>
        <time>2014-11-09T10:03:44.000Z</time>
      </trkpt>
      <trkpt lat="47.56795" lon="6.73897">
        <ele>350.6</ele>
        <time>2014-11-09T10:03:45.000Z</time>
      </trkpt>
      <trkpt lat="47.56799" lon="6.73897">
        <ele>350.8</ele>
        <time>2014-11-09T10:03:46.000Z</time>
      </trkpt>
      <trkpt lat="47.56807" lon="6.73888">
        <ele>352.9</ele>
        <time>2014-11-09T10:03:47.000Z</time>
      </trkpt>
      <trkpt lat="47.56812" lon="6.73882">
        <ele>352.5</ele>
        <time>2014-11-09T10:03:48.000Z</time>
      </trkpt>
      <trkpt lat="47.56816" lon="6.73877">
        <ele>353</ele>
        <time>2014-11-09T10:03:49.000Z</time>
      </trkpt>
      <trkpt lat="47.56821" lon="6.73872">
        <ele>353.6</ele>
        <time>2014-11-09T10:03:50.000Z</time>
      </trkpt>
      <trkpt lat="47.56825" lon="6.73866">
        <ele>354.2</ele>
        <time>2014-11-09T10:03:51.000Z</time>
      </trkpt>
      <trkpt lat="47.5683" lon="6.73866">
        <ele>358.4</ele>
        <time>2014-11-09T10:03:52.000Z</time>
      </trkpt>
      <trkpt lat="47.56833" lon="6.7386">
        <ele>357.3</ele>
        <time>2014-11-09T10:03:53.000Z</time>
      </trkpt>
      <trkpt lat="47.56837" lon="6.73855">
        <ele>357.4</ele>
        <time>2014-11-09T10:03:54.000Z</time>
      </trkpt>
      <trkpt lat="47.56842" lon="6.73851">
        <ele>358.9</ele>
        <time>2014-11-09T10:03:55.000Z</time>
      </trkpt>
      <trkpt lat="47.56846" lon="6.73845">
        <ele>358.3</ele>
        <time>2014-11-09T10:03:56.000Z</time>
      </trkpt>
      <trkpt lat="47.56855" lon="6.73839">
        <ele>358.5</ele>
        <time>2014-11-09T10:03:59.000Z</time>
      </trkpt>
      <trkpt lat="47.56857" lon="6.73833">
        <ele>362</ele>
        <time>2014-11-09T10:04:00.000Z</time>
      </trkpt>
      <trkpt lat="47.5686" lon="6.7383">
        <ele>363.1</ele>
        <time>2014-11-09T10:04:01.000Z</time>
      </trkpt>
      <trkpt lat="47.56862" lon="6.73827">
        <ele>363.9</ele>
        <time>2014-11-09T10:04:02.000Z</time>
      </trkpt>
      <trkpt lat="47.56866" lon="6.73821">
        <ele>363.4</ele>
        <time>2014-11-09T10:04:03.000Z</time>
      </trkpt>
      <trkpt lat="47.5687" lon="6.73816">
        <ele>363.5</ele>
        <time>2014-11-09T10:04:04.000Z</time>
      </trkpt>
      <trkpt lat="47.56874" lon="6.7381">
        <ele>364.1</ele>
        <time>2014-11-09T10:04:05.000Z</time>
      </trkpt>
      <trkpt lat="47.5688" lon="6.73804">
        <ele>365.8</ele>
        <time>2014-11-09T10:04:06.000Z</time>
      </trkpt>
      <trkpt lat="47.56885" lon="6.73798">
        <ele>366.3</ele>
        <time>2014-11-09T10:04:07.000Z</time>
      </trkpt>
      <trkpt lat="47.5689" lon="6.73795">
        <ele>366.6</ele>
        <time>2014-11-09T10:04:08.000Z</time>
      </trkpt>
      <trkpt lat="47.56894" lon="6.73788">
        <ele>365.8</ele>
        <time>2014-11-09T10:04:09.000Z</time>
      </trkpt>
      <trkpt lat="47.56899" lon="6.73783">
        <ele>365</ele>
        <time>2014-11-09T10:04:10.000Z</time>
      </trkpt>
      <trkpt lat="47.56903" lon="6.73779">
        <ele>365.2</ele>
        <time>2014-11-09T10:04:11.000Z</time>
      </trkpt>
      <trkpt lat="47.56906" lon="6.73775">
        <ele>365.9</ele>
        <time>2014-11-09T10:04:12.000Z</time>
      </trkpt>
      <trkpt lat="47.5691" lon="6.73762">
        <ele>364.1</ele>
        <time>2014-11-09T10:04:13.000Z</time>
      </trkpt>
      <trkpt lat="47.56915" lon="6.73755">
        <ele>362.1</ele>
        <time>2014-11-09T10:04:14.000Z</time>
      </trkpt>
      <trkpt lat="47.56918" lon="6.73749">
        <ele>362.2</ele>
        <time>2014-11-09T10:04:15.000Z</time>
      </trkpt>
      <trkpt lat="47.5692" lon="6.73741">
        <ele>362.5</ele>
        <time>2014-11-09T10:04:16.000Z</time>
      </trkpt>
      <trkpt lat="47.5692" lon="6.73725">
        <ele>362.4</ele>
        <time>2014-11-09T10:04:17.000Z</time>
      </trkpt>
      <trkpt lat="47.56921" lon="6.73712">
        <ele>360.8</ele>
        <time>2014-11-09T10:04:18.000Z</time>
      </trkpt>
      <trkpt lat="47.56922" lon="6.73704">
        <ele>360</ele>
        <time>2014-11-09T10:04:19.000Z</time>
      </trkpt>
      <trkpt lat="47.56924" lon="6.73696">
        <ele>358.6</ele>
        <time>2014-11-09T10:04:20.000Z</time>
      </trkpt>
      <trkpt lat="47.56925" lon="6.73687">
        <ele>357.2</ele>
        <time>2014-11-09T10:04:21.000Z</time>
      </trkpt>
      <trkpt lat="47.56929" lon="6.73677">
        <ele>361.1</ele>
        <time>2014-11-09T10:04:22.000Z</time>
      </trkpt>
      <trkpt lat="47.56931" lon="6.73668">
        <ele>361</ele>
        <time>2014-11-09T10:04:23.000Z</time>
      </trkpt>
      <trkpt lat="47.56932" lon="6.73663">
        <ele>360.3</ele>
        <time>2014-11-09T10:04:24.000Z</time>
      </trkpt>
      <trkpt lat="47.56933" lon="6.73657">
        <ele>359.1</ele>
        <time>2014-11-09T10:04:25.000Z</time>
      </trkpt>
      <trkpt lat="47.56937" lon="6.73651">
        <ele>358.8</ele>
        <time>2014-11-09T10:04:26.000Z</time>
      </trkpt>
      <trkpt lat="47.5694" lon="6.73644">
        <ele>359.6</ele>
        <time>2014-11-09T10:04:27.000Z</time>
      </trkpt>
      <trkpt lat="47.56946" lon="6.73635">
        <ele>361.1</ele>
        <time>2014-11-09T10:04:28.000Z</time>
      </trkpt>
      <trkpt lat="47.5695" lon="6.73627">
        <ele>360.6</ele>
        <time>2014-11-09T10:04:29.000Z</time>
      </trkpt>
      <trkpt lat="47.56954" lon="6.73618">
        <ele>360.8</ele>
        <time>2014-11-09T10:04:30.000Z</time>
      </trkpt>
      <trkpt lat="47.5696" lon="6.73611">
        <ele>361.1</ele>
        <time>2014-11-09T10:04:31.000Z</time>
      </trkpt>
      <trkpt lat="47.56965" lon="6.73605">
        <ele>361.2</ele>
        <time>2014-11-09T10:04:32.000Z</time>
      </trkpt>
      <trkpt lat="47.56968" lon="6.73599">
        <ele>361.2</ele>
        <time>2014-11-09T10:04:33.000Z</time>
      </trkpt>
      <trkpt lat="47.56975" lon="6.73595">
        <ele>360.7</ele>
        <time>2014-11-09T10:04:34.000Z</time>
      </trkpt>
      <trkpt lat="47.56981" lon="6.73589">
        <ele>361.1</ele>
        <time>2014-11-09T10:04:35.000Z</time>
      </trkpt>
      <trkpt lat="47.56988" lon="6.73584">
        <ele>361.5</ele>
        <time>2014-11-09T10:04:36.000Z</time>
      </trkpt>
      <trkpt lat="47.56994" lon="6.73581">
        <ele>362</ele>
        <time>2014-11-09T10:04:37.000Z</time>
      </trkpt>
      <trkpt lat="47.57001" lon="6.73576">
        <ele>362.8</ele>
        <time>2014-11-09T10:04:38.000Z</time>
      </trkpt>
      <trkpt lat="47.57008" lon="6.73572">
        <ele>363.1</ele>
        <time>2014-11-09T10:04:39.000Z</time>
      </trkpt>
      <trkpt lat="47.57015" lon="6.73569">
        <ele>363.7</ele>
        <time>2014-11-09T10:04:40.000Z</time>
      </trkpt>
      <trkpt lat="47.57022" lon="6.73566">
        <ele>364.1</ele>
        <time>2014-11-09T10:04:41.000Z</time>
      </trkpt>
      <trkpt lat="47.5703" lon="6.73559">
        <ele>363.3</ele>
        <time>2014-11-09T10:04:42.000Z</time>
      </trkpt>
      <trkpt lat="47.57035" lon="6.73551">
        <ele>362.7</ele>
        <time>2014-11-09T10:04:43.000Z</time>
      </trkpt>
      <trkpt lat="47.57039" lon="6.73541">
        <ele>362.3</ele>
        <time>2014-11-09T10:04:44.000Z</time>
      </trkpt>
      <trkpt lat="47.57041" lon="6.73534">
        <ele>361.5</ele>
        <time>2014-11-09T10:04:45.000Z</time>
      </trkpt>
      <trkpt lat="47.57044" lon="6.73528">
        <ele>361.2</ele>
        <time>2014-11-09T10:04:46.000Z</time>
      </trkpt>
      <trkpt lat="47.57049" lon="6.73524">
        <ele>361.7</ele>
        <time>2014-11-09T10:04:47.000Z</time>
      </trkpt>
      <trkpt lat="47.57054" lon="6.73523">
        <ele>362.5</ele>
        <time>2014-11-09T10:04:48.000Z</time>
      </trkpt>
      <trkpt lat="47.5706" lon="6.73522">
        <ele>362.9</ele>
        <time>2014-11-09T10:04:49.000Z</time>
      </trkpt>
      <trkpt lat="47.57065" lon="6.73519">
        <ele>363.2</ele>
        <time>2014-11-09T10:04:50.000Z</time>
      </trkpt>
      <trkpt lat="47.5707" lon="6.73517">
        <ele>365.6</ele>
        <time>2014-11-09T10:04:51.000Z</time>
      </trkpt>
      <trkpt lat="47.57076" lon="6.73517">
        <ele>366.7</ele>
        <time>2014-11-09T10:04:52.000Z</time>
      </trkpt>
      <trkpt lat="47.57077" lon="6.73507">
        <ele>366.3</ele>
        <time>2014-11-09T10:04:53.000Z</time>
      </trkpt>
      <trkpt lat="47.57079" lon="6.73501">
        <ele>366.1</ele>
        <time>2014-11-09T10:04:54.000Z</time>
      </trkpt>
      <trkpt lat="47.5708" lon="6.73496">
        <ele>366.7</ele>
        <time>2014-11-09T10:04:55.000Z</time>
      </trkpt>
      <trkpt lat="47.57081" lon="6.7349">
        <ele>367.3</ele>
        <time>2014-11-09T10:04:56.000Z</time>
      </trkpt>
      <trkpt lat="47.57083" lon="6.73462">
        <ele>368.2</ele>
        <time>2014-11-09T10:05:04.000Z</time>
      </trkpt>
      <trkpt lat="47.57083" lon="6.73458">
        <ele>367.4</ele>
        <time>2014-11-09T10:05:05.000Z</time>
      </trkpt>
      <trkpt lat="47.57083" lon="6.73454">
        <ele>366.7</ele>
        <time>2014-11-09T10:05:06.000Z</time>
      </trkpt>
      <trkpt lat="47.57083" lon="6.73448">
        <ele>367</ele>
        <time>2014-11-09T10:05:07.000Z</time>
      </trkpt>
      <trkpt lat="47.57084" lon="6.73444">
        <ele>367.6</ele>
        <time>2014-11-09T10:05:08.000Z</time>
      </trkpt>
      <trkpt lat="47.57085" lon="6.73439">
        <ele>368.3</ele>
        <time>2014-11-09T10:05:09.000Z</time>
      </trkpt>
      <trkpt lat="47.57086" lon="6.73434">
        <ele>367.6</ele>
        <time>2014-11-09T10:05:10.000Z</time>
      </trkpt>
      <trkpt lat="47.57086" lon="6.7343">
        <ele>367.8</ele>
        <time>2014-11-09T10:05:11.000Z</time>
      </trkpt>
      <trkpt lat="47.57087" lon="6.73425">
        <ele>368.8</ele>
        <time>2014-11-09T10:05:12.000Z</time>
      </trkpt>
      <trkpt lat="47.57087" lon="6.73421">
        <ele>369</ele>
        <time>2014-11-09T10:05:13.000Z</time>
      </trkpt>
      <trkpt lat="47.57088" lon="6.73417">
        <ele>368.9</ele>
        <time>2014-11-09T10:05:14.000Z</time>
      </trkpt>
      <trkpt lat="47.57089" lon="6.73413">
        <ele>369.3</ele>
        <time>2014-11-09T10:05:15.000Z</time>
      </trkpt>
      <trkpt lat="47.57089" lon="6.73409">
        <ele>370.6</ele>
        <time>2014-11-09T10:05:16.000Z</time>
      </trkpt>
      <trkpt lat="47.5709" lon="6.73405">
        <ele>370.5</ele>
        <time>2014-11-09T10:05:17.000Z</time>
      </trkpt>
      <trkpt lat="47.57091" lon="6.734">
        <ele>370.8</ele>
        <time>2014-11-09T10:05:18.000Z</time>
      </trkpt>
      <trkpt lat="47.57091" lon="6.73396">
        <ele>371.6</ele>
        <time>2014-11-09T10:05:19.000Z</time>
      </trkpt>
      <trkpt lat="47.57092" lon="6.73391">
        <ele>371.7</ele>
        <time>2014-11-09T10:05:20.000Z</time>
      </trkpt>
      <trkpt lat="47.57093" lon="6.73387">
        <ele>372.1</ele>
        <time>2014-11-09T10:05:21.000Z</time>
      </trkpt>
      <trkpt lat="47.57094" lon="6.73383">
        <ele>372.5</ele>
        <time>2014-11-09T10:05:22.000Z</time>
      </trkpt>
      <trkpt lat="47.57095" lon="6.73378">
        <ele>373.3</ele>
        <time>2014-11-09T10:05:23.000Z</time>
      </trkpt>
      <trkpt lat="47.57096" lon="6.73374">
        <ele>373.3</ele>
        <time>2014-11-09T10:05:24.000Z</time>
      </trkpt>
      <trkpt lat="47.57096" lon="6.7337">
        <ele>373.5</ele>
        <time>2014-11-09T10:05:25.000Z</time>
      </trkpt>
      <trkpt lat="47.57097" lon="6.73366">
        <ele>375.4</ele>
        <time>2014-11-09T10:05:26.000Z</time>
      </trkpt>
      <trkpt lat="47.57098" lon="6.73363">
        <ele>376.5</ele>
        <time>2014-11-09T10:05:27.000Z</time>
      </trkpt>
      <trkpt lat="47.57099" lon="6.7336">
        <ele>377.1</ele>
        <time>2014-11-09T10:05:28.000Z</time>
      </trkpt>
      <trkpt lat="47.57099" lon="6.73356">
        <ele>376.4</ele>
        <time>2014-11-09T10:05:29.000Z</time>
      </trkpt>
      <trkpt lat="47.57099" lon="6.73352">
        <ele>375.6</ele>
        <time>2014-11-09T10:05:30.000Z</time>
      </trkpt>
      <trkpt lat="47.571" lon="6.73347">
        <ele>374.9</ele>
        <time>2014-11-09T10:05:31.000Z</time>
      </trkpt>
      <trkpt lat="47.571" lon="6.73343">
        <ele>375.8</ele>
        <time>2014-11-09T10:05:32.000Z</time>
      </trkpt>
      <trkpt lat="47.571" lon="6.73339">
        <ele>374.1</ele>
        <time>2014-11-09T10:05:33.000Z</time>
      </trkpt>
      <trkpt lat="47.57099" lon="6.73334">
        <ele>373.3</ele>
        <time>2014-11-09T10:05:34.000Z</time>
      </trkpt>
      <trkpt lat="47.57099" lon="6.7333">
        <ele>372.6</ele>
        <time>2014-11-09T10:05:35.000Z</time>
      </trkpt>
      <trkpt lat="47.57098" lon="6.73326">
        <ele>372.4</ele>
        <time>2014-11-09T10:05:36.000Z</time>
      </trkpt>
      <trkpt lat="47.57097" lon="6.73322">
        <ele>371</ele>
        <time>2014-11-09T10:05:37.000Z</time>
      </trkpt>
      <trkpt lat="47.57096" lon="6.73319">
        <ele>371.4</ele>
        <time>2014-11-09T10:05:38.000Z</time>
      </trkpt>
      <trkpt lat="47.57095" lon="6.73315">
        <ele>371.2</ele>
        <time>2014-11-09T10:05:39.000Z</time>
      </trkpt>
      <trkpt lat="47.57094" lon="6.73311">
        <ele>370.8</ele>
        <time>2014-11-09T10:05:40.000Z</time>
      </trkpt>
      <trkpt lat="47.57094" lon="6.73308">
        <ele>371.1</ele>
        <time>2014-11-09T10:05:41.000Z</time>
      </trkpt>
      <trkpt lat="47.57093" lon="6.73305">
        <ele>369.2</ele>
        <time>2014-11-09T10:05:42.000Z</time>
      </trkpt>
      <trkpt lat="47.57092" lon="6.73301">
        <ele>368.3</ele>
        <time>2014-11-09T10:05:43.000Z</time>
      </trkpt>
      <trkpt lat="47.5709" lon="6.73298">
        <ele>368</ele>
        <time>2014-11-09T10:05:44.000Z</time>
      </trkpt>
      <trkpt lat="47.57089" lon="6.73294">
        <ele>368.2</ele>
        <time>2014-11-09T10:05:45.000Z</time>
      </trkpt>
      <trkpt lat="47.57089" lon="6.73291">
        <ele>369.4</ele>
        <time>2014-11-09T10:05:46.000Z</time>
      </trkpt>
      <trkpt lat="47.57089" lon="6.73285">
        <ele>369.9</ele>
        <time>2014-11-09T10:05:48.000Z</time>
      </trkpt>
      <trkpt lat="47.57089" lon="6.73282">
        <ele>369.9</ele>
        <time>2014-11-09T10:05:49.000Z</time>
      </trkpt>
      <trkpt lat="47.57088" lon="6.73275">
        <ele>371.3</ele>
        <time>2014-11-09T10:05:51.000Z</time>
      </trkpt>
      <trkpt lat="47.57088" lon="6.73272">
        <ele>372</ele>
        <time>2014-11-09T10:05:52.000Z</time>
      </trkpt>
      <trkpt lat="47.57088" lon="6.73266">
        <ele>372.4</ele>
        <time>2014-11-09T10:05:54.000Z</time>
      </trkpt>
      <trkpt lat="47.57089" lon="6.73263">
        <ele>372.2</ele>
        <time>2014-11-09T10:05:55.000Z</time>
      </trkpt>
      <trkpt lat="47.57088" lon="6.73259">
        <ele>372.5</ele>
        <time>2014-11-09T10:05:56.000Z</time>
      </trkpt>
      <trkpt lat="47.57088" lon="6.73249">
        <ele>373</ele>
        <time>2014-11-09T10:05:59.000Z</time>
      </trkpt>
      <trkpt lat="47.57088" lon="6.73245">
        <ele>373.4</ele>
        <time>2014-11-09T10:06:00.000Z</time>
      </trkpt>
      <trkpt lat="47.57088" lon="6.73242">
        <ele>374</ele>
        <time>2014-11-09T10:06:01.000Z</time>
      </trkpt>
      <trkpt lat="47.57088" lon="6.73238">
        <ele>373.9</ele>
        <time>2014-11-09T10:06:02.000Z</time>
      </trkpt>
      <trkpt lat="47.57087" lon="6.73234">
        <ele>373.8</ele>
        <time>2014-11-09T10:06:03.000Z</time>
      </trkpt>
      <trkpt lat="47.57087" lon="6.73231">
        <ele>373.8</ele>
        <time>2014-11-09T10:06:04.000Z</time>
      </trkpt>
      <trkpt lat="47.57087" lon="6.73227">
        <ele>373.4</ele>
        <time>2014-11-09T10:06:05.000Z</time>
      </trkpt>
      <trkpt lat="47.57087" lon="6.73224">
        <ele>373.6</ele>
        <time>2014-11-09T10:06:06.000Z</time>
      </trkpt>
      <trkpt lat="47.57086" lon="6.7322">
        <ele>373.6</ele>
        <time>2014-11-09T10:06:07.000Z</time>
      </trkpt>
      <trkpt lat="47.57086" lon="6.73216">
        <ele>373.4</ele>
        <time>2014-11-09T10:06:08.000Z</time>
      </trkpt>
      <trkpt lat="47.57086" lon="6.73212">
        <ele>373.5</ele>
        <time>2014-11-09T10:06:09.000Z</time>
      </trkpt>
      <trkpt lat="47.57086" lon="6.73208">
        <ele>373.5</ele>
        <time>2014-11-09T10:06:10.000Z</time>
      </trkpt>
      <trkpt lat="47.57086" lon="6.73205">
        <ele>373.9</ele>
        <time>2014-11-09T10:06:11.000Z</time>
      </trkpt>
      <trkpt lat="47.57086" lon="6.73201">
        <ele>373.7</ele>
        <time>2014-11-09T10:06:12.000Z</time>
      </trkpt>
      <trkpt lat="47.57086" lon="6.73197">
        <ele>373.9</ele>
        <time>2014-11-09T10:06:13.000Z</time>
      </trkpt>
      <trkpt lat="47.57086" lon="6.73194">
        <ele>374.3</ele>
        <time>2014-11-09T10:06:14.000Z</time>
      </trkpt>
      <trkpt lat="47.57086" lon="6.7319">
        <ele>374.7</ele>
        <time>2014-11-09T10:06:15.000Z</time>
      </trkpt>
      <trkpt lat="47.57086" lon="6.73186">
        <ele>375</ele>
        <time>2014-11-09T10:06:16.000Z</time>
      </trkpt>
      <trkpt lat="47.57086" lon="6.73182">
        <ele>375.1</ele>
        <time>2014-11-09T10:06:17.000Z</time>
      </trkpt>
      <trkpt lat="47.57086" lon="6.73178">
        <ele>375.4</ele>
        <time>2014-11-09T10:06:18.000Z</time>
      </trkpt>
      <trkpt lat="47.57086" lon="6.73175">
        <ele>374.8</ele>
        <time>2014-11-09T10:06:19.000Z</time>
      </trkpt>
      <trkpt lat="47.57086" lon="6.73171">
        <ele>374.8</ele>
        <time>2014-11-09T10:06:20.000Z</time>
      </trkpt>
      <trkpt lat="47.57085" lon="6.73167">
        <ele>375.3</ele>
        <time>2014-11-09T10:06:21.000Z</time>
      </trkpt>
      <trkpt lat="47.57085" lon="6.73164">
        <ele>375.6</ele>
        <time>2014-11-09T10:06:22.000Z</time>
      </trkpt>
      <trkpt lat="47.57085" lon="6.73161">
        <ele>375.4</ele>
        <time>2014-11-09T10:06:23.000Z</time>
      </trkpt>
      <trkpt lat="47.57085" lon="6.73154">
        <ele>377</ele>
        <time>2014-11-09T10:06:25.000Z</time>
      </trkpt>
      <trkpt lat="47.57085" lon="6.73151">
        <ele>377.2</ele>
        <time>2014-11-09T10:06:26.000Z</time>
      </trkpt>
      <trkpt lat="47.57085" lon="6.73145">
        <ele>377.7</ele>
        <time>2014-11-09T10:06:28.000Z</time>
      </trkpt>
      <trkpt lat="47.57084" lon="6.73142">
        <ele>377.1</ele>
        <time>2014-11-09T10:06:29.000Z</time>
      </trkpt>
      <trkpt lat="47.57084" lon="6.73137">
        <ele>377.6</ele>
        <time>2014-11-09T10:06:31.000Z</time>
      </trkpt>
      <trkpt lat="47.57084" lon="6.73134">
        <ele>378.3</ele>
        <time>2014-11-09T10:06:32.000Z</time>
      </trkpt>
      <trkpt lat="47.57084" lon="6.73127">
        <ele>379.2</ele>
        <time>2014-11-09T10:06:34.000Z</time>
      </trkpt>
      <trkpt lat="47.57084" lon="6.73124">
        <ele>379.5</ele>
        <time>2014-11-09T10:06:35.000Z</time>
      </trkpt>
      <trkpt lat="47.57082" lon="6.73118">
        <ele>378</ele>
        <time>2014-11-09T10:06:37.000Z</time>
      </trkpt>
      <trkpt lat="47.57081" lon="6.73114">
        <ele>378</ele>
        <time>2014-11-09T10:06:38.000Z</time>
      </trkpt>
      <trkpt lat="47.5708" lon="6.73111">
        <ele>379.2</ele>
        <time>2014-11-09T10:06:39.000Z</time>
      </trkpt>
      <trkpt lat="47.57079" lon="6.73108">
        <ele>380.1</ele>
        <time>2014-11-09T10:06:40.000Z</time>
      </trkpt>
      <trkpt lat="47.57079" lon="6.73105">
        <ele>380.4</ele>
        <time>2014-11-09T10:06:41.000Z</time>
      </trkpt>
      <trkpt lat="47.57078" lon="6.73101">
        <ele>378.8</ele>
        <time>2014-11-09T10:06:42.000Z</time>
      </trkpt>
      <trkpt lat="47.57077" lon="6.73098">
        <ele>379.6</ele>
        <time>2014-11-09T10:06:43.000Z</time>
      </trkpt>
      <trkpt lat="47.57076" lon="6.73095">
        <ele>379.6</ele>
        <time>2014-11-09T10:06:44.000Z</time>
      </trkpt>
      <trkpt lat="47.57076" lon="6.73089">
        <ele>380.3</ele>
        <time>2014-11-09T10:06:46.000Z</time>
      </trkpt>
      <trkpt lat="47.57075" lon="6.73087">
        <ele>379.9</ele>
        <time>2014-11-09T10:06:47.000Z</time>
      </trkpt>
      <trkpt lat="47.57075" lon="6.73083">
        <ele>382.1</ele>
        <time>2014-11-09T10:06:49.000Z</time>
      </trkpt>
      <trkpt lat="47.57075" lon="6.7308">
        <ele>383.2</ele>
        <time>2014-11-09T10:06:50.000Z</time>
      </trkpt>
      <trkpt lat="47.57074" lon="6.73075">
        <ele>383.4</ele>
        <time>2014-11-09T10:06:52.000Z</time>
      </trkpt>
      <trkpt lat="47.57074" lon="6.73072">
        <ele>383.6</ele>
        <time>2014-11-09T10:06:53.000Z</time>
      </trkpt>
      <trkpt lat="47.57073" lon="6.73066">
        <ele>384.1</ele>
        <time>2014-11-09T10:06:55.000Z</time>
      </trkpt>
      <trkpt lat="47.57073" lon="6.73063">
        <ele>383.9</ele>
        <time>2014-11-09T10:06:56.000Z</time>
      </trkpt>
      <trkpt lat="47.5707" lon="6.73042">
        <ele>387.5</ele>
        <time>2014-11-09T10:07:04.000Z</time>
      </trkpt>
      <trkpt lat="47.57071" lon="6.73038">
        <ele>391</ele>
        <time>2014-11-09T10:07:06.000Z</time>
      </trkpt>
      <trkpt lat="47.57072" lon="6.73035">
        <ele>391.4</ele>
        <time>2014-11-09T10:07:07.000Z</time>
      </trkpt>
      <trkpt lat="47.57073" lon="6.73029">
        <ele>392.8</ele>
        <time>2014-11-09T10:07:09.000Z</time>
      </trkpt>
      <trkpt lat="47.57073" lon="6.73027">
        <ele>393.7</ele>
        <time>2014-11-09T10:07:10.000Z</time>
      </trkpt>
      <trkpt lat="47.57071" lon="6.73022">
        <ele>392.2</ele>
        <time>2014-11-09T10:07:12.000Z</time>
      </trkpt>
      <trkpt lat="47.5707" lon="6.73019">
        <ele>390.8</ele>
        <time>2014-11-09T10:07:13.000Z</time>
      </trkpt>
      <trkpt lat="47.57069" lon="6.73015">
        <ele>390</ele>
        <time>2014-11-09T10:07:14.000Z</time>
      </trkpt>
      <trkpt lat="47.57068" lon="6.73012">
        <ele>389</ele>
        <time>2014-11-09T10:07:15.000Z</time>
      </trkpt>
      <trkpt lat="47.57067" lon="6.73009">
        <ele>388.3</ele>
        <time>2014-11-09T10:07:16.000Z</time>
      </trkpt>
      <trkpt lat="47.57066" lon="6.73005">
        <ele>388.2</ele>
        <time>2014-11-09T10:07:17.000Z</time>
      </trkpt>
      <trkpt lat="47.57065" lon="6.73">
        <ele>389.3</ele>
        <time>2014-11-09T10:07:19.000Z</time>
      </trkpt>
      <trkpt lat="47.57065" lon="6.72997">
        <ele>389.2</ele>
        <time>2014-11-09T10:07:20.000Z</time>
      </trkpt>
      <trkpt lat="47.57064" lon="6.72992">
        <ele>388.8</ele>
        <time>2014-11-09T10:07:22.000Z</time>
      </trkpt>
      <trkpt lat="47.57064" lon="6.72989">
        <ele>389.8</ele>
        <time>2014-11-09T10:07:23.000Z</time>
      </trkpt>
      <trkpt lat="47.57063" lon="6.72986">
        <ele>389.7</ele>
        <time>2014-11-09T10:07:24.000Z</time>
      </trkpt>
      <trkpt lat="47.57063" lon="6.72982">
        <ele>390.3</ele>
        <time>2014-11-09T10:07:25.000Z</time>
      </trkpt>
      <trkpt lat="47.57062" lon="6.72976">
        <ele>391.7</ele>
        <time>2014-11-09T10:07:27.000Z</time>
      </trkpt>
      <trkpt lat="47.57062" lon="6.72974">
        <ele>392.2</ele>
        <time>2014-11-09T10:07:28.000Z</time>
      </trkpt>
      <trkpt lat="47.57061" lon="6.72968">
        <ele>392.4</ele>
        <time>2014-11-09T10:07:30.000Z</time>
      </trkpt>
      <trkpt lat="47.5706" lon="6.72965">
        <ele>392.6</ele>
        <time>2014-11-09T10:07:31.000Z</time>
      </trkpt>
      <trkpt lat="47.5706" lon="6.72959">
        <ele>394.4</ele>
        <time>2014-11-09T10:07:33.000Z</time>
      </trkpt>
      <trkpt lat="47.5706" lon="6.72956">
        <ele>394.9</ele>
        <time>2014-11-09T10:07:34.000Z</time>
      </trkpt>
      <trkpt lat="47.57059" lon="6.72953">
        <ele>395.4</ele>
        <time>2014-11-09T10:07:35.000Z</time>
      </trkpt>
      <trkpt lat="47.57059" lon="6.72949">
        <ele>394.9</ele>
        <time>2014-11-09T10:07:36.000Z</time>
      </trkpt>
      <trkpt lat="47.57058" lon="6.72945">
        <ele>395</ele>
        <time>2014-11-09T10:07:37.000Z</time>
      </trkpt>
      <trkpt lat="47.57058" lon="6.72941">
        <ele>394.6</ele>
        <time>2014-11-09T10:07:38.000Z</time>
      </trkpt>
      <trkpt lat="47.57058" lon="6.72937">
        <ele>395.6</ele>
        <time>2014-11-09T10:07:39.000Z</time>
      </trkpt>
      <trkpt lat="47.57057" lon="6.72934">
        <ele>395.9</ele>
        <time>2014-11-09T10:07:40.000Z</time>
      </trkpt>
      <trkpt lat="47.57058" lon="6.72928">
        <ele>396.5</ele>
        <time>2014-11-09T10:07:42.000Z</time>
      </trkpt>
      <trkpt lat="47.57058" lon="6.72925">
        <ele>396.6</ele>
        <time>2014-11-09T10:07:43.000Z</time>
      </trkpt>
      <trkpt lat="47.57057" lon="6.72919">
        <ele>397</ele>
        <time>2014-11-09T10:07:45.000Z</time>
      </trkpt>
      <trkpt lat="47.57056" lon="6.72916">
        <ele>397.2</ele>
        <time>2014-11-09T10:07:46.000Z</time>
      </trkpt>
      <trkpt lat="47.57055" lon="6.72912">
        <ele>398</ele>
        <time>2014-11-09T10:07:48.000Z</time>
      </trkpt>
      <trkpt lat="47.57055" lon="6.72909">
        <ele>399</ele>
        <time>2014-11-09T10:07:49.000Z</time>
      </trkpt>
      <trkpt lat="47.57054" lon="6.72903">
        <ele>400.1</ele>
        <time>2014-11-09T10:07:52.000Z</time>
      </trkpt>
      <trkpt lat="47.57054" lon="6.729">
        <ele>399.9</ele>
        <time>2014-11-09T10:07:53.000Z</time>
      </trkpt>
      <trkpt lat="47.57053" lon="6.72895">
        <ele>402</ele>
        <time>2014-11-09T10:07:55.000Z</time>
      </trkpt>
      <trkpt lat="47.57052" lon="6.72892">
        <ele>402.6</ele>
        <time>2014-11-09T10:07:56.000Z</time>
      </trkpt>
      <trkpt lat="47.5705" lon="6.72886">
        <ele>404.1</ele>
        <time>2014-11-09T10:07:59.000Z</time>
      </trkpt>
      <trkpt lat="47.5705" lon="6.72885">
        <ele>405.4</ele>
        <time>2014-11-09T10:08:00.000Z</time>
      </trkpt>
      <trkpt lat="47.57046" lon="6.72883">
        <ele>404.1</ele>
        <time>2014-11-09T10:08:03.000Z</time>
      </trkpt>
      <trkpt lat="47.57044" lon="6.72883">
        <ele>403.8</ele>
        <time>2014-11-09T10:08:04.000Z</time>
      </trkpt>
      <trkpt lat="47.5704" lon="6.72885">
        <ele>402.9</ele>
        <time>2014-11-09T10:08:06.000Z</time>
      </trkpt>
      <trkpt lat="47.57038" lon="6.72886">
        <ele>402.3</ele>
        <time>2014-11-09T10:08:07.000Z</time>
      </trkpt>
      <trkpt lat="47.57035" lon="6.72887">
        <ele>402.2</ele>
        <time>2014-11-09T10:08:09.000Z</time>
      </trkpt>
      <trkpt lat="47.57033" lon="6.72888">
        <ele>402.3</ele>
        <time>2014-11-09T10:08:10.000Z</time>
      </trkpt>
      <trkpt lat="47.57029" lon="6.7289">
        <ele>402.9</ele>
        <time>2014-11-09T10:08:12.000Z</time>
      </trkpt>
      <trkpt lat="47.57028" lon="6.72891">
        <ele>401</ele>
        <time>2014-11-09T10:08:13.000Z</time>
      </trkpt>
      <trkpt lat="47.57026" lon="6.72895">
        <ele>402.4</ele>
        <time>2014-11-09T10:08:15.000Z</time>
      </trkpt>
      <trkpt lat="47.57025" lon="6.72897">
        <ele>402.1</ele>
        <time>2014-11-09T10:08:16.000Z</time>
      </trkpt>
      <trkpt lat="47.57023" lon="6.72902">
        <ele>398.7</ele>
        <time>2014-11-09T10:08:18.000Z</time>
      </trkpt>
      <trkpt lat="47.57023" lon="6.72905">
        <ele>398</ele>
        <time>2014-11-09T10:08:19.000Z</time>
      </trkpt>
      <trkpt lat="47.57023" lon="6.72908">
        <ele>395</ele>
        <time>2014-11-09T10:08:20.000Z</time>
      </trkpt>
      <trkpt lat="47.57022" lon="6.72911">
        <ele>393.8</ele>
        <time>2014-11-09T10:08:21.000Z</time>
      </trkpt>
      <trkpt lat="47.57021" lon="6.72918">
        <ele>395.8</ele>
        <time>2014-11-09T10:08:23.000Z</time>
      </trkpt>
      <trkpt lat="47.5702" lon="6.7292">
        <ele>395.5</ele>
        <time>2014-11-09T10:08:24.000Z</time>
      </trkpt>
      <trkpt lat="47.57017" lon="6.72923">
        <ele>395.6</ele>
        <time>2014-11-09T10:08:26.000Z</time>
      </trkpt>
      <trkpt lat="47.57016" lon="6.72925">
        <ele>395.5</ele>
        <time>2014-11-09T10:08:27.000Z</time>
      </trkpt>
      <trkpt lat="47.57015" lon="6.72931">
        <ele>395</ele>
        <time>2014-11-09T10:08:29.000Z</time>
      </trkpt>
      <trkpt lat="47.57014" lon="6.72933">
        <ele>393.9</ele>
        <time>2014-11-09T10:08:30.000Z</time>
      </trkpt>
      <trkpt lat="47.57013" lon="6.72939">
        <ele>393.7</ele>
        <time>2014-11-09T10:08:32.000Z</time>
      </trkpt>
      <trkpt lat="47.57012" lon="6.72942">
        <ele>393.7</ele>
        <time>2014-11-09T10:08:33.000Z</time>
      </trkpt>
      <trkpt lat="47.5701" lon="6.72946">
        <ele>395.8</ele>
        <time>2014-11-09T10:08:35.000Z</time>
      </trkpt>
      <trkpt lat="47.5701" lon="6.72948">
        <ele>396.4</ele>
        <time>2014-11-09T10:08:36.000Z</time>
      </trkpt>
      <trkpt lat="47.57008" lon="6.72954">
        <ele>393.8</ele>
        <time>2014-11-09T10:08:38.000Z</time>
      </trkpt>
      <trkpt lat="47.57008" lon="6.72956">
        <ele>395</ele>
        <time>2014-11-09T10:08:39.000Z</time>
      </trkpt>
      <trkpt lat="47.57006" lon="6.72962">
        <ele>395.9</ele>
        <time>2014-11-09T10:08:41.000Z</time>
      </trkpt>
      <trkpt lat="47.57006" lon="6.72965">
        <ele>396.1</ele>
        <time>2014-11-09T10:08:42.000Z</time>
      </trkpt>
      <trkpt lat="47.57004" lon="6.72969">
        <ele>395.7</ele>
        <time>2014-11-09T10:08:44.000Z</time>
      </trkpt>
      <trkpt lat="47.57004" lon="6.72971">
        <ele>395.8</ele>
        <time>2014-11-09T10:08:45.000Z</time>
      </trkpt>
      <trkpt lat="47.57" lon="6.72975">
        <ele>402.9</ele>
        <time>2014-11-09T10:08:48.000Z</time>
      </trkpt>
      <trkpt lat="47.56999" lon="6.72977">
        <ele>403.5</ele>
        <time>2014-11-09T10:08:49.000Z</time>
      </trkpt>
      <trkpt lat="47.56998" lon="6.7298">
        <ele>405.3</ele>
        <time>2014-11-09T10:08:51.000Z</time>
      </trkpt>
      <trkpt lat="47.56997" lon="6.72983">
        <ele>406.3</ele>
        <time>2014-11-09T10:08:52.000Z</time>
      </trkpt>
      <trkpt lat="47.56995" lon="6.72987">
        <ele>408.6</ele>
        <time>2014-11-09T10:08:54.000Z</time>
      </trkpt>
      <trkpt lat="47.56994" lon="6.72989">
        <ele>408.5</ele>
        <time>2014-11-09T10:08:55.000Z</time>
      </trkpt>
      <trkpt lat="47.56993" lon="6.72991">
        <ele>409.3</ele>
        <time>2014-11-09T10:08:56.000Z</time>
      </trkpt>
      <trkpt lat="47.56987" lon="6.7301">
        <ele>413.3</ele>
        <time>2014-11-09T10:09:04.000Z</time>
      </trkpt>
      <trkpt lat="47.56987" lon="6.73015">
        <ele>410.3</ele>
        <time>2014-11-09T10:09:06.000Z</time>
      </trkpt>
      <trkpt lat="47.56986" lon="6.73018">
        <ele>410.3</ele>
        <time>2014-11-09T10:09:07.000Z</time>
      </trkpt>
      <trkpt lat="47.56986" lon="6.73024">
        <ele>411.6</ele>
        <time>2014-11-09T10:09:09.000Z</time>
      </trkpt>
      <trkpt lat="47.56985" lon="6.73027">
        <ele>410.8</ele>
        <time>2014-11-09T10:09:10.000Z</time>
      </trkpt>
      <trkpt lat="47.56984" lon="6.73032">
        <ele>412.8</ele>
        <time>2014-11-09T10:09:12.000Z</time>
      </trkpt>
      <trkpt lat="47.56983" lon="6.73034">
        <ele>412.4</ele>
        <time>2014-11-09T10:09:13.000Z</time>
      </trkpt>
      <trkpt lat="47.5698" lon="6.73039">
        <ele>415.7</ele>
        <time>2014-11-09T10:09:16.000Z</time>
      </trkpt>
      <trkpt lat="47.56979" lon="6.7304">
        <ele>416.2</ele>
        <time>2014-11-09T10:09:17.000Z</time>
      </trkpt>
      <trkpt lat="47.56977" lon="6.73044">
        <ele>419.8</ele>
        <time>2014-11-09T10:09:20.000Z</time>
      </trkpt>
      <trkpt lat="47.56976" lon="6.73045">
        <ele>421.4</ele>
        <time>2014-11-09T10:09:21.000Z</time>
      </trkpt>
      <trkpt lat="47.56975" lon="6.7305">
        <ele>422.5</ele>
        <time>2014-11-09T10:09:23.000Z</time>
      </trkpt>
      <trkpt lat="47.56974" lon="6.73052">
        <ele>423.5</ele>
        <time>2014-11-09T10:09:24.000Z</time>
      </trkpt>
      <trkpt lat="47.56973" lon="6.73058">
        <ele>424.1</ele>
        <time>2014-11-09T10:09:26.000Z</time>
      </trkpt>
      <trkpt lat="47.56973" lon="6.73061">
        <ele>424.1</ele>
        <time>2014-11-09T10:09:27.000Z</time>
      </trkpt>
      <trkpt lat="47.56971" lon="6.73067">
        <ele>426.1</ele>
        <time>2014-11-09T10:09:29.000Z</time>
      </trkpt>
      <trkpt lat="47.5697" lon="6.7307">
        <ele>426.3</ele>
        <time>2014-11-09T10:09:30.000Z</time>
      </trkpt>
      <trkpt lat="47.56969" lon="6.73073">
        <ele>426.5</ele>
        <time>2014-11-09T10:09:31.000Z</time>
      </trkpt>
      <trkpt lat="47.56968" lon="6.73076">
        <ele>427.1</ele>
        <time>2014-11-09T10:09:32.000Z</time>
      </trkpt>
      <trkpt lat="47.56967" lon="6.73081">
        <ele>430.1</ele>
        <time>2014-11-09T10:09:34.000Z</time>
      </trkpt>
      <trkpt lat="47.56966" lon="6.73083">
        <ele>429.6</ele>
        <time>2014-11-09T10:09:35.000Z</time>
      </trkpt>
      <trkpt lat="47.56964" lon="6.73086">
        <ele>430.6</ele>
        <time>2014-11-09T10:09:37.000Z</time>
      </trkpt>
      <trkpt lat="47.56963" lon="6.73089">
        <ele>430.9</ele>
        <time>2014-11-09T10:09:38.000Z</time>
      </trkpt>
      <trkpt lat="47.56961" lon="6.73094">
        <ele>431.3</ele>
        <time>2014-11-09T10:09:40.000Z</time>
      </trkpt>
      <trkpt lat="47.5696" lon="6.73097">
        <ele>431.3</ele>
        <time>2014-11-09T10:09:41.000Z</time>
      </trkpt>
      <trkpt lat="47.56958" lon="6.73102">
        <ele>434.6</ele>
        <time>2014-11-09T10:09:43.000Z</time>
      </trkpt>
      <trkpt lat="47.56957" lon="6.73105">
        <ele>435.8</ele>
        <time>2014-11-09T10:09:44.000Z</time>
      </trkpt>
      <trkpt lat="47.56954" lon="6.7311">
        <ele>437.7</ele>
        <time>2014-11-09T10:09:46.000Z</time>
      </trkpt>
      <trkpt lat="47.56952" lon="6.73112">
        <ele>438</ele>
        <time>2014-11-09T10:09:47.000Z</time>
      </trkpt>
      <trkpt lat="47.56949" lon="6.73116">
        <ele>440.2</ele>
        <time>2014-11-09T10:09:49.000Z</time>
      </trkpt>
      <trkpt lat="47.56947" lon="6.73117">
        <ele>440.3</ele>
        <time>2014-11-09T10:09:50.000Z</time>
      </trkpt>
      <trkpt lat="47.56944" lon="6.73121">
        <ele>438.5</ele>
        <time>2014-11-09T10:09:53.000Z</time>
      </trkpt>
      <trkpt lat="47.56944" lon="6.73121">
        <ele>436.5</ele>
        <time>2014-11-09T10:09:54.000Z</time>
      </trkpt>
      <trkpt lat="47.56942" lon="6.73116">
        <ele>431.7</ele>
        <time>2014-11-09T10:10:01.000Z</time>
      </trkpt>
      <trkpt lat="47.56942" lon="6.73115">
        <ele>431.8</ele>
        <time>2014-11-09T10:10:02.000Z</time>
      </trkpt>
      <trkpt lat="47.56943" lon="6.7311">
        <ele>429.6</ele>
        <time>2014-11-09T10:10:06.000Z</time>
      </trkpt>
      <trkpt lat="47.56943" lon="6.73108">
        <ele>428.9</ele>
        <time>2014-11-09T10:10:07.000Z</time>
      </trkpt>
      <trkpt lat="47.56943" lon="6.73102">
        <ele>426.2</ele>
        <time>2014-11-09T10:10:12.000Z</time>
      </trkpt>
      <trkpt lat="47.56943" lon="6.731">
        <ele>426.3</ele>
        <time>2014-11-09T10:10:13.000Z</time>
      </trkpt>
      <trkpt lat="47.56942" lon="6.73095">
        <ele>425.4</ele>
        <time>2014-11-09T10:10:16.000Z</time>
      </trkpt>
      <trkpt lat="47.56942" lon="6.73093">
        <ele>424.2</ele>
        <time>2014-11-09T10:10:17.000Z</time>
      </trkpt>
      <trkpt lat="47.56942" lon="6.73089">
        <ele>423.4</ele>
        <time>2014-11-09T10:10:19.000Z</time>
      </trkpt>
      <trkpt lat="47.56941" lon="6.73086">
        <ele>424.2</ele>
        <time>2014-11-09T10:10:20.000Z</time>
      </trkpt>
      <trkpt lat="47.56941" lon="6.73082">
        <ele>423.4</ele>
        <time>2014-11-09T10:10:22.000Z</time>
      </trkpt>
      <trkpt lat="47.56941" lon="6.7308">
        <ele>422.9</ele>
        <time>2014-11-09T10:10:23.000Z</time>
      </trkpt>
      <trkpt lat="47.5694" lon="6.73074">
        <ele>422.7</ele>
        <time>2014-11-09T10:10:25.000Z</time>
      </trkpt>
      <trkpt lat="47.5694" lon="6.73071">
        <ele>422</ele>
        <time>2014-11-09T10:10:26.000Z</time>
      </trkpt>
      <trkpt lat="47.56941" lon="6.73066">
        <ele>423.2</ele>
        <time>2014-11-09T10:10:28.000Z</time>
      </trkpt>
      <trkpt lat="47.56941" lon="6.73064">
        <ele>424.5</ele>
        <time>2014-11-09T10:10:29.000Z</time>
      </trkpt>
      <trkpt lat="47.56941" lon="6.73058">
        <ele>424</ele>
        <time>2014-11-09T10:10:31.000Z</time>
      </trkpt>
      <trkpt lat="47.5694" lon="6.73056">
        <ele>423.3</ele>
        <time>2014-11-09T10:10:32.000Z</time>
      </trkpt>
      <trkpt lat="47.5694" lon="6.7305">
        <ele>422.5</ele>
        <time>2014-11-09T10:10:34.000Z</time>
      </trkpt>
      <trkpt lat="47.56939" lon="6.73047">
        <ele>421.7</ele>
        <time>2014-11-09T10:10:35.000Z</time>
      </trkpt>
      <trkpt lat="47.56938" lon="6.73042">
        <ele>421</ele>
        <time>2014-11-09T10:10:37.000Z</time>
      </trkpt>
      <trkpt lat="47.56937" lon="6.7304">
        <ele>421.1</ele>
        <time>2014-11-09T10:10:38.000Z</time>
      </trkpt>
      <trkpt lat="47.56937" lon="6.73033">
        <ele>421.5</ele>
        <time>2014-11-09T10:10:42.000Z</time>
      </trkpt>
      <trkpt lat="47.56937" lon="6.73032">
        <ele>421.5</ele>
        <time>2014-11-09T10:10:43.000Z</time>
      </trkpt>
      <trkpt lat="47.56937" lon="6.73026">
        <ele>421.8</ele>
        <time>2014-11-09T10:10:47.000Z</time>
      </trkpt>
      <trkpt lat="47.56936" lon="6.73024">
        <ele>421.8</ele>
        <time>2014-11-09T10:10:48.000Z</time>
      </trkpt>
      <trkpt lat="47.56934" lon="6.7302">
        <ele>420.9</ele>
        <time>2014-11-09T10:10:51.000Z</time>
      </trkpt>
      <trkpt lat="47.56933" lon="6.73019">
        <ele>421.2</ele>
        <time>2014-11-09T10:10:52.000Z</time>
      </trkpt>
      <trkpt lat="47.56932" lon="6.73014">
        <ele>421.3</ele>
        <time>2014-11-09T10:14:45.000Z</time>
      </trkpt>
      <trkpt lat="47.56933" lon="6.73012">
        <ele>421.7</ele>
        <time>2014-11-09T10:14:46.000Z</time>
      </trkpt>
      <trkpt lat="47.56933" lon="6.73007">
        <ele>421.5</ele>
        <time>2014-11-09T10:14:48.000Z</time>
      </trkpt>
      <trkpt lat="47.56933" lon="6.73004">
        <ele>421.7</ele>
        <time>2014-11-09T10:14:49.000Z</time>
      </trkpt>
      <trkpt lat="47.56932" lon="6.72997">
        <ele>421.6</ele>
        <time>2014-11-09T10:14:51.000Z</time>
      </trkpt>
      <trkpt lat="47.56932" lon="6.72994">
        <ele>421.4</ele>
        <time>2014-11-09T10:14:52.000Z</time>
      </trkpt>
      <trkpt lat="47.56931" lon="6.72987">
        <ele>421.9</ele>
        <time>2014-11-09T10:14:54.000Z</time>
      </trkpt>
      <trkpt lat="47.56931" lon="6.72984">
        <ele>421.3</ele>
        <time>2014-11-09T10:14:55.000Z</time>
      </trkpt>
      <trkpt lat="47.5693" lon="6.72981">
        <ele>420.9</ele>
        <time>2014-11-09T10:14:56.000Z</time>
      </trkpt>
      <trkpt lat="47.56924" lon="6.72956">
        <ele>421.1</ele>
        <time>2014-11-09T10:15:05.000Z</time>
      </trkpt>
      <trkpt lat="47.56923" lon="6.72953">
        <ele>421.3</ele>
        <time>2014-11-09T10:15:06.000Z</time>
      </trkpt>
      <trkpt lat="47.56922" lon="6.72949">
        <ele>421</ele>
        <time>2014-11-09T10:15:07.000Z</time>
      </trkpt>
      <trkpt lat="47.56921" lon="6.72946">
        <ele>419.6</ele>
        <time>2014-11-09T10:15:08.000Z</time>
      </trkpt>
      <trkpt lat="47.5692" lon="6.72943">
        <ele>419.8</ele>
        <time>2014-11-09T10:15:09.000Z</time>
      </trkpt>
      <trkpt lat="47.56919" lon="6.72939">
        <ele>419.9</ele>
        <time>2014-11-09T10:15:10.000Z</time>
      </trkpt>
      <trkpt lat="47.56918" lon="6.72936">
        <ele>420.3</ele>
        <time>2014-11-09T10:15:11.000Z</time>
      </trkpt>
      <trkpt lat="47.56917" lon="6.72933">
        <ele>420.7</ele>
        <time>2014-11-09T10:15:12.000Z</time>
      </trkpt>
      <trkpt lat="47.56916" lon="6.72929">
        <ele>421</ele>
        <time>2014-11-09T10:15:13.000Z</time>
      </trkpt>
      <trkpt lat="47.56914" lon="6.72923">
        <ele>421.3</ele>
        <time>2014-11-09T10:15:15.000Z</time>
      </trkpt>
      <trkpt lat="47.56914" lon="6.72921">
        <ele>421.2</ele>
        <time>2014-11-09T10:15:16.000Z</time>
      </trkpt>
      <trkpt lat="47.56912" lon="6.72915">
        <ele>421.3</ele>
        <time>2014-11-09T10:15:18.000Z</time>
      </trkpt>
      <trkpt lat="47.56911" lon="6.72912">
        <ele>421.3</ele>
        <time>2014-11-09T10:15:19.000Z</time>
      </trkpt>
      <trkpt lat="47.5691" lon="6.72907">
        <ele>421.9</ele>
        <time>2014-11-09T10:15:21.000Z</time>
      </trkpt>
      <trkpt lat="47.5691" lon="6.72904">
        <ele>422.3</ele>
        <time>2014-11-09T10:15:22.000Z</time>
      </trkpt>
      <trkpt lat="47.56909" lon="6.72899">
        <ele>421.8</ele>
        <time>2014-11-09T10:15:24.000Z</time>
      </trkpt>
      <trkpt lat="47.56908" lon="6.72897">
        <ele>422.2</ele>
        <time>2014-11-09T10:15:25.000Z</time>
      </trkpt>
      <trkpt lat="47.56908" lon="6.72892">
        <ele>422.4</ele>
        <time>2014-11-09T10:15:27.000Z</time>
      </trkpt>
      <trkpt lat="47.56908" lon="6.7289">
        <ele>422.2</ele>
        <time>2014-11-09T10:15:28.000Z</time>
      </trkpt>
      <trkpt lat="47.56907" lon="6.72884">
        <ele>421.6</ele>
        <time>2014-11-09T10:15:30.000Z</time>
      </trkpt>
      <trkpt lat="47.56907" lon="6.72881">
        <ele>421.7</ele>
        <time>2014-11-09T10:15:31.000Z</time>
      </trkpt>
      <trkpt lat="47.56906" lon="6.72876">
        <ele>421.5</ele>
        <time>2014-11-09T10:15:33.000Z</time>
      </trkpt>
      <trkpt lat="47.56906" lon="6.72873">
        <ele>422.1</ele>
        <time>2014-11-09T10:15:34.000Z</time>
      </trkpt>
      <trkpt lat="47.56905" lon="6.72867">
        <ele>422.7</ele>
        <time>2014-11-09T10:15:36.000Z</time>
      </trkpt>
      <trkpt lat="47.56905" lon="6.72864">
        <ele>423</ele>
        <time>2014-11-09T10:15:37.000Z</time>
      </trkpt>
      <trkpt lat="47.56904" lon="6.72858">
        <ele>423.1</ele>
        <time>2014-11-09T10:15:39.000Z</time>
      </trkpt>
      <trkpt lat="47.56904" lon="6.72855">
        <ele>423.3</ele>
        <time>2014-11-09T10:15:40.000Z</time>
      </trkpt>
      <trkpt lat="47.56903" lon="6.72849">
        <ele>424</ele>
        <time>2014-11-09T10:15:42.000Z</time>
      </trkpt>
      <trkpt lat="47.56902" lon="6.72846">
        <ele>423.7</ele>
        <time>2014-11-09T10:15:43.000Z</time>
      </trkpt>
      <trkpt lat="47.56901" lon="6.7284">
        <ele>424</ele>
        <time>2014-11-09T10:15:45.000Z</time>
      </trkpt>
      <trkpt lat="47.569" lon="6.72837">
        <ele>424</ele>
        <time>2014-11-09T10:15:46.000Z</time>
      </trkpt>
      <trkpt lat="47.56899" lon="6.72832">
        <ele>424.3</ele>
        <time>2014-11-09T10:15:48.000Z</time>
      </trkpt>
      <trkpt lat="47.56899" lon="6.72829">
        <ele>424.3</ele>
        <time>2014-11-09T10:15:49.000Z</time>
      </trkpt>
      <trkpt lat="47.56897" lon="6.72823">
        <ele>423.8</ele>
        <time>2014-11-09T10:15:51.000Z</time>
      </trkpt>
      <trkpt lat="47.56896" lon="6.72821">
        <ele>423.7</ele>
        <time>2014-11-09T10:15:52.000Z</time>
      </trkpt>
      <trkpt lat="47.56894" lon="6.72815">
        <ele>424</ele>
        <time>2014-11-09T10:15:54.000Z</time>
      </trkpt>
      <trkpt lat="47.56894" lon="6.72812">
        <ele>424.3</ele>
        <time>2014-11-09T10:15:55.000Z</time>
      </trkpt>
      <trkpt lat="47.56892" lon="6.72807">
        <ele>424.2</ele>
        <time>2014-11-09T10:15:57.000Z</time>
      </trkpt>
      <trkpt lat="47.5689" lon="6.72798">
        <ele>424.8</ele>
        <time>2014-11-09T10:16:00.000Z</time>
      </trkpt>
      <trkpt lat="47.5689" lon="6.72793">
        <ele>425.4</ele>
        <time>2014-11-09T10:16:02.000Z</time>
      </trkpt>
      <trkpt lat="47.56889" lon="6.72789">
        <ele>425.6</ele>
        <time>2014-11-09T10:16:03.000Z</time>
      </trkpt>
      <trkpt lat="47.56888" lon="6.72786">
        <ele>425.8</ele>
        <time>2014-11-09T10:16:04.000Z</time>
      </trkpt>
      <trkpt lat="47.56887" lon="6.72782">
        <ele>426</ele>
        <time>2014-11-09T10:16:05.000Z</time>
      </trkpt>
      <trkpt lat="47.56886" lon="6.72778">
        <ele>426</ele>
        <time>2014-11-09T10:16:06.000Z</time>
      </trkpt>
      <trkpt lat="47.56886" lon="6.72775">
        <ele>426.2</ele>
        <time>2014-11-09T10:16:07.000Z</time>
      </trkpt>
      <trkpt lat="47.56885" lon="6.72771">
        <ele>425.4</ele>
        <time>2014-11-09T10:16:08.000Z</time>
      </trkpt>
      <trkpt lat="47.56884" lon="6.72767">
        <ele>425.1</ele>
        <time>2014-11-09T10:16:09.000Z</time>
      </trkpt>
      <trkpt lat="47.56884" lon="6.72763">
        <ele>426</ele>
        <time>2014-11-09T10:16:10.000Z</time>
      </trkpt>
      <trkpt lat="47.56883" lon="6.72759">
        <ele>426.4</ele>
        <time>2014-11-09T10:16:11.000Z</time>
      </trkpt>
      <trkpt lat="47.56883" lon="6.72754">
        <ele>426.3</ele>
        <time>2014-11-09T10:16:12.000Z</time>
      </trkpt>
      <trkpt lat="47.56882" lon="6.72749">
        <ele>426.3</ele>
        <time>2014-11-09T10:16:13.000Z</time>
      </trkpt>
      <trkpt lat="47.56882" lon="6.72745">
        <ele>426.4</ele>
        <time>2014-11-09T10:16:14.000Z</time>
      </trkpt>
      <trkpt lat="47.56881" lon="6.7274">
        <ele>426.5</ele>
        <time>2014-11-09T10:16:15.000Z</time>
      </trkpt>
      <trkpt lat="47.5688" lon="6.72736">
        <ele>426.6</ele>
        <time>2014-11-09T10:16:16.000Z</time>
      </trkpt>
      <trkpt lat="47.56879" lon="6.72732">
        <ele>426.5</ele>
        <time>2014-11-09T10:16:17.000Z</time>
      </trkpt>
      <trkpt lat="47.56879" lon="6.72728">
        <ele>426.3</ele>
        <time>2014-11-09T10:16:18.000Z</time>
      </trkpt>
      <trkpt lat="47.56878" lon="6.72724">
        <ele>426.2</ele>
        <time>2014-11-09T10:16:19.000Z</time>
      </trkpt>
      <trkpt lat="47.56878" lon="6.72721">
        <ele>427.3</ele>
        <time>2014-11-09T10:16:20.000Z</time>
      </trkpt>
      <trkpt lat="47.56877" lon="6.72717">
        <ele>427.2</ele>
        <time>2014-11-09T10:16:21.000Z</time>
      </trkpt>
      <trkpt lat="47.56876" lon="6.72713">
        <ele>428.1</ele>
        <time>2014-11-09T10:16:22.000Z</time>
      </trkpt>
      <trkpt lat="47.56875" lon="6.72709">
        <ele>428.5</ele>
        <time>2014-11-09T10:16:23.000Z</time>
      </trkpt>
      <trkpt lat="47.56874" lon="6.72706">
        <ele>428.7</ele>
        <time>2014-11-09T10:16:24.000Z</time>
      </trkpt>
      <trkpt lat="47.56874" lon="6.72702">
        <ele>429.8</ele>
        <time>2014-11-09T10:16:25.000Z</time>
      </trkpt>
      <trkpt lat="47.56873" lon="6.72698">
        <ele>430.5</ele>
        <time>2014-11-09T10:16:26.000Z</time>
      </trkpt>
      <trkpt lat="47.56873" lon="6.72694">
        <ele>431.2</ele>
        <time>2014-11-09T10:16:27.000Z</time>
      </trkpt>
      <trkpt lat="47.56873" lon="6.7269">
        <ele>431.7</ele>
        <time>2014-11-09T10:16:28.000Z</time>
      </trkpt>
      <trkpt lat="47.56872" lon="6.72686">
        <ele>431.2</ele>
        <time>2014-11-09T10:16:29.000Z</time>
      </trkpt>
      <trkpt lat="47.56872" lon="6.72682">
        <ele>431.2</ele>
        <time>2014-11-09T10:16:30.000Z</time>
      </trkpt>
      <trkpt lat="47.56871" lon="6.72678">
        <ele>432.1</ele>
        <time>2014-11-09T10:16:31.000Z</time>
      </trkpt>
      <trkpt lat="47.5687" lon="6.72675">
        <ele>431.9</ele>
        <time>2014-11-09T10:16:32.000Z</time>
      </trkpt>
      <trkpt lat="47.56869" lon="6.72671">
        <ele>432.6</ele>
        <time>2014-11-09T10:16:33.000Z</time>
      </trkpt>
      <trkpt lat="47.56868" lon="6.72667">
        <ele>434.3</ele>
        <time>2014-11-09T10:16:34.000Z</time>
      </trkpt>
      <trkpt lat="47.56867" lon="6.72662">
        <ele>435.4</ele>
        <time>2014-11-09T10:16:35.000Z</time>
      </trkpt>
      <trkpt lat="47.56866" lon="6.72657">
        <ele>436.5</ele>
        <time>2014-11-09T10:16:36.000Z</time>
      </trkpt>
      <trkpt lat="47.56866" lon="6.72651">
        <ele>437.2</ele>
        <time>2014-11-09T10:16:37.000Z</time>
      </trkpt>
      <trkpt lat="47.56865" lon="6.72646">
        <ele>437.9</ele>
        <time>2014-11-09T10:16:38.000Z</time>
      </trkpt>
      <trkpt lat="47.56864" lon="6.72639">
        <ele>437.2</ele>
        <time>2014-11-09T10:16:39.000Z</time>
      </trkpt>
      <trkpt lat="47.56864" lon="6.72633">
        <ele>436.7</ele>
        <time>2014-11-09T10:16:40.000Z</time>
      </trkpt>
      <trkpt lat="47.56863" lon="6.72626">
        <ele>436.8</ele>
        <time>2014-11-09T10:16:41.000Z</time>
      </trkpt>
      <trkpt lat="47.56862" lon="6.7262">
        <ele>436.8</ele>
        <time>2014-11-09T10:16:42.000Z</time>
      </trkpt>
      <trkpt lat="47.56862" lon="6.72613">
        <ele>437.6</ele>
        <time>2014-11-09T10:16:43.000Z</time>
      </trkpt>
      <trkpt lat="47.56862" lon="6.72607">
        <ele>437.5</ele>
        <time>2014-11-09T10:16:44.000Z</time>
      </trkpt>
      <trkpt lat="47.56862" lon="6.72601">
        <ele>437.7</ele>
        <time>2014-11-09T10:16:45.000Z</time>
      </trkpt>
      <trkpt lat="47.56861" lon="6.72594">
        <ele>436.9</ele>
        <time>2014-11-09T10:16:46.000Z</time>
      </trkpt>
      <trkpt lat="47.56859" lon="6.72587">
        <ele>436.2</ele>
        <time>2014-11-09T10:16:47.000Z</time>
      </trkpt>
      <trkpt lat="47.56857" lon="6.7258">
        <ele>436</ele>
        <time>2014-11-09T10:16:48.000Z</time>
      </trkpt>
      <trkpt lat="47.56854" lon="6.72574">
        <ele>435.7</ele>
        <time>2014-11-09T10:16:49.000Z</time>
      </trkpt>
      <trkpt lat="47.56852" lon="6.72567">
        <ele>435.4</ele>
        <time>2014-11-09T10:16:50.000Z</time>
      </trkpt>
      <trkpt lat="47.56849" lon="6.7256">
        <ele>436</ele>
        <time>2014-11-09T10:16:51.000Z</time>
      </trkpt>
      <trkpt lat="47.56847" lon="6.72553">
        <ele>435.3</ele>
        <time>2014-11-09T10:16:52.000Z</time>
      </trkpt>
      <trkpt lat="47.56844" lon="6.72547">
        <ele>435.2</ele>
        <time>2014-11-09T10:16:53.000Z</time>
      </trkpt>
      <trkpt lat="47.5684" lon="6.72535">
        <ele>435</ele>
        <time>2014-11-09T10:16:54.000Z</time>
      </trkpt>
      <trkpt lat="47.56837" lon="6.72528">
        <ele>434.7</ele>
        <time>2014-11-09T10:16:55.000Z</time>
      </trkpt>
      <trkpt lat="47.56836" lon="6.72521">
        <ele>434</ele>
        <time>2014-11-09T10:16:56.000Z</time>
      </trkpt>
      <trkpt lat="47.5683" lon="6.72499">
        <ele>433.3</ele>
        <time>2014-11-09T10:16:59.000Z</time>
      </trkpt>
      <trkpt lat="47.56827" lon="6.72491">
        <ele>432.5</ele>
        <time>2014-11-09T10:17:00.000Z</time>
      </trkpt>
      <trkpt lat="47.56824" lon="6.72483">
        <ele>431.3</ele>
        <time>2014-11-09T10:17:01.000Z</time>
      </trkpt>
      <trkpt lat="47.56822" lon="6.72474">
        <ele>431.1</ele>
        <time>2014-11-09T10:17:02.000Z</time>
      </trkpt>
      <trkpt lat="47.5682" lon="6.72467">
        <ele>430.5</ele>
        <time>2014-11-09T10:17:03.000Z</time>
      </trkpt>
      <trkpt lat="47.56818" lon="6.72458">
        <ele>430.4</ele>
        <time>2014-11-09T10:17:04.000Z</time>
      </trkpt>
      <trkpt lat="47.56815" lon="6.72451">
        <ele>430.4</ele>
        <time>2014-11-09T10:17:05.000Z</time>
      </trkpt>
      <trkpt lat="47.56814" lon="6.72446">
        <ele>432.3</ele>
        <time>2014-11-09T10:17:06.000Z</time>
      </trkpt>
      <trkpt lat="47.56812" lon="6.72441">
        <ele>432.5</ele>
        <time>2014-11-09T10:17:07.000Z</time>
      </trkpt>
      <trkpt lat="47.56811" lon="6.72436">
        <ele>433.5</ele>
        <time>2014-11-09T10:17:08.000Z</time>
      </trkpt>
      <trkpt lat="47.5681" lon="6.72432">
        <ele>432.8</ele>
        <time>2014-11-09T10:17:09.000Z</time>
      </trkpt>
      <trkpt lat="47.56808" lon="6.72428">
        <ele>431.8</ele>
        <time>2014-11-09T10:17:10.000Z</time>
      </trkpt>
      <trkpt lat="47.56806" lon="6.72422">
        <ele>432.4</ele>
        <time>2014-11-09T10:17:11.000Z</time>
      </trkpt>
      <trkpt lat="47.56804" lon="6.72417">
        <ele>433.7</ele>
        <time>2014-11-09T10:17:12.000Z</time>
      </trkpt>
      <trkpt lat="47.56803" lon="6.72412">
        <ele>435.1</ele>
        <time>2014-11-09T10:17:13.000Z</time>
      </trkpt>
      <trkpt lat="47.56801" lon="6.72406">
        <ele>436.8</ele>
        <time>2014-11-09T10:17:14.000Z</time>
      </trkpt>
      <trkpt lat="47.568" lon="6.72401">
        <ele>438.2</ele>
        <time>2014-11-09T10:17:15.000Z</time>
      </trkpt>
      <trkpt lat="47.56799" lon="6.72396">
        <ele>438.9</ele>
        <time>2014-11-09T10:17:16.000Z</time>
      </trkpt>
      <trkpt lat="47.56797" lon="6.72392">
        <ele>439</ele>
        <time>2014-11-09T10:17:17.000Z</time>
      </trkpt>
      <trkpt lat="47.56796" lon="6.72388">
        <ele>439</ele>
        <time>2014-11-09T10:17:18.000Z</time>
      </trkpt>
      <trkpt lat="47.56794" lon="6.72384">
        <ele>437.6</ele>
        <time>2014-11-09T10:17:19.000Z</time>
      </trkpt>
      <trkpt lat="47.56792" lon="6.72379">
        <ele>438</ele>
        <time>2014-11-09T10:17:20.000Z</time>
      </trkpt>
      <trkpt lat="47.5679" lon="6.72375">
        <ele>438.7</ele>
        <time>2014-11-09T10:17:21.000Z</time>
      </trkpt>
      <trkpt lat="47.56788" lon="6.7237">
        <ele>439.6</ele>
        <time>2014-11-09T10:17:22.000Z</time>
      </trkpt>
      <trkpt lat="47.56787" lon="6.72365">
        <ele>441.4</ele>
        <time>2014-11-09T10:17:23.000Z</time>
      </trkpt>
      <trkpt lat="47.56785" lon="6.72361">
        <ele>442.2</ele>
        <time>2014-11-09T10:17:24.000Z</time>
      </trkpt>
      <trkpt lat="47.56783" lon="6.72356">
        <ele>442.2</ele>
        <time>2014-11-09T10:17:25.000Z</time>
      </trkpt>
      <trkpt lat="47.56781" lon="6.72351">
        <ele>443</ele>
        <time>2014-11-09T10:17:26.000Z</time>
      </trkpt>
      <trkpt lat="47.56779" lon="6.72346">
        <ele>442.7</ele>
        <time>2014-11-09T10:17:27.000Z</time>
      </trkpt>
      <trkpt lat="47.56777" lon="6.7234">
        <ele>441.7</ele>
        <time>2014-11-09T10:17:28.000Z</time>
      </trkpt>
      <trkpt lat="47.56772" lon="6.72331">
        <ele>441.5</ele>
        <time>2014-11-09T10:17:29.000Z</time>
      </trkpt>
      <trkpt lat="47.5677" lon="6.72325">
        <ele>441.4</ele>
        <time>2014-11-09T10:17:30.000Z</time>
      </trkpt>
      <trkpt lat="47.56767" lon="6.72321">
        <ele>441.1</ele>
        <time>2014-11-09T10:17:31.000Z</time>
      </trkpt>
      <trkpt lat="47.56765" lon="6.72316">
        <ele>441.2</ele>
        <time>2014-11-09T10:17:32.000Z</time>
      </trkpt>
      <trkpt lat="47.56763" lon="6.72308">
        <ele>446.7</ele>
        <time>2014-11-09T10:17:33.000Z</time>
      </trkpt>
      <trkpt lat="47.56761" lon="6.72303">
        <ele>447.3</ele>
        <time>2014-11-09T10:17:34.000Z</time>
      </trkpt>
      <trkpt lat="47.56759" lon="6.72298">
        <ele>447.2</ele>
        <time>2014-11-09T10:17:35.000Z</time>
      </trkpt>
      <trkpt lat="47.56757" lon="6.72293">
        <ele>447.1</ele>
        <time>2014-11-09T10:17:36.000Z</time>
      </trkpt>
      <trkpt lat="47.56753" lon="6.72287">
        <ele>446.3</ele>
        <time>2014-11-09T10:17:37.000Z</time>
      </trkpt>
      <trkpt lat="47.56752" lon="6.72282">
        <ele>446.3</ele>
        <time>2014-11-09T10:17:38.000Z</time>
      </trkpt>
      <trkpt lat="47.56749" lon="6.72278">
        <ele>446.2</ele>
        <time>2014-11-09T10:17:39.000Z</time>
      </trkpt>
      <trkpt lat="47.56749" lon="6.72273">
        <ele>445.9</ele>
        <time>2014-11-09T10:17:40.000Z</time>
      </trkpt>
      <trkpt lat="47.56747" lon="6.7227">
        <ele>445.8</ele>
        <time>2014-11-09T10:17:41.000Z</time>
      </trkpt>
      <trkpt lat="47.56745" lon="6.72264">
        <ele>444.7</ele>
        <time>2014-11-09T10:17:42.000Z</time>
      </trkpt>
      <trkpt lat="47.56744" lon="6.7226">
        <ele>443.6</ele>
        <time>2014-11-09T10:17:43.000Z</time>
      </trkpt>
      <trkpt lat="47.56742" lon="6.72256">
        <ele>443.1</ele>
        <time>2014-11-09T10:17:44.000Z</time>
      </trkpt>
      <trkpt lat="47.5674" lon="6.72251">
        <ele>442</ele>
        <time>2014-11-09T10:17:45.000Z</time>
      </trkpt>
      <trkpt lat="47.56738" lon="6.72247">
        <ele>440.8</ele>
        <time>2014-11-09T10:17:46.000Z</time>
      </trkpt>
      <trkpt lat="47.56736" lon="6.72242">
        <ele>440</ele>
        <time>2014-11-09T10:17:47.000Z</time>
      </trkpt>
      <trkpt lat="47.56734" lon="6.72236">
        <ele>438.8</ele>
        <time>2014-11-09T10:17:48.000Z</time>
      </trkpt>
      <trkpt lat="47.56732" lon="6.72229">
        <ele>436.1</ele>
        <time>2014-11-09T10:17:49.000Z</time>
      </trkpt>
      <trkpt lat="47.56731" lon="6.72221">
        <ele>433.1</ele>
        <time>2014-11-09T10:17:50.000Z</time>
      </trkpt>
      <trkpt lat="47.56729" lon="6.72213">
        <ele>430.5</ele>
        <time>2014-11-09T10:17:51.000Z</time>
      </trkpt>
      <trkpt lat="47.56729" lon="6.72204">
        <ele>429.7</ele>
        <time>2014-11-09T10:17:52.000Z</time>
      </trkpt>
      <trkpt lat="47.5673" lon="6.72183">
        <ele>432</ele>
        <time>2014-11-09T10:17:53.000Z</time>
      </trkpt>
      <trkpt lat="47.56732" lon="6.72174">
        <ele>431.9</ele>
        <time>2014-11-09T10:17:54.000Z</time>
      </trkpt>
      <trkpt lat="47.56734" lon="6.7217">
        <ele>431.5</ele>
        <time>2014-11-09T10:17:55.000Z</time>
      </trkpt>
      <trkpt lat="47.56737" lon="6.72167">
        <ele>431</ele>
        <time>2014-11-09T10:17:56.000Z</time>
      </trkpt>
      <trkpt lat="47.56741" lon="6.72136">
        <ele>435.4</ele>
        <time>2014-11-09T10:18:04.000Z</time>
      </trkpt>
      <trkpt lat="47.56741" lon="6.7213">
        <ele>436.1</ele>
        <time>2014-11-09T10:18:05.000Z</time>
      </trkpt>
      <trkpt lat="47.56738" lon="6.72118">
        <ele>438.4</ele>
        <time>2014-11-09T10:18:06.000Z</time>
      </trkpt>
      <trkpt lat="47.56737" lon="6.72105">
        <ele>439.7</ele>
        <time>2014-11-09T10:18:07.000Z</time>
      </trkpt>
      <trkpt lat="47.56736" lon="6.72095">
        <ele>439.2</ele>
        <time>2014-11-09T10:18:08.000Z</time>
      </trkpt>
      <trkpt lat="47.56735" lon="6.72088">
        <ele>437.9</ele>
        <time>2014-11-09T10:18:09.000Z</time>
      </trkpt>
      <trkpt lat="47.56732" lon="6.72079">
        <ele>437.8</ele>
        <time>2014-11-09T10:18:10.000Z</time>
      </trkpt>
      <trkpt lat="47.5673" lon="6.72072">
        <ele>437.4</ele>
        <time>2014-11-09T10:18:11.000Z</time>
      </trkpt>
      <trkpt lat="47.56728" lon="6.72066">
        <ele>437</ele>
        <time>2014-11-09T10:18:12.000Z</time>
      </trkpt>
      <trkpt lat="47.56727" lon="6.72061">
        <ele>437.2</ele>
        <time>2014-11-09T10:18:13.000Z</time>
      </trkpt>
      <trkpt lat="47.56726" lon="6.72056">
        <ele>443.5</ele>
        <time>2014-11-09T10:18:14.000Z</time>
      </trkpt>
      <trkpt lat="47.56725" lon="6.72045">
        <ele>445.2</ele>
        <time>2014-11-09T10:18:15.000Z</time>
      </trkpt>
      <trkpt lat="47.56722" lon="6.72036">
        <ele>445.2</ele>
        <time>2014-11-09T10:18:16.000Z</time>
      </trkpt>
      <trkpt lat="47.56718" lon="6.72027">
        <ele>443</ele>
        <time>2014-11-09T10:18:17.000Z</time>
      </trkpt>
      <trkpt lat="47.56713" lon="6.72017">
        <ele>440.8</ele>
        <time>2014-11-09T10:18:18.000Z</time>
      </trkpt>
      <trkpt lat="47.5671" lon="6.72008">
        <ele>438.1</ele>
        <time>2014-11-09T10:18:19.000Z</time>
      </trkpt>
      <trkpt lat="47.56706" lon="6.71999">
        <ele>439.3</ele>
        <time>2014-11-09T10:18:20.000Z</time>
      </trkpt>
      <trkpt lat="47.56706" lon="6.7199">
        <ele>439</ele>
        <time>2014-11-09T10:18:21.000Z</time>
      </trkpt>
      <trkpt lat="47.56703" lon="6.71983">
        <ele>438.7</ele>
        <time>2014-11-09T10:18:22.000Z</time>
      </trkpt>
      <trkpt lat="47.56702" lon="6.71978">
        <ele>439</ele>
        <time>2014-11-09T10:18:23.000Z</time>
      </trkpt>
      <trkpt lat="47.56699" lon="6.71971">
        <ele>438</ele>
        <time>2014-11-09T10:18:24.000Z</time>
      </trkpt>
      <trkpt lat="47.56698" lon="6.71966">
        <ele>437.3</ele>
        <time>2014-11-09T10:18:25.000Z</time>
      </trkpt>
      <trkpt lat="47.56695" lon="6.7196">
        <ele>435.6</ele>
        <time>2014-11-09T10:18:26.000Z</time>
      </trkpt>
      <trkpt lat="47.56692" lon="6.71954">
        <ele>435.1</ele>
        <time>2014-11-09T10:18:27.000Z</time>
      </trkpt>
      <trkpt lat="47.56689" lon="6.71949">
        <ele>434.7</ele>
        <time>2014-11-09T10:18:28.000Z</time>
      </trkpt>
      <trkpt lat="47.56685" lon="6.71942">
        <ele>434.4</ele>
        <time>2014-11-09T10:18:29.000Z</time>
      </trkpt>
      <trkpt lat="47.56683" lon="6.71936">
        <ele>433.9</ele>
        <time>2014-11-09T10:18:30.000Z</time>
      </trkpt>
      <trkpt lat="47.5668" lon="6.7193">
        <ele>432.9</ele>
        <time>2014-11-09T10:18:31.000Z</time>
      </trkpt>
      <trkpt lat="47.56677" lon="6.71925">
        <ele>432.4</ele>
        <time>2014-11-09T10:18:32.000Z</time>
      </trkpt>
      <trkpt lat="47.56675" lon="6.7192">
        <ele>431.3</ele>
        <time>2014-11-09T10:18:33.000Z</time>
      </trkpt>
      <trkpt lat="47.56672" lon="6.71914">
        <ele>430.7</ele>
        <time>2014-11-09T10:18:34.000Z</time>
      </trkpt>
      <trkpt lat="47.56669" lon="6.71908">
        <ele>429.9</ele>
        <time>2014-11-09T10:18:35.000Z</time>
      </trkpt>
      <trkpt lat="47.56666" lon="6.71901">
        <ele>432.1</ele>
        <time>2014-11-09T10:18:36.000Z</time>
      </trkpt>
      <trkpt lat="47.56664" lon="6.71894">
        <ele>432.1</ele>
        <time>2014-11-09T10:18:37.000Z</time>
      </trkpt>
      <trkpt lat="47.56661" lon="6.71886">
        <ele>430.5</ele>
        <time>2014-11-09T10:18:38.000Z</time>
      </trkpt>
      <trkpt lat="47.56659" lon="6.71879">
        <ele>429.7</ele>
        <time>2014-11-09T10:18:39.000Z</time>
      </trkpt>
      <trkpt lat="47.56658" lon="6.71873">
        <ele>428.7</ele>
        <time>2014-11-09T10:18:40.000Z</time>
      </trkpt>
      <trkpt lat="47.56656" lon="6.71866">
        <ele>427.7</ele>
        <time>2014-11-09T10:18:41.000Z</time>
      </trkpt>
      <trkpt lat="47.56653" lon="6.7186">
        <ele>426.4</ele>
        <time>2014-11-09T10:18:42.000Z</time>
      </trkpt>
      <trkpt lat="47.56651" lon="6.71853">
        <ele>425.4</ele>
        <time>2014-11-09T10:18:43.000Z</time>
      </trkpt>
      <trkpt lat="47.56639" lon="6.71834">
        <ele>427.9</ele>
        <time>2014-11-09T10:18:44.000Z</time>
      </trkpt>
      <trkpt lat="47.56635" lon="6.71825">
        <ele>426.9</ele>
        <time>2014-11-09T10:18:45.000Z</time>
      </trkpt>
      <trkpt lat="47.56631" lon="6.71818">
        <ele>426</ele>
        <time>2014-11-09T10:18:46.000Z</time>
      </trkpt>
      <trkpt lat="47.56627" lon="6.71811">
        <ele>425.7</ele>
        <time>2014-11-09T10:18:47.000Z</time>
      </trkpt>
      <trkpt lat="47.56625" lon="6.71805">
        <ele>426</ele>
        <time>2014-11-09T10:18:48.000Z</time>
      </trkpt>
      <trkpt lat="47.56621" lon="6.718">
        <ele>425.4</ele>
        <time>2014-11-09T10:18:49.000Z</time>
      </trkpt>
      <trkpt lat="47.56619" lon="6.71791">
        <ele>427.3</ele>
        <time>2014-11-09T10:18:50.000Z</time>
      </trkpt>
      <trkpt lat="47.56614" lon="6.71783">
        <ele>427.2</ele>
        <time>2014-11-09T10:18:51.000Z</time>
      </trkpt>
      <trkpt lat="47.5661" lon="6.71777">
        <ele>426.9</ele>
        <time>2014-11-09T10:18:52.000Z</time>
      </trkpt>
      <trkpt lat="47.56607" lon="6.71771">
        <ele>427.4</ele>
        <time>2014-11-09T10:18:53.000Z</time>
      </trkpt>
      <trkpt lat="47.56602" lon="6.71762">
        <ele>425.1</ele>
        <time>2014-11-09T10:18:54.000Z</time>
      </trkpt>
      <trkpt lat="47.56598" lon="6.71754">
        <ele>424.2</ele>
        <time>2014-11-09T10:18:55.000Z</time>
      </trkpt>
      <trkpt lat="47.56594" lon="6.71746">
        <ele>427.3</ele>
        <time>2014-11-09T10:18:56.000Z</time>
      </trkpt>
      <trkpt lat="47.5659" lon="6.71739">
        <ele>425.8</ele>
        <time>2014-11-09T10:18:57.000Z</time>
      </trkpt>
      <trkpt lat="47.56561" lon="6.7169">
        <ele>424.7</ele>
        <time>2014-11-09T10:19:05.000Z</time>
      </trkpt>
      <trkpt lat="47.56558" lon="6.71685">
        <ele>424.4</ele>
        <time>2014-11-09T10:19:06.000Z</time>
      </trkpt>
      <trkpt lat="47.5655" lon="6.71681">
        <ele>423.6</ele>
        <time>2014-11-09T10:19:07.000Z</time>
      </trkpt>
      <trkpt lat="47.56543" lon="6.71675">
        <ele>423.3</ele>
        <time>2014-11-09T10:19:08.000Z</time>
      </trkpt>
      <trkpt lat="47.56539" lon="6.71671">
        <ele>424.4</ele>
        <time>2014-11-09T10:19:09.000Z</time>
      </trkpt>
      <trkpt lat="47.56535" lon="6.71668">
        <ele>424.5</ele>
        <time>2014-11-09T10:19:10.000Z</time>
      </trkpt>
      <trkpt lat="47.56532" lon="6.71664">
        <ele>424.9</ele>
        <time>2014-11-09T10:19:11.000Z</time>
      </trkpt>
      <trkpt lat="47.56529" lon="6.71662">
        <ele>425.5</ele>
        <time>2014-11-09T10:19:12.000Z</time>
      </trkpt>
      <trkpt lat="47.56527" lon="6.71659">
        <ele>426.2</ele>
        <time>2014-11-09T10:19:13.000Z</time>
      </trkpt>
      <trkpt lat="47.56525" lon="6.71656">
        <ele>426.4</ele>
        <time>2014-11-09T10:19:14.000Z</time>
      </trkpt>
      <trkpt lat="47.56523" lon="6.71653">
        <ele>426.7</ele>
        <time>2014-11-09T10:19:15.000Z</time>
      </trkpt>
      <trkpt lat="47.5652" lon="6.71651">
        <ele>426.7</ele>
        <time>2014-11-09T10:19:16.000Z</time>
      </trkpt>
      <trkpt lat="47.56517" lon="6.71647">
        <ele>426.6</ele>
        <time>2014-11-09T10:19:17.000Z</time>
      </trkpt>
      <trkpt lat="47.56515" lon="6.71645">
        <ele>426.4</ele>
        <time>2014-11-09T10:19:18.000Z</time>
      </trkpt>
      <trkpt lat="47.56513" lon="6.71643">
        <ele>426</ele>
        <time>2014-11-09T10:19:19.000Z</time>
      </trkpt>
      <trkpt lat="47.5651" lon="6.71641">
        <ele>425.9</ele>
        <time>2014-11-09T10:19:20.000Z</time>
      </trkpt>
      <trkpt lat="47.56507" lon="6.71639">
        <ele>424.1</ele>
        <time>2014-11-09T10:19:21.000Z</time>
      </trkpt>
      <trkpt lat="47.56503" lon="6.71636">
        <ele>422.5</ele>
        <time>2014-11-09T10:19:22.000Z</time>
      </trkpt>
      <trkpt lat="47.56499" lon="6.71634">
        <ele>422.1</ele>
        <time>2014-11-09T10:19:23.000Z</time>
      </trkpt>
      <trkpt lat="47.56494" lon="6.71631">
        <ele>422.4</ele>
        <time>2014-11-09T10:19:24.000Z</time>
      </trkpt>
      <trkpt lat="47.56491" lon="6.71628">
        <ele>422.2</ele>
        <time>2014-11-09T10:19:25.000Z</time>
      </trkpt>
      <trkpt lat="47.56487" lon="6.71625">
        <ele>421.4</ele>
        <time>2014-11-09T10:19:26.000Z</time>
      </trkpt>
      <trkpt lat="47.56483" lon="6.71622">
        <ele>420.8</ele>
        <time>2014-11-09T10:19:27.000Z</time>
      </trkpt>
      <trkpt lat="47.5648" lon="6.71619">
        <ele>421.2</ele>
        <time>2014-11-09T10:19:28.000Z</time>
      </trkpt>
      <trkpt lat="47.56476" lon="6.71615">
        <ele>421.5</ele>
        <time>2014-11-09T10:19:29.000Z</time>
      </trkpt>
      <trkpt lat="47.56473" lon="6.71611">
        <ele>420.6</ele>
        <time>2014-11-09T10:19:30.000Z</time>
      </trkpt>
      <trkpt lat="47.56469" lon="6.71607">
        <ele>420.3</ele>
        <time>2014-11-09T10:19:31.000Z</time>
      </trkpt>
      <trkpt lat="47.56466" lon="6.71603">
        <ele>420.7</ele>
        <time>2014-11-09T10:19:32.000Z</time>
      </trkpt>
      <trkpt lat="47.56462" lon="6.71599">
        <ele>420.2</ele>
        <time>2014-11-09T10:19:33.000Z</time>
      </trkpt>
      <trkpt lat="47.56459" lon="6.71596">
        <ele>419.9</ele>
        <time>2014-11-09T10:19:34.000Z</time>
      </trkpt>
      <trkpt lat="47.56455" lon="6.71592">
        <ele>420.7</ele>
        <time>2014-11-09T10:19:35.000Z</time>
      </trkpt>
      <trkpt lat="47.56452" lon="6.71589">
        <ele>421</ele>
        <time>2014-11-09T10:19:36.000Z</time>
      </trkpt>
      <trkpt lat="47.56448" lon="6.71585">
        <ele>422.3</ele>
        <time>2014-11-09T10:19:37.000Z</time>
      </trkpt>
      <trkpt lat="47.56443" lon="6.71581">
        <ele>425.1</ele>
        <time>2014-11-09T10:19:38.000Z</time>
      </trkpt>
      <trkpt lat="47.56437" lon="6.71576">
        <ele>425.8</ele>
        <time>2014-11-09T10:19:39.000Z</time>
      </trkpt>
      <trkpt lat="47.56431" lon="6.71571">
        <ele>425.7</ele>
        <time>2014-11-09T10:19:40.000Z</time>
      </trkpt>
      <trkpt lat="47.56426" lon="6.71565">
        <ele>425.6</ele>
        <time>2014-11-09T10:19:41.000Z</time>
      </trkpt>
      <trkpt lat="47.56421" lon="6.71559">
        <ele>425.7</ele>
        <time>2014-11-09T10:19:42.000Z</time>
      </trkpt>
      <trkpt lat="47.56416" lon="6.71554">
        <ele>424.6</ele>
        <time>2014-11-09T10:19:43.000Z</time>
      </trkpt>
      <trkpt lat="47.56399" lon="6.71541">
        <ele>423.4</ele>
        <time>2014-11-09T10:19:44.000Z</time>
      </trkpt>
      <trkpt lat="47.56393" lon="6.71536">
        <ele>421.3</ele>
        <time>2014-11-09T10:19:45.000Z</time>
      </trkpt>
      <trkpt lat="47.56389" lon="6.71532">
        <ele>420.8</ele>
        <time>2014-11-09T10:19:46.000Z</time>
      </trkpt>
      <trkpt lat="47.56385" lon="6.71527">
        <ele>421.3</ele>
        <time>2014-11-09T10:19:47.000Z</time>
      </trkpt>
      <trkpt lat="47.5638" lon="6.71523">
        <ele>421.5</ele>
        <time>2014-11-09T10:19:48.000Z</time>
      </trkpt>
      <trkpt lat="47.56376" lon="6.71517">
        <ele>420.4</ele>
        <time>2014-11-09T10:19:49.000Z</time>
      </trkpt>
      <trkpt lat="47.56371" lon="6.71511">
        <ele>419.3</ele>
        <time>2014-11-09T10:19:50.000Z</time>
      </trkpt>
      <trkpt lat="47.56366" lon="6.71505">
        <ele>417.8</ele>
        <time>2014-11-09T10:19:51.000Z</time>
      </trkpt>
      <trkpt lat="47.56362" lon="6.71499">
        <ele>416.3</ele>
        <time>2014-11-09T10:19:52.000Z</time>
      </trkpt>
      <trkpt lat="47.56357" lon="6.71492">
        <ele>414.6</ele>
        <time>2014-11-09T10:19:53.000Z</time>
      </trkpt>
      <trkpt lat="47.56346" lon="6.71484">
        <ele>413.3</ele>
        <time>2014-11-09T10:19:54.000Z</time>
      </trkpt>
      <trkpt lat="47.5634" lon="6.71476">
        <ele>410.5</ele>
        <time>2014-11-09T10:19:55.000Z</time>
      </trkpt>
      <trkpt lat="47.56334" lon="6.7147">
        <ele>410</ele>
        <time>2014-11-09T10:19:56.000Z</time>
      </trkpt>
      <trkpt lat="47.56322" lon="6.71454">
        <ele>407.7</ele>
        <time>2014-11-09T10:19:59.000Z</time>
      </trkpt>
      <trkpt lat="47.56314" lon="6.71449">
        <ele>407.2</ele>
        <time>2014-11-09T10:20:00.000Z</time>
      </trkpt>
      <trkpt lat="47.56308" lon="6.71442">
        <ele>406.4</ele>
        <time>2014-11-09T10:20:01.000Z</time>
      </trkpt>
      <trkpt lat="47.56303" lon="6.71438">
        <ele>405.8</ele>
        <time>2014-11-09T10:20:02.000Z</time>
      </trkpt>
      <trkpt lat="47.56298" lon="6.71434">
        <ele>407</ele>
        <time>2014-11-09T10:20:03.000Z</time>
      </trkpt>
      <trkpt lat="47.56295" lon="6.71431">
        <ele>406.9</ele>
        <time>2014-11-09T10:20:04.000Z</time>
      </trkpt>
      <trkpt lat="47.56291" lon="6.71429">
        <ele>406.8</ele>
        <time>2014-11-09T10:20:05.000Z</time>
      </trkpt>
      <trkpt lat="47.56288" lon="6.71425">
        <ele>406.7</ele>
        <time>2014-11-09T10:20:06.000Z</time>
      </trkpt>
      <trkpt lat="47.56285" lon="6.71423">
        <ele>407</ele>
        <time>2014-11-09T10:20:07.000Z</time>
      </trkpt>
      <trkpt lat="47.56282" lon="6.7142">
        <ele>407.4</ele>
        <time>2014-11-09T10:20:08.000Z</time>
      </trkpt>
      <trkpt lat="47.56278" lon="6.71416">
        <ele>408.4</ele>
        <time>2014-11-09T10:20:09.000Z</time>
      </trkpt>
      <trkpt lat="47.56275" lon="6.71412">
        <ele>408.2</ele>
        <time>2014-11-09T10:20:10.000Z</time>
      </trkpt>
      <trkpt lat="47.56272" lon="6.71409">
        <ele>407.6</ele>
        <time>2014-11-09T10:20:11.000Z</time>
      </trkpt>
      <trkpt lat="47.5627" lon="6.71405">
        <ele>408</ele>
        <time>2014-11-09T10:20:12.000Z</time>
      </trkpt>
      <trkpt lat="47.56266" lon="6.714">
        <ele>408.9</ele>
        <time>2014-11-09T10:20:13.000Z</time>
      </trkpt>
      <trkpt lat="47.56259" lon="6.71392">
        <ele>408.3</ele>
        <time>2014-11-09T10:20:14.000Z</time>
      </trkpt>
      <trkpt lat="47.56255" lon="6.71387">
        <ele>408.2</ele>
        <time>2014-11-09T10:20:15.000Z</time>
      </trkpt>
      <trkpt lat="47.56252" lon="6.7138">
        <ele>408.4</ele>
        <time>2014-11-09T10:20:16.000Z</time>
      </trkpt>
      <trkpt lat="47.56248" lon="6.71374">
        <ele>408.1</ele>
        <time>2014-11-09T10:20:17.000Z</time>
      </trkpt>
      <trkpt lat="47.56243" lon="6.71369">
        <ele>407.1</ele>
        <time>2014-11-09T10:20:18.000Z</time>
      </trkpt>
      <trkpt lat="47.56239" lon="6.71362">
        <ele>407.5</ele>
        <time>2014-11-09T10:20:19.000Z</time>
      </trkpt>
      <trkpt lat="47.56234" lon="6.71356">
        <ele>407.1</ele>
        <time>2014-11-09T10:20:20.000Z</time>
      </trkpt>
      <trkpt lat="47.56229" lon="6.71349">
        <ele>407</ele>
        <time>2014-11-09T10:20:21.000Z</time>
      </trkpt>
      <trkpt lat="47.56224" lon="6.71343">
        <ele>406.3</ele>
        <time>2014-11-09T10:20:22.000Z</time>
      </trkpt>
      <trkpt lat="47.56219" lon="6.71337">
        <ele>405.4</ele>
        <time>2014-11-09T10:20:23.000Z</time>
      </trkpt>
      <trkpt lat="47.56214" lon="6.71332">
        <ele>404.9</ele>
        <time>2014-11-09T10:20:24.000Z</time>
      </trkpt>
      <trkpt lat="47.56208" lon="6.71326">
        <ele>404.9</ele>
        <time>2014-11-09T10:20:25.000Z</time>
      </trkpt>
      <trkpt lat="47.56204" lon="6.71322">
        <ele>404.3</ele>
        <time>2014-11-09T10:20:26.000Z</time>
      </trkpt>
      <trkpt lat="47.56197" lon="6.71317">
        <ele>403.9</ele>
        <time>2014-11-09T10:20:27.000Z</time>
      </trkpt>
      <trkpt lat="47.56191" lon="6.71313">
        <ele>403.3</ele>
        <time>2014-11-09T10:20:28.000Z</time>
      </trkpt>
      <trkpt lat="47.56186" lon="6.71309">
        <ele>402.9</ele>
        <time>2014-11-09T10:20:29.000Z</time>
      </trkpt>
      <trkpt lat="47.5618" lon="6.71305">
        <ele>402.6</ele>
        <time>2014-11-09T10:20:30.000Z</time>
      </trkpt>
      <trkpt lat="47.56175" lon="6.71301">
        <ele>402.7</ele>
        <time>2014-11-09T10:20:31.000Z</time>
      </trkpt>
      <trkpt lat="47.56169" lon="6.71298">
        <ele>402.4</ele>
        <time>2014-11-09T10:20:32.000Z</time>
      </trkpt>
      <trkpt lat="47.56163" lon="6.71293">
        <ele>401.8</ele>
        <time>2014-11-09T10:20:33.000Z</time>
      </trkpt>
      <trkpt lat="47.56158" lon="6.7129">
        <ele>400.8</ele>
        <time>2014-11-09T10:20:34.000Z</time>
      </trkpt>
      <trkpt lat="47.56153" lon="6.71287">
        <ele>400.3</ele>
        <time>2014-11-09T10:20:35.000Z</time>
      </trkpt>
      <trkpt lat="47.56147" lon="6.71283">
        <ele>400</ele>
        <time>2014-11-09T10:20:36.000Z</time>
      </trkpt>
      <trkpt lat="47.56141" lon="6.71279">
        <ele>399.9</ele>
        <time>2014-11-09T10:20:37.000Z</time>
      </trkpt>
      <trkpt lat="47.56136" lon="6.71274">
        <ele>399.5</ele>
        <time>2014-11-09T10:20:38.000Z</time>
      </trkpt>
      <trkpt lat="47.5613" lon="6.7127">
        <ele>399.6</ele>
        <time>2014-11-09T10:20:39.000Z</time>
      </trkpt>
      <trkpt lat="47.56124" lon="6.71265">
        <ele>399.3</ele>
        <time>2014-11-09T10:20:40.000Z</time>
      </trkpt>
      <trkpt lat="47.56118" lon="6.7126">
        <ele>399.1</ele>
        <time>2014-11-09T10:20:41.000Z</time>
      </trkpt>
      <trkpt lat="47.56112" lon="6.71256">
        <ele>398.7</ele>
        <time>2014-11-09T10:20:42.000Z</time>
      </trkpt>
      <trkpt lat="47.56106" lon="6.71252">
        <ele>398.3</ele>
        <time>2014-11-09T10:20:43.000Z</time>
      </trkpt>
      <trkpt lat="47.56099" lon="6.71247">
        <ele>398.1</ele>
        <time>2014-11-09T10:20:44.000Z</time>
      </trkpt>
      <trkpt lat="47.56094" lon="6.71243">
        <ele>397.5</ele>
        <time>2014-11-09T10:20:45.000Z</time>
      </trkpt>
      <trkpt lat="47.56087" lon="6.71238">
        <ele>397.2</ele>
        <time>2014-11-09T10:20:46.000Z</time>
      </trkpt>
      <trkpt lat="47.5608" lon="6.71234">
        <ele>396.8</ele>
        <time>2014-11-09T10:20:47.000Z</time>
      </trkpt>
      <trkpt lat="47.56074" lon="6.71229">
        <ele>396.5</ele>
        <time>2014-11-09T10:20:48.000Z</time>
      </trkpt>
      <trkpt lat="47.56067" lon="6.71225">
        <ele>396.6</ele>
        <time>2014-11-09T10:20:49.000Z</time>
      </trkpt>
      <trkpt lat="47.56061" lon="6.7122">
        <ele>396.5</ele>
        <time>2014-11-09T10:20:49.998Z</time>
      </trkpt>
      <trkpt lat="47.56054" lon="6.71215">
        <ele>395.9</ele>
        <time>2014-11-09T10:20:51.000Z</time>
      </trkpt>
      <trkpt lat="47.56047" lon="6.71211">
        <ele>396</ele>
        <time>2014-11-09T10:20:52.000Z</time>
      </trkpt>
      <trkpt lat="47.56042" lon="6.71208">
        <ele>395.5</ele>
        <time>2014-11-09T10:20:53.000Z</time>
      </trkpt>
      <trkpt lat="47.56035" lon="6.71203">
        <ele>395.3</ele>
        <time>2014-11-09T10:20:54.000Z</time>
      </trkpt>
      <trkpt lat="47.5603" lon="6.71199">
        <ele>395.4</ele>
        <time>2014-11-09T10:20:55.000Z</time>
      </trkpt>
      <trkpt lat="47.56025" lon="6.71196">
        <ele>394.9</ele>
        <time>2014-11-09T10:20:56.000Z</time>
      </trkpt>
      <trkpt lat="47.55999" lon="6.71175">
        <ele>394.5</ele>
        <time>2014-11-09T10:21:04.000Z</time>
      </trkpt>
      <trkpt lat="47.55995" lon="6.71171">
        <ele>394.7</ele>
        <time>2014-11-09T10:21:05.000Z</time>
      </trkpt>
      <trkpt lat="47.55993" lon="6.71168">
        <ele>394.5</ele>
        <time>2014-11-09T10:21:06.000Z</time>
      </trkpt>
      <trkpt lat="47.55989" lon="6.71166">
        <ele>394.3</ele>
        <time>2014-11-09T10:21:07.000Z</time>
      </trkpt>
      <trkpt lat="47.55986" lon="6.71162">
        <ele>394.8</ele>
        <time>2014-11-09T10:21:08.000Z</time>
      </trkpt>
      <trkpt lat="47.55981" lon="6.7116">
        <ele>395.5</ele>
        <time>2014-11-09T10:21:09.000Z</time>
      </trkpt>
      <trkpt lat="47.55976" lon="6.71158">
        <ele>395.6</ele>
        <time>2014-11-09T10:21:10.000Z</time>
      </trkpt>
      <trkpt lat="47.55972" lon="6.71157">
        <ele>395.8</ele>
        <time>2014-11-09T10:21:11.000Z</time>
      </trkpt>
      <trkpt lat="47.55968" lon="6.71157">
        <ele>395.9</ele>
        <time>2014-11-09T10:21:12.000Z</time>
      </trkpt>
      <trkpt lat="47.55965" lon="6.71155">
        <ele>396.5</ele>
        <time>2014-11-09T10:21:13.000Z</time>
      </trkpt>
      <trkpt lat="47.55962" lon="6.71154">
        <ele>397.1</ele>
        <time>2014-11-09T10:21:14.000Z</time>
      </trkpt>
      <trkpt lat="47.55958" lon="6.71154">
        <ele>395.7</ele>
        <time>2014-11-09T10:21:16.000Z</time>
      </trkpt>
      <trkpt lat="47.55956" lon="6.71153">
        <ele>397.7</ele>
        <time>2014-11-09T10:21:17.000Z</time>
      </trkpt>
      <trkpt lat="47.55952" lon="6.71152">
        <ele>399.7</ele>
        <time>2014-11-09T10:21:19.000Z</time>
      </trkpt>
      <trkpt lat="47.55951" lon="6.71152">
        <ele>399.6</ele>
        <time>2014-11-09T10:21:20.000Z</time>
      </trkpt>
      <trkpt lat="47.55948" lon="6.7115">
        <ele>399.4</ele>
        <time>2014-11-09T10:21:41.000Z</time>
      </trkpt>
      <trkpt lat="47.55946" lon="6.71149">
        <ele>399.7</ele>
        <time>2014-11-09T10:21:42.000Z</time>
      </trkpt>
      <trkpt lat="47.55942" lon="6.71147">
        <ele>398.5</ele>
        <time>2014-11-09T10:21:44.000Z</time>
      </trkpt>
      <trkpt lat="47.5594" lon="6.71146">
        <ele>398.7</ele>
        <time>2014-11-09T10:21:45.000Z</time>
      </trkpt>
      <trkpt lat="47.55937" lon="6.71144">
        <ele>400.5</ele>
        <time>2014-11-09T10:21:47.000Z</time>
      </trkpt>
      <trkpt lat="47.55935" lon="6.71143">
        <ele>400.9</ele>
        <time>2014-11-09T10:21:48.000Z</time>
      </trkpt>
      <trkpt lat="47.55933" lon="6.7114">
        <ele>402.3</ele>
        <time>2014-11-09T10:21:50.000Z</time>
      </trkpt>
      <trkpt lat="47.55931" lon="6.71139">
        <ele>403.5</ele>
        <time>2014-11-09T10:21:51.000Z</time>
      </trkpt>
      <trkpt lat="47.55929" lon="6.71137">
        <ele>406.3</ele>
        <time>2014-11-09T10:21:53.000Z</time>
      </trkpt>
      <trkpt lat="47.55927" lon="6.71136">
        <ele>407</ele>
        <time>2014-11-09T10:21:54.000Z</time>
      </trkpt>
      <trkpt lat="47.55925" lon="6.71134">
        <ele>408.5</ele>
        <time>2014-11-09T10:21:56.000Z</time>
      </trkpt>
      <trkpt lat="47.55922" lon="6.71131">
        <ele>409.9</ele>
        <time>2014-11-09T10:21:59.000Z</time>
      </trkpt>
      <trkpt lat="47.55918" lon="6.71128">
        <ele>410.5</ele>
        <time>2014-11-09T10:22:02.000Z</time>
      </trkpt>
      <trkpt lat="47.55917" lon="6.71127">
        <ele>410.5</ele>
        <time>2014-11-09T10:22:03.000Z</time>
      </trkpt>
      <trkpt lat="47.55914" lon="6.71124">
        <ele>411.8</ele>
        <time>2014-11-09T10:22:05.000Z</time>
      </trkpt>
      <trkpt lat="47.55913" lon="6.71123">
        <ele>413.1</ele>
        <time>2014-11-09T10:22:06.000Z</time>
      </trkpt>
      <trkpt lat="47.55909" lon="6.7112">
        <ele>413.1</ele>
        <time>2014-11-09T10:22:09.000Z</time>
      </trkpt>
      <trkpt lat="47.55908" lon="6.71118">
        <ele>413.1</ele>
        <time>2014-11-09T10:22:10.000Z</time>
      </trkpt>
      <trkpt lat="47.55906" lon="6.71115">
        <ele>414.2</ele>
        <time>2014-11-09T10:22:12.000Z</time>
      </trkpt>
      <trkpt lat="47.55904" lon="6.71113">
        <ele>413.6</ele>
        <time>2014-11-09T10:22:13.000Z</time>
      </trkpt>
      <trkpt lat="47.55903" lon="6.7111">
        <ele>413.7</ele>
        <time>2014-11-09T10:22:14.000Z</time>
      </trkpt>
      <trkpt lat="47.55901" lon="6.71107">
        <ele>412.6</ele>
        <time>2014-11-09T10:22:15.000Z</time>
      </trkpt>
      <trkpt lat="47.559" lon="6.71104">
        <ele>412.3</ele>
        <time>2014-11-09T10:22:16.000Z</time>
      </trkpt>
      <trkpt lat="47.55898" lon="6.71101">
        <ele>411.2</ele>
        <time>2014-11-09T10:22:17.000Z</time>
      </trkpt>
      <trkpt lat="47.55896" lon="6.71099">
        <ele>411.1</ele>
        <time>2014-11-09T10:22:18.000Z</time>
      </trkpt>
      <trkpt lat="47.55894" lon="6.71096">
        <ele>410.6</ele>
        <time>2014-11-09T10:22:19.000Z</time>
      </trkpt>
      <trkpt lat="47.55892" lon="6.71093">
        <ele>410.6</ele>
        <time>2014-11-09T10:22:20.000Z</time>
      </trkpt>
      <trkpt lat="47.5589" lon="6.71091">
        <ele>410.4</ele>
        <time>2014-11-09T10:22:21.000Z</time>
      </trkpt>
      <trkpt lat="47.55888" lon="6.71088">
        <ele>410.1</ele>
        <time>2014-11-09T10:22:22.000Z</time>
      </trkpt>
      <trkpt lat="47.55886" lon="6.71086">
        <ele>410.2</ele>
        <time>2014-11-09T10:22:23.000Z</time>
      </trkpt>
      <trkpt lat="47.55885" lon="6.71084">
        <ele>410.3</ele>
        <time>2014-11-09T10:22:24.000Z</time>
      </trkpt>
      <trkpt lat="47.55883" lon="6.71082">
        <ele>410.9</ele>
        <time>2014-11-09T10:22:25.000Z</time>
      </trkpt>
      <trkpt lat="47.55881" lon="6.7108">
        <ele>411.4</ele>
        <time>2014-11-09T10:22:26.000Z</time>
      </trkpt>
      <trkpt lat="47.55879" lon="6.71078">
        <ele>411.8</ele>
        <time>2014-11-09T10:22:27.000Z</time>
      </trkpt>
      <trkpt lat="47.55875" lon="6.71074">
        <ele>412.8</ele>
        <time>2014-11-09T10:22:29.000Z</time>
      </trkpt>
      <trkpt lat="47.55873" lon="6.71072">
        <ele>413.2</ele>
        <time>2014-11-09T10:22:30.000Z</time>
      </trkpt>
      <trkpt lat="47.5587" lon="6.71069">
        <ele>413.9</ele>
        <time>2014-11-09T10:22:32.000Z</time>
      </trkpt>
      <trkpt lat="47.55868" lon="6.71067">
        <ele>414</ele>
        <time>2014-11-09T10:22:33.000Z</time>
      </trkpt>
      <trkpt lat="47.55866" lon="6.71063">
        <ele>413.9</ele>
        <time>2014-11-09T10:22:35.000Z</time>
      </trkpt>
      <trkpt lat="47.55864" lon="6.71061">
        <ele>414.7</ele>
        <time>2014-11-09T10:22:36.000Z</time>
      </trkpt>
      <trkpt lat="47.55861" lon="6.71057">
        <ele>416</ele>
        <time>2014-11-09T10:22:38.000Z</time>
      </trkpt>
      <trkpt lat="47.5586" lon="6.71055">
        <ele>417.3</ele>
        <time>2014-11-09T10:22:39.000Z</time>
      </trkpt>
      <trkpt lat="47.55857" lon="6.71052">
        <ele>418.8</ele>
        <time>2014-11-09T10:22:41.000Z</time>
      </trkpt>
      <trkpt lat="47.55856" lon="6.7105">
        <ele>418.8</ele>
        <time>2014-11-09T10:22:42.000Z</time>
      </trkpt>
      <trkpt lat="47.55852" lon="6.71046">
        <ele>419.8</ele>
        <time>2014-11-09T10:22:44.000Z</time>
      </trkpt>
      <trkpt lat="47.55851" lon="6.71045">
        <ele>420.7</ele>
        <time>2014-11-09T10:22:45.000Z</time>
      </trkpt>
      <trkpt lat="47.55848" lon="6.71041">
        <ele>421.4</ele>
        <time>2014-11-09T10:22:47.000Z</time>
      </trkpt>
      <trkpt lat="47.55846" lon="6.71038">
        <ele>421.4</ele>
        <time>2014-11-09T10:22:48.000Z</time>
      </trkpt>
      <trkpt lat="47.55843" lon="6.71034">
        <ele>420.2</ele>
        <time>2014-11-09T10:22:50.000Z</time>
      </trkpt>
      <trkpt lat="47.55842" lon="6.71032">
        <ele>420.6</ele>
        <time>2014-11-09T10:22:51.000Z</time>
      </trkpt>
      <trkpt lat="47.55839" lon="6.71028">
        <ele>421.2</ele>
        <time>2014-11-09T10:22:53.000Z</time>
      </trkpt>
      <trkpt lat="47.55837" lon="6.71025">
        <ele>419.7</ele>
        <time>2014-11-09T10:22:54.000Z</time>
      </trkpt>
      <trkpt lat="47.55835" lon="6.71023">
        <ele>418.9</ele>
        <time>2014-11-09T10:22:55.000Z</time>
      </trkpt>
      <trkpt lat="47.55833" lon="6.7102">
        <ele>418.4</ele>
        <time>2014-11-09T10:22:56.000Z</time>
      </trkpt>
      <trkpt lat="47.5582" lon="6.71005">
        <ele>419</ele>
        <time>2014-11-09T10:23:04.000Z</time>
      </trkpt>
      <trkpt lat="47.55816" lon="6.71002">
        <ele>417.6</ele>
        <time>2014-11-09T10:23:06.000Z</time>
      </trkpt>
      <trkpt lat="47.55815" lon="6.71">
        <ele>417.2</ele>
        <time>2014-11-09T10:23:07.000Z</time>
      </trkpt>
      <trkpt lat="47.55812" lon="6.70996">
        <ele>417.2</ele>
        <time>2014-11-09T10:23:09.000Z</time>
      </trkpt>
      <trkpt lat="47.55811" lon="6.70995">
        <ele>416.6</ele>
        <time>2014-11-09T10:23:10.000Z</time>
      </trkpt>
      <trkpt lat="47.55807" lon="6.70991">
        <ele>415.2</ele>
        <time>2014-11-09T10:23:12.000Z</time>
      </trkpt>
      <trkpt lat="47.55804" lon="6.7099">
        <ele>413.8</ele>
        <time>2014-11-09T10:23:13.000Z</time>
      </trkpt>
      <trkpt lat="47.55802" lon="6.7099">
        <ele>413.1</ele>
        <time>2014-11-09T10:23:14.000Z</time>
      </trkpt>
      <trkpt lat="47.55799" lon="6.7099">
        <ele>412.6</ele>
        <time>2014-11-09T10:23:15.000Z</time>
      </trkpt>
      <trkpt lat="47.55796" lon="6.7099">
        <ele>412</ele>
        <time>2014-11-09T10:23:16.000Z</time>
      </trkpt>
      <trkpt lat="47.55793" lon="6.70991">
        <ele>411.7</ele>
        <time>2014-11-09T10:23:17.000Z</time>
      </trkpt>
      <trkpt lat="47.55791" lon="6.70991">
        <ele>411.5</ele>
        <time>2014-11-09T10:23:18.000Z</time>
      </trkpt>
      <trkpt lat="47.55788" lon="6.7099">
        <ele>411.2</ele>
        <time>2014-11-09T10:23:19.000Z</time>
      </trkpt>
      <trkpt lat="47.55784" lon="6.7099">
        <ele>410.8</ele>
        <time>2014-11-09T10:23:21.000Z</time>
      </trkpt>
      <trkpt lat="47.55782" lon="6.7099">
        <ele>410.8</ele>
        <time>2014-11-09T10:23:22.000Z</time>
      </trkpt>
      <trkpt lat="47.55779" lon="6.70993">
        <ele>409.2</ele>
        <time>2014-11-09T10:23:31.000Z</time>
      </trkpt>
      <trkpt lat="47.55778" lon="6.70996">
        <ele>408.8</ele>
        <time>2014-11-09T10:23:32.000Z</time>
      </trkpt>
      <trkpt lat="47.55776" lon="6.70999">
        <ele>407.7</ele>
        <time>2014-11-09T10:23:33.000Z</time>
      </trkpt>
      <trkpt lat="47.55775" lon="6.71003">
        <ele>407.1</ele>
        <time>2014-11-09T10:23:34.000Z</time>
      </trkpt>
      <trkpt lat="47.55773" lon="6.71006">
        <ele>407</ele>
        <time>2014-11-09T10:23:35.000Z</time>
      </trkpt>
      <trkpt lat="47.55771" lon="6.7101">
        <ele>406.8</ele>
        <time>2014-11-09T10:23:36.000Z</time>
      </trkpt>
      <trkpt lat="47.55768" lon="6.71013">
        <ele>406.3</ele>
        <time>2014-11-09T10:23:37.000Z</time>
      </trkpt>
      <trkpt lat="47.55766" lon="6.71016">
        <ele>406.4</ele>
        <time>2014-11-09T10:23:38.000Z</time>
      </trkpt>
      <trkpt lat="47.55763" lon="6.71019">
        <ele>405.6</ele>
        <time>2014-11-09T10:23:39.000Z</time>
      </trkpt>
      <trkpt lat="47.55761" lon="6.71021">
        <ele>405.1</ele>
        <time>2014-11-09T10:23:40.000Z</time>
      </trkpt>
      <trkpt lat="47.55759" lon="6.71021">
        <ele>404.2</ele>
        <time>2014-11-09T10:23:41.000Z</time>
      </trkpt>
      <trkpt lat="47.55756" lon="6.71021">
        <ele>404.5</ele>
        <time>2014-11-09T10:23:42.000Z</time>
      </trkpt>
      <trkpt lat="47.55754" lon="6.71021">
        <ele>404.2</ele>
        <time>2014-11-09T10:23:43.000Z</time>
      </trkpt>
      <trkpt lat="47.55752" lon="6.71023">
        <ele>403.7</ele>
        <time>2014-11-09T10:23:44.000Z</time>
      </trkpt>
      <trkpt lat="47.5575" lon="6.71026">
        <ele>403.4</ele>
        <time>2014-11-09T10:23:45.000Z</time>
      </trkpt>
      <trkpt lat="47.55748" lon="6.7103">
        <ele>403.2</ele>
        <time>2014-11-09T10:23:46.000Z</time>
      </trkpt>
      <trkpt lat="47.55747" lon="6.71034">
        <ele>403.1</ele>
        <time>2014-11-09T10:23:47.000Z</time>
      </trkpt>
      <trkpt lat="47.55746" lon="6.7104">
        <ele>402.8</ele>
        <time>2014-11-09T10:23:48.000Z</time>
      </trkpt>
      <trkpt lat="47.55745" lon="6.71046">
        <ele>402.2</ele>
        <time>2014-11-09T10:23:49.000Z</time>
      </trkpt>
      <trkpt lat="47.55743" lon="6.71057">
        <ele>401.7</ele>
        <time>2014-11-09T10:23:50.000Z</time>
      </trkpt>
      <trkpt lat="47.55742" lon="6.71065">
        <ele>401.4</ele>
        <time>2014-11-09T10:23:51.000Z</time>
      </trkpt>
      <trkpt lat="47.55741" lon="6.71073">
        <ele>401.1</ele>
        <time>2014-11-09T10:23:52.000Z</time>
      </trkpt>
      <trkpt lat="47.5574" lon="6.71082">
        <ele>400.9</ele>
        <time>2014-11-09T10:23:53.000Z</time>
      </trkpt>
      <trkpt lat="47.5574" lon="6.71091">
        <ele>400.5</ele>
        <time>2014-11-09T10:23:54.000Z</time>
      </trkpt>
      <trkpt lat="47.55739" lon="6.71101">
        <ele>399.9</ele>
        <time>2014-11-09T10:23:55.000Z</time>
      </trkpt>
      <trkpt lat="47.55739" lon="6.71111">
        <ele>399.1</ele>
        <time>2014-11-09T10:23:56.000Z</time>
      </trkpt>
      <trkpt lat="47.55738" lon="6.71139">
        <ele>399.5</ele>
        <time>2014-11-09T10:23:59.000Z</time>
      </trkpt>
      <trkpt lat="47.55737" lon="6.71149">
        <ele>398.9</ele>
        <time>2014-11-09T10:24:00.000Z</time>
      </trkpt>
      <trkpt lat="47.55737" lon="6.7116">
        <ele>398.5</ele>
        <time>2014-11-09T10:24:01.000Z</time>
      </trkpt>
      <trkpt lat="47.55736" lon="6.71172">
        <ele>398.4</ele>
        <time>2014-11-09T10:24:02.000Z</time>
      </trkpt>
      <trkpt lat="47.55736" lon="6.71184">
        <ele>397.9</ele>
        <time>2014-11-09T10:24:03.000Z</time>
      </trkpt>
      <trkpt lat="47.55736" lon="6.71196">
        <ele>396.5</ele>
        <time>2014-11-09T10:24:04.000Z</time>
      </trkpt>
      <trkpt lat="47.55736" lon="6.71208">
        <ele>395.8</ele>
        <time>2014-11-09T10:24:05.000Z</time>
      </trkpt>
      <trkpt lat="47.55736" lon="6.7122">
        <ele>395.3</ele>
        <time>2014-11-09T10:24:06.000Z</time>
      </trkpt>
      <trkpt lat="47.55735" lon="6.71233">
        <ele>394.5</ele>
        <time>2014-11-09T10:24:07.000Z</time>
      </trkpt>
      <trkpt lat="47.55734" lon="6.71245">
        <ele>394.2</ele>
        <time>2014-11-09T10:24:08.000Z</time>
      </trkpt>
      <trkpt lat="47.55734" lon="6.71257">
        <ele>393.4</ele>
        <time>2014-11-09T10:24:09.000Z</time>
      </trkpt>
      <trkpt lat="47.55734" lon="6.71269">
        <ele>393.2</ele>
        <time>2014-11-09T10:24:10.000Z</time>
      </trkpt>
      <trkpt lat="47.55733" lon="6.71282">
        <ele>393.4</ele>
        <time>2014-11-09T10:24:11.000Z</time>
      </trkpt>
      <trkpt lat="47.55733" lon="6.71295">
        <ele>392.8</ele>
        <time>2014-11-09T10:24:12.000Z</time>
      </trkpt>
      <trkpt lat="47.55734" lon="6.71308">
        <ele>392.7</ele>
        <time>2014-11-09T10:24:13.000Z</time>
      </trkpt>
      <trkpt lat="47.55735" lon="6.71321">
        <ele>392</ele>
        <time>2014-11-09T10:24:14.000Z</time>
      </trkpt>
      <trkpt lat="47.55737" lon="6.71334">
        <ele>391</ele>
        <time>2014-11-09T10:24:15.000Z</time>
      </trkpt>
      <trkpt lat="47.55739" lon="6.71348">
        <ele>390.1</ele>
        <time>2014-11-09T10:24:16.000Z</time>
      </trkpt>
      <trkpt lat="47.55742" lon="6.71362">
        <ele>388.8</ele>
        <time>2014-11-09T10:24:17.000Z</time>
      </trkpt>
      <trkpt lat="47.55743" lon="6.71375">
        <ele>388.2</ele>
        <time>2014-11-09T10:24:18.000Z</time>
      </trkpt>
      <trkpt lat="47.55744" lon="6.71388">
        <ele>388.1</ele>
        <time>2014-11-09T10:24:19.000Z</time>
      </trkpt>
      <trkpt lat="47.55744" lon="6.71401">
        <ele>388</ele>
        <time>2014-11-09T10:24:20.000Z</time>
      </trkpt>
      <trkpt lat="47.55745" lon="6.71414">
        <ele>387.7</ele>
        <time>2014-11-09T10:24:21.000Z</time>
      </trkpt>
      <trkpt lat="47.55745" lon="6.71426">
        <ele>388.3</ele>
        <time>2014-11-09T10:24:22.000Z</time>
      </trkpt>
      <trkpt lat="47.55745" lon="6.71439">
        <ele>387.9</ele>
        <time>2014-11-09T10:24:23.000Z</time>
      </trkpt>
      <trkpt lat="47.55746" lon="6.71453">
        <ele>386.7</ele>
        <time>2014-11-09T10:24:24.000Z</time>
      </trkpt>
      <trkpt lat="47.55747" lon="6.71467">
        <ele>386</ele>
        <time>2014-11-09T10:24:25.000Z</time>
      </trkpt>
      <trkpt lat="47.55747" lon="6.7148">
        <ele>386.4</ele>
        <time>2014-11-09T10:24:26.000Z</time>
      </trkpt>
      <trkpt lat="47.55747" lon="6.71493">
        <ele>386.5</ele>
        <time>2014-11-09T10:24:27.000Z</time>
      </trkpt>
      <trkpt lat="47.55748" lon="6.71506">
        <ele>386</ele>
        <time>2014-11-09T10:24:28.000Z</time>
      </trkpt>
      <trkpt lat="47.55748" lon="6.71519">
        <ele>385.3</ele>
        <time>2014-11-09T10:24:29.000Z</time>
      </trkpt>
      <trkpt lat="47.55749" lon="6.71533">
        <ele>384.7</ele>
        <time>2014-11-09T10:24:30.000Z</time>
      </trkpt>
      <trkpt lat="47.55749" lon="6.71546">
        <ele>384.2</ele>
        <time>2014-11-09T10:24:31.000Z</time>
      </trkpt>
      <trkpt lat="47.5575" lon="6.71559">
        <ele>384.2</ele>
        <time>2014-11-09T10:24:32.000Z</time>
      </trkpt>
      <trkpt lat="47.55751" lon="6.71572">
        <ele>383.5</ele>
        <time>2014-11-09T10:24:33.000Z</time>
      </trkpt>
      <trkpt lat="47.55751" lon="6.71585">
        <ele>383.1</ele>
        <time>2014-11-09T10:24:34.000Z</time>
      </trkpt>
      <trkpt lat="47.55751" lon="6.71596">
        <ele>383.3</ele>
        <time>2014-11-09T10:24:35.000Z</time>
      </trkpt>
      <trkpt lat="47.55752" lon="6.71608">
        <ele>383.3</ele>
        <time>2014-11-09T10:24:36.000Z</time>
      </trkpt>
      <trkpt lat="47.55754" lon="6.7162">
        <ele>382.3</ele>
        <time>2014-11-09T10:24:37.000Z</time>
      </trkpt>
      <trkpt lat="47.55757" lon="6.71632">
        <ele>381.6</ele>
        <time>2014-11-09T10:24:38.000Z</time>
      </trkpt>
      <trkpt lat="47.5576" lon="6.71643">
        <ele>380.6</ele>
        <time>2014-11-09T10:24:39.000Z</time>
      </trkpt>
      <trkpt lat="47.55764" lon="6.71654">
        <ele>379.6</ele>
        <time>2014-11-09T10:24:40.000Z</time>
      </trkpt>
      <trkpt lat="47.55767" lon="6.71665">
        <ele>378.5</ele>
        <time>2014-11-09T10:24:41.000Z</time>
      </trkpt>
      <trkpt lat="47.5577" lon="6.71675">
        <ele>378.3</ele>
        <time>2014-11-09T10:24:42.000Z</time>
      </trkpt>
      <trkpt lat="47.55773" lon="6.71686">
        <ele>377.8</ele>
        <time>2014-11-09T10:24:43.000Z</time>
      </trkpt>
      <trkpt lat="47.55776" lon="6.71696">
        <ele>377.2</ele>
        <time>2014-11-09T10:24:44.000Z</time>
      </trkpt>
      <trkpt lat="47.5578" lon="6.71706">
        <ele>376.4</ele>
        <time>2014-11-09T10:24:45.000Z</time>
      </trkpt>
      <trkpt lat="47.55784" lon="6.71717">
        <ele>375.4</ele>
        <time>2014-11-09T10:24:46.000Z</time>
      </trkpt>
      <trkpt lat="47.55788" lon="6.71727">
        <ele>375</ele>
        <time>2014-11-09T10:24:47.000Z</time>
      </trkpt>
      <trkpt lat="47.55792" lon="6.71736">
        <ele>374.5</ele>
        <time>2014-11-09T10:24:48.000Z</time>
      </trkpt>
      <trkpt lat="47.55797" lon="6.71746">
        <ele>373.7</ele>
        <time>2014-11-09T10:24:49.000Z</time>
      </trkpt>
      <trkpt lat="47.55801" lon="6.71754">
        <ele>373.4</ele>
        <time>2014-11-09T10:24:50.000Z</time>
      </trkpt>
      <trkpt lat="47.55805" lon="6.71761">
        <ele>373.1</ele>
        <time>2014-11-09T10:24:51.000Z</time>
      </trkpt>
      <trkpt lat="47.55809" lon="6.71769">
        <ele>373</ele>
        <time>2014-11-09T10:24:52.000Z</time>
      </trkpt>
      <trkpt lat="47.55813" lon="6.71776">
        <ele>372.9</ele>
        <time>2014-11-09T10:24:53.000Z</time>
      </trkpt>
      <trkpt lat="47.55816" lon="6.71783">
        <ele>372.4</ele>
        <time>2014-11-09T10:24:54.000Z</time>
      </trkpt>
      <trkpt lat="47.5582" lon="6.71789">
        <ele>372.7</ele>
        <time>2014-11-09T10:24:55.000Z</time>
      </trkpt>
      <trkpt lat="47.55823" lon="6.71796">
        <ele>372.1</ele>
        <time>2014-11-09T10:24:56.000Z</time>
      </trkpt>
      <trkpt lat="47.55839" lon="6.71847">
        <ele>371</ele>
        <time>2014-11-09T10:25:04.000Z</time>
      </trkpt>
      <trkpt lat="47.55836" lon="6.71851">
        <ele>371.7</ele>
        <time>2014-11-09T10:25:05.000Z</time>
      </trkpt>
      <trkpt lat="47.55835" lon="6.71858">
        <ele>371.8</ele>
        <time>2014-11-09T10:25:06.000Z</time>
      </trkpt>
      <trkpt lat="47.55833" lon="6.71862">
        <ele>371.9</ele>
        <time>2014-11-09T10:25:07.000Z</time>
      </trkpt>
      <trkpt lat="47.55832" lon="6.71866">
        <ele>370.5</ele>
        <time>2014-11-09T10:25:08.000Z</time>
      </trkpt>
      <trkpt lat="47.5583" lon="6.7187">
        <ele>370.4</ele>
        <time>2014-11-09T10:25:09.000Z</time>
      </trkpt>
      <trkpt lat="47.55828" lon="6.71875">
        <ele>370.8</ele>
        <time>2014-11-09T10:25:10.000Z</time>
      </trkpt>
      <trkpt lat="47.55826" lon="6.71881">
        <ele>371.7</ele>
        <time>2014-11-09T10:25:11.000Z</time>
      </trkpt>
      <trkpt lat="47.55824" lon="6.71885">
        <ele>371.7</ele>
        <time>2014-11-09T10:25:12.000Z</time>
      </trkpt>
      <trkpt lat="47.55822" lon="6.71891">
        <ele>371.6</ele>
        <time>2014-11-09T10:25:13.000Z</time>
      </trkpt>
      <trkpt lat="47.5582" lon="6.71896">
        <ele>372</ele>
        <time>2014-11-09T10:25:14.000Z</time>
      </trkpt>
      <trkpt lat="47.55818" lon="6.71901">
        <ele>372.1</ele>
        <time>2014-11-09T10:25:15.000Z</time>
      </trkpt>
      <trkpt lat="47.55815" lon="6.71907">
        <ele>372.4</ele>
        <time>2014-11-09T10:25:16.000Z</time>
      </trkpt>
      <trkpt lat="47.55813" lon="6.71912">
        <ele>372</ele>
        <time>2014-11-09T10:25:17.000Z</time>
      </trkpt>
      <trkpt lat="47.55811" lon="6.71917">
        <ele>372.1</ele>
        <time>2014-11-09T10:25:18.000Z</time>
      </trkpt>
      <trkpt lat="47.55809" lon="6.71923">
        <ele>372.6</ele>
        <time>2014-11-09T10:25:19.000Z</time>
      </trkpt>
      <trkpt lat="47.55807" lon="6.71928">
        <ele>373</ele>
        <time>2014-11-09T10:25:20.000Z</time>
      </trkpt>
      <trkpt lat="47.55805" lon="6.71933">
        <ele>373.2</ele>
        <time>2014-11-09T10:25:21.000Z</time>
      </trkpt>
      <trkpt lat="47.55803" lon="6.71938">
        <ele>373.7</ele>
        <time>2014-11-09T10:25:22.000Z</time>
      </trkpt>
      <trkpt lat="47.55801" lon="6.71943">
        <ele>373.4</ele>
        <time>2014-11-09T10:25:23.000Z</time>
      </trkpt>
      <trkpt lat="47.55799" lon="6.71947">
        <ele>374.3</ele>
        <time>2014-11-09T10:25:24.000Z</time>
      </trkpt>
      <trkpt lat="47.55797" lon="6.71951">
        <ele>374.8</ele>
        <time>2014-11-09T10:25:25.000Z</time>
      </trkpt>
      <trkpt lat="47.55795" lon="6.71955">
        <ele>374.8</ele>
        <time>2014-11-09T10:25:26.000Z</time>
      </trkpt>
      <trkpt lat="47.55792" lon="6.71959">
        <ele>375.2</ele>
        <time>2014-11-09T10:25:27.000Z</time>
      </trkpt>
      <trkpt lat="47.55789" lon="6.71962">
        <ele>376</ele>
        <time>2014-11-09T10:25:28.000Z</time>
      </trkpt>
      <trkpt lat="47.55786" lon="6.71966">
        <ele>376.2</ele>
        <time>2014-11-09T10:25:29.000Z</time>
      </trkpt>
      <trkpt lat="47.55783" lon="6.71968">
        <ele>376.1</ele>
        <time>2014-11-09T10:25:30.000Z</time>
      </trkpt>
      <trkpt lat="47.5578" lon="6.7197">
        <ele>376.6</ele>
        <time>2014-11-09T10:25:31.000Z</time>
      </trkpt>
      <trkpt lat="47.55776" lon="6.71972">
        <ele>377.6</ele>
        <time>2014-11-09T10:25:32.000Z</time>
      </trkpt>
      <trkpt lat="47.55772" lon="6.71972">
        <ele>378.6</ele>
        <time>2014-11-09T10:25:33.000Z</time>
      </trkpt>
      <trkpt lat="47.55768" lon="6.71973">
        <ele>379.4</ele>
        <time>2014-11-09T10:25:34.000Z</time>
      </trkpt>
      <trkpt lat="47.55763" lon="6.71973">
        <ele>380</ele>
        <time>2014-11-09T10:25:35.000Z</time>
      </trkpt>
      <trkpt lat="47.55759" lon="6.71973">
        <ele>380.5</ele>
        <time>2014-11-09T10:25:36.000Z</time>
      </trkpt>
      <trkpt lat="47.55754" lon="6.71973">
        <ele>380.6</ele>
        <time>2014-11-09T10:25:37.000Z</time>
      </trkpt>
      <trkpt lat="47.55749" lon="6.71972">
        <ele>380.6</ele>
        <time>2014-11-09T10:25:38.000Z</time>
      </trkpt>
      <trkpt lat="47.55745" lon="6.71972">
        <ele>380.8</ele>
        <time>2014-11-09T10:25:39.000Z</time>
      </trkpt>
      <trkpt lat="47.55739" lon="6.7197">
        <ele>381.1</ele>
        <time>2014-11-09T10:25:40.000Z</time>
      </trkpt>
      <trkpt lat="47.55735" lon="6.71971">
        <ele>381.6</ele>
        <time>2014-11-09T10:25:41.000Z</time>
      </trkpt>
      <trkpt lat="47.5573" lon="6.71972">
        <ele>381.8</ele>
        <time>2014-11-09T10:25:42.000Z</time>
      </trkpt>
      <trkpt lat="47.55726" lon="6.71972">
        <ele>381.8</ele>
        <time>2014-11-09T10:25:43.000Z</time>
      </trkpt>
      <trkpt lat="47.55722" lon="6.71975">
        <ele>380.7</ele>
        <time>2014-11-09T10:25:44.000Z</time>
      </trkpt>
      <trkpt lat="47.55718" lon="6.71977">
        <ele>380.6</ele>
        <time>2014-11-09T10:25:45.000Z</time>
      </trkpt>
      <trkpt lat="47.55714" lon="6.71979">
        <ele>380.6</ele>
        <time>2014-11-09T10:25:46.000Z</time>
      </trkpt>
      <trkpt lat="47.55706" lon="6.71982">
        <ele>380.5</ele>
        <time>2014-11-09T10:25:48.000Z</time>
      </trkpt>
      <trkpt lat="47.557" lon="6.71982">
        <ele>380.6</ele>
        <time>2014-11-09T10:25:49.000Z</time>
      </trkpt>
      <trkpt lat="47.55698" lon="6.71979">
        <ele>381.1</ele>
        <time>2014-11-09T10:25:50.000Z</time>
      </trkpt>
      <trkpt lat="47.55694" lon="6.71983">
        <ele>380.6</ele>
        <time>2014-11-09T10:25:51.000Z</time>
      </trkpt>
      <trkpt lat="47.55691" lon="6.71985">
        <ele>380.8</ele>
        <time>2014-11-09T10:25:52.000Z</time>
      </trkpt>
      <trkpt lat="47.55688" lon="6.71988">
        <ele>381.3</ele>
        <time>2014-11-09T10:25:53.000Z</time>
      </trkpt>
      <trkpt lat="47.55685" lon="6.7199">
        <ele>381.7</ele>
        <time>2014-11-09T10:25:54.000Z</time>
      </trkpt>
      <trkpt lat="47.55683" lon="6.71993">
        <ele>381.5</ele>
        <time>2014-11-09T10:25:55.000Z</time>
      </trkpt>
      <trkpt lat="47.55681" lon="6.71996">
        <ele>381.6</ele>
        <time>2014-11-09T10:25:56.000Z</time>
      </trkpt>
      <trkpt lat="47.55677" lon="6.72002">
        <ele>381.3</ele>
        <time>2014-11-09T10:25:59.000Z</time>
      </trkpt>
      <trkpt lat="47.5568" lon="6.72001">
        <ele>382</ele>
        <time>2014-11-09T10:26:02.000Z</time>
      </trkpt>
      <trkpt lat="47.55682" lon="6.71999">
        <ele>382</ele>
        <time>2014-11-09T10:26:03.000Z</time>
      </trkpt>
      <trkpt lat="47.55684" lon="6.71995">
        <ele>382.6</ele>
        <time>2014-11-09T10:26:04.000Z</time>
      </trkpt>
      <trkpt lat="47.55685" lon="6.7199">
        <ele>382.4</ele>
        <time>2014-11-09T10:26:05.000Z</time>
      </trkpt>
      <trkpt lat="47.55686" lon="6.71985">
        <ele>382.4</ele>
        <time>2014-11-09T10:26:06.000Z</time>
      </trkpt>
      <trkpt lat="47.55686" lon="6.71979">
        <ele>382.6</ele>
        <time>2014-11-09T10:26:07.000Z</time>
      </trkpt>
      <trkpt lat="47.55685" lon="6.71973">
        <ele>382.6</ele>
        <time>2014-11-09T10:26:08.000Z</time>
      </trkpt>
      <trkpt lat="47.55684" lon="6.71967">
        <ele>382.6</ele>
        <time>2014-11-09T10:26:09.000Z</time>
      </trkpt>
      <trkpt lat="47.55683" lon="6.71961">
        <ele>382.1</ele>
        <time>2014-11-09T10:26:10.000Z</time>
      </trkpt>
      <trkpt lat="47.55681" lon="6.71951">
        <ele>381.1</ele>
        <time>2014-11-09T10:26:11.000Z</time>
      </trkpt>
      <trkpt lat="47.5568" lon="6.71944">
        <ele>380.8</ele>
        <time>2014-11-09T10:26:12.000Z</time>
      </trkpt>
      <trkpt lat="47.55679" lon="6.71935">
        <ele>380.4</ele>
        <time>2014-11-09T10:26:13.000Z</time>
      </trkpt>
      <trkpt lat="47.55677" lon="6.71925">
        <ele>379.5</ele>
        <time>2014-11-09T10:26:14.000Z</time>
      </trkpt>
      <trkpt lat="47.55676" lon="6.71915">
        <ele>378.6</ele>
        <time>2014-11-09T10:26:15.000Z</time>
      </trkpt>
      <trkpt lat="47.55675" lon="6.71903">
        <ele>377.8</ele>
        <time>2014-11-09T10:26:16.000Z</time>
      </trkpt>
      <trkpt lat="47.55673" lon="6.71892">
        <ele>377.1</ele>
        <time>2014-11-09T10:26:17.000Z</time>
      </trkpt>
      <trkpt lat="47.55672" lon="6.7188">
        <ele>376.9</ele>
        <time>2014-11-09T10:26:18.000Z</time>
      </trkpt>
      <trkpt lat="47.5567" lon="6.71869">
        <ele>376.4</ele>
        <time>2014-11-09T10:26:19.000Z</time>
      </trkpt>
      <trkpt lat="47.55668" lon="6.71857">
        <ele>376.4</ele>
        <time>2014-11-09T10:26:20.000Z</time>
      </trkpt>
      <trkpt lat="47.55667" lon="6.71846">
        <ele>376.5</ele>
        <time>2014-11-09T10:26:21.000Z</time>
      </trkpt>
      <trkpt lat="47.55666" lon="6.71835">
        <ele>376.4</ele>
        <time>2014-11-09T10:26:22.000Z</time>
      </trkpt>
      <trkpt lat="47.55667" lon="6.71824">
        <ele>376.4</ele>
        <time>2014-11-09T10:26:23.000Z</time>
      </trkpt>
      <trkpt lat="47.55667" lon="6.71814">
        <ele>376.3</ele>
        <time>2014-11-09T10:26:24.000Z</time>
      </trkpt>
      <trkpt lat="47.55667" lon="6.71805">
        <ele>375.3</ele>
        <time>2014-11-09T10:26:25.000Z</time>
      </trkpt>
      <trkpt lat="47.55668" lon="6.71795">
        <ele>374.1</ele>
        <time>2014-11-09T10:26:26.000Z</time>
      </trkpt>
      <trkpt lat="47.55668" lon="6.71787">
        <ele>374.3</ele>
        <time>2014-11-09T10:26:27.000Z</time>
      </trkpt>
      <trkpt lat="47.55667" lon="6.7178">
        <ele>374.4</ele>
        <time>2014-11-09T10:26:28.000Z</time>
      </trkpt>
      <trkpt lat="47.55669" lon="6.7177">
        <ele>374.9</ele>
        <time>2014-11-09T10:26:29.000Z</time>
      </trkpt>
      <trkpt lat="47.5567" lon="6.71762">
        <ele>374.5</ele>
        <time>2014-11-09T10:26:30.000Z</time>
      </trkpt>
      <trkpt lat="47.5567" lon="6.71754">
        <ele>374.9</ele>
        <time>2014-11-09T10:26:31.000Z</time>
      </trkpt>
      <trkpt lat="47.55671" lon="6.71745">
        <ele>374.8</ele>
        <time>2014-11-09T10:26:32.000Z</time>
      </trkpt>
      <trkpt lat="47.55671" lon="6.71736">
        <ele>374.9</ele>
        <time>2014-11-09T10:26:33.000Z</time>
      </trkpt>
      <trkpt lat="47.55671" lon="6.71726">
        <ele>374</ele>
        <time>2014-11-09T10:26:34.000Z</time>
      </trkpt>
      <trkpt lat="47.5567" lon="6.7172">
        <ele>372.7</ele>
        <time>2014-11-09T10:26:35.000Z</time>
      </trkpt>
      <trkpt lat="47.55669" lon="6.71713">
        <ele>373.5</ele>
        <time>2014-11-09T10:26:36.000Z</time>
      </trkpt>
      <trkpt lat="47.55669" lon="6.71707">
        <ele>373.2</ele>
        <time>2014-11-09T10:26:37.000Z</time>
      </trkpt>
      <trkpt lat="47.55669" lon="6.717">
        <ele>372.8</ele>
        <time>2014-11-09T10:26:38.000Z</time>
      </trkpt>
      <trkpt lat="47.55669" lon="6.71694">
        <ele>373</ele>
        <time>2014-11-09T10:26:39.000Z</time>
      </trkpt>
      <trkpt lat="47.55669" lon="6.71687">
        <ele>372.9</ele>
        <time>2014-11-09T10:26:40.000Z</time>
      </trkpt>
      <trkpt lat="47.55668" lon="6.71682">
        <ele>373</ele>
        <time>2014-11-09T10:26:41.000Z</time>
      </trkpt>
      <trkpt lat="47.55667" lon="6.71677">
        <ele>372.7</ele>
        <time>2014-11-09T10:26:42.000Z</time>
      </trkpt>
      <trkpt lat="47.55668" lon="6.7167">
        <ele>373</ele>
        <time>2014-11-09T10:26:43.000Z</time>
      </trkpt>
      <trkpt lat="47.55667" lon="6.71663">
        <ele>373.1</ele>
        <time>2014-11-09T10:26:44.000Z</time>
      </trkpt>
      <trkpt lat="47.55668" lon="6.71656">
        <ele>373.4</ele>
        <time>2014-11-09T10:26:45.000Z</time>
      </trkpt>
      <trkpt lat="47.55667" lon="6.71648">
        <ele>373.5</ele>
        <time>2014-11-09T10:26:46.000Z</time>
      </trkpt>
      <trkpt lat="47.55667" lon="6.71641">
        <ele>373.5</ele>
        <time>2014-11-09T10:26:47.000Z</time>
      </trkpt>
      <trkpt lat="47.55667" lon="6.71633">
        <ele>373.5</ele>
        <time>2014-11-09T10:26:48.000Z</time>
      </trkpt>
      <trkpt lat="47.55667" lon="6.71625">
        <ele>373.4</ele>
        <time>2014-11-09T10:26:49.000Z</time>
      </trkpt>
      <trkpt lat="47.55668" lon="6.71619">
        <ele>373.3</ele>
        <time>2014-11-09T10:26:50.000Z</time>
      </trkpt>
      <trkpt lat="47.55667" lon="6.71613">
        <ele>373.3</ele>
        <time>2014-11-09T10:26:51.000Z</time>
      </trkpt>
      <trkpt lat="47.55667" lon="6.71606">
        <ele>373.8</ele>
        <time>2014-11-09T10:26:52.000Z</time>
      </trkpt>
      <trkpt lat="47.55667" lon="6.71599">
        <ele>373.8</ele>
        <time>2014-11-09T10:26:53.000Z</time>
      </trkpt>
      <trkpt lat="47.55667" lon="6.71592">
        <ele>374</ele>
        <time>2014-11-09T10:26:54.000Z</time>
      </trkpt>
      <trkpt lat="47.55668" lon="6.71585">
        <ele>374.7</ele>
        <time>2014-11-09T10:26:55.000Z</time>
      </trkpt>
      <trkpt lat="47.55668" lon="6.71577">
        <ele>374.7</ele>
        <time>2014-11-09T10:26:56.000Z</time>
      </trkpt>
      <trkpt lat="47.55669" lon="6.71523">
        <ele>375.8</ele>
        <time>2014-11-09T10:27:04.000Z</time>
      </trkpt>
      <trkpt lat="47.55669" lon="6.71519">
        <ele>375.8</ele>
        <time>2014-11-09T10:27:05.000Z</time>
      </trkpt>
      <trkpt lat="47.5567" lon="6.71513">
        <ele>376.9</ele>
        <time>2014-11-09T10:27:06.000Z</time>
      </trkpt>
      <trkpt lat="47.5567" lon="6.71509">
        <ele>376.9</ele>
        <time>2014-11-09T10:27:07.000Z</time>
      </trkpt>
      <trkpt lat="47.55671" lon="6.71503">
        <ele>378</ele>
        <time>2014-11-09T10:27:08.000Z</time>
      </trkpt>
      <trkpt lat="47.55671" lon="6.715">
        <ele>378.4</ele>
        <time>2014-11-09T10:27:09.000Z</time>
      </trkpt>
      <trkpt lat="47.55672" lon="6.71496">
        <ele>378.1</ele>
        <time>2014-11-09T10:27:10.000Z</time>
      </trkpt>
      <trkpt lat="47.55673" lon="6.71492">
        <ele>378.3</ele>
        <time>2014-11-09T10:27:11.000Z</time>
      </trkpt>
      <trkpt lat="47.55674" lon="6.71487">
        <ele>379</ele>
        <time>2014-11-09T10:27:12.000Z</time>
      </trkpt>
      <trkpt lat="47.55674" lon="6.71482">
        <ele>381.2</ele>
        <time>2014-11-09T10:27:13.000Z</time>
      </trkpt>
      <trkpt lat="47.55675" lon="6.71477">
        <ele>380.8</ele>
        <time>2014-11-09T10:27:14.000Z</time>
      </trkpt>
      <trkpt lat="47.55675" lon="6.71471">
        <ele>381.2</ele>
        <time>2014-11-09T10:27:15.000Z</time>
      </trkpt>
      <trkpt lat="47.55675" lon="6.71467">
        <ele>381.8</ele>
        <time>2014-11-09T10:27:16.000Z</time>
      </trkpt>
      <trkpt lat="47.55675" lon="6.71462">
        <ele>382.4</ele>
        <time>2014-11-09T10:27:17.000Z</time>
      </trkpt>
      <trkpt lat="47.55675" lon="6.71457">
        <ele>381.6</ele>
        <time>2014-11-09T10:27:18.000Z</time>
      </trkpt>
      <trkpt lat="47.55675" lon="6.71453">
        <ele>380.7</ele>
        <time>2014-11-09T10:27:19.000Z</time>
      </trkpt>
      <trkpt lat="47.55674" lon="6.71448">
        <ele>381.8</ele>
        <time>2014-11-09T10:27:20.000Z</time>
      </trkpt>
      <trkpt lat="47.55674" lon="6.71444">
        <ele>380.2</ele>
        <time>2014-11-09T10:27:21.000Z</time>
      </trkpt>
      <trkpt lat="47.55673" lon="6.7144">
        <ele>381.3</ele>
        <time>2014-11-09T10:27:22.000Z</time>
      </trkpt>
      <trkpt lat="47.55673" lon="6.71436">
        <ele>381.5</ele>
        <time>2014-11-09T10:27:23.000Z</time>
      </trkpt>
      <trkpt lat="47.55673" lon="6.71433">
        <ele>381.5</ele>
        <time>2014-11-09T10:27:24.000Z</time>
      </trkpt>
      <trkpt lat="47.55673" lon="6.71427">
        <ele>382.9</ele>
        <time>2014-11-09T10:27:26.000Z</time>
      </trkpt>
      <trkpt lat="47.55672" lon="6.71424">
        <ele>382.7</ele>
        <time>2014-11-09T10:27:27.000Z</time>
      </trkpt>
      <trkpt lat="47.55672" lon="6.71419">
        <ele>383.2</ele>
        <time>2014-11-09T10:27:29.000Z</time>
      </trkpt>
      <trkpt lat="47.55672" lon="6.71416">
        <ele>383.8</ele>
        <time>2014-11-09T10:27:30.000Z</time>
      </trkpt>
      <trkpt lat="47.55672" lon="6.71411">
        <ele>384.4</ele>
        <time>2014-11-09T10:27:32.000Z</time>
      </trkpt>
      <trkpt lat="47.55672" lon="6.71409">
        <ele>384.8</ele>
        <time>2014-11-09T10:27:33.000Z</time>
      </trkpt>
      <trkpt lat="47.55671" lon="6.71404">
        <ele>385.1</ele>
        <time>2014-11-09T10:27:35.000Z</time>
      </trkpt>
      <trkpt lat="47.55671" lon="6.71401">
        <ele>385.2</ele>
        <time>2014-11-09T10:27:36.000Z</time>
      </trkpt>
      <trkpt lat="47.55669" lon="6.71396">
        <ele>386.1</ele>
        <time>2014-11-09T10:27:38.000Z</time>
      </trkpt>
      <trkpt lat="47.55669" lon="6.71393">
        <ele>386.2</ele>
        <time>2014-11-09T10:27:39.000Z</time>
      </trkpt>
      <trkpt lat="47.55668" lon="6.71388">
        <ele>387.6</ele>
        <time>2014-11-09T10:27:41.000Z</time>
      </trkpt>
      <trkpt lat="47.55668" lon="6.71385">
        <ele>387.7</ele>
        <time>2014-11-09T10:27:42.000Z</time>
      </trkpt>
      <trkpt lat="47.55667" lon="6.7138">
        <ele>388.6</ele>
        <time>2014-11-09T10:27:44.000Z</time>
      </trkpt>
      <trkpt lat="47.55667" lon="6.71377">
        <ele>389.3</ele>
        <time>2014-11-09T10:27:45.000Z</time>
      </trkpt>
      <trkpt lat="47.55666" lon="6.71371">
        <ele>390.8</ele>
        <time>2014-11-09T10:27:47.000Z</time>
      </trkpt>
      <trkpt lat="47.55666" lon="6.71368">
        <ele>391.6</ele>
        <time>2014-11-09T10:27:48.000Z</time>
      </trkpt>
      <trkpt lat="47.55665" lon="6.71362">
        <ele>392</ele>
        <time>2014-11-09T10:27:50.000Z</time>
      </trkpt>
      <trkpt lat="47.55665" lon="6.71359">
        <ele>392.4</ele>
        <time>2014-11-09T10:27:51.000Z</time>
      </trkpt>
      <trkpt lat="47.55665" lon="6.71353">
        <ele>394</ele>
        <time>2014-11-09T10:27:53.000Z</time>
      </trkpt>
      <trkpt lat="47.55665" lon="6.7135">
        <ele>394.5</ele>
        <time>2014-11-09T10:27:54.000Z</time>
      </trkpt>
      <trkpt lat="47.55664" lon="6.71343">
        <ele>394.5</ele>
        <time>2014-11-09T10:27:56.000Z</time>
      </trkpt>
      <trkpt lat="47.55662" lon="6.71335">
        <ele>395</ele>
        <time>2014-11-09T10:27:59.000Z</time>
      </trkpt>
      <trkpt lat="47.55661" lon="6.71329">
        <ele>395</ele>
        <time>2014-11-09T10:28:01.000Z</time>
      </trkpt>
      <trkpt lat="47.55661" lon="6.71326">
        <ele>395.3</ele>
        <time>2014-11-09T10:28:02.000Z</time>
      </trkpt>
      <trkpt lat="47.5566" lon="6.7132">
        <ele>395.1</ele>
        <time>2014-11-09T10:28:04.000Z</time>
      </trkpt>
      <trkpt lat="47.55659" lon="6.71317">
        <ele>394.7</ele>
        <time>2014-11-09T10:28:05.000Z</time>
      </trkpt>
      <trkpt lat="47.55658" lon="6.71311">
        <ele>394.7</ele>
        <time>2014-11-09T10:28:07.000Z</time>
      </trkpt>
      <trkpt lat="47.55657" lon="6.71309">
        <ele>394.8</ele>
        <time>2014-11-09T10:28:08.000Z</time>
      </trkpt>
      <trkpt lat="47.55657" lon="6.71303">
        <ele>395.1</ele>
        <time>2014-11-09T10:28:10.000Z</time>
      </trkpt>
      <trkpt lat="47.55656" lon="6.713">
        <ele>395.4</ele>
        <time>2014-11-09T10:28:11.000Z</time>
      </trkpt>
      <trkpt lat="47.55655" lon="6.71295">
        <ele>396.2</ele>
        <time>2014-11-09T10:28:13.000Z</time>
      </trkpt>
      <trkpt lat="47.55655" lon="6.71293">
        <ele>396.3</ele>
        <time>2014-11-09T10:28:14.000Z</time>
      </trkpt>
      <trkpt lat="47.55654" lon="6.71288">
        <ele>396.7</ele>
        <time>2014-11-09T10:28:16.000Z</time>
      </trkpt>
      <trkpt lat="47.55653" lon="6.71285">
        <ele>397.5</ele>
        <time>2014-11-09T10:28:17.000Z</time>
      </trkpt>
      <trkpt lat="47.55652" lon="6.7128">
        <ele>397.4</ele>
        <time>2014-11-09T10:28:19.000Z</time>
      </trkpt>
      <trkpt lat="47.55652" lon="6.71277">
        <ele>397.6</ele>
        <time>2014-11-09T10:28:20.000Z</time>
      </trkpt>
      <trkpt lat="47.55651" lon="6.71271">
        <ele>397.9</ele>
        <time>2014-11-09T10:28:22.000Z</time>
      </trkpt>
      <trkpt lat="47.5565" lon="6.71268">
        <ele>398.1</ele>
        <time>2014-11-09T10:28:23.000Z</time>
      </trkpt>
      <trkpt lat="47.5565" lon="6.71265">
        <ele>397.8</ele>
        <time>2014-11-09T10:28:24.000Z</time>
      </trkpt>
      <trkpt lat="47.55648" lon="6.71262">
        <ele>397.8</ele>
        <time>2014-11-09T10:28:25.000Z</time>
      </trkpt>
      <trkpt lat="47.55646" lon="6.71257">
        <ele>397.5</ele>
        <time>2014-11-09T10:28:27.000Z</time>
      </trkpt>
      <trkpt lat="47.55645" lon="6.71254">
        <ele>396.7</ele>
        <time>2014-11-09T10:28:28.000Z</time>
      </trkpt>
      <trkpt lat="47.55642" lon="6.71249">
        <ele>395.3</ele>
        <time>2014-11-09T10:28:30.000Z</time>
      </trkpt>
      <trkpt lat="47.5564" lon="6.71247">
        <ele>394.9</ele>
        <time>2014-11-09T10:28:31.000Z</time>
      </trkpt>
      <trkpt lat="47.55639" lon="6.71244">
        <ele>395.4</ele>
        <time>2014-11-09T10:28:32.000Z</time>
      </trkpt>
      <trkpt lat="47.55637" lon="6.71242">
        <ele>395.5</ele>
        <time>2014-11-09T10:28:33.000Z</time>
      </trkpt>
      <trkpt lat="47.55635" lon="6.7124">
        <ele>395.6</ele>
        <time>2014-11-09T10:28:34.000Z</time>
      </trkpt>
      <trkpt lat="47.55633" lon="6.71238">
        <ele>395.7</ele>
        <time>2014-11-09T10:28:35.000Z</time>
      </trkpt>
      <trkpt lat="47.55629" lon="6.71235">
        <ele>396.4</ele>
        <time>2014-11-09T10:28:37.000Z</time>
      </trkpt>
      <trkpt lat="47.55627" lon="6.71233">
        <ele>396.8</ele>
        <time>2014-11-09T10:28:38.000Z</time>
      </trkpt>
      <trkpt lat="47.55623" lon="6.7123">
        <ele>397.4</ele>
        <time>2014-11-09T10:28:40.000Z</time>
      </trkpt>
      <trkpt lat="47.55622" lon="6.71229">
        <ele>397.3</ele>
        <time>2014-11-09T10:28:41.000Z</time>
      </trkpt>
      <trkpt lat="47.55618" lon="6.71226">
        <ele>397.2</ele>
        <time>2014-11-09T10:28:44.000Z</time>
      </trkpt>
      <trkpt lat="47.55617" lon="6.71225">
        <ele>397.3</ele>
        <time>2014-11-09T10:28:45.000Z</time>
      </trkpt>
      <trkpt lat="47.55614" lon="6.71221">
        <ele>397.9</ele>
        <time>2014-11-09T10:28:48.000Z</time>
      </trkpt>
      <trkpt lat="47.55612" lon="6.7122">
        <ele>397.9</ele>
        <time>2014-11-09T10:28:49.000Z</time>
      </trkpt>
      <trkpt lat="47.55609" lon="6.71216">
        <ele>398.3</ele>
        <time>2014-11-09T10:28:52.000Z</time>
      </trkpt>
      <trkpt lat="47.55608" lon="6.71214">
        <ele>398.2</ele>
        <time>2014-11-09T10:28:53.000Z</time>
      </trkpt>
      <trkpt lat="47.55606" lon="6.71211">
        <ele>399.1</ele>
        <time>2014-11-09T10:28:56.000Z</time>
      </trkpt>
      <trkpt lat="47.55603" lon="6.71208">
        <ele>399.3</ele>
        <time>2014-11-09T10:28:59.000Z</time>
      </trkpt>
      <trkpt lat="47.556" lon="6.71204">
        <ele>399.9</ele>
        <time>2014-11-09T10:29:02.000Z</time>
      </trkpt>
      <trkpt lat="47.55599" lon="6.71203">
        <ele>400.1</ele>
        <time>2014-11-09T10:29:03.000Z</time>
      </trkpt>
      <trkpt lat="47.55596" lon="6.712">
        <ele>400.6</ele>
        <time>2014-11-09T10:29:06.000Z</time>
      </trkpt>
      <trkpt lat="47.55594" lon="6.71198">
        <ele>401.1</ele>
        <time>2014-11-09T10:29:07.000Z</time>
      </trkpt>
      <trkpt lat="47.55591" lon="6.71195">
        <ele>401.8</ele>
        <time>2014-11-09T10:29:10.001Z</time>
      </trkpt>
      <trkpt lat="47.55589" lon="6.71194">
        <ele>401.9</ele>
        <time>2014-11-09T10:29:11.000Z</time>
      </trkpt>
      <trkpt lat="47.55586" lon="6.7119">
        <ele>402.4</ele>
        <time>2014-11-09T10:29:14.000Z</time>
      </trkpt>
      <trkpt lat="47.55585" lon="6.71189">
        <ele>402.6</ele>
        <time>2014-11-09T10:29:15.000Z</time>
      </trkpt>
      <trkpt lat="47.55582" lon="6.71186">
        <ele>403.8</ele>
        <time>2014-11-09T10:29:18.000Z</time>
      </trkpt>
      <trkpt lat="47.55581" lon="6.71185">
        <ele>403.8</ele>
        <time>2014-11-09T10:29:19.000Z</time>
      </trkpt>
      <trkpt lat="47.55577" lon="6.71182">
        <ele>403.5</ele>
        <time>2014-11-09T10:29:22.000Z</time>
      </trkpt>
      <trkpt lat="47.55576" lon="6.71181">
        <ele>403.4</ele>
        <time>2014-11-09T10:29:23.000Z</time>
      </trkpt>
      <trkpt lat="47.55572" lon="6.71177">
        <ele>403.5</ele>
        <time>2014-11-09T10:29:26.000Z</time>
      </trkpt>
      <trkpt lat="47.55571" lon="6.71176">
        <ele>403.5</ele>
        <time>2014-11-09T10:29:27.000Z</time>
      </trkpt>
      <trkpt lat="47.55568" lon="6.71173">
        <ele>404</ele>
        <time>2014-11-09T10:29:30.000Z</time>
      </trkpt>
      <trkpt lat="47.55566" lon="6.71172">
        <ele>404.2</ele>
        <time>2014-11-09T10:29:31.000Z</time>
      </trkpt>
      <trkpt lat="47.55564" lon="6.71169">
        <ele>404.4</ele>
        <time>2014-11-09T10:29:33.000Z</time>
      </trkpt>
      <trkpt lat="47.55563" lon="6.71167">
        <ele>404.9</ele>
        <time>2014-11-09T10:29:34.000Z</time>
      </trkpt>
      <trkpt lat="47.5556" lon="6.71164">
        <ele>405.5</ele>
        <time>2014-11-09T10:29:36.000Z</time>
      </trkpt>
      <trkpt lat="47.55559" lon="6.71163">
        <ele>405.9</ele>
        <time>2014-11-09T10:29:37.000Z</time>
      </trkpt>
      <trkpt lat="47.55556" lon="6.7116">
        <ele>406.4</ele>
        <time>2014-11-09T10:29:39.000Z</time>
      </trkpt>
      <trkpt lat="47.55555" lon="6.71159">
        <ele>406.5</ele>
        <time>2014-11-09T10:29:40.000Z</time>
      </trkpt>
      <trkpt lat="47.55551" lon="6.71155">
        <ele>407.4</ele>
        <time>2014-11-09T10:29:43.000Z</time>
      </trkpt>
      <trkpt lat="47.5555" lon="6.71154">
        <ele>407.9</ele>
        <time>2014-11-09T10:29:44.000Z</time>
      </trkpt>
      <trkpt lat="47.55547" lon="6.71151">
        <ele>407.8</ele>
        <time>2014-11-09T10:29:46.000Z</time>
      </trkpt>
      <trkpt lat="47.55546" lon="6.71149">
        <ele>408.1</ele>
        <time>2014-11-09T10:29:47.000Z</time>
      </trkpt>
      <trkpt lat="47.55543" lon="6.71146">
        <ele>408.6</ele>
        <time>2014-11-09T10:29:49.000Z</time>
      </trkpt>
      <trkpt lat="47.55542" lon="6.71145">
        <ele>408.3</ele>
        <time>2014-11-09T10:29:50.000Z</time>
      </trkpt>
      <trkpt lat="47.55539" lon="6.71141">
        <ele>409.3</ele>
        <time>2014-11-09T10:29:53.000Z</time>
      </trkpt>
      <trkpt lat="47.55538" lon="6.71139">
        <ele>409.2</ele>
        <time>2014-11-09T10:29:54.000Z</time>
      </trkpt>
      <trkpt lat="47.55537" lon="6.71136">
        <ele>409.2</ele>
        <time>2014-11-09T10:29:56.000Z</time>
      </trkpt>
      <trkpt lat="47.55534" lon="6.7113">
        <ele>409.3</ele>
        <time>2014-11-09T10:29:59.000Z</time>
      </trkpt>
      <trkpt lat="47.55532" lon="6.71125">
        <ele>410.1</ele>
        <time>2014-11-09T10:30:01.000Z</time>
      </trkpt>
      <trkpt lat="47.5553" lon="6.71123">
        <ele>409.6</ele>
        <time>2014-11-09T10:30:02.000Z</time>
      </trkpt>
      <trkpt lat="47.55528" lon="6.71118">
        <ele>410.1</ele>
        <time>2014-11-09T10:30:04.000Z</time>
      </trkpt>
      <trkpt lat="47.55527" lon="6.71117">
        <ele>410.6</ele>
        <time>2014-11-09T10:30:05.000Z</time>
      </trkpt>
      <trkpt lat="47.55525" lon="6.71111">
        <ele>413.5</ele>
        <time>2014-11-09T10:30:08.000Z</time>
      </trkpt>
      <trkpt lat="47.55524" lon="6.71109">
        <ele>414.1</ele>
        <time>2014-11-09T10:30:09.000Z</time>
      </trkpt>
      <trkpt lat="47.55521" lon="6.71105">
        <ele>413.4</ele>
        <time>2014-11-09T10:30:11.000Z</time>
      </trkpt>
      <trkpt lat="47.55519" lon="6.71103">
        <ele>413</ele>
        <time>2014-11-09T10:30:12.000Z</time>
      </trkpt>
      <trkpt lat="47.55515" lon="6.711">
        <ele>411.8</ele>
        <time>2014-11-09T10:30:14.000Z</time>
      </trkpt>
      <trkpt lat="47.55513" lon="6.71099">
        <ele>411.5</ele>
        <time>2014-11-09T10:30:15.000Z</time>
      </trkpt>
      <trkpt lat="47.55511" lon="6.71096">
        <ele>412.1</ele>
        <time>2014-11-09T10:30:16.000Z</time>
      </trkpt>
      <trkpt lat="47.55509" lon="6.71094">
        <ele>412.5</ele>
        <time>2014-11-09T10:30:17.000Z</time>
      </trkpt>
      <trkpt lat="47.55507" lon="6.71092">
        <ele>412.8</ele>
        <time>2014-11-09T10:30:18.000Z</time>
      </trkpt>
      <trkpt lat="47.55504" lon="6.71089">
        <ele>413.8</ele>
        <time>2014-11-09T10:30:19.000Z</time>
      </trkpt>
      <trkpt lat="47.55502" lon="6.71087">
        <ele>413.6</ele>
        <time>2014-11-09T10:30:20.000Z</time>
      </trkpt>
      <trkpt lat="47.555" lon="6.71085">
        <ele>413</ele>
        <time>2014-11-09T10:30:21.000Z</time>
      </trkpt>
      <trkpt lat="47.55496" lon="6.71082">
        <ele>412</ele>
        <time>2014-11-09T10:30:23.000Z</time>
      </trkpt>
      <trkpt lat="47.55494" lon="6.7108">
        <ele>411.4</ele>
        <time>2014-11-09T10:30:24.000Z</time>
      </trkpt>
      <trkpt lat="47.55492" lon="6.71078">
        <ele>410.9</ele>
        <time>2014-11-09T10:30:25.000Z</time>
      </trkpt>
      <trkpt lat="47.55489" lon="6.71076">
        <ele>411.1</ele>
        <time>2014-11-09T10:30:26.000Z</time>
      </trkpt>
      <trkpt lat="47.55487" lon="6.71074">
        <ele>411.6</ele>
        <time>2014-11-09T10:30:27.000Z</time>
      </trkpt>
      <trkpt lat="47.55485" lon="6.71072">
        <ele>411.7</ele>
        <time>2014-11-09T10:30:28.000Z</time>
      </trkpt>
      <trkpt lat="47.55484" lon="6.7107">
        <ele>412.1</ele>
        <time>2014-11-09T10:30:29.000Z</time>
      </trkpt>
      <trkpt lat="47.55482" lon="6.71068">
        <ele>412.2</ele>
        <time>2014-11-09T10:30:30.000Z</time>
      </trkpt>
      <trkpt lat="47.55478" lon="6.71064">
        <ele>412.5</ele>
        <time>2014-11-09T10:30:32.000Z</time>
      </trkpt>
      <trkpt lat="47.55476" lon="6.71063">
        <ele>413</ele>
        <time>2014-11-09T10:30:33.000Z</time>
      </trkpt>
      <trkpt lat="47.55474" lon="6.71062">
        <ele>412.9</ele>
        <time>2014-11-09T10:30:34.000Z</time>
      </trkpt>
      <trkpt lat="47.55471" lon="6.71061">
        <ele>412.6</ele>
        <time>2014-11-09T10:30:35.000Z</time>
      </trkpt>
      <trkpt lat="47.55469" lon="6.71061">
        <ele>413.3</ele>
        <time>2014-11-09T10:30:36.000Z</time>
      </trkpt>
      <trkpt lat="47.55466" lon="6.71061">
        <ele>413.1</ele>
        <time>2014-11-09T10:30:37.000Z</time>
      </trkpt>
      <trkpt lat="47.55463" lon="6.71061">
        <ele>413</ele>
        <time>2014-11-09T10:30:38.000Z</time>
      </trkpt>
      <trkpt lat="47.55461" lon="6.71062">
        <ele>412.8</ele>
        <time>2014-11-09T10:30:39.000Z</time>
      </trkpt>
      <trkpt lat="47.55458" lon="6.71062">
        <ele>412.6</ele>
        <time>2014-11-09T10:30:40.000Z</time>
      </trkpt>
      <trkpt lat="47.55456" lon="6.71063">
        <ele>412.6</ele>
        <time>2014-11-09T10:30:41.000Z</time>
      </trkpt>
      <trkpt lat="47.55453" lon="6.71063">
        <ele>412.6</ele>
        <time>2014-11-09T10:30:42.000Z</time>
      </trkpt>
      <trkpt lat="47.55451" lon="6.71063">
        <ele>412.8</ele>
        <time>2014-11-09T10:30:43.000Z</time>
      </trkpt>
      <trkpt lat="47.55448" lon="6.71063">
        <ele>412.9</ele>
        <time>2014-11-09T10:30:44.000Z</time>
      </trkpt>
      <trkpt lat="47.55446" lon="6.71063">
        <ele>412.7</ele>
        <time>2014-11-09T10:30:45.000Z</time>
      </trkpt>
      <trkpt lat="47.55443" lon="6.71063">
        <ele>412.8</ele>
        <time>2014-11-09T10:30:46.000Z</time>
      </trkpt>
      <trkpt lat="47.55441" lon="6.71063">
        <ele>412.9</ele>
        <time>2014-11-09T10:30:47.000Z</time>
      </trkpt>
      <trkpt lat="47.55438" lon="6.71062">
        <ele>413.1</ele>
        <time>2014-11-09T10:30:48.000Z</time>
      </trkpt>
      <trkpt lat="47.55436" lon="6.71062">
        <ele>413.2</ele>
        <time>2014-11-09T10:30:49.000Z</time>
      </trkpt>
      <trkpt lat="47.55433" lon="6.71061">
        <ele>413.2</ele>
        <time>2014-11-09T10:30:50.000Z</time>
      </trkpt>
      <trkpt lat="47.5543" lon="6.71061">
        <ele>413.3</ele>
        <time>2014-11-09T10:30:51.000Z</time>
      </trkpt>
      <trkpt lat="47.55428" lon="6.7106">
        <ele>413.4</ele>
        <time>2014-11-09T10:30:52.000Z</time>
      </trkpt>
      <trkpt lat="47.55425" lon="6.7106">
        <ele>413.3</ele>
        <time>2014-11-09T10:30:53.000Z</time>
      </trkpt>
      <trkpt lat="47.55423" lon="6.71061">
        <ele>413.4</ele>
        <time>2014-11-09T10:30:54.000Z</time>
      </trkpt>
      <trkpt lat="47.55421" lon="6.71062">
        <ele>413.4</ele>
        <time>2014-11-09T10:30:55.000Z</time>
      </trkpt>
      <trkpt lat="47.55419" lon="6.71064">
        <ele>413.1</ele>
        <time>2014-11-09T10:30:56.000Z</time>
      </trkpt>
      <trkpt lat="47.55417" lon="6.71066">
        <ele>413</ele>
        <time>2014-11-09T10:30:57.000Z</time>
      </trkpt>
      <trkpt lat="47.55413" lon="6.71075">
        <ele>412.9</ele>
        <time>2014-11-09T10:31:05.000Z</time>
      </trkpt>
      <trkpt lat="47.55417" lon="6.71073">
        <ele>411.7</ele>
        <time>2014-11-09T10:31:29.000Z</time>
      </trkpt>
      <trkpt lat="47.55419" lon="6.71073">
        <ele>412.1</ele>
        <time>2014-11-09T10:31:30.000Z</time>
      </trkpt>
      <trkpt lat="47.55421" lon="6.71074">
        <ele>411.6</ele>
        <time>2014-11-09T10:31:31.000Z</time>
      </trkpt>
      <trkpt lat="47.55424" lon="6.71074">
        <ele>410.3</ele>
        <time>2014-11-09T10:31:32.000Z</time>
      </trkpt>
      <trkpt lat="47.55427" lon="6.71074">
        <ele>410.8</ele>
        <time>2014-11-09T10:31:33.000Z</time>
      </trkpt>
      <trkpt lat="47.55429" lon="6.71075">
        <ele>409.9</ele>
        <time>2014-11-09T10:31:34.000Z</time>
      </trkpt>
      <trkpt lat="47.55433" lon="6.71076">
        <ele>410.2</ele>
        <time>2014-11-09T10:31:36.000Z</time>
      </trkpt>
      <trkpt lat="47.55434" lon="6.71075">
        <ele>409.6</ele>
        <time>2014-11-09T10:31:37.000Z</time>
      </trkpt>
      <trkpt lat="47.55437" lon="6.71071">
        <ele>410.8</ele>
        <time>2014-11-09T10:31:43.000Z</time>
      </trkpt>
      <trkpt lat="47.55437" lon="6.7107">
        <ele>410.8</ele>
        <time>2014-11-09T10:31:44.000Z</time>
      </trkpt>
      <trkpt lat="47.55434" lon="6.7107">
        <ele>409.8</ele>
        <time>2014-11-09T10:31:54.000Z</time>
      </trkpt>
      <trkpt lat="47.55432" lon="6.7107">
        <ele>409.8</ele>
        <time>2014-11-09T10:31:55.000Z</time>
      </trkpt>
      <trkpt lat="47.55429" lon="6.7107">
        <ele>409.9</ele>
        <time>2014-11-09T10:31:56.000Z</time>
      </trkpt>
      <trkpt lat="47.55422" lon="6.7107">
        <ele>409.1</ele>
        <time>2014-11-09T10:31:59.000Z</time>
      </trkpt>
      <trkpt lat="47.5542" lon="6.71073">
        <ele>408.4</ele>
        <time>2014-11-09T10:32:00.000Z</time>
      </trkpt>
      <trkpt lat="47.55419" lon="6.71077">
        <ele>408.6</ele>
        <time>2014-11-09T10:32:01.000Z</time>
      </trkpt>
      <trkpt lat="47.55417" lon="6.71081">
        <ele>408.4</ele>
        <time>2014-11-09T10:32:02.000Z</time>
      </trkpt>
      <trkpt lat="47.55416" lon="6.71086">
        <ele>406.7</ele>
        <time>2014-11-09T10:32:03.000Z</time>
      </trkpt>
      <trkpt lat="47.55414" lon="6.71092">
        <ele>407.6</ele>
        <time>2014-11-09T10:32:04.999Z</time>
      </trkpt>
      <trkpt lat="47.55413" lon="6.71093">
        <ele>407.3</ele>
        <time>2014-11-09T10:32:06.000Z</time>
      </trkpt>
      <trkpt lat="47.55411" lon="6.71096">
        <ele>405.6</ele>
        <time>2014-11-09T10:32:09.000Z</time>
      </trkpt>
      <trkpt lat="47.5541" lon="6.71098">
        <ele>405.3</ele>
        <time>2014-11-09T10:32:10.000Z</time>
      </trkpt>
      <trkpt lat="47.55409" lon="6.71103">
        <ele>409.9</ele>
        <time>2014-11-09T10:32:12.000Z</time>
      </trkpt>
      <trkpt lat="47.55407" lon="6.71106">
        <ele>410</ele>
        <time>2014-11-09T10:32:13.000Z</time>
      </trkpt>
      <trkpt lat="47.55406" lon="6.7111">
        <ele>407</ele>
        <time>2014-11-09T10:32:14.000Z</time>
      </trkpt>
      <trkpt lat="47.55404" lon="6.71113">
        <ele>407.4</ele>
        <time>2014-11-09T10:32:15.000Z</time>
      </trkpt>
      <trkpt lat="47.55402" lon="6.71116">
        <ele>407.5</ele>
        <time>2014-11-09T10:32:16.000Z</time>
      </trkpt>
      <trkpt lat="47.554" lon="6.7112">
        <ele>407.5</ele>
        <time>2014-11-09T10:32:17.000Z</time>
      </trkpt>
      <trkpt lat="47.55397" lon="6.71124">
        <ele>407.3</ele>
        <time>2014-11-09T10:32:18.000Z</time>
      </trkpt>
      <trkpt lat="47.55393" lon="6.71131">
        <ele>408.4</ele>
        <time>2014-11-09T10:32:19.000Z</time>
      </trkpt>
      <trkpt lat="47.5539" lon="6.71136">
        <ele>408.3</ele>
        <time>2014-11-09T10:32:20.000Z</time>
      </trkpt>
      <trkpt lat="47.55387" lon="6.71141">
        <ele>408.5</ele>
        <time>2014-11-09T10:32:21.000Z</time>
      </trkpt>
      <trkpt lat="47.55384" lon="6.71147">
        <ele>408.5</ele>
        <time>2014-11-09T10:32:22.000Z</time>
      </trkpt>
      <trkpt lat="47.5538" lon="6.71151">
        <ele>411.4</ele>
        <time>2014-11-09T10:32:23.000Z</time>
      </trkpt>
      <trkpt lat="47.55377" lon="6.71156">
        <ele>411.1</ele>
        <time>2014-11-09T10:32:24.000Z</time>
      </trkpt>
      <trkpt lat="47.55374" lon="6.71162">
        <ele>411</ele>
        <time>2014-11-09T10:32:25.000Z</time>
      </trkpt>
      <trkpt lat="47.55369" lon="6.71168">
        <ele>411</ele>
        <time>2014-11-09T10:32:26.000Z</time>
      </trkpt>
      <trkpt lat="47.55366" lon="6.71175">
        <ele>411.1</ele>
        <time>2014-11-09T10:32:27.000Z</time>
      </trkpt>
      <trkpt lat="47.55362" lon="6.7118">
        <ele>411.1</ele>
        <time>2014-11-09T10:32:28.000Z</time>
      </trkpt>
      <trkpt lat="47.55359" lon="6.71186">
        <ele>411.4</ele>
        <time>2014-11-09T10:32:29.000Z</time>
      </trkpt>
      <trkpt lat="47.55355" lon="6.71192">
        <ele>412</ele>
        <time>2014-11-09T10:32:30.000Z</time>
      </trkpt>
      <trkpt lat="47.55352" lon="6.71199">
        <ele>412.6</ele>
        <time>2014-11-09T10:32:31.000Z</time>
      </trkpt>
      <trkpt lat="47.55349" lon="6.71206">
        <ele>409.9</ele>
        <time>2014-11-09T10:32:32.000Z</time>
      </trkpt>
      <trkpt lat="47.55346" lon="6.71212">
        <ele>409.9</ele>
        <time>2014-11-09T10:32:33.000Z</time>
      </trkpt>
      <trkpt lat="47.55343" lon="6.71218">
        <ele>409.6</ele>
        <time>2014-11-09T10:32:34.000Z</time>
      </trkpt>
      <trkpt lat="47.5534" lon="6.71225">
        <ele>409.5</ele>
        <time>2014-11-09T10:32:35.000Z</time>
      </trkpt>
      <trkpt lat="47.55336" lon="6.71231">
        <ele>409.4</ele>
        <time>2014-11-09T10:32:36.000Z</time>
      </trkpt>
      <trkpt lat="47.55333" lon="6.71237">
        <ele>409.9</ele>
        <time>2014-11-09T10:32:37.000Z</time>
      </trkpt>
      <trkpt lat="47.55329" lon="6.71242">
        <ele>410.4</ele>
        <time>2014-11-09T10:32:38.000Z</time>
      </trkpt>
      <trkpt lat="47.55326" lon="6.71249">
        <ele>409.2</ele>
        <time>2014-11-09T10:32:39.000Z</time>
      </trkpt>
      <trkpt lat="47.55322" lon="6.71255">
        <ele>409.2</ele>
        <time>2014-11-09T10:32:40.000Z</time>
      </trkpt>
      <trkpt lat="47.55319" lon="6.71261">
        <ele>409.5</ele>
        <time>2014-11-09T10:32:41.000Z</time>
      </trkpt>
      <trkpt lat="47.55316" lon="6.71268">
        <ele>408.8</ele>
        <time>2014-11-09T10:32:42.000Z</time>
      </trkpt>
      <trkpt lat="47.55313" lon="6.71275">
        <ele>408.3</ele>
        <time>2014-11-09T10:32:43.000Z</time>
      </trkpt>
      <trkpt lat="47.55309" lon="6.71283">
        <ele>407.9</ele>
        <time>2014-11-09T10:32:44.000Z</time>
      </trkpt>
      <trkpt lat="47.55306" lon="6.7129">
        <ele>407.4</ele>
        <time>2014-11-09T10:32:45.000Z</time>
      </trkpt>
      <trkpt lat="47.55302" lon="6.71298">
        <ele>407.7</ele>
        <time>2014-11-09T10:32:46.000Z</time>
      </trkpt>
      <trkpt lat="47.55298" lon="6.71305">
        <ele>407.5</ele>
        <time>2014-11-09T10:32:47.000Z</time>
      </trkpt>
      <trkpt lat="47.55295" lon="6.71312">
        <ele>408</ele>
        <time>2014-11-09T10:32:48.000Z</time>
      </trkpt>
      <trkpt lat="47.55291" lon="6.71319">
        <ele>407.5</ele>
        <time>2014-11-09T10:32:49.000Z</time>
      </trkpt>
      <trkpt lat="47.55287" lon="6.71324">
        <ele>407.4</ele>
        <time>2014-11-09T10:32:50.000Z</time>
      </trkpt>
      <trkpt lat="47.55281" lon="6.71327">
        <ele>409.2</ele>
        <time>2014-11-09T10:32:51.000Z</time>
      </trkpt>
      <trkpt lat="47.55276" lon="6.7133">
        <ele>409.9</ele>
        <time>2014-11-09T10:32:52.000Z</time>
      </trkpt>
      <trkpt lat="47.55271" lon="6.71334">
        <ele>409.1</ele>
        <time>2014-11-09T10:32:53.000Z</time>
      </trkpt>
      <trkpt lat="47.55264" lon="6.71337">
        <ele>409.9</ele>
        <time>2014-11-09T10:32:54.000Z</time>
      </trkpt>
      <trkpt lat="47.55257" lon="6.7134">
        <ele>409.8</ele>
        <time>2014-11-09T10:32:55.000Z</time>
      </trkpt>
      <trkpt lat="47.55251" lon="6.71342">
        <ele>410.1</ele>
        <time>2014-11-09T10:32:56.000Z</time>
      </trkpt>
      <trkpt lat="47.55235" lon="6.71346">
        <ele>410.7</ele>
        <time>2014-11-09T10:32:59.000Z</time>
      </trkpt>
      <trkpt lat="47.5523" lon="6.71344">
        <ele>410.9</ele>
        <time>2014-11-09T10:33:00.000Z</time>
      </trkpt>
      <trkpt lat="47.55224" lon="6.71343">
        <ele>412</ele>
        <time>2014-11-09T10:33:01.000Z</time>
      </trkpt>
      <trkpt lat="47.55221" lon="6.71335">
        <ele>412.5</ele>
        <time>2014-11-09T10:33:02.000Z</time>
      </trkpt>
      <trkpt lat="47.55217" lon="6.7133">
        <ele>414</ele>
        <time>2014-11-09T10:33:03.002Z</time>
      </trkpt>
      <trkpt lat="47.55212" lon="6.71328">
        <ele>412.6</ele>
        <time>2014-11-09T10:33:04.000Z</time>
      </trkpt>
      <trkpt lat="47.55208" lon="6.71323">
        <ele>412.9</ele>
        <time>2014-11-09T10:33:05.000Z</time>
      </trkpt>
      <trkpt lat="47.55204" lon="6.7132">
        <ele>412.8</ele>
        <time>2014-11-09T10:33:06.000Z</time>
      </trkpt>
      <trkpt lat="47.552" lon="6.71318">
        <ele>413.3</ele>
        <time>2014-11-09T10:33:07.000Z</time>
      </trkpt>
      <trkpt lat="47.55197" lon="6.71316">
        <ele>413</ele>
        <time>2014-11-09T10:33:08.000Z</time>
      </trkpt>
      <trkpt lat="47.55193" lon="6.71313">
        <ele>413.7</ele>
        <time>2014-11-09T10:33:09.000Z</time>
      </trkpt>
      <trkpt lat="47.5519" lon="6.71312">
        <ele>414.3</ele>
        <time>2014-11-09T10:33:10.000Z</time>
      </trkpt>
      <trkpt lat="47.55186" lon="6.71309">
        <ele>414.3</ele>
        <time>2014-11-09T10:33:11.000Z</time>
      </trkpt>
      <trkpt lat="47.55183" lon="6.71305">
        <ele>414.1</ele>
        <time>2014-11-09T10:33:12.000Z</time>
      </trkpt>
      <trkpt lat="47.5518" lon="6.71305">
        <ele>412.8</ele>
        <time>2014-11-09T10:33:13.000Z</time>
      </trkpt>
      <trkpt lat="47.55176" lon="6.71303">
        <ele>412.3</ele>
        <time>2014-11-09T10:33:14.000Z</time>
      </trkpt>
      <trkpt lat="47.55173" lon="6.71301">
        <ele>412.4</ele>
        <time>2014-11-09T10:33:15.000Z</time>
      </trkpt>
      <trkpt lat="47.5517" lon="6.71298">
        <ele>412.8</ele>
        <time>2014-11-09T10:33:16.000Z</time>
      </trkpt>
      <trkpt lat="47.55167" lon="6.71295">
        <ele>412.4</ele>
        <time>2014-11-09T10:33:17.000Z</time>
      </trkpt>
      <trkpt lat="47.55162" lon="6.71292">
        <ele>411.9</ele>
        <time>2014-11-09T10:33:18.000Z</time>
      </trkpt>
      <trkpt lat="47.55159" lon="6.71288">
        <ele>412.2</ele>
        <time>2014-11-09T10:33:19.000Z</time>
      </trkpt>
      <trkpt lat="47.55154" lon="6.71286">
        <ele>410.3</ele>
        <time>2014-11-09T10:33:20.000Z</time>
      </trkpt>
      <trkpt lat="47.5515" lon="6.71282">
        <ele>410.6</ele>
        <time>2014-11-09T10:33:21.000Z</time>
      </trkpt>
      <trkpt lat="47.55146" lon="6.71278">
        <ele>410.4</ele>
        <time>2014-11-09T10:33:22.000Z</time>
      </trkpt>
      <trkpt lat="47.55142" lon="6.71274">
        <ele>410.5</ele>
        <time>2014-11-09T10:33:23.000Z</time>
      </trkpt>
      <trkpt lat="47.55138" lon="6.7127">
        <ele>409.9</ele>
        <time>2014-11-09T10:33:24.000Z</time>
      </trkpt>
      <trkpt lat="47.55135" lon="6.71266">
        <ele>409.3</ele>
        <time>2014-11-09T10:33:25.000Z</time>
      </trkpt>
      <trkpt lat="47.55132" lon="6.71263">
        <ele>409</ele>
        <time>2014-11-09T10:33:26.000Z</time>
      </trkpt>
      <trkpt lat="47.55128" lon="6.71267">
        <ele>406.8</ele>
        <time>2014-11-09T10:33:40.000Z</time>
      </trkpt>
      <trkpt lat="47.55128" lon="6.7127">
        <ele>405.8</ele>
        <time>2014-11-09T10:33:41.000Z</time>
      </trkpt>
      <trkpt lat="47.55126" lon="6.71269">
        <ele>403.1</ele>
        <time>2014-11-09T10:33:56.000Z</time>
      </trkpt>
      <trkpt lat="47.55122" lon="6.71269">
        <ele>401.6</ele>
        <time>2014-11-09T10:34:04.000Z</time>
      </trkpt>
      <trkpt lat="47.55119" lon="6.71266">
        <ele>401.8</ele>
        <time>2014-11-09T10:34:16.000Z</time>
      </trkpt>
      <trkpt lat="47.55118" lon="6.71264">
        <ele>402</ele>
        <time>2014-11-09T10:34:17.000Z</time>
      </trkpt>
      <trkpt lat="47.55116" lon="6.71261">
        <ele>402.2</ele>
        <time>2014-11-09T10:34:18.000Z</time>
      </trkpt>
      <trkpt lat="47.55113" lon="6.71258">
        <ele>402</ele>
        <time>2014-11-09T10:34:19.000Z</time>
      </trkpt>
      <trkpt lat="47.5511" lon="6.71254">
        <ele>401.4</ele>
        <time>2014-11-09T10:34:20.000Z</time>
      </trkpt>
      <trkpt lat="47.55107" lon="6.71251">
        <ele>401.2</ele>
        <time>2014-11-09T10:34:21.000Z</time>
      </trkpt>
      <trkpt lat="47.55104" lon="6.71248">
        <ele>401.2</ele>
        <time>2014-11-09T10:34:22.000Z</time>
      </trkpt>
      <trkpt lat="47.55101" lon="6.71246">
        <ele>400.6</ele>
        <time>2014-11-09T10:34:23.000Z</time>
      </trkpt>
      <trkpt lat="47.55098" lon="6.71243">
        <ele>400.1</ele>
        <time>2014-11-09T10:34:24.000Z</time>
      </trkpt>
      <trkpt lat="47.55095" lon="6.71241">
        <ele>399.7</ele>
        <time>2014-11-09T10:34:25.000Z</time>
      </trkpt>
      <trkpt lat="47.55093" lon="6.71239">
        <ele>399.4</ele>
        <time>2014-11-09T10:34:26.000Z</time>
      </trkpt>
      <trkpt lat="47.5509" lon="6.71237">
        <ele>398.5</ele>
        <time>2014-11-09T10:34:27.000Z</time>
      </trkpt>
      <trkpt lat="47.55087" lon="6.71234">
        <ele>398</ele>
        <time>2014-11-09T10:34:28.000Z</time>
      </trkpt>
      <trkpt lat="47.55085" lon="6.71231">
        <ele>397.8</ele>
        <time>2014-11-09T10:34:29.000Z</time>
      </trkpt>
      <trkpt lat="47.55083" lon="6.71229">
        <ele>398.3</ele>
        <time>2014-11-09T10:34:30.000Z</time>
      </trkpt>
      <trkpt lat="47.5508" lon="6.71226">
        <ele>397.8</ele>
        <time>2014-11-09T10:34:31.000Z</time>
      </trkpt>
      <trkpt lat="47.55077" lon="6.71224">
        <ele>397.7</ele>
        <time>2014-11-09T10:34:32.000Z</time>
      </trkpt>
      <trkpt lat="47.55075" lon="6.71222">
        <ele>397.6</ele>
        <time>2014-11-09T10:34:33.000Z</time>
      </trkpt>
      <trkpt lat="47.55072" lon="6.7122">
        <ele>397.1</ele>
        <time>2014-11-09T10:34:34.000Z</time>
      </trkpt>
      <trkpt lat="47.5507" lon="6.71217">
        <ele>397.6</ele>
        <time>2014-11-09T10:34:35.000Z</time>
      </trkpt>
      <trkpt lat="47.55067" lon="6.71214">
        <ele>397.1</ele>
        <time>2014-11-09T10:34:36.000Z</time>
      </trkpt>
      <trkpt lat="47.55063" lon="6.71211">
        <ele>397.9</ele>
        <time>2014-11-09T10:34:37.000Z</time>
      </trkpt>
      <trkpt lat="47.55058" lon="6.71205">
        <ele>397.7</ele>
        <time>2014-11-09T10:34:38.000Z</time>
      </trkpt>
      <trkpt lat="47.55054" lon="6.71201">
        <ele>397.8</ele>
        <time>2014-11-09T10:34:39.000Z</time>
      </trkpt>
      <trkpt lat="47.5505" lon="6.71197">
        <ele>397.4</ele>
        <time>2014-11-09T10:34:40.000Z</time>
      </trkpt>
      <trkpt lat="47.55046" lon="6.71193">
        <ele>397.6</ele>
        <time>2014-11-09T10:34:41.000Z</time>
      </trkpt>
      <trkpt lat="47.55042" lon="6.71189">
        <ele>397.8</ele>
        <time>2014-11-09T10:34:42.000Z</time>
      </trkpt>
      <trkpt lat="47.55038" lon="6.71184">
        <ele>397.5</ele>
        <time>2014-11-09T10:34:43.000Z</time>
      </trkpt>
      <trkpt lat="47.55034" lon="6.71179">
        <ele>398.1</ele>
        <time>2014-11-09T10:34:44.000Z</time>
      </trkpt>
      <trkpt lat="47.55031" lon="6.71176">
        <ele>397.9</ele>
        <time>2014-11-09T10:34:45.000Z</time>
      </trkpt>
      <trkpt lat="47.55027" lon="6.7117">
        <ele>397.5</ele>
        <time>2014-11-09T10:34:46.000Z</time>
      </trkpt>
      <trkpt lat="47.55024" lon="6.71166">
        <ele>397.8</ele>
        <time>2014-11-09T10:34:47.000Z</time>
      </trkpt>
      <trkpt lat="47.5502" lon="6.7116">
        <ele>397.8</ele>
        <time>2014-11-09T10:34:48.000Z</time>
      </trkpt>
      <trkpt lat="47.55017" lon="6.71157">
        <ele>396.9</ele>
        <time>2014-11-09T10:34:49.000Z</time>
      </trkpt>
      <trkpt lat="47.55014" lon="6.71152">
        <ele>396.9</ele>
        <time>2014-11-09T10:34:50.000Z</time>
      </trkpt>
      <trkpt lat="47.55011" lon="6.71147">
        <ele>396.7</ele>
        <time>2014-11-09T10:34:51.000Z</time>
      </trkpt>
      <trkpt lat="47.55008" lon="6.71143">
        <ele>396.2</ele>
        <time>2014-11-09T10:34:52.000Z</time>
      </trkpt>
      <trkpt lat="47.55005" lon="6.71139">
        <ele>395.8</ele>
        <time>2014-11-09T10:34:53.000Z</time>
      </trkpt>
      <trkpt lat="47.55002" lon="6.71135">
        <ele>395.3</ele>
        <time>2014-11-09T10:34:54.000Z</time>
      </trkpt>
      <trkpt lat="47.54999" lon="6.71131">
        <ele>395</ele>
        <time>2014-11-09T10:34:55.000Z</time>
      </trkpt>
      <trkpt lat="47.54996" lon="6.71126">
        <ele>395.6</ele>
        <time>2014-11-09T10:34:56.000Z</time>
      </trkpt>
      <trkpt lat="47.54989" lon="6.71114">
        <ele>396.2</ele>
        <time>2014-11-09T10:34:59.000Z</time>
      </trkpt>
      <trkpt lat="47.54985" lon="6.71108">
        <ele>396.1</ele>
        <time>2014-11-09T10:35:00.000Z</time>
      </trkpt>
      <trkpt lat="47.54982" lon="6.71103">
        <ele>395.4</ele>
        <time>2014-11-09T10:35:01.000Z</time>
      </trkpt>
      <trkpt lat="47.54979" lon="6.71098">
        <ele>395.3</ele>
        <time>2014-11-09T10:35:02.000Z</time>
      </trkpt>
      <trkpt lat="47.54976" lon="6.71092">
        <ele>395</ele>
        <time>2014-11-09T10:35:03.000Z</time>
      </trkpt>
      <trkpt lat="47.54972" lon="6.71087">
        <ele>394.2</ele>
        <time>2014-11-09T10:35:04.000Z</time>
      </trkpt>
      <trkpt lat="47.54968" lon="6.71083">
        <ele>394</ele>
        <time>2014-11-09T10:35:05.000Z</time>
      </trkpt>
      <trkpt lat="47.54964" lon="6.71078">
        <ele>395</ele>
        <time>2014-11-09T10:35:06.000Z</time>
      </trkpt>
      <trkpt lat="47.54961" lon="6.71073">
        <ele>394.3</ele>
        <time>2014-11-09T10:35:07.000Z</time>
      </trkpt>
      <trkpt lat="47.54958" lon="6.71068">
        <ele>393.6</ele>
        <time>2014-11-09T10:35:08.000Z</time>
      </trkpt>
      <trkpt lat="47.54954" lon="6.71064">
        <ele>393.1</ele>
        <time>2014-11-09T10:35:09.000Z</time>
      </trkpt>
      <trkpt lat="47.54951" lon="6.71058">
        <ele>393</ele>
        <time>2014-11-09T10:35:10.000Z</time>
      </trkpt>
      <trkpt lat="47.54948" lon="6.71054">
        <ele>394</ele>
        <time>2014-11-09T10:35:11.000Z</time>
      </trkpt>
      <trkpt lat="47.54946" lon="6.7105">
        <ele>394.5</ele>
        <time>2014-11-09T10:35:12.000Z</time>
      </trkpt>
      <trkpt lat="47.54944" lon="6.71046">
        <ele>394.9</ele>
        <time>2014-11-09T10:35:13.000Z</time>
      </trkpt>
      <trkpt lat="47.54942" lon="6.71042">
        <ele>395.1</ele>
        <time>2014-11-09T10:35:14.000Z</time>
      </trkpt>
      <trkpt lat="47.54942" lon="6.71035">
        <ele>393.9</ele>
        <time>2014-11-09T10:35:15.000Z</time>
      </trkpt>
      <trkpt lat="47.54941" lon="6.7103">
        <ele>393.7</ele>
        <time>2014-11-09T10:35:16.000Z</time>
      </trkpt>
      <trkpt lat="47.5494" lon="6.71025">
        <ele>393.8</ele>
        <time>2014-11-09T10:35:17.000Z</time>
      </trkpt>
      <trkpt lat="47.5494" lon="6.71021">
        <ele>394.2</ele>
        <time>2014-11-09T10:35:18.000Z</time>
      </trkpt>
      <trkpt lat="47.5494" lon="6.71017">
        <ele>395.1</ele>
        <time>2014-11-09T10:35:19.000Z</time>
      </trkpt>
      <trkpt lat="47.5494" lon="6.71013">
        <ele>395.1</ele>
        <time>2014-11-09T10:35:20.000Z</time>
      </trkpt>
      <trkpt lat="47.5494" lon="6.71009">
        <ele>395.2</ele>
        <time>2014-11-09T10:35:21.000Z</time>
      </trkpt>
      <trkpt lat="47.54941" lon="6.71004">
        <ele>396</ele>
        <time>2014-11-09T10:35:22.000Z</time>
      </trkpt>
      <trkpt lat="47.54947" lon="6.70994">
        <ele>398.2</ele>
        <time>2014-11-09T10:35:23.000Z</time>
      </trkpt>
      <trkpt lat="47.54948" lon="6.70988">
        <ele>399.1</ele>
        <time>2014-11-09T10:35:24.000Z</time>
      </trkpt>
      <trkpt lat="47.54946" lon="6.70977">
        <ele>402.7</ele>
        <time>2014-11-09T10:35:25.000Z</time>
      </trkpt>
      <trkpt lat="47.54945" lon="6.7097">
        <ele>403.7</ele>
        <time>2014-11-09T10:35:26.000Z</time>
      </trkpt>
      <trkpt lat="47.54945" lon="6.70959">
        <ele>403.2</ele>
        <time>2014-11-09T10:35:27.000Z</time>
      </trkpt>
      <trkpt lat="47.54943" lon="6.7095">
        <ele>402.5</ele>
        <time>2014-11-09T10:35:28.000Z</time>
      </trkpt>
      <trkpt lat="47.54941" lon="6.70938">
        <ele>401.2</ele>
        <time>2014-11-09T10:35:29.000Z</time>
      </trkpt>
      <trkpt lat="47.54933" lon="6.70927">
        <ele>399.7</ele>
        <time>2014-11-09T10:35:30.000Z</time>
      </trkpt>
      <trkpt lat="47.54927" lon="6.70916">
        <ele>398.4</ele>
        <time>2014-11-09T10:35:31.000Z</time>
      </trkpt>
      <trkpt lat="47.54924" lon="6.70906">
        <ele>398</ele>
        <time>2014-11-09T10:35:32.000Z</time>
      </trkpt>
      <trkpt lat="47.5492" lon="6.709">
        <ele>397.5</ele>
        <time>2014-11-09T10:35:33.000Z</time>
      </trkpt>
      <trkpt lat="47.54918" lon="6.70894">
        <ele>397.6</ele>
        <time>2014-11-09T10:35:34.000Z</time>
      </trkpt>
      <trkpt lat="47.54915" lon="6.70888">
        <ele>397.4</ele>
        <time>2014-11-09T10:35:35.000Z</time>
      </trkpt>
      <trkpt lat="47.54914" lon="6.70882">
        <ele>397.7</ele>
        <time>2014-11-09T10:35:36.000Z</time>
      </trkpt>
      <trkpt lat="47.54912" lon="6.70877">
        <ele>398.4</ele>
        <time>2014-11-09T10:35:37.000Z</time>
      </trkpt>
      <trkpt lat="47.54909" lon="6.70874">
        <ele>399</ele>
        <time>2014-11-09T10:35:38.000Z</time>
      </trkpt>
      <trkpt lat="47.54906" lon="6.70869">
        <ele>399.9</ele>
        <time>2014-11-09T10:35:39.000Z</time>
      </trkpt>
      <trkpt lat="47.54904" lon="6.70864">
        <ele>399.9</ele>
        <time>2014-11-09T10:35:40.000Z</time>
      </trkpt>
      <trkpt lat="47.54897" lon="6.70859">
        <ele>399.4</ele>
        <time>2014-11-09T10:35:41.000Z</time>
      </trkpt>
      <trkpt lat="47.54891" lon="6.70853">
        <ele>398.7</ele>
        <time>2014-11-09T10:35:42.000Z</time>
      </trkpt>
      <trkpt lat="47.54883" lon="6.70849">
        <ele>399.8</ele>
        <time>2014-11-09T10:35:43.000Z</time>
      </trkpt>
      <trkpt lat="47.54875" lon="6.70846">
        <ele>397.8</ele>
        <time>2014-11-09T10:35:44.000Z</time>
      </trkpt>
      <trkpt lat="47.54871" lon="6.70843">
        <ele>397.6</ele>
        <time>2014-11-09T10:35:45.000Z</time>
      </trkpt>
      <trkpt lat="47.54868" lon="6.70841">
        <ele>397.7</ele>
        <time>2014-11-09T10:35:46.000Z</time>
      </trkpt>
      <trkpt lat="47.54866" lon="6.70838">
        <ele>398</ele>
        <time>2014-11-09T10:35:47.000Z</time>
      </trkpt>
      <trkpt lat="47.54864" lon="6.70835">
        <ele>398.1</ele>
        <time>2014-11-09T10:35:48.000Z</time>
      </trkpt>
      <trkpt lat="47.54861" lon="6.70832">
        <ele>398.1</ele>
        <time>2014-11-09T10:35:49.000Z</time>
      </trkpt>
      <trkpt lat="47.54856" lon="6.7083">
        <ele>400.6</ele>
        <time>2014-11-09T10:35:50.000Z</time>
      </trkpt>
      <trkpt lat="47.54852" lon="6.70828">
        <ele>401.7</ele>
        <time>2014-11-09T10:35:51.000Z</time>
      </trkpt>
      <trkpt lat="47.54849" lon="6.70825">
        <ele>402.5</ele>
        <time>2014-11-09T10:35:52.000Z</time>
      </trkpt>
      <trkpt lat="47.54846" lon="6.70823">
        <ele>402.4</ele>
        <time>2014-11-09T10:35:53.000Z</time>
      </trkpt>
      <trkpt lat="47.54843" lon="6.7082">
        <ele>402.8</ele>
        <time>2014-11-09T10:35:54.000Z</time>
      </trkpt>
      <trkpt lat="47.54841" lon="6.70817">
        <ele>403</ele>
        <time>2014-11-09T10:35:55.000Z</time>
      </trkpt>
      <trkpt lat="47.54838" lon="6.70813">
        <ele>402.3</ele>
        <time>2014-11-09T10:35:56.000Z</time>
      </trkpt>
      <trkpt lat="47.54811" lon="6.70766">
        <ele>401.1</ele>
        <time>2014-11-09T10:36:04.000Z</time>
      </trkpt>
      <trkpt lat="47.54806" lon="6.70759">
        <ele>402</ele>
        <time>2014-11-09T10:36:05.000Z</time>
      </trkpt>
      <trkpt lat="47.54803" lon="6.70748">
        <ele>402.4</ele>
        <time>2014-11-09T10:36:06.000Z</time>
      </trkpt>
      <trkpt lat="47.54801" lon="6.70737">
        <ele>403.1</ele>
        <time>2014-11-09T10:36:07.000Z</time>
      </trkpt>
      <trkpt lat="47.548" lon="6.70727">
        <ele>403.2</ele>
        <time>2014-11-09T10:36:08.000Z</time>
      </trkpt>
      <trkpt lat="47.548" lon="6.70719">
        <ele>403.5</ele>
        <time>2014-11-09T10:36:09.000Z</time>
      </trkpt>
      <trkpt lat="47.54798" lon="6.70714">
        <ele>404.6</ele>
        <time>2014-11-09T10:36:10.000Z</time>
      </trkpt>
      <trkpt lat="47.54795" lon="6.7071">
        <ele>406.1</ele>
        <time>2014-11-09T10:36:11.000Z</time>
      </trkpt>
      <trkpt lat="47.54794" lon="6.70704">
        <ele>407.2</ele>
        <time>2014-11-09T10:36:12.000Z</time>
      </trkpt>
      <trkpt lat="47.54791" lon="6.70699">
        <ele>408</ele>
        <time>2014-11-09T10:36:13.000Z</time>
      </trkpt>
      <trkpt lat="47.54789" lon="6.70694">
        <ele>409.1</ele>
        <time>2014-11-09T10:36:14.000Z</time>
      </trkpt>
      <trkpt lat="47.54787" lon="6.70687">
        <ele>410.1</ele>
        <time>2014-11-09T10:36:15.000Z</time>
      </trkpt>
      <trkpt lat="47.54787" lon="6.70681">
        <ele>409.8</ele>
        <time>2014-11-09T10:36:16.000Z</time>
      </trkpt>
      <trkpt lat="47.5478" lon="6.70674">
        <ele>408.5</ele>
        <time>2014-11-09T10:36:17.000Z</time>
      </trkpt>
      <trkpt lat="47.54778" lon="6.70665">
        <ele>407.4</ele>
        <time>2014-11-09T10:36:18.000Z</time>
      </trkpt>
      <trkpt lat="47.54778" lon="6.70659">
        <ele>407</ele>
        <time>2014-11-09T10:36:19.000Z</time>
      </trkpt>
      <trkpt lat="47.54779" lon="6.70652">
        <ele>408.3</ele>
        <time>2014-11-09T10:36:20.000Z</time>
      </trkpt>
      <trkpt lat="47.54779" lon="6.70645">
        <ele>408.6</ele>
        <time>2014-11-09T10:36:21.000Z</time>
      </trkpt>
      <trkpt lat="47.5478" lon="6.70638">
        <ele>409.3</ele>
        <time>2014-11-09T10:36:22.000Z</time>
      </trkpt>
      <trkpt lat="47.54781" lon="6.70632">
        <ele>410.8</ele>
        <time>2014-11-09T10:36:23.000Z</time>
      </trkpt>
      <trkpt lat="47.54782" lon="6.70625">
        <ele>409.8</ele>
        <time>2014-11-09T10:36:24.000Z</time>
      </trkpt>
      <trkpt lat="47.54782" lon="6.70617">
        <ele>408.5</ele>
        <time>2014-11-09T10:36:25.000Z</time>
      </trkpt>
      <trkpt lat="47.54782" lon="6.70609">
        <ele>411.3</ele>
        <time>2014-11-09T10:36:26.000Z</time>
      </trkpt>
      <trkpt lat="47.5478" lon="6.706">
        <ele>409.6</ele>
        <time>2014-11-09T10:36:27.000Z</time>
      </trkpt>
      <trkpt lat="47.54779" lon="6.70592">
        <ele>408.7</ele>
        <time>2014-11-09T10:36:28.000Z</time>
      </trkpt>
      <trkpt lat="47.54778" lon="6.70584">
        <ele>408.8</ele>
        <time>2014-11-09T10:36:29.000Z</time>
      </trkpt>
      <trkpt lat="47.54777" lon="6.70575">
        <ele>408.7</ele>
        <time>2014-11-09T10:36:30.000Z</time>
      </trkpt>
      <trkpt lat="47.54776" lon="6.70566">
        <ele>410.3</ele>
        <time>2014-11-09T10:36:31.000Z</time>
      </trkpt>
      <trkpt lat="47.54775" lon="6.70556">
        <ele>410.7</ele>
        <time>2014-11-09T10:36:32.000Z</time>
      </trkpt>
      <trkpt lat="47.54774" lon="6.70546">
        <ele>411.6</ele>
        <time>2014-11-09T10:36:33.000Z</time>
      </trkpt>
      <trkpt lat="47.54773" lon="6.70537">
        <ele>410.1</ele>
        <time>2014-11-09T10:36:34.000Z</time>
      </trkpt>
      <trkpt lat="47.54772" lon="6.70527">
        <ele>410.5</ele>
        <time>2014-11-09T10:36:35.000Z</time>
      </trkpt>
      <trkpt lat="47.5477" lon="6.70519">
        <ele>410.9</ele>
        <time>2014-11-09T10:36:36.000Z</time>
      </trkpt>
      <trkpt lat="47.54769" lon="6.70511">
        <ele>409.1</ele>
        <time>2014-11-09T10:36:37.000Z</time>
      </trkpt>
      <trkpt lat="47.54766" lon="6.70504">
        <ele>403.5</ele>
        <time>2014-11-09T10:36:38.000Z</time>
      </trkpt>
      <trkpt lat="47.54763" lon="6.70497">
        <ele>398.4</ele>
        <time>2014-11-09T10:36:39.000Z</time>
      </trkpt>
      <trkpt lat="47.54759" lon="6.70491">
        <ele>395.8</ele>
        <time>2014-11-09T10:36:40.000Z</time>
      </trkpt>
      <trkpt lat="47.54754" lon="6.70487">
        <ele>393.9</ele>
        <time>2014-11-09T10:36:41.000Z</time>
      </trkpt>
      <trkpt lat="47.54735" lon="6.70491">
        <ele>392.1</ele>
        <time>2014-11-09T10:36:42.000Z</time>
      </trkpt>
      <trkpt lat="47.54727" lon="6.70495">
        <ele>390.1</ele>
        <time>2014-11-09T10:36:43.000Z</time>
      </trkpt>
      <trkpt lat="47.54719" lon="6.70499">
        <ele>387.8</ele>
        <time>2014-11-09T10:36:44.000Z</time>
      </trkpt>
      <trkpt lat="47.54711" lon="6.70503">
        <ele>386.1</ele>
        <time>2014-11-09T10:36:45.000Z</time>
      </trkpt>
      <trkpt lat="47.54704" lon="6.70508">
        <ele>384.2</ele>
        <time>2014-11-09T10:36:46.000Z</time>
      </trkpt>
      <trkpt lat="47.54697" lon="6.70512">
        <ele>382.8</ele>
        <time>2014-11-09T10:36:47.000Z</time>
      </trkpt>
      <trkpt lat="47.5469" lon="6.70516">
        <ele>381.7</ele>
        <time>2014-11-09T10:36:48.000Z</time>
      </trkpt>
      <trkpt lat="47.54682" lon="6.70519">
        <ele>381.4</ele>
        <time>2014-11-09T10:36:49.000Z</time>
      </trkpt>
      <trkpt lat="47.54676" lon="6.70521">
        <ele>380.1</ele>
        <time>2014-11-09T10:36:50.000Z</time>
      </trkpt>
      <trkpt lat="47.5467" lon="6.70524">
        <ele>378</ele>
        <time>2014-11-09T10:36:51.000Z</time>
      </trkpt>
      <trkpt lat="47.54664" lon="6.70527">
        <ele>376.5</ele>
        <time>2014-11-09T10:36:52.000Z</time>
      </trkpt>
      <trkpt lat="47.54659" lon="6.70528">
        <ele>375.5</ele>
        <time>2014-11-09T10:36:53.000Z</time>
      </trkpt>
      <trkpt lat="47.54654" lon="6.70529">
        <ele>375.1</ele>
        <time>2014-11-09T10:36:54.000Z</time>
      </trkpt>
      <trkpt lat="47.54649" lon="6.70528">
        <ele>374</ele>
        <time>2014-11-09T10:36:55.000Z</time>
      </trkpt>
      <trkpt lat="47.54643" lon="6.70529">
        <ele>373.4</ele>
        <time>2014-11-09T10:36:56.000Z</time>
      </trkpt>
      <trkpt lat="47.54632" lon="6.70531">
        <ele>372.6</ele>
        <time>2014-11-09T10:36:59.000Z</time>
      </trkpt>
      <trkpt lat="47.54627" lon="6.7053">
        <ele>372.5</ele>
        <time>2014-11-09T10:37:00.000Z</time>
      </trkpt>
      <trkpt lat="47.54622" lon="6.70531">
        <ele>371.8</ele>
        <time>2014-11-09T10:37:01.000Z</time>
      </trkpt>
      <trkpt lat="47.54616" lon="6.70533">
        <ele>370.6</ele>
        <time>2014-11-09T10:37:02.000Z</time>
      </trkpt>
      <trkpt lat="47.54612" lon="6.70534">
        <ele>370.2</ele>
        <time>2014-11-09T10:37:03.000Z</time>
      </trkpt>
      <trkpt lat="47.54605" lon="6.70534">
        <ele>371.4</ele>
        <time>2014-11-09T10:37:04.000Z</time>
      </trkpt>
      <trkpt lat="47.546" lon="6.70535">
        <ele>371.4</ele>
        <time>2014-11-09T10:37:05.000Z</time>
      </trkpt>
      <trkpt lat="47.54596" lon="6.70534">
        <ele>372.1</ele>
        <time>2014-11-09T10:37:07.000Z</time>
      </trkpt>
      <trkpt lat="47.54593" lon="6.70536">
        <ele>371.7</ele>
        <time>2014-11-09T10:37:08.000Z</time>
      </trkpt>
      <trkpt lat="47.54589" lon="6.70536">
        <ele>373.2</ele>
        <time>2014-11-09T10:37:11.000Z</time>
      </trkpt>
      <trkpt lat="47.54587" lon="6.70537">
        <ele>373.4</ele>
        <time>2014-11-09T10:37:12.000Z</time>
      </trkpt>
      <trkpt lat="47.54583" lon="6.70539">
        <ele>373.7</ele>
        <time>2014-11-09T10:37:14.000Z</time>
      </trkpt>
      <trkpt lat="47.5458" lon="6.7054">
        <ele>375.9</ele>
        <time>2014-11-09T10:37:15.000Z</time>
      </trkpt>
      <trkpt lat="47.54577" lon="6.70541">
        <ele>377.2</ele>
        <time>2014-11-09T10:37:16.000Z</time>
      </trkpt>
      <trkpt lat="47.54575" lon="6.70541">
        <ele>378.2</ele>
        <time>2014-11-09T10:37:17.000Z</time>
      </trkpt>
      <trkpt lat="47.54572" lon="6.70542">
        <ele>378.2</ele>
        <time>2014-11-09T10:37:18.000Z</time>
      </trkpt>
      <trkpt lat="47.5457" lon="6.70542">
        <ele>378.7</ele>
        <time>2014-11-09T10:37:19.000Z</time>
      </trkpt>
      <trkpt lat="47.54566" lon="6.70543">
        <ele>378.5</ele>
        <time>2014-11-09T10:37:21.000Z</time>
      </trkpt>
      <trkpt lat="47.54564" lon="6.70542">
        <ele>378.7</ele>
        <time>2014-11-09T10:37:22.000Z</time>
      </trkpt>
      <trkpt lat="47.54562" lon="6.70542">
        <ele>379.5</ele>
        <time>2014-11-09T10:37:23.000Z</time>
      </trkpt>
      <trkpt lat="47.54559" lon="6.70543">
        <ele>379.6</ele>
        <time>2014-11-09T10:37:24.000Z</time>
      </trkpt>
      <trkpt lat="47.54557" lon="6.70543">
        <ele>379.4</ele>
        <time>2014-11-09T10:37:25.000Z</time>
      </trkpt>
      <trkpt lat="47.54553" lon="6.70544">
        <ele>379.6</ele>
        <time>2014-11-09T10:37:26.000Z</time>
      </trkpt>
      <trkpt lat="47.5455" lon="6.70545">
        <ele>380.6</ele>
        <time>2014-11-09T10:37:27.000Z</time>
      </trkpt>
      <trkpt lat="47.54546" lon="6.70547">
        <ele>383.5</ele>
        <time>2014-11-09T10:37:28.000Z</time>
      </trkpt>
      <trkpt lat="47.54542" lon="6.70548">
        <ele>383.5</ele>
        <time>2014-11-09T10:37:29.000Z</time>
      </trkpt>
      <trkpt lat="47.54537" lon="6.70549">
        <ele>383.2</ele>
        <time>2014-11-09T10:37:30.000Z</time>
      </trkpt>
      <trkpt lat="47.54533" lon="6.7055">
        <ele>383.4</ele>
        <time>2014-11-09T10:37:31.000Z</time>
      </trkpt>
      <trkpt lat="47.54529" lon="6.70551">
        <ele>383.3</ele>
        <time>2014-11-09T10:37:32.000Z</time>
      </trkpt>
      <trkpt lat="47.54525" lon="6.70552">
        <ele>383.5</ele>
        <time>2014-11-09T10:37:33.000Z</time>
      </trkpt>
      <trkpt lat="47.54522" lon="6.70552">
        <ele>382.9</ele>
        <time>2014-11-09T10:37:34.000Z</time>
      </trkpt>
      <trkpt lat="47.5452" lon="6.70552">
        <ele>383.8</ele>
        <time>2014-11-09T10:37:35.000Z</time>
      </trkpt>
      <trkpt lat="47.54517" lon="6.70552">
        <ele>382.5</ele>
        <time>2014-11-09T10:37:36.000Z</time>
      </trkpt>
      <trkpt lat="47.54513" lon="6.70553">
        <ele>382.1</ele>
        <time>2014-11-09T10:37:38.000Z</time>
      </trkpt>
      <trkpt lat="47.54512" lon="6.70553">
        <ele>382.3</ele>
        <time>2014-11-09T10:37:39.000Z</time>
      </trkpt>
      <trkpt lat="47.54508" lon="6.70554">
        <ele>382.2</ele>
        <time>2014-11-09T10:37:55.000Z</time>
      </trkpt>
      <trkpt lat="47.54507" lon="6.70555">
        <ele>382.2</ele>
        <time>2014-11-09T10:37:56.000Z</time>
      </trkpt>
      <trkpt lat="47.54507" lon="6.70555">
        <ele>382.9</ele>
        <time>2014-11-09T10:37:57.000Z</time>
      </trkpt>
      <trkpt lat="47.54493" lon="6.70566">
        <ele>383.9</ele>
        <time>2014-11-09T10:38:06.000Z</time>
      </trkpt>
      <trkpt lat="47.54491" lon="6.70569">
        <ele>383.9</ele>
        <time>2014-11-09T10:38:08.000Z</time>
      </trkpt>
      <trkpt lat="47.5449" lon="6.70571">
        <ele>383.7</ele>
        <time>2014-11-09T10:38:09.000Z</time>
      </trkpt>
      <trkpt lat="47.54488" lon="6.70573">
        <ele>384.2</ele>
        <time>2014-11-09T10:38:10.000Z</time>
      </trkpt>
      <trkpt lat="47.54486" lon="6.70576">
        <ele>384.2</ele>
        <time>2014-11-09T10:38:11.000Z</time>
      </trkpt>
      <trkpt lat="47.54484" lon="6.70578">
        <ele>384.5</ele>
        <time>2014-11-09T10:38:12.000Z</time>
      </trkpt>
      <trkpt lat="47.54481" lon="6.70581">
        <ele>384.9</ele>
        <time>2014-11-09T10:38:13.000Z</time>
      </trkpt>
      <trkpt lat="47.54476" lon="6.70585">
        <ele>382.4</ele>
        <time>2014-11-09T10:38:14.000Z</time>
      </trkpt>
      <trkpt lat="47.54471" lon="6.70588">
        <ele>380.7</ele>
        <time>2014-11-09T10:38:15.000Z</time>
      </trkpt>
      <trkpt lat="47.54466" lon="6.70592">
        <ele>379.6</ele>
        <time>2014-11-09T10:38:16.000Z</time>
      </trkpt>
      <trkpt lat="47.54443" lon="6.70604">
        <ele>375.8</ele>
        <time>2014-11-09T10:38:17.000Z</time>
      </trkpt>
      <trkpt lat="47.5444" lon="6.70607">
        <ele>376</ele>
        <time>2014-11-09T10:38:18.000Z</time>
      </trkpt>
      <trkpt lat="47.54436" lon="6.7061">
        <ele>375.5</ele>
        <time>2014-11-09T10:38:19.000Z</time>
      </trkpt>
      <trkpt lat="47.54433" lon="6.70612">
        <ele>375</ele>
        <time>2014-11-09T10:38:20.000Z</time>
      </trkpt>
      <trkpt lat="47.54431" lon="6.70615">
        <ele>374.7</ele>
        <time>2014-11-09T10:38:21.000Z</time>
      </trkpt>
      <trkpt lat="47.54428" lon="6.70618">
        <ele>374.3</ele>
        <time>2014-11-09T10:38:22.000Z</time>
      </trkpt>
      <trkpt lat="47.54426" lon="6.7062">
        <ele>374.3</ele>
        <time>2014-11-09T10:38:23.000Z</time>
      </trkpt>
      <trkpt lat="47.54424" lon="6.70623">
        <ele>373.6</ele>
        <time>2014-11-09T10:38:24.000Z</time>
      </trkpt>
      <trkpt lat="47.54422" lon="6.70626">
        <ele>376</ele>
        <time>2014-11-09T10:38:25.000Z</time>
      </trkpt>
      <trkpt lat="47.5442" lon="6.70629">
        <ele>377.6</ele>
        <time>2014-11-09T10:38:26.000Z</time>
      </trkpt>
      <trkpt lat="47.54418" lon="6.70633">
        <ele>379.1</ele>
        <time>2014-11-09T10:38:27.000Z</time>
      </trkpt>
      <trkpt lat="47.54415" lon="6.70636">
        <ele>379.4</ele>
        <time>2014-11-09T10:38:28.000Z</time>
      </trkpt>
      <trkpt lat="47.54412" lon="6.70639">
        <ele>379.9</ele>
        <time>2014-11-09T10:38:29.000Z</time>
      </trkpt>
      <trkpt lat="47.54409" lon="6.70643">
        <ele>380.5</ele>
        <time>2014-11-09T10:38:30.000Z</time>
      </trkpt>
      <trkpt lat="47.54406" lon="6.70646">
        <ele>382.6</ele>
        <time>2014-11-09T10:38:31.000Z</time>
      </trkpt>
      <trkpt lat="47.54403" lon="6.7065">
        <ele>381.9</ele>
        <time>2014-11-09T10:38:32.000Z</time>
      </trkpt>
      <trkpt lat="47.54401" lon="6.70653">
        <ele>381.9</ele>
        <time>2014-11-09T10:38:33.000Z</time>
      </trkpt>
      <trkpt lat="47.54398" lon="6.70656">
        <ele>381.8</ele>
        <time>2014-11-09T10:38:34.000Z</time>
      </trkpt>
      <trkpt lat="47.54396" lon="6.70658">
        <ele>384.5</ele>
        <time>2014-11-09T10:38:35.000Z</time>
      </trkpt>
      <trkpt lat="47.54394" lon="6.70661">
        <ele>384.4</ele>
        <time>2014-11-09T10:38:36.000Z</time>
      </trkpt>
      <trkpt lat="47.54392" lon="6.70664">
        <ele>384.7</ele>
        <time>2014-11-09T10:38:37.000Z</time>
      </trkpt>
      <trkpt lat="47.54389" lon="6.70669">
        <ele>384.5</ele>
        <time>2014-11-09T10:38:39.000Z</time>
      </trkpt>
      <trkpt lat="47.54388" lon="6.70672">
        <ele>384.1</ele>
        <time>2014-11-09T10:38:40.000Z</time>
      </trkpt>
      <trkpt lat="47.54386" lon="6.70677">
        <ele>382.8</ele>
        <time>2014-11-09T10:38:42.000Z</time>
      </trkpt>
      <trkpt lat="47.54384" lon="6.70679">
        <ele>382.3</ele>
        <time>2014-11-09T10:38:43.000Z</time>
      </trkpt>
      <trkpt lat="47.54383" lon="6.70682">
        <ele>381.8</ele>
        <time>2014-11-09T10:38:44.000Z</time>
      </trkpt>
      <trkpt lat="47.54381" lon="6.70685">
        <ele>380.6</ele>
        <time>2014-11-09T10:38:45.000Z</time>
      </trkpt>
      <trkpt lat="47.5438" lon="6.70688">
        <ele>378.3</ele>
        <time>2014-11-09T10:38:46.000Z</time>
      </trkpt>
      <trkpt lat="47.54378" lon="6.70691">
        <ele>377.9</ele>
        <time>2014-11-09T10:38:47.000Z</time>
      </trkpt>
      <trkpt lat="47.54376" lon="6.70695">
        <ele>378.8</ele>
        <time>2014-11-09T10:38:48.000Z</time>
      </trkpt>
      <trkpt lat="47.54374" lon="6.70698">
        <ele>378.9</ele>
        <time>2014-11-09T10:38:49.000Z</time>
      </trkpt>
      <trkpt lat="47.54372" lon="6.70701">
        <ele>378.6</ele>
        <time>2014-11-09T10:38:50.000Z</time>
      </trkpt>
      <trkpt lat="47.5437" lon="6.70704">
        <ele>379.7</ele>
        <time>2014-11-09T10:38:51.000Z</time>
      </trkpt>
      <trkpt lat="47.54368" lon="6.70707">
        <ele>379.5</ele>
        <time>2014-11-09T10:38:52.000Z</time>
      </trkpt>
      <trkpt lat="47.54366" lon="6.7071">
        <ele>380.9</ele>
        <time>2014-11-09T10:38:53.000Z</time>
      </trkpt>
      <trkpt lat="47.54364" lon="6.70712">
        <ele>381.3</ele>
        <time>2014-11-09T10:38:54.000Z</time>
      </trkpt>
      <trkpt lat="47.54362" lon="6.70714">
        <ele>380.1</ele>
        <time>2014-11-09T10:38:55.000Z</time>
      </trkpt>
      <trkpt lat="47.5436" lon="6.70716">
        <ele>380.5</ele>
        <time>2014-11-09T10:38:56.000Z</time>
      </trkpt>
      <trkpt lat="47.54358" lon="6.70717">
        <ele>381.7</ele>
        <time>2014-11-09T10:38:57.000Z</time>
      </trkpt>
      <trkpt lat="47.54353" lon="6.70719">
        <ele>383.6</ele>
        <time>2014-11-09T10:39:00.000Z</time>
      </trkpt>
      <trkpt lat="47.5435" lon="6.70715">
        <ele>381.7</ele>
        <time>2014-11-09T10:39:05.000Z</time>
      </trkpt>
      <trkpt lat="47.5435" lon="6.70713">
        <ele>381.1</ele>
        <time>2014-11-09T10:39:06.000Z</time>
      </trkpt>
      <trkpt lat="47.54349" lon="6.70707">
        <ele>382.8</ele>
        <time>2014-11-09T10:39:10.000Z</time>
      </trkpt>
      <trkpt lat="47.54349" lon="6.70705">
        <ele>384.3</ele>
        <time>2014-11-09T10:39:11.000Z</time>
      </trkpt>
      <trkpt lat="47.54349" lon="6.707">
        <ele>385</ele>
        <time>2014-11-09T10:39:13.000Z</time>
      </trkpt>
      <trkpt lat="47.54348" lon="6.70698">
        <ele>385.1</ele>
        <time>2014-11-09T10:39:14.000Z</time>
      </trkpt>
      <trkpt lat="47.54347" lon="6.70693">
        <ele>385.4</ele>
        <time>2014-11-09T10:39:16.000Z</time>
      </trkpt>
      <trkpt lat="47.54346" lon="6.7069">
        <ele>384.5</ele>
        <time>2014-11-09T10:39:17.000Z</time>
      </trkpt>
      <trkpt lat="47.54345" lon="6.70687">
        <ele>382.3</ele>
        <time>2014-11-09T10:39:18.000Z</time>
      </trkpt>
      <trkpt lat="47.54344" lon="6.70685">
        <ele>382.2</ele>
        <time>2014-11-09T10:39:19.000Z</time>
      </trkpt>
      <trkpt lat="47.54342" lon="6.70682">
        <ele>382.4</ele>
        <time>2014-11-09T10:39:20.000Z</time>
      </trkpt>
      <trkpt lat="47.5434" lon="6.7068">
        <ele>381.8</ele>
        <time>2014-11-09T10:39:21.000Z</time>
      </trkpt>
      <trkpt lat="47.54337" lon="6.70678">
        <ele>382.1</ele>
        <time>2014-11-09T10:39:23.000Z</time>
      </trkpt>
      <trkpt lat="47.54335" lon="6.70677">
        <ele>382</ele>
        <time>2014-11-09T10:39:24.000Z</time>
      </trkpt>
      <trkpt lat="47.54332" lon="6.70678">
        <ele>381.5</ele>
        <time>2014-11-09T10:39:26.000Z</time>
      </trkpt>
      <trkpt lat="47.5433" lon="6.70678">
        <ele>382.4</ele>
        <time>2014-11-09T10:39:27.000Z</time>
      </trkpt>
      <trkpt lat="47.54326" lon="6.70679">
        <ele>383.1</ele>
        <time>2014-11-09T10:39:30.000Z</time>
      </trkpt>
      <trkpt lat="47.54325" lon="6.7068">
        <ele>382.9</ele>
        <time>2014-11-09T10:39:31.000Z</time>
      </trkpt>
      <trkpt lat="47.54321" lon="6.70683">
        <ele>382.7</ele>
        <time>2014-11-09T10:39:36.000Z</time>
      </trkpt>
      <trkpt lat="47.5432" lon="6.70682">
        <ele>383.1</ele>
        <time>2014-11-09T10:39:37.000Z</time>
      </trkpt>
      <trkpt lat="47.54315" lon="6.70683">
        <ele>379.1</ele>
        <time>2014-11-09T10:39:46.000Z</time>
      </trkpt>
      <trkpt lat="47.54314" lon="6.70684">
        <ele>378.8</ele>
        <time>2014-11-09T10:39:47.000Z</time>
      </trkpt>
      <trkpt lat="47.5431" lon="6.70687">
        <ele>380.5</ele>
        <time>2014-11-09T10:39:50.000Z</time>
      </trkpt>
      <trkpt lat="47.54309" lon="6.70688">
        <ele>380.6</ele>
        <time>2014-11-09T10:39:51.000Z</time>
      </trkpt>
      <trkpt lat="47.54305" lon="6.70691">
        <ele>381.2</ele>
        <time>2014-11-09T10:39:54.000Z</time>
      </trkpt>
      <trkpt lat="47.54304" lon="6.70692">
        <ele>381.6</ele>
        <time>2014-11-09T10:39:55.000Z</time>
      </trkpt>
      <trkpt lat="47.54302" lon="6.70693">
        <ele>382.6</ele>
        <time>2014-11-09T10:39:56.000Z</time>
      </trkpt>
      <trkpt lat="47.54298" lon="6.70696">
        <ele>383.8</ele>
        <time>2014-11-09T10:39:59.000Z</time>
      </trkpt>
      <trkpt lat="47.54296" lon="6.70697">
        <ele>382.9</ele>
        <time>2014-11-09T10:40:00.000Z</time>
      </trkpt>
      <trkpt lat="47.54294" lon="6.70699">
        <ele>382.7</ele>
        <time>2014-11-09T10:40:01.000Z</time>
      </trkpt>
      <trkpt lat="47.54291" lon="6.70701">
        <ele>382.6</ele>
        <time>2014-11-09T10:40:02.000Z</time>
      </trkpt>
      <trkpt lat="47.54288" lon="6.70703">
        <ele>383.4</ele>
        <time>2014-11-09T10:40:03.000Z</time>
      </trkpt>
      <trkpt lat="47.54286" lon="6.70704">
        <ele>383.6</ele>
        <time>2014-11-09T10:40:04.000Z</time>
      </trkpt>
      <trkpt lat="47.54283" lon="6.70706">
        <ele>384.8</ele>
        <time>2014-11-09T10:40:05.000Z</time>
      </trkpt>
      <trkpt lat="47.54281" lon="6.70707">
        <ele>385.6</ele>
        <time>2014-11-09T10:40:06.000Z</time>
      </trkpt>
      <trkpt lat="47.54279" lon="6.70709">
        <ele>385.3</ele>
        <time>2014-11-09T10:40:07.000Z</time>
      </trkpt>
      <trkpt lat="47.54276" lon="6.70711">
        <ele>385.4</ele>
        <time>2014-11-09T10:40:08.000Z</time>
      </trkpt>
      <trkpt lat="47.54273" lon="6.70713">
        <ele>386.9</ele>
        <time>2014-11-09T10:40:09.000Z</time>
      </trkpt>
      <trkpt lat="47.54269" lon="6.70715">
        <ele>386.4</ele>
        <time>2014-11-09T10:40:10.000Z</time>
      </trkpt>
      <trkpt lat="47.54266" lon="6.70717">
        <ele>386.2</ele>
        <time>2014-11-09T10:40:11.000Z</time>
      </trkpt>
      <trkpt lat="47.54262" lon="6.70719">
        <ele>385.8</ele>
        <time>2014-11-09T10:40:12.000Z</time>
      </trkpt>
      <trkpt lat="47.54258" lon="6.7072">
        <ele>385.3</ele>
        <time>2014-11-09T10:40:13.000Z</time>
      </trkpt>
      <trkpt lat="47.54254" lon="6.70721">
        <ele>385.4</ele>
        <time>2014-11-09T10:40:14.000Z</time>
      </trkpt>
      <trkpt lat="47.54251" lon="6.70723">
        <ele>386.5</ele>
        <time>2014-11-09T10:40:15.000Z</time>
      </trkpt>
      <trkpt lat="47.54247" lon="6.70724">
        <ele>386.3</ele>
        <time>2014-11-09T10:40:16.000Z</time>
      </trkpt>
      <trkpt lat="47.54243" lon="6.70725">
        <ele>386.2</ele>
        <time>2014-11-09T10:40:17.000Z</time>
      </trkpt>
      <trkpt lat="47.54239" lon="6.70727">
        <ele>386.9</ele>
        <time>2014-11-09T10:40:18.000Z</time>
      </trkpt>
      <trkpt lat="47.54236" lon="6.70729">
        <ele>387.1</ele>
        <time>2014-11-09T10:40:19.000Z</time>
      </trkpt>
      <trkpt lat="47.54232" lon="6.7073">
        <ele>387.7</ele>
        <time>2014-11-09T10:40:20.000Z</time>
      </trkpt>
      <trkpt lat="47.54228" lon="6.70732">
        <ele>388.3</ele>
        <time>2014-11-09T10:40:21.000Z</time>
      </trkpt>
      <trkpt lat="47.54224" lon="6.70733">
        <ele>388.2</ele>
        <time>2014-11-09T10:40:22.000Z</time>
      </trkpt>
      <trkpt lat="47.5422" lon="6.70736">
        <ele>388.5</ele>
        <time>2014-11-09T10:40:23.000Z</time>
      </trkpt>
      <trkpt lat="47.54217" lon="6.70738">
        <ele>387.9</ele>
        <time>2014-11-09T10:40:24.000Z</time>
      </trkpt>
      <trkpt lat="47.54214" lon="6.7074">
        <ele>387.8</ele>
        <time>2014-11-09T10:40:25.000Z</time>
      </trkpt>
      <trkpt lat="47.54211" lon="6.70742">
        <ele>388.2</ele>
        <time>2014-11-09T10:40:26.000Z</time>
      </trkpt>
      <trkpt lat="47.54208" lon="6.70744">
        <ele>386</ele>
        <time>2014-11-09T10:40:27.000Z</time>
      </trkpt>
      <trkpt lat="47.54205" lon="6.70745">
        <ele>385.4</ele>
        <time>2014-11-09T10:40:28.000Z</time>
      </trkpt>
      <trkpt lat="47.54203" lon="6.70746">
        <ele>385.4</ele>
        <time>2014-11-09T10:40:29.000Z</time>
      </trkpt>
      <trkpt lat="47.542" lon="6.70747">
        <ele>387.8</ele>
        <time>2014-11-09T10:40:30.000Z</time>
      </trkpt>
      <trkpt lat="47.54197" lon="6.70748">
        <ele>389.6</ele>
        <time>2014-11-09T10:40:31.000Z</time>
      </trkpt>
      <trkpt lat="47.54194" lon="6.70752">
        <ele>390.2</ele>
        <time>2014-11-09T10:40:33.000Z</time>
      </trkpt>
      <trkpt lat="47.54193" lon="6.70753">
        <ele>390.8</ele>
        <time>2014-11-09T10:40:34.000Z</time>
      </trkpt>
      <trkpt lat="47.5419" lon="6.70756">
        <ele>391.8</ele>
        <time>2014-11-09T10:40:37.000Z</time>
      </trkpt>
      <trkpt lat="47.54188" lon="6.70756">
        <ele>391.8</ele>
        <time>2014-11-09T10:40:38.000Z</time>
      </trkpt>
      <trkpt lat="47.54184" lon="6.70757">
        <ele>390.7</ele>
        <time>2014-11-09T10:40:41.000Z</time>
      </trkpt>
      <trkpt lat="47.54182" lon="6.70757">
        <ele>390</ele>
        <time>2014-11-09T10:40:42.000Z</time>
      </trkpt>
      <trkpt lat="47.5418" lon="6.70761">
        <ele>388.5</ele>
        <time>2014-11-09T10:40:45.000Z</time>
      </trkpt>
      <trkpt lat="47.54179" lon="6.70762">
        <ele>388.8</ele>
        <time>2014-11-09T10:40:46.000Z</time>
      </trkpt>
      <trkpt lat="47.54176" lon="6.70763">
        <ele>389.4</ele>
        <time>2014-11-09T10:40:48.000Z</time>
      </trkpt>
      <trkpt lat="47.54173" lon="6.70764">
        <ele>389.6</ele>
        <time>2014-11-09T10:40:49.000Z</time>
      </trkpt>
      <trkpt lat="47.54171" lon="6.70765">
        <ele>389.8</ele>
        <time>2014-11-09T10:40:50.000Z</time>
      </trkpt>
      <trkpt lat="47.54169" lon="6.70766">
        <ele>390.5</ele>
        <time>2014-11-09T10:40:51.000Z</time>
      </trkpt>
      <trkpt lat="47.54166" lon="6.70767">
        <ele>392</ele>
        <time>2014-11-09T10:40:52.000Z</time>
      </trkpt>
      <trkpt lat="47.54164" lon="6.70768">
        <ele>392.9</ele>
        <time>2014-11-09T10:40:53.000Z</time>
      </trkpt>
      <trkpt lat="47.54161" lon="6.70769">
        <ele>393.4</ele>
        <time>2014-11-09T10:40:54.000Z</time>
      </trkpt>
      <trkpt lat="47.5416" lon="6.7077">
        <ele>390.8</ele>
        <time>2014-11-09T10:40:55.000Z</time>
      </trkpt>
      <trkpt lat="47.54159" lon="6.70771">
        <ele>390</ele>
        <time>2014-11-09T10:40:56.000Z</time>
      </trkpt>
      <trkpt lat="47.54151" lon="6.70777">
        <ele>395</ele>
        <time>2014-11-09T10:41:04.000Z</time>
      </trkpt>
      <trkpt lat="47.54148" lon="6.70779">
        <ele>394</ele>
        <time>2014-11-09T10:41:07.000Z</time>
      </trkpt>
      <trkpt lat="47.54147" lon="6.70779">
        <ele>394</ele>
        <time>2014-11-09T10:41:08.000Z</time>
      </trkpt>
      <trkpt lat="47.54143" lon="6.70781">
        <ele>394.3</ele>
        <time>2014-11-09T10:41:11.000Z</time>
      </trkpt>
      <trkpt lat="47.54141" lon="6.70781">
        <ele>393.6</ele>
        <time>2014-11-09T10:41:12.000Z</time>
      </trkpt>
      <trkpt lat="47.54137" lon="6.70781">
        <ele>392.6</ele>
        <time>2014-11-09T10:41:14.000Z</time>
      </trkpt>
      <trkpt lat="47.54135" lon="6.70781">
        <ele>392.7</ele>
        <time>2014-11-09T10:41:15.000Z</time>
      </trkpt>
      <trkpt lat="47.54132" lon="6.70782">
        <ele>394.7</ele>
        <time>2014-11-09T10:41:16.000Z</time>
      </trkpt>
      <trkpt lat="47.5413" lon="6.70783">
        <ele>391.6</ele>
        <time>2014-11-09T10:41:17.000Z</time>
      </trkpt>
      <trkpt lat="47.54127" lon="6.70784">
        <ele>389.9</ele>
        <time>2014-11-09T10:41:18.000Z</time>
      </trkpt>
      <trkpt lat="47.54125" lon="6.70785">
        <ele>390</ele>
        <time>2014-11-09T10:41:19.000Z</time>
      </trkpt>
      <trkpt lat="47.54123" lon="6.70786">
        <ele>390.2</ele>
        <time>2014-11-09T10:41:20.000Z</time>
      </trkpt>
      <trkpt lat="47.5412" lon="6.70786">
        <ele>390.2</ele>
        <time>2014-11-09T10:41:21.000Z</time>
      </trkpt>
      <trkpt lat="47.54118" lon="6.70786">
        <ele>391.4</ele>
        <time>2014-11-09T10:41:22.000Z</time>
      </trkpt>
      <trkpt lat="47.54116" lon="6.70786">
        <ele>390.4</ele>
        <time>2014-11-09T10:41:23.000Z</time>
      </trkpt>
      <trkpt lat="47.54114" lon="6.70787">
        <ele>390.9</ele>
        <time>2014-11-09T10:41:24.000Z</time>
      </trkpt>
      <trkpt lat="47.54111" lon="6.70787">
        <ele>391.7</ele>
        <time>2014-11-09T10:41:25.000Z</time>
      </trkpt>
      <trkpt lat="47.54107" lon="6.70787">
        <ele>391</ele>
        <time>2014-11-09T10:41:27.000Z</time>
      </trkpt>
      <trkpt lat="47.54105" lon="6.70788">
        <ele>391.6</ele>
        <time>2014-11-09T10:41:28.000Z</time>
      </trkpt>
      <trkpt lat="47.54102" lon="6.70788">
        <ele>391.3</ele>
        <time>2014-11-09T10:41:30.000Z</time>
      </trkpt>
      <trkpt lat="47.541" lon="6.70788">
        <ele>391.7</ele>
        <time>2014-11-09T10:41:31.000Z</time>
      </trkpt>
      <trkpt lat="47.54097" lon="6.70789">
        <ele>393.2</ele>
        <time>2014-11-09T10:41:33.000Z</time>
      </trkpt>
      <trkpt lat="47.54096" lon="6.7079">
        <ele>393.3</ele>
        <time>2014-11-09T10:41:34.000Z</time>
      </trkpt>
      <trkpt lat="47.54092" lon="6.70792">
        <ele>393.3</ele>
        <time>2014-11-09T10:41:37.000Z</time>
      </trkpt>
      <trkpt lat="47.54091" lon="6.70793">
        <ele>393.8</ele>
        <time>2014-11-09T10:41:38.000Z</time>
      </trkpt>
      <trkpt lat="47.54087" lon="6.70794">
        <ele>395.2</ele>
        <time>2014-11-09T10:41:41.000Z</time>
      </trkpt>
      <trkpt lat="47.54086" lon="6.70794">
        <ele>396.1</ele>
        <time>2014-11-09T10:41:42.000Z</time>
      </trkpt>
      <trkpt lat="47.54082" lon="6.70796">
        <ele>396</ele>
        <time>2014-11-09T10:41:44.000Z</time>
      </trkpt>
      <trkpt lat="47.5408" lon="6.70797">
        <ele>396.4</ele>
        <time>2014-11-09T10:41:45.000Z</time>
      </trkpt>
      <trkpt lat="47.54076" lon="6.70798">
        <ele>399</ele>
        <time>2014-11-09T10:41:48.000Z</time>
      </trkpt>
      <trkpt lat="47.54075" lon="6.70798">
        <ele>399.2</ele>
        <time>2014-11-09T10:41:49.000Z</time>
      </trkpt>
      <trkpt lat="47.54071" lon="6.70799">
        <ele>402.8</ele>
        <time>2014-11-09T10:41:52.000Z</time>
      </trkpt>
      <trkpt lat="47.5407" lon="6.70799">
        <ele>403.1</ele>
        <time>2014-11-09T10:41:53.000Z</time>
      </trkpt>
      <trkpt lat="47.54066" lon="6.708">
        <ele>403.5</ele>
        <time>2014-11-09T10:41:55.000Z</time>
      </trkpt>
      <trkpt lat="47.54065" lon="6.708">
        <ele>404.5</ele>
        <time>2014-11-09T10:41:56.000Z</time>
      </trkpt>
      <trkpt lat="47.54063" lon="6.70801">
        <ele>404.5</ele>
        <time>2014-11-09T10:41:57.000Z</time>
      </trkpt>
      <trkpt lat="47.54054" lon="6.70809">
        <ele>405</ele>
        <time>2014-11-09T10:42:05.000Z</time>
      </trkpt>
      <trkpt lat="47.54051" lon="6.7081">
        <ele>405</ele>
        <time>2014-11-09T10:42:08.000Z</time>
      </trkpt>
      <trkpt lat="47.5405" lon="6.70811">
        <ele>404.6</ele>
        <time>2014-11-09T10:42:09.000Z</time>
      </trkpt>
      <trkpt lat="47.54047" lon="6.70813">
        <ele>404.4</ele>
        <time>2014-11-09T10:42:11.000Z</time>
      </trkpt>
      <trkpt lat="47.54045" lon="6.70815">
        <ele>403.6</ele>
        <time>2014-11-09T10:42:12.000Z</time>
      </trkpt>
      <trkpt lat="47.54043" lon="6.70816">
        <ele>403.3</ele>
        <time>2014-11-09T10:42:13.000Z</time>
      </trkpt>
      <trkpt lat="47.54041" lon="6.70818">
        <ele>403.4</ele>
        <time>2014-11-09T10:42:14.000Z</time>
      </trkpt>
      <trkpt lat="47.54037" lon="6.70821">
        <ele>406.2</ele>
        <time>2014-11-09T10:42:16.000Z</time>
      </trkpt>
      <trkpt lat="47.54036" lon="6.70821">
        <ele>405.8</ele>
        <time>2014-11-09T10:42:17.000Z</time>
      </trkpt>
      <trkpt lat="47.54033" lon="6.70823">
        <ele>406.3</ele>
        <time>2014-11-09T10:42:19.000Z</time>
      </trkpt>
      <trkpt lat="47.54031" lon="6.70824">
        <ele>407</ele>
        <time>2014-11-09T10:42:20.000Z</time>
      </trkpt>
      <trkpt lat="47.54027" lon="6.70827">
        <ele>408</ele>
        <time>2014-11-09T10:42:22.000Z</time>
      </trkpt>
      <trkpt lat="47.54026" lon="6.70828">
        <ele>408.3</ele>
        <time>2014-11-09T10:42:23.000Z</time>
      </trkpt>
      <trkpt lat="47.54023" lon="6.70831">
        <ele>410.2</ele>
        <time>2014-11-09T10:42:26.000Z</time>
      </trkpt>
      <trkpt lat="47.54022" lon="6.70832">
        <ele>411.2</ele>
        <time>2014-11-09T10:42:27.000Z</time>
      </trkpt>
      <trkpt lat="47.54018" lon="6.70834">
        <ele>414.5</ele>
        <time>2014-11-09T10:42:31.000Z</time>
      </trkpt>
      <trkpt lat="47.54017" lon="6.70835">
        <ele>414.6</ele>
        <time>2014-11-09T10:42:32.000Z</time>
      </trkpt>
      <trkpt lat="47.54014" lon="6.70838">
        <ele>414.3</ele>
        <time>2014-11-09T10:42:35.000Z</time>
      </trkpt>
      <trkpt lat="47.54012" lon="6.70839">
        <ele>414.9</ele>
        <time>2014-11-09T10:42:36.000Z</time>
      </trkpt>
      <trkpt lat="47.5401" lon="6.70842">
        <ele>416.2</ele>
        <time>2014-11-09T10:42:38.000Z</time>
      </trkpt>
      <trkpt lat="47.54008" lon="6.70843">
        <ele>416.3</ele>
        <time>2014-11-09T10:42:39.000Z</time>
      </trkpt>
      <trkpt lat="47.54005" lon="6.70846">
        <ele>416.6</ele>
        <time>2014-11-09T10:42:42.000Z</time>
      </trkpt>
      <trkpt lat="47.54005" lon="6.70848">
        <ele>416.6</ele>
        <time>2014-11-09T10:42:43.000Z</time>
      </trkpt>
      <trkpt lat="47.54001" lon="6.70851">
        <ele>415.2</ele>
        <time>2014-11-09T10:42:45.000Z</time>
      </trkpt>
      <trkpt lat="47.53999" lon="6.70852">
        <ele>413.8</ele>
        <time>2014-11-09T10:42:46.000Z</time>
      </trkpt>
      <trkpt lat="47.53996" lon="6.70855">
        <ele>414.7</ele>
        <time>2014-11-09T10:42:48.000Z</time>
      </trkpt>
      <trkpt lat="47.53995" lon="6.70855">
        <ele>414.9</ele>
        <time>2014-11-09T10:42:49.000Z</time>
      </trkpt>
      <trkpt lat="47.53991" lon="6.70856">
        <ele>417.7</ele>
        <time>2014-11-09T10:42:52.000Z</time>
      </trkpt>
      <trkpt lat="47.53989" lon="6.70857">
        <ele>418.1</ele>
        <time>2014-11-09T10:42:53.000Z</time>
      </trkpt>
      <trkpt lat="47.53986" lon="6.70859">
        <ele>416.8</ele>
        <time>2014-11-09T10:42:56.000Z</time>
      </trkpt>
      <trkpt lat="47.53982" lon="6.70863">
        <ele>416.9</ele>
        <time>2014-11-09T10:42:59.000Z</time>
      </trkpt>
      <trkpt lat="47.53979" lon="6.70867">
        <ele>421.3</ele>
        <time>2014-11-09T10:43:04.000Z</time>
      </trkpt>
      <trkpt lat="47.53978" lon="6.70868">
        <ele>420.1</ele>
        <time>2014-11-09T10:43:05.000Z</time>
      </trkpt>
      <trkpt lat="47.53975" lon="6.70871">
        <ele>420.3</ele>
        <time>2014-11-09T10:43:08.000Z</time>
      </trkpt>
      <trkpt lat="47.53974" lon="6.70873">
        <ele>420.6</ele>
        <time>2014-11-09T10:43:09.000Z</time>
      </trkpt>
      <trkpt lat="47.5397" lon="6.70876">
        <ele>421.8</ele>
        <time>2014-11-09T10:43:12.000Z</time>
      </trkpt>
      <trkpt lat="47.53969" lon="6.70877">
        <ele>422.4</ele>
        <time>2014-11-09T10:43:13.000Z</time>
      </trkpt>
      <trkpt lat="47.53968" lon="6.70883">
        <ele>421.4</ele>
        <time>2014-11-09T10:44:43.000Z</time>
      </trkpt>
      <trkpt lat="47.53967" lon="6.70884">
        <ele>420.9</ele>
        <time>2014-11-09T10:44:44.000Z</time>
      </trkpt>
      <trkpt lat="47.53964" lon="6.70886">
        <ele>416.4</ele>
        <time>2014-11-09T10:44:47.000Z</time>
      </trkpt>
      <trkpt lat="47.53963" lon="6.70887">
        <ele>417</ele>
        <time>2014-11-09T10:44:48.000Z</time>
      </trkpt>
      <trkpt lat="47.53961" lon="6.70891">
        <ele>417.8</ele>
        <time>2014-11-09T10:44:50.000Z</time>
      </trkpt>
      <trkpt lat="47.5396" lon="6.70896">
        <ele>417.7</ele>
        <time>2014-11-09T10:44:51.000Z</time>
      </trkpt>
      <trkpt lat="47.5396" lon="6.70902">
        <ele>418.5</ele>
        <time>2014-11-09T10:44:54.000Z</time>
      </trkpt>
      <trkpt lat="47.5396" lon="6.70903">
        <ele>419.2</ele>
        <time>2014-11-09T10:44:55.000Z</time>
      </trkpt>
      <trkpt lat="47.53956" lon="6.70901">
        <ele>412.9</ele>
        <time>2014-11-09T10:45:06.000Z</time>
      </trkpt>
      <trkpt lat="47.53955" lon="6.709">
        <ele>412.9</ele>
        <time>2014-11-09T10:45:07.000Z</time>
      </trkpt>
      <trkpt lat="47.53951" lon="6.70897">
        <ele>414.7</ele>
        <time>2014-11-09T10:45:11.000Z</time>
      </trkpt>
      <trkpt lat="47.5395" lon="6.70896">
        <ele>416.2</ele>
        <time>2014-11-09T10:45:12.000Z</time>
      </trkpt>
      <trkpt lat="47.53947" lon="6.70894">
        <ele>415.3</ele>
        <time>2014-11-09T10:45:15.000Z</time>
      </trkpt>
      <trkpt lat="47.53946" lon="6.70893">
        <ele>415.2</ele>
        <time>2014-11-09T10:45:16.000Z</time>
      </trkpt>
      <trkpt lat="47.53943" lon="6.70891">
        <ele>416.2</ele>
        <time>2014-11-09T10:45:18.000Z</time>
      </trkpt>
      <trkpt lat="47.53941" lon="6.7089">
        <ele>416.4</ele>
        <time>2014-11-09T10:45:19.000Z</time>
      </trkpt>
      <trkpt lat="47.53938" lon="6.70889">
        <ele>416</ele>
        <time>2014-11-09T10:45:21.000Z</time>
      </trkpt>
      <trkpt lat="47.53936" lon="6.70889">
        <ele>416.2</ele>
        <time>2014-11-09T10:45:22.000Z</time>
      </trkpt>
      <trkpt lat="47.53933" lon="6.70888">
        <ele>417.8</ele>
        <time>2014-11-09T10:45:24.000Z</time>
      </trkpt>
      <trkpt lat="47.53931" lon="6.70887">
        <ele>418.3</ele>
        <time>2014-11-09T10:45:25.000Z</time>
      </trkpt>
      <trkpt lat="47.53927" lon="6.70886">
        <ele>418.4</ele>
        <time>2014-11-09T10:45:27.000Z</time>
      </trkpt>
      <trkpt lat="47.53924" lon="6.70885">
        <ele>419.2</ele>
        <time>2014-11-09T10:45:28.000Z</time>
      </trkpt>
      <trkpt lat="47.53922" lon="6.70885">
        <ele>419.2</ele>
        <time>2014-11-09T10:45:29.000Z</time>
      </trkpt>
      <trkpt lat="47.53919" lon="6.70884">
        <ele>419.7</ele>
        <time>2014-11-09T10:45:30.000Z</time>
      </trkpt>
      <trkpt lat="47.53916" lon="6.70882">
        <ele>419.7</ele>
        <time>2014-11-09T10:45:31.000Z</time>
      </trkpt>
      <trkpt lat="47.53914" lon="6.7088">
        <ele>421</ele>
        <time>2014-11-09T10:45:32.000Z</time>
      </trkpt>
      <trkpt lat="47.53911" lon="6.70879">
        <ele>420.7</ele>
        <time>2014-11-09T10:45:33.000Z</time>
      </trkpt>
      <trkpt lat="47.53908" lon="6.70877">
        <ele>420.7</ele>
        <time>2014-11-09T10:45:34.000Z</time>
      </trkpt>
      <trkpt lat="47.53906" lon="6.70876">
        <ele>420.7</ele>
        <time>2014-11-09T10:45:35.000Z</time>
      </trkpt>
      <trkpt lat="47.53903" lon="6.70876">
        <ele>419.8</ele>
        <time>2014-11-09T10:45:36.000Z</time>
      </trkpt>
      <trkpt lat="47.53901" lon="6.70876">
        <ele>421</ele>
        <time>2014-11-09T10:45:37.000Z</time>
      </trkpt>
      <trkpt lat="47.53899" lon="6.70875">
        <ele>421.3</ele>
        <time>2014-11-09T10:45:38.000Z</time>
      </trkpt>
      <trkpt lat="47.53896" lon="6.70875">
        <ele>422.9</ele>
        <time>2014-11-09T10:45:39.000Z</time>
      </trkpt>
      <trkpt lat="47.53894" lon="6.70875">
        <ele>422.8</ele>
        <time>2014-11-09T10:45:40.000Z</time>
      </trkpt>
      <trkpt lat="47.5389" lon="6.70875">
        <ele>421.8</ele>
        <time>2014-11-09T10:45:42.000Z</time>
      </trkpt>
      <trkpt lat="47.53887" lon="6.70876">
        <ele>421.6</ele>
        <time>2014-11-09T10:45:43.000Z</time>
      </trkpt>
      <trkpt lat="47.53885" lon="6.70876">
        <ele>421.7</ele>
        <time>2014-11-09T10:45:44.000Z</time>
      </trkpt>
      <trkpt lat="47.53883" lon="6.70877">
        <ele>420.4</ele>
        <time>2014-11-09T10:45:45.000Z</time>
      </trkpt>
      <trkpt lat="47.53878" lon="6.70878">
        <ele>421.3</ele>
        <time>2014-11-09T10:45:47.000Z</time>
      </trkpt>
      <trkpt lat="47.53876" lon="6.70877">
        <ele>422</ele>
        <time>2014-11-09T10:45:48.000Z</time>
      </trkpt>
      <trkpt lat="47.53872" lon="6.70876">
        <ele>423.1</ele>
        <time>2014-11-09T10:45:51.000Z</time>
      </trkpt>
      <trkpt lat="47.53871" lon="6.70875">
        <ele>424</ele>
        <time>2014-11-09T10:45:52.000Z</time>
      </trkpt>
      <trkpt lat="47.53867" lon="6.70874">
        <ele>422.9</ele>
        <time>2014-11-09T10:47:45.000Z</time>
      </trkpt>
      <trkpt lat="47.53867" lon="6.70875">
        <ele>421.4</ele>
        <time>2014-11-09T10:47:46.000Z</time>
      </trkpt>
      <trkpt lat="47.53863" lon="6.70878">
        <ele>415.7</ele>
        <time>2014-11-09T10:47:49.000Z</time>
      </trkpt>
      <trkpt lat="47.53862" lon="6.70878">
        <ele>415</ele>
        <time>2014-11-09T10:47:50.000Z</time>
      </trkpt>
      <trkpt lat="47.53858" lon="6.70875">
        <ele>413.2</ele>
        <time>2014-11-09T10:48:12.000Z</time>
      </trkpt>
      <trkpt lat="47.53858" lon="6.70875">
        <ele>413.3</ele>
        <time>2014-11-09T10:48:13.000Z</time>
      </trkpt>
      <trkpt lat="47.53854" lon="6.70871">
        <ele>416.5</ele>
        <time>2014-11-09T10:48:20.000Z</time>
      </trkpt>
      <trkpt lat="47.53853" lon="6.7087">
        <ele>418.2</ele>
        <time>2014-11-09T10:48:21.000Z</time>
      </trkpt>
      <trkpt lat="47.5385" lon="6.70865">
        <ele>417.8</ele>
        <time>2014-11-09T10:48:24.000Z</time>
      </trkpt>
      <trkpt lat="47.53849" lon="6.70865">
        <ele>418.5</ele>
        <time>2014-11-09T10:48:25.000Z</time>
      </trkpt>
      <trkpt lat="47.53845" lon="6.70863">
        <ele>419.6</ele>
        <time>2014-11-09T10:48:32.000Z</time>
      </trkpt>
      <trkpt lat="47.53845" lon="6.70863">
        <ele>419.8</ele>
        <time>2014-11-09T10:48:33.000Z</time>
      </trkpt>
      <trkpt lat="47.53841" lon="6.70865">
        <ele>420.7</ele>
        <time>2014-11-09T10:48:38.000Z</time>
      </trkpt>
      <trkpt lat="47.5384" lon="6.70867">
        <ele>420.2</ele>
        <time>2014-11-09T10:48:39.000Z</time>
      </trkpt>
      <trkpt lat="47.53836" lon="6.7087">
        <ele>418.1</ele>
        <time>2014-11-09T10:48:42.000Z</time>
      </trkpt>
      <trkpt lat="47.53835" lon="6.70871">
        <ele>418.3</ele>
        <time>2014-11-09T10:48:43.000Z</time>
      </trkpt>
      <trkpt lat="47.53832" lon="6.70874">
        <ele>416</ele>
        <time>2014-11-09T10:48:47.000Z</time>
      </trkpt>
      <trkpt lat="47.53831" lon="6.70875">
        <ele>415.1</ele>
        <time>2014-11-09T10:48:48.000Z</time>
      </trkpt>
      <trkpt lat="47.53828" lon="6.70878">
        <ele>414.9</ele>
        <time>2014-11-09T10:48:56.000Z</time>
      </trkpt>
      <trkpt lat="47.53826" lon="6.70879">
        <ele>415.9</ele>
        <time>2014-11-09T10:48:59.000Z</time>
      </trkpt>
      <trkpt lat="47.53825" lon="6.70874">
        <ele>413.4</ele>
        <time>2014-11-09T10:49:02.000Z</time>
      </trkpt>
      <trkpt lat="47.53824" lon="6.70871">
        <ele>413.3</ele>
        <time>2014-11-09T10:49:03.000Z</time>
      </trkpt>
      <trkpt lat="47.53823" lon="6.70868">
        <ele>413.2</ele>
        <time>2014-11-09T10:49:04.000Z</time>
      </trkpt>
      <trkpt lat="47.53822" lon="6.70865">
        <ele>414</ele>
        <time>2014-11-09T10:49:05.000Z</time>
      </trkpt>
      <trkpt lat="47.5382" lon="6.70861">
        <ele>415</ele>
        <time>2014-11-09T10:49:06.000Z</time>
      </trkpt>
      <trkpt lat="47.53818" lon="6.70858">
        <ele>416.6</ele>
        <time>2014-11-09T10:49:07.000Z</time>
      </trkpt>
      <trkpt lat="47.53816" lon="6.70854">
        <ele>414.7</ele>
        <time>2014-11-09T10:49:08.000Z</time>
      </trkpt>
      <trkpt lat="47.53814" lon="6.70851">
        <ele>415.7</ele>
        <time>2014-11-09T10:49:09.000Z</time>
      </trkpt>
      <trkpt lat="47.53812" lon="6.70848">
        <ele>416.1</ele>
        <time>2014-11-09T10:49:10.000Z</time>
      </trkpt>
      <trkpt lat="47.5381" lon="6.70845">
        <ele>416.6</ele>
        <time>2014-11-09T10:49:11.000Z</time>
      </trkpt>
      <trkpt lat="47.53808" lon="6.70843">
        <ele>416.2</ele>
        <time>2014-11-09T10:49:12.000Z</time>
      </trkpt>
      <trkpt lat="47.53806" lon="6.70841">
        <ele>415.4</ele>
        <time>2014-11-09T10:49:13.000Z</time>
      </trkpt>
      <trkpt lat="47.53803" lon="6.7084">
        <ele>415.2</ele>
        <time>2014-11-09T10:49:14.000Z</time>
      </trkpt>
      <trkpt lat="47.538" lon="6.7084">
        <ele>414</ele>
        <time>2014-11-09T10:49:15.000Z</time>
      </trkpt>
      <trkpt lat="47.53797" lon="6.70841">
        <ele>414</ele>
        <time>2014-11-09T10:49:16.000Z</time>
      </trkpt>
      <trkpt lat="47.53794" lon="6.70842">
        <ele>412.4</ele>
        <time>2014-11-09T10:49:17.000Z</time>
      </trkpt>
      <trkpt lat="47.53791" lon="6.70842">
        <ele>411.4</ele>
        <time>2014-11-09T10:49:18.000Z</time>
      </trkpt>
      <trkpt lat="47.53788" lon="6.70841">
        <ele>410.5</ele>
        <time>2014-11-09T10:49:19.000Z</time>
      </trkpt>
      <trkpt lat="47.53784" lon="6.70839">
        <ele>410.3</ele>
        <time>2014-11-09T10:49:20.000Z</time>
      </trkpt>
      <trkpt lat="47.5378" lon="6.70837">
        <ele>411.2</ele>
        <time>2014-11-09T10:49:21.000Z</time>
      </trkpt>
      <trkpt lat="47.53777" lon="6.70833">
        <ele>412.1</ele>
        <time>2014-11-09T10:49:22.000Z</time>
      </trkpt>
      <trkpt lat="47.53774" lon="6.7083">
        <ele>414.8</ele>
        <time>2014-11-09T10:49:23.000Z</time>
      </trkpt>
      <trkpt lat="47.53772" lon="6.70827">
        <ele>416.3</ele>
        <time>2014-11-09T10:49:24.000Z</time>
      </trkpt>
      <trkpt lat="47.5377" lon="6.70825">
        <ele>415.6</ele>
        <time>2014-11-09T10:49:25.000Z</time>
      </trkpt>
      <trkpt lat="47.53768" lon="6.70822">
        <ele>415.2</ele>
        <time>2014-11-09T10:49:26.000Z</time>
      </trkpt>
      <trkpt lat="47.53765" lon="6.70819">
        <ele>414.1</ele>
        <time>2014-11-09T10:49:27.000Z</time>
      </trkpt>
      <trkpt lat="47.53762" lon="6.70816">
        <ele>412.9</ele>
        <time>2014-11-09T10:49:28.000Z</time>
      </trkpt>
      <trkpt lat="47.53758" lon="6.70812">
        <ele>411.7</ele>
        <time>2014-11-09T10:49:29.000Z</time>
      </trkpt>
      <trkpt lat="47.53754" lon="6.70807">
        <ele>412.6</ele>
        <time>2014-11-09T10:49:30.000Z</time>
      </trkpt>
      <trkpt lat="47.53751" lon="6.70803">
        <ele>412.6</ele>
        <time>2014-11-09T10:49:31.000Z</time>
      </trkpt>
      <trkpt lat="47.53749" lon="6.70799">
        <ele>412.5</ele>
        <time>2014-11-09T10:49:32.000Z</time>
      </trkpt>
      <trkpt lat="47.53747" lon="6.70796">
        <ele>414.2</ele>
        <time>2014-11-09T10:49:33.000Z</time>
      </trkpt>
      <trkpt lat="47.53744" lon="6.70794">
        <ele>414.6</ele>
        <time>2014-11-09T10:49:34.000Z</time>
      </trkpt>
      <trkpt lat="47.53741" lon="6.70791">
        <ele>413.8</ele>
        <time>2014-11-09T10:49:35.000Z</time>
      </trkpt>
      <trkpt lat="47.53738" lon="6.70789">
        <ele>413.9</ele>
        <time>2014-11-09T10:49:36.000Z</time>
      </trkpt>
      <trkpt lat="47.53734" lon="6.70787">
        <ele>413.4</ele>
        <time>2014-11-09T10:49:37.000Z</time>
      </trkpt>
      <trkpt lat="47.53731" lon="6.70784">
        <ele>415.7</ele>
        <time>2014-11-09T10:49:38.000Z</time>
      </trkpt>
      <trkpt lat="47.53728" lon="6.70782">
        <ele>415.7</ele>
        <time>2014-11-09T10:49:39.000Z</time>
      </trkpt>
      <trkpt lat="47.53726" lon="6.70779">
        <ele>417.7</ele>
        <time>2014-11-09T10:49:40.000Z</time>
      </trkpt>
      <trkpt lat="47.53724" lon="6.70774">
        <ele>418.3</ele>
        <time>2014-11-09T10:49:42.000Z</time>
      </trkpt>
      <trkpt lat="47.53723" lon="6.70772">
        <ele>418</ele>
        <time>2014-11-09T10:49:43.000Z</time>
      </trkpt>
      <trkpt lat="47.53721" lon="6.7077">
        <ele>418.8</ele>
        <time>2014-11-09T10:49:46.000Z</time>
      </trkpt>
      <trkpt lat="47.5372" lon="6.70767">
        <ele>418.9</ele>
        <time>2014-11-09T10:49:47.000Z</time>
      </trkpt>
      <trkpt lat="47.53717" lon="6.70763">
        <ele>420.8</ele>
        <time>2014-11-09T10:49:48.000Z</time>
      </trkpt>
      <trkpt lat="47.53714" lon="6.70758">
        <ele>422.2</ele>
        <time>2014-11-09T10:49:49.000Z</time>
      </trkpt>
      <trkpt lat="47.5371" lon="6.70753">
        <ele>422.9</ele>
        <time>2014-11-09T10:49:50.000Z</time>
      </trkpt>
      <trkpt lat="47.53699" lon="6.70746">
        <ele>422.6</ele>
        <time>2014-11-09T10:49:51.000Z</time>
      </trkpt>
      <trkpt lat="47.53696" lon="6.70743">
        <ele>421.8</ele>
        <time>2014-11-09T10:49:52.000Z</time>
      </trkpt>
      <trkpt lat="47.53687" lon="6.70733">
        <ele>420.7</ele>
        <time>2014-11-09T10:49:53.000Z</time>
      </trkpt>
      <trkpt lat="47.53681" lon="6.70726">
        <ele>420</ele>
        <time>2014-11-09T10:49:54.000Z</time>
      </trkpt>
      <trkpt lat="47.53676" lon="6.7072">
        <ele>419.3</ele>
        <time>2014-11-09T10:49:55.000Z</time>
      </trkpt>
      <trkpt lat="47.53673" lon="6.70716">
        <ele>419.8</ele>
        <time>2014-11-09T10:49:56.000Z</time>
      </trkpt>
      <trkpt lat="47.53669" lon="6.70708">
        <ele>419.5</ele>
        <time>2014-11-09T10:49:59.000Z</time>
      </trkpt>
      <trkpt lat="47.53667" lon="6.70705">
        <ele>419.1</ele>
        <time>2014-11-09T10:50:01.000Z</time>
      </trkpt>
      <trkpt lat="47.53665" lon="6.70703">
        <ele>421.7</ele>
        <time>2014-11-09T10:50:02.000Z</time>
      </trkpt>
      <trkpt lat="47.53662" lon="6.707">
        <ele>423.4</ele>
        <time>2014-11-09T10:50:04.000Z</time>
      </trkpt>
      <trkpt lat="47.53662" lon="6.70698">
        <ele>423.9</ele>
        <time>2014-11-09T10:50:05.000Z</time>
      </trkpt>
      <trkpt lat="47.53659" lon="6.70693">
        <ele>423.4</ele>
        <time>2014-11-09T10:50:09.000Z</time>
      </trkpt>
      <trkpt lat="47.53659" lon="6.70692">
        <ele>423.6</ele>
        <time>2014-11-09T10:50:10.000Z</time>
      </trkpt>
      <trkpt lat="47.53655" lon="6.70689">
        <ele>424.7</ele>
        <time>2014-11-09T10:50:13.000Z</time>
      </trkpt>
      <trkpt lat="47.53653" lon="6.70687">
        <ele>424.4</ele>
        <time>2014-11-09T10:50:14.000Z</time>
      </trkpt>
      <trkpt lat="47.53649" lon="6.70684">
        <ele>424.2</ele>
        <time>2014-11-09T10:50:16.000Z</time>
      </trkpt>
      <trkpt lat="47.53647" lon="6.70682">
        <ele>424.8</ele>
        <time>2014-11-09T10:50:17.000Z</time>
      </trkpt>
      <trkpt lat="47.53644" lon="6.70679">
        <ele>423.3</ele>
        <time>2014-11-09T10:50:19.000Z</time>
      </trkpt>
      <trkpt lat="47.53643" lon="6.70677">
        <ele>423.3</ele>
        <time>2014-11-09T10:50:20.000Z</time>
      </trkpt>
      <trkpt lat="47.5364" lon="6.70673">
        <ele>425.9</ele>
        <time>2014-11-09T10:50:23.000Z</time>
      </trkpt>
      <trkpt lat="47.53639" lon="6.70671">
        <ele>426.2</ele>
        <time>2014-11-09T10:50:24.000Z</time>
      </trkpt>
      <trkpt lat="47.53635" lon="6.70668">
        <ele>426.7</ele>
        <time>2014-11-09T10:50:27.000Z</time>
      </trkpt>
      <trkpt lat="47.53634" lon="6.70667">
        <ele>427</ele>
        <time>2014-11-09T10:50:28.000Z</time>
      </trkpt>
      <trkpt lat="47.53631" lon="6.70665">
        <ele>427</ele>
        <time>2014-11-09T10:50:30.000Z</time>
      </trkpt>
      <trkpt lat="47.53628" lon="6.70663">
        <ele>428.3</ele>
        <time>2014-11-09T10:50:31.000Z</time>
      </trkpt>
      <trkpt lat="47.53625" lon="6.70661">
        <ele>427.9</ele>
        <time>2014-11-09T10:50:32.000Z</time>
      </trkpt>
      <trkpt lat="47.53622" lon="6.70659">
        <ele>426.2</ele>
        <time>2014-11-09T10:50:33.000Z</time>
      </trkpt>
      <trkpt lat="47.53619" lon="6.70657">
        <ele>425.8</ele>
        <time>2014-11-09T10:50:34.000Z</time>
      </trkpt>
      <trkpt lat="47.53617" lon="6.70655">
        <ele>426.2</ele>
        <time>2014-11-09T10:50:35.000Z</time>
      </trkpt>
      <trkpt lat="47.53614" lon="6.70652">
        <ele>426.4</ele>
        <time>2014-11-09T10:50:38.000Z</time>
      </trkpt>
      <trkpt lat="47.53613" lon="6.70651">
        <ele>425.8</ele>
        <time>2014-11-09T10:50:39.000Z</time>
      </trkpt>
      <trkpt lat="47.53609" lon="6.70651">
        <ele>426.5</ele>
        <time>2014-11-09T10:50:42.000Z</time>
      </trkpt>
      <trkpt lat="47.53607" lon="6.70651">
        <ele>426.4</ele>
        <time>2014-11-09T10:50:43.000Z</time>
      </trkpt>
      <trkpt lat="47.53604" lon="6.70649">
        <ele>426.6</ele>
        <time>2014-11-09T10:50:45.000Z</time>
      </trkpt>
      <trkpt lat="47.53603" lon="6.70648">
        <ele>425.8</ele>
        <time>2014-11-09T10:50:46.000Z</time>
      </trkpt>
      <trkpt lat="47.53601" lon="6.70647">
        <ele>425.9</ele>
        <time>2014-11-09T10:50:47.000Z</time>
      </trkpt>
      <trkpt lat="47.53598" lon="6.70645">
        <ele>426.1</ele>
        <time>2014-11-09T10:50:48.000Z</time>
      </trkpt>
      <trkpt lat="47.53595" lon="6.70644">
        <ele>427</ele>
        <time>2014-11-09T10:50:49.000Z</time>
      </trkpt>
      <trkpt lat="47.53593" lon="6.70642">
        <ele>426.8</ele>
        <time>2014-11-09T10:50:50.000Z</time>
      </trkpt>
      <trkpt lat="47.53589" lon="6.70639">
        <ele>427.8</ele>
        <time>2014-11-09T10:50:52.000Z</time>
      </trkpt>
      <trkpt lat="47.53588" lon="6.70637">
        <ele>427.5</ele>
        <time>2014-11-09T10:50:53.000Z</time>
      </trkpt>
      <trkpt lat="47.53586" lon="6.70635">
        <ele>427.1</ele>
        <time>2014-11-09T10:50:54.000Z</time>
      </trkpt>
      <trkpt lat="47.53584" lon="6.70633">
        <ele>425.1</ele>
        <time>2014-11-09T10:50:55.000Z</time>
      </trkpt>
      <trkpt lat="47.53582" lon="6.70631">
        <ele>425.1</ele>
        <time>2014-11-09T10:50:56.000Z</time>
      </trkpt>
      <trkpt lat="47.53578" lon="6.70628">
        <ele>424.5</ele>
        <time>2014-11-09T10:50:59.000Z</time>
      </trkpt>
      <trkpt lat="47.53575" lon="6.70626">
        <ele>422.7</ele>
        <time>2014-11-09T10:51:00.000Z</time>
      </trkpt>
      <trkpt lat="47.53573" lon="6.70625">
        <ele>422.2</ele>
        <time>2014-11-09T10:51:01.000Z</time>
      </trkpt>
      <trkpt lat="47.5357" lon="6.70624">
        <ele>422.3</ele>
        <time>2014-11-09T10:51:02.000Z</time>
      </trkpt>
      <trkpt lat="47.53567" lon="6.70623">
        <ele>421.8</ele>
        <time>2014-11-09T10:51:03.000Z</time>
      </trkpt>
      <trkpt lat="47.53564" lon="6.70621">
        <ele>420.4</ele>
        <time>2014-11-09T10:51:04.000Z</time>
      </trkpt>
      <trkpt lat="47.53562" lon="6.7062">
        <ele>420.3</ele>
        <time>2014-11-09T10:51:05.000Z</time>
      </trkpt>
      <trkpt lat="47.53558" lon="6.70617">
        <ele>421.9</ele>
        <time>2014-11-09T10:51:07.000Z</time>
      </trkpt>
      <trkpt lat="47.53556" lon="6.70616">
        <ele>421.9</ele>
        <time>2014-11-09T10:51:08.000Z</time>
      </trkpt>
      <trkpt lat="47.53553" lon="6.70612">
        <ele>421.1</ele>
        <time>2014-11-09T10:51:10.000Z</time>
      </trkpt>
      <trkpt lat="47.53551" lon="6.70611">
        <ele>421</ele>
        <time>2014-11-09T10:51:11.000Z</time>
      </trkpt>
      <trkpt lat="47.53549" lon="6.70608">
        <ele>420.8</ele>
        <time>2014-11-09T10:51:13.000Z</time>
      </trkpt>
      <trkpt lat="47.53547" lon="6.70607">
        <ele>421.1</ele>
        <time>2014-11-09T10:51:14.000Z</time>
      </trkpt>
      <trkpt lat="47.53544" lon="6.70604">
        <ele>422</ele>
        <time>2014-11-09T10:51:17.000Z</time>
      </trkpt>
      <trkpt lat="47.53542" lon="6.70603">
        <ele>421.7</ele>
        <time>2014-11-09T10:51:18.000Z</time>
      </trkpt>
      <trkpt lat="47.5354" lon="6.70602">
        <ele>422.6</ele>
        <time>2014-11-09T10:51:20.000Z</time>
      </trkpt>
      <trkpt lat="47.53538" lon="6.70601">
        <ele>422.9</ele>
        <time>2014-11-09T10:51:21.000Z</time>
      </trkpt>
      <trkpt lat="47.53535" lon="6.70598">
        <ele>419.7</ele>
        <time>2014-11-09T10:51:23.000Z</time>
      </trkpt>
      <trkpt lat="47.53533" lon="6.70596">
        <ele>420</ele>
        <time>2014-11-09T10:51:24.000Z</time>
      </trkpt>
      <trkpt lat="47.53531" lon="6.70595">
        <ele>421.6</ele>
        <time>2014-11-09T10:51:25.000Z</time>
      </trkpt>
      <trkpt lat="47.53528" lon="6.70593">
        <ele>422.7</ele>
        <time>2014-11-09T10:51:26.000Z</time>
      </trkpt>
      <trkpt lat="47.53525" lon="6.70591">
        <ele>422.9</ele>
        <time>2014-11-09T10:51:27.000Z</time>
      </trkpt>
      <trkpt lat="47.53523" lon="6.70589">
        <ele>422.8</ele>
        <time>2014-11-09T10:51:28.000Z</time>
      </trkpt>
      <trkpt lat="47.5352" lon="6.70587">
        <ele>422.8</ele>
        <time>2014-11-09T10:51:29.000Z</time>
      </trkpt>
      <trkpt lat="47.53517" lon="6.70585">
        <ele>422.3</ele>
        <time>2014-11-09T10:51:30.000Z</time>
      </trkpt>
      <trkpt lat="47.53514" lon="6.70584">
        <ele>422.6</ele>
        <time>2014-11-09T10:51:31.000Z</time>
      </trkpt>
      <trkpt lat="47.53511" lon="6.70583">
        <ele>422.8</ele>
        <time>2014-11-09T10:51:32.000Z</time>
      </trkpt>
      <trkpt lat="47.53509" lon="6.70582">
        <ele>423.1</ele>
        <time>2014-11-09T10:51:33.000Z</time>
      </trkpt>
      <trkpt lat="47.53506" lon="6.70581">
        <ele>424.7</ele>
        <time>2014-11-09T10:51:34.000Z</time>
      </trkpt>
      <trkpt lat="47.53504" lon="6.70579">
        <ele>424.5</ele>
        <time>2014-11-09T10:51:35.000Z</time>
      </trkpt>
      <trkpt lat="47.53502" lon="6.70576">
        <ele>424</ele>
        <time>2014-11-09T10:51:36.000Z</time>
      </trkpt>
      <trkpt lat="47.53499" lon="6.70573">
        <ele>423.2</ele>
        <time>2014-11-09T10:51:38.000Z</time>
      </trkpt>
      <trkpt lat="47.53497" lon="6.70571">
        <ele>423.6</ele>
        <time>2014-11-09T10:51:39.000Z</time>
      </trkpt>
      <trkpt lat="47.53496" lon="6.70569">
        <ele>423.2</ele>
        <time>2014-11-09T10:51:40.000Z</time>
      </trkpt>
      <trkpt lat="47.53493" lon="6.70568">
        <ele>422.8</ele>
        <time>2014-11-09T10:51:41.000Z</time>
      </trkpt>
      <trkpt lat="47.5349" lon="6.70566">
        <ele>421</ele>
        <time>2014-11-09T10:51:42.000Z</time>
      </trkpt>
      <trkpt lat="47.53486" lon="6.70565">
        <ele>420.9</ele>
        <time>2014-11-09T10:51:43.000Z</time>
      </trkpt>
      <trkpt lat="47.53482" lon="6.70564">
        <ele>420.9</ele>
        <time>2014-11-09T10:51:44.000Z</time>
      </trkpt>
      <trkpt lat="47.53479" lon="6.70562">
        <ele>422.3</ele>
        <time>2014-11-09T10:51:45.000Z</time>
      </trkpt>
      <trkpt lat="47.53476" lon="6.7056">
        <ele>422.7</ele>
        <time>2014-11-09T10:51:46.000Z</time>
      </trkpt>
      <trkpt lat="47.53474" lon="6.70557">
        <ele>423.1</ele>
        <time>2014-11-09T10:51:47.000Z</time>
      </trkpt>
      <trkpt lat="47.53471" lon="6.70555">
        <ele>424.9</ele>
        <time>2014-11-09T10:51:48.000Z</time>
      </trkpt>
      <trkpt lat="47.53469" lon="6.70553">
        <ele>425.6</ele>
        <time>2014-11-09T10:51:49.000Z</time>
      </trkpt>
      <trkpt lat="47.53467" lon="6.70551">
        <ele>426.5</ele>
        <time>2014-11-09T10:51:50.000Z</time>
      </trkpt>
      <trkpt lat="47.53465" lon="6.70549">
        <ele>426.9</ele>
        <time>2014-11-09T10:51:51.000Z</time>
      </trkpt>
      <trkpt lat="47.53463" lon="6.70547">
        <ele>428.7</ele>
        <time>2014-11-09T10:51:52.000Z</time>
      </trkpt>
      <trkpt lat="47.53461" lon="6.70546">
        <ele>429.6</ele>
        <time>2014-11-09T10:51:53.000Z</time>
      </trkpt>
      <trkpt lat="47.53458" lon="6.70544">
        <ele>430.2</ele>
        <time>2014-11-09T10:51:54.000Z</time>
      </trkpt>
      <trkpt lat="47.53456" lon="6.70543">
        <ele>430.4</ele>
        <time>2014-11-09T10:51:55.000Z</time>
      </trkpt>
      <trkpt lat="47.53453" lon="6.70541">
        <ele>431.9</ele>
        <time>2014-11-09T10:51:56.000Z</time>
      </trkpt>
      <trkpt lat="47.5345" lon="6.70539">
        <ele>433.1</ele>
        <time>2014-11-09T10:51:57.000Z</time>
      </trkpt>
      <trkpt lat="47.53433" lon="6.70527">
        <ele>426.4</ele>
        <time>2014-11-09T10:52:05.000Z</time>
      </trkpt>
      <trkpt lat="47.53429" lon="6.70524">
        <ele>423.5</ele>
        <time>2014-11-09T10:52:08.000Z</time>
      </trkpt>
      <trkpt lat="47.53427" lon="6.70522">
        <ele>422.1</ele>
        <time>2014-11-09T10:52:09.000Z</time>
      </trkpt>
      <trkpt lat="47.53425" lon="6.70519">
        <ele>421.6</ele>
        <time>2014-11-09T10:52:10.000Z</time>
      </trkpt>
      <trkpt lat="47.53422" lon="6.70517">
        <ele>422.6</ele>
        <time>2014-11-09T10:52:11.000Z</time>
      </trkpt>
      <trkpt lat="47.5342" lon="6.70515">
        <ele>422.7</ele>
        <time>2014-11-09T10:52:12.000Z</time>
      </trkpt>
      <trkpt lat="47.53418" lon="6.70513">
        <ele>421.7</ele>
        <time>2014-11-09T10:52:13.000Z</time>
      </trkpt>
      <trkpt lat="47.53416" lon="6.70511">
        <ele>419.7</ele>
        <time>2014-11-09T10:52:14.000Z</time>
      </trkpt>
      <trkpt lat="47.53414" lon="6.70509">
        <ele>417.8</ele>
        <time>2014-11-09T10:52:15.000Z</time>
      </trkpt>
      <trkpt lat="47.53412" lon="6.70508">
        <ele>416.5</ele>
        <time>2014-11-09T10:52:16.000Z</time>
      </trkpt>
      <trkpt lat="47.53409" lon="6.70506">
        <ele>417</ele>
        <time>2014-11-09T10:52:17.000Z</time>
      </trkpt>
      <trkpt lat="47.53407" lon="6.70505">
        <ele>418</ele>
        <time>2014-11-09T10:52:18.000Z</time>
      </trkpt>
      <trkpt lat="47.53405" lon="6.70502">
        <ele>419.1</ele>
        <time>2014-11-09T10:52:19.000Z</time>
      </trkpt>
      <trkpt lat="47.53403" lon="6.705">
        <ele>419.2</ele>
        <time>2014-11-09T10:52:20.000Z</time>
      </trkpt>
      <trkpt lat="47.53401" lon="6.70497">
        <ele>420.1</ele>
        <time>2014-11-09T10:52:21.000Z</time>
      </trkpt>
      <trkpt lat="47.53399" lon="6.70493">
        <ele>421.4</ele>
        <time>2014-11-09T10:52:23.000Z</time>
      </trkpt>
      <trkpt lat="47.53397" lon="6.70492">
        <ele>421.7</ele>
        <time>2014-11-09T10:52:24.000Z</time>
      </trkpt>
      <trkpt lat="47.53394" lon="6.7049">
        <ele>425.9</ele>
        <time>2014-11-09T10:52:26.000Z</time>
      </trkpt>
      <trkpt lat="47.53392" lon="6.70489">
        <ele>425.4</ele>
        <time>2014-11-09T10:52:27.000Z</time>
      </trkpt>
      <trkpt lat="47.5339" lon="6.70488">
        <ele>425.3</ele>
        <time>2014-11-09T10:52:28.000Z</time>
      </trkpt>
      <trkpt lat="47.53388" lon="6.70486">
        <ele>424.8</ele>
        <time>2014-11-09T10:52:29.000Z</time>
      </trkpt>
      <trkpt lat="47.53386" lon="6.70484">
        <ele>424.6</ele>
        <time>2014-11-09T10:52:30.000Z</time>
      </trkpt>
      <trkpt lat="47.53384" lon="6.70483">
        <ele>424.5</ele>
        <time>2014-11-09T10:52:31.000Z</time>
      </trkpt>
      <trkpt lat="47.5338" lon="6.70479">
        <ele>422.6</ele>
        <time>2014-11-09T10:52:33.000Z</time>
      </trkpt>
      <trkpt lat="47.53378" lon="6.70477">
        <ele>423.2</ele>
        <time>2014-11-09T10:52:34.000Z</time>
      </trkpt>
      <trkpt lat="47.53377" lon="6.70474">
        <ele>422.8</ele>
        <time>2014-11-09T10:52:35.000Z</time>
      </trkpt>
      <trkpt lat="47.53374" lon="6.70472">
        <ele>424.1</ele>
        <time>2014-11-09T10:52:36.000Z</time>
      </trkpt>
      <trkpt lat="47.53372" lon="6.70469">
        <ele>424.9</ele>
        <time>2014-11-09T10:52:37.000Z</time>
      </trkpt>
      <trkpt lat="47.5337" lon="6.70467">
        <ele>425.4</ele>
        <time>2014-11-09T10:52:38.000Z</time>
      </trkpt>
      <trkpt lat="47.53368" lon="6.70465">
        <ele>425.7</ele>
        <time>2014-11-09T10:52:39.000Z</time>
      </trkpt>
      <trkpt lat="47.53367" lon="6.70463">
        <ele>426.6</ele>
        <time>2014-11-09T10:52:40.000Z</time>
      </trkpt>
      <trkpt lat="47.53363" lon="6.70461">
        <ele>426</ele>
        <time>2014-11-09T10:52:42.000Z</time>
      </trkpt>
      <trkpt lat="47.53362" lon="6.70459">
        <ele>427.7</ele>
        <time>2014-11-09T10:52:43.000Z</time>
      </trkpt>
      <trkpt lat="47.5336" lon="6.70454">
        <ele>427.7</ele>
        <time>2014-11-09T10:52:45.000Z</time>
      </trkpt>
      <trkpt lat="47.53358" lon="6.70452">
        <ele>428.3</ele>
        <time>2014-11-09T10:52:46.000Z</time>
      </trkpt>
      <trkpt lat="47.53356" lon="6.7045">
        <ele>428.2</ele>
        <time>2014-11-09T10:52:47.000Z</time>
      </trkpt>
      <trkpt lat="47.53354" lon="6.70447">
        <ele>428.9</ele>
        <time>2014-11-09T10:52:48.000Z</time>
      </trkpt>
      <trkpt lat="47.53352" lon="6.70444">
        <ele>427.5</ele>
        <time>2014-11-09T10:52:49.000Z</time>
      </trkpt>
      <trkpt lat="47.5335" lon="6.70441">
        <ele>427.4</ele>
        <time>2014-11-09T10:52:50.000Z</time>
      </trkpt>
      <trkpt lat="47.53348" lon="6.70437">
        <ele>427.3</ele>
        <time>2014-11-09T10:52:51.000Z</time>
      </trkpt>
      <trkpt lat="47.53346" lon="6.70433">
        <ele>425.8</ele>
        <time>2014-11-09T10:52:52.000Z</time>
      </trkpt>
      <trkpt lat="47.53344" lon="6.70429">
        <ele>427.7</ele>
        <time>2014-11-09T10:52:53.000Z</time>
      </trkpt>
      <trkpt lat="47.53341" lon="6.70424">
        <ele>427.9</ele>
        <time>2014-11-09T10:52:54.000Z</time>
      </trkpt>
      <trkpt lat="47.53338" lon="6.70419">
        <ele>428.1</ele>
        <time>2014-11-09T10:52:55.000Z</time>
      </trkpt>
      <trkpt lat="47.53336" lon="6.70413">
        <ele>428.6</ele>
        <time>2014-11-09T10:52:56.000Z</time>
      </trkpt>
      <trkpt lat="47.53328" lon="6.7039">
        <ele>427.6</ele>
        <time>2014-11-09T10:53:00.000Z</time>
      </trkpt>
      <trkpt lat="47.53325" lon="6.70384">
        <ele>426.5</ele>
        <time>2014-11-09T10:53:01.000Z</time>
      </trkpt>
      <trkpt lat="47.53322" lon="6.70378">
        <ele>425.8</ele>
        <time>2014-11-09T10:53:02.000Z</time>
      </trkpt>
      <trkpt lat="47.53319" lon="6.70371">
        <ele>425.1</ele>
        <time>2014-11-09T10:53:03.000Z</time>
      </trkpt>
      <trkpt lat="47.53315" lon="6.70366">
        <ele>423.5</ele>
        <time>2014-11-09T10:53:04.000Z</time>
      </trkpt>
      <trkpt lat="47.53311" lon="6.70363">
        <ele>421.5</ele>
        <time>2014-11-09T10:53:05.000Z</time>
      </trkpt>
      <trkpt lat="47.53307" lon="6.70362">
        <ele>421.5</ele>
        <time>2014-11-09T10:53:06.000Z</time>
      </trkpt>
      <trkpt lat="47.53302" lon="6.70363">
        <ele>418.6</ele>
        <time>2014-11-09T10:53:07.000Z</time>
      </trkpt>
      <trkpt lat="47.53297" lon="6.70365">
        <ele>415.8</ele>
        <time>2014-11-09T10:53:08.000Z</time>
      </trkpt>
      <trkpt lat="47.53291" lon="6.70367">
        <ele>414</ele>
        <time>2014-11-09T10:53:09.000Z</time>
      </trkpt>
      <trkpt lat="47.53284" lon="6.7037">
        <ele>413.4</ele>
        <time>2014-11-09T10:53:10.000Z</time>
      </trkpt>
      <trkpt lat="47.53278" lon="6.70373">
        <ele>412.3</ele>
        <time>2014-11-09T10:53:11.000Z</time>
      </trkpt>
      <trkpt lat="47.5327" lon="6.70376">
        <ele>410.5</ele>
        <time>2014-11-09T10:53:12.000Z</time>
      </trkpt>
      <trkpt lat="47.53248" lon="6.70382">
        <ele>410.3</ele>
        <time>2014-11-09T10:53:13.000Z</time>
      </trkpt>
      <trkpt lat="47.5324" lon="6.70386">
        <ele>412.2</ele>
        <time>2014-11-09T10:53:14.000Z</time>
      </trkpt>
      <trkpt lat="47.53232" lon="6.7039">
        <ele>409.6</ele>
        <time>2014-11-09T10:53:15.000Z</time>
      </trkpt>
      <trkpt lat="47.53225" lon="6.70394">
        <ele>408</ele>
        <time>2014-11-09T10:53:16.000Z</time>
      </trkpt>
      <trkpt lat="47.53215" lon="6.70398">
        <ele>405.8</ele>
        <time>2014-11-09T10:53:17.000Z</time>
      </trkpt>
      <trkpt lat="47.53206" lon="6.70405">
        <ele>404.9</ele>
        <time>2014-11-09T10:53:18.000Z</time>
      </trkpt>
      <trkpt lat="47.53199" lon="6.70412">
        <ele>402.6</ele>
        <time>2014-11-09T10:53:19.000Z</time>
      </trkpt>
      <trkpt lat="47.53192" lon="6.70418">
        <ele>401.8</ele>
        <time>2014-11-09T10:53:20.000Z</time>
      </trkpt>
      <trkpt lat="47.53186" lon="6.70423">
        <ele>401.6</ele>
        <time>2014-11-09T10:53:21.000Z</time>
      </trkpt>
      <trkpt lat="47.53171" lon="6.7043">
        <ele>401.2</ele>
        <time>2014-11-09T10:53:22.000Z</time>
      </trkpt>
      <trkpt lat="47.53161" lon="6.70433">
        <ele>400.4</ele>
        <time>2014-11-09T10:53:23.000Z</time>
      </trkpt>
      <trkpt lat="47.53154" lon="6.70439">
        <ele>399.4</ele>
        <time>2014-11-09T10:53:24.000Z</time>
      </trkpt>
      <trkpt lat="47.53147" lon="6.70445">
        <ele>398</ele>
        <time>2014-11-09T10:53:25.000Z</time>
      </trkpt>
      <trkpt lat="47.53137" lon="6.70452">
        <ele>397.1</ele>
        <time>2014-11-09T10:53:26.000Z</time>
      </trkpt>
      <trkpt lat="47.53125" lon="6.70458">
        <ele>395</ele>
        <time>2014-11-09T10:53:27.000Z</time>
      </trkpt>
      <trkpt lat="47.53114" lon="6.70462">
        <ele>393.4</ele>
        <time>2014-11-09T10:53:28.000Z</time>
      </trkpt>
      <trkpt lat="47.53109" lon="6.70466">
        <ele>393.2</ele>
        <time>2014-11-09T10:53:29.000Z</time>
      </trkpt>
      <trkpt lat="47.53106" lon="6.70469">
        <ele>392.7</ele>
        <time>2014-11-09T10:53:30.000Z</time>
      </trkpt>
      <trkpt lat="47.53103" lon="6.70469">
        <ele>392.4</ele>
        <time>2014-11-09T10:53:31.000Z</time>
      </trkpt>
      <trkpt lat="47.531" lon="6.70467">
        <ele>392</ele>
        <time>2014-11-09T10:53:32.000Z</time>
      </trkpt>
      <trkpt lat="47.53097" lon="6.70466">
        <ele>391.8</ele>
        <time>2014-11-09T10:53:33.000Z</time>
      </trkpt>
      <trkpt lat="47.53095" lon="6.70464">
        <ele>390.7</ele>
        <time>2014-11-09T10:53:34.000Z</time>
      </trkpt>
      <trkpt lat="47.53091" lon="6.70465">
        <ele>391.1</ele>
        <time>2014-11-09T10:53:35.000Z</time>
      </trkpt>
      <trkpt lat="47.53085" lon="6.70464">
        <ele>391.6</ele>
        <time>2014-11-09T10:53:36.000Z</time>
      </trkpt>
      <trkpt lat="47.53078" lon="6.7046">
        <ele>389.9</ele>
        <time>2014-11-09T10:53:37.000Z</time>
      </trkpt>
      <trkpt lat="47.53074" lon="6.70459">
        <ele>390.6</ele>
        <time>2014-11-09T10:53:38.000Z</time>
      </trkpt>
      <trkpt lat="47.5307" lon="6.70457">
        <ele>391</ele>
        <time>2014-11-09T10:53:39.000Z</time>
      </trkpt>
      <trkpt lat="47.53066" lon="6.70456">
        <ele>390.5</ele>
        <time>2014-11-09T10:53:40.000Z</time>
      </trkpt>
      <trkpt lat="47.53062" lon="6.70454">
        <ele>390.1</ele>
        <time>2014-11-09T10:53:41.000Z</time>
      </trkpt>
      <trkpt lat="47.53059" lon="6.70452">
        <ele>389.6</ele>
        <time>2014-11-09T10:53:42.000Z</time>
      </trkpt>
      <trkpt lat="47.53054" lon="6.7045">
        <ele>389.1</ele>
        <time>2014-11-09T10:53:43.000Z</time>
      </trkpt>
      <trkpt lat="47.5305" lon="6.70447">
        <ele>388.1</ele>
        <time>2014-11-09T10:53:44.000Z</time>
      </trkpt>
      <trkpt lat="47.53045" lon="6.70444">
        <ele>388.3</ele>
        <time>2014-11-09T10:53:45.000Z</time>
      </trkpt>
      <trkpt lat="47.5304" lon="6.70441">
        <ele>387.2</ele>
        <time>2014-11-09T10:53:46.000Z</time>
      </trkpt>
      <trkpt lat="47.53034" lon="6.70437">
        <ele>386.8</ele>
        <time>2014-11-09T10:53:47.000Z</time>
      </trkpt>
      <trkpt lat="47.53029" lon="6.70434">
        <ele>385.8</ele>
        <time>2014-11-09T10:53:48.000Z</time>
      </trkpt>
      <trkpt lat="47.53023" lon="6.7043">
        <ele>385.3</ele>
        <time>2014-11-09T10:53:49.000Z</time>
      </trkpt>
      <trkpt lat="47.53017" lon="6.70428">
        <ele>384.7</ele>
        <time>2014-11-09T10:53:50.000Z</time>
      </trkpt>
      <trkpt lat="47.53012" lon="6.70426">
        <ele>384.1</ele>
        <time>2014-11-09T10:53:51.000Z</time>
      </trkpt>
      <trkpt lat="47.53006" lon="6.70424">
        <ele>384.4</ele>
        <time>2014-11-09T10:53:52.000Z</time>
      </trkpt>
      <trkpt lat="47.53001" lon="6.70423">
        <ele>384</ele>
        <time>2014-11-09T10:53:53.000Z</time>
      </trkpt>
      <trkpt lat="47.52996" lon="6.70422">
        <ele>383.8</ele>
        <time>2014-11-09T10:53:54.000Z</time>
      </trkpt>
      <trkpt lat="47.52991" lon="6.70422">
        <ele>383</ele>
        <time>2014-11-09T10:53:55.000Z</time>
      </trkpt>
      <trkpt lat="47.52986" lon="6.70422">
        <ele>382.2</ele>
        <time>2014-11-09T10:53:56.000Z</time>
      </trkpt>
      <trkpt lat="47.52982" lon="6.70423">
        <ele>373.7</ele>
        <time>2014-11-09T10:53:57.000Z</time>
      </trkpt>
      <trkpt lat="47.52975" lon="6.70427">
        <ele>371</ele>
        <time>2014-11-09T10:54:00.000Z</time>
      </trkpt>
      <trkpt lat="47.52973" lon="6.70429">
        <ele>370.2</ele>
        <time>2014-11-09T10:54:01.000Z</time>
      </trkpt>
      <trkpt lat="47.52971" lon="6.7043">
        <ele>370.3</ele>
        <time>2014-11-09T10:54:02.000Z</time>
      </trkpt>
      <trkpt lat="47.52969" lon="6.7043">
        <ele>369.6</ele>
        <time>2014-11-09T10:54:03.000Z</time>
      </trkpt>
      <trkpt lat="47.52966" lon="6.7043">
        <ele>372.1</ele>
        <time>2014-11-09T10:54:04.000Z</time>
      </trkpt>
      <trkpt lat="47.52963" lon="6.7043">
        <ele>373</ele>
        <time>2014-11-09T10:54:05.000Z</time>
      </trkpt>
      <trkpt lat="47.5296" lon="6.70429">
        <ele>372.8</ele>
        <time>2014-11-09T10:54:06.000Z</time>
      </trkpt>
      <trkpt lat="47.52957" lon="6.70429">
        <ele>372.3</ele>
        <time>2014-11-09T10:54:07.000Z</time>
      </trkpt>
      <trkpt lat="47.52954" lon="6.70428">
        <ele>371.1</ele>
        <time>2014-11-09T10:54:08.000Z</time>
      </trkpt>
      <trkpt lat="47.52951" lon="6.70428">
        <ele>369.4</ele>
        <time>2014-11-09T10:54:10.000Z</time>
      </trkpt>
      <trkpt lat="47.52949" lon="6.70428">
        <ele>368.2</ele>
        <time>2014-11-09T10:54:11.000Z</time>
      </trkpt>
      <trkpt lat="47.52947" lon="6.70428">
        <ele>368.4</ele>
        <time>2014-11-09T10:54:12.000Z</time>
      </trkpt>
      <trkpt lat="47.52941" lon="6.70427">
        <ele>367.6</ele>
        <time>2014-11-09T10:54:13.000Z</time>
      </trkpt>
      <trkpt lat="47.52938" lon="6.70427">
        <ele>367.7</ele>
        <time>2014-11-09T10:54:14.000Z</time>
      </trkpt>
      <trkpt lat="47.52935" lon="6.70426">
        <ele>367</ele>
        <time>2014-11-09T10:54:15.000Z</time>
      </trkpt>
      <trkpt lat="47.52932" lon="6.70425">
        <ele>366.1</ele>
        <time>2014-11-09T10:54:16.000Z</time>
      </trkpt>
      <trkpt lat="47.52929" lon="6.70425">
        <ele>366.6</ele>
        <time>2014-11-09T10:54:17.000Z</time>
      </trkpt>
      <trkpt lat="47.52925" lon="6.70424">
        <ele>366.8</ele>
        <time>2014-11-09T10:54:18.000Z</time>
      </trkpt>
      <trkpt lat="47.52922" lon="6.70423">
        <ele>366.8</ele>
        <time>2014-11-09T10:54:19.000Z</time>
      </trkpt>
      <trkpt lat="47.52918" lon="6.70422">
        <ele>366.6</ele>
        <time>2014-11-09T10:54:20.000Z</time>
      </trkpt>
      <trkpt lat="47.52915" lon="6.70421">
        <ele>366.2</ele>
        <time>2014-11-09T10:54:21.000Z</time>
      </trkpt>
      <trkpt lat="47.52912" lon="6.7042">
        <ele>365.5</ele>
        <time>2014-11-09T10:54:22.000Z</time>
      </trkpt>
      <trkpt lat="47.52909" lon="6.70419">
        <ele>365</ele>
        <time>2014-11-09T10:54:23.000Z</time>
      </trkpt>
      <trkpt lat="47.52906" lon="6.70418">
        <ele>364.7</ele>
        <time>2014-11-09T10:54:24.000Z</time>
      </trkpt>
      <trkpt lat="47.52904" lon="6.70418">
        <ele>364.8</ele>
        <time>2014-11-09T10:54:25.000Z</time>
      </trkpt>
      <trkpt lat="47.52901" lon="6.70416">
        <ele>364.6</ele>
        <time>2014-11-09T10:54:26.000Z</time>
      </trkpt>
      <trkpt lat="47.52897" lon="6.70416">
        <ele>364.7</ele>
        <time>2014-11-09T10:54:27.000Z</time>
      </trkpt>
      <trkpt lat="47.52893" lon="6.70415">
        <ele>362.4</ele>
        <time>2014-11-09T10:54:28.000Z</time>
      </trkpt>
      <trkpt lat="47.52889" lon="6.70416">
        <ele>359</ele>
        <time>2014-11-09T10:54:29.000Z</time>
      </trkpt>
      <trkpt lat="47.52869" lon="6.70422">
        <ele>356.5</ele>
        <time>2014-11-09T10:54:30.000Z</time>
      </trkpt>
      <trkpt lat="47.52867" lon="6.70423">
        <ele>354.7</ele>
        <time>2014-11-09T10:54:31.000Z</time>
      </trkpt>
      <trkpt lat="47.52864" lon="6.70424">
        <ele>355.2</ele>
        <time>2014-11-09T10:54:32.000Z</time>
      </trkpt>
      <trkpt lat="47.52861" lon="6.70428">
        <ele>351.3</ele>
        <time>2014-11-09T10:54:34.000Z</time>
      </trkpt>
      <trkpt lat="47.52859" lon="6.7043">
        <ele>349.6</ele>
        <time>2014-11-09T10:54:35.000Z</time>
      </trkpt>
      <trkpt lat="47.52856" lon="6.70434">
        <ele>346.5</ele>
        <time>2014-11-09T10:54:38.000Z</time>
      </trkpt>
      <trkpt lat="47.52855" lon="6.70435">
        <ele>346.4</ele>
        <time>2014-11-09T10:54:39.000Z</time>
      </trkpt>
      <trkpt lat="47.52851" lon="6.70437">
        <ele>347.1</ele>
        <time>2014-11-09T10:54:42.000Z</time>
      </trkpt>
      <trkpt lat="47.52849" lon="6.70437">
        <ele>346.5</ele>
        <time>2014-11-09T10:54:43.000Z</time>
      </trkpt>
      <trkpt lat="47.52845" lon="6.70438">
        <ele>345.6</ele>
        <time>2014-11-09T10:54:51.000Z</time>
      </trkpt>
      <trkpt lat="47.52844" lon="6.70438">
        <ele>346</ele>
        <time>2014-11-09T10:54:52.000Z</time>
      </trkpt>
      <trkpt lat="47.52841" lon="6.7044">
        <ele>348.5</ele>
        <time>2014-11-09T10:55:18.000Z</time>
      </trkpt>
      <trkpt lat="47.5284" lon="6.70441">
        <ele>348.5</ele>
        <time>2014-11-09T10:55:19.000Z</time>
      </trkpt>
      <trkpt lat="47.52838" lon="6.70446">
        <ele>355.7</ele>
        <time>2014-11-09T10:55:21.000Z</time>
      </trkpt>
      <trkpt lat="47.52837" lon="6.70449">
        <ele>357.2</ele>
        <time>2014-11-09T10:55:22.000Z</time>
      </trkpt>
      <trkpt lat="47.52836" lon="6.70453">
        <ele>358</ele>
        <time>2014-11-09T10:55:23.000Z</time>
      </trkpt>
      <trkpt lat="47.52835" lon="6.70457">
        <ele>359.9</ele>
        <time>2014-11-09T10:55:24.000Z</time>
      </trkpt>
      <trkpt lat="47.52835" lon="6.70461">
        <ele>359.6</ele>
        <time>2014-11-09T10:55:25.000Z</time>
      </trkpt>
      <trkpt lat="47.52835" lon="6.70465">
        <ele>359.9</ele>
        <time>2014-11-09T10:55:26.000Z</time>
      </trkpt>
      <trkpt lat="47.52835" lon="6.70468">
        <ele>361.1</ele>
        <time>2014-11-09T10:55:27.000Z</time>
      </trkpt>
      <trkpt lat="47.52835" lon="6.70471">
        <ele>362.1</ele>
        <time>2014-11-09T10:55:28.000Z</time>
      </trkpt>
      <trkpt lat="47.52836" lon="6.70476">
        <ele>367.1</ele>
        <time>2014-11-09T10:55:30.000Z</time>
      </trkpt>
      <trkpt lat="47.52836" lon="6.70479">
        <ele>367.7</ele>
        <time>2014-11-09T10:55:31.000Z</time>
      </trkpt>
      <trkpt lat="47.52837" lon="6.70484">
        <ele>367.1</ele>
        <time>2014-11-09T10:55:33.000Z</time>
      </trkpt>
      <trkpt lat="47.52837" lon="6.70488">
        <ele>367.6</ele>
        <time>2014-11-09T10:55:34.000Z</time>
      </trkpt>
      <trkpt lat="47.52837" lon="6.70492">
        <ele>367.5</ele>
        <time>2014-11-09T10:55:35.000Z</time>
      </trkpt>
      <trkpt lat="47.52837" lon="6.70496">
        <ele>367.8</ele>
        <time>2014-11-09T10:55:36.000Z</time>
      </trkpt>
      <trkpt lat="47.52837" lon="6.70501">
        <ele>369.3</ele>
        <time>2014-11-09T10:55:38.000Z</time>
      </trkpt>
      <trkpt lat="47.52836" lon="6.70503">
        <ele>370.1</ele>
        <time>2014-11-09T10:55:39.000Z</time>
      </trkpt>
      <trkpt lat="47.52834" lon="6.70508">
        <ele>370.9</ele>
        <time>2014-11-09T10:55:41.000Z</time>
      </trkpt>
      <trkpt lat="47.52834" lon="6.70511">
        <ele>371.1</ele>
        <time>2014-11-09T10:55:42.000Z</time>
      </trkpt>
      <trkpt lat="47.52832" lon="6.70515">
        <ele>373.3</ele>
        <time>2014-11-09T10:55:43.000Z</time>
      </trkpt>
      <trkpt lat="47.52831" lon="6.70519">
        <ele>374.6</ele>
        <time>2014-11-09T10:55:44.000Z</time>
      </trkpt>
      <trkpt lat="47.52828" lon="6.70523">
        <ele>374.4</ele>
        <time>2014-11-09T10:55:45.000Z</time>
      </trkpt>
      <trkpt lat="47.52826" lon="6.70527">
        <ele>374.9</ele>
        <time>2014-11-09T10:55:46.000Z</time>
      </trkpt>
      <trkpt lat="47.52823" lon="6.70529">
        <ele>375.5</ele>
        <time>2014-11-09T10:55:47.000Z</time>
      </trkpt>
      <trkpt lat="47.5282" lon="6.70529">
        <ele>377.6</ele>
        <time>2014-11-09T10:55:48.000Z</time>
      </trkpt>
      <trkpt lat="47.52817" lon="6.70529">
        <ele>377</ele>
        <time>2014-11-09T10:55:49.000Z</time>
      </trkpt>
      <trkpt lat="47.52814" lon="6.70527">
        <ele>377.1</ele>
        <time>2014-11-09T10:55:50.000Z</time>
      </trkpt>
      <trkpt lat="47.52811" lon="6.70525">
        <ele>374.7</ele>
        <time>2014-11-09T10:55:51.000Z</time>
      </trkpt>
      <trkpt lat="47.52809" lon="6.70524">
        <ele>375.2</ele>
        <time>2014-11-09T10:55:52.000Z</time>
      </trkpt>
      <trkpt lat="47.52805" lon="6.70522">
        <ele>372.8</ele>
        <time>2014-11-09T10:55:55.000Z</time>
      </trkpt>
      <trkpt lat="47.52803" lon="6.70523">
        <ele>371.7</ele>
        <time>2014-11-09T10:55:56.000Z</time>
      </trkpt>
      <trkpt lat="47.52802" lon="6.70524">
        <ele>371.7</ele>
        <time>2014-11-09T10:55:57.000Z</time>
      </trkpt>
      <trkpt lat="47.52798" lon="6.70525">
        <ele>374.7</ele>
        <time>2014-11-09T10:56:00.000Z</time>
      </trkpt>
      <trkpt lat="47.52796" lon="6.70526">
        <ele>372.5</ele>
        <time>2014-11-09T10:56:02.000Z</time>
      </trkpt>
      <trkpt lat="47.52793" lon="6.70528">
        <ele>372.3</ele>
        <time>2014-11-09T10:56:03.000Z</time>
      </trkpt>
      <trkpt lat="47.5279" lon="6.70533">
        <ele>370.7</ele>
        <time>2014-11-09T10:56:05.001Z</time>
      </trkpt>
      <trkpt lat="47.52791" lon="6.70539">
        <ele>369.9</ele>
        <time>2014-11-09T10:56:06.000Z</time>
      </trkpt>
      <trkpt lat="47.52791" lon="6.70544">
        <ele>369.3</ele>
        <time>2014-11-09T10:56:07.000Z</time>
      </trkpt>
      <trkpt lat="47.52791" lon="6.70549">
        <ele>367.9</ele>
        <time>2014-11-09T10:56:08.000Z</time>
      </trkpt>
      <trkpt lat="47.52791" lon="6.70554">
        <ele>367.7</ele>
        <time>2014-11-09T10:56:09.000Z</time>
      </trkpt>
      <trkpt lat="47.5279" lon="6.70558">
        <ele>367.3</ele>
        <time>2014-11-09T10:56:10.000Z</time>
      </trkpt>
      <trkpt lat="47.52788" lon="6.70561">
        <ele>366.9</ele>
        <time>2014-11-09T10:56:11.000Z</time>
      </trkpt>
      <trkpt lat="47.52787" lon="6.70564">
        <ele>366.8</ele>
        <time>2014-11-09T10:56:12.000Z</time>
      </trkpt>
      <trkpt lat="47.52783" lon="6.70566">
        <ele>364.9</ele>
        <time>2014-11-09T10:56:24.000Z</time>
      </trkpt>
      <trkpt lat="47.52782" lon="6.70566">
        <ele>365.8</ele>
        <time>2014-11-09T10:56:25.000Z</time>
      </trkpt>
      <trkpt lat="47.52779" lon="6.70566">
        <ele>366.6</ele>
        <time>2014-11-09T10:56:26.000Z</time>
      </trkpt>
      <trkpt lat="47.52775" lon="6.70565">
        <ele>367.2</ele>
        <time>2014-11-09T10:56:27.000Z</time>
      </trkpt>
      <trkpt lat="47.52771" lon="6.70565">
        <ele>366.7</ele>
        <time>2014-11-09T10:56:28.000Z</time>
      </trkpt>
      <trkpt lat="47.52769" lon="6.70566">
        <ele>366.2</ele>
        <time>2014-11-09T10:56:29.000Z</time>
      </trkpt>
      <trkpt lat="47.52766" lon="6.70567">
        <ele>365.7</ele>
        <time>2014-11-09T10:56:30.000Z</time>
      </trkpt>
      <trkpt lat="47.52763" lon="6.70568">
        <ele>366.6</ele>
        <time>2014-11-09T10:56:31.000Z</time>
      </trkpt>
      <trkpt lat="47.5276" lon="6.70569">
        <ele>366.7</ele>
        <time>2014-11-09T10:56:32.000Z</time>
      </trkpt>
      <trkpt lat="47.52756" lon="6.70569">
        <ele>366.7</ele>
        <time>2014-11-09T10:56:33.000Z</time>
      </trkpt>
      <trkpt lat="47.52753" lon="6.7057">
        <ele>366.2</ele>
        <time>2014-11-09T10:56:34.000Z</time>
      </trkpt>
      <trkpt lat="47.52751" lon="6.70571">
        <ele>368</ele>
        <time>2014-11-09T10:56:35.000Z</time>
      </trkpt>
      <trkpt lat="47.52747" lon="6.70574">
        <ele>367.9</ele>
        <time>2014-11-09T10:56:37.000Z</time>
      </trkpt>
      <trkpt lat="47.52746" lon="6.70576">
        <ele>367.9</ele>
        <time>2014-11-09T10:56:38.000Z</time>
      </trkpt>
      <trkpt lat="47.52745" lon="6.7058">
        <ele>367.8</ele>
        <time>2014-11-09T10:56:40.000Z</time>
      </trkpt>
      <trkpt lat="47.52744" lon="6.70583">
        <ele>367.9</ele>
        <time>2014-11-09T10:56:41.000Z</time>
      </trkpt>
      <trkpt lat="47.52743" lon="6.70589">
        <ele>368.1</ele>
        <time>2014-11-09T10:56:43.000Z</time>
      </trkpt>
      <trkpt lat="47.52743" lon="6.70592">
        <ele>368</ele>
        <time>2014-11-09T10:56:44.000Z</time>
      </trkpt>
      <trkpt lat="47.52743" lon="6.70596">
        <ele>368.2</ele>
        <time>2014-11-09T10:56:45.000Z</time>
      </trkpt>
      <trkpt lat="47.52742" lon="6.706">
        <ele>373.1</ele>
        <time>2014-11-09T10:56:46.000Z</time>
      </trkpt>
      <trkpt lat="47.52741" lon="6.70604">
        <ele>373.8</ele>
        <time>2014-11-09T10:56:47.000Z</time>
      </trkpt>
      <trkpt lat="47.52741" lon="6.70608">
        <ele>374.7</ele>
        <time>2014-11-09T10:56:48.000Z</time>
      </trkpt>
      <trkpt lat="47.5274" lon="6.70612">
        <ele>374.7</ele>
        <time>2014-11-09T10:56:49.000Z</time>
      </trkpt>
      <trkpt lat="47.52739" lon="6.70615">
        <ele>374.4</ele>
        <time>2014-11-09T10:56:50.000Z</time>
      </trkpt>
      <trkpt lat="47.52739" lon="6.70621">
        <ele>374.2</ele>
        <time>2014-11-09T10:56:52.000Z</time>
      </trkpt>
      <trkpt lat="47.52738" lon="6.70625">
        <ele>376.2</ele>
        <time>2014-11-09T10:56:53.000Z</time>
      </trkpt>
      <trkpt lat="47.52737" lon="6.70629">
        <ele>376.4</ele>
        <time>2014-11-09T10:56:54.000Z</time>
      </trkpt>
      <trkpt lat="47.52736" lon="6.70634">
        <ele>377.4</ele>
        <time>2014-11-09T10:56:55.000Z</time>
      </trkpt>
      <trkpt lat="47.52736" lon="6.70639">
        <ele>377.5</ele>
        <time>2014-11-09T10:56:56.000Z</time>
      </trkpt>
      <trkpt lat="47.52733" lon="6.70675">
        <ele>376.7</ele>
        <time>2014-11-09T10:57:05.000Z</time>
      </trkpt>
      <trkpt lat="47.52733" lon="6.70681">
        <ele>374.6</ele>
        <time>2014-11-09T10:57:07.000Z</time>
      </trkpt>
      <trkpt lat="47.52732" lon="6.70686">
        <ele>373.6</ele>
        <time>2014-11-09T10:57:08.000Z</time>
      </trkpt>
      <trkpt lat="47.52731" lon="6.70691">
        <ele>375.2</ele>
        <time>2014-11-09T10:57:09.000Z</time>
      </trkpt>
      <trkpt lat="47.52729" lon="6.70698">
        <ele>375</ele>
        <time>2014-11-09T10:57:10.000Z</time>
      </trkpt>
      <trkpt lat="47.52728" lon="6.70704">
        <ele>374.3</ele>
        <time>2014-11-09T10:57:11.000Z</time>
      </trkpt>
      <trkpt lat="47.52726" lon="6.7071">
        <ele>374.4</ele>
        <time>2014-11-09T10:57:12.000Z</time>
      </trkpt>
      <trkpt lat="47.52725" lon="6.70716">
        <ele>375</ele>
        <time>2014-11-09T10:57:13.000Z</time>
      </trkpt>
      <trkpt lat="47.52725" lon="6.70722">
        <ele>375.3</ele>
        <time>2014-11-09T10:57:14.000Z</time>
      </trkpt>
      <trkpt lat="47.52724" lon="6.70729">
        <ele>375.2</ele>
        <time>2014-11-09T10:57:15.000Z</time>
      </trkpt>
      <trkpt lat="47.52723" lon="6.70735">
        <ele>375.5</ele>
        <time>2014-11-09T10:57:16.000Z</time>
      </trkpt>
      <trkpt lat="47.52723" lon="6.70742">
        <ele>375</ele>
        <time>2014-11-09T10:57:17.000Z</time>
      </trkpt>
      <trkpt lat="47.52722" lon="6.70749">
        <ele>375.7</ele>
        <time>2014-11-09T10:57:18.000Z</time>
      </trkpt>
      <trkpt lat="47.52722" lon="6.70756">
        <ele>378</ele>
        <time>2014-11-09T10:57:19.000Z</time>
      </trkpt>
      <trkpt lat="47.52722" lon="6.70763">
        <ele>378.2</ele>
        <time>2014-11-09T10:57:20.000Z</time>
      </trkpt>
      <trkpt lat="47.52722" lon="6.7077">
        <ele>379.8</ele>
        <time>2014-11-09T10:57:21.000Z</time>
      </trkpt>
      <trkpt lat="47.52722" lon="6.70778">
        <ele>380.2</ele>
        <time>2014-11-09T10:57:22.000Z</time>
      </trkpt>
      <trkpt lat="47.52722" lon="6.70785">
        <ele>379.7</ele>
        <time>2014-11-09T10:57:23.000Z</time>
      </trkpt>
      <trkpt lat="47.52721" lon="6.70791">
        <ele>379.7</ele>
        <time>2014-11-09T10:57:24.000Z</time>
      </trkpt>
      <trkpt lat="47.52721" lon="6.70798">
        <ele>379.2</ele>
        <time>2014-11-09T10:57:25.000Z</time>
      </trkpt>
      <trkpt lat="47.5272" lon="6.70805">
        <ele>382</ele>
        <time>2014-11-09T10:57:26.000Z</time>
      </trkpt>
      <trkpt lat="47.5272" lon="6.70812">
        <ele>382.6</ele>
        <time>2014-11-09T10:57:27.000Z</time>
      </trkpt>
      <trkpt lat="47.5272" lon="6.70819">
        <ele>382.8</ele>
        <time>2014-11-09T10:57:28.000Z</time>
      </trkpt>
      <trkpt lat="47.52719" lon="6.70826">
        <ele>382.6</ele>
        <time>2014-11-09T10:57:29.000Z</time>
      </trkpt>
      <trkpt lat="47.52719" lon="6.70833">
        <ele>381.6</ele>
        <time>2014-11-09T10:57:30.000Z</time>
      </trkpt>
      <trkpt lat="47.52719" lon="6.70839">
        <ele>380.3</ele>
        <time>2014-11-09T10:57:31.000Z</time>
      </trkpt>
      <trkpt lat="47.5272" lon="6.70845">
        <ele>379.1</ele>
        <time>2014-11-09T10:57:32.000Z</time>
      </trkpt>
      <trkpt lat="47.5272" lon="6.70852">
        <ele>378.6</ele>
        <time>2014-11-09T10:57:33.000Z</time>
      </trkpt>
      <trkpt lat="47.5272" lon="6.70858">
        <ele>377.4</ele>
        <time>2014-11-09T10:57:34.000Z</time>
      </trkpt>
      <trkpt lat="47.52721" lon="6.70865">
        <ele>377</ele>
        <time>2014-11-09T10:57:35.000Z</time>
      </trkpt>
      <trkpt lat="47.5272" lon="6.7087">
        <ele>375.9</ele>
        <time>2014-11-09T10:57:36.000Z</time>
      </trkpt>
      <trkpt lat="47.5272" lon="6.70875">
        <ele>375.2</ele>
        <time>2014-11-09T10:57:37.000Z</time>
      </trkpt>
      <trkpt lat="47.5272" lon="6.70879">
        <ele>374.3</ele>
        <time>2014-11-09T10:57:38.000Z</time>
      </trkpt>
      <trkpt lat="47.5272" lon="6.70882">
        <ele>374.1</ele>
        <time>2014-11-09T10:57:39.000Z</time>
      </trkpt>
      <trkpt lat="47.52719" lon="6.70885">
        <ele>373.9</ele>
        <time>2014-11-09T10:57:40.000Z</time>
      </trkpt>
      <trkpt lat="47.52719" lon="6.70889">
        <ele>373.4</ele>
        <time>2014-11-09T10:57:41.000Z</time>
      </trkpt>
      <trkpt lat="47.52718" lon="6.70893">
        <ele>373.2</ele>
        <time>2014-11-09T10:57:42.000Z</time>
      </trkpt>
      <trkpt lat="47.52718" lon="6.70897">
        <ele>372.8</ele>
        <time>2014-11-09T10:57:43.000Z</time>
      </trkpt>
      <trkpt lat="47.52718" lon="6.70901">
        <ele>372.1</ele>
        <time>2014-11-09T10:57:44.000Z</time>
      </trkpt>
      <trkpt lat="47.52718" lon="6.70905">
        <ele>371.9</ele>
        <time>2014-11-09T10:57:45.000Z</time>
      </trkpt>
      <trkpt lat="47.52717" lon="6.7091">
        <ele>371.2</ele>
        <time>2014-11-09T10:57:46.000Z</time>
      </trkpt>
      <trkpt lat="47.52717" lon="6.70914">
        <ele>371</ele>
        <time>2014-11-09T10:57:47.000Z</time>
      </trkpt>
      <trkpt lat="47.52718" lon="6.70919">
        <ele>370.1</ele>
        <time>2014-11-09T10:57:48.000Z</time>
      </trkpt>
      <trkpt lat="47.52718" lon="6.70923">
        <ele>369.2</ele>
        <time>2014-11-09T10:57:49.000Z</time>
      </trkpt>
      <trkpt lat="47.52718" lon="6.70928">
        <ele>369.5</ele>
        <time>2014-11-09T10:57:50.000Z</time>
      </trkpt>
      <trkpt lat="47.5272" lon="6.70934">
        <ele>374.1</ele>
        <time>2014-11-09T10:57:51.000Z</time>
      </trkpt>
      <trkpt lat="47.52721" lon="6.7094">
        <ele>375.7</ele>
        <time>2014-11-09T10:57:52.000Z</time>
      </trkpt>
      <trkpt lat="47.52723" lon="6.70948">
        <ele>375.7</ele>
        <time>2014-11-09T10:57:53.000Z</time>
      </trkpt>
      <trkpt lat="47.52726" lon="6.70955">
        <ele>375.8</ele>
        <time>2014-11-09T10:57:54.000Z</time>
      </trkpt>
      <trkpt lat="47.52727" lon="6.70962">
        <ele>376.5</ele>
        <time>2014-11-09T10:57:55.000Z</time>
      </trkpt>
      <trkpt lat="47.52728" lon="6.70968">
        <ele>378.2</ele>
        <time>2014-11-09T10:57:56.000Z</time>
      </trkpt>
      <trkpt lat="47.5273" lon="6.70986">
        <ele>378.1</ele>
        <time>2014-11-09T10:57:59.000Z</time>
      </trkpt>
      <trkpt lat="47.5273" lon="6.70991">
        <ele>378</ele>
        <time>2014-11-09T10:58:00.000Z</time>
      </trkpt>
      <trkpt lat="47.5273" lon="6.70995">
        <ele>378.7</ele>
        <time>2014-11-09T10:58:01.000Z</time>
      </trkpt>
      <trkpt lat="47.52729" lon="6.70999">
        <ele>378.6</ele>
        <time>2014-11-09T10:58:02.000Z</time>
      </trkpt>
      <trkpt lat="47.52728" lon="6.71004">
        <ele>379.7</ele>
        <time>2014-11-09T10:58:03.000Z</time>
      </trkpt>
      <trkpt lat="47.52727" lon="6.71011">
        <ele>380.4</ele>
        <time>2014-11-09T10:58:04.000Z</time>
      </trkpt>
      <trkpt lat="47.52725" lon="6.71018">
        <ele>380.1</ele>
        <time>2014-11-09T10:58:05.000Z</time>
      </trkpt>
      <trkpt lat="47.52724" lon="6.71025">
        <ele>380.8</ele>
        <time>2014-11-09T10:58:06.000Z</time>
      </trkpt>
      <trkpt lat="47.52723" lon="6.71031">
        <ele>383.9</ele>
        <time>2014-11-09T10:58:07.000Z</time>
      </trkpt>
      <trkpt lat="47.52723" lon="6.71036">
        <ele>385</ele>
        <time>2014-11-09T10:58:08.000Z</time>
      </trkpt>
      <trkpt lat="47.52723" lon="6.71041">
        <ele>383.3</ele>
        <time>2014-11-09T10:58:09.000Z</time>
      </trkpt>
      <trkpt lat="47.52723" lon="6.71045">
        <ele>383.2</ele>
        <time>2014-11-09T10:58:10.000Z</time>
      </trkpt>
      <trkpt lat="47.52723" lon="6.71049">
        <ele>383.2</ele>
        <time>2014-11-09T10:58:11.000Z</time>
      </trkpt>
      <trkpt lat="47.52723" lon="6.71052">
        <ele>383.8</ele>
        <time>2014-11-09T10:58:12.000Z</time>
      </trkpt>
      <trkpt lat="47.52724" lon="6.71058">
        <ele>385</ele>
        <time>2014-11-09T10:58:14.000Z</time>
      </trkpt>
      <trkpt lat="47.52724" lon="6.71061">
        <ele>385.3</ele>
        <time>2014-11-09T10:58:15.000Z</time>
      </trkpt>
      <trkpt lat="47.52723" lon="6.71067">
        <ele>385.8</ele>
        <time>2014-11-09T10:58:17.000Z</time>
      </trkpt>
      <trkpt lat="47.52723" lon="6.7107">
        <ele>385.9</ele>
        <time>2014-11-09T10:58:18.000Z</time>
      </trkpt>
      <trkpt lat="47.52722" lon="6.71076">
        <ele>385.6</ele>
        <time>2014-11-09T10:58:20.000Z</time>
      </trkpt>
      <trkpt lat="47.52721" lon="6.71078">
        <ele>386.2</ele>
        <time>2014-11-09T10:58:21.000Z</time>
      </trkpt>
      <trkpt lat="47.5272" lon="6.71084">
        <ele>386.1</ele>
        <time>2014-11-09T10:58:23.000Z</time>
      </trkpt>
      <trkpt lat="47.52719" lon="6.71086">
        <ele>387.9</ele>
        <time>2014-11-09T10:58:24.000Z</time>
      </trkpt>
      <trkpt lat="47.52718" lon="6.7109">
        <ele>390</ele>
        <time>2014-11-09T10:58:26.000Z</time>
      </trkpt>
      <trkpt lat="47.52717" lon="6.71092">
        <ele>388.4</ele>
        <time>2014-11-09T10:58:27.000Z</time>
      </trkpt>
      <trkpt lat="47.52716" lon="6.71096">
        <ele>387.6</ele>
        <time>2014-11-09T10:58:29.000Z</time>
      </trkpt>
      <trkpt lat="47.52716" lon="6.71099">
        <ele>388</ele>
        <time>2014-11-09T10:58:30.000Z</time>
      </trkpt>
      <trkpt lat="47.52716" lon="6.71104">
        <ele>390.2</ele>
        <time>2014-11-09T10:58:32.000Z</time>
      </trkpt>
      <trkpt lat="47.52717" lon="6.71107">
        <ele>389.1</ele>
        <time>2014-11-09T10:58:33.000Z</time>
      </trkpt>
      <trkpt lat="47.52718" lon="6.71111">
        <ele>389</ele>
        <time>2014-11-09T10:58:35.000Z</time>
      </trkpt>
      <trkpt lat="47.52718" lon="6.71113">
        <ele>389.5</ele>
        <time>2014-11-09T10:58:36.000Z</time>
      </trkpt>
      <trkpt lat="47.52718" lon="6.71118">
        <ele>391.4</ele>
        <time>2014-11-09T10:58:39.000Z</time>
      </trkpt>
      <trkpt lat="47.52718" lon="6.7112">
        <ele>391</ele>
        <time>2014-11-09T10:58:40.000Z</time>
      </trkpt>
      <trkpt lat="47.52716" lon="6.71125">
        <ele>392.9</ele>
        <time>2014-11-09T10:58:44.000Z</time>
      </trkpt>
      <trkpt lat="47.52715" lon="6.71126">
        <ele>393.4</ele>
        <time>2014-11-09T10:58:45.000Z</time>
      </trkpt>
      <trkpt lat="47.52713" lon="6.71131">
        <ele>394</ele>
        <time>2014-11-09T10:58:49.000Z</time>
      </trkpt>
      <trkpt lat="47.52713" lon="6.71132">
        <ele>393.9</ele>
        <time>2014-11-09T10:58:50.000Z</time>
      </trkpt>
      <trkpt lat="47.52712" lon="6.71137">
        <ele>393.6</ele>
        <time>2014-11-09T10:58:52.000Z</time>
      </trkpt>
      <trkpt lat="47.52713" lon="6.71141">
        <ele>392.8</ele>
        <time>2014-11-09T10:58:53.000Z</time>
      </trkpt>
      <trkpt lat="47.52713" lon="6.71146">
        <ele>393</ele>
        <time>2014-11-09T10:58:56.000Z</time>
      </trkpt>
      <trkpt lat="47.52711" lon="6.71148">
        <ele>394</ele>
        <time>2014-11-09T10:58:59.000Z</time>
      </trkpt>
      <trkpt lat="47.52708" lon="6.71152">
        <ele>394.8</ele>
        <time>2014-11-09T10:59:02.000Z</time>
      </trkpt>
      <trkpt lat="47.52707" lon="6.71153">
        <ele>395.2</ele>
        <time>2014-11-09T10:59:03.000Z</time>
      </trkpt>
      <trkpt lat="47.52705" lon="6.71157">
        <ele>392.9</ele>
        <time>2014-11-09T10:59:05.000Z</time>
      </trkpt>
      <trkpt lat="47.52704" lon="6.71159">
        <ele>392.3</ele>
        <time>2014-11-09T10:59:06.000Z</time>
      </trkpt>
      <trkpt lat="47.52702" lon="6.71164">
        <ele>391.2</ele>
        <time>2014-11-09T10:59:08.000Z</time>
      </trkpt>
      <trkpt lat="47.52701" lon="6.71167">
        <ele>391.2</ele>
        <time>2014-11-09T10:59:09.000Z</time>
      </trkpt>
      <trkpt lat="47.527" lon="6.7117">
        <ele>388.2</ele>
        <time>2014-11-09T10:59:10.000Z</time>
      </trkpt>
      <trkpt lat="47.52699" lon="6.71175">
        <ele>388.8</ele>
        <time>2014-11-09T10:59:11.000Z</time>
      </trkpt>
      <trkpt lat="47.52699" lon="6.71181">
        <ele>387.5</ele>
        <time>2014-11-09T10:59:12.000Z</time>
      </trkpt>
      <trkpt lat="47.52699" lon="6.71188">
        <ele>385.9</ele>
        <time>2014-11-09T10:59:13.000Z</time>
      </trkpt>
      <trkpt lat="47.52698" lon="6.71195">
        <ele>385.5</ele>
        <time>2014-11-09T10:59:14.000Z</time>
      </trkpt>
      <trkpt lat="47.52698" lon="6.71199">
        <ele>386.1</ele>
        <time>2014-11-09T10:59:14.999Z</time>
      </trkpt>
      <trkpt lat="47.52698" lon="6.71206">
        <ele>387.2</ele>
        <time>2014-11-09T10:59:16.000Z</time>
      </trkpt>
      <trkpt lat="47.52698" lon="6.71213">
        <ele>388</ele>
        <time>2014-11-09T10:59:17.000Z</time>
      </trkpt>
      <trkpt lat="47.52699" lon="6.71219">
        <ele>388.3</ele>
        <time>2014-11-09T10:59:18.000Z</time>
      </trkpt>
      <trkpt lat="47.52698" lon="6.71224">
        <ele>389.8</ele>
        <time>2014-11-09T10:59:19.000Z</time>
      </trkpt>
      <trkpt lat="47.52697" lon="6.71229">
        <ele>390.5</ele>
        <time>2014-11-09T10:59:20.000Z</time>
      </trkpt>
      <trkpt lat="47.52695" lon="6.71232">
        <ele>391.3</ele>
        <time>2014-11-09T10:59:21.000Z</time>
      </trkpt>
      <trkpt lat="47.52694" lon="6.71235">
        <ele>389.9</ele>
        <time>2014-11-09T10:59:22.000Z</time>
      </trkpt>
      <trkpt lat="47.52691" lon="6.71239">
        <ele>391.1</ele>
        <time>2014-11-09T10:59:25.000Z</time>
      </trkpt>
      <trkpt lat="47.5269" lon="6.7124">
        <ele>392.8</ele>
        <time>2014-11-09T10:59:26.000Z</time>
      </trkpt>
      <trkpt lat="47.52686" lon="6.71241">
        <ele>392.9</ele>
        <time>2014-11-09T10:59:29.000Z</time>
      </trkpt>
      <trkpt lat="47.52685" lon="6.71242">
        <ele>392.7</ele>
        <time>2014-11-09T10:59:30.000Z</time>
      </trkpt>
      <trkpt lat="47.52682" lon="6.71244">
        <ele>392</ele>
        <time>2014-11-09T10:59:33.000Z</time>
      </trkpt>
      <trkpt lat="47.52681" lon="6.71245">
        <ele>391.6</ele>
        <time>2014-11-09T10:59:34.000Z</time>
      </trkpt>
      <trkpt lat="47.52678" lon="6.7125">
        <ele>387.6</ele>
        <time>2014-11-09T10:59:37.000Z</time>
      </trkpt>
      <trkpt lat="47.52677" lon="6.71251">
        <ele>387.8</ele>
        <time>2014-11-09T10:59:38.000Z</time>
      </trkpt>
      <trkpt lat="47.52674" lon="6.71251">
        <ele>385.1</ele>
        <time>2014-11-09T10:59:41.000Z</time>
      </trkpt>
      <trkpt lat="47.52672" lon="6.71252">
        <ele>383.5</ele>
        <time>2014-11-09T10:59:42.000Z</time>
      </trkpt>
      <trkpt lat="47.52668" lon="6.71252">
        <ele>385</ele>
        <time>2014-11-09T10:59:44.000Z</time>
      </trkpt>
      <trkpt lat="47.52666" lon="6.71252">
        <ele>385.2</ele>
        <time>2014-11-09T10:59:45.000Z</time>
      </trkpt>
      <trkpt lat="47.52663" lon="6.71253">
        <ele>384.2</ele>
        <time>2014-11-09T10:59:47.000Z</time>
      </trkpt>
      <trkpt lat="47.52661" lon="6.71253">
        <ele>384.5</ele>
        <time>2014-11-09T10:59:48.000Z</time>
      </trkpt>
      <trkpt lat="47.52657" lon="6.71253">
        <ele>384.2</ele>
        <time>2014-11-09T10:59:50.000Z</time>
      </trkpt>
      <trkpt lat="47.52655" lon="6.71252">
        <ele>384.7</ele>
        <time>2014-11-09T10:59:51.000Z</time>
      </trkpt>
      <trkpt lat="47.52653" lon="6.71252">
        <ele>384</ele>
        <time>2014-11-09T10:59:52.000Z</time>
      </trkpt>
      <trkpt lat="47.5265" lon="6.71251">
        <ele>382.8</ele>
        <time>2014-11-09T10:59:53.000Z</time>
      </trkpt>
      <trkpt lat="47.52646" lon="6.71251">
        <ele>379.7</ele>
        <time>2014-11-09T10:59:55.000Z</time>
      </trkpt>
      <trkpt lat="47.52645" lon="6.71251">
        <ele>380.6</ele>
        <time>2014-11-09T10:59:56.000Z</time>
      </trkpt>
      <trkpt lat="47.52641" lon="6.7125">
        <ele>381.4</ele>
        <time>2014-11-09T10:59:59.000Z</time>
      </trkpt>
      <trkpt lat="47.5264" lon="6.71249">
        <ele>381</ele>
        <time>2014-11-09T11:00:00.000Z</time>
      </trkpt>
      <trkpt lat="47.52638" lon="6.71248">
        <ele>381.7</ele>
        <time>2014-11-09T11:00:01.000Z</time>
      </trkpt>
      <trkpt lat="47.52635" lon="6.71247">
        <ele>381.6</ele>
        <time>2014-11-09T11:00:02.000Z</time>
      </trkpt>
      <trkpt lat="47.52632" lon="6.71246">
        <ele>381.5</ele>
        <time>2014-11-09T11:00:03.000Z</time>
      </trkpt>
      <trkpt lat="47.5263" lon="6.71246">
        <ele>381.2</ele>
        <time>2014-11-09T11:00:04.000Z</time>
      </trkpt>
      <trkpt lat="47.52626" lon="6.71245">
        <ele>381.2</ele>
        <time>2014-11-09T11:00:06.000Z</time>
      </trkpt>
      <trkpt lat="47.52624" lon="6.71245">
        <ele>381.4</ele>
        <time>2014-11-09T11:00:07.000Z</time>
      </trkpt>
      <trkpt lat="47.5262" lon="6.71243">
        <ele>383.6</ele>
        <time>2014-11-09T11:00:09.000Z</time>
      </trkpt>
      <trkpt lat="47.52618" lon="6.71242">
        <ele>383.7</ele>
        <time>2014-11-09T11:00:10.000Z</time>
      </trkpt>
      <trkpt lat="47.52614" lon="6.71241">
        <ele>386</ele>
        <time>2014-11-09T11:00:12.000Z</time>
      </trkpt>
      <trkpt lat="47.52612" lon="6.71241">
        <ele>386.8</ele>
        <time>2014-11-09T11:00:13.000Z</time>
      </trkpt>
      <trkpt lat="47.5261" lon="6.7124">
        <ele>387.9</ele>
        <time>2014-11-09T11:00:14.000Z</time>
      </trkpt>
      <trkpt lat="47.52608" lon="6.7124">
        <ele>388</ele>
        <time>2014-11-09T11:00:15.000Z</time>
      </trkpt>
      <trkpt lat="47.52605" lon="6.71239">
        <ele>387.7</ele>
        <time>2014-11-09T11:00:16.000Z</time>
      </trkpt>
      <trkpt lat="47.52602" lon="6.71237">
        <ele>385.8</ele>
        <time>2014-11-09T11:00:17.000Z</time>
      </trkpt>
      <trkpt lat="47.52598" lon="6.71236">
        <ele>385.2</ele>
        <time>2014-11-09T11:00:18.000Z</time>
      </trkpt>
      <trkpt lat="47.52594" lon="6.71234">
        <ele>384.6</ele>
        <time>2014-11-09T11:00:19.000Z</time>
      </trkpt>
      <trkpt lat="47.52589" lon="6.71233">
        <ele>384.6</ele>
        <time>2014-11-09T11:00:20.000Z</time>
      </trkpt>
      <trkpt lat="47.52585" lon="6.71231">
        <ele>384.2</ele>
        <time>2014-11-09T11:00:21.000Z</time>
      </trkpt>
      <trkpt lat="47.52581" lon="6.71229">
        <ele>383.7</ele>
        <time>2014-11-09T11:00:22.000Z</time>
      </trkpt>
      <trkpt lat="47.52577" lon="6.71228">
        <ele>383.2</ele>
        <time>2014-11-09T11:00:23.000Z</time>
      </trkpt>
      <trkpt lat="47.52573" lon="6.71225">
        <ele>383.7</ele>
        <time>2014-11-09T11:00:24.000Z</time>
      </trkpt>
      <trkpt lat="47.52569" lon="6.71223">
        <ele>383.3</ele>
        <time>2014-11-09T11:00:25.000Z</time>
      </trkpt>
      <trkpt lat="47.52564" lon="6.71221">
        <ele>383.3</ele>
        <time>2014-11-09T11:00:26.000Z</time>
      </trkpt>
      <trkpt lat="47.5256" lon="6.71218">
        <ele>383.5</ele>
        <time>2014-11-09T11:00:27.000Z</time>
      </trkpt>
      <trkpt lat="47.52556" lon="6.71216">
        <ele>383.2</ele>
        <time>2014-11-09T11:00:28.000Z</time>
      </trkpt>
      <trkpt lat="47.52552" lon="6.71213">
        <ele>383.7</ele>
        <time>2014-11-09T11:00:29.000Z</time>
      </trkpt>
      <trkpt lat="47.52549" lon="6.7121">
        <ele>384.2</ele>
        <time>2014-11-09T11:00:30.000Z</time>
      </trkpt>
      <trkpt lat="47.52545" lon="6.71208">
        <ele>384</ele>
        <time>2014-11-09T11:00:31.000Z</time>
      </trkpt>
      <trkpt lat="47.52541" lon="6.71205">
        <ele>384.1</ele>
        <time>2014-11-09T11:00:32.000Z</time>
      </trkpt>
      <trkpt lat="47.52537" lon="6.71202">
        <ele>383.3</ele>
        <time>2014-11-09T11:00:33.000Z</time>
      </trkpt>
      <trkpt lat="47.52533" lon="6.71199">
        <ele>383.1</ele>
        <time>2014-11-09T11:00:34.000Z</time>
      </trkpt>
      <trkpt lat="47.5253" lon="6.71195">
        <ele>382.3</ele>
        <time>2014-11-09T11:00:35.000Z</time>
      </trkpt>
      <trkpt lat="47.52526" lon="6.71192">
        <ele>381.4</ele>
        <time>2014-11-09T11:00:36.000Z</time>
      </trkpt>
      <trkpt lat="47.52523" lon="6.7119">
        <ele>381.5</ele>
        <time>2014-11-09T11:00:37.000Z</time>
      </trkpt>
      <trkpt lat="47.52521" lon="6.71187">
        <ele>381.5</ele>
        <time>2014-11-09T11:00:38.000Z</time>
      </trkpt>
      <trkpt lat="47.52518" lon="6.71184">
        <ele>381.5</ele>
        <time>2014-11-09T11:00:39.000Z</time>
      </trkpt>
      <trkpt lat="47.52516" lon="6.71181">
        <ele>380.7</ele>
        <time>2014-11-09T11:00:40.000Z</time>
      </trkpt>
      <trkpt lat="47.52513" lon="6.71177">
        <ele>380.4</ele>
        <time>2014-11-09T11:00:42.000Z</time>
      </trkpt>
      <trkpt lat="47.52511" lon="6.71176">
        <ele>380</ele>
        <time>2014-11-09T11:00:43.000Z</time>
      </trkpt>
      <trkpt lat="47.52508" lon="6.71173">
        <ele>380.1</ele>
        <time>2014-11-09T11:00:45.000Z</time>
      </trkpt>
      <trkpt lat="47.52506" lon="6.71171">
        <ele>380.1</ele>
        <time>2014-11-09T11:00:46.000Z</time>
      </trkpt>
      <trkpt lat="47.52503" lon="6.71169">
        <ele>379.5</ele>
        <time>2014-11-09T11:00:48.000Z</time>
      </trkpt>
      <trkpt lat="47.52501" lon="6.71167">
        <ele>379.2</ele>
        <time>2014-11-09T11:00:49.000Z</time>
      </trkpt>
      <trkpt lat="47.52498" lon="6.71164">
        <ele>379.4</ele>
        <time>2014-11-09T11:00:51.000Z</time>
      </trkpt>
      <trkpt lat="47.52496" lon="6.71164">
        <ele>379.3</ele>
        <time>2014-11-09T11:00:52.000Z</time>
      </trkpt>
      <trkpt lat="47.52492" lon="6.71162">
        <ele>380</ele>
        <time>2014-11-09T11:00:54.000Z</time>
      </trkpt>
      <trkpt lat="47.5249" lon="6.71161">
        <ele>380.4</ele>
        <time>2014-11-09T11:00:55.000Z</time>
      </trkpt>
      <trkpt lat="47.52489" lon="6.71161">
        <ele>380.9</ele>
        <time>2014-11-09T11:00:56.000Z</time>
      </trkpt>
      <trkpt lat="47.52474" lon="6.7116">
        <ele>383.6</ele>
        <time>2014-11-09T11:01:04.000Z</time>
      </trkpt>
      <trkpt lat="47.5247" lon="6.71161">
        <ele>381.2</ele>
        <time>2014-11-09T11:01:06.000Z</time>
      </trkpt>
      <trkpt lat="47.52468" lon="6.71161">
        <ele>382.5</ele>
        <time>2014-11-09T11:01:07.000Z</time>
      </trkpt>
      <trkpt lat="47.52465" lon="6.71161">
        <ele>381.8</ele>
        <time>2014-11-09T11:01:09.000Z</time>
      </trkpt>
      <trkpt lat="47.52462" lon="6.71162">
        <ele>381.7</ele>
        <time>2014-11-09T11:01:10.000Z</time>
      </trkpt>
      <trkpt lat="47.5246" lon="6.71163">
        <ele>381.6</ele>
        <time>2014-11-09T11:01:11.000Z</time>
      </trkpt>
      <trkpt lat="47.52457" lon="6.71164">
        <ele>381.2</ele>
        <time>2014-11-09T11:01:12.000Z</time>
      </trkpt>
      <trkpt lat="47.52454" lon="6.71165">
        <ele>380.9</ele>
        <time>2014-11-09T11:01:13.000Z</time>
      </trkpt>
      <trkpt lat="47.5245" lon="6.71167">
        <ele>382.7</ele>
        <time>2014-11-09T11:01:14.000Z</time>
      </trkpt>
      <trkpt lat="47.52447" lon="6.71168">
        <ele>383.9</ele>
        <time>2014-11-09T11:01:15.000Z</time>
      </trkpt>
      <trkpt lat="47.52443" lon="6.7117">
        <ele>384.5</ele>
        <time>2014-11-09T11:01:16.000Z</time>
      </trkpt>
      <trkpt lat="47.5244" lon="6.71171">
        <ele>383.5</ele>
        <time>2014-11-09T11:01:17.000Z</time>
      </trkpt>
      <trkpt lat="47.52437" lon="6.71172">
        <ele>383.8</ele>
        <time>2014-11-09T11:01:18.000Z</time>
      </trkpt>
      <trkpt lat="47.52434" lon="6.71173">
        <ele>383.5</ele>
        <time>2014-11-09T11:01:19.000Z</time>
      </trkpt>
      <trkpt lat="47.52431" lon="6.71174">
        <ele>383.1</ele>
        <time>2014-11-09T11:01:20.000Z</time>
      </trkpt>
      <trkpt lat="47.52428" lon="6.71175">
        <ele>382.8</ele>
        <time>2014-11-09T11:01:21.000Z</time>
      </trkpt>
      <trkpt lat="47.52425" lon="6.71176">
        <ele>382.5</ele>
        <time>2014-11-09T11:01:22.000Z</time>
      </trkpt>
      <trkpt lat="47.52422" lon="6.71176">
        <ele>382.1</ele>
        <time>2014-11-09T11:01:23.000Z</time>
      </trkpt>
      <trkpt lat="47.5242" lon="6.71176">
        <ele>382.1</ele>
        <time>2014-11-09T11:01:24.000Z</time>
      </trkpt>
      <trkpt lat="47.52417" lon="6.71176">
        <ele>382.4</ele>
        <time>2014-11-09T11:01:25.000Z</time>
      </trkpt>
      <trkpt lat="47.52414" lon="6.71176">
        <ele>382.4</ele>
        <time>2014-11-09T11:01:26.000Z</time>
      </trkpt>
      <trkpt lat="47.52411" lon="6.71176">
        <ele>382</ele>
        <time>2014-11-09T11:01:27.000Z</time>
      </trkpt>
      <trkpt lat="47.52408" lon="6.71176">
        <ele>381.9</ele>
        <time>2014-11-09T11:01:28.000Z</time>
      </trkpt>
      <trkpt lat="47.52405" lon="6.71176">
        <ele>381.5</ele>
        <time>2014-11-09T11:01:29.000Z</time>
      </trkpt>
      <trkpt lat="47.52401" lon="6.71175">
        <ele>381.7</ele>
        <time>2014-11-09T11:01:30.000Z</time>
      </trkpt>
      <trkpt lat="47.52398" lon="6.71175">
        <ele>381.8</ele>
        <time>2014-11-09T11:01:31.000Z</time>
      </trkpt>
      <trkpt lat="47.52394" lon="6.71175">
        <ele>381.3</ele>
        <time>2014-11-09T11:01:32.000Z</time>
      </trkpt>
      <trkpt lat="47.52391" lon="6.71175">
        <ele>381.2</ele>
        <time>2014-11-09T11:01:33.000Z</time>
      </trkpt>
      <trkpt lat="47.52388" lon="6.71174">
        <ele>381</ele>
        <time>2014-11-09T11:01:34.000Z</time>
      </trkpt>
      <trkpt lat="47.52385" lon="6.71174">
        <ele>381.3</ele>
        <time>2014-11-09T11:01:35.000Z</time>
      </trkpt>
      <trkpt lat="47.52382" lon="6.71173">
        <ele>381.8</ele>
        <time>2014-11-09T11:01:36.000Z</time>
      </trkpt>
      <trkpt lat="47.5238" lon="6.71171">
        <ele>381.9</ele>
        <time>2014-11-09T11:01:37.000Z</time>
      </trkpt>
      <trkpt lat="47.52377" lon="6.71169">
        <ele>381.5</ele>
        <time>2014-11-09T11:01:38.000Z</time>
      </trkpt>
      <trkpt lat="47.52375" lon="6.71168">
        <ele>381.3</ele>
        <time>2014-11-09T11:01:39.000Z</time>
      </trkpt>
      <trkpt lat="47.52372" lon="6.71166">
        <ele>380.9</ele>
        <time>2014-11-09T11:01:40.000Z</time>
      </trkpt>
      <trkpt lat="47.5237" lon="6.71163">
        <ele>381</ele>
        <time>2014-11-09T11:01:41.000Z</time>
      </trkpt>
      <trkpt lat="47.52368" lon="6.71161">
        <ele>380.9</ele>
        <time>2014-11-09T11:01:42.000Z</time>
      </trkpt>
      <trkpt lat="47.52366" lon="6.71158">
        <ele>381.1</ele>
        <time>2014-11-09T11:01:43.000Z</time>
      </trkpt>
      <trkpt lat="47.52363" lon="6.71156">
        <ele>380.6</ele>
        <time>2014-11-09T11:01:44.000Z</time>
      </trkpt>
      <trkpt lat="47.52361" lon="6.71153">
        <ele>380.6</ele>
        <time>2014-11-09T11:01:45.000Z</time>
      </trkpt>
      <trkpt lat="47.52358" lon="6.71151">
        <ele>380.9</ele>
        <time>2014-11-09T11:01:46.000Z</time>
      </trkpt>
      <trkpt lat="47.52355" lon="6.71149">
        <ele>381</ele>
        <time>2014-11-09T11:01:47.000Z</time>
      </trkpt>
      <trkpt lat="47.52352" lon="6.71147">
        <ele>381.1</ele>
        <time>2014-11-09T11:01:48.000Z</time>
      </trkpt>
      <trkpt lat="47.52349" lon="6.71145">
        <ele>381.1</ele>
        <time>2014-11-09T11:01:49.000Z</time>
      </trkpt>
      <trkpt lat="47.52346" lon="6.71144">
        <ele>381.2</ele>
        <time>2014-11-09T11:01:50.000Z</time>
      </trkpt>
      <trkpt lat="47.52343" lon="6.71144">
        <ele>381.1</ele>
        <time>2014-11-09T11:01:51.000Z</time>
      </trkpt>
      <trkpt lat="47.52339" lon="6.71145">
        <ele>381</ele>
        <time>2014-11-09T11:01:52.000Z</time>
      </trkpt>
      <trkpt lat="47.52336" lon="6.71147">
        <ele>380.2</ele>
        <time>2014-11-09T11:01:53.000Z</time>
      </trkpt>
      <trkpt lat="47.52333" lon="6.7115">
        <ele>380.7</ele>
        <time>2014-11-09T11:01:54.000Z</time>
      </trkpt>
      <trkpt lat="47.5233" lon="6.71153">
        <ele>380.2</ele>
        <time>2014-11-09T11:01:55.000Z</time>
      </trkpt>
      <trkpt lat="47.52327" lon="6.71156">
        <ele>380.2</ele>
        <time>2014-11-09T11:01:56.000Z</time>
      </trkpt>
      <trkpt lat="47.52319" lon="6.71164">
        <ele>381.2</ele>
        <time>2014-11-09T11:01:59.000Z</time>
      </trkpt>
      <trkpt lat="47.52317" lon="6.71167">
        <ele>381.2</ele>
        <time>2014-11-09T11:02:00.000Z</time>
      </trkpt>
      <trkpt lat="47.52315" lon="6.7117">
        <ele>380.1</ele>
        <time>2014-11-09T11:02:01.000Z</time>
      </trkpt>
      <trkpt lat="47.52312" lon="6.71173">
        <ele>379.6</ele>
        <time>2014-11-09T11:02:02.000Z</time>
      </trkpt>
      <trkpt lat="47.5231" lon="6.71176">
        <ele>379.8</ele>
        <time>2014-11-09T11:02:03.000Z</time>
      </trkpt>
      <trkpt lat="47.52307" lon="6.7118">
        <ele>379.2</ele>
        <time>2014-11-09T11:02:04.000Z</time>
      </trkpt>
      <trkpt lat="47.52304" lon="6.71184">
        <ele>379.1</ele>
        <time>2014-11-09T11:02:05.000Z</time>
      </trkpt>
      <trkpt lat="47.52301" lon="6.71188">
        <ele>379.5</ele>
        <time>2014-11-09T11:02:06.000Z</time>
      </trkpt>
      <trkpt lat="47.52299" lon="6.71192">
        <ele>380.1</ele>
        <time>2014-11-09T11:02:07.000Z</time>
      </trkpt>
      <trkpt lat="47.52296" lon="6.71195">
        <ele>380.2</ele>
        <time>2014-11-09T11:02:08.000Z</time>
      </trkpt>
      <trkpt lat="47.52294" lon="6.71198">
        <ele>380.7</ele>
        <time>2014-11-09T11:02:09.000Z</time>
      </trkpt>
      <trkpt lat="47.52292" lon="6.71201">
        <ele>381</ele>
        <time>2014-11-09T11:02:10.000Z</time>
      </trkpt>
      <trkpt lat="47.52289" lon="6.71204">
        <ele>381.4</ele>
        <time>2014-11-09T11:02:11.000Z</time>
      </trkpt>
      <trkpt lat="47.52287" lon="6.71206">
        <ele>382.1</ele>
        <time>2014-11-09T11:02:12.000Z</time>
      </trkpt>
      <trkpt lat="47.52285" lon="6.71208">
        <ele>382.3</ele>
        <time>2014-11-09T11:02:13.000Z</time>
      </trkpt>
      <trkpt lat="47.52282" lon="6.7121">
        <ele>381.9</ele>
        <time>2014-11-09T11:02:14.000Z</time>
      </trkpt>
      <trkpt lat="47.5228" lon="6.71211">
        <ele>381.9</ele>
        <time>2014-11-09T11:02:15.000Z</time>
      </trkpt>
      <trkpt lat="47.52277" lon="6.71212">
        <ele>381.3</ele>
        <time>2014-11-09T11:02:16.000Z</time>
      </trkpt>
      <trkpt lat="47.52275" lon="6.71211">
        <ele>381.4</ele>
        <time>2014-11-09T11:02:17.000Z</time>
      </trkpt>
      <trkpt lat="47.52272" lon="6.71209">
        <ele>381.8</ele>
        <time>2014-11-09T11:02:18.000Z</time>
      </trkpt>
      <trkpt lat="47.5227" lon="6.71206">
        <ele>381</ele>
        <time>2014-11-09T11:02:19.000Z</time>
      </trkpt>
      <trkpt lat="47.52267" lon="6.71203">
        <ele>380.6</ele>
        <time>2014-11-09T11:02:20.000Z</time>
      </trkpt>
      <trkpt lat="47.52265" lon="6.71199">
        <ele>379.8</ele>
        <time>2014-11-09T11:02:21.000Z</time>
      </trkpt>
      <trkpt lat="47.52264" lon="6.71196">
        <ele>379.9</ele>
        <time>2014-11-09T11:02:22.000Z</time>
      </trkpt>
      <trkpt lat="47.52262" lon="6.71194">
        <ele>379.9</ele>
        <time>2014-11-09T11:02:23.000Z</time>
      </trkpt>
      <trkpt lat="47.52259" lon="6.7119">
        <ele>380.9</ele>
        <time>2014-11-09T11:02:25.000Z</time>
      </trkpt>
      <trkpt lat="47.52257" lon="6.71188">
        <ele>380.5</ele>
        <time>2014-11-09T11:02:26.000Z</time>
      </trkpt>
      <trkpt lat="47.52256" lon="6.71185">
        <ele>380.3</ele>
        <time>2014-11-09T11:02:27.000Z</time>
      </trkpt>
      <trkpt lat="47.52253" lon="6.71183">
        <ele>381.1</ele>
        <time>2014-11-09T11:02:28.000Z</time>
      </trkpt>
      <trkpt lat="47.52251" lon="6.7118">
        <ele>381.6</ele>
        <time>2014-11-09T11:02:29.000Z</time>
      </trkpt>
      <trkpt lat="47.52248" lon="6.71178">
        <ele>381.1</ele>
        <time>2014-11-09T11:02:30.000Z</time>
      </trkpt>
      <trkpt lat="47.52246" lon="6.71174">
        <ele>381</ele>
        <time>2014-11-09T11:02:31.000Z</time>
      </trkpt>
      <trkpt lat="47.52243" lon="6.7117">
        <ele>380.3</ele>
        <time>2014-11-09T11:02:32.000Z</time>
      </trkpt>
      <trkpt lat="47.52241" lon="6.71165">
        <ele>379.7</ele>
        <time>2014-11-09T11:02:33.000Z</time>
      </trkpt>
      <trkpt lat="47.52238" lon="6.71161">
        <ele>380.1</ele>
        <time>2014-11-09T11:02:34.000Z</time>
      </trkpt>
      <trkpt lat="47.52232" lon="6.71153">
        <ele>379.6</ele>
        <time>2014-11-09T11:02:35.000Z</time>
      </trkpt>
      <trkpt lat="47.5223" lon="6.71148">
        <ele>380</ele>
        <time>2014-11-09T11:02:36.000Z</time>
      </trkpt>
      <trkpt lat="47.52226" lon="6.71142">
        <ele>379.3</ele>
        <time>2014-11-09T11:02:37.000Z</time>
      </trkpt>
      <trkpt lat="47.52223" lon="6.71136">
        <ele>379.6</ele>
        <time>2014-11-09T11:02:38.000Z</time>
      </trkpt>
      <trkpt lat="47.5222" lon="6.71131">
        <ele>380.4</ele>
        <time>2014-11-09T11:02:39.000Z</time>
      </trkpt>
      <trkpt lat="47.52217" lon="6.71125">
        <ele>381.1</ele>
        <time>2014-11-09T11:02:40.000Z</time>
      </trkpt>
      <trkpt lat="47.52212" lon="6.7112">
        <ele>379.6</ele>
        <time>2014-11-09T11:02:41.000Z</time>
      </trkpt>
      <trkpt lat="47.52208" lon="6.71115">
        <ele>379.4</ele>
        <time>2014-11-09T11:02:42.081Z</time>
      </trkpt>
      <trkpt lat="47.52204" lon="6.71109">
        <ele>378.8</ele>
        <time>2014-11-09T11:02:43.000Z</time>
      </trkpt>
      <trkpt lat="47.522" lon="6.71104">
        <ele>378.7</ele>
        <time>2014-11-09T11:02:44.000Z</time>
      </trkpt>
      <trkpt lat="47.52195" lon="6.71099">
        <ele>378.6</ele>
        <time>2014-11-09T11:02:45.000Z</time>
      </trkpt>
      <trkpt lat="47.52191" lon="6.71094">
        <ele>378</ele>
        <time>2014-11-09T11:02:46.000Z</time>
      </trkpt>
      <trkpt lat="47.52187" lon="6.71089">
        <ele>379.8</ele>
        <time>2014-11-09T11:02:47.000Z</time>
      </trkpt>
      <trkpt lat="47.52183" lon="6.71085">
        <ele>380.5</ele>
        <time>2014-11-09T11:02:48.000Z</time>
      </trkpt>
      <trkpt lat="47.52179" lon="6.71081">
        <ele>381.1</ele>
        <time>2014-11-09T11:02:49.000Z</time>
      </trkpt>
      <trkpt lat="47.52176" lon="6.71077">
        <ele>381.6</ele>
        <time>2014-11-09T11:02:50.000Z</time>
      </trkpt>
      <trkpt lat="47.52173" lon="6.71074">
        <ele>382.9</ele>
        <time>2014-11-09T11:02:51.000Z</time>
      </trkpt>
      <trkpt lat="47.52171" lon="6.71071">
        <ele>383.7</ele>
        <time>2014-11-09T11:02:52.000Z</time>
      </trkpt>
      <trkpt lat="47.52167" lon="6.71068">
        <ele>383.5</ele>
        <time>2014-11-09T11:02:53.000Z</time>
      </trkpt>
      <trkpt lat="47.52163" lon="6.71065">
        <ele>382.8</ele>
        <time>2014-11-09T11:02:54.000Z</time>
      </trkpt>
      <trkpt lat="47.52159" lon="6.71063">
        <ele>382.7</ele>
        <time>2014-11-09T11:02:55.000Z</time>
      </trkpt>
      <trkpt lat="47.52156" lon="6.7106">
        <ele>382</ele>
        <time>2014-11-09T11:02:56.000Z</time>
      </trkpt>
      <trkpt lat="47.52149" lon="6.71053">
        <ele>381.8</ele>
        <time>2014-11-09T11:02:59.000Z</time>
      </trkpt>
      <trkpt lat="47.52145" lon="6.7105">
        <ele>383.1</ele>
        <time>2014-11-09T11:03:00.000Z</time>
      </trkpt>
      <trkpt lat="47.52142" lon="6.71047">
        <ele>382.9</ele>
        <time>2014-11-09T11:03:01.000Z</time>
      </trkpt>
      <trkpt lat="47.52138" lon="6.71044">
        <ele>383</ele>
        <time>2014-11-09T11:03:02.000Z</time>
      </trkpt>
      <trkpt lat="47.52134" lon="6.71043">
        <ele>383</ele>
        <time>2014-11-09T11:03:03.000Z</time>
      </trkpt>
      <trkpt lat="47.52131" lon="6.7104">
        <ele>382.5</ele>
        <time>2014-11-09T11:03:04.000Z</time>
      </trkpt>
      <trkpt lat="47.52127" lon="6.71037">
        <ele>382.8</ele>
        <time>2014-11-09T11:03:04.999Z</time>
      </trkpt>
      <trkpt lat="47.52123" lon="6.71033">
        <ele>382.5</ele>
        <time>2014-11-09T11:03:06.000Z</time>
      </trkpt>
      <trkpt lat="47.52119" lon="6.7103">
        <ele>382.9</ele>
        <time>2014-11-09T11:03:07.000Z</time>
      </trkpt>
      <trkpt lat="47.52115" lon="6.71027">
        <ele>382.8</ele>
        <time>2014-11-09T11:03:08.000Z</time>
      </trkpt>
      <trkpt lat="47.52112" lon="6.71023">
        <ele>382.7</ele>
        <time>2014-11-09T11:03:08.999Z</time>
      </trkpt>
      <trkpt lat="47.52109" lon="6.71019">
        <ele>383.4</ele>
        <time>2014-11-09T11:03:10.000Z</time>
      </trkpt>
      <trkpt lat="47.52106" lon="6.71015">
        <ele>384</ele>
        <time>2014-11-09T11:03:11.001Z</time>
      </trkpt>
      <trkpt lat="47.52102" lon="6.71012">
        <ele>383.4</ele>
        <time>2014-11-09T11:03:12.000Z</time>
      </trkpt>
      <trkpt lat="47.52098" lon="6.71009">
        <ele>383.8</ele>
        <time>2014-11-09T11:03:13.000Z</time>
      </trkpt>
      <trkpt lat="47.52094" lon="6.71008">
        <ele>383.8</ele>
        <time>2014-11-09T11:03:14.000Z</time>
      </trkpt>
      <trkpt lat="47.5209" lon="6.71007">
        <ele>383.2</ele>
        <time>2014-11-09T11:03:15.000Z</time>
      </trkpt>
      <trkpt lat="47.52087" lon="6.71006">
        <ele>383.3</ele>
        <time>2014-11-09T11:03:16.000Z</time>
      </trkpt>
      <trkpt lat="47.52083" lon="6.71005">
        <ele>384.3</ele>
        <time>2014-11-09T11:03:17.000Z</time>
      </trkpt>
      <trkpt lat="47.5208" lon="6.71005">
        <ele>384.8</ele>
        <time>2014-11-09T11:03:18.000Z</time>
      </trkpt>
      <trkpt lat="47.52078" lon="6.71004">
        <ele>384.8</ele>
        <time>2014-11-09T11:03:19.000Z</time>
      </trkpt>
      <trkpt lat="47.52075" lon="6.71003">
        <ele>385.7</ele>
        <time>2014-11-09T11:03:20.000Z</time>
      </trkpt>
      <trkpt lat="47.52073" lon="6.71001">
        <ele>386.2</ele>
        <time>2014-11-09T11:03:21.000Z</time>
      </trkpt>
      <trkpt lat="47.5207" lon="6.71">
        <ele>386.8</ele>
        <time>2014-11-09T11:03:22.000Z</time>
      </trkpt>
      <trkpt lat="47.52067" lon="6.70998">
        <ele>387.4</ele>
        <time>2014-11-09T11:03:23.000Z</time>
      </trkpt>
      <trkpt lat="47.52064" lon="6.70997">
        <ele>387</ele>
        <time>2014-11-09T11:03:24.000Z</time>
      </trkpt>
      <trkpt lat="47.52062" lon="6.70995">
        <ele>387.1</ele>
        <time>2014-11-09T11:03:25.000Z</time>
      </trkpt>
      <trkpt lat="47.52059" lon="6.70993">
        <ele>387.7</ele>
        <time>2014-11-09T11:03:26.000Z</time>
      </trkpt>
      <trkpt lat="47.52056" lon="6.70991">
        <ele>387.8</ele>
        <time>2014-11-09T11:03:27.000Z</time>
      </trkpt>
      <trkpt lat="47.52051" lon="6.70989">
        <ele>386.3</ele>
        <time>2014-11-09T11:03:28.000Z</time>
      </trkpt>
      <trkpt lat="47.52048" lon="6.70986">
        <ele>386.2</ele>
        <time>2014-11-09T11:03:29.000Z</time>
      </trkpt>
      <trkpt lat="47.52045" lon="6.70984">
        <ele>385.8</ele>
        <time>2014-11-09T11:03:30.000Z</time>
      </trkpt>
      <trkpt lat="47.52042" lon="6.7098">
        <ele>388.9</ele>
        <time>2014-11-09T11:03:32.000Z</time>
      </trkpt>
      <trkpt lat="47.5204" lon="6.70979">
        <ele>390.5</ele>
        <time>2014-11-09T11:03:33.000Z</time>
      </trkpt>
      <trkpt lat="47.52037" lon="6.70977">
        <ele>392.7</ele>
        <time>2014-11-09T11:03:35.000Z</time>
      </trkpt>
      <trkpt lat="47.52035" lon="6.70976">
        <ele>393.2</ele>
        <time>2014-11-09T11:03:36.000Z</time>
      </trkpt>
      <trkpt lat="47.52031" lon="6.70975">
        <ele>393.5</ele>
        <time>2014-11-09T11:03:37.000Z</time>
      </trkpt>
      <trkpt lat="47.52029" lon="6.70974">
        <ele>393.6</ele>
        <time>2014-11-09T11:03:38.000Z</time>
      </trkpt>
      <trkpt lat="47.52027" lon="6.70973">
        <ele>393.3</ele>
        <time>2014-11-09T11:03:39.000Z</time>
      </trkpt>
      <trkpt lat="47.52024" lon="6.70972">
        <ele>393.5</ele>
        <time>2014-11-09T11:03:40.000Z</time>
      </trkpt>
      <trkpt lat="47.52022" lon="6.7097">
        <ele>393.2</ele>
        <time>2014-11-09T11:03:41.000Z</time>
      </trkpt>
      <trkpt lat="47.52019" lon="6.70969">
        <ele>392.7</ele>
        <time>2014-11-09T11:03:42.000Z</time>
      </trkpt>
      <trkpt lat="47.52016" lon="6.70969">
        <ele>392.8</ele>
        <time>2014-11-09T11:03:43.000Z</time>
      </trkpt>
      <trkpt lat="47.52013" lon="6.70968">
        <ele>393.1</ele>
        <time>2014-11-09T11:03:44.000Z</time>
      </trkpt>
      <trkpt lat="47.5201" lon="6.70968">
        <ele>393.2</ele>
        <time>2014-11-09T11:03:45.000Z</time>
      </trkpt>
      <trkpt lat="47.52008" lon="6.70968">
        <ele>392.8</ele>
        <time>2014-11-09T11:03:46.000Z</time>
      </trkpt>
      <trkpt lat="47.52005" lon="6.70967">
        <ele>392.7</ele>
        <time>2014-11-09T11:03:47.000Z</time>
      </trkpt>
      <trkpt lat="47.52002" lon="6.70968">
        <ele>392.2</ele>
        <time>2014-11-09T11:03:48.000Z</time>
      </trkpt>
      <trkpt lat="47.52" lon="6.70968">
        <ele>392.4</ele>
        <time>2014-11-09T11:03:49.000Z</time>
      </trkpt>
      <trkpt lat="47.51997" lon="6.70969">
        <ele>392.3</ele>
        <time>2014-11-09T11:03:50.000Z</time>
      </trkpt>
      <trkpt lat="47.51994" lon="6.70969">
        <ele>393.3</ele>
        <time>2014-11-09T11:03:51.000Z</time>
      </trkpt>
      <trkpt lat="47.51992" lon="6.70969">
        <ele>393.7</ele>
        <time>2014-11-09T11:03:52.000Z</time>
      </trkpt>
      <trkpt lat="47.5199" lon="6.70968">
        <ele>393.3</ele>
        <time>2014-11-09T11:03:53.000Z</time>
      </trkpt>
      <trkpt lat="47.51987" lon="6.70968">
        <ele>393.1</ele>
        <time>2014-11-09T11:03:54.000Z</time>
      </trkpt>
      <trkpt lat="47.51984" lon="6.70967">
        <ele>392.9</ele>
        <time>2014-11-09T11:03:55.000Z</time>
      </trkpt>
      <trkpt lat="47.51982" lon="6.70967">
        <ele>393.3</ele>
        <time>2014-11-09T11:03:56.000Z</time>
      </trkpt>
      <trkpt lat="47.51976" lon="6.70967">
        <ele>393.6</ele>
        <time>2014-11-09T11:03:59.000Z</time>
      </trkpt>
      <trkpt lat="47.51972" lon="6.70968">
        <ele>393</ele>
        <time>2014-11-09T11:04:01.000Z</time>
      </trkpt>
      <trkpt lat="47.5197" lon="6.70969">
        <ele>393.8</ele>
        <time>2014-11-09T11:04:02.000Z</time>
      </trkpt>
      <trkpt lat="47.51967" lon="6.70971">
        <ele>396</ele>
        <time>2014-11-09T11:04:05.000Z</time>
      </trkpt>
      <trkpt lat="47.51966" lon="6.70972">
        <ele>396</ele>
        <time>2014-11-09T11:04:06.000Z</time>
      </trkpt>
      <trkpt lat="47.51962" lon="6.70973">
        <ele>395.6</ele>
        <time>2014-11-09T11:04:09.000Z</time>
      </trkpt>
      <trkpt lat="47.51961" lon="6.70973">
        <ele>396.3</ele>
        <time>2014-11-09T11:04:10.000Z</time>
      </trkpt>
      <trkpt lat="47.51957" lon="6.70972">
        <ele>399.3</ele>
        <time>2014-11-09T11:04:14.000Z</time>
      </trkpt>
      <trkpt lat="47.51956" lon="6.70972">
        <ele>400</ele>
        <time>2014-11-09T11:04:15.000Z</time>
      </trkpt>
      <trkpt lat="47.51952" lon="6.70972">
        <ele>400.8</ele>
        <time>2014-11-09T11:04:18.000Z</time>
      </trkpt>
      <trkpt lat="47.51951" lon="6.70972">
        <ele>401.8</ele>
        <time>2014-11-09T11:04:19.000Z</time>
      </trkpt>
      <trkpt lat="47.51947" lon="6.70972">
        <ele>403.4</ele>
        <time>2014-11-09T11:04:21.000Z</time>
      </trkpt>
      <trkpt lat="47.51946" lon="6.70972">
        <ele>403.9</ele>
        <time>2014-11-09T11:04:22.000Z</time>
      </trkpt>
      <trkpt lat="47.51942" lon="6.70972">
        <ele>403.1</ele>
        <time>2014-11-09T11:04:24.000Z</time>
      </trkpt>
      <trkpt lat="47.5194" lon="6.70972">
        <ele>402.9</ele>
        <time>2014-11-09T11:04:25.000Z</time>
      </trkpt>
      <trkpt lat="47.51936" lon="6.70973">
        <ele>402.5</ele>
        <time>2014-11-09T11:04:28.000Z</time>
      </trkpt>
      <trkpt lat="47.51935" lon="6.70973">
        <ele>402.6</ele>
        <time>2014-11-09T11:04:29.000Z</time>
      </trkpt>
      <trkpt lat="47.51931" lon="6.70974">
        <ele>400.9</ele>
        <time>2014-11-09T11:04:31.000Z</time>
      </trkpt>
      <trkpt lat="47.51929" lon="6.70974">
        <ele>400.9</ele>
        <time>2014-11-09T11:04:32.000Z</time>
      </trkpt>
      <trkpt lat="47.51925" lon="6.70975">
        <ele>402.2</ele>
        <time>2014-11-09T11:04:35.000Z</time>
      </trkpt>
      <trkpt lat="47.51924" lon="6.70975">
        <ele>402.6</ele>
        <time>2014-11-09T11:04:36.000Z</time>
      </trkpt>
      <trkpt lat="47.51921" lon="6.70976">
        <ele>403.1</ele>
        <time>2014-11-09T11:04:38.000Z</time>
      </trkpt>
      <trkpt lat="47.5192" lon="6.70976">
        <ele>403.3</ele>
        <time>2014-11-09T11:04:39.000Z</time>
      </trkpt>
      <trkpt lat="47.51915" lon="6.70975">
        <ele>404.5</ele>
        <time>2014-11-09T11:04:41.000Z</time>
      </trkpt>
      <trkpt lat="47.51914" lon="6.70975">
        <ele>404.6</ele>
        <time>2014-11-09T11:04:42.000Z</time>
      </trkpt>
      <trkpt lat="47.5191" lon="6.70976">
        <ele>403</ele>
        <time>2014-11-09T11:04:44.000Z</time>
      </trkpt>
      <trkpt lat="47.51908" lon="6.70977">
        <ele>402.7</ele>
        <time>2014-11-09T11:04:45.000Z</time>
      </trkpt>
      <trkpt lat="47.51904" lon="6.70978">
        <ele>405.4</ele>
        <time>2014-11-09T11:04:47.000Z</time>
      </trkpt>
      <trkpt lat="47.51902" lon="6.70978">
        <ele>406.2</ele>
        <time>2014-11-09T11:04:48.000Z</time>
      </trkpt>
      <trkpt lat="47.51899" lon="6.70978">
        <ele>405.5</ele>
        <time>2014-11-09T11:04:50.000Z</time>
      </trkpt>
      <trkpt lat="47.51897" lon="6.70978">
        <ele>405.2</ele>
        <time>2014-11-09T11:04:51.000Z</time>
      </trkpt>
      <trkpt lat="47.51893" lon="6.7098">
        <ele>405.1</ele>
        <time>2014-11-09T11:04:53.000Z</time>
      </trkpt>
      <trkpt lat="47.51891" lon="6.7098">
        <ele>404.8</ele>
        <time>2014-11-09T11:04:54.000Z</time>
      </trkpt>
      <trkpt lat="47.51887" lon="6.70981">
        <ele>404</ele>
        <time>2014-11-09T11:04:56.000Z</time>
      </trkpt>
      <trkpt lat="47.51884" lon="6.70981">
        <ele>403.8</ele>
        <time>2014-11-09T11:04:59.000Z</time>
      </trkpt>
      <trkpt lat="47.51881" lon="6.70982">
        <ele>405.1</ele>
        <time>2014-11-09T11:05:01.001Z</time>
      </trkpt>
      <trkpt lat="47.51879" lon="6.70982">
        <ele>404.2</ele>
        <time>2014-11-09T11:05:02.000Z</time>
      </trkpt>
      <trkpt lat="47.51875" lon="6.70983">
        <ele>405</ele>
        <time>2014-11-09T11:05:04.000Z</time>
      </trkpt>
      <trkpt lat="47.51873" lon="6.70984">
        <ele>405.4</ele>
        <time>2014-11-09T11:05:05.001Z</time>
      </trkpt>
      <trkpt lat="47.5187" lon="6.70985">
        <ele>403.8</ele>
        <time>2014-11-09T11:05:06.000Z</time>
      </trkpt>
      <trkpt lat="47.51868" lon="6.70986">
        <ele>403.3</ele>
        <time>2014-11-09T11:05:07.000Z</time>
      </trkpt>
      <trkpt lat="47.51864" lon="6.70988">
        <ele>402.4</ele>
        <time>2014-11-09T11:05:09.000Z</time>
      </trkpt>
      <trkpt lat="47.51862" lon="6.70989">
        <ele>402.2</ele>
        <time>2014-11-09T11:05:10.000Z</time>
      </trkpt>
      <trkpt lat="47.51858" lon="6.70991">
        <ele>402.5</ele>
        <time>2014-11-09T11:05:12.000Z</time>
      </trkpt>
      <trkpt lat="47.51856" lon="6.70992">
        <ele>403.1</ele>
        <time>2014-11-09T11:05:13.000Z</time>
      </trkpt>
      <trkpt lat="47.51853" lon="6.70993">
        <ele>403.1</ele>
        <time>2014-11-09T11:05:15.000Z</time>
      </trkpt>
      <trkpt lat="47.51851" lon="6.70994">
        <ele>404.3</ele>
        <time>2014-11-09T11:05:16.000Z</time>
      </trkpt>
      <trkpt lat="47.51848" lon="6.70995">
        <ele>405.9</ele>
        <time>2014-11-09T11:05:18.000Z</time>
      </trkpt>
      <trkpt lat="47.51847" lon="6.70995">
        <ele>406</ele>
        <time>2014-11-09T11:05:19.000Z</time>
      </trkpt>
      <trkpt lat="47.51843" lon="6.70995">
        <ele>406.6</ele>
        <time>2014-11-09T11:05:21.000Z</time>
      </trkpt>
      <trkpt lat="47.51842" lon="6.70996">
        <ele>406.9</ele>
        <time>2014-11-09T11:05:22.000Z</time>
      </trkpt>
      <trkpt lat="47.51838" lon="6.70996">
        <ele>407.4</ele>
        <time>2014-11-09T11:05:24.000Z</time>
      </trkpt>
      <trkpt lat="47.51837" lon="6.70996">
        <ele>407.2</ele>
        <time>2014-11-09T11:05:25.000Z</time>
      </trkpt>
      <trkpt lat="47.51833" lon="6.70997">
        <ele>408.4</ele>
        <time>2014-11-09T11:05:28.000Z</time>
      </trkpt>
      <trkpt lat="47.51831" lon="6.70997">
        <ele>408.4</ele>
        <time>2014-11-09T11:05:29.000Z</time>
      </trkpt>
      <trkpt lat="47.51828" lon="6.70997">
        <ele>408.4</ele>
        <time>2014-11-09T11:05:31.000Z</time>
      </trkpt>
      <trkpt lat="47.51826" lon="6.70997">
        <ele>410</ele>
        <time>2014-11-09T11:05:32.000Z</time>
      </trkpt>
      <trkpt lat="47.51823" lon="6.70997">
        <ele>412.6</ele>
        <time>2014-11-09T11:05:33.000Z</time>
      </trkpt>
      <trkpt lat="47.51821" lon="6.70997">
        <ele>413.2</ele>
        <time>2014-11-09T11:05:34.000Z</time>
      </trkpt>
      <trkpt lat="47.51817" lon="6.70998">
        <ele>413.8</ele>
        <time>2014-11-09T11:05:37.000Z</time>
      </trkpt>
      <trkpt lat="47.51816" lon="6.70998">
        <ele>413.8</ele>
        <time>2014-11-09T11:05:38.000Z</time>
      </trkpt>
      <trkpt lat="47.51811" lon="6.70998">
        <ele>417.4</ele>
        <time>2014-11-09T11:05:42.000Z</time>
      </trkpt>
      <trkpt lat="47.5181" lon="6.70997">
        <ele>418.6</ele>
        <time>2014-11-09T11:05:43.000Z</time>
      </trkpt>
      <trkpt lat="47.51807" lon="6.70996">
        <ele>419.1</ele>
        <time>2014-11-09T11:05:46.000Z</time>
      </trkpt>
      <trkpt lat="47.51806" lon="6.70996">
        <ele>419.7</ele>
        <time>2014-11-09T11:05:47.000Z</time>
      </trkpt>
      <trkpt lat="47.51801" lon="6.70997">
        <ele>422.4</ele>
        <time>2014-11-09T11:05:50.000Z</time>
      </trkpt>
      <trkpt lat="47.51801" lon="6.70997">
        <ele>423.3</ele>
        <time>2014-11-09T11:05:51.000Z</time>
      </trkpt>
      <trkpt lat="47.51798" lon="6.70998">
        <ele>422.3</ele>
        <time>2014-11-09T11:05:53.000Z</time>
      </trkpt>
      <trkpt lat="47.51796" lon="6.70999">
        <ele>421.9</ele>
        <time>2014-11-09T11:05:54.000Z</time>
      </trkpt>
      <trkpt lat="47.51792" lon="6.71">
        <ele>422.1</ele>
        <time>2014-11-09T11:05:56.000Z</time>
      </trkpt>
      <trkpt lat="47.5179" lon="6.71001">
        <ele>422</ele>
        <time>2014-11-09T11:05:57.000Z</time>
      </trkpt>
      <trkpt lat="47.5178" lon="6.71002">
        <ele>427.8</ele>
        <time>2014-11-09T11:06:05.000Z</time>
      </trkpt>
      <trkpt lat="47.51776" lon="6.71003">
        <ele>430</ele>
        <time>2014-11-09T11:06:08.000Z</time>
      </trkpt>
      <trkpt lat="47.51775" lon="6.71004">
        <ele>430.3</ele>
        <time>2014-11-09T11:06:09.000Z</time>
      </trkpt>
      <trkpt lat="47.51772" lon="6.71004">
        <ele>430</ele>
        <time>2014-11-09T11:06:11.000Z</time>
      </trkpt>
      <trkpt lat="47.5177" lon="6.71005">
        <ele>429.6</ele>
        <time>2014-11-09T11:06:12.000Z</time>
      </trkpt>
      <trkpt lat="47.51767" lon="6.71006">
        <ele>428.6</ele>
        <time>2014-11-09T11:06:13.000Z</time>
      </trkpt>
      <trkpt lat="47.51765" lon="6.71006">
        <ele>427.9</ele>
        <time>2014-11-09T11:06:14.000Z</time>
      </trkpt>
      <trkpt lat="47.51762" lon="6.71007">
        <ele>427.3</ele>
        <time>2014-11-09T11:06:15.000Z</time>
      </trkpt>
      <trkpt lat="47.51759" lon="6.71007">
        <ele>427.2</ele>
        <time>2014-11-09T11:06:16.000Z</time>
      </trkpt>
      <trkpt lat="47.51757" lon="6.71007">
        <ele>426.3</ele>
        <time>2014-11-09T11:06:17.000Z</time>
      </trkpt>
      <trkpt lat="47.51754" lon="6.71007">
        <ele>425.9</ele>
        <time>2014-11-09T11:06:18.000Z</time>
      </trkpt>
      <trkpt lat="47.51752" lon="6.71008">
        <ele>426</ele>
        <time>2014-11-09T11:06:19.012Z</time>
      </trkpt>
      <trkpt lat="47.51749" lon="6.71008">
        <ele>424.7</ele>
        <time>2014-11-09T11:06:20.000Z</time>
      </trkpt>
      <trkpt lat="47.51744" lon="6.71009">
        <ele>425.4</ele>
        <time>2014-11-09T11:06:22.000Z</time>
      </trkpt>
      <trkpt lat="47.51742" lon="6.71009">
        <ele>425.8</ele>
        <time>2014-11-09T11:06:23.000Z</time>
      </trkpt>
      <trkpt lat="47.51739" lon="6.71009">
        <ele>427</ele>
        <time>2014-11-09T11:06:25.000Z</time>
      </trkpt>
      <trkpt lat="47.51737" lon="6.71008">
        <ele>427.3</ele>
        <time>2014-11-09T11:06:26.000Z</time>
      </trkpt>
      <trkpt lat="47.51732" lon="6.71008">
        <ele>427.7</ele>
        <time>2014-11-09T11:06:28.000Z</time>
      </trkpt>
      <trkpt lat="47.5173" lon="6.71007">
        <ele>427.9</ele>
        <time>2014-11-09T11:06:29.000Z</time>
      </trkpt>
      <trkpt lat="47.51727" lon="6.71007">
        <ele>427.8</ele>
        <time>2014-11-09T11:06:31.000Z</time>
      </trkpt>
      <trkpt lat="47.51725" lon="6.71006">
        <ele>429</ele>
        <time>2014-11-09T11:06:32.000Z</time>
      </trkpt>
      <trkpt lat="47.51721" lon="6.71005">
        <ele>430.1</ele>
        <time>2014-11-09T11:06:34.000Z</time>
      </trkpt>
      <trkpt lat="47.5172" lon="6.71005">
        <ele>430.3</ele>
        <time>2014-11-09T11:06:35.000Z</time>
      </trkpt>
      <trkpt lat="47.51717" lon="6.71003">
        <ele>433</ele>
        <time>2014-11-09T11:06:37.000Z</time>
      </trkpt>
      <trkpt lat="47.51715" lon="6.71002">
        <ele>433.5</ele>
        <time>2014-11-09T11:06:38.000Z</time>
      </trkpt>
      <trkpt lat="47.51712" lon="6.71001">
        <ele>434.8</ele>
        <time>2014-11-09T11:06:40.000Z</time>
      </trkpt>
      <trkpt lat="47.5171" lon="6.71001">
        <ele>434.8</ele>
        <time>2014-11-09T11:06:41.000Z</time>
      </trkpt>
      <trkpt lat="47.51708" lon="6.71">
        <ele>434.6</ele>
        <time>2014-11-09T11:06:42.000Z</time>
      </trkpt>
      <trkpt lat="47.51706" lon="6.70999">
        <ele>434.9</ele>
        <time>2014-11-09T11:06:43.000Z</time>
      </trkpt>
      <trkpt lat="47.51701" lon="6.70998">
        <ele>434.5</ele>
        <time>2014-11-09T11:06:45.000Z</time>
      </trkpt>
      <trkpt lat="47.517" lon="6.70997">
        <ele>433.5</ele>
        <time>2014-11-09T11:06:46.000Z</time>
      </trkpt>
      <trkpt lat="47.51696" lon="6.70996">
        <ele>432.4</ele>
        <time>2014-11-09T11:06:48.000Z</time>
      </trkpt>
      <trkpt lat="47.51693" lon="6.70995">
        <ele>432.5</ele>
        <time>2014-11-09T11:06:49.000Z</time>
      </trkpt>
      <trkpt lat="47.51689" lon="6.70994">
        <ele>433.2</ele>
        <time>2014-11-09T11:06:51.000Z</time>
      </trkpt>
      <trkpt lat="47.51687" lon="6.70993">
        <ele>433.2</ele>
        <time>2014-11-09T11:06:52.000Z</time>
      </trkpt>
      <trkpt lat="47.51685" lon="6.70992">
        <ele>432.9</ele>
        <time>2014-11-09T11:06:53.000Z</time>
      </trkpt>
      <trkpt lat="47.51682" lon="6.70991">
        <ele>434</ele>
        <time>2014-11-09T11:06:54.000Z</time>
      </trkpt>
      <trkpt lat="47.51678" lon="6.70989">
        <ele>434.2</ele>
        <time>2014-11-09T11:06:56.000Z</time>
      </trkpt>
      <trkpt lat="47.51674" lon="6.70986">
        <ele>434.6</ele>
        <time>2014-11-09T11:06:59.000Z</time>
      </trkpt>
      <trkpt lat="47.51671" lon="6.70983">
        <ele>439.4</ele>
        <time>2014-11-09T11:07:01.000Z</time>
      </trkpt>
      <trkpt lat="47.5167" lon="6.70982">
        <ele>440.2</ele>
        <time>2014-11-09T11:07:02.000Z</time>
      </trkpt>
      <trkpt lat="47.51666" lon="6.70979">
        <ele>441.8</ele>
        <time>2014-11-09T11:07:04.000Z</time>
      </trkpt>
      <trkpt lat="47.51664" lon="6.70978">
        <ele>441.2</ele>
        <time>2014-11-09T11:07:05.000Z</time>
      </trkpt>
      <trkpt lat="47.51661" lon="6.70977">
        <ele>441.5</ele>
        <time>2014-11-09T11:07:06.000Z</time>
      </trkpt>
      <trkpt lat="47.51659" lon="6.70976">
        <ele>442.5</ele>
        <time>2014-11-09T11:07:07.000Z</time>
      </trkpt>
      <trkpt lat="47.51656" lon="6.70975">
        <ele>442.9</ele>
        <time>2014-11-09T11:07:08.000Z</time>
      </trkpt>
      <trkpt lat="47.51654" lon="6.70974">
        <ele>443.2</ele>
        <time>2014-11-09T11:07:09.000Z</time>
      </trkpt>
      <trkpt lat="47.5165" lon="6.70972">
        <ele>443.3</ele>
        <time>2014-11-09T11:07:11.000Z</time>
      </trkpt>
      <trkpt lat="47.51648" lon="6.70971">
        <ele>444.7</ele>
        <time>2014-11-09T11:07:12.000Z</time>
      </trkpt>
      <trkpt lat="47.51645" lon="6.70969">
        <ele>443.9</ele>
        <time>2014-11-09T11:07:14.000Z</time>
      </trkpt>
      <trkpt lat="47.51643" lon="6.70968">
        <ele>443.3</ele>
        <time>2014-11-09T11:07:15.000Z</time>
      </trkpt>
      <trkpt lat="47.51639" lon="6.70966">
        <ele>445.8</ele>
        <time>2014-11-09T11:07:17.000Z</time>
      </trkpt>
      <trkpt lat="47.51637" lon="6.70965">
        <ele>446.9</ele>
        <time>2014-11-09T11:07:18.000Z</time>
      </trkpt>
      <trkpt lat="47.51634" lon="6.70963">
        <ele>449.1</ele>
        <time>2014-11-09T11:07:20.000Z</time>
      </trkpt>
      <trkpt lat="47.51633" lon="6.70962">
        <ele>449.3</ele>
        <time>2014-11-09T11:07:21.000Z</time>
      </trkpt>
      <trkpt lat="47.51629" lon="6.70961">
        <ele>450.2</ele>
        <time>2014-11-09T11:07:23.000Z</time>
      </trkpt>
      <trkpt lat="47.51627" lon="6.7096">
        <ele>451.8</ele>
        <time>2014-11-09T11:07:24.000Z</time>
      </trkpt>
      <trkpt lat="47.51623" lon="6.70959">
        <ele>455.1</ele>
        <time>2014-11-09T11:07:27.000Z</time>
      </trkpt>
      <trkpt lat="47.51622" lon="6.70958">
        <ele>455.9</ele>
        <time>2014-11-09T11:07:28.000Z</time>
      </trkpt>
      <trkpt lat="47.51619" lon="6.70956">
        <ele>456.4</ele>
        <time>2014-11-09T11:07:30.000Z</time>
      </trkpt>
      <trkpt lat="47.51617" lon="6.70956">
        <ele>455.3</ele>
        <time>2014-11-09T11:07:31.000Z</time>
      </trkpt>
      <trkpt lat="47.51613" lon="6.70955">
        <ele>455.7</ele>
        <time>2014-11-09T11:07:33.000Z</time>
      </trkpt>
      <trkpt lat="47.51612" lon="6.70955">
        <ele>455.7</ele>
        <time>2014-11-09T11:07:34.000Z</time>
      </trkpt>
      <trkpt lat="47.51608" lon="6.70954">
        <ele>456.6</ele>
        <time>2014-11-09T11:07:42.000Z</time>
      </trkpt>
      <trkpt lat="47.51606" lon="6.70953">
        <ele>457.5</ele>
        <time>2014-11-09T11:07:43.000Z</time>
      </trkpt>
      <trkpt lat="47.51603" lon="6.70952">
        <ele>457.4</ele>
        <time>2014-11-09T11:07:46.000Z</time>
      </trkpt>
      <trkpt lat="47.51601" lon="6.70951">
        <ele>457.4</ele>
        <time>2014-11-09T11:07:47.000Z</time>
      </trkpt>
      <trkpt lat="47.51596" lon="6.70951">
        <ele>457</ele>
        <time>2014-11-09T11:07:52.000Z</time>
      </trkpt>
      <trkpt lat="47.51596" lon="6.70951">
        <ele>457</ele>
        <time>2014-11-09T11:07:53.000Z</time>
      </trkpt>
      <trkpt lat="47.51592" lon="6.70949">
        <ele>457.2</ele>
        <time>2014-11-09T11:08:04.000Z</time>
      </trkpt>
      <trkpt lat="47.51591" lon="6.70948">
        <ele>457.5</ele>
        <time>2014-11-09T11:08:05.000Z</time>
      </trkpt>
      <trkpt lat="47.51588" lon="6.70947">
        <ele>457.8</ele>
        <time>2014-11-09T11:08:07.000Z</time>
      </trkpt>
      <trkpt lat="47.51586" lon="6.70946">
        <ele>457.9</ele>
        <time>2014-11-09T11:08:08.000Z</time>
      </trkpt>
      <trkpt lat="47.51583" lon="6.70946">
        <ele>457.4</ele>
        <time>2014-11-09T11:08:09.000Z</time>
      </trkpt>
      <trkpt lat="47.51581" lon="6.70946">
        <ele>456.4</ele>
        <time>2014-11-09T11:08:10.000Z</time>
      </trkpt>
      <trkpt lat="47.51578" lon="6.70945">
        <ele>456.2</ele>
        <time>2014-11-09T11:08:11.000Z</time>
      </trkpt>
      <trkpt lat="47.51575" lon="6.70945">
        <ele>455.2</ele>
        <time>2014-11-09T11:08:12.000Z</time>
      </trkpt>
      <trkpt lat="47.51572" lon="6.70945">
        <ele>455.3</ele>
        <time>2014-11-09T11:08:13.000Z</time>
      </trkpt>
      <trkpt lat="47.51569" lon="6.70944">
        <ele>455.5</ele>
        <time>2014-11-09T11:08:14.000Z</time>
      </trkpt>
      <trkpt lat="47.51566" lon="6.70942">
        <ele>455.1</ele>
        <time>2014-11-09T11:08:15.000Z</time>
      </trkpt>
      <trkpt lat="47.51563" lon="6.70941">
        <ele>455.3</ele>
        <time>2014-11-09T11:08:16.000Z</time>
      </trkpt>
      <trkpt lat="47.51559" lon="6.7094">
        <ele>455</ele>
        <time>2014-11-09T11:08:17.000Z</time>
      </trkpt>
      <trkpt lat="47.51556" lon="6.70939">
        <ele>454.7</ele>
        <time>2014-11-09T11:08:18.000Z</time>
      </trkpt>
      <trkpt lat="47.51552" lon="6.70938">
        <ele>454.1</ele>
        <time>2014-11-09T11:08:19.000Z</time>
      </trkpt>
      <trkpt lat="47.51549" lon="6.70937">
        <ele>453.5</ele>
        <time>2014-11-09T11:08:20.000Z</time>
      </trkpt>
      <trkpt lat="47.51545" lon="6.70936">
        <ele>453.1</ele>
        <time>2014-11-09T11:08:21.000Z</time>
      </trkpt>
      <trkpt lat="47.51541" lon="6.70935">
        <ele>454.1</ele>
        <time>2014-11-09T11:08:22.000Z</time>
      </trkpt>
      <trkpt lat="47.51538" lon="6.70935">
        <ele>454.6</ele>
        <time>2014-11-09T11:08:23.000Z</time>
      </trkpt>
      <trkpt lat="47.51534" lon="6.70935">
        <ele>455.5</ele>
        <time>2014-11-09T11:08:24.000Z</time>
      </trkpt>
      <trkpt lat="47.51531" lon="6.70934">
        <ele>456</ele>
        <time>2014-11-09T11:08:25.000Z</time>
      </trkpt>
      <trkpt lat="47.51527" lon="6.70934">
        <ele>456.7</ele>
        <time>2014-11-09T11:08:26.000Z</time>
      </trkpt>
      <trkpt lat="47.51524" lon="6.70934">
        <ele>457</ele>
        <time>2014-11-09T11:08:27.000Z</time>
      </trkpt>
      <trkpt lat="47.51519" lon="6.70933">
        <ele>457.6</ele>
        <time>2014-11-09T11:08:28.000Z</time>
      </trkpt>
      <trkpt lat="47.51515" lon="6.70932">
        <ele>458.4</ele>
        <time>2014-11-09T11:08:29.000Z</time>
      </trkpt>
      <trkpt lat="47.51511" lon="6.7093">
        <ele>459.3</ele>
        <time>2014-11-09T11:08:30.000Z</time>
      </trkpt>
      <trkpt lat="47.51508" lon="6.70929">
        <ele>459</ele>
        <time>2014-11-09T11:08:31.000Z</time>
      </trkpt>
      <trkpt lat="47.51505" lon="6.70928">
        <ele>458.9</ele>
        <time>2014-11-09T11:08:32.000Z</time>
      </trkpt>
      <trkpt lat="47.51502" lon="6.70927">
        <ele>458.7</ele>
        <time>2014-11-09T11:08:33.000Z</time>
      </trkpt>
      <trkpt lat="47.515" lon="6.70926">
        <ele>458.1</ele>
        <time>2014-11-09T11:08:34.000Z</time>
      </trkpt>
      <trkpt lat="47.51497" lon="6.70925">
        <ele>458.5</ele>
        <time>2014-11-09T11:08:35.000Z</time>
      </trkpt>
      <trkpt lat="47.51495" lon="6.70924">
        <ele>457.2</ele>
        <time>2014-11-09T11:08:36.000Z</time>
      </trkpt>
      <trkpt lat="47.5149" lon="6.70922">
        <ele>457.5</ele>
        <time>2014-11-09T11:08:37.000Z</time>
      </trkpt>
      <trkpt lat="47.51487" lon="6.70921">
        <ele>457.4</ele>
        <time>2014-11-09T11:08:38.000Z</time>
      </trkpt>
      <trkpt lat="47.51486" lon="6.7092">
        <ele>457.5</ele>
        <time>2014-11-09T11:08:39.000Z</time>
      </trkpt>
      <trkpt lat="47.51482" lon="6.70919">
        <ele>459.5</ele>
        <time>2014-11-09T11:08:42.000Z</time>
      </trkpt>
      <trkpt lat="47.51481" lon="6.70918">
        <ele>460.2</ele>
        <time>2014-11-09T11:08:43.000Z</time>
      </trkpt>
      <trkpt lat="47.51478" lon="6.70916">
        <ele>462.1</ele>
        <time>2014-11-09T11:08:45.000Z</time>
      </trkpt>
      <trkpt lat="47.51476" lon="6.70915">
        <ele>462.9</ele>
        <time>2014-11-09T11:08:46.000Z</time>
      </trkpt>
      <trkpt lat="47.51473" lon="6.70914">
        <ele>462.3</ele>
        <time>2014-11-09T11:08:48.000Z</time>
      </trkpt>
      <trkpt lat="47.5147" lon="6.70913">
        <ele>461.7</ele>
        <time>2014-11-09T11:08:49.000Z</time>
      </trkpt>
      <trkpt lat="47.51468" lon="6.70913">
        <ele>462.5</ele>
        <time>2014-11-09T11:08:50.000Z</time>
      </trkpt>
      <trkpt lat="47.51466" lon="6.70912">
        <ele>463.2</ele>
        <time>2014-11-09T11:08:51.000Z</time>
      </trkpt>
      <trkpt lat="47.51462" lon="6.70911">
        <ele>464.2</ele>
        <time>2014-11-09T11:08:53.000Z</time>
      </trkpt>
      <trkpt lat="47.51461" lon="6.7091">
        <ele>465.2</ele>
        <time>2014-11-09T11:08:54.000Z</time>
      </trkpt>
      <trkpt lat="47.51458" lon="6.70909">
        <ele>464.7</ele>
        <time>2014-11-09T11:08:56.000Z</time>
      </trkpt>
      <trkpt lat="47.51456" lon="6.70908">
        <ele>465.1</ele>
        <time>2014-11-09T11:08:57.000Z</time>
      </trkpt>
      <trkpt lat="47.51451" lon="6.70908">
        <ele>465.1</ele>
        <time>2014-11-09T11:09:00.000Z</time>
      </trkpt>
      <trkpt lat="47.5145" lon="6.70907">
        <ele>464.8</ele>
        <time>2014-11-09T11:09:01.000Z</time>
      </trkpt>
      <trkpt lat="47.51446" lon="6.70907">
        <ele>465.2</ele>
        <time>2014-11-09T11:09:03.000Z</time>
      </trkpt>
      <trkpt lat="47.51444" lon="6.70906">
        <ele>464</ele>
        <time>2014-11-09T11:09:04.000Z</time>
      </trkpt>
      <trkpt lat="47.51442" lon="6.70906">
        <ele>463.3</ele>
        <time>2014-11-09T11:09:05.000Z</time>
      </trkpt>
      <trkpt lat="47.5144" lon="6.70905">
        <ele>463</ele>
        <time>2014-11-09T11:09:06.000Z</time>
      </trkpt>
      <trkpt lat="47.51437" lon="6.70903">
        <ele>465.4</ele>
        <time>2014-11-09T11:09:07.000Z</time>
      </trkpt>
      <trkpt lat="47.51435" lon="6.70902">
        <ele>468</ele>
        <time>2014-11-09T11:09:08.000Z</time>
      </trkpt>
      <trkpt lat="47.51431" lon="6.70899">
        <ele>470.3</ele>
        <time>2014-11-09T11:09:10.000Z</time>
      </trkpt>
      <trkpt lat="47.51429" lon="6.70898">
        <ele>470</ele>
        <time>2014-11-09T11:09:11.000Z</time>
      </trkpt>
      <trkpt lat="47.51427" lon="6.70897">
        <ele>472.5</ele>
        <time>2014-11-09T11:09:12.000Z</time>
      </trkpt>
      <trkpt lat="47.51425" lon="6.70895">
        <ele>474</ele>
        <time>2014-11-09T11:09:13.000Z</time>
      </trkpt>
      <trkpt lat="47.51423" lon="6.70894">
        <ele>473.7</ele>
        <time>2014-11-09T11:09:14.000Z</time>
      </trkpt>
      <trkpt lat="47.51421" lon="6.70893">
        <ele>474.1</ele>
        <time>2014-11-09T11:09:15.000Z</time>
      </trkpt>
      <trkpt lat="47.51418" lon="6.70892">
        <ele>473.7</ele>
        <time>2014-11-09T11:09:16.000Z</time>
      </trkpt>
      <trkpt lat="47.51415" lon="6.70891">
        <ele>472.8</ele>
        <time>2014-11-09T11:09:17.000Z</time>
      </trkpt>
      <trkpt lat="47.51412" lon="6.7089">
        <ele>472.6</ele>
        <time>2014-11-09T11:09:18.000Z</time>
      </trkpt>
      <trkpt lat="47.5141" lon="6.7089">
        <ele>473</ele>
        <time>2014-11-09T11:09:19.000Z</time>
      </trkpt>
      <trkpt lat="47.51406" lon="6.70889">
        <ele>474.5</ele>
        <time>2014-11-09T11:09:21.000Z</time>
      </trkpt>
      <trkpt lat="47.51404" lon="6.70889">
        <ele>475.7</ele>
        <time>2014-11-09T11:09:22.000Z</time>
      </trkpt>
      <trkpt lat="47.51401" lon="6.70888">
        <ele>479.3</ele>
        <time>2014-11-09T11:09:24.000Z</time>
      </trkpt>
      <trkpt lat="47.514" lon="6.70888">
        <ele>480.6</ele>
        <time>2014-11-09T11:09:25.000Z</time>
      </trkpt>
      <trkpt lat="47.51397" lon="6.70887">
        <ele>479.6</ele>
        <time>2014-11-09T11:09:27.000Z</time>
      </trkpt>
      <trkpt lat="47.51395" lon="6.70887">
        <ele>479</ele>
        <time>2014-11-09T11:09:28.000Z</time>
      </trkpt>
      <trkpt lat="47.51391" lon="6.70887">
        <ele>482.4</ele>
        <time>2014-11-09T11:09:30.000Z</time>
      </trkpt>
      <trkpt lat="47.5139" lon="6.70886">
        <ele>483.2</ele>
        <time>2014-11-09T11:09:31.000Z</time>
      </trkpt>
      <trkpt lat="47.51387" lon="6.70885">
        <ele>483.2</ele>
        <time>2014-11-09T11:09:33.000Z</time>
      </trkpt>
      <trkpt lat="47.51385" lon="6.70884">
        <ele>483.9</ele>
        <time>2014-11-09T11:09:34.000Z</time>
      </trkpt>
      <trkpt lat="47.51381" lon="6.70883">
        <ele>484.6</ele>
        <time>2014-11-09T11:09:36.000Z</time>
      </trkpt>
      <trkpt lat="47.5138" lon="6.70882">
        <ele>485.2</ele>
        <time>2014-11-09T11:09:37.000Z</time>
      </trkpt>
      <trkpt lat="47.51376" lon="6.7088">
        <ele>485.6</ele>
        <time>2014-11-09T11:09:39.000Z</time>
      </trkpt>
      <trkpt lat="47.51375" lon="6.7088">
        <ele>486.6</ele>
        <time>2014-11-09T11:09:40.000Z</time>
      </trkpt>
      <trkpt lat="47.51371" lon="6.70879">
        <ele>488.5</ele>
        <time>2014-11-09T11:09:42.000Z</time>
      </trkpt>
      <trkpt lat="47.51369" lon="6.70879">
        <ele>488.1</ele>
        <time>2014-11-09T11:09:43.000Z</time>
      </trkpt>
      <trkpt lat="47.51366" lon="6.70878">
        <ele>489.5</ele>
        <time>2014-11-09T11:09:45.000Z</time>
      </trkpt>
      <trkpt lat="47.51364" lon="6.70878">
        <ele>490</ele>
        <time>2014-11-09T11:09:46.000Z</time>
      </trkpt>
      <trkpt lat="47.51361" lon="6.70877">
        <ele>491</ele>
        <time>2014-11-09T11:09:48.000Z</time>
      </trkpt>
      <trkpt lat="47.51359" lon="6.70876">
        <ele>490.9</ele>
        <time>2014-11-09T11:09:49.000Z</time>
      </trkpt>
      <trkpt lat="47.51355" lon="6.70876">
        <ele>491.8</ele>
        <time>2014-11-09T11:09:51.000Z</time>
      </trkpt>
      <trkpt lat="47.51353" lon="6.70876">
        <ele>491.1</ele>
        <time>2014-11-09T11:09:52.000Z</time>
      </trkpt>
      <trkpt lat="47.51349" lon="6.70876">
        <ele>490</ele>
        <time>2014-11-09T11:09:54.000Z</time>
      </trkpt>
      <trkpt lat="47.51347" lon="6.70877">
        <ele>489.7</ele>
        <time>2014-11-09T11:09:55.000Z</time>
      </trkpt>
      <trkpt lat="47.51343" lon="6.70877">
        <ele>489.5</ele>
        <time>2014-11-09T11:09:57.000Z</time>
      </trkpt>
      <trkpt lat="47.51338" lon="6.70877">
        <ele>491.1</ele>
        <time>2014-11-09T11:10:00.000Z</time>
      </trkpt>
      <trkpt lat="47.51335" lon="6.70877">
        <ele>489.6</ele>
        <time>2014-11-09T11:10:02.000Z</time>
      </trkpt>
      <trkpt lat="47.51333" lon="6.70877">
        <ele>487.4</ele>
        <time>2014-11-09T11:10:03.000Z</time>
      </trkpt>
      <trkpt lat="47.51331" lon="6.70878">
        <ele>485.7</ele>
        <time>2014-11-09T11:10:04.000Z</time>
      </trkpt>
      <trkpt lat="47.51328" lon="6.70878">
        <ele>483.9</ele>
        <time>2014-11-09T11:10:05.000Z</time>
      </trkpt>
      <trkpt lat="47.51325" lon="6.70879">
        <ele>481.5</ele>
        <time>2014-11-09T11:10:06.000Z</time>
      </trkpt>
      <trkpt lat="47.51322" lon="6.7088">
        <ele>480.2</ele>
        <time>2014-11-09T11:10:07.000Z</time>
      </trkpt>
      <trkpt lat="47.5132" lon="6.70881">
        <ele>479.9</ele>
        <time>2014-11-09T11:10:08.000Z</time>
      </trkpt>
      <trkpt lat="47.51317" lon="6.70882">
        <ele>479.5</ele>
        <time>2014-11-09T11:10:09.000Z</time>
      </trkpt>
      <trkpt lat="47.51315" lon="6.70883">
        <ele>479.8</ele>
        <time>2014-11-09T11:10:10.000Z</time>
      </trkpt>
      <trkpt lat="47.51313" lon="6.70884">
        <ele>478.4</ele>
        <time>2014-11-09T11:10:11.000Z</time>
      </trkpt>
      <trkpt lat="47.51309" lon="6.70885">
        <ele>477.5</ele>
        <time>2014-11-09T11:10:13.000Z</time>
      </trkpt>
      <trkpt lat="47.51307" lon="6.70885">
        <ele>477.8</ele>
        <time>2014-11-09T11:10:14.000Z</time>
      </trkpt>
      <trkpt lat="47.51311" lon="6.70887">
        <ele>478.7</ele>
        <time>2014-11-09T11:10:30.000Z</time>
      </trkpt>
      <trkpt lat="47.51312" lon="6.70886">
        <ele>479.1</ele>
        <time>2014-11-09T11:10:31.000Z</time>
      </trkpt>
      <trkpt lat="47.51308" lon="6.70883">
        <ele>478.2</ele>
        <time>2014-11-09T11:10:36.000Z</time>
      </trkpt>
      <trkpt lat="47.51307" lon="6.70883">
        <ele>477.5</ele>
        <time>2014-11-09T11:10:37.000Z</time>
      </trkpt>
      <trkpt lat="47.51303" lon="6.70885">
        <ele>475.5</ele>
        <time>2014-11-09T11:10:39.000Z</time>
      </trkpt>
      <trkpt lat="47.51301" lon="6.70885">
        <ele>475</ele>
        <time>2014-11-09T11:10:40.000Z</time>
      </trkpt>
      <trkpt lat="47.51297" lon="6.70887">
        <ele>471.6</ele>
        <time>2014-11-09T11:10:43.000Z</time>
      </trkpt>
      <trkpt lat="47.51296" lon="6.70888">
        <ele>471.4</ele>
        <time>2014-11-09T11:10:44.000Z</time>
      </trkpt>
      <trkpt lat="47.51292" lon="6.70889">
        <ele>471.3</ele>
        <time>2014-11-09T11:10:48.000Z</time>
      </trkpt>
      <trkpt lat="47.51292" lon="6.70889">
        <ele>471.7</ele>
        <time>2014-11-09T11:10:49.000Z</time>
      </trkpt>
      <trkpt lat="47.51288" lon="6.70886">
        <ele>471.5</ele>
        <time>2014-11-09T11:10:54.000Z</time>
      </trkpt>
      <trkpt lat="47.51287" lon="6.70886">
        <ele>472.9</ele>
        <time>2014-11-09T11:10:55.000Z</time>
      </trkpt>
      <trkpt lat="47.51285" lon="6.70885">
        <ele>472.8</ele>
        <time>2014-11-09T11:10:57.000Z</time>
      </trkpt>
      <trkpt lat="47.51279" lon="6.70889">
        <ele>474</ele>
        <time>2014-11-09T11:11:05.000Z</time>
      </trkpt>
      <trkpt lat="47.51277" lon="6.70893">
        <ele>472.2</ele>
        <time>2014-11-09T11:11:08.000Z</time>
      </trkpt>
      <trkpt lat="47.51275" lon="6.70894">
        <ele>472.2</ele>
        <time>2014-11-09T11:11:09.000Z</time>
      </trkpt>
      <trkpt lat="47.51273" lon="6.70896">
        <ele>470.3</ele>
        <time>2014-11-09T11:11:11.000Z</time>
      </trkpt>
      <trkpt lat="47.51271" lon="6.70897">
        <ele>471.5</ele>
        <time>2014-11-09T11:11:12.000Z</time>
      </trkpt>
      <trkpt lat="47.51268" lon="6.70899">
        <ele>471.2</ele>
        <time>2014-11-09T11:11:14.000Z</time>
      </trkpt>
      <trkpt lat="47.51266" lon="6.70901">
        <ele>471</ele>
        <time>2014-11-09T11:11:15.000Z</time>
      </trkpt>
      <trkpt lat="47.51263" lon="6.70903">
        <ele>473.2</ele>
        <time>2014-11-09T11:11:19.000Z</time>
      </trkpt>
      <trkpt lat="47.51262" lon="6.70904">
        <ele>473.3</ele>
        <time>2014-11-09T11:11:20.000Z</time>
      </trkpt>
      <trkpt lat="47.51261" lon="6.7091">
        <ele>475.3</ele>
        <time>2014-11-09T11:11:24.000Z</time>
      </trkpt>
      <trkpt lat="47.51261" lon="6.70912">
        <ele>476</ele>
        <time>2014-11-09T11:11:25.000Z</time>
      </trkpt>
      <trkpt lat="47.51259" lon="6.70918">
        <ele>479</ele>
        <time>2014-11-09T11:11:30.000Z</time>
      </trkpt>
      <trkpt lat="47.51259" lon="6.70919">
        <ele>479.3</ele>
        <time>2014-11-09T11:11:31.000Z</time>
      </trkpt>
      <trkpt lat="47.51258" lon="6.70926">
        <ele>483.7</ele>
        <time>2014-11-09T11:11:35.000Z</time>
      </trkpt>
      <trkpt lat="47.51258" lon="6.70927">
        <ele>483.8</ele>
        <time>2014-11-09T11:11:36.000Z</time>
      </trkpt>
      <trkpt lat="47.51257" lon="6.70933">
        <ele>484.2</ele>
        <time>2014-11-09T11:11:40.000Z</time>
      </trkpt>
      <trkpt lat="47.51257" lon="6.70934">
        <ele>484.5</ele>
        <time>2014-11-09T11:11:41.017Z</time>
      </trkpt>
      <trkpt lat="47.51258" lon="6.7094">
        <ele>483</ele>
        <time>2014-11-09T11:11:44.000Z</time>
      </trkpt>
      <trkpt lat="47.51258" lon="6.70942">
        <ele>482.6</ele>
        <time>2014-11-09T11:11:45.000Z</time>
      </trkpt>
      <trkpt lat="47.51257" lon="6.70947">
        <ele>482</ele>
        <time>2014-11-09T11:12:27.000Z</time>
      </trkpt>
      <trkpt lat="47.51257" lon="6.70949">
        <ele>482.1</ele>
        <time>2014-11-09T11:12:28.000Z</time>
      </trkpt>
      <trkpt lat="47.51256" lon="6.70954">
        <ele>484.7</ele>
        <time>2014-11-09T11:12:29.000Z</time>
      </trkpt>
      <trkpt lat="47.51256" lon="6.70959">
        <ele>484.4</ele>
        <time>2014-11-09T11:12:30.000Z</time>
      </trkpt>
      <trkpt lat="47.51255" lon="6.70964">
        <ele>486.2</ele>
        <time>2014-11-09T11:12:31.000Z</time>
      </trkpt>
      <trkpt lat="47.51255" lon="6.70969">
        <ele>486.5</ele>
        <time>2014-11-09T11:12:32.000Z</time>
      </trkpt>
      <trkpt lat="47.51255" lon="6.70974">
        <ele>486.2</ele>
        <time>2014-11-09T11:12:33.000Z</time>
      </trkpt>
      <trkpt lat="47.51255" lon="6.70979">
        <ele>486.3</ele>
        <time>2014-11-09T11:12:34.000Z</time>
      </trkpt>
      <trkpt lat="47.51254" lon="6.70984">
        <ele>485.5</ele>
        <time>2014-11-09T11:12:35.000Z</time>
      </trkpt>
      <trkpt lat="47.51254" lon="6.70989">
        <ele>485.3</ele>
        <time>2014-11-09T11:12:36.000Z</time>
      </trkpt>
      <trkpt lat="47.51253" lon="6.70993">
        <ele>485.4</ele>
        <time>2014-11-09T11:12:37.000Z</time>
      </trkpt>
      <trkpt lat="47.51252" lon="6.70997">
        <ele>485.2</ele>
        <time>2014-11-09T11:12:38.000Z</time>
      </trkpt>
      <trkpt lat="47.51251" lon="6.71002">
        <ele>491.2</ele>
        <time>2014-11-09T11:12:39.000Z</time>
      </trkpt>
      <trkpt lat="47.51249" lon="6.71007">
        <ele>492.4</ele>
        <time>2014-11-09T11:12:40.000Z</time>
      </trkpt>
      <trkpt lat="47.51247" lon="6.71012">
        <ele>494.4</ele>
        <time>2014-11-09T11:12:41.000Z</time>
      </trkpt>
      <trkpt lat="47.51245" lon="6.71017">
        <ele>495.5</ele>
        <time>2014-11-09T11:12:42.000Z</time>
      </trkpt>
      <trkpt lat="47.51243" lon="6.71021">
        <ele>496.5</ele>
        <time>2014-11-09T11:12:43.000Z</time>
      </trkpt>
      <trkpt lat="47.51242" lon="6.71026">
        <ele>498</ele>
        <time>2014-11-09T11:12:44.000Z</time>
      </trkpt>
      <trkpt lat="47.5124" lon="6.71031">
        <ele>498.7</ele>
        <time>2014-11-09T11:12:45.000Z</time>
      </trkpt>
      <trkpt lat="47.5124" lon="6.71036">
        <ele>496</ele>
        <time>2014-11-09T11:12:46.000Z</time>
      </trkpt>
      <trkpt lat="47.5124" lon="6.71042">
        <ele>495</ele>
        <time>2014-11-09T11:12:47.000Z</time>
      </trkpt>
      <trkpt lat="47.5124" lon="6.71047">
        <ele>495.4</ele>
        <time>2014-11-09T11:12:48.000Z</time>
      </trkpt>
      <trkpt lat="47.51241" lon="6.71052">
        <ele>495.2</ele>
        <time>2014-11-09T11:12:49.000Z</time>
      </trkpt>
      <trkpt lat="47.5124" lon="6.71058">
        <ele>494.1</ele>
        <time>2014-11-09T11:12:50.000Z</time>
      </trkpt>
      <trkpt lat="47.51239" lon="6.71062">
        <ele>493.6</ele>
        <time>2014-11-09T11:12:51.000Z</time>
      </trkpt>
      <trkpt lat="47.51239" lon="6.71067">
        <ele>494.8</ele>
        <time>2014-11-09T11:12:52.000Z</time>
      </trkpt>
      <trkpt lat="47.51238" lon="6.71071">
        <ele>495</ele>
        <time>2014-11-09T11:12:53.000Z</time>
      </trkpt>
      <trkpt lat="47.51238" lon="6.71075">
        <ele>494.9</ele>
        <time>2014-11-09T11:12:54.000Z</time>
      </trkpt>
      <trkpt lat="47.51238" lon="6.71079">
        <ele>494.7</ele>
        <time>2014-11-09T11:12:55.000Z</time>
      </trkpt>
      <trkpt lat="47.51237" lon="6.71084">
        <ele>497.1</ele>
        <time>2014-11-09T11:12:56.000Z</time>
      </trkpt>
      <trkpt lat="47.51233" lon="6.71096">
        <ele>499.3</ele>
        <time>2014-11-09T11:12:59.000Z</time>
      </trkpt>
      <trkpt lat="47.51232" lon="6.711">
        <ele>505.4</ele>
        <time>2014-11-09T11:13:00.000Z</time>
      </trkpt>
      <trkpt lat="47.51231" lon="6.71104">
        <ele>506.4</ele>
        <time>2014-11-09T11:13:01.000Z</time>
      </trkpt>
      <trkpt lat="47.5123" lon="6.71108">
        <ele>507.2</ele>
        <time>2014-11-09T11:13:02.000Z</time>
      </trkpt>
      <trkpt lat="47.51229" lon="6.71112">
        <ele>506.4</ele>
        <time>2014-11-09T11:13:03.000Z</time>
      </trkpt>
      <trkpt lat="47.51228" lon="6.71116">
        <ele>507</ele>
        <time>2014-11-09T11:13:04.000Z</time>
      </trkpt>
      <trkpt lat="47.51227" lon="6.7112">
        <ele>506.3</ele>
        <time>2014-11-09T11:13:05.000Z</time>
      </trkpt>
      <trkpt lat="47.51226" lon="6.71125">
        <ele>507.6</ele>
        <time>2014-11-09T11:13:06.000Z</time>
      </trkpt>
      <trkpt lat="47.51226" lon="6.71129">
        <ele>507</ele>
        <time>2014-11-09T11:13:07.000Z</time>
      </trkpt>
      <trkpt lat="47.51226" lon="6.71133">
        <ele>507.3</ele>
        <time>2014-11-09T11:13:08.000Z</time>
      </trkpt>
      <trkpt lat="47.51226" lon="6.71138">
        <ele>506.6</ele>
        <time>2014-11-09T11:13:09.000Z</time>
      </trkpt>
      <trkpt lat="47.51225" lon="6.71142">
        <ele>506.1</ele>
        <time>2014-11-09T11:13:10.000Z</time>
      </trkpt>
      <trkpt lat="47.51225" lon="6.71148">
        <ele>505</ele>
        <time>2014-11-09T11:13:11.000Z</time>
      </trkpt>
      <trkpt lat="47.51225" lon="6.71153">
        <ele>504.6</ele>
        <time>2014-11-09T11:13:12.000Z</time>
      </trkpt>
      <trkpt lat="47.51225" lon="6.71159">
        <ele>503</ele>
        <time>2014-11-09T11:13:13.000Z</time>
      </trkpt>
      <trkpt lat="47.51225" lon="6.71164">
        <ele>502.5</ele>
        <time>2014-11-09T11:13:14.000Z</time>
      </trkpt>
      <trkpt lat="47.51224" lon="6.71169">
        <ele>502.4</ele>
        <time>2014-11-09T11:13:15.000Z</time>
      </trkpt>
      <trkpt lat="47.51223" lon="6.71175">
        <ele>503.4</ele>
        <time>2014-11-09T11:13:16.000Z</time>
      </trkpt>
      <trkpt lat="47.51222" lon="6.71181">
        <ele>501.3</ele>
        <time>2014-11-09T11:13:17.000Z</time>
      </trkpt>
      <trkpt lat="47.51221" lon="6.71187">
        <ele>500.3</ele>
        <time>2014-11-09T11:13:18.000Z</time>
      </trkpt>
      <trkpt lat="47.5122" lon="6.71193">
        <ele>499.8</ele>
        <time>2014-11-09T11:13:19.000Z</time>
      </trkpt>
      <trkpt lat="47.51219" lon="6.712">
        <ele>500.2</ele>
        <time>2014-11-09T11:13:20.000Z</time>
      </trkpt>
      <trkpt lat="47.51217" lon="6.71206">
        <ele>497.3</ele>
        <time>2014-11-09T11:13:21.000Z</time>
      </trkpt>
      <trkpt lat="47.51216" lon="6.71213">
        <ele>498</ele>
        <time>2014-11-09T11:13:22.000Z</time>
      </trkpt>
      <trkpt lat="47.51214" lon="6.7122">
        <ele>496.2</ele>
        <time>2014-11-09T11:13:23.000Z</time>
      </trkpt>
      <trkpt lat="47.51213" lon="6.71226">
        <ele>495.4</ele>
        <time>2014-11-09T11:13:24.000Z</time>
      </trkpt>
      <trkpt lat="47.51212" lon="6.71233">
        <ele>494.7</ele>
        <time>2014-11-09T11:13:25.000Z</time>
      </trkpt>
      <trkpt lat="47.51211" lon="6.71239">
        <ele>494.5</ele>
        <time>2014-11-09T11:13:26.000Z</time>
      </trkpt>
      <trkpt lat="47.51212" lon="6.71245">
        <ele>492.3</ele>
        <time>2014-11-09T11:13:27.000Z</time>
      </trkpt>
      <trkpt lat="47.51212" lon="6.71252">
        <ele>491.9</ele>
        <time>2014-11-09T11:13:28.000Z</time>
      </trkpt>
      <trkpt lat="47.51213" lon="6.71258">
        <ele>491.9</ele>
        <time>2014-11-09T11:13:29.000Z</time>
      </trkpt>
      <trkpt lat="47.51213" lon="6.71264">
        <ele>491.8</ele>
        <time>2014-11-09T11:13:30.000Z</time>
      </trkpt>
      <trkpt lat="47.51213" lon="6.71269">
        <ele>492</ele>
        <time>2014-11-09T11:13:31.000Z</time>
      </trkpt>
      <trkpt lat="47.51212" lon="6.71275">
        <ele>495.3</ele>
        <time>2014-11-09T11:13:32.000Z</time>
      </trkpt>
      <trkpt lat="47.51211" lon="6.71281">
        <ele>495.2</ele>
        <time>2014-11-09T11:13:33.000Z</time>
      </trkpt>
      <trkpt lat="47.5121" lon="6.71287">
        <ele>495.3</ele>
        <time>2014-11-09T11:13:34.000Z</time>
      </trkpt>
      <trkpt lat="47.51209" lon="6.71293">
        <ele>495.4</ele>
        <time>2014-11-09T11:13:35.000Z</time>
      </trkpt>
      <trkpt lat="47.51208" lon="6.71299">
        <ele>495.4</ele>
        <time>2014-11-09T11:13:36.000Z</time>
      </trkpt>
      <trkpt lat="47.51207" lon="6.71304">
        <ele>495.6</ele>
        <time>2014-11-09T11:13:37.000Z</time>
      </trkpt>
      <trkpt lat="47.51207" lon="6.7131">
        <ele>496.3</ele>
        <time>2014-11-09T11:13:38.000Z</time>
      </trkpt>
      <trkpt lat="47.51206" lon="6.71315">
        <ele>496.5</ele>
        <time>2014-11-09T11:13:39.000Z</time>
      </trkpt>
      <trkpt lat="47.51205" lon="6.71321">
        <ele>496</ele>
        <time>2014-11-09T11:13:40.000Z</time>
      </trkpt>
      <trkpt lat="47.51205" lon="6.71325">
        <ele>495.5</ele>
        <time>2014-11-09T11:13:41.000Z</time>
      </trkpt>
      <trkpt lat="47.51205" lon="6.7133">
        <ele>494.3</ele>
        <time>2014-11-09T11:13:42.000Z</time>
      </trkpt>
      <trkpt lat="47.51205" lon="6.71334">
        <ele>494.7</ele>
        <time>2014-11-09T11:13:43.000Z</time>
      </trkpt>
      <trkpt lat="47.51206" lon="6.71337">
        <ele>494.9</ele>
        <time>2014-11-09T11:13:44.000Z</time>
      </trkpt>
      <trkpt lat="47.51206" lon="6.7134">
        <ele>495</ele>
        <time>2014-11-09T11:13:45.000Z</time>
      </trkpt>
      <trkpt lat="47.51207" lon="6.71346">
        <ele>495.6</ele>
        <time>2014-11-09T11:13:47.000Z</time>
      </trkpt>
      <trkpt lat="47.51207" lon="6.71348">
        <ele>495.7</ele>
        <time>2014-11-09T11:13:48.000Z</time>
      </trkpt>
      <trkpt lat="47.51206" lon="6.71351">
        <ele>498.9</ele>
        <time>2014-11-09T11:13:49.000Z</time>
      </trkpt>
      <trkpt lat="47.51206" lon="6.71355">
        <ele>499.5</ele>
        <time>2014-11-09T11:13:50.000Z</time>
      </trkpt>
      <trkpt lat="47.51205" lon="6.71359">
        <ele>500.4</ele>
        <time>2014-11-09T11:13:51.000Z</time>
      </trkpt>
      <trkpt lat="47.51204" lon="6.71363">
        <ele>500.8</ele>
        <time>2014-11-09T11:13:52.000Z</time>
      </trkpt>
      <trkpt lat="47.51204" lon="6.71366">
        <ele>501.5</ele>
        <time>2014-11-09T11:13:53.000Z</time>
      </trkpt>
      <trkpt lat="47.51203" lon="6.71369">
        <ele>502.2</ele>
        <time>2014-11-09T11:13:54.000Z</time>
      </trkpt>
      <trkpt lat="47.51202" lon="6.71373">
        <ele>504.5</ele>
        <time>2014-11-09T11:13:55.000Z</time>
      </trkpt>
      <trkpt lat="47.51201" lon="6.71376">
        <ele>505.3</ele>
        <time>2014-11-09T11:13:56.000Z</time>
      </trkpt>
      <trkpt lat="47.512" lon="6.7138">
        <ele>505.8</ele>
        <time>2014-11-09T11:13:57.000Z</time>
      </trkpt>
      <trkpt lat="47.51197" lon="6.71388">
        <ele>506.7</ele>
        <time>2014-11-09T11:14:00.000Z</time>
      </trkpt>
      <trkpt lat="47.51195" lon="6.71394">
        <ele>506.4</ele>
        <time>2014-11-09T11:14:02.000Z</time>
      </trkpt>
      <trkpt lat="47.51195" lon="6.71398">
        <ele>506</ele>
        <time>2014-11-09T11:14:03.000Z</time>
      </trkpt>
      <trkpt lat="47.51195" lon="6.71402">
        <ele>505.3</ele>
        <time>2014-11-09T11:14:04.000Z</time>
      </trkpt>
      <trkpt lat="47.51195" lon="6.71406">
        <ele>504.8</ele>
        <time>2014-11-09T11:14:05.000Z</time>
      </trkpt>
      <trkpt lat="47.51196" lon="6.71411">
        <ele>503.9</ele>
        <time>2014-11-09T11:14:06.000Z</time>
      </trkpt>
      <trkpt lat="47.51196" lon="6.71417">
        <ele>503.6</ele>
        <time>2014-11-09T11:14:07.000Z</time>
      </trkpt>
      <trkpt lat="47.51196" lon="6.71423">
        <ele>502.2</ele>
        <time>2014-11-09T11:14:08.000Z</time>
      </trkpt>
      <trkpt lat="47.51196" lon="6.71428">
        <ele>506.3</ele>
        <time>2014-11-09T11:14:09.000Z</time>
      </trkpt>
      <trkpt lat="47.51195" lon="6.71434">
        <ele>508.9</ele>
        <time>2014-11-09T11:14:10.000Z</time>
      </trkpt>
      <trkpt lat="47.51194" lon="6.7144">
        <ele>509.9</ele>
        <time>2014-11-09T11:14:11.000Z</time>
      </trkpt>
      <trkpt lat="47.51193" lon="6.71446">
        <ele>510.2</ele>
        <time>2014-11-09T11:14:12.000Z</time>
      </trkpt>
      <trkpt lat="47.51192" lon="6.71451">
        <ele>509.4</ele>
        <time>2014-11-09T11:14:13.000Z</time>
      </trkpt>
      <trkpt lat="47.51191" lon="6.71457">
        <ele>509.3</ele>
        <time>2014-11-09T11:14:14.000Z</time>
      </trkpt>
      <trkpt lat="47.5119" lon="6.71462">
        <ele>509</ele>
        <time>2014-11-09T11:14:15.000Z</time>
      </trkpt>
      <trkpt lat="47.5119" lon="6.71468">
        <ele>510</ele>
        <time>2014-11-09T11:14:16.000Z</time>
      </trkpt>
      <trkpt lat="47.5119" lon="6.71475">
        <ele>510.3</ele>
        <time>2014-11-09T11:14:17.000Z</time>
      </trkpt>
      <trkpt lat="47.5119" lon="6.71481">
        <ele>510.1</ele>
        <time>2014-11-09T11:14:18.000Z</time>
      </trkpt>
      <trkpt lat="47.5119" lon="6.71487">
        <ele>512</ele>
        <time>2014-11-09T11:14:19.000Z</time>
      </trkpt>
      <trkpt lat="47.5119" lon="6.71491">
        <ele>514.6</ele>
        <time>2014-11-09T11:14:20.000Z</time>
      </trkpt>
      <trkpt lat="47.5119" lon="6.71495">
        <ele>515.1</ele>
        <time>2014-11-09T11:14:21.000Z</time>
      </trkpt>
      <trkpt lat="47.51189" lon="6.71499">
        <ele>514.7</ele>
        <time>2014-11-09T11:14:22.000Z</time>
      </trkpt>
      <trkpt lat="47.51188" lon="6.71503">
        <ele>513.8</ele>
        <time>2014-11-09T11:14:23.000Z</time>
      </trkpt>
      <trkpt lat="47.51187" lon="6.71505">
        <ele>514.3</ele>
        <time>2014-11-09T11:14:23.984Z</time>
      </trkpt>
      <trkpt lat="47.51187" lon="6.71512">
        <ele>514.6</ele>
        <time>2014-11-09T11:14:25.000Z</time>
      </trkpt>
      <trkpt lat="47.51186" lon="6.71517">
        <ele>514.2</ele>
        <time>2014-11-09T11:14:26.000Z</time>
      </trkpt>
      <trkpt lat="47.51186" lon="6.71522">
        <ele>513.3</ele>
        <time>2014-11-09T11:14:27.000Z</time>
      </trkpt>
      <trkpt lat="47.51186" lon="6.71526">
        <ele>512.8</ele>
        <time>2014-11-09T11:14:28.000Z</time>
      </trkpt>
      <trkpt lat="47.51186" lon="6.7153">
        <ele>513.9</ele>
        <time>2014-11-09T11:14:29.000Z</time>
      </trkpt>
      <trkpt lat="47.51187" lon="6.71536">
        <ele>513</ele>
        <time>2014-11-09T11:14:31.000Z</time>
      </trkpt>
      <trkpt lat="47.51187" lon="6.71539">
        <ele>511.7</ele>
        <time>2014-11-09T11:14:32.000Z</time>
      </trkpt>
      <trkpt lat="47.51187" lon="6.71543">
        <ele>513.8</ele>
        <time>2014-11-09T11:14:33.000Z</time>
      </trkpt>
      <trkpt lat="47.51187" lon="6.71546">
        <ele>513.8</ele>
        <time>2014-11-09T11:14:34.000Z</time>
      </trkpt>
      <trkpt lat="47.51187" lon="6.71551">
        <ele>515.6</ele>
        <time>2014-11-09T11:14:36.000Z</time>
      </trkpt>
      <trkpt lat="47.51188" lon="6.71554">
        <ele>516.6</ele>
        <time>2014-11-09T11:14:37.000Z</time>
      </trkpt>
      <trkpt lat="47.51188" lon="6.71559">
        <ele>516.4</ele>
        <time>2014-11-09T11:14:39.000Z</time>
      </trkpt>
      <trkpt lat="47.51188" lon="6.71561">
        <ele>516</ele>
        <time>2014-11-09T11:14:40.000Z</time>
      </trkpt>
      <trkpt lat="47.51188" lon="6.71567">
        <ele>515.2</ele>
        <time>2014-11-09T11:14:42.000Z</time>
      </trkpt>
      <trkpt lat="47.51188" lon="6.7157">
        <ele>517.1</ele>
        <time>2014-11-09T11:14:43.000Z</time>
      </trkpt>
      <trkpt lat="47.51187" lon="6.71573">
        <ele>517.3</ele>
        <time>2014-11-09T11:14:44.000Z</time>
      </trkpt>
      <trkpt lat="47.51187" lon="6.71577">
        <ele>516.7</ele>
        <time>2014-11-09T11:14:45.000Z</time>
      </trkpt>
      <trkpt lat="47.51185" lon="6.71582">
        <ele>518.8</ele>
        <time>2014-11-09T11:14:47.000Z</time>
      </trkpt>
      <trkpt lat="47.51185" lon="6.71585">
        <ele>518.8</ele>
        <time>2014-11-09T11:14:48.000Z</time>
      </trkpt>
      <trkpt lat="47.51184" lon="6.71588">
        <ele>518.8</ele>
        <time>2014-11-09T11:14:49.000Z</time>
      </trkpt>
      <trkpt lat="47.51184" lon="6.71592">
        <ele>520.2</ele>
        <time>2014-11-09T11:14:50.000Z</time>
      </trkpt>
      <trkpt lat="47.51185" lon="6.71597">
        <ele>519.9</ele>
        <time>2014-11-09T11:14:51.000Z</time>
      </trkpt>
      <trkpt lat="47.51185" lon="6.71601">
        <ele>519.4</ele>
        <time>2014-11-09T11:14:52.000Z</time>
      </trkpt>
      <trkpt lat="47.51186" lon="6.71605">
        <ele>518.4</ele>
        <time>2014-11-09T11:14:53.000Z</time>
      </trkpt>
      <trkpt lat="47.51186" lon="6.71609">
        <ele>519.6</ele>
        <time>2014-11-09T11:14:54.000Z</time>
      </trkpt>
      <trkpt lat="47.51185" lon="6.71615">
        <ele>520.6</ele>
        <time>2014-11-09T11:14:56.000Z</time>
      </trkpt>
      <trkpt lat="47.51182" lon="6.71622">
        <ele>522.7</ele>
        <time>2014-11-09T11:14:59.000Z</time>
      </trkpt>
      <trkpt lat="47.51181" lon="6.71626">
        <ele>522.7</ele>
        <time>2014-11-09T11:15:00.000Z</time>
      </trkpt>
      <trkpt lat="47.5118" lon="6.7163">
        <ele>522.2</ele>
        <time>2014-11-09T11:15:01.000Z</time>
      </trkpt>
      <trkpt lat="47.51179" lon="6.71635">
        <ele>521.1</ele>
        <time>2014-11-09T11:15:02.000Z</time>
      </trkpt>
      <trkpt lat="47.51178" lon="6.7164">
        <ele>520.6</ele>
        <time>2014-11-09T11:15:03.000Z</time>
      </trkpt>
      <trkpt lat="47.51178" lon="6.71646">
        <ele>518.4</ele>
        <time>2014-11-09T11:15:04.000Z</time>
      </trkpt>
      <trkpt lat="47.51177" lon="6.71652">
        <ele>523</ele>
        <time>2014-11-09T11:15:05.000Z</time>
      </trkpt>
      <trkpt lat="47.51176" lon="6.7166">
        <ele>521.4</ele>
        <time>2014-11-09T11:15:06.000Z</time>
      </trkpt>
      <trkpt lat="47.51175" lon="6.71667">
        <ele>521.5</ele>
        <time>2014-11-09T11:15:07.000Z</time>
      </trkpt>
      <trkpt lat="47.51173" lon="6.71675">
        <ele>522</ele>
        <time>2014-11-09T11:15:08.000Z</time>
      </trkpt>
      <trkpt lat="47.51173" lon="6.71681">
        <ele>521</ele>
        <time>2014-11-09T11:15:09.000Z</time>
      </trkpt>
      <trkpt lat="47.51173" lon="6.71688">
        <ele>519.6</ele>
        <time>2014-11-09T11:15:10.000Z</time>
      </trkpt>
      <trkpt lat="47.51173" lon="6.71694">
        <ele>528.6</ele>
        <time>2014-11-09T11:15:11.000Z</time>
      </trkpt>
      <trkpt lat="47.51172" lon="6.71702">
        <ele>528.4</ele>
        <time>2014-11-09T11:15:12.000Z</time>
      </trkpt>
      <trkpt lat="47.51172" lon="6.7171">
        <ele>527.8</ele>
        <time>2014-11-09T11:15:13.000Z</time>
      </trkpt>
      <trkpt lat="47.51173" lon="6.71718">
        <ele>528.1</ele>
        <time>2014-11-09T11:15:14.000Z</time>
      </trkpt>
      <trkpt lat="47.51173" lon="6.71726">
        <ele>527.6</ele>
        <time>2014-11-09T11:15:15.000Z</time>
      </trkpt>
      <trkpt lat="47.51175" lon="6.71733">
        <ele>525.7</ele>
        <time>2014-11-09T11:15:16.000Z</time>
      </trkpt>
      <trkpt lat="47.51176" lon="6.71741">
        <ele>525.1</ele>
        <time>2014-11-09T11:15:17.000Z</time>
      </trkpt>
      <trkpt lat="47.51178" lon="6.71771">
        <ele>529.1</ele>
        <time>2014-11-09T11:15:18.000Z</time>
      </trkpt>
      <trkpt lat="47.51179" lon="6.71781">
        <ele>527.7</ele>
        <time>2014-11-09T11:15:19.000Z</time>
      </trkpt>
      <trkpt lat="47.5118" lon="6.7179">
        <ele>526.5</ele>
        <time>2014-11-09T11:15:20.000Z</time>
      </trkpt>
      <trkpt lat="47.51181" lon="6.71795">
        <ele>525.2</ele>
        <time>2014-11-09T11:15:21.000Z</time>
      </trkpt>
      <trkpt lat="47.51182" lon="6.71803">
        <ele>524.3</ele>
        <time>2014-11-09T11:15:22.000Z</time>
      </trkpt>
      <trkpt lat="47.51183" lon="6.7181">
        <ele>523.3</ele>
        <time>2014-11-09T11:15:23.000Z</time>
      </trkpt>
      <trkpt lat="47.51182" lon="6.71822">
        <ele>528.3</ele>
        <time>2014-11-09T11:15:24.000Z</time>
      </trkpt>
      <trkpt lat="47.51184" lon="6.71833">
        <ele>525.1</ele>
        <time>2014-11-09T11:15:25.000Z</time>
      </trkpt>
      <trkpt lat="47.51184" lon="6.7184">
        <ele>524.8</ele>
        <time>2014-11-09T11:15:26.000Z</time>
      </trkpt>
      <trkpt lat="47.51185" lon="6.71846">
        <ele>525</ele>
        <time>2014-11-09T11:15:27.000Z</time>
      </trkpt>
      <trkpt lat="47.51186" lon="6.71855">
        <ele>521.8</ele>
        <time>2014-11-09T11:15:28.000Z</time>
      </trkpt>
      <trkpt lat="47.51184" lon="6.71864">
        <ele>520.6</ele>
        <time>2014-11-09T11:15:29.000Z</time>
      </trkpt>
      <trkpt lat="47.51184" lon="6.71872">
        <ele>519.6</ele>
        <time>2014-11-09T11:15:30.000Z</time>
      </trkpt>
      <trkpt lat="47.51185" lon="6.71882">
        <ele>517.6</ele>
        <time>2014-11-09T11:15:31.000Z</time>
      </trkpt>
      <trkpt lat="47.51183" lon="6.71892">
        <ele>516.4</ele>
        <time>2014-11-09T11:15:32.000Z</time>
      </trkpt>
      <trkpt lat="47.51183" lon="6.71902">
        <ele>515.9</ele>
        <time>2014-11-09T11:15:33.000Z</time>
      </trkpt>
      <trkpt lat="47.51183" lon="6.71908">
        <ele>514.7</ele>
        <time>2014-11-09T11:15:34.000Z</time>
      </trkpt>
      <trkpt lat="47.51181" lon="6.71915">
        <ele>520.6</ele>
        <time>2014-11-09T11:15:35.000Z</time>
      </trkpt>
      <trkpt lat="47.5118" lon="6.71921">
        <ele>520.5</ele>
        <time>2014-11-09T11:15:36.000Z</time>
      </trkpt>
      <trkpt lat="47.51179" lon="6.71928">
        <ele>520.5</ele>
        <time>2014-11-09T11:15:37.000Z</time>
      </trkpt>
      <trkpt lat="47.51178" lon="6.71935">
        <ele>520.2</ele>
        <time>2014-11-09T11:15:38.000Z</time>
      </trkpt>
      <trkpt lat="47.51177" lon="6.71942">
        <ele>519.1</ele>
        <time>2014-11-09T11:15:39.000Z</time>
      </trkpt>
      <trkpt lat="47.51177" lon="6.71949">
        <ele>518.8</ele>
        <time>2014-11-09T11:15:40.000Z</time>
      </trkpt>
      <trkpt lat="47.51176" lon="6.71957">
        <ele>518</ele>
        <time>2014-11-09T11:15:41.000Z</time>
      </trkpt>
      <trkpt lat="47.51176" lon="6.71965">
        <ele>514.7</ele>
        <time>2014-11-09T11:15:42.000Z</time>
      </trkpt>
      <trkpt lat="47.51183" lon="6.71995">
        <ele>517.1</ele>
        <time>2014-11-09T11:15:43.000Z</time>
      </trkpt>
      <trkpt lat="47.51184" lon="6.72007">
        <ele>515.3</ele>
        <time>2014-11-09T11:15:44.000Z</time>
      </trkpt>
      <trkpt lat="47.51185" lon="6.72017">
        <ele>512.5</ele>
        <time>2014-11-09T11:15:45.000Z</time>
      </trkpt>
      <trkpt lat="47.51185" lon="6.72022">
        <ele>510.7</ele>
        <time>2014-11-09T11:15:46.000Z</time>
      </trkpt>
      <trkpt lat="47.51185" lon="6.72031">
        <ele>509.6</ele>
        <time>2014-11-09T11:15:47.000Z</time>
      </trkpt>
      <trkpt lat="47.51185" lon="6.7204">
        <ele>508.7</ele>
        <time>2014-11-09T11:15:48.000Z</time>
      </trkpt>
      <trkpt lat="47.51186" lon="6.72049">
        <ele>507.5</ele>
        <time>2014-11-09T11:15:49.000Z</time>
      </trkpt>
      <trkpt lat="47.51189" lon="6.72059">
        <ele>504.4</ele>
        <time>2014-11-09T11:15:50.000Z</time>
      </trkpt>
      <trkpt lat="47.51191" lon="6.72068">
        <ele>503.6</ele>
        <time>2014-11-09T11:15:51.000Z</time>
      </trkpt>
      <trkpt lat="47.51193" lon="6.72078">
        <ele>500.6</ele>
        <time>2014-11-09T11:15:52.000Z</time>
      </trkpt>
      <trkpt lat="47.51194" lon="6.72088">
        <ele>500</ele>
        <time>2014-11-09T11:15:53.000Z</time>
      </trkpt>
      <trkpt lat="47.51194" lon="6.72095">
        <ele>498.6</ele>
        <time>2014-11-09T11:15:54.000Z</time>
      </trkpt>
      <trkpt lat="47.51195" lon="6.72101">
        <ele>497.5</ele>
        <time>2014-11-09T11:15:55.000Z</time>
      </trkpt>
      <trkpt lat="47.51196" lon="6.72105">
        <ele>498</ele>
        <time>2014-11-09T11:15:56.000Z</time>
      </trkpt>
      <trkpt lat="47.51195" lon="6.72112">
        <ele>500.8</ele>
        <time>2014-11-09T11:15:59.000Z</time>
      </trkpt>
      <trkpt lat="47.51196" lon="6.72115">
        <ele>501.2</ele>
        <time>2014-11-09T11:16:00.000Z</time>
      </trkpt>
      <trkpt lat="47.51197" lon="6.72119">
        <ele>501.4</ele>
        <time>2014-11-09T11:16:01.000Z</time>
      </trkpt>
      <trkpt lat="47.51197" lon="6.72124">
        <ele>501.4</ele>
        <time>2014-11-09T11:16:02.000Z</time>
      </trkpt>
      <trkpt lat="47.51197" lon="6.72131">
        <ele>507.4</ele>
        <time>2014-11-09T11:16:03.000Z</time>
      </trkpt>
      <trkpt lat="47.51197" lon="6.72139">
        <ele>509.1</ele>
        <time>2014-11-09T11:16:04.000Z</time>
      </trkpt>
      <trkpt lat="47.51196" lon="6.72146">
        <ele>509.9</ele>
        <time>2014-11-09T11:16:05.000Z</time>
      </trkpt>
      <trkpt lat="47.51196" lon="6.72155">
        <ele>510.1</ele>
        <time>2014-11-09T11:16:06.000Z</time>
      </trkpt>
      <trkpt lat="47.51195" lon="6.72158">
        <ele>511.7</ele>
        <time>2014-11-09T11:16:06.999Z</time>
      </trkpt>
      <trkpt lat="47.51194" lon="6.72172">
        <ele>506.7</ele>
        <time>2014-11-09T11:16:08.000Z</time>
      </trkpt>
      <trkpt lat="47.51193" lon="6.72181">
        <ele>505.4</ele>
        <time>2014-11-09T11:16:09.000Z</time>
      </trkpt>
      <trkpt lat="47.51192" lon="6.7219">
        <ele>504.9</ele>
        <time>2014-11-09T11:16:10.000Z</time>
      </trkpt>
      <trkpt lat="47.51191" lon="6.722">
        <ele>503.9</ele>
        <time>2014-11-09T11:16:11.000Z</time>
      </trkpt>
      <trkpt lat="47.51191" lon="6.7221">
        <ele>502.9</ele>
        <time>2014-11-09T11:16:12.000Z</time>
      </trkpt>
      <trkpt lat="47.51191" lon="6.72218">
        <ele>502.7</ele>
        <time>2014-11-09T11:16:13.000Z</time>
      </trkpt>
      <trkpt lat="47.51191" lon="6.72226">
        <ele>502.2</ele>
        <time>2014-11-09T11:16:14.000Z</time>
      </trkpt>
      <trkpt lat="47.51192" lon="6.72234">
        <ele>502.5</ele>
        <time>2014-11-09T11:16:15.000Z</time>
      </trkpt>
      <trkpt lat="47.51195" lon="6.72257">
        <ele>507</ele>
        <time>2014-11-09T11:16:16.000Z</time>
      </trkpt>
      <trkpt lat="47.51195" lon="6.72268">
        <ele>509.4</ele>
        <time>2014-11-09T11:16:17.000Z</time>
      </trkpt>
      <trkpt lat="47.51194" lon="6.72279">
        <ele>509</ele>
        <time>2014-11-09T11:16:18.000Z</time>
      </trkpt>
      <trkpt lat="47.51193" lon="6.72286">
        <ele>508.9</ele>
        <time>2014-11-09T11:16:19.000Z</time>
      </trkpt>
      <trkpt lat="47.51193" lon="6.72294">
        <ele>508.1</ele>
        <time>2014-11-09T11:16:20.000Z</time>
      </trkpt>
      <trkpt lat="47.51193" lon="6.723">
        <ele>507.6</ele>
        <time>2014-11-09T11:16:21.000Z</time>
      </trkpt>
      <trkpt lat="47.51193" lon="6.72307">
        <ele>505.8</ele>
        <time>2014-11-09T11:16:22.000Z</time>
      </trkpt>
      <trkpt lat="47.51191" lon="6.72314">
        <ele>506.1</ele>
        <time>2014-11-09T11:16:23.000Z</time>
      </trkpt>
      <trkpt lat="47.5119" lon="6.72321">
        <ele>505.9</ele>
        <time>2014-11-09T11:16:24.000Z</time>
      </trkpt>
      <trkpt lat="47.5119" lon="6.72328">
        <ele>506</ele>
        <time>2014-11-09T11:16:25.000Z</time>
      </trkpt>
      <trkpt lat="47.51186" lon="6.72334">
        <ele>512.9</ele>
        <time>2014-11-09T11:16:26.000Z</time>
      </trkpt>
      <trkpt lat="47.51185" lon="6.72343">
        <ele>512.2</ele>
        <time>2014-11-09T11:16:27.000Z</time>
      </trkpt>
      <trkpt lat="47.51185" lon="6.72349">
        <ele>511.5</ele>
        <time>2014-11-09T11:16:28.000Z</time>
      </trkpt>
      <trkpt lat="47.51184" lon="6.72355">
        <ele>511.9</ele>
        <time>2014-11-09T11:16:29.000Z</time>
      </trkpt>
      <trkpt lat="47.51182" lon="6.72358">
        <ele>512.5</ele>
        <time>2014-11-09T11:16:29.999Z</time>
      </trkpt>
      <trkpt lat="47.51179" lon="6.72368">
        <ele>511.5</ele>
        <time>2014-11-09T11:16:31.000Z</time>
      </trkpt>
      <trkpt lat="47.51177" lon="6.72378">
        <ele>510.5</ele>
        <time>2014-11-09T11:16:32.000Z</time>
      </trkpt>
      <trkpt lat="47.51177" lon="6.72387">
        <ele>508.7</ele>
        <time>2014-11-09T11:16:33.000Z</time>
      </trkpt>
      <trkpt lat="47.51176" lon="6.72399">
        <ele>506.6</ele>
        <time>2014-11-09T11:16:34.000Z</time>
      </trkpt>
      <trkpt lat="47.51177" lon="6.72408">
        <ele>505.3</ele>
        <time>2014-11-09T11:16:35.000Z</time>
      </trkpt>
      <trkpt lat="47.51175" lon="6.72414">
        <ele>503.6</ele>
        <time>2014-11-09T11:16:36.000Z</time>
      </trkpt>
      <trkpt lat="47.51173" lon="6.7242">
        <ele>505.8</ele>
        <time>2014-11-09T11:16:37.000Z</time>
      </trkpt>
      <trkpt lat="47.51171" lon="6.72427">
        <ele>505.6</ele>
        <time>2014-11-09T11:16:38.000Z</time>
      </trkpt>
      <trkpt lat="47.51169" lon="6.72433">
        <ele>505.4</ele>
        <time>2014-11-09T11:16:39.000Z</time>
      </trkpt>
      <trkpt lat="47.51167" lon="6.7244">
        <ele>505.7</ele>
        <time>2014-11-09T11:16:40.000Z</time>
      </trkpt>
      <trkpt lat="47.51164" lon="6.72446">
        <ele>503.9</ele>
        <time>2014-11-09T11:16:41.000Z</time>
      </trkpt>
      <trkpt lat="47.51162" lon="6.72451">
        <ele>502.3</ele>
        <time>2014-11-09T11:16:42.000Z</time>
      </trkpt>
      <trkpt lat="47.5116" lon="6.72457">
        <ele>501.1</ele>
        <time>2014-11-09T11:16:43.000Z</time>
      </trkpt>
      <trkpt lat="47.51158" lon="6.72463">
        <ele>499</ele>
        <time>2014-11-09T11:16:44.000Z</time>
      </trkpt>
      <trkpt lat="47.51157" lon="6.72469">
        <ele>496.6</ele>
        <time>2014-11-09T11:16:45.000Z</time>
      </trkpt>
      <trkpt lat="47.51156" lon="6.72474">
        <ele>494.7</ele>
        <time>2014-11-09T11:16:46.000Z</time>
      </trkpt>
      <trkpt lat="47.51156" lon="6.72478">
        <ele>492</ele>
        <time>2014-11-09T11:16:47.000Z</time>
      </trkpt>
      <trkpt lat="47.51156" lon="6.72484">
        <ele>491.2</ele>
        <time>2014-11-09T11:16:49.000Z</time>
      </trkpt>
      <trkpt lat="47.51157" lon="6.72487">
        <ele>489.8</ele>
        <time>2014-11-09T11:16:50.000Z</time>
      </trkpt>
      <trkpt lat="47.51158" lon="6.72492">
        <ele>488</ele>
        <time>2014-11-09T11:16:52.000Z</time>
      </trkpt>
      <trkpt lat="47.51159" lon="6.72494">
        <ele>487</ele>
        <time>2014-11-09T11:16:53.000Z</time>
      </trkpt>
      <trkpt lat="47.51161" lon="6.72499">
        <ele>485.4</ele>
        <time>2014-11-09T11:16:54.000Z</time>
      </trkpt>
      <trkpt lat="47.51162" lon="6.72501">
        <ele>485.1</ele>
        <time>2014-11-09T11:16:55.000Z</time>
      </trkpt>
      <trkpt lat="47.51164" lon="6.72505">
        <ele>481.8</ele>
        <time>2014-11-09T11:17:22.000Z</time>
      </trkpt>
      <trkpt lat="47.51165" lon="6.72506">
        <ele>480.9</ele>
        <time>2014-11-09T11:17:23.000Z</time>
      </trkpt>
      <trkpt lat="47.51168" lon="6.7251">
        <ele>481.8</ele>
        <time>2014-11-09T11:17:26.000Z</time>
      </trkpt>
      <trkpt lat="47.51169" lon="6.72511">
        <ele>480.7</ele>
        <time>2014-11-09T11:17:27.000Z</time>
      </trkpt>
      <trkpt lat="47.51171" lon="6.72516">
        <ele>479.7</ele>
        <time>2014-11-09T11:17:31.000Z</time>
      </trkpt>
      <trkpt lat="47.51172" lon="6.72517">
        <ele>480</ele>
        <time>2014-11-09T11:17:32.000Z</time>
      </trkpt>
      <trkpt lat="47.51169" lon="6.72519">
        <ele>470.1</ele>
        <time>2014-11-09T11:17:43.000Z</time>
      </trkpt>
      <trkpt lat="47.51168" lon="6.7252">
        <ele>470.2</ele>
        <time>2014-11-09T11:17:44.000Z</time>
      </trkpt>
      <trkpt lat="47.51165" lon="6.72525">
        <ele>466.4</ele>
        <time>2014-11-09T11:17:46.000Z</time>
      </trkpt>
      <trkpt lat="47.51163" lon="6.72527">
        <ele>465.4</ele>
        <time>2014-11-09T11:17:47.000Z</time>
      </trkpt>
      <trkpt lat="47.51161" lon="6.72531">
        <ele>468.3</ele>
        <time>2014-11-09T11:17:48.000Z</time>
      </trkpt>
      <trkpt lat="47.51158" lon="6.72534">
        <ele>469.6</ele>
        <time>2014-11-09T11:17:49.000Z</time>
      </trkpt>
      <trkpt lat="47.51155" lon="6.72539">
        <ele>470</ele>
        <time>2014-11-09T11:17:50.000Z</time>
      </trkpt>
      <trkpt lat="47.51152" lon="6.72543">
        <ele>470.1</ele>
        <time>2014-11-09T11:17:51.000Z</time>
      </trkpt>
      <trkpt lat="47.51149" lon="6.72546">
        <ele>471.9</ele>
        <time>2014-11-09T11:17:52.000Z</time>
      </trkpt>
      <trkpt lat="47.51145" lon="6.72549">
        <ele>470.2</ele>
        <time>2014-11-09T11:17:53.000Z</time>
      </trkpt>
      <trkpt lat="47.51141" lon="6.72552">
        <ele>468.8</ele>
        <time>2014-11-09T11:17:54.000Z</time>
      </trkpt>
      <trkpt lat="47.51136" lon="6.72555">
        <ele>467.8</ele>
        <time>2014-11-09T11:17:55.000Z</time>
      </trkpt>
      <trkpt lat="47.51132" lon="6.72557">
        <ele>466.9</ele>
        <time>2014-11-09T11:17:56.000Z</time>
      </trkpt>
      <trkpt lat="47.51123" lon="6.72562">
        <ele>466.2</ele>
        <time>2014-11-09T11:17:59.000Z</time>
      </trkpt>
      <trkpt lat="47.51121" lon="6.72564">
        <ele>466.1</ele>
        <time>2014-11-09T11:18:00.000Z</time>
      </trkpt>
      <trkpt lat="47.51119" lon="6.72566">
        <ele>465.2</ele>
        <time>2014-11-09T11:18:01.000Z</time>
      </trkpt>
      <trkpt lat="47.51116" lon="6.7257">
        <ele>464.3</ele>
        <time>2014-11-09T11:18:02.000Z</time>
      </trkpt>
      <trkpt lat="47.51114" lon="6.72573">
        <ele>462.8</ele>
        <time>2014-11-09T11:18:03.000Z</time>
      </trkpt>
      <trkpt lat="47.51112" lon="6.72577">
        <ele>461.4</ele>
        <time>2014-11-09T11:18:04.000Z</time>
      </trkpt>
      <trkpt lat="47.51109" lon="6.7258">
        <ele>460.9</ele>
        <time>2014-11-09T11:18:05.000Z</time>
      </trkpt>
      <trkpt lat="47.51106" lon="6.72583">
        <ele>459.7</ele>
        <time>2014-11-09T11:18:06.000Z</time>
      </trkpt>
      <trkpt lat="47.51103" lon="6.72586">
        <ele>458.8</ele>
        <time>2014-11-09T11:18:07.000Z</time>
      </trkpt>
      <trkpt lat="47.51099" lon="6.72589">
        <ele>457.6</ele>
        <time>2014-11-09T11:18:08.000Z</time>
      </trkpt>
      <trkpt lat="47.51096" lon="6.72592">
        <ele>456.9</ele>
        <time>2014-11-09T11:18:09.000Z</time>
      </trkpt>
      <trkpt lat="47.51093" lon="6.72596">
        <ele>456.6</ele>
        <time>2014-11-09T11:18:10.000Z</time>
      </trkpt>
      <trkpt lat="47.51091" lon="6.72599">
        <ele>457.7</ele>
        <time>2014-11-09T11:18:11.000Z</time>
      </trkpt>
      <trkpt lat="47.51088" lon="6.72603">
        <ele>458.2</ele>
        <time>2014-11-09T11:18:12.000Z</time>
      </trkpt>
      <trkpt lat="47.51085" lon="6.72607">
        <ele>458.7</ele>
        <time>2014-11-09T11:18:13.000Z</time>
      </trkpt>
      <trkpt lat="47.51081" lon="6.72611">
        <ele>458.6</ele>
        <time>2014-11-09T11:18:14.000Z</time>
      </trkpt>
      <trkpt lat="47.51077" lon="6.72614">
        <ele>458.5</ele>
        <time>2014-11-09T11:18:15.000Z</time>
      </trkpt>
      <trkpt lat="47.51074" lon="6.72616">
        <ele>458.5</ele>
        <time>2014-11-09T11:18:16.000Z</time>
      </trkpt>
      <trkpt lat="47.5107" lon="6.72618">
        <ele>457.8</ele>
        <time>2014-11-09T11:18:17.000Z</time>
      </trkpt>
      <trkpt lat="47.51066" lon="6.7262">
        <ele>456.7</ele>
        <time>2014-11-09T11:18:18.000Z</time>
      </trkpt>
      <trkpt lat="47.51062" lon="6.72623">
        <ele>457.7</ele>
        <time>2014-11-09T11:18:19.000Z</time>
      </trkpt>
      <trkpt lat="47.51058" lon="6.72625">
        <ele>457.5</ele>
        <time>2014-11-09T11:18:20.000Z</time>
      </trkpt>
      <trkpt lat="47.51054" lon="6.72628">
        <ele>457.3</ele>
        <time>2014-11-09T11:18:21.000Z</time>
      </trkpt>
      <trkpt lat="47.51051" lon="6.7263">
        <ele>457.2</ele>
        <time>2014-11-09T11:18:22.000Z</time>
      </trkpt>
      <trkpt lat="47.51047" lon="6.72632">
        <ele>456.3</ele>
        <time>2014-11-09T11:18:23.000Z</time>
      </trkpt>
      <trkpt lat="47.51045" lon="6.72634">
        <ele>455.7</ele>
        <time>2014-11-09T11:18:24.000Z</time>
      </trkpt>
      <trkpt lat="47.51042" lon="6.72636">
        <ele>453.9</ele>
        <time>2014-11-09T11:18:25.000Z</time>
      </trkpt>
      <trkpt lat="47.51039" lon="6.72638">
        <ele>452.8</ele>
        <time>2014-11-09T11:18:26.000Z</time>
      </trkpt>
      <trkpt lat="47.51036" lon="6.72641">
        <ele>452.1</ele>
        <time>2014-11-09T11:18:27.000Z</time>
      </trkpt>
      <trkpt lat="47.51033" lon="6.72643">
        <ele>452.3</ele>
        <time>2014-11-09T11:18:28.000Z</time>
      </trkpt>
      <trkpt lat="47.5103" lon="6.72646">
        <ele>454.6</ele>
        <time>2014-11-09T11:18:29.000Z</time>
      </trkpt>
      <trkpt lat="47.51026" lon="6.7265">
        <ele>452.9</ele>
        <time>2014-11-09T11:18:30.000Z</time>
      </trkpt>
      <trkpt lat="47.51022" lon="6.72654">
        <ele>451.4</ele>
        <time>2014-11-09T11:18:31.000Z</time>
      </trkpt>
      <trkpt lat="47.51019" lon="6.72658">
        <ele>451.1</ele>
        <time>2014-11-09T11:18:32.000Z</time>
      </trkpt>
      <trkpt lat="47.51015" lon="6.72661">
        <ele>449.9</ele>
        <time>2014-11-09T11:18:33.000Z</time>
      </trkpt>
      <trkpt lat="47.51013" lon="6.72664">
        <ele>449.3</ele>
        <time>2014-11-09T11:18:34.000Z</time>
      </trkpt>
      <trkpt lat="47.5101" lon="6.72666">
        <ele>448.7</ele>
        <time>2014-11-09T11:18:35.000Z</time>
      </trkpt>
      <trkpt lat="47.51008" lon="6.7267">
        <ele>447.9</ele>
        <time>2014-11-09T11:18:37.000Z</time>
      </trkpt>
      <trkpt lat="47.51007" lon="6.72672">
        <ele>447.3</ele>
        <time>2014-11-09T11:18:38.000Z</time>
      </trkpt>
      <trkpt lat="47.51008" lon="6.72677">
        <ele>446.8</ele>
        <time>2014-11-09T11:18:43.000Z</time>
      </trkpt>
      <trkpt lat="47.51009" lon="6.72679">
        <ele>446.8</ele>
        <time>2014-11-09T11:18:44.000Z</time>
      </trkpt>
      <trkpt lat="47.51006" lon="6.72684">
        <ele>447.8</ele>
        <time>2014-11-09T11:18:54.000Z</time>
      </trkpt>
      <trkpt lat="47.51005" lon="6.72684">
        <ele>447.2</ele>
        <time>2014-11-09T11:18:55.000Z</time>
      </trkpt>
      <trkpt lat="47.51005" lon="6.72689">
        <ele>449.2</ele>
        <time>2014-11-09T11:19:06.000Z</time>
      </trkpt>
      <trkpt lat="47.51003" lon="6.72691">
        <ele>449.6</ele>
        <time>2014-11-09T11:19:07.000Z</time>
      </trkpt>
      <trkpt lat="47.51" lon="6.72694">
        <ele>452.5</ele>
        <time>2014-11-09T11:19:08.000Z</time>
      </trkpt>
      <trkpt lat="47.50997" lon="6.72697">
        <ele>452</ele>
        <time>2014-11-09T11:19:09.000Z</time>
      </trkpt>
      <trkpt lat="47.50993" lon="6.727">
        <ele>451.3</ele>
        <time>2014-11-09T11:19:10.000Z</time>
      </trkpt>
      <trkpt lat="47.5099" lon="6.72703">
        <ele>452.4</ele>
        <time>2014-11-09T11:19:11.000Z</time>
      </trkpt>
      <trkpt lat="47.50987" lon="6.72706">
        <ele>452.3</ele>
        <time>2014-11-09T11:19:12.000Z</time>
      </trkpt>
      <trkpt lat="47.50984" lon="6.72709">
        <ele>452.1</ele>
        <time>2014-11-09T11:19:13.000Z</time>
      </trkpt>
      <trkpt lat="47.50982" lon="6.72712">
        <ele>452</ele>
        <time>2014-11-09T11:19:14.000Z</time>
      </trkpt>
      <trkpt lat="47.50978" lon="6.72714">
        <ele>450.3</ele>
        <time>2014-11-09T11:19:15.000Z</time>
      </trkpt>
      <trkpt lat="47.50973" lon="6.72717">
        <ele>449.9</ele>
        <time>2014-11-09T11:19:16.000Z</time>
      </trkpt>
      <trkpt lat="47.5097" lon="6.7272">
        <ele>451.2</ele>
        <time>2014-11-09T11:19:17.000Z</time>
      </trkpt>
      <trkpt lat="47.50966" lon="6.72723">
        <ele>451.3</ele>
        <time>2014-11-09T11:19:18.000Z</time>
      </trkpt>
      <trkpt lat="47.50963" lon="6.72726">
        <ele>450.3</ele>
        <time>2014-11-09T11:19:19.000Z</time>
      </trkpt>
      <trkpt lat="47.50961" lon="6.72729">
        <ele>450</ele>
        <time>2014-11-09T11:19:20.000Z</time>
      </trkpt>
      <trkpt lat="47.50958" lon="6.72731">
        <ele>449.5</ele>
        <time>2014-11-09T11:19:21.000Z</time>
      </trkpt>
      <trkpt lat="47.50955" lon="6.72733">
        <ele>450.3</ele>
        <time>2014-11-09T11:19:22.000Z</time>
      </trkpt>
      <trkpt lat="47.50953" lon="6.72736">
        <ele>451.9</ele>
        <time>2014-11-09T11:19:23.000Z</time>
      </trkpt>
      <trkpt lat="47.5095" lon="6.72739">
        <ele>451.5</ele>
        <time>2014-11-09T11:19:24.000Z</time>
      </trkpt>
      <trkpt lat="47.50948" lon="6.72742">
        <ele>451.5</ele>
        <time>2014-11-09T11:19:25.000Z</time>
      </trkpt>
      <trkpt lat="47.50945" lon="6.72745">
        <ele>453.3</ele>
        <time>2014-11-09T11:19:26.000Z</time>
      </trkpt>
      <trkpt lat="47.50942" lon="6.72749">
        <ele>452</ele>
        <time>2014-11-09T11:19:27.000Z</time>
      </trkpt>
      <trkpt lat="47.50938" lon="6.72752">
        <ele>452.3</ele>
        <time>2014-11-09T11:19:28.000Z</time>
      </trkpt>
      <trkpt lat="47.50935" lon="6.72756">
        <ele>452.7</ele>
        <time>2014-11-09T11:19:29.000Z</time>
      </trkpt>
      <trkpt lat="47.50933" lon="6.72759">
        <ele>455</ele>
        <time>2014-11-09T11:19:30.000Z</time>
      </trkpt>
      <trkpt lat="47.50931" lon="6.72763">
        <ele>455.5</ele>
        <time>2014-11-09T11:19:31.000Z</time>
      </trkpt>
      <trkpt lat="47.50929" lon="6.72766">
        <ele>455.3</ele>
        <time>2014-11-09T11:19:32.000Z</time>
      </trkpt>
      <trkpt lat="47.50927" lon="6.72769">
        <ele>455.8</ele>
        <time>2014-11-09T11:19:33.000Z</time>
      </trkpt>
      <trkpt lat="47.50925" lon="6.72772">
        <ele>455.6</ele>
        <time>2014-11-09T11:19:34.000Z</time>
      </trkpt>
      <trkpt lat="47.50924" lon="6.72776">
        <ele>455.5</ele>
        <time>2014-11-09T11:19:35.000Z</time>
      </trkpt>
      <trkpt lat="47.50922" lon="6.72779">
        <ele>454.8</ele>
        <time>2014-11-09T11:19:36.000Z</time>
      </trkpt>
      <trkpt lat="47.5092" lon="6.72782">
        <ele>454.6</ele>
        <time>2014-11-09T11:19:37.000Z</time>
      </trkpt>
      <trkpt lat="47.50917" lon="6.72785">
        <ele>454.6</ele>
        <time>2014-11-09T11:19:38.000Z</time>
      </trkpt>
      <trkpt lat="47.50915" lon="6.72789">
        <ele>455.1</ele>
        <time>2014-11-09T11:19:39.000Z</time>
      </trkpt>
      <trkpt lat="47.50912" lon="6.72792">
        <ele>455.9</ele>
        <time>2014-11-09T11:19:40.000Z</time>
      </trkpt>
      <trkpt lat="47.50912" lon="6.72796">
        <ele>455.2</ele>
        <time>2014-11-09T11:19:41.000Z</time>
      </trkpt>
      <trkpt lat="47.50911" lon="6.728">
        <ele>453.4</ele>
        <time>2014-11-09T11:19:42.000Z</time>
      </trkpt>
      <trkpt lat="47.50911" lon="6.72804">
        <ele>451.3</ele>
        <time>2014-11-09T11:19:43.000Z</time>
      </trkpt>
      <trkpt lat="47.5091" lon="6.72808">
        <ele>452.4</ele>
        <time>2014-11-09T11:19:44.000Z</time>
      </trkpt>
      <trkpt lat="47.50909" lon="6.72813">
        <ele>452.3</ele>
        <time>2014-11-09T11:19:46.000Z</time>
      </trkpt>
      <trkpt lat="47.50909" lon="6.72815">
        <ele>452.4</ele>
        <time>2014-11-09T11:19:47.000Z</time>
      </trkpt>
      <trkpt lat="47.50909" lon="6.72821">
        <ele>452</ele>
        <time>2014-11-09T11:19:51.000Z</time>
      </trkpt>
      <trkpt lat="47.50909" lon="6.72822">
        <ele>452</ele>
        <time>2014-11-09T11:19:52.000Z</time>
      </trkpt>
      <trkpt lat="47.50909" lon="6.72827">
        <ele>452.6</ele>
        <time>2014-11-09T11:20:01.000Z</time>
      </trkpt>
      <trkpt lat="47.50909" lon="6.72828">
        <ele>452.8</ele>
        <time>2014-11-09T11:20:02.000Z</time>
      </trkpt>
      <trkpt lat="47.50907" lon="6.72834">
        <ele>453.9</ele>
        <time>2014-11-09T11:20:04.000Z</time>
      </trkpt>
      <trkpt lat="47.50906" lon="6.72837">
        <ele>454.9</ele>
        <time>2014-11-09T11:20:05.000Z</time>
      </trkpt>
      <trkpt lat="47.50904" lon="6.72842">
        <ele>458.5</ele>
        <time>2014-11-09T11:20:06.000Z</time>
      </trkpt>
      <trkpt lat="47.50901" lon="6.72849">
        <ele>458.2</ele>
        <time>2014-11-09T11:20:07.000Z</time>
      </trkpt>
      <trkpt lat="47.50898" lon="6.72856">
        <ele>458.5</ele>
        <time>2014-11-09T11:20:08.000Z</time>
      </trkpt>
      <trkpt lat="47.50894" lon="6.72864">
        <ele>459.2</ele>
        <time>2014-11-09T11:20:09.000Z</time>
      </trkpt>
      <trkpt lat="47.50891" lon="6.72871">
        <ele>458.9</ele>
        <time>2014-11-09T11:20:10.000Z</time>
      </trkpt>
      <trkpt lat="47.50888" lon="6.72875">
        <ele>459.2</ele>
        <time>2014-11-09T11:20:11.056Z</time>
      </trkpt>
      <trkpt lat="47.50884" lon="6.72885">
        <ele>461.3</ele>
        <time>2014-11-09T11:20:12.000Z</time>
      </trkpt>
      <trkpt lat="47.50881" lon="6.72893">
        <ele>461.8</ele>
        <time>2014-11-09T11:20:13.000Z</time>
      </trkpt>
      <trkpt lat="47.50879" lon="6.729">
        <ele>461.5</ele>
        <time>2014-11-09T11:20:14.000Z</time>
      </trkpt>
      <trkpt lat="47.50876" lon="6.72909">
        <ele>461.9</ele>
        <time>2014-11-09T11:20:15.000Z</time>
      </trkpt>
      <trkpt lat="47.50874" lon="6.72917">
        <ele>460.6</ele>
        <time>2014-11-09T11:20:16.000Z</time>
      </trkpt>
      <trkpt lat="47.50871" lon="6.72926">
        <ele>460.2</ele>
        <time>2014-11-09T11:20:17.000Z</time>
      </trkpt>
      <trkpt lat="47.50868" lon="6.72935">
        <ele>460.3</ele>
        <time>2014-11-09T11:20:18.000Z</time>
      </trkpt>
      <trkpt lat="47.50863" lon="6.72968">
        <ele>459.1</ele>
        <time>2014-11-09T11:20:19.000Z</time>
      </trkpt>
      <trkpt lat="47.50861" lon="6.72976">
        <ele>458.2</ele>
        <time>2014-11-09T11:20:20.000Z</time>
      </trkpt>
      <trkpt lat="47.5086" lon="6.72984">
        <ele>456.9</ele>
        <time>2014-11-09T11:20:21.000Z</time>
      </trkpt>
      <trkpt lat="47.50858" lon="6.7299">
        <ele>456.5</ele>
        <time>2014-11-09T11:20:22.000Z</time>
      </trkpt>
      <trkpt lat="47.50857" lon="6.72996">
        <ele>456.2</ele>
        <time>2014-11-09T11:20:23.000Z</time>
      </trkpt>
      <trkpt lat="47.50855" lon="6.73003">
        <ele>456.1</ele>
        <time>2014-11-09T11:20:24.000Z</time>
      </trkpt>
      <trkpt lat="47.50852" lon="6.73009">
        <ele>456.3</ele>
        <time>2014-11-09T11:20:25.000Z</time>
      </trkpt>
      <trkpt lat="47.5085" lon="6.73016">
        <ele>455.1</ele>
        <time>2014-11-09T11:20:26.000Z</time>
      </trkpt>
      <trkpt lat="47.50847" lon="6.73024">
        <ele>454.7</ele>
        <time>2014-11-09T11:20:27.000Z</time>
      </trkpt>
      <trkpt lat="47.50844" lon="6.73032">
        <ele>455.3</ele>
        <time>2014-11-09T11:20:28.000Z</time>
      </trkpt>
      <trkpt lat="47.50841" lon="6.73041">
        <ele>456</ele>
        <time>2014-11-09T11:20:29.000Z</time>
      </trkpt>
      <trkpt lat="47.50839" lon="6.7305">
        <ele>456.7</ele>
        <time>2014-11-09T11:20:30.000Z</time>
      </trkpt>
      <trkpt lat="47.50836" lon="6.73058">
        <ele>456.6</ele>
        <time>2014-11-09T11:20:31.000Z</time>
      </trkpt>
      <trkpt lat="47.50833" lon="6.73063">
        <ele>457</ele>
        <time>2014-11-09T11:20:31.999Z</time>
      </trkpt>
      <trkpt lat="47.50828" lon="6.73075">
        <ele>454.7</ele>
        <time>2014-11-09T11:20:33.000Z</time>
      </trkpt>
      <trkpt lat="47.50821" lon="6.73102">
        <ele>453.6</ele>
        <time>2014-11-09T11:20:34.000Z</time>
      </trkpt>
      <trkpt lat="47.5082" lon="6.73114">
        <ele>453.4</ele>
        <time>2014-11-09T11:20:35.000Z</time>
      </trkpt>
      <trkpt lat="47.50816" lon="6.73125">
        <ele>451.2</ele>
        <time>2014-11-09T11:20:36.000Z</time>
      </trkpt>
      <trkpt lat="47.50813" lon="6.73137">
        <ele>450.7</ele>
        <time>2014-11-09T11:20:37.000Z</time>
      </trkpt>
      <trkpt lat="47.50808" lon="6.73147">
        <ele>449</ele>
        <time>2014-11-09T11:20:38.000Z</time>
      </trkpt>
      <trkpt lat="47.50802" lon="6.73156">
        <ele>447.8</ele>
        <time>2014-11-09T11:20:39.000Z</time>
      </trkpt>
      <trkpt lat="47.50797" lon="6.73164">
        <ele>446.8</ele>
        <time>2014-11-09T11:20:40.000Z</time>
      </trkpt>
      <trkpt lat="47.50792" lon="6.73172">
        <ele>445.8</ele>
        <time>2014-11-09T11:20:41.000Z</time>
      </trkpt>
      <trkpt lat="47.50784" lon="6.73179">
        <ele>444.8</ele>
        <time>2014-11-09T11:20:42.000Z</time>
      </trkpt>
      <trkpt lat="47.50778" lon="6.73189">
        <ele>442.9</ele>
        <time>2014-11-09T11:20:43.000Z</time>
      </trkpt>
      <trkpt lat="47.50775" lon="6.732">
        <ele>441.9</ele>
        <time>2014-11-09T11:20:44.000Z</time>
      </trkpt>
      <trkpt lat="47.50772" lon="6.7321">
        <ele>441.1</ele>
        <time>2014-11-09T11:20:45.000Z</time>
      </trkpt>
      <trkpt lat="47.50768" lon="6.73218">
        <ele>439.7</ele>
        <time>2014-11-09T11:20:46.000Z</time>
      </trkpt>
      <trkpt lat="47.50765" lon="6.73226">
        <ele>438.6</ele>
        <time>2014-11-09T11:20:47.000Z</time>
      </trkpt>
      <trkpt lat="47.50759" lon="6.73234">
        <ele>437.8</ele>
        <time>2014-11-09T11:20:48.000Z</time>
      </trkpt>
      <trkpt lat="47.50752" lon="6.73241">
        <ele>436.8</ele>
        <time>2014-11-09T11:20:49.000Z</time>
      </trkpt>
      <trkpt lat="47.50747" lon="6.73256">
        <ele>434.5</ele>
        <time>2014-11-09T11:20:50.000Z</time>
      </trkpt>
      <trkpt lat="47.50743" lon="6.73264">
        <ele>434.4</ele>
        <time>2014-11-09T11:20:51.000Z</time>
      </trkpt>
      <trkpt lat="47.5074" lon="6.73273">
        <ele>433.1</ele>
        <time>2014-11-09T11:20:52.000Z</time>
      </trkpt>
      <trkpt lat="47.50736" lon="6.73286">
        <ele>431.9</ele>
        <time>2014-11-09T11:20:53.000Z</time>
      </trkpt>
      <trkpt lat="47.50733" lon="6.73293">
        <ele>432.2</ele>
        <time>2014-11-09T11:20:54.058Z</time>
      </trkpt>
      <trkpt lat="47.50726" lon="6.73299">
        <ele>430.4</ele>
        <time>2014-11-09T11:20:55.000Z</time>
      </trkpt>
      <trkpt lat="47.50723" lon="6.73304">
        <ele>428.9</ele>
        <time>2014-11-09T11:20:56.000Z</time>
      </trkpt>
      <trkpt lat="47.50712" lon="6.73316">
        <ele>427.4</ele>
        <time>2014-11-09T11:20:59.000Z</time>
      </trkpt>
      <trkpt lat="47.50708" lon="6.73332">
        <ele>431.1</ele>
        <time>2014-11-09T11:21:00.000Z</time>
      </trkpt>
      <trkpt lat="47.50703" lon="6.73343">
        <ele>430.7</ele>
        <time>2014-11-09T11:21:01.000Z</time>
      </trkpt>
      <trkpt lat="47.507" lon="6.73352">
        <ele>430.5</ele>
        <time>2014-11-09T11:21:02.000Z</time>
      </trkpt>
      <trkpt lat="47.50696" lon="6.73361">
        <ele>430.2</ele>
        <time>2014-11-09T11:21:03.000Z</time>
      </trkpt>
      <trkpt lat="47.50692" lon="6.73368">
        <ele>430.3</ele>
        <time>2014-11-09T11:21:04.000Z</time>
      </trkpt>
      <trkpt lat="47.50688" lon="6.73379">
        <ele>430.5</ele>
        <time>2014-11-09T11:21:05.000Z</time>
      </trkpt>
      <trkpt lat="47.50683" lon="6.73386">
        <ele>429.9</ele>
        <time>2014-11-09T11:21:06.000Z</time>
      </trkpt>
      <trkpt lat="47.50679" lon="6.73392">
        <ele>429.6</ele>
        <time>2014-11-09T11:21:07.000Z</time>
      </trkpt>
      <trkpt lat="47.50676" lon="6.73398">
        <ele>428.3</ele>
        <time>2014-11-09T11:21:08.000Z</time>
      </trkpt>
      <trkpt lat="47.50673" lon="6.73406">
        <ele>426.4</ele>
        <time>2014-11-09T11:21:09.000Z</time>
      </trkpt>
      <trkpt lat="47.50669" lon="6.73413">
        <ele>423.9</ele>
        <time>2014-11-09T11:21:10.000Z</time>
      </trkpt>
      <trkpt lat="47.50667" lon="6.73419">
        <ele>422.2</ele>
        <time>2014-11-09T11:21:11.000Z</time>
      </trkpt>
      <trkpt lat="47.50664" lon="6.73425">
        <ele>420.3</ele>
        <time>2014-11-09T11:21:12.000Z</time>
      </trkpt>
      <trkpt lat="47.50662" lon="6.73431">
        <ele>418.9</ele>
        <time>2014-11-09T11:21:13.000Z</time>
      </trkpt>
      <trkpt lat="47.50661" lon="6.73436">
        <ele>417.8</ele>
        <time>2014-11-09T11:21:14.000Z</time>
      </trkpt>
      <trkpt lat="47.50658" lon="6.73441">
        <ele>416.2</ele>
        <time>2014-11-09T11:21:15.000Z</time>
      </trkpt>
      <trkpt lat="47.50656" lon="6.73447">
        <ele>415.7</ele>
        <time>2014-11-09T11:21:16.000Z</time>
      </trkpt>
      <trkpt lat="47.50654" lon="6.73453">
        <ele>414.5</ele>
        <time>2014-11-09T11:21:17.000Z</time>
      </trkpt>
      <trkpt lat="47.50652" lon="6.73458">
        <ele>417</ele>
        <time>2014-11-09T11:21:18.000Z</time>
      </trkpt>
      <trkpt lat="47.50651" lon="6.73464">
        <ele>417.1</ele>
        <time>2014-11-09T11:21:19.000Z</time>
      </trkpt>
      <trkpt lat="47.50649" lon="6.7347">
        <ele>415.9</ele>
        <time>2014-11-09T11:21:20.000Z</time>
      </trkpt>
      <trkpt lat="47.50648" lon="6.73475">
        <ele>416</ele>
        <time>2014-11-09T11:21:21.000Z</time>
      </trkpt>
      <trkpt lat="47.50646" lon="6.73479">
        <ele>415</ele>
        <time>2014-11-09T11:21:22.000Z</time>
      </trkpt>
      <trkpt lat="47.50644" lon="6.73483">
        <ele>414.4</ele>
        <time>2014-11-09T11:21:23.000Z</time>
      </trkpt>
      <trkpt lat="47.50641" lon="6.73487">
        <ele>413.5</ele>
        <time>2014-11-09T11:21:24.000Z</time>
      </trkpt>
      <trkpt lat="47.50639" lon="6.73491">
        <ele>413.1</ele>
        <time>2014-11-09T11:21:25.000Z</time>
      </trkpt>
      <trkpt lat="47.50636" lon="6.73494">
        <ele>412.7</ele>
        <time>2014-11-09T11:21:26.000Z</time>
      </trkpt>
      <trkpt lat="47.50632" lon="6.73497">
        <ele>411.6</ele>
        <time>2014-11-09T11:21:27.000Z</time>
      </trkpt>
      <trkpt lat="47.50631" lon="6.73503">
        <ele>413</ele>
        <time>2014-11-09T11:21:32.000Z</time>
      </trkpt>
      <trkpt lat="47.50631" lon="6.73503">
        <ele>412.4</ele>
        <time>2014-11-09T11:21:33.000Z</time>
      </trkpt>
      <trkpt lat="47.50627" lon="6.73507">
        <ele>409.9</ele>
        <time>2014-11-09T11:21:39.000Z</time>
      </trkpt>
      <trkpt lat="47.50627" lon="6.73507">
        <ele>409.8</ele>
        <time>2014-11-09T11:21:40.000Z</time>
      </trkpt>
      <trkpt lat="47.50625" lon="6.73511">
        <ele>407.9</ele>
        <time>2014-11-09T11:22:19.000Z</time>
      </trkpt>
      <trkpt lat="47.50624" lon="6.73512">
        <ele>408</ele>
        <time>2014-11-09T11:22:20.000Z</time>
      </trkpt>
      <trkpt lat="47.50622" lon="6.73518">
        <ele>406.2</ele>
        <time>2014-11-09T11:22:26.000Z</time>
      </trkpt>
      <trkpt lat="47.50622" lon="6.7352">
        <ele>403.9</ele>
        <time>2014-11-09T11:22:27.000Z</time>
      </trkpt>
      <trkpt lat="47.50624" lon="6.73525">
        <ele>402.9</ele>
        <time>2014-11-09T11:22:44.000Z</time>
      </trkpt>
      <trkpt lat="47.50625" lon="6.73529">
        <ele>399.6</ele>
        <time>2014-11-09T11:22:45.000Z</time>
      </trkpt>
      <trkpt lat="47.50625" lon="6.73532">
        <ele>400.5</ele>
        <time>2014-11-09T11:22:46.000Z</time>
      </trkpt>
      <trkpt lat="47.50626" lon="6.73537">
        <ele>397.1</ele>
        <time>2014-11-09T11:22:47.000Z</time>
      </trkpt>
      <trkpt lat="47.50626" lon="6.73542">
        <ele>395</ele>
        <time>2014-11-09T11:22:48.000Z</time>
      </trkpt>
      <trkpt lat="47.50626" lon="6.73548">
        <ele>395.5</ele>
        <time>2014-11-09T11:22:49.000Z</time>
      </trkpt>
      <trkpt lat="47.50627" lon="6.73555">
        <ele>394</ele>
        <time>2014-11-09T11:22:50.000Z</time>
      </trkpt>
      <trkpt lat="47.50628" lon="6.73561">
        <ele>394.3</ele>
        <time>2014-11-09T11:22:51.000Z</time>
      </trkpt>
      <trkpt lat="47.50629" lon="6.73568">
        <ele>393.2</ele>
        <time>2014-11-09T11:22:52.000Z</time>
      </trkpt>
      <trkpt lat="47.50631" lon="6.73575">
        <ele>392.8</ele>
        <time>2014-11-09T11:22:53.000Z</time>
      </trkpt>
      <trkpt lat="47.50634" lon="6.73583">
        <ele>387.6</ele>
        <time>2014-11-09T11:22:54.000Z</time>
      </trkpt>
      <trkpt lat="47.50637" lon="6.73591">
        <ele>385.8</ele>
        <time>2014-11-09T11:22:55.000Z</time>
      </trkpt>
      <trkpt lat="47.50639" lon="6.73599">
        <ele>385.7</ele>
        <time>2014-11-09T11:22:56.000Z</time>
      </trkpt>
      <trkpt lat="47.50642" lon="6.73617">
        <ele>385.4</ele>
        <time>2014-11-09T11:22:59.000Z</time>
      </trkpt>
      <trkpt lat="47.50642" lon="6.73622">
        <ele>384.9</ele>
        <time>2014-11-09T11:23:00.000Z</time>
      </trkpt>
      <trkpt lat="47.50641" lon="6.73626">
        <ele>384.8</ele>
        <time>2014-11-09T11:23:01.000Z</time>
      </trkpt>
      <trkpt lat="47.5064" lon="6.7363">
        <ele>385</ele>
        <time>2014-11-09T11:23:01.999Z</time>
      </trkpt>
      <trkpt lat="47.50641" lon="6.73649">
        <ele>385</ele>
        <time>2014-11-09T11:23:03.000Z</time>
      </trkpt>
      <trkpt lat="47.5064" lon="6.73655">
        <ele>385.7</ele>
        <time>2014-11-09T11:23:04.000Z</time>
      </trkpt>
      <trkpt lat="47.5064" lon="6.73662">
        <ele>385.8</ele>
        <time>2014-11-09T11:23:05.000Z</time>
      </trkpt>
      <trkpt lat="47.50642" lon="6.73674">
        <ele>386.1</ele>
        <time>2014-11-09T11:23:06.000Z</time>
      </trkpt>
      <trkpt lat="47.50643" lon="6.73682">
        <ele>386.4</ele>
        <time>2014-11-09T11:23:07.000Z</time>
      </trkpt>
      <trkpt lat="47.50643" lon="6.7369">
        <ele>385.8</ele>
        <time>2014-11-09T11:23:08.000Z</time>
      </trkpt>
      <trkpt lat="47.50644" lon="6.73698">
        <ele>386.3</ele>
        <time>2014-11-09T11:23:09.000Z</time>
      </trkpt>
      <trkpt lat="47.50645" lon="6.73711">
        <ele>387.4</ele>
        <time>2014-11-09T11:23:10.000Z</time>
      </trkpt>
      <trkpt lat="47.50646" lon="6.73723">
        <ele>386.5</ele>
        <time>2014-11-09T11:23:11.000Z</time>
      </trkpt>
      <trkpt lat="47.50646" lon="6.73732">
        <ele>387.2</ele>
        <time>2014-11-09T11:23:12.000Z</time>
      </trkpt>
      <trkpt lat="47.50646" lon="6.73743">
        <ele>387.8</ele>
        <time>2014-11-09T11:23:13.000Z</time>
      </trkpt>
      <trkpt lat="47.50646" lon="6.73752">
        <ele>387.4</ele>
        <time>2014-11-09T11:23:14.000Z</time>
      </trkpt>
      <trkpt lat="47.50644" lon="6.73758">
        <ele>387.2</ele>
        <time>2014-11-09T11:23:15.000Z</time>
      </trkpt>
      <trkpt lat="47.50644" lon="6.73765">
        <ele>387.1</ele>
        <time>2014-11-09T11:23:16.000Z</time>
      </trkpt>
      <trkpt lat="47.50644" lon="6.73772">
        <ele>386.7</ele>
        <time>2014-11-09T11:23:17.000Z</time>
      </trkpt>
      <trkpt lat="47.50642" lon="6.7378">
        <ele>386.5</ele>
        <time>2014-11-09T11:23:18.000Z</time>
      </trkpt>
      <trkpt lat="47.50641" lon="6.73791">
        <ele>389</ele>
        <time>2014-11-09T11:23:19.000Z</time>
      </trkpt>
      <trkpt lat="47.5064" lon="6.73799">
        <ele>390.2</ele>
        <time>2014-11-09T11:23:20.000Z</time>
      </trkpt>
      <trkpt lat="47.50639" lon="6.73806">
        <ele>390.1</ele>
        <time>2014-11-09T11:23:21.000Z</time>
      </trkpt>
      <trkpt lat="47.50637" lon="6.73814">
        <ele>391.1</ele>
        <time>2014-11-09T11:23:22.000Z</time>
      </trkpt>
      <trkpt lat="47.50636" lon="6.73823">
        <ele>391.6</ele>
        <time>2014-11-09T11:23:23.000Z</time>
      </trkpt>
      <trkpt lat="47.50634" lon="6.73832">
        <ele>391.3</ele>
        <time>2014-11-09T11:23:24.000Z</time>
      </trkpt>
      <trkpt lat="47.50632" lon="6.73843">
        <ele>393.1</ele>
        <time>2014-11-09T11:23:25.000Z</time>
      </trkpt>
      <trkpt lat="47.50629" lon="6.73853">
        <ele>392.7</ele>
        <time>2014-11-09T11:23:26.000Z</time>
      </trkpt>
      <trkpt lat="47.50627" lon="6.7386">
        <ele>392.9</ele>
        <time>2014-11-09T11:23:27.000Z</time>
      </trkpt>
      <trkpt lat="47.50625" lon="6.73866">
        <ele>392.8</ele>
        <time>2014-11-09T11:23:28.000Z</time>
      </trkpt>
      <trkpt lat="47.50622" lon="6.73872">
        <ele>392.4</ele>
        <time>2014-11-09T11:23:29.000Z</time>
      </trkpt>
      <trkpt lat="47.5062" lon="6.73879">
        <ele>392.1</ele>
        <time>2014-11-09T11:23:30.000Z</time>
      </trkpt>
      <trkpt lat="47.50616" lon="6.73886">
        <ele>392</ele>
        <time>2014-11-09T11:23:31.000Z</time>
      </trkpt>
      <trkpt lat="47.50613" lon="6.73895">
        <ele>392.3</ele>
        <time>2014-11-09T11:23:32.000Z</time>
      </trkpt>
      <trkpt lat="47.50609" lon="6.73903">
        <ele>391.7</ele>
        <time>2014-11-09T11:23:33.000Z</time>
      </trkpt>
      <trkpt lat="47.50605" lon="6.73911">
        <ele>390.5</ele>
        <time>2014-11-09T11:23:34.000Z</time>
      </trkpt>
      <trkpt lat="47.50601" lon="6.73918">
        <ele>389.4</ele>
        <time>2014-11-09T11:23:35.000Z</time>
      </trkpt>
      <trkpt lat="47.50598" lon="6.73924">
        <ele>388.9</ele>
        <time>2014-11-09T11:23:36.000Z</time>
      </trkpt>
      <trkpt lat="47.50594" lon="6.73934">
        <ele>388.7</ele>
        <time>2014-11-09T11:23:37.000Z</time>
      </trkpt>
      <trkpt lat="47.5059" lon="6.73942">
        <ele>387.5</ele>
        <time>2014-11-09T11:23:38.000Z</time>
      </trkpt>
      <trkpt lat="47.50588" lon="6.73952">
        <ele>387.5</ele>
        <time>2014-11-09T11:23:39.000Z</time>
      </trkpt>
      <trkpt lat="47.50586" lon="6.73963">
        <ele>386.7</ele>
        <time>2014-11-09T11:23:40.000Z</time>
      </trkpt>
      <trkpt lat="47.50583" lon="6.73969">
        <ele>385.8</ele>
        <time>2014-11-09T11:23:41.000Z</time>
      </trkpt>
      <trkpt lat="47.5058" lon="6.73975">
        <ele>385</ele>
        <time>2014-11-09T11:23:42.000Z</time>
      </trkpt>
      <trkpt lat="47.50577" lon="6.7398">
        <ele>384.9</ele>
        <time>2014-11-09T11:23:43.000Z</time>
      </trkpt>
      <trkpt lat="47.50574" lon="6.73984">
        <ele>385.3</ele>
        <time>2014-11-09T11:23:44.000Z</time>
      </trkpt>
      <trkpt lat="47.50572" lon="6.73989">
        <ele>386.1</ele>
        <time>2014-11-09T11:23:45.000Z</time>
      </trkpt>
      <trkpt lat="47.50569" lon="6.73994">
        <ele>386.7</ele>
        <time>2014-11-09T11:23:46.000Z</time>
      </trkpt>
      <trkpt lat="47.50567" lon="6.73999">
        <ele>387.9</ele>
        <time>2014-11-09T11:23:47.000Z</time>
      </trkpt>
      <trkpt lat="47.50564" lon="6.74005">
        <ele>387.4</ele>
        <time>2014-11-09T11:23:48.000Z</time>
      </trkpt>
      <trkpt lat="47.50561" lon="6.74011">
        <ele>387.2</ele>
        <time>2014-11-09T11:23:49.000Z</time>
      </trkpt>
      <trkpt lat="47.50558" lon="6.74016">
        <ele>387.2</ele>
        <time>2014-11-09T11:23:50.000Z</time>
      </trkpt>
      <trkpt lat="47.50554" lon="6.74021">
        <ele>387.2</ele>
        <time>2014-11-09T11:23:51.000Z</time>
      </trkpt>
      <trkpt lat="47.5055" lon="6.74026">
        <ele>386.9</ele>
        <time>2014-11-09T11:23:52.000Z</time>
      </trkpt>
      <trkpt lat="47.50547" lon="6.74032">
        <ele>386.6</ele>
        <time>2014-11-09T11:23:53.000Z</time>
      </trkpt>
      <trkpt lat="47.50543" lon="6.74038">
        <ele>384.9</ele>
        <time>2014-11-09T11:23:54.000Z</time>
      </trkpt>
      <trkpt lat="47.5054" lon="6.74046">
        <ele>385.2</ele>
        <time>2014-11-09T11:23:55.000Z</time>
      </trkpt>
      <trkpt lat="47.50537" lon="6.74053">
        <ele>383.1</ele>
        <time>2014-11-09T11:23:56.000Z</time>
      </trkpt>
      <trkpt lat="47.50529" lon="6.74068">
        <ele>384.1</ele>
        <time>2014-11-09T11:23:59.000Z</time>
      </trkpt>
      <trkpt lat="47.50525" lon="6.74074">
        <ele>382.4</ele>
        <time>2014-11-09T11:24:00.000Z</time>
      </trkpt>
      <trkpt lat="47.50521" lon="6.7408">
        <ele>381.2</ele>
        <time>2014-11-09T11:24:01.000Z</time>
      </trkpt>
      <trkpt lat="47.50518" lon="6.74087">
        <ele>380.4</ele>
        <time>2014-11-09T11:24:02.000Z</time>
      </trkpt>
      <trkpt lat="47.50515" lon="6.74094">
        <ele>381.6</ele>
        <time>2014-11-09T11:24:03.000Z</time>
      </trkpt>
      <trkpt lat="47.50513" lon="6.74101">
        <ele>382.3</ele>
        <time>2014-11-09T11:24:04.000Z</time>
      </trkpt>
      <trkpt lat="47.50511" lon="6.74108">
        <ele>381.7</ele>
        <time>2014-11-09T11:24:05.000Z</time>
      </trkpt>
      <trkpt lat="47.50509" lon="6.74114">
        <ele>382.4</ele>
        <time>2014-11-09T11:24:06.000Z</time>
      </trkpt>
      <trkpt lat="47.50507" lon="6.74119">
        <ele>382.2</ele>
        <time>2014-11-09T11:24:07.000Z</time>
      </trkpt>
      <trkpt lat="47.50504" lon="6.74125">
        <ele>382.7</ele>
        <time>2014-11-09T11:24:08.000Z</time>
      </trkpt>
      <trkpt lat="47.50502" lon="6.74131">
        <ele>383.1</ele>
        <time>2014-11-09T11:24:09.000Z</time>
      </trkpt>
      <trkpt lat="47.50499" lon="6.74136">
        <ele>383.3</ele>
        <time>2014-11-09T11:24:10.000Z</time>
      </trkpt>
      <trkpt lat="47.50496" lon="6.74141">
        <ele>383.7</ele>
        <time>2014-11-09T11:24:11.000Z</time>
      </trkpt>
      <trkpt lat="47.50494" lon="6.74147">
        <ele>383.6</ele>
        <time>2014-11-09T11:24:12.000Z</time>
      </trkpt>
      <trkpt lat="47.50492" lon="6.74152">
        <ele>383.3</ele>
        <time>2014-11-09T11:24:13.000Z</time>
      </trkpt>
      <trkpt lat="47.50489" lon="6.74158">
        <ele>383.8</ele>
        <time>2014-11-09T11:24:14.000Z</time>
      </trkpt>
      <trkpt lat="47.50487" lon="6.74163">
        <ele>384.6</ele>
        <time>2014-11-09T11:24:15.000Z</time>
      </trkpt>
      <trkpt lat="47.50484" lon="6.74169">
        <ele>384.3</ele>
        <time>2014-11-09T11:24:16.000Z</time>
      </trkpt>
      <trkpt lat="47.50482" lon="6.74174">
        <ele>383.5</ele>
        <time>2014-11-09T11:24:17.000Z</time>
      </trkpt>
      <trkpt lat="47.50478" lon="6.7418">
        <ele>384.4</ele>
        <time>2014-11-09T11:24:18.000Z</time>
      </trkpt>
      <trkpt lat="47.50474" lon="6.74186">
        <ele>384</ele>
        <time>2014-11-09T11:24:19.000Z</time>
      </trkpt>
      <trkpt lat="47.50469" lon="6.74192">
        <ele>383.5</ele>
        <time>2014-11-09T11:24:20.000Z</time>
      </trkpt>
      <trkpt lat="47.50465" lon="6.74198">
        <ele>383.6</ele>
        <time>2014-11-09T11:24:21.000Z</time>
      </trkpt>
      <trkpt lat="47.50461" lon="6.74202">
        <ele>384.2</ele>
        <time>2014-11-09T11:24:22.000Z</time>
      </trkpt>
      <trkpt lat="47.50458" lon="6.74207">
        <ele>384.2</ele>
        <time>2014-11-09T11:24:23.000Z</time>
      </trkpt>
      <trkpt lat="47.50454" lon="6.74211">
        <ele>385.3</ele>
        <time>2014-11-09T11:24:24.000Z</time>
      </trkpt>
      <trkpt lat="47.50451" lon="6.74216">
        <ele>386</ele>
        <time>2014-11-09T11:24:25.000Z</time>
      </trkpt>
      <trkpt lat="47.50447" lon="6.74223">
        <ele>384.1</ele>
        <time>2014-11-09T11:24:26.000Z</time>
      </trkpt>
      <trkpt lat="47.50444" lon="6.74231">
        <ele>383.3</ele>
        <time>2014-11-09T11:24:27.000Z</time>
      </trkpt>
      <trkpt lat="47.50439" lon="6.74261">
        <ele>382.9</ele>
        <time>2014-11-09T11:24:28.000Z</time>
      </trkpt>
      <trkpt lat="47.50436" lon="6.7427">
        <ele>382.7</ele>
        <time>2014-11-09T11:24:29.000Z</time>
      </trkpt>
      <trkpt lat="47.50433" lon="6.74282">
        <ele>383.3</ele>
        <time>2014-11-09T11:24:30.000Z</time>
      </trkpt>
      <trkpt lat="47.5043" lon="6.74291">
        <ele>384.4</ele>
        <time>2014-11-09T11:24:31.000Z</time>
      </trkpt>
      <trkpt lat="47.50427" lon="6.74296">
        <ele>385.7</ele>
        <time>2014-11-09T11:24:32.000Z</time>
      </trkpt>
      <trkpt lat="47.50423" lon="6.74306">
        <ele>387.3</ele>
        <time>2014-11-09T11:24:33.000Z</time>
      </trkpt>
      <trkpt lat="47.50419" lon="6.74312">
        <ele>387.7</ele>
        <time>2014-11-09T11:24:34.000Z</time>
      </trkpt>
      <trkpt lat="47.50415" lon="6.74319">
        <ele>388</ele>
        <time>2014-11-09T11:24:35.000Z</time>
      </trkpt>
      <trkpt lat="47.50412" lon="6.74325">
        <ele>387.3</ele>
        <time>2014-11-09T11:24:36.000Z</time>
      </trkpt>
      <trkpt lat="47.5041" lon="6.74334">
        <ele>386.4</ele>
        <time>2014-11-09T11:24:37.000Z</time>
      </trkpt>
      <trkpt lat="47.50408" lon="6.74341">
        <ele>385.7</ele>
        <time>2014-11-09T11:24:38.000Z</time>
      </trkpt>
      <trkpt lat="47.50405" lon="6.74348">
        <ele>385.4</ele>
        <time>2014-11-09T11:24:39.000Z</time>
      </trkpt>
      <trkpt lat="47.50402" lon="6.74356">
        <ele>385.9</ele>
        <time>2014-11-09T11:24:40.000Z</time>
      </trkpt>
      <trkpt lat="47.50399" lon="6.74367">
        <ele>385.2</ele>
        <time>2014-11-09T11:24:41.000Z</time>
      </trkpt>
      <trkpt lat="47.50406" lon="6.74384">
        <ele>383.7</ele>
        <time>2014-11-09T11:24:42.000Z</time>
      </trkpt>
      <trkpt lat="47.50409" lon="6.74395">
        <ele>382.9</ele>
        <time>2014-11-09T11:24:43.000Z</time>
      </trkpt>
      <trkpt lat="47.50416" lon="6.74403">
        <ele>379.8</ele>
        <time>2014-11-09T11:24:44.000Z</time>
      </trkpt>
      <trkpt lat="47.50423" lon="6.74411">
        <ele>375.3</ele>
        <time>2014-11-09T11:24:45.000Z</time>
      </trkpt>
      <trkpt lat="47.50429" lon="6.74415">
        <ele>372.7</ele>
        <time>2014-11-09T11:24:46.000Z</time>
      </trkpt>
      <trkpt lat="47.50435" lon="6.74419">
        <ele>370.1</ele>
        <time>2014-11-09T11:24:47.000Z</time>
      </trkpt>
      <trkpt lat="47.50441" lon="6.74422">
        <ele>367.4</ele>
        <time>2014-11-09T11:24:48.000Z</time>
      </trkpt>
      <trkpt lat="47.50446" lon="6.74426">
        <ele>364.6</ele>
        <time>2014-11-09T11:24:49.000Z</time>
      </trkpt>
      <trkpt lat="47.50452" lon="6.7443">
        <ele>362.3</ele>
        <time>2014-11-09T11:24:50.000Z</time>
      </trkpt>
      <trkpt lat="47.50453" lon="6.74438">
        <ele>362.8</ele>
        <time>2014-11-09T11:24:51.000Z</time>
      </trkpt>
      <trkpt lat="47.50454" lon="6.74446">
        <ele>363.1</ele>
        <time>2014-11-09T11:24:52.000Z</time>
      </trkpt>
      <trkpt lat="47.50454" lon="6.74454">
        <ele>363.2</ele>
        <time>2014-11-09T11:24:53.000Z</time>
      </trkpt>
      <trkpt lat="47.50454" lon="6.74463">
        <ele>364.4</ele>
        <time>2014-11-09T11:24:54.000Z</time>
      </trkpt>
      <trkpt lat="47.50454" lon="6.74472">
        <ele>365.9</ele>
        <time>2014-11-09T11:24:55.000Z</time>
      </trkpt>
      <trkpt lat="47.50454" lon="6.74482">
        <ele>366.1</ele>
        <time>2014-11-09T11:24:56.000Z</time>
      </trkpt>
      <trkpt lat="47.50455" lon="6.74499">
        <ele>366.1</ele>
        <time>2014-11-09T11:24:58.219Z</time>
      </trkpt>
      <trkpt lat="47.50457" lon="6.74533">
        <ele>365.7</ele>
        <time>2014-11-09T11:25:02.000Z</time>
      </trkpt>
      <trkpt lat="47.50457" lon="6.74544">
        <ele>365.9</ele>
        <time>2014-11-09T11:25:03.000Z</time>
      </trkpt>
      <trkpt lat="47.5046" lon="6.74554">
        <ele>366.3</ele>
        <time>2014-11-09T11:25:04.000Z</time>
      </trkpt>
      <trkpt lat="47.5046" lon="6.74569">
        <ele>367</ele>
        <time>2014-11-09T11:25:05.000Z</time>
      </trkpt>
      <trkpt lat="47.50463" lon="6.7458">
        <ele>365.1</ele>
        <time>2014-11-09T11:25:06.000Z</time>
      </trkpt>
      <trkpt lat="47.50463" lon="6.7459">
        <ele>365</ele>
        <time>2014-11-09T11:25:07.000Z</time>
      </trkpt>
      <trkpt lat="47.50464" lon="6.746">
        <ele>364.9</ele>
        <time>2014-11-09T11:25:08.000Z</time>
      </trkpt>
      <trkpt lat="47.50465" lon="6.74609">
        <ele>364.9</ele>
        <time>2014-11-09T11:25:09.001Z</time>
      </trkpt>
      <trkpt lat="47.50466" lon="6.74619">
        <ele>363.7</ele>
        <time>2014-11-09T11:25:10.000Z</time>
      </trkpt>
      <trkpt lat="47.50466" lon="6.74628">
        <ele>363.5</ele>
        <time>2014-11-09T11:25:11.000Z</time>
      </trkpt>
      <trkpt lat="47.50467" lon="6.74636">
        <ele>363.8</ele>
        <time>2014-11-09T11:25:12.000Z</time>
      </trkpt>
      <trkpt lat="47.50473" lon="6.74638">
        <ele>362.6</ele>
        <time>2014-11-09T11:25:13.000Z</time>
      </trkpt>
      <trkpt lat="47.50478" lon="6.74639">
        <ele>362.6</ele>
        <time>2014-11-09T11:25:14.000Z</time>
      </trkpt>
      <trkpt lat="47.50483" lon="6.74637">
        <ele>362.1</ele>
        <time>2014-11-09T11:25:15.000Z</time>
      </trkpt>
      <trkpt lat="47.50489" lon="6.74636">
        <ele>360.6</ele>
        <time>2014-11-09T11:25:16.000Z</time>
      </trkpt>
      <trkpt lat="47.50495" lon="6.74635">
        <ele>360.1</ele>
        <time>2014-11-09T11:25:17.000Z</time>
      </trkpt>
      <trkpt lat="47.505" lon="6.74633">
        <ele>359.7</ele>
        <time>2014-11-09T11:25:18.000Z</time>
      </trkpt>
      <trkpt lat="47.50506" lon="6.74632">
        <ele>359.7</ele>
        <time>2014-11-09T11:25:19.000Z</time>
      </trkpt>
      <trkpt lat="47.50513" lon="6.74634">
        <ele>358.5</ele>
        <time>2014-11-09T11:25:20.000Z</time>
      </trkpt>
      <trkpt lat="47.50518" lon="6.74641">
        <ele>358.4</ele>
        <time>2014-11-09T11:25:21.000Z</time>
      </trkpt>
      <trkpt lat="47.50519" lon="6.74649">
        <ele>357.3</ele>
        <time>2014-11-09T11:25:22.000Z</time>
      </trkpt>
      <trkpt lat="47.50519" lon="6.74659">
        <ele>357.3</ele>
        <time>2014-11-09T11:25:23.000Z</time>
      </trkpt>
      <trkpt lat="47.50519" lon="6.74669">
        <ele>357.9</ele>
        <time>2014-11-09T11:25:24.000Z</time>
      </trkpt>
      <trkpt lat="47.50519" lon="6.74679">
        <ele>358.1</ele>
        <time>2014-11-09T11:25:25.000Z</time>
      </trkpt>
      <trkpt lat="47.50518" lon="6.74689">
        <ele>356.9</ele>
        <time>2014-11-09T11:25:26.000Z</time>
      </trkpt>
      <trkpt lat="47.50516" lon="6.74698">
        <ele>357.6</ele>
        <time>2014-11-09T11:25:27.000Z</time>
      </trkpt>
      <trkpt lat="47.50515" lon="6.74707">
        <ele>357.2</ele>
        <time>2014-11-09T11:25:28.000Z</time>
      </trkpt>
      <trkpt lat="47.50514" lon="6.74715">
        <ele>357.2</ele>
        <time>2014-11-09T11:25:29.000Z</time>
      </trkpt>
      <trkpt lat="47.50513" lon="6.74724">
        <ele>358.1</ele>
        <time>2014-11-09T11:25:30.000Z</time>
      </trkpt>
      <trkpt lat="47.50512" lon="6.74732">
        <ele>358.3</ele>
        <time>2014-11-09T11:25:31.000Z</time>
      </trkpt>
      <trkpt lat="47.50511" lon="6.7474">
        <ele>359.5</ele>
        <time>2014-11-09T11:25:32.000Z</time>
      </trkpt>
      <trkpt lat="47.5051" lon="6.74749">
        <ele>359.4</ele>
        <time>2014-11-09T11:25:33.000Z</time>
      </trkpt>
      <trkpt lat="47.50508" lon="6.74757">
        <ele>360.2</ele>
        <time>2014-11-09T11:25:34.000Z</time>
      </trkpt>
      <trkpt lat="47.50506" lon="6.74764">
        <ele>360.1</ele>
        <time>2014-11-09T11:25:35.000Z</time>
      </trkpt>
      <trkpt lat="47.50504" lon="6.74772">
        <ele>360</ele>
        <time>2014-11-09T11:25:36.000Z</time>
      </trkpt>
      <trkpt lat="47.50501" lon="6.74779">
        <ele>359.6</ele>
        <time>2014-11-09T11:25:37.000Z</time>
      </trkpt>
      <trkpt lat="47.50498" lon="6.74787">
        <ele>359.7</ele>
        <time>2014-11-09T11:25:38.000Z</time>
      </trkpt>
      <trkpt lat="47.50494" lon="6.74797">
        <ele>359</ele>
        <time>2014-11-09T11:25:39.000Z</time>
      </trkpt>
      <trkpt lat="47.50491" lon="6.74805">
        <ele>359.7</ele>
        <time>2014-11-09T11:25:40.000Z</time>
      </trkpt>
      <trkpt lat="47.50487" lon="6.74813">
        <ele>360.6</ele>
        <time>2014-11-09T11:25:41.000Z</time>
      </trkpt>
      <trkpt lat="47.50484" lon="6.7482">
        <ele>361.2</ele>
        <time>2014-11-09T11:25:42.000Z</time>
      </trkpt>
      <trkpt lat="47.50482" lon="6.74826">
        <ele>361.4</ele>
        <time>2014-11-09T11:25:43.000Z</time>
      </trkpt>
      <trkpt lat="47.50482" lon="6.7483">
        <ele>361.2</ele>
        <time>2014-11-09T11:25:44.000Z</time>
      </trkpt>
      <trkpt lat="47.50482" lon="6.74834">
        <ele>361</ele>
        <time>2014-11-09T11:25:45.000Z</time>
      </trkpt>
      <trkpt lat="47.50484" lon="6.74839">
        <ele>360.6</ele>
        <time>2014-11-09T11:25:46.000Z</time>
      </trkpt>
      <trkpt lat="47.50486" lon="6.74843">
        <ele>360.3</ele>
        <time>2014-11-09T11:25:47.000Z</time>
      </trkpt>
      <trkpt lat="47.50489" lon="6.74848">
        <ele>360.1</ele>
        <time>2014-11-09T11:25:48.000Z</time>
      </trkpt>
      <trkpt lat="47.50492" lon="6.74852">
        <ele>360.5</ele>
        <time>2014-11-09T11:25:49.000Z</time>
      </trkpt>
      <trkpt lat="47.50493" lon="6.74854">
        <ele>361.3</ele>
        <time>2014-11-09T11:25:50.000Z</time>
      </trkpt>
      <trkpt lat="47.50496" lon="6.7486">
        <ele>361</ele>
        <time>2014-11-09T11:25:51.000Z</time>
      </trkpt>
      <trkpt lat="47.50498" lon="6.74864">
        <ele>361.6</ele>
        <time>2014-11-09T11:25:52.000Z</time>
      </trkpt>
      <trkpt lat="47.50502" lon="6.7487">
        <ele>361.2</ele>
        <time>2014-11-09T11:25:53.000Z</time>
      </trkpt>
      <trkpt lat="47.50504" lon="6.74875">
        <ele>362.6</ele>
        <time>2014-11-09T11:25:54.000Z</time>
      </trkpt>
      <trkpt lat="47.50505" lon="6.74879">
        <ele>363.9</ele>
        <time>2014-11-09T11:25:55.000Z</time>
      </trkpt>
      <trkpt lat="47.50508" lon="6.74886">
        <ele>363.5</ele>
        <time>2014-11-09T11:25:56.000Z</time>
      </trkpt>
      <trkpt lat="47.50513" lon="6.74904">
        <ele>365.3</ele>
        <time>2014-11-09T11:25:59.000Z</time>
      </trkpt>
      <trkpt lat="47.50513" lon="6.74913">
        <ele>365.2</ele>
        <time>2014-11-09T11:26:00.000Z</time>
      </trkpt>
      <trkpt lat="47.50514" lon="6.74921">
        <ele>365.3</ele>
        <time>2014-11-09T11:26:01.000Z</time>
      </trkpt>
      <trkpt lat="47.50513" lon="6.74931">
        <ele>365.8</ele>
        <time>2014-11-09T11:26:02.000Z</time>
      </trkpt>
      <trkpt lat="47.50512" lon="6.74942">
        <ele>365.7</ele>
        <time>2014-11-09T11:26:03.000Z</time>
      </trkpt>
      <trkpt lat="47.50511" lon="6.74956">
        <ele>365.5</ele>
        <time>2014-11-09T11:26:04.000Z</time>
      </trkpt>
      <trkpt lat="47.50509" lon="6.74967">
        <ele>365.1</ele>
        <time>2014-11-09T11:26:05.000Z</time>
      </trkpt>
      <trkpt lat="47.50508" lon="6.74979">
        <ele>364.4</ele>
        <time>2014-11-09T11:26:06.000Z</time>
      </trkpt>
      <trkpt lat="47.50507" lon="6.74994">
        <ele>364</ele>
        <time>2014-11-09T11:26:07.000Z</time>
      </trkpt>
      <trkpt lat="47.50506" lon="6.75009">
        <ele>362.2</ele>
        <time>2014-11-09T11:26:08.000Z</time>
      </trkpt>
      <trkpt lat="47.50506" lon="6.75024">
        <ele>360.1</ele>
        <time>2014-11-09T11:26:09.000Z</time>
      </trkpt>
      <trkpt lat="47.50506" lon="6.75039">
        <ele>358.6</ele>
        <time>2014-11-09T11:26:10.000Z</time>
      </trkpt>
      <trkpt lat="47.50506" lon="6.75054">
        <ele>357.9</ele>
        <time>2014-11-09T11:26:11.000Z</time>
      </trkpt>
      <trkpt lat="47.50506" lon="6.75068">
        <ele>355.8</ele>
        <time>2014-11-09T11:26:12.000Z</time>
      </trkpt>
      <trkpt lat="47.50506" lon="6.75083">
        <ele>354.1</ele>
        <time>2014-11-09T11:26:13.000Z</time>
      </trkpt>
      <trkpt lat="47.50507" lon="6.75095">
        <ele>353.2</ele>
        <time>2014-11-09T11:26:14.000Z</time>
      </trkpt>
      <trkpt lat="47.50507" lon="6.75106">
        <ele>352.6</ele>
        <time>2014-11-09T11:26:15.000Z</time>
      </trkpt>
      <trkpt lat="47.50508" lon="6.75115">
        <ele>352</ele>
        <time>2014-11-09T11:26:16.000Z</time>
      </trkpt>
      <trkpt lat="47.50509" lon="6.75124">
        <ele>350.9</ele>
        <time>2014-11-09T11:26:17.000Z</time>
      </trkpt>
      <trkpt lat="47.50507" lon="6.75129">
        <ele>350.8</ele>
        <time>2014-11-09T11:26:18.000Z</time>
      </trkpt>
      <trkpt lat="47.50503" lon="6.75135">
        <ele>349.3</ele>
        <time>2014-11-09T11:26:19.000Z</time>
      </trkpt>
      <trkpt lat="47.50501" lon="6.75139">
        <ele>348.9</ele>
        <time>2014-11-09T11:26:20.000Z</time>
      </trkpt>
      <trkpt lat="47.50498" lon="6.75143">
        <ele>348.6</ele>
        <time>2014-11-09T11:26:21.000Z</time>
      </trkpt>
      <trkpt lat="47.50492" lon="6.75144">
        <ele>348.9</ele>
        <time>2014-11-09T11:26:22.000Z</time>
      </trkpt>
      <trkpt lat="47.50487" lon="6.75147">
        <ele>348.4</ele>
        <time>2014-11-09T11:26:23.000Z</time>
      </trkpt>
      <trkpt lat="47.50484" lon="6.75149">
        <ele>348.6</ele>
        <time>2014-11-09T11:26:24.000Z</time>
      </trkpt>
      <trkpt lat="47.50482" lon="6.7515">
        <ele>349.3</ele>
        <time>2014-11-09T11:26:25.000Z</time>
      </trkpt>
      <trkpt lat="47.5048" lon="6.75155">
        <ele>350.3</ele>
        <time>2014-11-09T11:26:28.000Z</time>
      </trkpt>
      <trkpt lat="47.5048" lon="6.75156">
        <ele>351.3</ele>
        <time>2014-11-09T11:26:29.000Z</time>
      </trkpt>
      <trkpt lat="47.50479" lon="6.75161">
        <ele>351.1</ele>
        <time>2014-11-09T11:26:32.000Z</time>
      </trkpt>
      <trkpt lat="47.50478" lon="6.75163">
        <ele>352.5</ele>
        <time>2014-11-09T11:26:33.000Z</time>
      </trkpt>
      <trkpt lat="47.50478" lon="6.7517">
        <ele>354.4</ele>
        <time>2014-11-09T11:26:35.000Z</time>
      </trkpt>
      <trkpt lat="47.50478" lon="6.75174">
        <ele>354.3</ele>
        <time>2014-11-09T11:26:36.000Z</time>
      </trkpt>
      <trkpt lat="47.50477" lon="6.75179">
        <ele>353.2</ele>
        <time>2014-11-09T11:26:37.000Z</time>
      </trkpt>
      <trkpt lat="47.50477" lon="6.75184">
        <ele>352.9</ele>
        <time>2014-11-09T11:26:38.000Z</time>
      </trkpt>
      <trkpt lat="47.50477" lon="6.75189">
        <ele>353.3</ele>
        <time>2014-11-09T11:26:39.000Z</time>
      </trkpt>
      <trkpt lat="47.50477" lon="6.75194">
        <ele>353.4</ele>
        <time>2014-11-09T11:26:40.000Z</time>
      </trkpt>
      <trkpt lat="47.50478" lon="6.75199">
        <ele>353.5</ele>
        <time>2014-11-09T11:26:41.000Z</time>
      </trkpt>
      <trkpt lat="47.50479" lon="6.75204">
        <ele>353</ele>
        <time>2014-11-09T11:26:42.000Z</time>
      </trkpt>
      <trkpt lat="47.50479" lon="6.75208">
        <ele>352</ele>
        <time>2014-11-09T11:26:43.000Z</time>
      </trkpt>
      <trkpt lat="47.5048" lon="6.75213">
        <ele>351.6</ele>
        <time>2014-11-09T11:26:44.000Z</time>
      </trkpt>
      <trkpt lat="47.5048" lon="6.75217">
        <ele>351.5</ele>
        <time>2014-11-09T11:26:45.000Z</time>
      </trkpt>
      <trkpt lat="47.50481" lon="6.75221">
        <ele>351.1</ele>
        <time>2014-11-09T11:26:46.000Z</time>
      </trkpt>
      <trkpt lat="47.50482" lon="6.75225">
        <ele>351.3</ele>
        <time>2014-11-09T11:26:47.000Z</time>
      </trkpt>
      <trkpt lat="47.50482" lon="6.75229">
        <ele>351.6</ele>
        <time>2014-11-09T11:26:48.000Z</time>
      </trkpt>
      <trkpt lat="47.50483" lon="6.75233">
        <ele>351</ele>
        <time>2014-11-09T11:26:49.000Z</time>
      </trkpt>
      <trkpt lat="47.50484" lon="6.75236">
        <ele>350.8</ele>
        <time>2014-11-09T11:26:50.000Z</time>
      </trkpt>
      <trkpt lat="47.50485" lon="6.75241">
        <ele>351.3</ele>
        <time>2014-11-09T11:26:52.000Z</time>
      </trkpt>
      <trkpt lat="47.50486" lon="6.75242">
        <ele>351</ele>
        <time>2014-11-09T11:26:53.000Z</time>
      </trkpt>
      <trkpt lat="47.50487" lon="6.75246">
        <ele>351</ele>
        <time>2014-11-09T11:26:55.000Z</time>
      </trkpt>
      <trkpt lat="47.50487" lon="6.75249">
        <ele>351</ele>
        <time>2014-11-09T11:26:56.000Z</time>
      </trkpt>
      <trkpt lat="47.50487" lon="6.75253">
        <ele>351.4</ele>
        <time>2014-11-09T11:26:57.000Z</time>
      </trkpt>
      <trkpt lat="47.50487" lon="6.75264">
        <ele>353</ele>
        <time>2014-11-09T11:27:00.000Z</time>
      </trkpt>
      <trkpt lat="47.50487" lon="6.75269">
        <ele>352.6</ele>
        <time>2014-11-09T11:27:01.000Z</time>
      </trkpt>
      <trkpt lat="47.50488" lon="6.75274">
        <ele>352.9</ele>
        <time>2014-11-09T11:27:02.000Z</time>
      </trkpt>
      <trkpt lat="47.50489" lon="6.75279">
        <ele>353.1</ele>
        <time>2014-11-09T11:27:03.000Z</time>
      </trkpt>
      <trkpt lat="47.50489" lon="6.75283">
        <ele>352.8</ele>
        <time>2014-11-09T11:27:04.000Z</time>
      </trkpt>
      <trkpt lat="47.5049" lon="6.75288">
        <ele>352.9</ele>
        <time>2014-11-09T11:27:05.000Z</time>
      </trkpt>
      <trkpt lat="47.50491" lon="6.75292">
        <ele>352.5</ele>
        <time>2014-11-09T11:27:06.000Z</time>
      </trkpt>
      <trkpt lat="47.50492" lon="6.75296">
        <ele>352.1</ele>
        <time>2014-11-09T11:27:07.000Z</time>
      </trkpt>
      <trkpt lat="47.50492" lon="6.753">
        <ele>351.9</ele>
        <time>2014-11-09T11:27:08.000Z</time>
      </trkpt>
      <trkpt lat="47.50493" lon="6.75305">
        <ele>351.6</ele>
        <time>2014-11-09T11:27:09.000Z</time>
      </trkpt>
      <trkpt lat="47.50494" lon="6.75309">
        <ele>351.6</ele>
        <time>2014-11-09T11:27:10.000Z</time>
      </trkpt>
      <trkpt lat="47.50494" lon="6.75314">
        <ele>351.1</ele>
        <time>2014-11-09T11:27:11.000Z</time>
      </trkpt>
      <trkpt lat="47.50495" lon="6.75319">
        <ele>350.7</ele>
        <time>2014-11-09T11:27:12.000Z</time>
      </trkpt>
      <trkpt lat="47.50496" lon="6.75324">
        <ele>350.4</ele>
        <time>2014-11-09T11:27:13.000Z</time>
      </trkpt>
      <trkpt lat="47.50497" lon="6.75329">
        <ele>350.5</ele>
        <time>2014-11-09T11:27:14.000Z</time>
      </trkpt>
      <trkpt lat="47.50499" lon="6.75333">
        <ele>350.5</ele>
        <time>2014-11-09T11:27:15.000Z</time>
      </trkpt>
      <trkpt lat="47.505" lon="6.75338">
        <ele>350.8</ele>
        <time>2014-11-09T11:27:16.000Z</time>
      </trkpt>
      <trkpt lat="47.50502" lon="6.75342">
        <ele>350.8</ele>
        <time>2014-11-09T11:27:17.000Z</time>
      </trkpt>
      <trkpt lat="47.50505" lon="6.75346">
        <ele>350.7</ele>
        <time>2014-11-09T11:27:18.000Z</time>
      </trkpt>
      <trkpt lat="47.50507" lon="6.7535">
        <ele>350.9</ele>
        <time>2014-11-09T11:27:19.000Z</time>
      </trkpt>
      <trkpt lat="47.5051" lon="6.75354">
        <ele>348.7</ele>
        <time>2014-11-09T11:27:20.000Z</time>
      </trkpt>
      <trkpt lat="47.50513" lon="6.75357">
        <ele>346.9</ele>
        <time>2014-11-09T11:27:21.000Z</time>
      </trkpt>
      <trkpt lat="47.50517" lon="6.7536">
        <ele>346.1</ele>
        <time>2014-11-09T11:27:22.000Z</time>
      </trkpt>
      <trkpt lat="47.5052" lon="6.75362">
        <ele>346.7</ele>
        <time>2014-11-09T11:27:23.000Z</time>
      </trkpt>
      <trkpt lat="47.50524" lon="6.75364">
        <ele>346.4</ele>
        <time>2014-11-09T11:27:24.000Z</time>
      </trkpt>
      <trkpt lat="47.50528" lon="6.75367">
        <ele>347</ele>
        <time>2014-11-09T11:27:25.000Z</time>
      </trkpt>
      <trkpt lat="47.50532" lon="6.75368">
        <ele>346.8</ele>
        <time>2014-11-09T11:27:26.000Z</time>
      </trkpt>
      <trkpt lat="47.50536" lon="6.7537">
        <ele>346.9</ele>
        <time>2014-11-09T11:27:27.000Z</time>
      </trkpt>
      <trkpt lat="47.5054" lon="6.75372">
        <ele>346.4</ele>
        <time>2014-11-09T11:27:28.000Z</time>
      </trkpt>
      <trkpt lat="47.50544" lon="6.75373">
        <ele>346.6</ele>
        <time>2014-11-09T11:27:29.000Z</time>
      </trkpt>
      <trkpt lat="47.50548" lon="6.75375">
        <ele>346.4</ele>
        <time>2014-11-09T11:27:30.000Z</time>
      </trkpt>
      <trkpt lat="47.50552" lon="6.75377">
        <ele>350.3</ele>
        <time>2014-11-09T11:27:31.000Z</time>
      </trkpt>
      <trkpt lat="47.50556" lon="6.75378">
        <ele>351.7</ele>
        <time>2014-11-09T11:27:32.000Z</time>
      </trkpt>
      <trkpt lat="47.5056" lon="6.75379">
        <ele>351.6</ele>
        <time>2014-11-09T11:27:33.000Z</time>
      </trkpt>
      <trkpt lat="47.50563" lon="6.7538">
        <ele>352.2</ele>
        <time>2014-11-09T11:27:34.000Z</time>
      </trkpt>
      <trkpt lat="47.50567" lon="6.75381">
        <ele>352.1</ele>
        <time>2014-11-09T11:27:35.000Z</time>
      </trkpt>
      <trkpt lat="47.5057" lon="6.75382">
        <ele>352.4</ele>
        <time>2014-11-09T11:27:36.000Z</time>
      </trkpt>
      <trkpt lat="47.50574" lon="6.75382">
        <ele>352.4</ele>
        <time>2014-11-09T11:27:37.000Z</time>
      </trkpt>
      <trkpt lat="47.50577" lon="6.75382">
        <ele>353.1</ele>
        <time>2014-11-09T11:27:38.000Z</time>
      </trkpt>
      <trkpt lat="47.50581" lon="6.75382">
        <ele>352.8</ele>
        <time>2014-11-09T11:27:39.000Z</time>
      </trkpt>
      <trkpt lat="47.50584" lon="6.75383">
        <ele>352.8</ele>
        <time>2014-11-09T11:27:40.000Z</time>
      </trkpt>
      <trkpt lat="47.50588" lon="6.75383">
        <ele>352.5</ele>
        <time>2014-11-09T11:27:41.000Z</time>
      </trkpt>
      <trkpt lat="47.50591" lon="6.75384">
        <ele>352.9</ele>
        <time>2014-11-09T11:27:42.000Z</time>
      </trkpt>
      <trkpt lat="47.50594" lon="6.75385">
        <ele>354</ele>
        <time>2014-11-09T11:27:43.000Z</time>
      </trkpt>
      <trkpt lat="47.50597" lon="6.75386">
        <ele>354.9</ele>
        <time>2014-11-09T11:27:44.000Z</time>
      </trkpt>
      <trkpt lat="47.506" lon="6.75387">
        <ele>355.1</ele>
        <time>2014-11-09T11:27:45.000Z</time>
      </trkpt>
      <trkpt lat="47.50603" lon="6.75388">
        <ele>355.3</ele>
        <time>2014-11-09T11:27:46.000Z</time>
      </trkpt>
      <trkpt lat="47.50606" lon="6.75389">
        <ele>355.5</ele>
        <time>2014-11-09T11:27:47.000Z</time>
      </trkpt>
      <trkpt lat="47.50609" lon="6.75389">
        <ele>356</ele>
        <time>2014-11-09T11:27:48.000Z</time>
      </trkpt>
      <trkpt lat="47.50612" lon="6.75389">
        <ele>356.2</ele>
        <time>2014-11-09T11:27:49.000Z</time>
      </trkpt>
      <trkpt lat="47.50615" lon="6.75389">
        <ele>356.2</ele>
        <time>2014-11-09T11:27:50.000Z</time>
      </trkpt>
      <trkpt lat="47.50617" lon="6.7539">
        <ele>355.1</ele>
        <time>2014-11-09T11:27:51.000Z</time>
      </trkpt>
      <trkpt lat="47.5062" lon="6.7539">
        <ele>355.1</ele>
        <time>2014-11-09T11:27:52.000Z</time>
      </trkpt>
      <trkpt lat="47.50623" lon="6.75391">
        <ele>355</ele>
        <time>2014-11-09T11:27:53.000Z</time>
      </trkpt>
      <trkpt lat="47.50625" lon="6.75392">
        <ele>355.3</ele>
        <time>2014-11-09T11:27:54.000Z</time>
      </trkpt>
      <trkpt lat="47.50628" lon="6.75392">
        <ele>355</ele>
        <time>2014-11-09T11:27:55.000Z</time>
      </trkpt>
      <trkpt lat="47.50631" lon="6.75393">
        <ele>354.8</ele>
        <time>2014-11-09T11:27:56.000Z</time>
      </trkpt>
      <trkpt lat="47.50633" lon="6.75394">
        <ele>354.8</ele>
        <time>2014-11-09T11:27:57.000Z</time>
      </trkpt>
      <trkpt lat="47.50652" lon="6.75399">
        <ele>352.9</ele>
        <time>2014-11-09T11:28:05.000Z</time>
      </trkpt>
      <trkpt lat="47.50656" lon="6.75401">
        <ele>352.8</ele>
        <time>2014-11-09T11:28:07.000Z</time>
      </trkpt>
      <trkpt lat="47.50658" lon="6.75402">
        <ele>353</ele>
        <time>2014-11-09T11:28:08.000Z</time>
      </trkpt>
      <trkpt lat="47.5066" lon="6.75404">
        <ele>352.6</ele>
        <time>2014-11-09T11:28:09.000Z</time>
      </trkpt>
      <trkpt lat="47.50662" lon="6.75406">
        <ele>351.9</ele>
        <time>2014-11-09T11:28:10.000Z</time>
      </trkpt>
      <trkpt lat="47.50664" lon="6.75408">
        <ele>351.9</ele>
        <time>2014-11-09T11:28:11.000Z</time>
      </trkpt>
      <trkpt lat="47.50666" lon="6.7541">
        <ele>351.9</ele>
        <time>2014-11-09T11:28:12.000Z</time>
      </trkpt>
      <trkpt lat="47.50668" lon="6.75412">
        <ele>352.1</ele>
        <time>2014-11-09T11:28:13.000Z</time>
      </trkpt>
      <trkpt lat="47.5067" lon="6.75414">
        <ele>351.5</ele>
        <time>2014-11-09T11:28:14.000Z</time>
      </trkpt>
      <trkpt lat="47.50672" lon="6.75417">
        <ele>350.9</ele>
        <time>2014-11-09T11:28:15.000Z</time>
      </trkpt>
      <trkpt lat="47.50673" lon="6.75419">
        <ele>350.5</ele>
        <time>2014-11-09T11:28:16.000Z</time>
      </trkpt>
      <trkpt lat="47.50675" lon="6.75422">
        <ele>350.3</ele>
        <time>2014-11-09T11:28:17.000Z</time>
      </trkpt>
      <trkpt lat="47.50677" lon="6.75424">
        <ele>350.8</ele>
        <time>2014-11-09T11:28:18.000Z</time>
      </trkpt>
      <trkpt lat="47.50679" lon="6.75429">
        <ele>351.3</ele>
        <time>2014-11-09T11:28:20.000Z</time>
      </trkpt>
      <trkpt lat="47.5068" lon="6.75432">
        <ele>351.8</ele>
        <time>2014-11-09T11:28:21.000Z</time>
      </trkpt>
      <trkpt lat="47.50682" lon="6.75437">
        <ele>352.1</ele>
        <time>2014-11-09T11:28:23.000Z</time>
      </trkpt>
      <trkpt lat="47.50683" lon="6.75439">
        <ele>352.1</ele>
        <time>2014-11-09T11:28:24.000Z</time>
      </trkpt>
      <trkpt lat="47.50685" lon="6.75444">
        <ele>352.6</ele>
        <time>2014-11-09T11:28:26.000Z</time>
      </trkpt>
      <trkpt lat="47.50686" lon="6.75446">
        <ele>353.1</ele>
        <time>2014-11-09T11:28:27.000Z</time>
      </trkpt>
      <trkpt lat="47.50689" lon="6.75451">
        <ele>353.1</ele>
        <time>2014-11-09T11:28:29.000Z</time>
      </trkpt>
      <trkpt lat="47.5069" lon="6.75454">
        <ele>352.5</ele>
        <time>2014-11-09T11:28:30.000Z</time>
      </trkpt>
      <trkpt lat="47.50691" lon="6.75457">
        <ele>352.3</ele>
        <time>2014-11-09T11:28:31.000Z</time>
      </trkpt>
      <trkpt lat="47.50692" lon="6.7546">
        <ele>351.4</ele>
        <time>2014-11-09T11:28:32.000Z</time>
      </trkpt>
      <trkpt lat="47.50693" lon="6.75463">
        <ele>351.2</ele>
        <time>2014-11-09T11:28:33.000Z</time>
      </trkpt>
      <trkpt lat="47.50694" lon="6.75466">
        <ele>351.3</ele>
        <time>2014-11-09T11:28:34.000Z</time>
      </trkpt>
      <trkpt lat="47.50695" lon="6.75469">
        <ele>350.2</ele>
        <time>2014-11-09T11:28:35.000Z</time>
      </trkpt>
      <trkpt lat="47.50697" lon="6.75473">
        <ele>349.5</ele>
        <time>2014-11-09T11:28:36.000Z</time>
      </trkpt>
      <trkpt lat="47.50698" lon="6.75476">
        <ele>349.7</ele>
        <time>2014-11-09T11:28:37.000Z</time>
      </trkpt>
      <trkpt lat="47.50699" lon="6.75479">
        <ele>349.9</ele>
        <time>2014-11-09T11:28:38.000Z</time>
      </trkpt>
      <trkpt lat="47.50701" lon="6.75482">
        <ele>349.4</ele>
        <time>2014-11-09T11:28:39.000Z</time>
      </trkpt>
      <trkpt lat="47.50702" lon="6.75486">
        <ele>348.8</ele>
        <time>2014-11-09T11:28:40.000Z</time>
      </trkpt>
      <trkpt lat="47.50703" lon="6.75489">
        <ele>348.4</ele>
        <time>2014-11-09T11:28:41.000Z</time>
      </trkpt>
      <trkpt lat="47.50704" lon="6.75492">
        <ele>348.7</ele>
        <time>2014-11-09T11:28:42.000Z</time>
      </trkpt>
      <trkpt lat="47.50706" lon="6.75495">
        <ele>349.2</ele>
        <time>2014-11-09T11:28:43.000Z</time>
      </trkpt>
      <trkpt lat="47.50706" lon="6.75498">
        <ele>349.6</ele>
        <time>2014-11-09T11:28:44.000Z</time>
      </trkpt>
      <trkpt lat="47.50707" lon="6.75501">
        <ele>349</ele>
        <time>2014-11-09T11:28:45.000Z</time>
      </trkpt>
      <trkpt lat="47.50709" lon="6.75504">
        <ele>349.1</ele>
        <time>2014-11-09T11:28:46.000Z</time>
      </trkpt>
      <trkpt lat="47.50711" lon="6.7551">
        <ele>349.1</ele>
        <time>2014-11-09T11:28:48.000Z</time>
      </trkpt>
      <trkpt lat="47.50712" lon="6.75512">
        <ele>348.3</ele>
        <time>2014-11-09T11:28:49.000Z</time>
      </trkpt>
      <trkpt lat="47.50713" lon="6.75517">
        <ele>348.1</ele>
        <time>2014-11-09T11:28:51.000Z</time>
      </trkpt>
      <trkpt lat="47.50713" lon="6.7552">
        <ele>348.4</ele>
        <time>2014-11-09T11:28:52.000Z</time>
      </trkpt>
      <trkpt lat="47.50714" lon="6.75526">
        <ele>347.6</ele>
        <time>2014-11-09T11:28:54.000Z</time>
      </trkpt>
      <trkpt lat="47.50715" lon="6.75529">
        <ele>347.3</ele>
        <time>2014-11-09T11:28:55.000Z</time>
      </trkpt>
      <trkpt lat="47.50716" lon="6.75535">
        <ele>346.5</ele>
        <time>2014-11-09T11:28:57.000Z</time>
      </trkpt>
      <trkpt lat="47.50721" lon="6.75558">
        <ele>341.9</ele>
        <time>2014-11-09T11:29:05.000Z</time>
      </trkpt>
      <trkpt lat="47.50722" lon="6.75563">
        <ele>340.7</ele>
        <time>2014-11-09T11:29:07.000Z</time>
      </trkpt>
      <trkpt lat="47.50723" lon="6.75565">
        <ele>342.2</ele>
        <time>2014-11-09T11:29:08.000Z</time>
      </trkpt>
      <trkpt lat="47.50724" lon="6.75571">
        <ele>343.4</ele>
        <time>2014-11-09T11:29:10.000Z</time>
      </trkpt>
      <trkpt lat="47.50725" lon="6.75574">
        <ele>343.5</ele>
        <time>2014-11-09T11:29:11.000Z</time>
      </trkpt>
      <trkpt lat="47.50725" lon="6.7558">
        <ele>343.8</ele>
        <time>2014-11-09T11:29:13.000Z</time>
      </trkpt>
      <trkpt lat="47.50726" lon="6.75583">
        <ele>344.4</ele>
        <time>2014-11-09T11:29:14.000Z</time>
      </trkpt>
      <trkpt lat="47.50726" lon="6.7559">
        <ele>345.8</ele>
        <time>2014-11-09T11:29:16.000Z</time>
      </trkpt>
      <trkpt lat="47.50726" lon="6.75593">
        <ele>346.2</ele>
        <time>2014-11-09T11:29:17.000Z</time>
      </trkpt>
      <trkpt lat="47.50727" lon="6.75599">
        <ele>347.2</ele>
        <time>2014-11-09T11:29:19.000Z</time>
      </trkpt>
      <trkpt lat="47.50726" lon="6.75602">
        <ele>346.9</ele>
        <time>2014-11-09T11:29:20.000Z</time>
      </trkpt>
      <trkpt lat="47.50726" lon="6.75608">
        <ele>347.5</ele>
        <time>2014-11-09T11:29:22.000Z</time>
      </trkpt>
      <trkpt lat="47.50726" lon="6.75611">
        <ele>348</ele>
        <time>2014-11-09T11:29:23.000Z</time>
      </trkpt>
      <trkpt lat="47.50726" lon="6.75616">
        <ele>348.1</ele>
        <time>2014-11-09T11:29:25.000Z</time>
      </trkpt>
      <trkpt lat="47.50726" lon="6.75618">
        <ele>348.5</ele>
        <time>2014-11-09T11:29:26.000Z</time>
      </trkpt>
      <trkpt lat="47.50726" lon="6.75622">
        <ele>349.4</ele>
        <time>2014-11-09T11:29:28.000Z</time>
      </trkpt>
      <trkpt lat="47.50726" lon="6.75625">
        <ele>349.9</ele>
        <time>2014-11-09T11:29:29.000Z</time>
      </trkpt>
      <trkpt lat="47.50726" lon="6.75631">
        <ele>351.9</ele>
        <time>2014-11-09T11:29:31.000Z</time>
      </trkpt>
      <trkpt lat="47.50725" lon="6.75633">
        <ele>353.1</ele>
        <time>2014-11-09T11:29:32.000Z</time>
      </trkpt>
      <trkpt lat="47.50725" lon="6.75639">
        <ele>354.4</ele>
        <time>2014-11-09T11:29:34.000Z</time>
      </trkpt>
      <trkpt lat="47.50725" lon="6.75642">
        <ele>354.8</ele>
        <time>2014-11-09T11:29:35.000Z</time>
      </trkpt>
      <trkpt lat="47.50725" lon="6.75647">
        <ele>355.4</ele>
        <time>2014-11-09T11:29:37.000Z</time>
      </trkpt>
      <trkpt lat="47.50725" lon="6.7565">
        <ele>355.8</ele>
        <time>2014-11-09T11:29:38.000Z</time>
      </trkpt>
      <trkpt lat="47.50725" lon="6.75654">
        <ele>356.3</ele>
        <time>2014-11-09T11:29:40.000Z</time>
      </trkpt>
      <trkpt lat="47.50725" lon="6.75657">
        <ele>356.3</ele>
        <time>2014-11-09T11:29:41.000Z</time>
      </trkpt>
      <trkpt lat="47.50725" lon="6.75662">
        <ele>357</ele>
        <time>2014-11-09T11:29:43.000Z</time>
      </trkpt>
      <trkpt lat="47.50725" lon="6.75665">
        <ele>356.2</ele>
        <time>2014-11-09T11:29:44.000Z</time>
      </trkpt>
      <trkpt lat="47.50724" lon="6.7567">
        <ele>356.1</ele>
        <time>2014-11-09T11:29:46.000Z</time>
      </trkpt>
      <trkpt lat="47.50724" lon="6.75672">
        <ele>356.2</ele>
        <time>2014-11-09T11:29:47.000Z</time>
      </trkpt>
      <trkpt lat="47.50724" lon="6.75678">
        <ele>355.6</ele>
        <time>2014-11-09T11:29:50.000Z</time>
      </trkpt>
      <trkpt lat="47.50724" lon="6.7568">
        <ele>356.8</ele>
        <time>2014-11-09T11:29:51.000Z</time>
      </trkpt>
      <trkpt lat="47.50723" lon="6.75687">
        <ele>358.1</ele>
        <time>2014-11-09T11:29:54.000Z</time>
      </trkpt>
      <trkpt lat="47.50723" lon="6.75689">
        <ele>359</ele>
        <time>2014-11-09T11:29:55.000Z</time>
      </trkpt>
      <trkpt lat="47.50724" lon="6.75691">
        <ele>359.7</ele>
        <time>2014-11-09T11:29:56.000Z</time>
      </trkpt>
      <trkpt lat="47.50725" lon="6.75698">
        <ele>355.8</ele>
        <time>2014-11-09T11:29:59.000Z</time>
      </trkpt>
      <trkpt lat="47.50725" lon="6.75703">
        <ele>357.6</ele>
        <time>2014-11-09T11:30:02.000Z</time>
      </trkpt>
      <trkpt lat="47.50725" lon="6.75706">
        <ele>357.9</ele>
        <time>2014-11-09T11:30:03.000Z</time>
      </trkpt>
      <trkpt lat="47.50724" lon="6.75712">
        <ele>359.7</ele>
        <time>2014-11-09T11:30:06.000Z</time>
      </trkpt>
      <trkpt lat="47.50724" lon="6.75714">
        <ele>360.4</ele>
        <time>2014-11-09T11:30:07.000Z</time>
      </trkpt>
      <trkpt lat="47.50723" lon="6.7572">
        <ele>360.7</ele>
        <time>2014-11-09T11:30:10.000Z</time>
      </trkpt>
      <trkpt lat="47.50723" lon="6.75722">
        <ele>361.3</ele>
        <time>2014-11-09T11:30:11.000Z</time>
      </trkpt>
      <trkpt lat="47.50723" lon="6.75727">
        <ele>361</ele>
        <time>2014-11-09T11:30:13.000Z</time>
      </trkpt>
      <trkpt lat="47.50723" lon="6.75729">
        <ele>361.5</ele>
        <time>2014-11-09T11:30:14.000Z</time>
      </trkpt>
      <trkpt lat="47.50723" lon="6.75734">
        <ele>361</ele>
        <time>2014-11-09T11:30:16.000Z</time>
      </trkpt>
      <trkpt lat="47.50723" lon="6.75737">
        <ele>360.3</ele>
        <time>2014-11-09T11:30:17.000Z</time>
      </trkpt>
      <trkpt lat="47.50723" lon="6.75742">
        <ele>361.5</ele>
        <time>2014-11-09T11:30:19.000Z</time>
      </trkpt>
      <trkpt lat="47.50722" lon="6.75744">
        <ele>362.3</ele>
        <time>2014-11-09T11:30:20.000Z</time>
      </trkpt>
      <trkpt lat="47.50722" lon="6.7575">
        <ele>365.1</ele>
        <time>2014-11-09T11:30:23.000Z</time>
      </trkpt>
      <trkpt lat="47.50721" lon="6.75752">
        <ele>365.3</ele>
        <time>2014-11-09T11:30:24.000Z</time>
      </trkpt>
      <trkpt lat="47.50722" lon="6.75758">
        <ele>367.9</ele>
        <time>2014-11-09T11:30:27.000Z</time>
      </trkpt>
      <trkpt lat="47.50722" lon="6.7576">
        <ele>368.5</ele>
        <time>2014-11-09T11:30:28.000Z</time>
      </trkpt>
      <trkpt lat="47.50722" lon="6.75767">
        <ele>370.8</ele>
        <time>2014-11-09T11:30:31.000Z</time>
      </trkpt>
      <trkpt lat="47.50722" lon="6.75769">
        <ele>372</ele>
        <time>2014-11-09T11:30:32.000Z</time>
      </trkpt>
      <trkpt lat="47.50722" lon="6.75774">
        <ele>372.5</ele>
        <time>2014-11-09T11:30:34.000Z</time>
      </trkpt>
      <trkpt lat="47.50722" lon="6.75776">
        <ele>373.6</ele>
        <time>2014-11-09T11:30:35.000Z</time>
      </trkpt>
      <trkpt lat="47.50722" lon="6.75782">
        <ele>375.9</ele>
        <time>2014-11-09T11:30:38.000Z</time>
      </trkpt>
      <trkpt lat="47.50722" lon="6.75784">
        <ele>375.1</ele>
        <time>2014-11-09T11:30:39.000Z</time>
      </trkpt>
      <trkpt lat="47.50723" lon="6.75788">
        <ele>374.8</ele>
        <time>2014-11-09T11:30:41.000Z</time>
      </trkpt>
      <trkpt lat="47.50723" lon="6.75791">
        <ele>375.1</ele>
        <time>2014-11-09T11:30:42.000Z</time>
      </trkpt>
      <trkpt lat="47.50722" lon="6.75796">
        <ele>379.4</ele>
        <time>2014-11-09T11:30:45.000Z</time>
      </trkpt>
      <trkpt lat="47.50722" lon="6.75798">
        <ele>379.5</ele>
        <time>2014-11-09T11:30:46.000Z</time>
      </trkpt>
      <trkpt lat="47.50722" lon="6.75804">
        <ele>381.1</ele>
        <time>2014-11-09T11:30:49.000Z</time>
      </trkpt>
      <trkpt lat="47.50722" lon="6.75806">
        <ele>381.2</ele>
        <time>2014-11-09T11:30:50.000Z</time>
      </trkpt>
      <trkpt lat="47.50722" lon="6.75811">
        <ele>381.3</ele>
        <time>2014-11-09T11:30:52.000Z</time>
      </trkpt>
      <trkpt lat="47.50722" lon="6.75813">
        <ele>382.1</ele>
        <time>2014-11-09T11:30:53.000Z</time>
      </trkpt>
      <trkpt lat="47.50722" lon="6.75817">
        <ele>382</ele>
        <time>2014-11-09T11:30:55.000Z</time>
      </trkpt>
      <trkpt lat="47.50723" lon="6.7582">
        <ele>382.2</ele>
        <time>2014-11-09T11:30:56.000Z</time>
      </trkpt>
      <trkpt lat="47.50723" lon="6.75826">
        <ele>375.6</ele>
        <time>2014-11-09T11:30:59.000Z</time>
      </trkpt>
      <trkpt lat="47.50723" lon="6.75829">
        <ele>375.5</ele>
        <time>2014-11-09T11:31:00.000Z</time>
      </trkpt>
      <trkpt lat="47.50723" lon="6.75833">
        <ele>374.8</ele>
        <time>2014-11-09T11:31:02.000Z</time>
      </trkpt>
      <trkpt lat="47.50723" lon="6.75835">
        <ele>374.7</ele>
        <time>2014-11-09T11:31:03.000Z</time>
      </trkpt>
      <trkpt lat="47.50724" lon="6.75842">
        <ele>377.1</ele>
        <time>2014-11-09T11:31:06.000Z</time>
      </trkpt>
      <trkpt lat="47.50724" lon="6.75844">
        <ele>377.6</ele>
        <time>2014-11-09T11:31:07.000Z</time>
      </trkpt>
      <trkpt lat="47.50724" lon="6.75849">
        <ele>378.4</ele>
        <time>2014-11-09T11:31:09.000Z</time>
      </trkpt>
      <trkpt lat="47.50724" lon="6.75852">
        <ele>380.5</ele>
        <time>2014-11-09T11:31:10.000Z</time>
      </trkpt>
      <trkpt lat="47.50724" lon="6.75858">
        <ele>382.7</ele>
        <time>2014-11-09T11:31:13.000Z</time>
      </trkpt>
      <trkpt lat="47.50723" lon="6.7586">
        <ele>382.9</ele>
        <time>2014-11-09T11:31:14.000Z</time>
      </trkpt>
      <trkpt lat="47.50722" lon="6.75865">
        <ele>385.1</ele>
        <time>2014-11-09T11:31:16.000Z</time>
      </trkpt>
      <trkpt lat="47.50721" lon="6.75868">
        <ele>386.7</ele>
        <time>2014-11-09T11:31:17.000Z</time>
      </trkpt>
      <trkpt lat="47.5072" lon="6.75873">
        <ele>388.6</ele>
        <time>2014-11-09T11:31:19.000Z</time>
      </trkpt>
      <trkpt lat="47.50719" lon="6.75876">
        <ele>388.6</ele>
        <time>2014-11-09T11:31:20.000Z</time>
      </trkpt>
      <trkpt lat="47.50719" lon="6.75882">
        <ele>393.3</ele>
        <time>2014-11-09T11:31:22.000Z</time>
      </trkpt>
      <trkpt lat="47.50719" lon="6.75885">
        <ele>394.7</ele>
        <time>2014-11-09T11:31:23.000Z</time>
      </trkpt>
      <trkpt lat="47.50719" lon="6.75891">
        <ele>396.4</ele>
        <time>2014-11-09T11:31:25.000Z</time>
      </trkpt>
      <trkpt lat="47.50719" lon="6.75893">
        <ele>396.7</ele>
        <time>2014-11-09T11:31:26.000Z</time>
      </trkpt>
      <trkpt lat="47.50718" lon="6.75899">
        <ele>397.3</ele>
        <time>2014-11-09T11:31:28.000Z</time>
      </trkpt>
      <trkpt lat="47.50718" lon="6.75901">
        <ele>398.3</ele>
        <time>2014-11-09T11:31:29.000Z</time>
      </trkpt>
      <trkpt lat="47.50718" lon="6.75907">
        <ele>398.4</ele>
        <time>2014-11-09T11:31:31.000Z</time>
      </trkpt>
      <trkpt lat="47.50718" lon="6.75909">
        <ele>399.7</ele>
        <time>2014-11-09T11:31:32.000Z</time>
      </trkpt>
      <trkpt lat="47.50717" lon="6.75915">
        <ele>399.5</ele>
        <time>2014-11-09T11:31:34.000Z</time>
      </trkpt>
      <trkpt lat="47.50717" lon="6.75918">
        <ele>400.9</ele>
        <time>2014-11-09T11:31:35.000Z</time>
      </trkpt>
      <trkpt lat="47.50717" lon="6.75923">
        <ele>401.6</ele>
        <time>2014-11-09T11:31:37.000Z</time>
      </trkpt>
      <trkpt lat="47.50717" lon="6.75926">
        <ele>403.2</ele>
        <time>2014-11-09T11:31:38.000Z</time>
      </trkpt>
      <trkpt lat="47.50717" lon="6.75932">
        <ele>404.7</ele>
        <time>2014-11-09T11:31:40.000Z</time>
      </trkpt>
      <trkpt lat="47.50717" lon="6.75934">
        <ele>405.1</ele>
        <time>2014-11-09T11:31:41.000Z</time>
      </trkpt>
      <trkpt lat="47.50717" lon="6.75939">
        <ele>406.6</ele>
        <time>2014-11-09T11:31:43.000Z</time>
      </trkpt>
      <trkpt lat="47.50717" lon="6.75942">
        <ele>408.3</ele>
        <time>2014-11-09T11:31:44.000Z</time>
      </trkpt>
      <trkpt lat="47.50716" lon="6.75947">
        <ele>408.1</ele>
        <time>2014-11-09T11:31:46.000Z</time>
      </trkpt>
      <trkpt lat="47.50716" lon="6.7595">
        <ele>408.1</ele>
        <time>2014-11-09T11:31:47.000Z</time>
      </trkpt>
      <trkpt lat="47.50716" lon="6.75956">
        <ele>408.2</ele>
        <time>2014-11-09T11:31:49.000Z</time>
      </trkpt>
      <trkpt lat="47.50716" lon="6.7596">
        <ele>408.1</ele>
        <time>2014-11-09T11:31:50.000Z</time>
      </trkpt>
      <trkpt lat="47.50716" lon="6.75966">
        <ele>407.2</ele>
        <time>2014-11-09T11:31:52.000Z</time>
      </trkpt>
      <trkpt lat="47.50715" lon="6.75968">
        <ele>407.1</ele>
        <time>2014-11-09T11:31:53.000Z</time>
      </trkpt>
      <trkpt lat="47.50714" lon="6.75973">
        <ele>406.7</ele>
        <time>2014-11-09T11:31:55.000Z</time>
      </trkpt>
      <trkpt lat="47.50714" lon="6.75975">
        <ele>404</ele>
        <time>2014-11-09T11:31:56.000Z</time>
      </trkpt>
      <trkpt lat="47.50714" lon="6.75978">
        <ele>403.9</ele>
        <time>2014-11-09T11:31:57.000Z</time>
      </trkpt>
      <trkpt lat="47.50713" lon="6.75986">
        <ele>399.7</ele>
        <time>2014-11-09T11:32:00.000Z</time>
      </trkpt>
      <trkpt lat="47.50712" lon="6.75992">
        <ele>397.5</ele>
        <time>2014-11-09T11:32:02.000Z</time>
      </trkpt>
      <trkpt lat="47.50711" lon="6.75995">
        <ele>398.8</ele>
        <time>2014-11-09T11:32:03.000Z</time>
      </trkpt>
      <trkpt lat="47.5071" lon="6.76001">
        <ele>402.7</ele>
        <time>2014-11-09T11:32:05.000Z</time>
      </trkpt>
      <trkpt lat="47.50709" lon="6.76004">
        <ele>403.9</ele>
        <time>2014-11-09T11:32:06.000Z</time>
      </trkpt>
      <trkpt lat="47.50708" lon="6.7601">
        <ele>405.6</ele>
        <time>2014-11-09T11:32:08.000Z</time>
      </trkpt>
      <trkpt lat="47.50708" lon="6.76013">
        <ele>406.7</ele>
        <time>2014-11-09T11:32:09.000Z</time>
      </trkpt>
      <trkpt lat="47.50707" lon="6.76019">
        <ele>408.7</ele>
        <time>2014-11-09T11:32:11.000Z</time>
      </trkpt>
      <trkpt lat="47.50707" lon="6.76023">
        <ele>409.8</ele>
        <time>2014-11-09T11:32:12.000Z</time>
      </trkpt>
      <trkpt lat="47.50706" lon="6.76026">
        <ele>410.6</ele>
        <time>2014-11-09T11:32:13.000Z</time>
      </trkpt>
      <trkpt lat="47.50706" lon="6.7603">
        <ele>409.8</ele>
        <time>2014-11-09T11:32:14.000Z</time>
      </trkpt>
      <trkpt lat="47.50707" lon="6.76034">
        <ele>409.2</ele>
        <time>2014-11-09T11:32:15.000Z</time>
      </trkpt>
      <trkpt lat="47.50707" lon="6.76038">
        <ele>410.2</ele>
        <time>2014-11-09T11:32:16.000Z</time>
      </trkpt>
      <trkpt lat="47.50707" lon="6.76042">
        <ele>411.3</ele>
        <time>2014-11-09T11:32:17.000Z</time>
      </trkpt>
      <trkpt lat="47.50706" lon="6.76045">
        <ele>411.9</ele>
        <time>2014-11-09T11:32:18.000Z</time>
      </trkpt>
      <trkpt lat="47.50706" lon="6.7605">
        <ele>411.7</ele>
        <time>2014-11-09T11:32:19.000Z</time>
      </trkpt>
      <trkpt lat="47.50706" lon="6.76055">
        <ele>411.7</ele>
        <time>2014-11-09T11:32:20.000Z</time>
      </trkpt>
      <trkpt lat="47.50706" lon="6.7606">
        <ele>412.2</ele>
        <time>2014-11-09T11:32:21.000Z</time>
      </trkpt>
      <trkpt lat="47.50706" lon="6.76065">
        <ele>412.7</ele>
        <time>2014-11-09T11:32:22.000Z</time>
      </trkpt>
      <trkpt lat="47.50705" lon="6.76069">
        <ele>413</ele>
        <time>2014-11-09T11:32:23.000Z</time>
      </trkpt>
      <trkpt lat="47.50705" lon="6.76073">
        <ele>414.7</ele>
        <time>2014-11-09T11:32:24.000Z</time>
      </trkpt>
      <trkpt lat="47.50704" lon="6.76077">
        <ele>414.6</ele>
        <time>2014-11-09T11:32:25.000Z</time>
      </trkpt>
      <trkpt lat="47.50704" lon="6.76081">
        <ele>414.5</ele>
        <time>2014-11-09T11:32:26.000Z</time>
      </trkpt>
      <trkpt lat="47.50703" lon="6.76084">
        <ele>415.4</ele>
        <time>2014-11-09T11:32:27.000Z</time>
      </trkpt>
      <trkpt lat="47.50703" lon="6.76088">
        <ele>414.7</ele>
        <time>2014-11-09T11:32:28.000Z</time>
      </trkpt>
      <trkpt lat="47.50703" lon="6.76093">
        <ele>415</ele>
        <time>2014-11-09T11:32:29.000Z</time>
      </trkpt>
      <trkpt lat="47.50703" lon="6.76097">
        <ele>414.6</ele>
        <time>2014-11-09T11:32:30.000Z</time>
      </trkpt>
      <trkpt lat="47.50703" lon="6.76102">
        <ele>414.5</ele>
        <time>2014-11-09T11:32:31.000Z</time>
      </trkpt>
      <trkpt lat="47.50703" lon="6.76107">
        <ele>413.9</ele>
        <time>2014-11-09T11:32:32.000Z</time>
      </trkpt>
      <trkpt lat="47.50703" lon="6.76111">
        <ele>414.9</ele>
        <time>2014-11-09T11:32:33.000Z</time>
      </trkpt>
      <trkpt lat="47.50703" lon="6.76116">
        <ele>414.9</ele>
        <time>2014-11-09T11:32:34.000Z</time>
      </trkpt>
      <trkpt lat="47.50703" lon="6.7612">
        <ele>414.7</ele>
        <time>2014-11-09T11:32:35.000Z</time>
      </trkpt>
      <trkpt lat="47.50704" lon="6.76125">
        <ele>415.1</ele>
        <time>2014-11-09T11:32:36.000Z</time>
      </trkpt>
      <trkpt lat="47.50704" lon="6.76129">
        <ele>415.5</ele>
        <time>2014-11-09T11:32:37.000Z</time>
      </trkpt>
      <trkpt lat="47.50704" lon="6.76133">
        <ele>415.6</ele>
        <time>2014-11-09T11:32:38.000Z</time>
      </trkpt>
      <trkpt lat="47.50704" lon="6.76137">
        <ele>417.8</ele>
        <time>2014-11-09T11:32:39.000Z</time>
      </trkpt>
      <trkpt lat="47.50705" lon="6.7614">
        <ele>417.9</ele>
        <time>2014-11-09T11:32:40.000Z</time>
      </trkpt>
      <trkpt lat="47.50705" lon="6.76144">
        <ele>418.8</ele>
        <time>2014-11-09T11:32:41.000Z</time>
      </trkpt>
      <trkpt lat="47.50705" lon="6.76147">
        <ele>419.6</ele>
        <time>2014-11-09T11:32:42.000Z</time>
      </trkpt>
      <trkpt lat="47.50705" lon="6.7615">
        <ele>419.8</ele>
        <time>2014-11-09T11:32:43.000Z</time>
      </trkpt>
      <trkpt lat="47.50706" lon="6.76154">
        <ele>419.4</ele>
        <time>2014-11-09T11:32:44.000Z</time>
      </trkpt>
      <trkpt lat="47.50706" lon="6.76157">
        <ele>425.2</ele>
        <time>2014-11-09T11:32:45.000Z</time>
      </trkpt>
      <trkpt lat="47.50706" lon="6.7616">
        <ele>424</ele>
        <time>2014-11-09T11:32:46.000Z</time>
      </trkpt>
      <trkpt lat="47.50707" lon="6.76164">
        <ele>426.1</ele>
        <time>2014-11-09T11:32:47.000Z</time>
      </trkpt>
      <trkpt lat="47.50707" lon="6.76169">
        <ele>425.6</ele>
        <time>2014-11-09T11:32:48.000Z</time>
      </trkpt>
      <trkpt lat="47.50707" lon="6.76173">
        <ele>426.8</ele>
        <time>2014-11-09T11:32:49.000Z</time>
      </trkpt>
      <trkpt lat="47.50708" lon="6.76177">
        <ele>426.8</ele>
        <time>2014-11-09T11:32:50.000Z</time>
      </trkpt>
      <trkpt lat="47.50708" lon="6.76181">
        <ele>427.1</ele>
        <time>2014-11-09T11:32:51.000Z</time>
      </trkpt>
      <trkpt lat="47.50709" lon="6.76184">
        <ele>425.3</ele>
        <time>2014-11-09T11:32:52.000Z</time>
      </trkpt>
      <trkpt lat="47.5071" lon="6.76187">
        <ele>424.7</ele>
        <time>2014-11-09T11:32:53.000Z</time>
      </trkpt>
      <trkpt lat="47.50711" lon="6.76191">
        <ele>423.4</ele>
        <time>2014-11-09T11:32:54.000Z</time>
      </trkpt>
      <trkpt lat="47.50711" lon="6.76194">
        <ele>424.3</ele>
        <time>2014-11-09T11:32:54.999Z</time>
      </trkpt>
      <trkpt lat="47.50713" lon="6.762">
        <ele>422</ele>
        <time>2014-11-09T11:32:56.000Z</time>
      </trkpt>
      <trkpt lat="47.50714" lon="6.7621">
        <ele>419.7</ele>
        <time>2014-11-09T11:32:59.000Z</time>
      </trkpt>
      <trkpt lat="47.50715" lon="6.76214">
        <ele>421.3</ele>
        <time>2014-11-09T11:33:00.000Z</time>
      </trkpt>
      <trkpt lat="47.50717" lon="6.76219">
        <ele>418.1</ele>
        <time>2014-11-09T11:33:01.000Z</time>
      </trkpt>
      <trkpt lat="47.50718" lon="6.76224">
        <ele>417.8</ele>
        <time>2014-11-09T11:33:02.000Z</time>
      </trkpt>
      <trkpt lat="47.50719" lon="6.76229">
        <ele>417.2</ele>
        <time>2014-11-09T11:33:03.000Z</time>
      </trkpt>
      <trkpt lat="47.50721" lon="6.76234">
        <ele>414.8</ele>
        <time>2014-11-09T11:33:04.000Z</time>
      </trkpt>
      <trkpt lat="47.50722" lon="6.76238">
        <ele>414.8</ele>
        <time>2014-11-09T11:33:05.000Z</time>
      </trkpt>
      <trkpt lat="47.50724" lon="6.76243">
        <ele>413.6</ele>
        <time>2014-11-09T11:33:06.000Z</time>
      </trkpt>
      <trkpt lat="47.50726" lon="6.76248">
        <ele>412.6</ele>
        <time>2014-11-09T11:33:07.000Z</time>
      </trkpt>
      <trkpt lat="47.50728" lon="6.76253">
        <ele>409.8</ele>
        <time>2014-11-09T11:33:08.000Z</time>
      </trkpt>
      <trkpt lat="47.5073" lon="6.76259">
        <ele>409.2</ele>
        <time>2014-11-09T11:33:09.000Z</time>
      </trkpt>
      <trkpt lat="47.50732" lon="6.76263">
        <ele>408.3</ele>
        <time>2014-11-09T11:33:10.000Z</time>
      </trkpt>
      <trkpt lat="47.50733" lon="6.76268">
        <ele>408.3</ele>
        <time>2014-11-09T11:33:11.000Z</time>
      </trkpt>
      <trkpt lat="47.50735" lon="6.76272">
        <ele>408.9</ele>
        <time>2014-11-09T11:33:12.000Z</time>
      </trkpt>
      <trkpt lat="47.50737" lon="6.76276">
        <ele>408.2</ele>
        <time>2014-11-09T11:33:13.000Z</time>
      </trkpt>
      <trkpt lat="47.50738" lon="6.7628">
        <ele>409.2</ele>
        <time>2014-11-09T11:33:14.000Z</time>
      </trkpt>
      <trkpt lat="47.5074" lon="6.76283">
        <ele>409.2</ele>
        <time>2014-11-09T11:33:15.000Z</time>
      </trkpt>
      <trkpt lat="47.50741" lon="6.76286">
        <ele>409.3</ele>
        <time>2014-11-09T11:33:16.000Z</time>
      </trkpt>
      <trkpt lat="47.50742" lon="6.7629">
        <ele>408.5</ele>
        <time>2014-11-09T11:33:17.000Z</time>
      </trkpt>
      <trkpt lat="47.50744" lon="6.76293">
        <ele>408.3</ele>
        <time>2014-11-09T11:33:18.000Z</time>
      </trkpt>
      <trkpt lat="47.50745" lon="6.76296">
        <ele>407.9</ele>
        <time>2014-11-09T11:33:19.000Z</time>
      </trkpt>
      <trkpt lat="47.50747" lon="6.76301">
        <ele>407.3</ele>
        <time>2014-11-09T11:33:21.000Z</time>
      </trkpt>
      <trkpt lat="47.50748" lon="6.76303">
        <ele>407</ele>
        <time>2014-11-09T11:33:22.000Z</time>
      </trkpt>
      <trkpt lat="47.5075" lon="6.76308">
        <ele>406</ele>
        <time>2014-11-09T11:33:24.000Z</time>
      </trkpt>
      <trkpt lat="47.50752" lon="6.76311">
        <ele>408.2</ele>
        <time>2014-11-09T11:33:25.000Z</time>
      </trkpt>
      <trkpt lat="47.50753" lon="6.76314">
        <ele>409.4</ele>
        <time>2014-11-09T11:33:26.000Z</time>
      </trkpt>
      <trkpt lat="47.50754" lon="6.76317">
        <ele>406.9</ele>
        <time>2014-11-09T11:33:27.000Z</time>
      </trkpt>
      <trkpt lat="47.50756" lon="6.7632">
        <ele>407.1</ele>
        <time>2014-11-09T11:33:28.000Z</time>
      </trkpt>
      <trkpt lat="47.50757" lon="6.76323">
        <ele>406.8</ele>
        <time>2014-11-09T11:33:29.000Z</time>
      </trkpt>
      <trkpt lat="47.50759" lon="6.76329">
        <ele>406.9</ele>
        <time>2014-11-09T11:33:31.000Z</time>
      </trkpt>
      <trkpt lat="47.5076" lon="6.76331">
        <ele>407.7</ele>
        <time>2014-11-09T11:33:32.000Z</time>
      </trkpt>
      <trkpt lat="47.50762" lon="6.76336">
        <ele>405.6</ele>
        <time>2014-11-09T11:33:34.000Z</time>
      </trkpt>
      <trkpt lat="47.50763" lon="6.76339">
        <ele>406.1</ele>
        <time>2014-11-09T11:33:35.000Z</time>
      </trkpt>
      <trkpt lat="47.50765" lon="6.76343">
        <ele>408.7</ele>
        <time>2014-11-09T11:33:37.000Z</time>
      </trkpt>
      <trkpt lat="47.50766" lon="6.76346">
        <ele>409.1</ele>
        <time>2014-11-09T11:33:38.000Z</time>
      </trkpt>
      <trkpt lat="47.50768" lon="6.76351">
        <ele>409.6</ele>
        <time>2014-11-09T11:33:40.000Z</time>
      </trkpt>
      <trkpt lat="47.50769" lon="6.76353">
        <ele>412</ele>
        <time>2014-11-09T11:33:41.000Z</time>
      </trkpt>
      <trkpt lat="47.5077" lon="6.76358">
        <ele>408.6</ele>
        <time>2014-11-09T11:33:43.000Z</time>
      </trkpt>
      <trkpt lat="47.50771" lon="6.76361">
        <ele>407.3</ele>
        <time>2014-11-09T11:33:44.000Z</time>
      </trkpt>
      <trkpt lat="47.50774" lon="6.76366">
        <ele>409.5</ele>
        <time>2014-11-09T11:33:46.000Z</time>
      </trkpt>
      <trkpt lat="47.50775" lon="6.76368">
        <ele>409.3</ele>
        <time>2014-11-09T11:33:47.000Z</time>
      </trkpt>
      <trkpt lat="47.50777" lon="6.76374">
        <ele>408.8</ele>
        <time>2014-11-09T11:33:49.000Z</time>
      </trkpt>
      <trkpt lat="47.50778" lon="6.76376">
        <ele>410</ele>
        <time>2014-11-09T11:33:50.000Z</time>
      </trkpt>
      <trkpt lat="47.50779" lon="6.76381">
        <ele>409.4</ele>
        <time>2014-11-09T11:33:52.000Z</time>
      </trkpt>
      <trkpt lat="47.5078" lon="6.76383">
        <ele>410.7</ele>
        <time>2014-11-09T11:33:53.000Z</time>
      </trkpt>
      <trkpt lat="47.50781" lon="6.76387">
        <ele>412.1</ele>
        <time>2014-11-09T11:33:55.000Z</time>
      </trkpt>
      <trkpt lat="47.50782" lon="6.76389">
        <ele>412.6</ele>
        <time>2014-11-09T11:33:56.000Z</time>
      </trkpt>
      <trkpt lat="47.50783" lon="6.76394">
        <ele>413.1</ele>
        <time>2014-11-09T11:33:58.000Z</time>
      </trkpt>
      <trkpt lat="47.50784" lon="6.76402">
        <ele>410</ele>
        <time>2014-11-09T11:34:01.000Z</time>
      </trkpt>
      <trkpt lat="47.50785" lon="6.76407">
        <ele>411.7</ele>
        <time>2014-11-09T11:34:03.000Z</time>
      </trkpt>
      <trkpt lat="47.50786" lon="6.7641">
        <ele>412.1</ele>
        <time>2014-11-09T11:34:04.000Z</time>
      </trkpt>
      <trkpt lat="47.50786" lon="6.76416">
        <ele>410.9</ele>
        <time>2014-11-09T11:34:07.000Z</time>
      </trkpt>
      <trkpt lat="47.50787" lon="6.76418">
        <ele>411.4</ele>
        <time>2014-11-09T11:34:08.000Z</time>
      </trkpt>
      <trkpt lat="47.50788" lon="6.76424">
        <ele>412.4</ele>
        <time>2014-11-09T11:34:10.000Z</time>
      </trkpt>
      <trkpt lat="47.50789" lon="6.76427">
        <ele>413.4</ele>
        <time>2014-11-09T11:34:11.000Z</time>
      </trkpt>
      <trkpt lat="47.5079" lon="6.76432">
        <ele>413.4</ele>
        <time>2014-11-09T11:34:13.000Z</time>
      </trkpt>
      <trkpt lat="47.5079" lon="6.76434">
        <ele>412.8</ele>
        <time>2014-11-09T11:34:14.000Z</time>
      </trkpt>
      <trkpt lat="47.50791" lon="6.76438">
        <ele>413</ele>
        <time>2014-11-09T11:34:16.000Z</time>
      </trkpt>
      <trkpt lat="47.50791" lon="6.76441">
        <ele>413.3</ele>
        <time>2014-11-09T11:34:17.000Z</time>
      </trkpt>
      <trkpt lat="47.50791" lon="6.76446">
        <ele>412.6</ele>
        <time>2014-11-09T11:34:19.000Z</time>
      </trkpt>
      <trkpt lat="47.50791" lon="6.76449">
        <ele>412.4</ele>
        <time>2014-11-09T11:34:20.000Z</time>
      </trkpt>
      <trkpt lat="47.50791" lon="6.76455">
        <ele>412.7</ele>
        <time>2014-11-09T11:34:22.000Z</time>
      </trkpt>
      <trkpt lat="47.50791" lon="6.76458">
        <ele>412.8</ele>
        <time>2014-11-09T11:34:23.000Z</time>
      </trkpt>
      <trkpt lat="47.50791" lon="6.76464">
        <ele>413.7</ele>
        <time>2014-11-09T11:34:25.000Z</time>
      </trkpt>
      <trkpt lat="47.50791" lon="6.76467">
        <ele>414.1</ele>
        <time>2014-11-09T11:34:26.000Z</time>
      </trkpt>
      <trkpt lat="47.50791" lon="6.76473">
        <ele>413.7</ele>
        <time>2014-11-09T11:34:28.000Z</time>
      </trkpt>
      <trkpt lat="47.5079" lon="6.76477">
        <ele>414.1</ele>
        <time>2014-11-09T11:34:29.000Z</time>
      </trkpt>
      <trkpt lat="47.5079" lon="6.7648">
        <ele>414.4</ele>
        <time>2014-11-09T11:34:30.000Z</time>
      </trkpt>
      <trkpt lat="47.5079" lon="6.76484">
        <ele>414.3</ele>
        <time>2014-11-09T11:34:31.000Z</time>
      </trkpt>
      <trkpt lat="47.5079" lon="6.76488">
        <ele>414.3</ele>
        <time>2014-11-09T11:34:32.000Z</time>
      </trkpt>
      <trkpt lat="47.5079" lon="6.76492">
        <ele>414.6</ele>
        <time>2014-11-09T11:34:33.000Z</time>
      </trkpt>
      <trkpt lat="47.50791" lon="6.76496">
        <ele>414.1</ele>
        <time>2014-11-09T11:34:34.000Z</time>
      </trkpt>
      <trkpt lat="47.50793" lon="6.765">
        <ele>413.3</ele>
        <time>2014-11-09T11:34:35.000Z</time>
      </trkpt>
      <trkpt lat="47.50794" lon="6.76504">
        <ele>412.7</ele>
        <time>2014-11-09T11:34:36.000Z</time>
      </trkpt>
      <trkpt lat="47.50796" lon="6.76509">
        <ele>412.2</ele>
        <time>2014-11-09T11:34:37.000Z</time>
      </trkpt>
      <trkpt lat="47.50797" lon="6.76513">
        <ele>412</ele>
        <time>2014-11-09T11:34:38.000Z</time>
      </trkpt>
      <trkpt lat="47.50798" lon="6.76517">
        <ele>412.1</ele>
        <time>2014-11-09T11:34:39.000Z</time>
      </trkpt>
      <trkpt lat="47.50799" lon="6.76521">
        <ele>411.9</ele>
        <time>2014-11-09T11:34:40.000Z</time>
      </trkpt>
      <trkpt lat="47.508" lon="6.76526">
        <ele>411.5</ele>
        <time>2014-11-09T11:34:41.000Z</time>
      </trkpt>
      <trkpt lat="47.50801" lon="6.7653">
        <ele>410.8</ele>
        <time>2014-11-09T11:34:42.000Z</time>
      </trkpt>
      <trkpt lat="47.50802" lon="6.76535">
        <ele>409.7</ele>
        <time>2014-11-09T11:34:43.000Z</time>
      </trkpt>
      <trkpt lat="47.50803" lon="6.7654">
        <ele>409</ele>
        <time>2014-11-09T11:34:44.000Z</time>
      </trkpt>
      <trkpt lat="47.50803" lon="6.76544">
        <ele>408.7</ele>
        <time>2014-11-09T11:34:45.000Z</time>
      </trkpt>
      <trkpt lat="47.50804" lon="6.76549">
        <ele>408.2</ele>
        <time>2014-11-09T11:34:46.001Z</time>
      </trkpt>
      <trkpt lat="47.50805" lon="6.76553">
        <ele>408.2</ele>
        <time>2014-11-09T11:34:47.000Z</time>
      </trkpt>
      <trkpt lat="47.50805" lon="6.76557">
        <ele>410</ele>
        <time>2014-11-09T11:34:48.000Z</time>
      </trkpt>
      <trkpt lat="47.50806" lon="6.76561">
        <ele>409.8</ele>
        <time>2014-11-09T11:34:49.000Z</time>
      </trkpt>
      <trkpt lat="47.50807" lon="6.76566">
        <ele>410.1</ele>
        <time>2014-11-09T11:34:50.000Z</time>
      </trkpt>
      <trkpt lat="47.50808" lon="6.76571">
        <ele>410.7</ele>
        <time>2014-11-09T11:34:51.000Z</time>
      </trkpt>
      <trkpt lat="47.50809" lon="6.76576">
        <ele>411.2</ele>
        <time>2014-11-09T11:34:52.000Z</time>
      </trkpt>
      <trkpt lat="47.5081" lon="6.76581">
        <ele>411.2</ele>
        <time>2014-11-09T11:34:53.000Z</time>
      </trkpt>
      <trkpt lat="47.50811" lon="6.76586">
        <ele>412.4</ele>
        <time>2014-11-09T11:34:54.000Z</time>
      </trkpt>
      <trkpt lat="47.50813" lon="6.76592">
        <ele>412.1</ele>
        <time>2014-11-09T11:34:55.000Z</time>
      </trkpt>
      <trkpt lat="47.50815" lon="6.76598">
        <ele>411.6</ele>
        <time>2014-11-09T11:34:56.000Z</time>
      </trkpt>
      <trkpt lat="47.5082" lon="6.76615">
        <ele>408.1</ele>
        <time>2014-11-09T11:34:59.000Z</time>
      </trkpt>
      <trkpt lat="47.50826" lon="6.76626">
        <ele>408.1</ele>
        <time>2014-11-09T11:35:00.000Z</time>
      </trkpt>
      <trkpt lat="47.50828" lon="6.76633">
        <ele>408.2</ele>
        <time>2014-11-09T11:35:01.000Z</time>
      </trkpt>
      <trkpt lat="47.50833" lon="6.7664">
        <ele>407.9</ele>
        <time>2014-11-09T11:35:02.000Z</time>
      </trkpt>
      <trkpt lat="47.50836" lon="6.76648">
        <ele>407</ele>
        <time>2014-11-09T11:35:03.000Z</time>
      </trkpt>
      <trkpt lat="47.50839" lon="6.76656">
        <ele>406.7</ele>
        <time>2014-11-09T11:35:04.000Z</time>
      </trkpt>
      <trkpt lat="47.50842" lon="6.76665">
        <ele>406.8</ele>
        <time>2014-11-09T11:35:05.000Z</time>
      </trkpt>
      <trkpt lat="47.50845" lon="6.76673">
        <ele>408</ele>
        <time>2014-11-09T11:35:06.000Z</time>
      </trkpt>
      <trkpt lat="47.50849" lon="6.76683">
        <ele>407.5</ele>
        <time>2014-11-09T11:35:07.000Z</time>
      </trkpt>
      <trkpt lat="47.50852" lon="6.76692">
        <ele>404.6</ele>
        <time>2014-11-09T11:35:08.000Z</time>
      </trkpt>
      <trkpt lat="47.50856" lon="6.76702">
        <ele>403</ele>
        <time>2014-11-09T11:35:09.000Z</time>
      </trkpt>
      <trkpt lat="47.50859" lon="6.76711">
        <ele>402.2</ele>
        <time>2014-11-09T11:35:10.002Z</time>
      </trkpt>
      <trkpt lat="47.50863" lon="6.7672">
        <ele>402.1</ele>
        <time>2014-11-09T11:35:11.000Z</time>
      </trkpt>
      <trkpt lat="47.50867" lon="6.7673">
        <ele>402.3</ele>
        <time>2014-11-09T11:35:12.000Z</time>
      </trkpt>
      <trkpt lat="47.50869" lon="6.76738">
        <ele>402.3</ele>
        <time>2014-11-09T11:35:13.000Z</time>
      </trkpt>
      <trkpt lat="47.50873" lon="6.76747">
        <ele>402.3</ele>
        <time>2014-11-09T11:35:14.000Z</time>
      </trkpt>
      <trkpt lat="47.50877" lon="6.76757">
        <ele>401.3</ele>
        <time>2014-11-09T11:35:15.000Z</time>
      </trkpt>
      <trkpt lat="47.5088" lon="6.76766">
        <ele>400.9</ele>
        <time>2014-11-09T11:35:16.000Z</time>
      </trkpt>
      <trkpt lat="47.50884" lon="6.76776">
        <ele>401.2</ele>
        <time>2014-11-09T11:35:17.000Z</time>
      </trkpt>
      <trkpt lat="47.50888" lon="6.76785">
        <ele>400.6</ele>
        <time>2014-11-09T11:35:18.000Z</time>
      </trkpt>
      <trkpt lat="47.50892" lon="6.76794">
        <ele>400.4</ele>
        <time>2014-11-09T11:35:19.000Z</time>
      </trkpt>
      <trkpt lat="47.50895" lon="6.76803">
        <ele>401.5</ele>
        <time>2014-11-09T11:35:20.000Z</time>
      </trkpt>
      <trkpt lat="47.509" lon="6.76812">
        <ele>400.3</ele>
        <time>2014-11-09T11:35:21.000Z</time>
      </trkpt>
      <trkpt lat="47.50904" lon="6.76821">
        <ele>399.9</ele>
        <time>2014-11-09T11:35:22.000Z</time>
      </trkpt>
      <trkpt lat="47.50907" lon="6.7683">
        <ele>399.7</ele>
        <time>2014-11-09T11:35:23.000Z</time>
      </trkpt>
      <trkpt lat="47.50911" lon="6.76839">
        <ele>399.6</ele>
        <time>2014-11-09T11:35:24.000Z</time>
      </trkpt>
      <trkpt lat="47.50915" lon="6.76847">
        <ele>399.4</ele>
        <time>2014-11-09T11:35:25.000Z</time>
      </trkpt>
      <trkpt lat="47.50919" lon="6.76855">
        <ele>399.2</ele>
        <time>2014-11-09T11:35:26.000Z</time>
      </trkpt>
      <trkpt lat="47.50923" lon="6.76862">
        <ele>398.7</ele>
        <time>2014-11-09T11:35:27.000Z</time>
      </trkpt>
      <trkpt lat="47.50928" lon="6.7687">
        <ele>397.3</ele>
        <time>2014-11-09T11:35:28.000Z</time>
      </trkpt>
      <trkpt lat="47.50933" lon="6.76876">
        <ele>396.6</ele>
        <time>2014-11-09T11:35:29.000Z</time>
      </trkpt>
      <trkpt lat="47.50939" lon="6.76883">
        <ele>395.5</ele>
        <time>2014-11-09T11:35:30.000Z</time>
      </trkpt>
      <trkpt lat="47.50944" lon="6.76888">
        <ele>394.6</ele>
        <time>2014-11-09T11:35:31.000Z</time>
      </trkpt>
      <trkpt lat="47.50949" lon="6.76894">
        <ele>393.6</ele>
        <time>2014-11-09T11:35:32.000Z</time>
      </trkpt>
      <trkpt lat="47.50954" lon="6.769">
        <ele>393.3</ele>
        <time>2014-11-09T11:35:33.000Z</time>
      </trkpt>
      <trkpt lat="47.50959" lon="6.76906">
        <ele>392.6</ele>
        <time>2014-11-09T11:35:34.000Z</time>
      </trkpt>
      <trkpt lat="47.50963" lon="6.76913">
        <ele>391.9</ele>
        <time>2014-11-09T11:35:35.000Z</time>
      </trkpt>
      <trkpt lat="47.50967" lon="6.7692">
        <ele>390.7</ele>
        <time>2014-11-09T11:35:36.000Z</time>
      </trkpt>
      <trkpt lat="47.50971" lon="6.76927">
        <ele>390.2</ele>
        <time>2014-11-09T11:35:37.000Z</time>
      </trkpt>
      <trkpt lat="47.50975" lon="6.76934">
        <ele>389.4</ele>
        <time>2014-11-09T11:35:38.000Z</time>
      </trkpt>
      <trkpt lat="47.5098" lon="6.76939">
        <ele>388.6</ele>
        <time>2014-11-09T11:35:39.000Z</time>
      </trkpt>
      <trkpt lat="47.50984" lon="6.76942">
        <ele>388.5</ele>
        <time>2014-11-09T11:35:40.000Z</time>
      </trkpt>
      <trkpt lat="47.50989" lon="6.76943">
        <ele>388.3</ele>
        <time>2014-11-09T11:35:41.000Z</time>
      </trkpt>
      <trkpt lat="47.50995" lon="6.76942">
        <ele>387.4</ele>
        <time>2014-11-09T11:35:42.000Z</time>
      </trkpt>
      <trkpt lat="47.51001" lon="6.76942">
        <ele>386.7</ele>
        <time>2014-11-09T11:35:43.000Z</time>
      </trkpt>
      <trkpt lat="47.51007" lon="6.76942">
        <ele>386.1</ele>
        <time>2014-11-09T11:35:44.000Z</time>
      </trkpt>
      <trkpt lat="47.51013" lon="6.76944">
        <ele>387.5</ele>
        <time>2014-11-09T11:35:45.000Z</time>
      </trkpt>
      <trkpt lat="47.51019" lon="6.76947">
        <ele>386.4</ele>
        <time>2014-11-09T11:35:46.000Z</time>
      </trkpt>
      <trkpt lat="47.51025" lon="6.76951">
        <ele>385.9</ele>
        <time>2014-11-09T11:35:47.000Z</time>
      </trkpt>
      <trkpt lat="47.51031" lon="6.76956">
        <ele>386.8</ele>
        <time>2014-11-09T11:35:48.000Z</time>
      </trkpt>
      <trkpt lat="47.51035" lon="6.76962">
        <ele>386.7</ele>
        <time>2014-11-09T11:35:49.000Z</time>
      </trkpt>
      <trkpt lat="47.51041" lon="6.76966">
        <ele>387.1</ele>
        <time>2014-11-09T11:35:50.000Z</time>
      </trkpt>
      <trkpt lat="47.51046" lon="6.7697">
        <ele>387.1</ele>
        <time>2014-11-09T11:35:51.000Z</time>
      </trkpt>
      <trkpt lat="47.51051" lon="6.76975">
        <ele>387.7</ele>
        <time>2014-11-09T11:35:52.000Z</time>
      </trkpt>
      <trkpt lat="47.51057" lon="6.7698">
        <ele>388.4</ele>
        <time>2014-11-09T11:35:53.000Z</time>
      </trkpt>
      <trkpt lat="47.51062" lon="6.76984">
        <ele>388.8</ele>
        <time>2014-11-09T11:35:54.000Z</time>
      </trkpt>
      <trkpt lat="47.51066" lon="6.76988">
        <ele>389.4</ele>
        <time>2014-11-09T11:35:55.000Z</time>
      </trkpt>
      <trkpt lat="47.51071" lon="6.76992">
        <ele>390.7</ele>
        <time>2014-11-09T11:35:56.000Z</time>
      </trkpt>
      <trkpt lat="47.51076" lon="6.76996">
        <ele>390.5</ele>
        <time>2014-11-09T11:35:57.000Z</time>
      </trkpt>
      <trkpt lat="47.51109" lon="6.77026">
        <ele>387.5</ele>
        <time>2014-11-09T11:36:05.000Z</time>
      </trkpt>
      <trkpt lat="47.51113" lon="6.7703">
        <ele>387.5</ele>
        <time>2014-11-09T11:36:06.000Z</time>
      </trkpt>
      <trkpt lat="47.51117" lon="6.77033">
        <ele>387.8</ele>
        <time>2014-11-09T11:36:07.000Z</time>
      </trkpt>
      <trkpt lat="47.51122" lon="6.77038">
        <ele>387.4</ele>
        <time>2014-11-09T11:36:08.000Z</time>
      </trkpt>
      <trkpt lat="47.51127" lon="6.77042">
        <ele>387.7</ele>
        <time>2014-11-09T11:36:08.999Z</time>
      </trkpt>
      <trkpt lat="47.51133" lon="6.77048">
        <ele>387.9</ele>
        <time>2014-11-09T11:36:10.000Z</time>
      </trkpt>
      <trkpt lat="47.51137" lon="6.77052">
        <ele>388.6</ele>
        <time>2014-11-09T11:36:11.001Z</time>
      </trkpt>
      <trkpt lat="47.51142" lon="6.77059">
        <ele>388.1</ele>
        <time>2014-11-09T11:36:12.000Z</time>
      </trkpt>
      <trkpt lat="47.51145" lon="6.77063">
        <ele>388.7</ele>
        <time>2014-11-09T11:36:12.999Z</time>
      </trkpt>
      <trkpt lat="47.51148" lon="6.77065">
        <ele>388.3</ele>
        <time>2014-11-09T11:36:14.000Z</time>
      </trkpt>
      <trkpt lat="47.5115" lon="6.77068">
        <ele>389.5</ele>
        <time>2014-11-09T11:36:15.000Z</time>
      </trkpt>
      <trkpt lat="47.51156" lon="6.77073">
        <ele>389.4</ele>
        <time>2014-11-09T11:36:16.000Z</time>
      </trkpt>
      <trkpt lat="47.51159" lon="6.77077">
        <ele>390.1</ele>
        <time>2014-11-09T11:36:17.000Z</time>
      </trkpt>
      <trkpt lat="47.51164" lon="6.77082">
        <ele>390.8</ele>
        <time>2014-11-09T11:36:18.000Z</time>
      </trkpt>
      <trkpt lat="47.51168" lon="6.77087">
        <ele>391.2</ele>
        <time>2014-11-09T11:36:19.000Z</time>
      </trkpt>
      <trkpt lat="47.51171" lon="6.77091">
        <ele>389.6</ele>
        <time>2014-11-09T11:36:20.000Z</time>
      </trkpt>
      <trkpt lat="47.51175" lon="6.77097">
        <ele>389.5</ele>
        <time>2014-11-09T11:36:21.000Z</time>
      </trkpt>
      <trkpt lat="47.51178" lon="6.77102">
        <ele>388.7</ele>
        <time>2014-11-09T11:36:22.000Z</time>
      </trkpt>
      <trkpt lat="47.5118" lon="6.77108">
        <ele>388.1</ele>
        <time>2014-11-09T11:36:23.000Z</time>
      </trkpt>
      <trkpt lat="47.51183" lon="6.77113">
        <ele>388.9</ele>
        <time>2014-11-09T11:36:24.000Z</time>
      </trkpt>
      <trkpt lat="47.51187" lon="6.77118">
        <ele>388.3</ele>
        <time>2014-11-09T11:36:25.000Z</time>
      </trkpt>
      <trkpt lat="47.51189" lon="6.77123">
        <ele>388.4</ele>
        <time>2014-11-09T11:36:26.000Z</time>
      </trkpt>
      <trkpt lat="47.51192" lon="6.77128">
        <ele>388.3</ele>
        <time>2014-11-09T11:36:27.000Z</time>
      </trkpt>
      <trkpt lat="47.51195" lon="6.77132">
        <ele>388.4</ele>
        <time>2014-11-09T11:36:28.000Z</time>
      </trkpt>
      <trkpt lat="47.51198" lon="6.77137">
        <ele>388.6</ele>
        <time>2014-11-09T11:36:29.000Z</time>
      </trkpt>
      <trkpt lat="47.512" lon="6.77142">
        <ele>388.6</ele>
        <time>2014-11-09T11:36:30.000Z</time>
      </trkpt>
      <trkpt lat="47.51203" lon="6.77147">
        <ele>389</ele>
        <time>2014-11-09T11:36:31.000Z</time>
      </trkpt>
      <trkpt lat="47.51205" lon="6.77151">
        <ele>389</ele>
        <time>2014-11-09T11:36:32.000Z</time>
      </trkpt>
      <trkpt lat="47.51208" lon="6.77155">
        <ele>388.7</ele>
        <time>2014-11-09T11:36:33.000Z</time>
      </trkpt>
      <trkpt lat="47.5121" lon="6.7716">
        <ele>389.5</ele>
        <time>2014-11-09T11:36:34.000Z</time>
      </trkpt>
      <trkpt lat="47.51212" lon="6.77164">
        <ele>389.8</ele>
        <time>2014-11-09T11:36:35.000Z</time>
      </trkpt>
      <trkpt lat="47.51215" lon="6.77168">
        <ele>389.4</ele>
        <time>2014-11-09T11:36:36.000Z</time>
      </trkpt>
      <trkpt lat="47.51217" lon="6.77172">
        <ele>390.2</ele>
        <time>2014-11-09T11:36:37.000Z</time>
      </trkpt>
      <trkpt lat="47.51219" lon="6.77176">
        <ele>390.2</ele>
        <time>2014-11-09T11:36:38.000Z</time>
      </trkpt>
      <trkpt lat="47.51221" lon="6.77181">
        <ele>390.1</ele>
        <time>2014-11-09T11:36:39.000Z</time>
      </trkpt>
      <trkpt lat="47.51224" lon="6.77185">
        <ele>390.2</ele>
        <time>2014-11-09T11:36:40.000Z</time>
      </trkpt>
      <trkpt lat="47.51226" lon="6.7719">
        <ele>390.2</ele>
        <time>2014-11-09T11:36:41.000Z</time>
      </trkpt>
      <trkpt lat="47.51229" lon="6.77194">
        <ele>389.6</ele>
        <time>2014-11-09T11:36:42.000Z</time>
      </trkpt>
      <trkpt lat="47.51231" lon="6.77198">
        <ele>389.4</ele>
        <time>2014-11-09T11:36:43.000Z</time>
      </trkpt>
      <trkpt lat="47.51233" lon="6.77203">
        <ele>389.6</ele>
        <time>2014-11-09T11:36:44.000Z</time>
      </trkpt>
      <trkpt lat="47.51235" lon="6.77207">
        <ele>389.6</ele>
        <time>2014-11-09T11:36:45.000Z</time>
      </trkpt>
      <trkpt lat="47.51237" lon="6.77212">
        <ele>390.3</ele>
        <time>2014-11-09T11:36:46.000Z</time>
      </trkpt>
      <trkpt lat="47.51239" lon="6.77216">
        <ele>390.4</ele>
        <time>2014-11-09T11:36:47.000Z</time>
      </trkpt>
      <trkpt lat="47.51241" lon="6.7722">
        <ele>390.6</ele>
        <time>2014-11-09T11:36:48.000Z</time>
      </trkpt>
      <trkpt lat="47.51244" lon="6.77224">
        <ele>391.2</ele>
        <time>2014-11-09T11:36:49.000Z</time>
      </trkpt>
      <trkpt lat="47.51246" lon="6.77229">
        <ele>391.2</ele>
        <time>2014-11-09T11:36:50.000Z</time>
      </trkpt>
      <trkpt lat="47.51249" lon="6.77233">
        <ele>391.4</ele>
        <time>2014-11-09T11:36:51.000Z</time>
      </trkpt>
      <trkpt lat="47.51251" lon="6.77238">
        <ele>391.2</ele>
        <time>2014-11-09T11:36:52.000Z</time>
      </trkpt>
      <trkpt lat="47.51254" lon="6.77242">
        <ele>390.8</ele>
        <time>2014-11-09T11:36:53.000Z</time>
      </trkpt>
      <trkpt lat="47.51256" lon="6.77247">
        <ele>390.8</ele>
        <time>2014-11-09T11:36:54.000Z</time>
      </trkpt>
      <trkpt lat="47.51259" lon="6.77251">
        <ele>390.8</ele>
        <time>2014-11-09T11:36:55.000Z</time>
      </trkpt>
      <trkpt lat="47.51262" lon="6.77255">
        <ele>390.6</ele>
        <time>2014-11-09T11:36:56.000Z</time>
      </trkpt>
      <trkpt lat="47.51272" lon="6.77265">
        <ele>388.1</ele>
        <time>2014-11-09T11:36:59.000Z</time>
      </trkpt>
      <trkpt lat="47.51275" lon="6.77268">
        <ele>388.5</ele>
        <time>2014-11-09T11:37:00.000Z</time>
      </trkpt>
      <trkpt lat="47.51277" lon="6.7727">
        <ele>388</ele>
        <time>2014-11-09T11:37:01.000Z</time>
      </trkpt>
      <trkpt lat="47.5128" lon="6.77272">
        <ele>388.1</ele>
        <time>2014-11-09T11:37:02.000Z</time>
      </trkpt>
      <trkpt lat="47.51288" lon="6.77273">
        <ele>387.9</ele>
        <time>2014-11-09T11:37:03.000Z</time>
      </trkpt>
      <trkpt lat="47.51292" lon="6.77275">
        <ele>390.8</ele>
        <time>2014-11-09T11:37:04.001Z</time>
      </trkpt>
      <trkpt lat="47.51297" lon="6.77278">
        <ele>390.3</ele>
        <time>2014-11-09T11:37:05.000Z</time>
      </trkpt>
      <trkpt lat="47.51301" lon="6.77281">
        <ele>389.8</ele>
        <time>2014-11-09T11:37:06.000Z</time>
      </trkpt>
      <trkpt lat="47.51306" lon="6.77283">
        <ele>389.9</ele>
        <time>2014-11-09T11:37:07.000Z</time>
      </trkpt>
      <trkpt lat="47.51313" lon="6.77286">
        <ele>388.9</ele>
        <time>2014-11-09T11:37:08.000Z</time>
      </trkpt>
      <trkpt lat="47.51318" lon="6.77288">
        <ele>388</ele>
        <time>2014-11-09T11:37:09.000Z</time>
      </trkpt>
      <trkpt lat="47.51325" lon="6.7729">
        <ele>387.1</ele>
        <time>2014-11-09T11:37:10.000Z</time>
      </trkpt>
      <trkpt lat="47.51331" lon="6.7729">
        <ele>386.8</ele>
        <time>2014-11-09T11:37:11.000Z</time>
      </trkpt>
      <trkpt lat="47.51338" lon="6.77288">
        <ele>385.7</ele>
        <time>2014-11-09T11:37:12.000Z</time>
      </trkpt>
      <trkpt lat="47.51344" lon="6.77284">
        <ele>384.9</ele>
        <time>2014-11-09T11:37:13.000Z</time>
      </trkpt>
      <trkpt lat="47.51351" lon="6.77278">
        <ele>382.2</ele>
        <time>2014-11-09T11:37:14.000Z</time>
      </trkpt>
      <trkpt lat="47.51358" lon="6.77271">
        <ele>382.3</ele>
        <time>2014-11-09T11:37:15.000Z</time>
      </trkpt>
      <trkpt lat="47.51365" lon="6.77264">
        <ele>381.2</ele>
        <time>2014-11-09T11:37:16.000Z</time>
      </trkpt>
      <trkpt lat="47.51373" lon="6.7726">
        <ele>380.2</ele>
        <time>2014-11-09T11:37:17.000Z</time>
      </trkpt>
      <trkpt lat="47.51382" lon="6.77254">
        <ele>379.4</ele>
        <time>2014-11-09T11:37:18.000Z</time>
      </trkpt>
      <trkpt lat="47.51391" lon="6.77249">
        <ele>379.4</ele>
        <time>2014-11-09T11:37:19.000Z</time>
      </trkpt>
      <trkpt lat="47.51399" lon="6.77244">
        <ele>378.6</ele>
        <time>2014-11-09T11:37:20.000Z</time>
      </trkpt>
      <trkpt lat="47.51407" lon="6.7724">
        <ele>377.8</ele>
        <time>2014-11-09T11:37:21.000Z</time>
      </trkpt>
      <trkpt lat="47.51415" lon="6.77235">
        <ele>377.4</ele>
        <time>2014-11-09T11:37:22.000Z</time>
      </trkpt>
      <trkpt lat="47.51423" lon="6.77231">
        <ele>377.3</ele>
        <time>2014-11-09T11:37:23.000Z</time>
      </trkpt>
      <trkpt lat="47.51431" lon="6.77228">
        <ele>377.1</ele>
        <time>2014-11-09T11:37:24.000Z</time>
      </trkpt>
      <trkpt lat="47.51438" lon="6.77224">
        <ele>376</ele>
        <time>2014-11-09T11:37:25.000Z</time>
      </trkpt>
      <trkpt lat="47.51446" lon="6.77221">
        <ele>376.2</ele>
        <time>2014-11-09T11:37:26.000Z</time>
      </trkpt>
      <trkpt lat="47.51454" lon="6.77218">
        <ele>375.9</ele>
        <time>2014-11-09T11:37:27.000Z</time>
      </trkpt>
      <trkpt lat="47.5146" lon="6.77215">
        <ele>375.8</ele>
        <time>2014-11-09T11:37:28.000Z</time>
      </trkpt>
      <trkpt lat="47.51466" lon="6.77211">
        <ele>376.2</ele>
        <time>2014-11-09T11:37:29.000Z</time>
      </trkpt>
      <trkpt lat="47.51471" lon="6.7721">
        <ele>377</ele>
        <time>2014-11-09T11:37:30.000Z</time>
      </trkpt>
      <trkpt lat="47.51475" lon="6.77213">
        <ele>377.5</ele>
        <time>2014-11-09T11:37:31.000Z</time>
      </trkpt>
      <trkpt lat="47.51479" lon="6.77217">
        <ele>377.7</ele>
        <time>2014-11-09T11:37:32.000Z</time>
      </trkpt>
      <trkpt lat="47.51481" lon="6.77222">
        <ele>378.5</ele>
        <time>2014-11-09T11:37:33.000Z</time>
      </trkpt>
      <trkpt lat="47.51482" lon="6.77228">
        <ele>378.5</ele>
        <time>2014-11-09T11:37:34.000Z</time>
      </trkpt>
      <trkpt lat="47.51482" lon="6.77234">
        <ele>377.3</ele>
        <time>2014-11-09T11:37:35.000Z</time>
      </trkpt>
      <trkpt lat="47.51482" lon="6.77241">
        <ele>377.9</ele>
        <time>2014-11-09T11:37:36.000Z</time>
      </trkpt>
      <trkpt lat="47.51482" lon="6.77248">
        <ele>377.7</ele>
        <time>2014-11-09T11:37:37.000Z</time>
      </trkpt>
      <trkpt lat="47.51483" lon="6.77254">
        <ele>377.5</ele>
        <time>2014-11-09T11:37:38.000Z</time>
      </trkpt>
      <trkpt lat="47.51483" lon="6.77261">
        <ele>378.4</ele>
        <time>2014-11-09T11:37:39.000Z</time>
      </trkpt>
      <trkpt lat="47.51484" lon="6.77268">
        <ele>378.5</ele>
        <time>2014-11-09T11:37:40.000Z</time>
      </trkpt>
      <trkpt lat="47.51484" lon="6.77274">
        <ele>378.6</ele>
        <time>2014-11-09T11:37:41.000Z</time>
      </trkpt>
      <trkpt lat="47.51485" lon="6.77282">
        <ele>378.7</ele>
        <time>2014-11-09T11:37:42.000Z</time>
      </trkpt>
      <trkpt lat="47.51486" lon="6.77289">
        <ele>379</ele>
        <time>2014-11-09T11:37:43.000Z</time>
      </trkpt>
      <trkpt lat="47.51486" lon="6.77297">
        <ele>378.6</ele>
        <time>2014-11-09T11:37:44.000Z</time>
      </trkpt>
      <trkpt lat="47.51487" lon="6.77303">
        <ele>378.3</ele>
        <time>2014-11-09T11:37:45.000Z</time>
      </trkpt>
      <trkpt lat="47.51489" lon="6.7731">
        <ele>378.3</ele>
        <time>2014-11-09T11:37:46.000Z</time>
      </trkpt>
      <trkpt lat="47.51494" lon="6.77315">
        <ele>379.2</ele>
        <time>2014-11-09T11:37:47.000Z</time>
      </trkpt>
      <trkpt lat="47.51498" lon="6.7732">
        <ele>379.4</ele>
        <time>2014-11-09T11:37:48.000Z</time>
      </trkpt>
      <trkpt lat="47.51502" lon="6.77323">
        <ele>379.3</ele>
        <time>2014-11-09T11:37:49.000Z</time>
      </trkpt>
      <trkpt lat="47.51506" lon="6.77327">
        <ele>379.2</ele>
        <time>2014-11-09T11:37:50.000Z</time>
      </trkpt>
      <trkpt lat="47.51509" lon="6.77328">
        <ele>380.3</ele>
        <time>2014-11-09T11:37:51.000Z</time>
      </trkpt>
      <trkpt lat="47.51511" lon="6.77331">
        <ele>380.8</ele>
        <time>2014-11-09T11:37:52.000Z</time>
      </trkpt>
      <trkpt lat="47.51514" lon="6.77336">
        <ele>382</ele>
        <time>2014-11-09T11:37:53.000Z</time>
      </trkpt>
      <trkpt lat="47.51516" lon="6.7734">
        <ele>382.8</ele>
        <time>2014-11-09T11:37:54.000Z</time>
      </trkpt>
      <trkpt lat="47.51517" lon="6.77343">
        <ele>383</ele>
        <time>2014-11-09T11:37:55.000Z</time>
      </trkpt>
      <trkpt lat="47.51519" lon="6.77345">
        <ele>383.2</ele>
        <time>2014-11-09T11:37:56.000Z</time>
      </trkpt>
      <trkpt lat="47.51526" lon="6.77354">
        <ele>377.8</ele>
        <time>2014-11-09T11:37:59.000Z</time>
      </trkpt>
      <trkpt lat="47.51529" lon="6.77357">
        <ele>378.1</ele>
        <time>2014-11-09T11:38:00.000Z</time>
      </trkpt>
      <trkpt lat="47.51532" lon="6.77359">
        <ele>379</ele>
        <time>2014-11-09T11:38:01.000Z</time>
      </trkpt>
      <trkpt lat="47.51535" lon="6.77362">
        <ele>379.1</ele>
        <time>2014-11-09T11:38:02.000Z</time>
      </trkpt>
      <trkpt lat="47.51536" lon="6.77365">
        <ele>380.1</ele>
        <time>2014-11-09T11:38:03.000Z</time>
      </trkpt>
      <trkpt lat="47.51538" lon="6.77368">
        <ele>380.7</ele>
        <time>2014-11-09T11:38:04.000Z</time>
      </trkpt>
      <trkpt lat="47.51543" lon="6.77371">
        <ele>381</ele>
        <time>2014-11-09T11:38:05.000Z</time>
      </trkpt>
      <trkpt lat="47.51545" lon="6.77374">
        <ele>381.5</ele>
        <time>2014-11-09T11:38:06.000Z</time>
      </trkpt>
      <trkpt lat="47.51548" lon="6.77376">
        <ele>381.7</ele>
        <time>2014-11-09T11:38:07.000Z</time>
      </trkpt>
      <trkpt lat="47.5155" lon="6.77379">
        <ele>381.9</ele>
        <time>2014-11-09T11:38:08.000Z</time>
      </trkpt>
      <trkpt lat="47.51552" lon="6.77381">
        <ele>382.1</ele>
        <time>2014-11-09T11:38:09.000Z</time>
      </trkpt>
      <trkpt lat="47.51554" lon="6.77383">
        <ele>383.2</ele>
        <time>2014-11-09T11:38:10.000Z</time>
      </trkpt>
      <trkpt lat="47.51556" lon="6.77386">
        <ele>383.2</ele>
        <time>2014-11-09T11:38:11.001Z</time>
      </trkpt>
      <trkpt lat="47.51558" lon="6.77387">
        <ele>384.5</ele>
        <time>2014-11-09T11:38:12.000Z</time>
      </trkpt>
      <trkpt lat="47.5156" lon="6.77389">
        <ele>385.3</ele>
        <time>2014-11-09T11:38:13.000Z</time>
      </trkpt>
      <trkpt lat="47.51562" lon="6.77392">
        <ele>386.2</ele>
        <time>2014-11-09T11:38:14.000Z</time>
      </trkpt>
      <trkpt lat="47.51564" lon="6.77394">
        <ele>386.3</ele>
        <time>2014-11-09T11:38:15.000Z</time>
      </trkpt>
      <trkpt lat="47.51566" lon="6.77397">
        <ele>387.9</ele>
        <time>2014-11-09T11:38:16.000Z</time>
      </trkpt>
      <trkpt lat="47.51568" lon="6.774">
        <ele>388</ele>
        <time>2014-11-09T11:38:17.000Z</time>
      </trkpt>
      <trkpt lat="47.51571" lon="6.77403">
        <ele>388.2</ele>
        <time>2014-11-09T11:38:18.000Z</time>
      </trkpt>
      <trkpt lat="47.51574" lon="6.77406">
        <ele>386.9</ele>
        <time>2014-11-09T11:38:19.000Z</time>
      </trkpt>
      <trkpt lat="47.51576" lon="6.77409">
        <ele>383.2</ele>
        <time>2014-11-09T11:38:20.000Z</time>
      </trkpt>
      <trkpt lat="47.51579" lon="6.77412">
        <ele>384.6</ele>
        <time>2014-11-09T11:38:21.000Z</time>
      </trkpt>
      <trkpt lat="47.51582" lon="6.77415">
        <ele>384.6</ele>
        <time>2014-11-09T11:38:22.000Z</time>
      </trkpt>
      <trkpt lat="47.51585" lon="6.77418">
        <ele>384.2</ele>
        <time>2014-11-09T11:38:23.000Z</time>
      </trkpt>
      <trkpt lat="47.51587" lon="6.77421">
        <ele>383.5</ele>
        <time>2014-11-09T11:38:24.000Z</time>
      </trkpt>
      <trkpt lat="47.5159" lon="6.77425">
        <ele>384.2</ele>
        <time>2014-11-09T11:38:25.000Z</time>
      </trkpt>
      <trkpt lat="47.51592" lon="6.77428">
        <ele>384.6</ele>
        <time>2014-11-09T11:38:26.000Z</time>
      </trkpt>
      <trkpt lat="47.51594" lon="6.77431">
        <ele>383.6</ele>
        <time>2014-11-09T11:38:27.000Z</time>
      </trkpt>
      <trkpt lat="47.51597" lon="6.77434">
        <ele>383.7</ele>
        <time>2014-11-09T11:38:28.000Z</time>
      </trkpt>
      <trkpt lat="47.51599" lon="6.77437">
        <ele>383.4</ele>
        <time>2014-11-09T11:38:29.000Z</time>
      </trkpt>
      <trkpt lat="47.51601" lon="6.7744">
        <ele>383.3</ele>
        <time>2014-11-09T11:38:30.000Z</time>
      </trkpt>
      <trkpt lat="47.51604" lon="6.77443">
        <ele>383.9</ele>
        <time>2014-11-09T11:38:31.000Z</time>
      </trkpt>
      <trkpt lat="47.51606" lon="6.77446">
        <ele>384.3</ele>
        <time>2014-11-09T11:38:32.000Z</time>
      </trkpt>
      <trkpt lat="47.51607" lon="6.77449">
        <ele>384.2</ele>
        <time>2014-11-09T11:38:33.000Z</time>
      </trkpt>
      <trkpt lat="47.51609" lon="6.77452">
        <ele>384.8</ele>
        <time>2014-11-09T11:38:34.000Z</time>
      </trkpt>
      <trkpt lat="47.51611" lon="6.77455">
        <ele>385.1</ele>
        <time>2014-11-09T11:38:35.000Z</time>
      </trkpt>
      <trkpt lat="47.51613" lon="6.77458">
        <ele>384.7</ele>
        <time>2014-11-09T11:38:36.000Z</time>
      </trkpt>
      <trkpt lat="47.51615" lon="6.77461">
        <ele>384.8</ele>
        <time>2014-11-09T11:38:37.000Z</time>
      </trkpt>
      <trkpt lat="47.51617" lon="6.77464">
        <ele>385.9</ele>
        <time>2014-11-09T11:38:38.000Z</time>
      </trkpt>
      <trkpt lat="47.5162" lon="6.77466">
        <ele>385.9</ele>
        <time>2014-11-09T11:38:39.000Z</time>
      </trkpt>
      <trkpt lat="47.51623" lon="6.77469">
        <ele>386.3</ele>
        <time>2014-11-09T11:38:41.000Z</time>
      </trkpt>
      <trkpt lat="47.51624" lon="6.7747">
        <ele>386.4</ele>
        <time>2014-11-09T11:38:42.000Z</time>
      </trkpt>
      <trkpt lat="47.51626" lon="6.77472">
        <ele>386.5</ele>
        <time>2014-11-09T11:38:43.000Z</time>
      </trkpt>
      <trkpt lat="47.51628" lon="6.77475">
        <ele>386.5</ele>
        <time>2014-11-09T11:38:44.000Z</time>
      </trkpt>
      <trkpt lat="47.5163" lon="6.77477">
        <ele>387.3</ele>
        <time>2014-11-09T11:38:45.000Z</time>
      </trkpt>
      <trkpt lat="47.51633" lon="6.7748">
        <ele>387.6</ele>
        <time>2014-11-09T11:38:46.000Z</time>
      </trkpt>
      <trkpt lat="47.51635" lon="6.77483">
        <ele>388.6</ele>
        <time>2014-11-09T11:38:47.000Z</time>
      </trkpt>
      <trkpt lat="47.51637" lon="6.77486">
        <ele>388.8</ele>
        <time>2014-11-09T11:38:48.000Z</time>
      </trkpt>
      <trkpt lat="47.51639" lon="6.77488">
        <ele>389.6</ele>
        <time>2014-11-09T11:38:49.000Z</time>
      </trkpt>
      <trkpt lat="47.51641" lon="6.77491">
        <ele>390.7</ele>
        <time>2014-11-09T11:38:50.000Z</time>
      </trkpt>
      <trkpt lat="47.51643" lon="6.77494">
        <ele>390.3</ele>
        <time>2014-11-09T11:38:51.000Z</time>
      </trkpt>
      <trkpt lat="47.51646" lon="6.77498">
        <ele>390.5</ele>
        <time>2014-11-09T11:38:52.000Z</time>
      </trkpt>
      <trkpt lat="47.51649" lon="6.77501">
        <ele>391</ele>
        <time>2014-11-09T11:38:53.000Z</time>
      </trkpt>
      <trkpt lat="47.51651" lon="6.77504">
        <ele>391.3</ele>
        <time>2014-11-09T11:38:54.000Z</time>
      </trkpt>
      <trkpt lat="47.51653" lon="6.77507">
        <ele>391.4</ele>
        <time>2014-11-09T11:38:55.000Z</time>
      </trkpt>
      <trkpt lat="47.51655" lon="6.7751">
        <ele>391.5</ele>
        <time>2014-11-09T11:38:56.000Z</time>
      </trkpt>
      <trkpt lat="47.5166" lon="6.77517">
        <ele>386.6</ele>
        <time>2014-11-09T11:38:59.000Z</time>
      </trkpt>
      <trkpt lat="47.51662" lon="6.7752">
        <ele>387.5</ele>
        <time>2014-11-09T11:39:00.000Z</time>
      </trkpt>
      <trkpt lat="47.51665" lon="6.77523">
        <ele>387.1</ele>
        <time>2014-11-09T11:39:01.000Z</time>
      </trkpt>
      <trkpt lat="47.51667" lon="6.77525">
        <ele>387.1</ele>
        <time>2014-11-09T11:39:02.000Z</time>
      </trkpt>
      <trkpt lat="47.5167" lon="6.77528">
        <ele>387.3</ele>
        <time>2014-11-09T11:39:03.000Z</time>
      </trkpt>
      <trkpt lat="47.51672" lon="6.77531">
        <ele>387.2</ele>
        <time>2014-11-09T11:39:04.000Z</time>
      </trkpt>
      <trkpt lat="47.51675" lon="6.77534">
        <ele>387.4</ele>
        <time>2014-11-09T11:39:05.000Z</time>
      </trkpt>
      <trkpt lat="47.51677" lon="6.77537">
        <ele>388.6</ele>
        <time>2014-11-09T11:39:06.000Z</time>
      </trkpt>
      <trkpt lat="47.5168" lon="6.7754">
        <ele>388.6</ele>
        <time>2014-11-09T11:39:07.000Z</time>
      </trkpt>
      <trkpt lat="47.51682" lon="6.77543">
        <ele>388.9</ele>
        <time>2014-11-09T11:39:08.000Z</time>
      </trkpt>
      <trkpt lat="47.51685" lon="6.77546">
        <ele>389.8</ele>
        <time>2014-11-09T11:39:09.000Z</time>
      </trkpt>
      <trkpt lat="47.51687" lon="6.77548">
        <ele>390.4</ele>
        <time>2014-11-09T11:39:10.000Z</time>
      </trkpt>
      <trkpt lat="47.51689" lon="6.77551">
        <ele>389.6</ele>
        <time>2014-11-09T11:39:11.000Z</time>
      </trkpt>
      <trkpt lat="47.51691" lon="6.77554">
        <ele>389.5</ele>
        <time>2014-11-09T11:39:12.000Z</time>
      </trkpt>
      <trkpt lat="47.51694" lon="6.77557">
        <ele>389.1</ele>
        <time>2014-11-09T11:39:13.000Z</time>
      </trkpt>
      <trkpt lat="47.51696" lon="6.7756">
        <ele>389.5</ele>
        <time>2014-11-09T11:39:14.000Z</time>
      </trkpt>
      <trkpt lat="47.51699" lon="6.77561">
        <ele>390.1</ele>
        <time>2014-11-09T11:39:15.000Z</time>
      </trkpt>
      <trkpt lat="47.51701" lon="6.7756">
        <ele>389.6</ele>
        <time>2014-11-09T11:39:16.000Z</time>
      </trkpt>
      <trkpt lat="47.51703" lon="6.77558">
        <ele>389.5</ele>
        <time>2014-11-09T11:39:17.000Z</time>
      </trkpt>
      <trkpt lat="47.51706" lon="6.77554">
        <ele>389.6</ele>
        <time>2014-11-09T11:39:18.000Z</time>
      </trkpt>
      <trkpt lat="47.51708" lon="6.77552">
        <ele>390.4</ele>
        <time>2014-11-09T11:39:19.000Z</time>
      </trkpt>
      <trkpt lat="47.51711" lon="6.7755">
        <ele>390.3</ele>
        <time>2014-11-09T11:39:20.000Z</time>
      </trkpt>
      <trkpt lat="47.51713" lon="6.7755">
        <ele>390.2</ele>
        <time>2014-11-09T11:39:21.000Z</time>
      </trkpt>
      <trkpt lat="47.51716" lon="6.77548">
        <ele>389.8</ele>
        <time>2014-11-09T11:39:22.000Z</time>
      </trkpt>
      <trkpt lat="47.51719" lon="6.77546">
        <ele>389.6</ele>
        <time>2014-11-09T11:39:23.000Z</time>
      </trkpt>
      <trkpt lat="47.51721" lon="6.77542">
        <ele>389.9</ele>
        <time>2014-11-09T11:39:24.000Z</time>
      </trkpt>
      <trkpt lat="47.51722" lon="6.77537">
        <ele>390</ele>
        <time>2014-11-09T11:39:25.000Z</time>
      </trkpt>
      <trkpt lat="47.51723" lon="6.77531">
        <ele>390</ele>
        <time>2014-11-09T11:39:26.000Z</time>
      </trkpt>
      <trkpt lat="47.51723" lon="6.77526">
        <ele>392.8</ele>
        <time>2014-11-09T11:39:27.000Z</time>
      </trkpt>
      <trkpt lat="47.51724" lon="6.77522">
        <ele>395.8</ele>
        <time>2014-11-09T11:39:28.000Z</time>
      </trkpt>
      <trkpt lat="47.51725" lon="6.77518">
        <ele>398.6</ele>
        <time>2014-11-09T11:39:29.000Z</time>
      </trkpt>
      <trkpt lat="47.51725" lon="6.77512">
        <ele>399.9</ele>
        <time>2014-11-09T11:39:31.000Z</time>
      </trkpt>
      <trkpt lat="47.51726" lon="6.77509">
        <ele>400.8</ele>
        <time>2014-11-09T11:39:32.000Z</time>
      </trkpt>
      <trkpt lat="47.51726" lon="6.77507">
        <ele>401.6</ele>
        <time>2014-11-09T11:39:33.000Z</time>
      </trkpt>
      <trkpt lat="47.51726" lon="6.77503">
        <ele>399.7</ele>
        <time>2014-11-09T11:39:34.000Z</time>
      </trkpt>
      <trkpt lat="47.51727" lon="6.77498">
        <ele>399.6</ele>
        <time>2014-11-09T11:39:35.000Z</time>
      </trkpt>
      <trkpt lat="47.51728" lon="6.77494">
        <ele>399.6</ele>
        <time>2014-11-09T11:39:36.000Z</time>
      </trkpt>
      <trkpt lat="47.51731" lon="6.77491">
        <ele>401.1</ele>
        <time>2014-11-09T11:39:37.000Z</time>
      </trkpt>
      <trkpt lat="47.51734" lon="6.77491">
        <ele>401.1</ele>
        <time>2014-11-09T11:39:38.000Z</time>
      </trkpt>
      <trkpt lat="47.51738" lon="6.77492">
        <ele>400.9</ele>
        <time>2014-11-09T11:39:39.000Z</time>
      </trkpt>
      <trkpt lat="47.51742" lon="6.77493">
        <ele>400.4</ele>
        <time>2014-11-09T11:39:40.000Z</time>
      </trkpt>
      <trkpt lat="47.51747" lon="6.77494">
        <ele>400.5</ele>
        <time>2014-11-09T11:39:41.000Z</time>
      </trkpt>
      <trkpt lat="47.51751" lon="6.77494">
        <ele>400.3</ele>
        <time>2014-11-09T11:39:42.000Z</time>
      </trkpt>
      <trkpt lat="47.51756" lon="6.77494">
        <ele>399.8</ele>
        <time>2014-11-09T11:39:43.000Z</time>
      </trkpt>
      <trkpt lat="47.5176" lon="6.77495">
        <ele>399.3</ele>
        <time>2014-11-09T11:39:44.000Z</time>
      </trkpt>
      <trkpt lat="47.51764" lon="6.77496">
        <ele>398.9</ele>
        <time>2014-11-09T11:39:45.000Z</time>
      </trkpt>
      <trkpt lat="47.51768" lon="6.77497">
        <ele>398.4</ele>
        <time>2014-11-09T11:39:46.000Z</time>
      </trkpt>
      <trkpt lat="47.51772" lon="6.77498">
        <ele>397.9</ele>
        <time>2014-11-09T11:39:47.000Z</time>
      </trkpt>
      <trkpt lat="47.51777" lon="6.77499">
        <ele>397.7</ele>
        <time>2014-11-09T11:39:48.000Z</time>
      </trkpt>
      <trkpt lat="47.51783" lon="6.77502">
        <ele>397.6</ele>
        <time>2014-11-09T11:39:49.000Z</time>
      </trkpt>
      <trkpt lat="47.51787" lon="6.77504">
        <ele>397.5</ele>
        <time>2014-11-09T11:39:50.000Z</time>
      </trkpt>
      <trkpt lat="47.51792" lon="6.77505">
        <ele>396.2</ele>
        <time>2014-11-09T11:39:51.000Z</time>
      </trkpt>
      <trkpt lat="47.51796" lon="6.77507">
        <ele>396.3</ele>
        <time>2014-11-09T11:39:52.000Z</time>
      </trkpt>
      <trkpt lat="47.518" lon="6.77507">
        <ele>395.7</ele>
        <time>2014-11-09T11:39:53.000Z</time>
      </trkpt>
      <trkpt lat="47.51802" lon="6.77506">
        <ele>395.2</ele>
        <time>2014-11-09T11:39:54.000Z</time>
      </trkpt>
      <trkpt lat="47.51804" lon="6.77505">
        <ele>395.1</ele>
        <time>2014-11-09T11:39:55.000Z</time>
      </trkpt>
      <trkpt lat="47.51806" lon="6.77502">
        <ele>395</ele>
        <time>2014-11-09T11:39:56.000Z</time>
      </trkpt>
      <trkpt lat="47.5181" lon="6.77496">
        <ele>390.9</ele>
        <time>2014-11-09T11:39:59.000Z</time>
      </trkpt>
      <trkpt lat="47.51807" lon="6.77491">
        <ele>390.9</ele>
        <time>2014-11-09T11:40:00.000Z</time>
      </trkpt>
      <trkpt lat="47.51808" lon="6.77487">
        <ele>390.4</ele>
        <time>2014-11-09T11:40:01.000Z</time>
      </trkpt>
      <trkpt lat="47.51808" lon="6.77483">
        <ele>391.8</ele>
        <time>2014-11-09T11:40:02.000Z</time>
      </trkpt>
      <trkpt lat="47.51808" lon="6.77479">
        <ele>392.6</ele>
        <time>2014-11-09T11:40:03.000Z</time>
      </trkpt>
      <trkpt lat="47.51808" lon="6.77473">
        <ele>391.8</ele>
        <time>2014-11-09T11:40:05.000Z</time>
      </trkpt>
      <trkpt lat="47.51807" lon="6.77471">
        <ele>391.3</ele>
        <time>2014-11-09T11:40:06.000Z</time>
      </trkpt>
      <trkpt lat="47.51806" lon="6.77466">
        <ele>390.8</ele>
        <time>2014-11-09T11:40:09.000Z</time>
      </trkpt>
      <trkpt lat="47.51805" lon="6.77465">
        <ele>391.3</ele>
        <time>2014-11-09T11:40:10.000Z</time>
      </trkpt>
      <trkpt lat="47.51801" lon="6.77461">
        <ele>346.9</ele>
        <time>2014-11-09T11:41:06.000Z</time>
      </trkpt>
      <trkpt lat="47.51801" lon="6.77463">
        <ele>347.3</ele>
        <time>2014-11-09T11:41:06.999Z</time>
      </trkpt>
      <trkpt lat="47.518" lon="6.77469">
        <ele>354.6</ele>
        <time>2014-11-09T11:41:39.000Z</time>
      </trkpt>
      <trkpt lat="47.51801" lon="6.7747">
        <ele>355.3</ele>
        <time>2014-11-09T11:41:40.000Z</time>
      </trkpt>
      <trkpt lat="47.51805" lon="6.77469">
        <ele>355</ele>
        <time>2014-11-09T11:41:47.000Z</time>
      </trkpt>
      <trkpt lat="47.51806" lon="6.77469">
        <ele>355</ele>
        <time>2014-11-09T11:41:48.000Z</time>
      </trkpt>
      <trkpt lat="47.51806" lon="6.77468">
        <ele>343.1</ele>
        <time>2014-11-09T11:43:17.000Z</time>
      </trkpt>
    </trkseg>
  </trk>
</gpx>